Date time  Uvelocity_cm/s Vvelocity_cm/s W_velocity_cm/s horizontalSpeedCareful_cm/s TotalSpeedCareful_cm/s HorizontalWindDirection_deg WindElevation_deg SpeedOfSound_cm/sec Temperature_Kelvin pressure_mb2009/04/23 08:59:59.9     295     41     57    298    304  82.1  11.0  34152  289.44 0855.16
2009/04/23 09:00:00.0     183     37    188    187    265  78.5  50.1  34120  288.88 0855.16
2009/04/23 09:00:00.1     151    -24    186    154    241  99.2  56.3  34104  288.64 0855.16
2009/04/23 09:00:00.2     192    -46    148    198    247 103.7  40.7  34104  288.62 0855.15
2009/04/23 09:00:00.3     202    -15    143    203    248  94.3  38.6  34104  288.63 0855.15
2009/04/23 09:00:00.4     162     -5    153    163    223  92.1  48.0  34118  288.87 0855.15
2009/04/23 09:00:00.5     176     -3    132    177    220  91.0  40.4  34106  288.65 0855.15
2009/04/23 09:00:00.6     262    -32    214    264    339  97.0  43.4  34100  288.54 0855.15
2009/04/23 09:00:00.7     319      0    172    320    363  89.9  30.6  34104  288.64 0855.15
2009/04/23 09:00:00.8     296      7    133    297    325  88.5  25.8  34180  289.90 0855.15
2009/04/23 09:00:00.9     130    -61    122    144    188 115.4  44.3  34128  289.02 0855.15
2009/04/23 09:00:01.0     184    -65    101    196    220 109.5  29.3  34102  288.58 0855.15
2009/04/23 09:00:01.1      91    -29     24     96    100 108.2  14.3  34116  288.82 0855.15
2009/04/23 09:00:01.2     227     38    109    231    255  80.3  27.1  34140  289.24 0855.15
2009/04/23 09:00:01.3     289     77     84    300    312  75.0  15.7  34198  290.20 0855.15
2009/04/23 09:00:01.4     238      0     65    239    248  90.1  15.3  34146  289.32 0855.15
2009/04/23 09:00:01.5     300     59     74    306    315  78.8  13.7  34148  289.36 0855.15
2009/04/23 09:00:01.6     294     26    138    296    326  84.8  26.9  34146  289.34 0855.15
2009/04/23 09:00:01.7     251     22    214    253    331  84.8  44.5  34142  289.25 0855.15
2009/04/23 09:00:01.8     368     96    113    381    398  75.3  16.5  34074  288.13 0855.15
2009/04/23 09:00:01.9     383    126    128    404    424  71.8  17.7  34112  288.75 0855.15
2009/04/23 09:00:02.0     414    100     79    427    435  76.3  10.6  34124  288.97 0855.15
2009/04/23 09:00:02.1     425     67    118    431    448  81.0  15.4  34118  288.85 0855.15
2009/04/23 09:00:02.2     393    121    142    412    436  72.8  19.1  34106  288.67 0855.17
2009/04/23 09:00:02.3     354    155    130    387    409  66.4  18.6  34122  288.94 0855.17
2009/04/23 09:00:02.4     352    105     71    368    375  73.3  11.0  34130  289.08 0855.17
2009/04/23 09:00:02.5     347    115     99    366    380  71.6  15.2  34146  289.32 0855.17
2009/04/23 09:00:02.6     315    130    112    341    359  67.6  18.2  34158  289.54 0855.17
2009/04/23 09:00:02.7     328    133     96    354    367  67.9  15.3  34136  289.18 0855.17
2009/04/23 09:00:02.8     376     92    -15    388    389  76.2  -2.2  34106  288.67 0855.17
2009/04/23 09:00:02.9     395    153    -53    424    428  68.7  -7.2  34150  289.39 0855.17
2009/04/23 09:00:03.0     408    146     39    434    436  70.3   5.2  34152  289.43 0855.17
2009/04/23 09:00:03.1     335    110     -4    353    354  71.7  -0.7  34136  289.18 0855.17
2009/04/23 09:00:03.2     268    117     14    293    294  66.4   2.8  34138  289.19 0855.17
2009/04/23 09:00:03.3     340    122    102    362    377  70.2  15.8  34154  289.48 0855.17
2009/04/23 09:00:03.4     375     73     -8    383    384  79.0  -1.3  34154  289.47 0855.17
2009/04/23 09:00:03.5     274    186    106    332    349  55.9  17.7  34178  289.89 0855.17
2009/04/23 09:00:03.6     328    142     74    358    366  66.5  11.8  34152  289.43 0855.17
2009/04/23 09:00:03.7     389    140     46    414    417  70.2   6.4  34132  289.11 0855.17
2009/04/23 09:00:03.8     415    152     53    443    447  69.8   6.9  34168  289.72 0855.17
2009/04/23 09:00:03.9     229    166    133    283    312  54.0  27.1  34186  290.00 0855.17
2009/04/23 09:00:04.0     309    243     96    394    406  51.9  13.8  34152  289.42 0855.17
2009/04/23 09:00:04.1     236    325     38    402    404  36.0   5.4  34152  289.44 0855.17
2009/04/23 09:00:04.2     231    301    -48    380    384  37.5  -7.2  34160  289.57 0855.17
2009/04/23 09:00:04.3     108    327    108    345    362  18.4  17.5  34162  289.62 0855.17
2009/04/23 09:00:04.4     122    172    -62    211    219  35.4 -21.2  34150  289.40 0855.17
2009/04/23 09:00:04.5     -76      5    -26     77     81 274.4 -23.6  34176  289.84 0855.17
2009/04/23 09:00:04.6     -54     79    133     96    164 325.7  60.8  34166  289.69 0855.17
2009/04/23 09:00:04.7     -41    103    107    111    154 338.2  49.4  34164  289.63 0855.17
2009/04/23 09:00:04.8     -28    121    129    125    179 346.7  50.9  34156  289.50 0855.17
2009/04/23 09:00:04.9    -101    180     54    207    214 330.6  14.7  34166  289.67 0855.17
2009/04/23 09:00:05.0     -66    111    -22    130    132 329.3  -9.8  34170  289.74 0855.17
2009/04/23 09:00:05.1     -42     51     23     67     71 320.4  18.9  34162  289.62 0855.17
2009/04/23 09:00:05.2     -29     29     66     42     78 315.0  64.7  34164  289.65 0855.17
2009/04/23 09:00:05.3     -36      7     59     37     69 281.5  64.7  34162  289.62 0855.17
2009/04/23 09:00:05.4     -81     59     42    101    109 305.9  23.1  34164  289.63 0855.17
2009/04/23 09:00:05.5     -89     98     87    133    158 317.7  36.5  34164  289.65 0855.17
2009/04/23 09:00:05.6    -192    129     98    232    251 304.0  24.2  34148  289.37 0855.17
2009/04/23 09:00:05.7    -213    149     13    261    262 305.0   2.9  34130  289.05 0855.17
2009/04/23 09:00:05.8    -207    101    -38    231    235 296.0  -9.3  34124  288.97 0855.17
2009/04/23 09:00:05.9    -210    108    -85    237    251 297.3 -24.8  34126  289.00 0855.17
2009/04/23 09:00:06.0    -153    126    -57    199    208 309.6 -16.0  34120  288.91 0855.17
2009/04/23 09:00:06.1    -101    165    -83    194    211 328.6 -29.0  34090  288.40 0855.17
2009/04/23 09:00:06.2     -64    176    -75    188    202 340.0 -27.4  34092  288.43 0855.17
2009/04/23 09:00:06.3    -115    169    -97    205    226 325.7 -31.5  34090  288.40 0855.17
2009/04/23 09:00:06.4    -151    152   -107    215    240 315.2 -32.6  34132  289.11 0855.17
2009/04/23 09:00:06.5    -185    117    -98    220    240 302.4 -30.1  34134  289.12 0855.17
2009/04/23 09:00:06.6    -187    103   -131    214    250 298.9 -38.9  34098  288.51 0855.17
2009/04/23 09:00:06.7    -115    122   -108    168    199 316.6 -40.1  34082  288.25 0855.17
2009/04/23 09:00:06.8     -82    132   -105    156    188 327.9 -41.4  34078  288.18 0855.17
2009/04/23 09:00:06.9     -58    167   -112    177    209 340.8 -39.9  34092  288.43 0855.17
2009/04/23 09:00:07.0      47    101   -165    112    199  24.9 -67.0  34092  288.42 0855.17
2009/04/23 09:00:07.1    -114      8   -173    115    207 274.4 -67.8  34102  288.60 0855.17
2009/04/23 09:00:07.2    -156     -8   -112    157    192 267.0 -43.5  34136  289.16 0855.17
2009/04/23 09:00:07.3    -129     11    -76    130    150 275.2 -37.8  34146  289.33 0855.17
2009/04/23 09:00:07.4     -98     32    -95    104    140 288.4 -52.3  34144  289.31 0855.17
2009/04/23 09:00:07.5    -122      5   -117    123    169 272.6 -53.4  34138  289.21 0855.17
2009/04/23 09:00:07.6    -176     11    -73    177    191 273.7 -28.0  34126  289.01 0855.17
2009/04/23 09:00:07.7     -97    -22    -41    100    108 256.7 -27.4  34126  289.01 0855.17
2009/04/23 09:00:07.8     -31    -14     -4     35     36 244.8  -7.2  34130  289.06 0855.17
2009/04/23 09:00:07.9       0     -1      0      2      3 161.5  19.2  34130  289.08 0855.17
2009/04/23 09:00:08.0       5     32    -35     33     48   9.8 -54.5  34124  288.97 0855.17
2009/04/23 09:00:08.1      -4     53    -67     54     86 355.6 -61.3  34104  288.64 0855.17
2009/04/23 09:00:08.2      32     57    -44     66     79  29.9 -41.4  34092  288.43 0855.17
2009/04/23 09:00:08.3      33     54    -96     64    115  31.6 -68.5  34078  288.20 0855.17
2009/04/23 09:00:08.4      41     15    -95     44    104  69.2 -77.9  34076  288.16 0855.17
2009/04/23 09:00:08.5      57    -12    -79     59     98 102.4 -64.4  34080  288.21 0855.17
2009/04/23 09:00:08.6      90    -29    -41     95    103 108.2 -29.0  34084  288.30 0855.17
2009/04/23 09:00:08.7      74    -74    -74    105    128 135.0 -43.0  34082  288.25 0855.17
2009/04/23 09:00:08.8      45    -72    -74     85    112 147.9 -49.8  34088  288.35 0855.17
2009/04/23 09:00:08.9      46    -63    -35     79     86 143.9 -29.5  34090  288.38 0855.17
2009/04/23 09:00:09.0      46    -97    -90    108    140 154.5 -48.2  34088  288.36 0855.17
2009/04/23 09:00:09.1      53   -116    -52    128    138 155.5 -27.5  34088  288.36 0855.17
2009/04/23 09:00:09.2      69   -103    -78    124    146 146.2 -39.9  34090  288.38 0855.17
2009/04/23 09:00:09.3      77    -64    -32    101    105 130.0 -23.3  34094  288.47 0855.17
2009/04/23 09:00:09.4      76    -47     21     90     93 121.5  13.2  34100  288.55 0855.17
2009/04/23 09:00:09.5      61    -63     -4     88     89 135.9  -3.1  34098  288.52 0855.17
2009/04/23 09:00:09.6       9    -66    -11     67     68 171.9  -9.3  34092  288.42 0855.17
2009/04/23 09:00:09.7       0    -67     44     68     80 180.0  36.0  34100  288.55 0855.17
2009/04/23 09:00:09.8     -23    -71     57     75     94 198.5  41.2  34098  288.52 0855.17
2009/04/23 09:00:09.9     -16    -86     61     88    107 190.7  38.0  34096  288.48 0855.17
2009/04/23 09:00:10.0     -16    -74      9     76     77 192.5   6.9  34094  288.45 0855.17
2009/04/23 09:00:10.1      -7    -85     31     86     91 185.3  20.0  34096  288.48 0855.17
2009/04/23 09:00:10.2     -17    -65     18     68     71 195.2  15.3  34094  288.45 0855.18
2009/04/23 09:00:10.3     -17    -40     23     44     49 203.6  29.3  34096  288.48 0855.18
2009/04/23 09:00:10.4     -23    -23     24     33     40 225.0  39.7  34094  288.45 0855.18
2009/04/23 09:00:10.5      -3      0      8      4      9 270.0  72.9  34096  288.48 0855.18
2009/04/23 09:00:10.6      18     23      5     30     31  37.8  11.0  34096  288.48 0855.18
2009/04/23 09:00:10.7     103     61     35    121    127  59.3  16.3  34096  288.48 0855.18
2009/04/23 09:00:10.8     115    104     77    156    173  47.8  28.0  34110  288.72 0855.18
2009/04/23 09:00:10.9       4    172     55    173    182   1.6  17.7  34102  288.58 0855.18
2009/04/23 09:00:11.0      11    152     57    153    163   4.5  21.3  34118  288.86 0855.18
2009/04/23 09:00:11.2       8    225     79    226    240   2.2  19.4  34102  288.59 0855.18
2009/04/23 09:00:11.2      71    238     38    249    252  16.7   8.8  34110  288.71 0855.18
2009/04/23 09:00:11.3      65    207     72    218    230  17.4  18.4  34120  288.89 0855.18
2009/04/23 09:00:11.4     107    178     81    208    223  31.0  22.3  34118  288.87 0855.18
2009/04/23 09:00:11.5     105    195     63    222    231  28.3  16.0  34110  288.74 0855.18
2009/04/23 09:00:11.6      94    153     52    180    188  31.6  16.3  34112  288.75 0855.18
2009/04/23 09:00:11.7      51    118     11    129    130  23.7   4.9  34114  288.80 0855.18
2009/04/23 09:00:11.8      45     55    -21     72     75  39.6 -21.7  34122  288.94 0855.18
2009/04/23 09:00:11.9      76    -16      5     78     79 102.4   3.8  34116  288.82 0855.18
2009/04/23 09:00:12.0      75    -24     10     79     80 108.2   7.5  34110  288.74 0855.18
2009/04/23 09:00:12.1     116     48     43    126    134  67.4  18.9  34112  288.77 0855.18
2009/04/23 09:00:12.2     169     68     47    183    190  68.2  14.5  34114  288.79 0855.17
2009/04/23 09:00:12.4     131     57     73    144    161  66.4  28.7  34094  288.47 0855.17
2009/04/23 09:00:12.4     149    119      5    191    192  51.4   1.8  34104  288.62 0855.17
2009/04/23 09:00:12.5     151    146     57    211    219  46.0  15.3  34106  288.65 0855.17
2009/04/23 09:00:12.6     138     96     37    169    174  55.1  12.4  34112  288.75 0855.17
2009/04/23 09:00:12.7     146    105      5    181    182  54.3   1.8  34120  288.91 0855.17
2009/04/23 09:00:12.8     261     82    -10    274    275  72.5  -2.2  34188  290.03 0855.17
2009/04/23 09:00:12.9     184     73     34    199    203  68.3   9.9  34174  289.80 0855.17
2009/04/23 09:00:13.0      46     58     -9     75     76  38.7  -7.2  34166  289.69 0855.17
2009/04/23 09:00:13.1     -25     75     49     80     93 341.3  35.0  34154  289.48 0855.17
2009/04/23 09:00:13.2      78    118     25    142    145  33.4  10.1  34146  289.35 0855.17
2009/04/23 09:00:13.3     248     98    131    267    297  68.3  28.2  34210  290.42 0855.17
2009/04/23 09:00:13.4     109    132    152    172    229  39.6  45.9  34246  291.03 0855.17
2009/04/23 09:00:13.6     152    154    188    217    287  44.5  45.6  34186  290.02 0855.17
2009/04/23 09:00:13.7     255    185    140    316    345  54.0  25.6  34108  288.69 0855.17
2009/04/23 09:00:13.7     246    147    197    287    348  59.1  37.8  34146  289.33 0855.17
2009/04/23 09:00:13.8     282     94    176    298    346  71.6  33.5  34156  289.52 0855.17
2009/04/23 09:00:14.0     238     93     94    256    272  68.5  21.0  34120  288.88 0855.17
2009/04/23 09:00:14.1     266     76    116    277    300  74.0  24.1  34170  289.73 0855.17
2009/04/23 09:00:14.2     206     82    152    222    269  68.2  37.6  34194  290.15 0855.17
2009/04/23 09:00:14.3     285     31    138    287    318  83.8  27.7  34180  289.90 0855.17
2009/04/23 09:00:14.4     250     19    174    251    305  85.6  38.0  34188  290.05 0855.17
2009/04/23 09:00:14.5     202     24    200    204    285  83.0  49.9  34196  290.17 0855.17
2009/04/23 09:00:14.6     179     42    184    184    260  76.7  50.1  34194  290.14 0855.17
2009/04/23 09:00:14.7     175     89    161    197    254  63.1  43.7  34156  289.51 0855.17
2009/04/23 09:00:14.8     168    138    171    218    277  50.5  41.7  34192  290.10 0855.17
2009/04/23 09:00:14.9     190     83    118    208    239  66.5  32.3  34208  290.40 0855.17
2009/04/23 09:00:15.0     109     35    187    115    219  71.8  65.4  34158  289.53 0855.17
2009/04/23 09:00:15.1     218     68     32    229    232  72.5   8.0  34132  289.09 0855.17
2009/04/23 09:00:15.2     180     85     88    200    218  64.7  25.2  34120  288.91 0855.17
2009/04/23 09:00:15.3     152     48    134    160    208  72.3  44.1  34130  289.08 0855.16
2009/04/23 09:00:15.4     125     49     35    135    140  68.3  14.7  34116  288.84 0855.16
2009/04/23 09:00:15.5     236     86     84    252    266  70.0  18.5  34148  289.37 0855.16
2009/04/23 09:00:15.6     243     96    140    262    297  68.3  30.6  34148  289.37 0855.16
2009/04/23 09:00:15.7     221     59     66    229    239  74.9  16.0  34154  289.47 0855.16
2009/04/23 09:00:15.8     148    104     58    182    191  54.9  17.7  34146  289.35 0855.16
2009/04/23 09:00:15.9     201     -7    124    202    237  92.1  34.4  34146  289.35 0855.16
2009/04/23 09:00:16.0     169     57     89    179    199  71.4  28.5  34160  289.57 0855.16
2009/04/23 09:00:16.1     176    110    104    208    232  58.0  28.5  34176  289.84 0855.16
2009/04/23 09:00:16.2     169     99     86    196    214  59.6  25.2  34160  289.57 0855.16
2009/04/23 09:00:16.3     188    119     23    223    225  57.5   6.1  34150  289.41 0855.16
2009/04/23 09:00:16.4     130     88     39    158    163  55.8  13.9  34144  289.31 0855.16
2009/04/23 09:00:16.5     151     59     97    163    189  68.7  33.7  34128  289.04 0855.16
2009/04/23 09:00:16.6     112     36     89    118    147  71.8  41.2  34128  289.02 0855.16
2009/04/23 09:00:16.7     118     39     88    125    152  71.4  38.6  34126  288.99 0855.16
2009/04/23 09:00:16.8     170      1     88    171    192  89.6  29.1  34116  288.82 0855.16
2009/04/23 09:00:16.9     167      8     92    168    191  87.0  31.3  34120  288.91 0855.16
2009/04/23 09:00:17.0     172     14     81    173    191  85.0  27.1  34120  288.91 0855.16
2009/04/23 09:00:17.1     113     40    102    120    157  70.5  45.1  34124  288.97 0855.16
2009/04/23 09:00:17.2      66     19     84     69    108  73.2  56.4  34128  289.02 0855.16
2009/04/23 09:00:17.3      69     47     40     84     93  55.4  27.2  34136  289.18 0855.15
2009/04/23 09:00:17.4      40      0     53     41     67  90.0  58.5  34128  289.02 0855.15
2009/04/23 09:00:17.5      -4     12     70     13     71 341.3  90.0  34130  289.08 0855.15
2009/04/23 09:00:17.6     -20     14     43     25     49 306.0  66.8  34138  289.19 0855.15
2009/04/23 09:00:17.7     -17      0     43     18     46 270.0  77.1  34136  289.16 0855.15
2009/04/23 09:00:17.8     -46     -6     29     47     55 262.1  35.5  34138  289.21 0855.15
2009/04/23 09:00:17.9     -40    -19      8     45     46 243.8  10.1  34140  289.24 0855.15
2009/04/23 09:00:18.0     -26     28     38     39     54 316.8  51.1  34146  289.35 0855.15
2009/04/23 09:00:18.1     -44     35     -2     57     58 308.6  -2.2  34146  289.33 0855.15
2009/04/23 09:00:18.2     -48     30    -10     57     58 302.4 -10.3  34146  289.35 0855.15
2009/04/23 09:00:18.3     -38     27    -17     47     49 305.1 -24.4  34156  289.50 0855.15
2009/04/23 09:00:18.4     -27     35    -19     45     48 323.0 -27.4  34160  289.58 0855.15
2009/04/23 09:00:18.5     -35     63    -49     73     87 331.0 -41.4  34162  289.62 0855.15
2009/04/23 09:00:18.6     -55     77    -36     95    101 324.4 -25.9  34160  289.57 0855.15
2009/04/23 09:00:18.7     -53     56    -45     78     90 316.7 -37.3  34128  289.04 0855.15
2009/04/23 09:00:18.8     -49     83    -40     97    104 329.3 -27.4  34144  289.30 0855.15
2009/04/23 09:00:18.9     -68    104    -36    125    131 327.0 -16.0  34146  289.35 0855.15
2009/04/23 09:00:19.0     -70     79    -33    106    111 318.6 -22.3  34136  289.16 0855.15
2009/04/23 09:00:19.1     -14     71    -55     73     91 348.4 -45.6  34112  288.75 0855.15
2009/04/23 09:00:19.2     -22     53    -56     58     80 337.3 -53.8  34134  289.13 0855.15
2009/04/23 09:00:19.3     -10     51    -58     53     78 348.4 -56.6  34152  289.45 0855.14
2009/04/23 09:00:19.4      16     49    -65     52     83  18.5 -61.3  34154  289.46 0855.14
2009/04/23 09:00:19.5       0     28    -57     29     63   0.9 -76.3  34136  289.18 0855.14
2009/04/23 09:00:19.6       8     23    -43     25     49  18.7 -71.2  34126  288.99 0855.14
2009/04/23 09:00:19.7      42     26     -6     50     51  58.5  -7.2  34130  289.08 0855.14
2009/04/23 09:00:19.8      62     39      3     74     75  57.6   2.9  34130  289.08 0855.14
2009/04/23 09:00:19.9      88     29     28     93     98  71.6  16.8  34128  289.04 0855.14
2009/04/23 09:00:20.0     120     32     10    125    126  75.0   4.9  34118  288.87 0855.14
2009/04/23 09:00:20.1     123      9     64    124    139  85.6  29.3  34150  289.41 0855.14
2009/04/23 09:00:20.2      66     31     80     74    108  64.8  52.2  34152  289.45 0855.14
2009/04/23 09:00:20.3      70     33    104     78    130  64.8  59.0  34160  289.58 0855.14
2009/04/23 09:00:20.4      27     44     94     52    107  31.6  68.8  34154  289.48 0855.14
2009/04/23 09:00:20.5      20      7     96     22     98  70.0  87.5  34140  289.23 0855.14
2009/04/23 09:00:20.6      20     -6     88     22     90 108.4  86.4  34134  289.14 0855.14
2009/04/23 09:00:20.7      59     50    113     78    137  49.6  62.1  34130  289.08 0855.14
2009/04/23 09:00:20.8      74     38    111     84    139  62.9  59.4  34162  289.62 0855.14
2009/04/23 09:00:20.9      21     21    128     30    131  45.1  87.0  34160  289.58 0855.14
2009/04/23 09:00:21.0     -58     32     57     67     87 298.9  44.8  34150  289.41 0855.14
2009/04/23 09:00:21.1    -120     44     31    129    133 290.4  13.7  34148  289.38 0855.14
2009/04/23 09:00:21.2     -18     15     40     24     46 309.5  65.7  34146  289.35 0855.14
2009/04/23 09:00:21.3      68    -23     79     73    107 109.1  52.2  34138  289.21 0855.12
2009/04/23 09:00:21.4     111      1    109    112    156  89.2  49.9  34146  289.33 0855.12
2009/04/23 09:00:21.5     104     30     98    109    146  73.6  46.9  34152  289.43 0855.12
2009/04/23 09:00:21.6      84     17     91     86    125  78.5  51.2  34162  289.62 0855.12
2009/04/23 09:00:21.7       9     28     76     30     81  18.7  77.6  34164  289.63 0855.12
2009/04/23 09:00:21.8      33      0     48     34     58  89.2  61.5  34164  289.65 0855.12
2009/04/23 09:00:21.9      -5     49      9     50     51 353.8  11.0  34168  289.72 0855.12
2009/04/23 09:00:22.0       9     64     22     65     69   8.0  18.9  34174  289.82 0855.12
2009/04/23 09:00:22.1      23     90     32     94    100  14.7  18.9  34180  289.91 0855.12
2009/04/23 09:00:22.2      15     73     -4     75     76  11.6  -3.2  34186  290.01 0855.12
2009/04/23 09:00:22.3      -1     64    -10     65     66 359.1  -9.3  34184  289.99 0855.12
2009/04/23 09:00:22.4      -9     69    -26     70     74 352.0 -24.4  34182  289.96 0855.12
2009/04/23 09:00:22.5      -1     85    -36     86     93 359.0 -28.5  34176  289.84 0855.12
2009/04/23 09:00:22.6      40     45    -43     61     74  41.4 -43.0  34174  289.82 0855.12
2009/04/23 09:00:22.7       7     26    -48     27     55  15.1 -72.1  34182  289.96 0855.12
2009/04/23 09:00:22.8       8     26    -24     28     36  18.5 -50.2  34184  289.99 0855.12
2009/04/23 09:00:22.9      30    -25      7     40     41 129.5  10.1  34182  289.94 0855.12
2009/04/23 09:00:23.0      50     16     47     53     70  71.8  46.9  34192  290.13 0855.12
2009/04/23 09:00:23.1      92     46     74    103    126  63.4  39.5  34182  289.96 0855.12
2009/04/23 09:00:23.2     138     32     -7    142    143  76.8  -3.2  34174  289.80 0855.12
2009/04/23 09:00:23.3     106     18     29    108    113  80.3  15.3  34194  290.16 0855.13
2009/04/23 09:00:23.4      60     30     50     68     84  62.9  40.1  34194  290.14 0855.13
2009/04/23 09:00:23.5     -14     75     58     77     96 349.3  40.7  34188  290.06 0855.13
2009/04/23 09:00:23.6     -28    102     80    106    132 344.4  41.6  34200  290.25 0855.13
2009/04/23 09:00:23.7      56     13     84     58    102  76.7  61.5  34194  290.16 0855.13
2009/04/23 09:00:23.8      99     47    125    110    166  64.2  54.3  34182  289.96 0855.13
2009/04/23 09:00:23.9     139     76    102    159    188  61.1  35.6  34194  290.14 0855.13
2009/04/23 09:00:24.0     102     57     89    118    147  60.7  41.2  34192  290.13 0855.13
2009/04/23 09:00:24.1     110     85    111    140    178  52.2  42.4  34198  290.21 0855.13
2009/04/23 09:00:24.2      41     79     81     90    121  27.6  46.9  34200  290.25 0855.13
2009/04/23 09:00:24.3      41     56     66     70     96  36.0  49.0  34204  290.31 0855.13
2009/04/23 09:00:24.4      64     66     89     93    128  44.1  49.0  34178  289.89 0855.13
2009/04/23 09:00:24.5      -3    -46     76     47     89 184.5  65.1  34162  289.60 0855.13
2009/04/23 09:00:24.6      24    -40     61     47     77 148.4  57.5  34136  289.16 0855.13
2009/04/23 09:00:24.7      26      0     60     27     65  90.0  74.0  34132  289.11 0855.13
2009/04/23 09:00:24.8      12      8     75     15     76  57.5  89.0  34146  289.35 0855.13
2009/04/23 09:00:24.9      23      5     30     24     38  76.7  56.4  34148  289.38 0855.13
2009/04/23 09:00:25.0       6     10     -2     13     14  32.5 -11.3  34158  289.53 0855.13
2009/04/23 09:00:25.1     -16     47    -25     50     55 341.3 -32.6  34158  289.55 0855.13
2009/04/23 09:00:25.2     -55     80    -18     98    100 325.3 -10.9  34160  289.57 0855.13
2009/04/23 09:00:25.3     -73     47     -9     88     89 302.9  -6.2  34174  289.82 0855.14
2009/04/23 09:00:25.4     -40     64     -3     76     77 327.4  -2.2  34184  289.99 0855.14
2009/04/23 09:00:25.5     -55     53    -28     77     81 314.1 -24.8  34172  289.79 0855.14
2009/04/23 09:00:25.6     -71     27    -35     77     84 290.8 -30.6  34174  289.82 0855.14
2009/04/23 09:00:25.7     -34     31    -35     47     58 312.2 -45.1  34176  289.84 0855.14
2009/04/23 09:00:25.8     -24      7    -42     26     49 286.8 -69.1  34164  289.63 0855.14
2009/04/23 09:00:25.9       0    -14    -27     15     30 182.7 -73.2  34156  289.52 0855.14
2009/04/23 09:00:26.0       5    -10    -20     12     23 151.0 -71.2  34158  289.53 0855.14
2009/04/23 09:00:26.1      17      0    -22     18     28  90.0 -58.7  34166  289.67 0855.14
2009/04/23 09:00:26.2      23     23    -16     33     36  45.1 -31.6  34174  289.82 0855.14
2009/04/23 09:00:26.3      28     35    -24     46     51  38.7 -33.7  34174  289.80 0855.14
2009/04/23 09:00:26.4      15     43    -24     46     51  20.0 -33.7  34174  289.80 0855.14
2009/04/23 09:00:26.5      30     56    -12     64     66  28.1 -11.3  34170  289.74 0855.14
2009/04/23 09:00:26.6      39      4    -14     40     42  83.0 -24.4  34166  289.69 0855.14
2009/04/23 09:00:26.7      72     -1     -2     73     74  90.8  -2.2  34154  289.48 0855.14
2009/04/23 09:00:26.8     172      3     86    173    193  88.7  28.2  34170  289.74 0855.14
2009/04/23 09:00:26.9     205     35    109    208    234  80.3  29.8  34176  289.84 0855.14
2009/04/23 09:00:27.0     117     26    121    121    171  77.2  50.1  34176  289.84 0855.14
2009/04/23 09:00:27.1     142     57     83    154    174  68.2  30.6  34192  290.13 0855.14
2009/04/23 09:00:27.2     179     29    150    182    235  80.8  43.7  34158  289.55 0855.14
2009/04/23 09:00:27.3     185      5    170    186    251  88.3  47.1  34158  289.55 0855.15
2009/04/23 09:00:27.4     163     54    128    172    214  71.4  40.1  34138  289.21 0855.15
2009/04/23 09:00:27.5     125    -17    162    127    205  97.9  57.9  34144  289.31 0855.15
2009/04/23 09:00:27.6      82    -83    118    117    166 135.3  49.9  34148  289.38 0855.15
2009/04/23 09:00:27.7      16     27    111     32    115  30.7  83.9  34146  289.33 0855.15
2009/04/23 09:00:27.8     123    -17     92    125    155  97.9  39.7  34148  289.38 0855.15
2009/04/23 09:00:27.9     101     32    147    106    181  72.3  60.6  34140  289.24 0855.15
2009/04/23 09:00:28.0      67      9     95     68    116  82.1  61.1  34140  289.23 0855.15
2009/04/23 09:00:28.1     142     12    123    143    188  84.8  44.8  34150  289.41 0855.15
2009/04/23 09:00:28.2     212     98    132    234    268  65.2  31.9  34130  289.07 0855.15
2009/04/23 09:00:28.3     184    117    195    219    293  57.6  46.4  34146  289.34 0855.15
2009/04/23 09:00:28.4     197     76    180    212    278  68.9  44.8  34142  289.25 0855.15
2009/04/23 09:00:28.5     182    133    151    226    271  53.8  36.5  34142  289.25 0855.15
2009/04/23 09:00:28.6      82     85    132    119    177  44.1  53.3  34162  289.60 0855.15
2009/04/23 09:00:28.7      21     55    106     59    121  20.9  68.8  34170  289.74 0855.15
2009/04/23 09:00:28.8       2     26     71     27     75   4.5  79.2  34156  289.50 0855.15
2009/04/23 09:00:28.9     -37    -10     71     39     81 254.9  68.8  34152  289.43 0855.15
2009/04/23 09:00:29.0      62    -29    168     69    181 115.4  76.8  34146  289.33 0855.15
2009/04/23 09:00:29.1     158    179     45    240    245  41.4  10.8  34146  289.32 0855.15
2009/04/23 09:00:29.2      23     72    127     76    148  18.3  66.7  34144  289.30 0855.15
2009/04/23 09:00:29.3     -17     17     56     25     61 314.9  75.0  34146  289.33 0855.15
2009/04/23 09:00:29.4      69     98     19    121    123  35.2   9.0  34148  289.36 0855.15
2009/04/23 09:00:29.5      74     72     51    104    115  45.6  27.3  34148  289.38 0855.15
2009/04/23 09:00:29.6      99     59     47    116    125  59.3  23.0  34146  289.33 0855.15
2009/04/23 09:00:29.7      47     83     93     96    133  29.4  49.9  34142  289.28 0855.15
2009/04/23 09:00:29.9      14     29    108     33    112  25.4  82.3  34140  289.23 0855.15
2009/04/23 09:00:29.9      38      2    127     39    132  85.7  82.3  34130  289.08 0855.15
2009/04/23 09:00:30.0      65     -8    105     66    124  97.0  64.7  34132  289.11 0855.15
2009/04/23 09:00:30.1      32    -68     38     76     84 154.7  28.7  34132  289.09 0855.15
2009/04/23 09:00:30.2      38   -116     36    123    129 161.7  16.3  34128  289.04 0855.15
2009/04/23 09:00:30.3     132   -124      0    182    183 133.2  -0.3  34122  288.92 0855.15
2009/04/23 09:00:30.4     129   -115     64    174    185 131.8  20.7  34122  288.94 0855.15
2009/04/23 09:00:30.5     160    -93     88    186    205 120.2  27.2  34122  288.94 0855.15
2009/04/23 09:00:30.6     163    -66     90    177    198 112.2  29.2  34122  288.92 0855.15
2009/04/23 09:00:30.7     132    -29     48    136    145 102.4  19.4  34124  288.97 0855.15
2009/04/23 09:00:30.8     150    -57     88    161    183 110.8  31.3  34114  288.80 0855.15
2009/04/23 09:00:30.9     135    -38    131    141    192 105.9  47.9  34118  288.87 0855.15
2009/04/23 09:00:31.0      65    -36    121     75    142 118.9  64.7  34118  288.87 0855.15
2009/04/23 09:00:31.1     -16     -7     72     18     74 244.7  84.9  34122  288.92 0855.15
2009/04/23 09:00:31.2      26    -41     76     49     90 147.5  64.6  34122  288.92 0855.15
2009/04/23 09:00:31.4     108    -83    109    137    175 127.3  42.7  34120  288.89 0855.16
2009/04/23 09:00:31.4      82    -26    128     87    154 107.7  62.7  34120  288.91 0855.16
2009/04/23 09:00:31.5     123    -25    173    126    214 101.5  60.5  34122  288.94 0855.16
2009/04/23 09:00:31.6     -62      6     93     63    112 276.1  62.6  34120  288.91 0855.16
2009/04/23 09:00:31.7      84      0    159     85    180  90.0  69.6  34120  288.89 0855.16
2009/04/23 09:00:31.8     139     40    131    145    195  73.6  46.9  34108  288.69 0855.16
2009/04/23 09:00:31.9     106     26    140    110    178  76.3  57.9  34114  288.79 0855.16
2009/04/23 09:00:32.0      96     34    151    102    182  70.5  63.2  34112  288.75 0855.16
2009/04/23 09:00:32.1     140      0    166    141    217  90.0  55.4  34116  288.84 0855.16
2009/04/23 09:00:32.2     158     -2    142    159    213  90.9  46.4  34128  289.02 0855.16
2009/04/23 09:00:32.3     180    -31    133    183    226  99.9  39.7  34124  288.97 0855.16
2009/04/23 09:00:32.4     138     -4    172    139    221  91.7  56.6  34128  289.02 0855.16
2009/04/23 09:00:32.5     130    -15    163    131    209  96.6  56.9  34126  289.01 0855.16
2009/04/23 09:00:32.6      74     25    123     79    146  71.4  64.6  34124  288.96 0855.16
2009/04/23 09:00:32.7     109     68    181    129    222  58.0  61.1  34118  288.87 0855.16
2009/04/23 09:00:32.8     123     41    169    130    213  71.6  58.5  34116  288.82 0855.16
2009/04/23 09:00:32.9     127     58    168    140    218  65.2  56.3  34120  288.91 0855.16
2009/04/23 09:00:33.0     156     42    141    162    214  74.7  45.6  34120  288.89 0855.16
2009/04/23 09:00:33.1     192     41    171    197    260  77.8  45.6  34110  288.71 0855.16
2009/04/23 09:00:33.2     135     23    164    137    213  80.3  56.3  34106  288.65 0855.16
2009/04/23 09:00:33.3      60     20    147     64    160  71.6  75.3  34102  288.60 0855.16
2009/04/23 09:00:33.4      15     23    110     28    113  32.6  85.4  34104  288.64 0855.16
2009/04/23 09:00:33.5       0    -11     87     12     87 182.7  90.0  34102  288.60 0855.16
2009/04/23 09:00:33.6      41     47    107     63    124  41.4  66.8  34106  288.65 0855.16
2009/04/23 09:00:33.7      41     47    107     63    124  41.4  66.8  34106  288.65 0855.16
2009/04/23 09:00:33.8      92     35    121     99    156  68.7  56.4  34110  288.74 0855.16
2009/04/23 09:00:33.9     105    -14    136    106    172  97.9  57.9  34110  288.74 0855.16
2009/04/23 09:00:34.0     135      0    115    136    178  90.0  44.5  34106  288.65 0855.16
2009/04/23 09:00:34.1     114     27    141    118    183  76.7  56.1  34108  288.69 0855.16
2009/04/23 09:00:34.2     119     -9    139    120    183  94.4  54.8  34106  288.67 0855.16
2009/04/23 09:00:34.3      89     -1    113     90    144  91.3  57.5  34106  288.67 0855.16
2009/04/23 09:00:34.4      25     28     78     38     86  41.4  72.4  34104  288.62 0855.16
2009/04/23 09:00:34.5      28     61    102     68    122  24.5  62.7  34102  288.60 0855.16
2009/04/23 09:00:34.6       3      0     83      4     83  90.0  90.0  34102  288.60 0855.16
2009/04/23 09:00:34.7      58      3    108     59    123  86.5  68.9  34102  288.60 0855.16
2009/04/23 09:00:34.8      28     70     95     76    121  21.8  57.5  34102  288.60 0855.16
2009/04/23 09:00:34.9     -19    -23     76     30     81 219.6  77.6  34106  288.65 0855.16
2009/04/23 09:00:35.0     -25    -76    109     81    135 198.5  60.0  34106  288.67 0855.16
2009/04/23 09:00:35.1     -35   -106    127    112    169 198.3  54.3  34104  288.64 0855.16
2009/04/23 09:00:35.2     -17    -92    108     94    143 190.7  54.3  34104  288.64 0855.16
2009/04/23 09:00:35.3      30    -65     94     72    118 154.7  58.5  34104  288.64 0855.15
2009/04/23 09:00:35.4     -20    -49     81     54     97 202.7  64.1  34106  288.65 0855.15
2009/04/23 09:00:35.5     -84     27     37     89     96 288.2  23.6  34102  288.60 0855.15
2009/04/23 09:00:35.6     -18      3     26     19     32 281.5  60.5  34104  288.62 0855.15
2009/04/23 09:00:35.7      36     16     70     40     80  65.6  67.7  34106  288.65 0855.15
2009/04/23 09:00:35.8      26    -56     94     62    112 154.6  64.1  34104  288.64 0855.15
2009/04/23 09:00:35.9      53   -110     86    123    150 154.1  38.6  34104  288.62 0855.15
2009/04/23 09:00:36.0      40   -120     53    127    137 161.3  23.6  34100  288.55 0855.15
2009/04/23 09:00:36.1      64    -88     42    110    117 143.9  22.0  34100  288.57 0855.15
2009/04/23 09:00:36.2      55    -55     20     79     82 135.0  14.3  34100  288.57 0855.15
2009/04/23 09:00:36.3      42    -33     20     54     57 127.8  20.0  34100  288.57 0855.14
2009/04/23 09:00:36.4      22    -17     15     29     32 127.8  29.3  34100  288.55 0855.14
2009/04/23 09:00:36.5      44     -6     37     45     58  97.9  43.8  34100  288.57 0855.14
2009/04/23 09:00:36.6      42      6     25     43     49  81.2  33.5  34100  288.55 0855.14
2009/04/23 09:00:36.7       0      0     40      0     40   0.0  90.0  34098  288.53 0855.14
2009/04/23 09:00:36.8     -20    -45     56     50     75 204.5  53.3  34102  288.60 0855.14
2009/04/23 09:00:36.9      21    -40     78     46     90 152.8  66.8  34094  288.47 0855.14
2009/04/23 09:00:37.0      19     40     94     45    104  25.4  72.8  34100  288.55 0855.14
2009/04/23 09:00:37.1       0      0     68      1     68 189.7  90.0  34102  288.60 0855.14
2009/04/23 09:00:37.2      87      7    140     88    165  84.8  64.7  34096  288.48 0855.14
2009/04/23 09:00:37.3     105     39    107    113    155  69.6  48.7  34096  288.48 0855.14
2009/04/23 09:00:37.4     113     23    122    116    168  78.5  51.4  34094  288.47 0855.14
2009/04/23 09:00:37.5     101    -33    134    107    171 108.2  57.1  34096  288.50 0855.14
2009/04/23 09:00:37.6     135      8    125    136    184  86.5  47.9  34096  288.48 0855.14
2009/04/23 09:00:37.7     137     54    121    148    191  68.3  43.7  34096  288.48 0855.14
2009/04/23 09:00:37.8     204     64     89    214    231  72.5  23.6  34104  288.64 0855.14
2009/04/23 09:00:37.9     156      1    107    157    189  89.6  37.6  34104  288.62 0855.14
2009/04/23 09:00:38.0     186     14    111    187    217  85.7  33.5  34104  288.64 0855.14
2009/04/23 09:00:38.1     153    -16    148    154    213  96.1  49.2  34102  288.58 0855.14
2009/04/23 09:00:38.2     139    -10    154    140    208  94.4  53.0  34102  288.60 0855.14
2009/04/23 09:00:38.3      99     32    164    105    194  71.8  64.6  34114  288.79 0855.14
2009/04/23 09:00:38.4     128    -42    129    135    186 108.2  48.7  34104  288.62 0855.14
2009/04/23 09:00:38.5     133    -38    103    139    173 105.9  40.1  34098  288.52 0855.14
2009/04/23 09:00:38.6     113      0    126    114    169  90.0  53.3  34096  288.50 0855.14
2009/04/23 09:00:38.7     161      2     90    162    185  89.2  31.4  34092  288.43 0855.14
2009/04/23 09:00:38.8     192     36     57    196    205  79.4  16.3  34106  288.65 0855.14
2009/04/23 09:00:38.9     180     50     50    187    194  74.5  15.2  34152  289.43 0855.14
2009/04/23 09:00:39.0     146     88     68    171    184  58.9  22.8  34190  290.08 0855.14
2009/04/23 09:00:39.1     173     90     56    196    204  62.5  16.0  34176  289.84 0855.14
2009/04/23 09:00:39.2     183    116     27    217    219  57.6   7.1  34142  289.26 0855.14
2009/04/23 09:00:39.3     108    110     47    155    163  44.5  17.1  34170  289.75 0855.14
2009/04/23 09:00:39.4     146     22     88    148    172  81.2  34.0  34162  289.60 0855.14
2009/04/23 09:00:39.5     170     81     49    189    196  64.6  14.5  34120  288.89 0855.14
2009/04/23 09:00:39.6     153     47     -6    161    162  72.9  -2.2  34104  288.64 0855.14
2009/04/23 09:00:39.7     118      9     65    119    135  85.6  31.4  34108  288.69 0855.14
2009/04/23 09:00:39.8     167     14     14    168    169  85.2   4.9  34108  288.70 0855.14
2009/04/23 09:00:39.9     241     33     47    244    249  82.0  11.1  34128  289.03 0855.14
2009/04/23 09:00:40.0     160     75     74    177    191  64.7  23.8  34148  289.38 0855.14
2009/04/23 09:00:40.2     116    135    124    179    217  40.8  38.0  34186  290.02 0855.14
2009/04/23 09:00:40.2     126     60    113    140    179  64.6  43.3  34162  289.62 0855.14
2009/04/23 09:00:40.3     191     76     76    206    219  68.3  21.0  34194  290.16 0855.13
2009/04/23 09:00:40.4     194    149    105    245    266  52.5  24.6  34234  290.83 0855.13
2009/04/23 09:00:40.5     251    180     65    310    317  54.3  12.0  34162  289.59 0855.13
2009/04/23 09:00:40.6     205     49    -19    211    212  76.5  -5.2  34116  288.82 0855.13
2009/04/23 09:00:40.7     227    111     86    253    268  63.8  18.9  34146  289.32 0855.13
2009/04/23 09:00:40.9     248    117     88    275    289  64.8  17.9  34184  289.97 0855.13
2009/04/23 09:00:41.0     167    138     17    217    218  50.5   4.6  34214  290.48 0855.13
2009/04/23 09:00:41.1     125     94     22    157    159  53.1   8.0  34222  290.62 0855.13
2009/04/23 09:00:41.2     128    104     40    165    170  50.9  13.7  34216  290.53 0855.13
2009/04/23 09:00:41.2     157    110     59    193    202  54.9  17.1  34220  290.60 0855.13
2009/04/23 09:00:41.4     119    163     49    203    209  36.1  13.7  34210  290.43 0855.13
2009/04/23 09:00:41.5      88    139    -19    165    167  32.5  -6.7  34180  289.91 0855.13
2009/04/23 09:00:41.6      85     88    -41    123    129  44.1 -23.6  34156  289.52 0855.13
2009/04/23 09:00:41.7     134     66     14    150    151  63.8   5.4  34196  290.19 0855.13
2009/04/23 09:00:41.8     117     78     28    141    144  56.3  11.6  34192  290.11 0855.13
2009/04/23 09:00:41.9     164    124     -6    206    207  52.9  -1.8  34190  290.08 0855.13
2009/04/23 09:00:42.0     241    140     20    280    281  59.8   4.2  34154  289.46 0855.13
2009/04/23 09:00:42.1     254    101     36    274    277  68.2   7.5  34134  289.12 0855.13
2009/04/23 09:00:42.2     295    123     23    320    321  67.3   4.2  34142  289.25 0855.13
2009/04/23 09:00:42.3     271     16    -24    272    274  86.5  -5.2  34118  288.87 0855.13
2009/04/23 09:00:42.4     289    136     64    320    327  64.8  11.3  34156  289.49 0855.13
2009/04/23 09:00:42.5     268     66    -77    277    287  76.1 -20.2  34128  289.02 0855.13
2009/04/23 09:00:42.6     215     97    -76    237    248  65.6 -22.9  34170  289.73 0855.13
2009/04/23 09:00:42.7     214     84    -83    231    245  68.5 -24.8  34162  289.59 0855.13
2009/04/23 09:00:42.8     271     33     33    274    276  82.9   6.9  34100  288.54 0855.13
2009/04/23 09:00:42.9     270     45     32    274    276  80.4   6.7  34088  288.34 0855.13
2009/04/23 09:00:43.0     243     56     43    250    254  77.0   9.9  34106  288.66 0855.13
2009/04/23 09:00:43.1     231     63     60    240    248  74.7  14.2  34128  289.02 0855.13
2009/04/23 09:00:43.2     229     48    100    235    255  78.1  24.3  34156  289.51 0855.13
2009/04/23 09:00:43.3     172     -7     84    173    192  92.4  27.3  34130  289.06 0855.13
2009/04/23 09:00:43.4     178     13    106    179    208  85.7  33.5  34216  290.53 0855.13
2009/04/23 09:00:43.5     161     44     68    168    181  74.5  23.1  34160  289.58 0855.13
2009/04/23 09:00:43.6     204     33     74    207    219  80.8  20.4  34118  288.86 0855.13
2009/04/23 09:00:43.7     187     -2     98    188    212  90.8  29.8  34112  288.77 0855.13
2009/04/23 09:00:43.8     152     43     94    159    184  74.1  33.5  34102  288.60 0855.13
2009/04/23 09:00:43.9     144     52     32    154    158  70.0  12.0  34088  288.36 0855.13
2009/04/23 09:00:44.0     269     94     24    286    288  70.7   4.9  34094  288.46 0855.13
2009/04/23 09:00:44.1     203     81     18    219    220  68.2   4.9  34090  288.38 0855.13
2009/04/23 09:00:44.2     214      9    103    215    238  87.4  27.4  34112  288.77 0855.13
2009/04/23 09:00:44.3     254     22    188    255    316  85.0  40.0  34102  288.59 0855.13
2009/04/23 09:00:44.4     206      2    179    207    273  89.2  45.4  34094  288.44 0855.13
2009/04/23 09:00:44.5     199    -39    198    203    283 101.2  49.8  34090  288.37 0855.13
2009/04/23 09:00:44.6     190      0    175    191    259  89.9  47.7  34094  288.44 0855.13
2009/04/23 09:00:44.7     189    -65    115    201    231 109.1  32.7  34088  288.36 0855.13
2009/04/23 09:00:44.8     188    -37    107    192    219 101.2  31.4  34088  288.35 0855.13
2009/04/23 09:00:44.9     157      1     89    158    181  89.6  31.6  34088  288.36 0855.13
2009/04/23 09:00:45.0     156     -8     85    157    178  93.0  31.0  34088  288.35 0855.13
2009/04/23 09:00:45.1     155    -21     85    157    178  98.0  31.0  34088  288.35 0855.13
2009/04/23 09:00:45.2     110    -22     73    113    134 101.5  35.6  34092  288.42 0855.13
2009/04/23 09:00:45.3      64    -14     75     66     99 102.4  54.3  34092  288.42 0855.13
2009/04/23 09:00:45.4      93     -7     56     94    109  94.3  34.0  34092  288.42 0855.13
2009/04/23 09:00:45.5      88     -8     35     89     95  95.2  22.5  34092  288.43 0855.13
2009/04/23 09:00:45.6      63      0     22     64     68  90.8  18.9  34092  288.42 0855.13
2009/04/23 09:00:45.7      42    -14    -14     45     47 109.1 -22.8  34094  288.47 0855.13
2009/04/23 09:00:45.8      33     10    -39     35     52  71.8 -57.7  34094  288.47 0855.13
2009/04/23 09:00:45.9      44      0    -24     45     51  90.0 -34.7  34096  288.50 0855.13
2009/04/23 09:00:46.0      85     34     -4     92     93  67.8  -2.6  34116  288.82 0855.13
2009/04/23 09:00:46.1     103      1     -2    104    105  89.2  -1.3  34146  289.33 0855.13
2009/04/23 09:00:46.2     173     25     -3    175    176  81.6  -1.2  34178  289.87 0855.13
2009/04/23 09:00:46.3     236     36    -26    239    241  81.2  -6.2  34176  289.85 0855.13
2009/04/23 09:00:46.4     222     24     57    224    232  83.8  14.3  34130  289.06 0855.15
2009/04/23 09:00:46.5     200    -30     72    203    216  98.6  19.6  34130  289.08 0855.15
2009/04/23 09:00:46.6     246     19     18    247    248  85.4   4.2  34166  289.68 0855.15
2009/04/23 09:00:46.7     198     15     53    199    207  85.6  15.0  34152  289.43 0855.15
2009/04/23 09:00:46.8     140      7     67    141    156  87.0  27.2  34152  289.45 0855.15
2009/04/23 09:00:46.9     214     12     32    215    218  86.7   8.5  34176  289.85 0855.15
2009/04/23 09:00:47.0     207     97     45    229    234  64.8  11.1  34158  289.55 0855.15
2009/04/23 09:00:47.1     235    107    188    259    320  65.6  39.5  34138  289.19 0855.15
2009/04/23 09:00:47.2     276     90     82    291    303  71.8  15.8  34124  288.97 0855.15
2009/04/23 09:00:47.3     351     51     80    355    365  81.6  12.8  34142  289.25 0855.15
2009/04/23 09:00:47.4     287    166    157    332    367  59.9  27.1  34162  289.59 0855.15
2009/04/23 09:00:47.5     303    175    147    351    380  60.0  24.1  34126  288.99 0855.15
2009/04/23 09:00:47.6     349    202    194    404    448  60.0  27.3  34122  288.94 0855.15
2009/04/23 09:00:47.7     322    195     98    377    390  58.7  14.7  34120  288.91 0855.15
2009/04/23 09:00:47.8     210    222    156    306    343  43.4  29.1  34132  289.10 0855.15
2009/04/23 09:00:47.9     296    244    165    384    417  50.5  24.6  34132  289.11 0855.15
2009/04/23 09:00:48.0     304    218    250    375    450  54.3  36.9  34122  288.92 0855.15
2009/04/23 09:00:48.1     272     78    104    284    302  74.0  21.0  34096  288.48 0855.15
2009/04/23 09:00:48.2     212    108     84    238    252  63.0  20.0  34094  288.46 0855.15
2009/04/23 09:00:48.3     245     62    110    253    275  75.6  25.1  34088  288.36 0855.15
2009/04/23 09:00:48.4     291     63     47    298    302  77.6   9.0  34094  288.44 0855.15
2009/04/23 09:00:48.5     236    107     79    260    272  65.6  17.1  34098  288.53 0855.15
2009/04/23 09:00:48.6     235    198     -6    308    309  50.0  -1.3  34098  288.53 0855.15
2009/04/23 09:00:48.7     149    149    -64    212    222  45.0 -17.0  34106  288.67 0855.15
2009/04/23 09:00:48.8     133     44    -76    141    160  71.8 -35.0  34110  288.72 0855.15
2009/04/23 09:00:48.9     202    129    -25    240    242  57.4  -6.1  34100  288.56 0855.15
2009/04/23 09:00:49.0     241     80     26    255    257  71.6   5.9  34106  288.66 0855.15
2009/04/23 09:00:49.1     245    158     90    292    306  57.1  17.3  34106  288.66 0855.15
2009/04/23 09:00:49.2     206    160     81    262    275  52.2  17.3  34114  288.78 0855.15
2009/04/23 09:00:49.3     223    116     11    252    253  62.5   2.5  34112  288.76 0855.15
2009/04/23 09:00:49.4     221    100    -22    243    245  65.6  -5.2  34116  288.81 0855.15
2009/04/23 09:00:49.5     234    102    -71    256    266  66.5 -15.5  34120  288.88 0855.15
2009/04/23 09:00:49.6     232    100    -51    253    259  66.5 -11.6  34110  288.71 0855.15
2009/04/23 09:00:49.7     226     97    -88    247    263  66.7 -19.7  34108  288.70 0855.15
2009/04/23 09:00:49.8     200    110    -89    229    245  61.2 -26.7  34124  288.97 0855.15
2009/04/23 09:00:49.9     215    109    -19    242    243  63.1  -4.6  34126  288.98 0855.15
2009/04/23 09:00:50.0     169    204      2    266    267  39.6   0.5  34140  289.24 0855.15
2009/04/23 09:00:50.1     167    122    -53    207    214  53.8 -14.5  34140  289.24 0855.15
2009/04/23 09:00:50.2     170     71    -34    185    189  67.2 -10.5  34130  289.06 0855.15
2009/04/23 09:00:50.3     167     15      8    168    169  84.8   2.8  34126  289.01 0855.15
2009/04/23 09:00:50.4     218     93     48    238    244  66.9  11.6  34120  288.90 0855.15
2009/04/23 09:00:50.5     262    144    -11    299    300  61.2  -2.2  34136  289.15 0855.15
2009/04/23 09:00:50.6     298     70     29    307    309  76.7   5.4  34116  288.83 0855.15
2009/04/23 09:00:50.7     329     29    -20    331    332  84.9  -3.5  34116  288.82 0855.15
2009/04/23 09:00:50.8     442     -2     24    443    444  90.4   3.1  34108  288.68 0855.15
2009/04/23 09:00:50.9     395      0     26    396    397  89.9   3.8  34112  288.76 0855.15
2009/04/23 09:00:51.0     368    -25    -13    369    370  94.0  -2.1  34120  288.91 0855.15
2009/04/23 09:00:51.1     363      2    -57    364    369  89.7  -9.0  34120  288.89 0855.15
2009/04/23 09:00:51.2     328    -97    -95    343    356 106.5 -15.5  34116  288.84 0855.15
2009/04/23 09:00:51.3     256    -59    -43    263    267 103.0  -9.3  34118  288.85 0855.15
2009/04/23 09:00:51.4     148    -22   -112    150    187  98.8 -44.8  34118  288.86 0855.15
2009/04/23 09:00:51.5     224    -46    -31    229    232 101.7  -7.7  34118  288.87 0855.15
2009/04/23 09:00:51.6     226   -143    -70    268    278 122.4 -14.7  34106  288.66 0855.15
2009/04/23 09:00:51.7     169   -139    -78    220    234 129.5 -19.7  34104  288.64 0855.15
2009/04/23 09:00:51.8     143   -120    -61    187    197 130.0 -18.1  34104  288.64 0855.15
2009/04/23 09:00:51.9     203    -83    -63    220    228 112.4 -20.7  34108  288.69 0855.15
2009/04/23 09:00:52.0     192     47    -69    198    210  76.1 -19.4  34114  288.79 0855.15
2009/04/23 09:00:52.1     135     35     21    140    142  75.4   8.9  34118  288.87 0855.15
2009/04/23 09:00:52.2     119     31     43    123    131  75.4  19.4  34114  288.79 0855.15
2009/04/23 09:00:52.3     114     73     26    136    139  57.5  11.0  34106  288.67 0855.15
2009/04/23 09:00:52.4     112     71     31    133    137  57.6  13.1  34096  288.48 0855.15
2009/04/23 09:00:52.5     142     28     33    145    149  78.5  13.1  34100  288.55 0855.15
2009/04/23 09:00:52.6     121     70     33    141    145  59.8  13.2  34104  288.64 0855.15
2009/04/23 09:00:52.7     153     83     24    175    177  61.4   8.0  34100  288.57 0855.15
2009/04/23 09:00:52.8     119     83     65    146    159  54.9  25.7  34096  288.48 0855.15
2009/04/23 09:00:52.9     173     88     85    195    212  63.1  25.1  34102  288.58 0855.15
2009/04/23 09:00:53.0     154    105    106    187    214  55.8  31.9  34120  288.91 0855.15
2009/04/23 09:00:53.1     209     75    130    223    258  70.1  32.9  34102  288.58 0855.15
2009/04/23 09:00:53.2     222     45     82    227    242  78.6  19.9  34098  288.51 0855.15
2009/04/23 09:00:53.3     202     41    102    207    230  78.5  27.8  34112  288.77 0855.15
2009/04/23 09:00:53.4      89     89    129    126    180  45.0  50.7  34108  288.70 0855.15
2009/04/23 09:00:53.5      97     84     90    129    157  49.1  38.6  34120  288.89 0855.15
2009/04/23 09:00:53.6      82     75     63    112    128  47.8  31.9  34128  289.04 0855.15
2009/04/23 09:00:53.7     103     34     43    109    117  71.8  22.5  34128  289.02 0855.15
2009/04/23 09:00:53.8     215     67     93    226    244  72.7  23.4  34104  288.61 0855.15
2009/04/23 09:00:53.9     387     50     30    391    393  82.6   4.5  34084  288.27 0855.15
2009/04/23 09:00:54.0     360    -25     30    361    363  94.1   4.9  34090  288.37 0855.15
2009/04/23 09:00:54.1     313    -27    101    315    331  95.1  17.8  34090  288.39 0855.15
2009/04/23 09:00:54.2     373     28    120    374    393  85.7  17.8  34102  288.60 0855.15
2009/04/23 09:00:54.3     348      9    121    349    370  88.4  19.2  34100  288.55 0855.15
2009/04/23 09:00:54.4     375     10    202    376    426  88.4  30.6  34102  288.60 0855.15
2009/04/23 09:00:54.5     209     63    213    219    305  73.1  49.4  34116  288.81 0855.15
2009/04/23 09:00:54.6     204    173    114    268    291  49.6  24.6  34118  288.85 0855.15
2009/04/23 09:00:54.7     269     95     78    286    297  70.5  15.3  34112  288.76 0855.15
2009/04/23 09:00:54.8     323     62    101    330    346  79.0  17.0  34126  288.98 0855.15
2009/04/23 09:00:54.9     305    101    102    322    338  71.5  17.7  34096  288.49 0855.15
2009/04/23 09:00:55.0     282     78    152    293    330  74.5  29.5  34088  288.36 0855.15
2009/04/23 09:00:55.1     232    109    149    257    297  64.9  32.7  34088  288.34 0855.15
2009/04/23 09:00:55.2     192    -14    110    193    222  94.3  32.1  34094  288.45 0855.15
2009/04/23 09:00:55.3     104     -1    114    105    154  90.8  52.2  34094  288.45 0855.15
2009/04/23 09:00:55.4     160     22    103    162    191  82.1  35.5  34090  288.40 0855.15
2009/04/23 09:00:55.5     160     56     49    170    178  70.5  16.3  34092  288.43 0855.15
2009/04/23 09:00:55.6     201     62     10    211    212  72.7   2.8  34094  288.47 0855.15
2009/04/23 09:00:55.7     215     66    -25    225    227  72.9  -6.5  34098  288.53 0855.15
2009/04/23 09:00:55.8     196     59    -62    205    214  73.2 -21.8  34108  288.70 0855.15
2009/04/23 09:00:55.9     128    129     -7    182    183  44.8  -2.2  34116  288.84 0855.15
2009/04/23 09:00:56.0     124    125    -37    177    181  44.8 -11.9  34116  288.82 0855.15
2009/04/23 09:00:56.1     151     52    -59    160    170  70.9 -25.1  34112  288.75 0855.15
2009/04/23 09:00:56.2     125      0     46    126    134  90.0  20.4  34100  288.57 0855.15
2009/04/23 09:00:56.3     151    -71     67    167    179 115.2  23.0  34092  288.43 0855.15
2009/04/23 09:00:56.4     143    -28     67    146    160 101.4  26.2  34088  288.36 0855.15
2009/04/23 09:00:56.5     142     56    110    153    188  68.2  39.3  34118  288.86 0855.15
2009/04/23 09:00:56.6     118     24    101    121    157  78.5  44.3  34104  288.62 0855.15
2009/04/23 09:00:56.7      76     24     94     80    123  71.8  54.8  34118  288.87 0855.15
2009/04/23 09:00:56.8      75     26     46     80     92  70.9  32.9  34126  288.99 0855.15
2009/04/23 09:00:56.9      83     50     34     97    103  58.9  19.4  34122  288.94 0855.15
2009/04/23 09:00:57.0      89     74     36    116    122  50.4  17.4  34116  288.84 0855.15
2009/04/23 09:00:57.1     108     26     58    112    126  76.3  29.3  34120  288.91 0855.15
2009/04/23 09:00:57.2     124     59     48    138    147  64.7  19.2  34120  288.91 0855.15
2009/04/23 09:00:57.3      77     66     12    102    103  49.6   7.1  34130  289.06 0855.15
2009/04/23 09:00:57.4      80     46     11     93     94  59.8   6.9  34124  288.96 0855.15
2009/04/23 09:00:57.5      83     48     40     97    104  59.8  23.0  34108  288.70 0855.15
2009/04/23 09:00:57.6     109     10     71    110    130  84.3  35.6  34102  288.58 0855.15
2009/04/23 09:00:57.7     156     27     46    159    166  79.9  16.3  34106  288.67 0855.15
2009/04/23 09:00:57.8     186     15     70    187    199  85.2  21.3  34100  288.57 0855.15
2009/04/23 09:00:57.9     216     12     76    217    231  86.7  19.4  34102  288.58 0855.15
2009/04/23 09:00:58.0     115     38   -103    122    159  71.4 -48.9  34102  288.60 0855.15
2009/04/23 09:00:58.1      70     14    -74     72    103  78.5 -54.5  34100  288.57 0855.15
2009/04/23 09:00:58.2      41      9    -75     42     85  77.6 -72.7  34102  288.60 0855.15
2009/04/23 09:00:58.3      19     23    -67     31     73  39.7 -77.5  34100  288.55 0855.15
2009/04/23 09:00:58.4      76      5    -26     77     82  85.6 -19.1  34102  288.60 0855.15
2009/04/23 09:00:58.5     121      9    -32    122    127  85.7 -15.0  34104  288.62 0855.15
2009/04/23 09:00:58.6     169     12    -55    170    179  85.7 -18.1  34132  289.11 0855.15
2009/04/23 09:00:58.7     195     22     10    197    198  83.4   2.9  34152  289.43 0855.15
2009/04/23 09:00:58.8     188     38    -18    192    193  78.5  -5.4  34166  289.69 0855.15
2009/04/23 09:00:58.9     158     61     10    170    171  68.9   3.6  34178  289.87 0855.15
2009/04/23 09:00:59.0     141     46    -27    149    152  71.8 -10.3  34166  289.69 0855.15
2009/04/23 09:00:59.1     159     12     24    160    162  85.6   8.8  34154  289.48 0855.15
2009/04/23 09:00:59.2     239    -34    116    242    268  98.1  27.3  34156  289.49 0855.15
2009/04/23 09:00:59.3     213    -17     86    214    230  94.6  23.0  34158  289.53 0855.15
2009/04/23 09:00:59.4     257      8     80    258    271  88.1  17.3  34158  289.54 0855.14
2009/04/23 09:00:59.5     211    -18    108    212    237  95.0  29.2  34150  289.41 0855.14
2009/04/23 09:00:59.6     325     54    174    330    373  80.6  30.1  34152  289.43 0855.14
2009/04/23 09:00:59.7     298     80    168    309    351  75.0  31.0  34156  289.52 0855.14
2009/04/23 09:00:59.8     215     36    183    219    285  80.3  43.8  34160  289.56 0855.14
2009/04/23 09:00:59.9     291     80     57    302    308  74.5  10.7  34144  289.29 0855.14
2009/04/23 09:01:00.0     240     37     22    243    245  81.2   5.2  34142  289.27 0855.14
2009/04/23 09:01:00.1     210    -40    134    214    252 100.8  35.5  34130  289.07 0855.14
2009/04/23 09:01:00.2     169     45    205    176    270  74.9  55.3  34162  289.59 0855.14
2009/04/23 09:01:00.3     170    -13    176    171    245  94.6  50.9  34138  289.19 0855.14
2009/04/23 09:01:00.4     119     10    149    120    191  85.2  56.6  34122  288.92 0855.14
2009/04/23 09:01:00.5     171     56    144    180    230  71.8  43.3  34122  288.94 0855.14
2009/04/23 09:01:00.6     130     -9     82    131    154  94.3  35.5  34116  288.84 0855.14
2009/04/23 09:01:00.7     118     11    128    119    174  84.3  52.0  34108  288.69 0855.14
2009/04/23 09:01:00.8     114    -30    101    119    156 105.1  44.8  34112  288.75 0855.14
2009/04/23 09:01:00.9     229    -17    118    230    258  94.3  29.3  34100  288.56 0855.14
2009/04/23 09:01:01.0     198    -20    103    200    224  95.9  29.3  34096  288.48 0855.14
2009/04/23 09:01:01.1     232    -46     47    237    242 101.2  11.4  34102  288.59 0855.14
2009/04/23 09:01:01.2     232     -3     73    233    245  90.8  17.4  34098  288.53 0855.14
2009/04/23 09:01:01.3     262     -7     17    263    264  91.7   3.8  34104  288.63 0855.14
2009/04/23 09:01:01.4     273    -93    -47    289    293 108.8  -9.3  34100  288.54 0855.14
2009/04/23 09:01:01.5     222   -119     -3    252    253 118.2  -0.7  34098  288.51 0855.14
2009/04/23 09:01:01.6     225    -10     69    226    237  92.6  17.1  34094  288.44 0855.14
2009/04/23 09:01:01.7     195    -16     50    196    203  95.0  14.3  34092  288.43 0855.14
2009/04/23 09:01:01.8     281    -57     55    287    293 101.5  11.0  34092  288.43 0855.14
2009/04/23 09:01:01.9     259    -77     23    271    273 106.6   5.0  34090  288.37 0855.14
2009/04/23 09:01:02.0     246    -62     49    254    259 104.2  11.0  34090  288.37 0855.14
2009/04/23 09:01:02.1     205    -89     50    224    230 113.6  12.6  34086  288.33 0855.14
2009/04/23 09:01:02.2     212    -80     35    227    230 110.8   8.9  34086  288.33 0855.14
2009/04/23 09:01:02.3     226    -69     81    237    251 107.1  18.9  34082  288.26 0855.14
2009/04/23 09:01:02.4     210    -29     76    212    226  97.9  19.9  34078  288.18 0855.14
2009/04/23 09:01:02.5     179    -25     63    181    192  98.0  19.2  34080  288.23 0855.14
2009/04/23 09:01:02.6     170    -11     28    171    174  93.7   9.5  34082  288.26 0855.14
2009/04/23 09:01:02.7     167      0     34    168    172  90.0  11.6  34082  288.25 0855.14
2009/04/23 09:01:02.8     170     -7     55    171    180  92.4  17.9  34092  288.42 0855.14
2009/04/23 09:01:02.9     150    -48     48    158    166 107.9  17.1  34092  288.43 0855.14
2009/04/23 09:01:03.0     136    -69     36    153    158 117.0  13.2  34090  288.40 0855.14
2009/04/23 09:01:03.1     136    -62     84    150    171 114.4  31.9  34090  288.38 0855.14
2009/04/23 09:01:03.2     158    -29     39    161    166 100.6  13.7  34092  288.42 0855.14
2009/04/23 09:01:03.3     193      0     55    194    202  90.0  16.0  34092  288.43 0855.14
2009/04/23 09:01:03.4     197     35     24    201    203  79.9   6.9  34094  288.45 0855.15
2009/04/23 09:01:03.5     186     -2     11    187    188  90.9   3.6  34092  288.42 0855.15
2009/04/23 09:01:03.6     223     -3     -4    224    225  90.9  -1.3  34094  288.47 0855.15
2009/04/23 09:01:03.7     310    113    -31    331    333  69.9  -5.4  34122  288.93 0855.15
2009/04/23 09:01:03.8     217    156     73    268    278  54.3  15.3  34138  289.19 0855.15
2009/04/23 09:01:03.9     150    128     65    198    209  49.6  18.1  34126  289.01 0855.15
2009/04/23 09:01:04.0     139     71     51    157    166  62.9  17.9  34120  288.91 0855.15
2009/04/23 09:01:04.1     125      5     48    126    134  87.4  21.0  34106  288.65 0855.15
2009/04/23 09:01:04.2      91      6     54     92    106  86.1  33.5  34110  288.72 0855.15
2009/04/23 09:01:04.3      98     -7      7     99    100  94.3   4.4  34102  288.58 0855.15
2009/04/23 09:01:04.4      70    -10     19     71     74  98.8  15.3  34100  288.55 0855.15
2009/04/23 09:01:04.5      88     17     73     90    115  78.5  43.7  34094  288.45 0855.15
2009/04/23 09:01:04.6     110     22     86    113    142  78.5  41.2  34090  288.40 0855.15
2009/04/23 09:01:04.7      65    -12     91     67    113 100.6  60.0  34092  288.43 0855.15
2009/04/23 09:01:04.8      69    -32     88     77    116 115.3  54.3  34092  288.43 0855.15
2009/04/23 09:01:04.9      78     15     96     80    124  78.5  56.3  34090  288.40 0855.15
2009/04/23 09:01:05.0      79     34     98     87    131  66.5  54.2  34088  288.36 0855.15
2009/04/23 09:01:05.1      84     26    103     89    136  72.7  54.3  34088  288.36 0855.15
2009/04/23 09:01:05.2     122     26     98    125    158  77.6  42.0  34090  288.38 0855.15
2009/04/23 09:01:05.3     130     34    112    135    175  75.4  43.8  34096  288.48 0855.15
2009/04/23 09:01:05.4     215     91     19    234    235  66.9   4.9  34114  288.80 0855.14
2009/04/23 09:01:05.5     220     53     59    227    235  76.5  14.7  34126  289.01 0855.14
2009/04/23 09:01:05.6     215     71     35    227    230  71.6   8.9  34134  289.14 0855.14
2009/04/23 09:01:05.7     203     74     36    217    220  70.0   9.5  34158  289.53 0855.14
2009/04/23 09:01:05.8     219     42     81    224    239  79.0  19.9  34144  289.31 0855.14
2009/04/23 09:01:05.9     210     42     76    215    228  78.5  20.0  34164  289.63 0855.14
2009/04/23 09:01:06.0     219     68     67    230    240  72.7  16.3  34160  289.56 0855.14
2009/04/23 09:01:06.1     176     83    103    195    220  64.8  30.1  34200  290.25 0855.14
2009/04/23 09:01:06.2     108    155     99    190    214  35.0  29.5  34208  290.40 0855.14
2009/04/23 09:01:06.3     109    169     85    202    219  33.0  23.8  34246  291.03 0855.14
2009/04/23 09:01:06.4     125    124     78    177    193  45.2  25.1  34250  291.11 0855.14
2009/04/23 09:01:06.6     159     51     76    168    184  72.1  26.2  34220  290.58 0855.14
2009/04/23 09:01:06.6     117    105     72    158    173  48.2  26.4  34218  290.55 0855.14
2009/04/23 09:01:06.7      94     92     36    132    137  45.6  15.3  34208  290.38 0855.14
2009/04/23 09:01:06.8     126    109     11    167    168  49.1   3.8  34198  290.23 0855.14
2009/04/23 09:01:06.9     131    156     -9    204    205  40.1  -2.8  34238  290.91 0855.14
2009/04/23 09:01:07.1      83    178    -13    197    198  24.9  -3.9  34254  291.18 0855.14
2009/04/23 09:01:07.1      78    150    -42    170    176  27.6 -13.9  34258  291.23 0855.14
2009/04/23 09:01:07.3     119    143    -66    187    199  39.7 -19.4  34242  290.96 0855.14
2009/04/23 09:01:07.3      98    104    -81    144    165  43.3 -36.3  34156  289.50 0855.14
2009/04/23 09:01:07.4      64     23    -22     69     73  70.0 -17.6  34196  290.19 0855.15
2009/04/23 09:01:07.5     109     85    -27    139    142  52.2 -11.3  34216  290.53 0855.15
2009/04/23 09:01:07.7     163    133     -4    211    212  50.9  -1.1  34206  290.36 0855.15
2009/04/23 09:01:07.8     103    153     -8    185    186  34.1  -2.6  34212  290.45 0855.15
2009/04/23 09:01:07.9      53    168     74    177    191  17.6  23.8  34236  290.87 0855.15
2009/04/23 09:01:08.0     128    141     26    191    193  42.3   7.8  34226  290.69 0855.15
2009/04/23 09:01:08.1     151     78    121    171    209  62.7  38.8  34230  290.75 0855.15
2009/04/23 09:01:08.2     116     90     50    148    157  52.2  18.9  34226  290.70 0855.15
2009/04/23 09:01:08.3     131     34     75    136    155  75.4  31.4  34198  290.23 0855.15
2009/04/23 09:01:08.4     157     12     15    158    159  85.6   5.7  34182  289.96 0855.15
2009/04/23 09:01:08.5     153     21     -7    155    156  82.0  -2.6  34194  290.14 0855.15
2009/04/23 09:01:08.6     153     11    -13    154    155  85.6  -5.1  34174  289.80 0855.15
2009/04/23 09:01:08.7     147     34    -45    152    159  76.7 -16.6  34162  289.60 0855.15
2009/04/23 09:01:08.8     176     63    -55    188    195  70.3 -21.0  34206  290.35 0855.15
2009/04/23 09:01:08.9     201     38    -31    205    208  79.2  -8.8  34188  290.06 0855.15
2009/04/23 09:01:09.0     193     50    -11    200    201  75.4  -3.2  34190  290.09 0855.15
2009/04/23 09:01:09.1     193     67    -56    205    213  70.7 -15.5  34180  289.91 0855.15
2009/04/23 09:01:09.2     267    125    -37    295    298  64.9  -7.2  34144  289.29 0855.15
2009/04/23 09:01:09.3     257     43    -33    261    264  80.5  -7.3  34130  289.07 0855.15
2009/04/23 09:01:09.4     284     49     -1    289    290  80.1  -0.3  34132  289.10 0855.15
2009/04/23 09:01:09.5     320     65     21    327    328  78.5   3.8  34168  289.70 0855.15
2009/04/23 09:01:09.6     275     67     41    284    287  76.3   8.2  34190  290.09 0855.15
2009/04/23 09:01:09.7     279     74     86    289    302  75.0  16.6  34194  290.15 0855.15
2009/04/23 09:01:09.8     257     94     24    274    276  69.8   5.2  34176  289.83 0855.15
2009/04/23 09:01:09.9     177    144     48    229    235  50.9  12.0  34186  290.02 0855.15
2009/04/23 09:01:10.0     212     92     72    232    243  66.5  17.3  34176  289.83 0855.15
2009/04/23 09:01:10.1     171     34     61    175    186  78.6  19.4  34136  289.16 0855.15
2009/04/23 09:01:10.2     141     57     89    153    177  67.8  32.9  34148  289.38 0855.15
2009/04/23 09:01:10.3     137     80     73    159    174  59.8  26.6  34138  289.19 0855.15
2009/04/23 09:01:10.4     163     86     99    185    209  62.2  30.6  34162  289.62 0855.15
2009/04/23 09:01:10.5     156     91    128    181    221  59.8  38.8  34168  289.70 0855.15
2009/04/23 09:01:10.6     116    126     94    172    196  42.5  31.0  34170  289.75 0855.15
2009/04/23 09:01:10.7      94    107    121    143    187  41.5  44.5  34176  289.84 0855.15
2009/04/23 09:01:10.8      90     57    148    107    182  57.6  60.6  34178  289.89 0855.15
2009/04/23 09:01:10.9      87     72    116    114    162  50.5  50.1  34170  289.75 0855.15
2009/04/23 09:01:11.0      83     39    132     92    160  64.7  61.8  34156  289.50 0855.15
2009/04/23 09:01:11.1      64     25    104     69    124  68.3  63.6  34166  289.67 0855.15
2009/04/23 09:01:11.2      91     43     86    101    132  64.8  44.8  34174  289.82 0855.15
2009/04/23 09:01:11.3     105     39     75    113    135  69.6  36.5  34184  289.97 0855.15
2009/04/23 09:01:11.4      81     29     79     87    117  70.0  47.5  34184  289.99 0855.15
2009/04/23 09:01:11.5     108     15     75    110    133  82.1  37.4  34180  289.92 0855.16
2009/04/23 09:01:11.6      67     42     71     80    106  57.6  46.9  34190  290.08 0855.16
2009/04/23 09:01:11.7      51     51     38     73     82  45.0  29.3  34196  290.18 0855.16
2009/04/23 09:01:11.8      73     30     38     80     88  67.4  27.2  34206  290.35 0855.16
2009/04/23 09:01:11.9      74     16     26     76     81  77.6  18.9  34194  290.14 0855.16
2009/04/23 09:01:12.0      64     25     24     69     74  68.3  19.2  34198  290.21 0855.16
2009/04/23 09:01:12.1      26     21     32     34     46  50.5  50.0  34200  290.26 0855.16
2009/04/23 09:01:12.2      19     38     42     43     60  27.2  50.0  34200  290.26 0855.16
2009/04/23 09:01:12.3      -1     24     40     25     47 357.3  64.7  34200  290.26 0855.16
2009/04/23 09:01:12.4     -60      0      7     61     62 270.0   6.9  34200  290.26 0855.16
2009/04/23 09:01:12.5     -53     13     15     55     58 284.2  15.3  34196  290.18 0855.16
2009/04/23 09:01:12.6     -64     13     11     66     68 281.5  10.1  34184  289.99 0855.16
2009/04/23 09:01:12.7     -72     -5    -17     73     76 265.7 -13.4  34178  289.89 0855.16
2009/04/23 09:01:12.8     -56     -5    -12     57     59 264.8 -12.4  34180  289.91 0855.16
2009/04/23 09:01:12.9     -24    -49     -2     55     56 206.3  -2.2  34188  290.06 0855.16
2009/04/23 09:01:13.0      -8    -62      3     63     64 188.0   2.8  34188  290.04 0855.16
2009/04/23 09:01:13.1      -1    -67     13     68     70 181.0  11.1  34186  290.01 0855.16
2009/04/23 09:01:13.2      45    -45      0     65     66 135.0   0.8  34184  289.97 0855.16
2009/04/23 09:01:13.3      47    -32      1     58     59 124.2   1.8  34166  289.67 0855.16
2009/04/23 09:01:13.4      46    -26    -12     54     56 119.8 -12.4  34160  289.57 0855.16
2009/04/23 09:01:13.5      62    -34      0     71     72 118.8  -0.3  34156  289.52 0855.15
2009/04/23 09:01:13.6      38    -46      6     60     61 140.4   5.9  34156  289.50 0855.15
2009/04/23 09:01:13.7      40    -26      1     49     50 123.3   1.8  34158  289.55 0855.15
2009/04/23 09:01:13.8      25    -29     -8     39     40 138.6 -12.4  34154  289.48 0855.15
2009/04/23 09:01:13.9      51    -17     36     54     64 108.6  36.5  34162  289.60 0855.15
2009/04/23 09:01:14.0      41    -28     45     50     67 124.2  47.9  34158  289.55 0855.15
2009/04/23 09:01:14.1      31    -31     51     44     67 135.0  54.3  34158  289.53 0855.15
2009/04/23 09:01:14.2      13    -13     54     19     57 133.3  81.2  34162  289.62 0855.15
2009/04/23 09:01:14.3      -9    -27     76     29     81 198.5  78.6  34158  289.53 0855.15
2009/04/23 09:01:14.4     -45    -73     90     86    124 211.6  50.7  34134  289.13 0855.15
2009/04/23 09:01:14.5     -42    -88    101     98    140 205.5  51.2  34136  289.16 0855.15
2009/04/23 09:01:14.6     -30   -110     96    115    149 195.6  43.8  34140  289.24 0855.15
2009/04/23 09:01:14.7     -58    -91     72    109    130 212.6  36.5  34150  289.40 0855.15
2009/04/23 09:01:14.8     -61    -73     55     96    110 220.1  32.4  34150  289.40 0855.15
2009/04/23 09:01:14.9     -35    -43     47     56     73 218.7  43.8  34150  289.40 0855.15
2009/04/23 09:01:15.0     -19    -19     29     27     39 225.0  51.2  34146  289.35 0855.15
2009/04/23 09:01:15.1       3    -22     51     23     55 172.0  74.0  34146  289.33 0855.15
2009/04/23 09:01:15.2       2      0     44      3     44  90.0  90.0  34144  289.30 0855.15
2009/04/23 09:01:15.3      -5    -15     49     16     51 198.7  80.7  34144  289.30 0855.15
2009/04/23 09:01:15.4      -6    -30     50     31     58 191.6  64.7  34142  289.28 0855.15
2009/04/23 09:01:15.5     -24    -32     50     41     64 217.0  56.4  34140  289.23 0855.15
2009/04/23 09:01:15.6     -26    -42     42     50     65 211.6  43.8  34136  289.16 0855.15
2009/04/23 09:01:15.7     -47    -45     49     66     82 225.9  40.7  34140  289.24 0855.15
2009/04/23 09:01:15.8       6    -55     36     56     66 173.8  35.6  34142  289.28 0855.15
2009/04/23 09:01:15.9      -3    -42     53     43     68 185.3  56.4  34140  289.23 0855.15
2009/04/23 09:01:16.0     -32    -32     82     46     94 225.1  67.7  34148  289.36 0855.15
2009/04/23 09:01:16.1     -42    -20     76     47     89 243.8  65.1  34150  289.40 0855.15
2009/04/23 09:01:16.2     -74    -51     61     90    108 235.4  37.0  34148  289.38 0855.15
2009/04/23 09:01:16.3     -60    -51     57     79     97 229.6  39.7  34150  289.40 0855.15
2009/04/23 09:01:16.4     -64    -39     56     76     94 238.5  40.1  34150  289.41 0855.15
2009/04/23 09:01:16.5     -59    -42     19     73     76 234.0  15.2  34152  289.43 0855.15
2009/04/23 09:01:16.6     -36    -71      0     80     81 207.2   0.2  34152  289.45 0855.15
2009/04/23 09:01:16.7     -29    -80      6     86     87 200.0   4.4  34152  289.45 0855.15
2009/04/23 09:01:16.8     -13    -83     26     85     90 189.3  17.3  34158  289.55 0855.15
2009/04/23 09:01:16.9     -14    -93     -8     95     96 188.9  -5.2  34156  289.52 0855.15
2009/04/23 09:01:17.0     -31    -95     34    101    107 198.3  18.9  34154  289.48 0855.15
2009/04/23 09:01:17.1     -36    -96     38    103    109 200.9  20.4  34138  289.21 0855.15
2009/04/23 09:01:17.2     -52   -109     49    121    130 205.5  23.1  34160  289.57 0855.15
2009/04/23 09:01:17.3     -72   -100     35    124    129 216.0  15.8  34172  289.79 0855.15
2009/04/23 09:01:17.4     -70   -110     39    131    137 212.5  16.8  34174  289.80 0855.15
2009/04/23 09:01:17.5     -86    -98     20    131    133 221.4   9.0  34176  289.85 0855.15
2009/04/23 09:01:17.6     -94   -100     17    138    140 223.2   7.1  34162  289.60 0855.15
2009/04/23 09:01:17.7     -89    -75      5    117    118 230.0   2.9  34176  289.85 0855.15
2009/04/23 09:01:17.8     -90    -90     18    128    130 225.0   8.0  34174  289.80 0855.15
2009/04/23 09:01:17.9     -68    -68      7     97     98 224.7   4.4  34158  289.53 0855.15
2009/04/23 09:01:18.0      -4    -91     73     92    117 182.7  43.3  34116  288.84 0855.15
2009/04/23 09:01:18.1     -29    -88     74     93    118 198.3  42.2  34110  288.72 0855.15
2009/04/23 09:01:18.2     -52   -130     44    141    148 201.9  17.3  34108  288.70 0855.15
2009/04/23 09:01:18.3     -37   -138     79    143    163 195.1  31.6  34110  288.72 0855.15
2009/04/23 09:01:18.4     -57   -127     80    140    161 204.1  32.4  34108  288.69 0855.15
2009/04/23 09:01:18.5     -55   -126     58    138    149 203.7  24.1  34110  288.72 0855.14
2009/04/23 09:01:18.6     -23   -115     51    118    128 191.5  25.1  34110  288.74 0855.14
2009/04/23 09:01:18.7     -48   -100     67    112    130 205.9  33.5  34108  288.70 0855.14
2009/04/23 09:01:18.8     -44    -82     72     94    118 208.1  41.6  34112  288.75 0855.14
2009/04/23 09:01:18.9     -50   -115     74    126    146 203.6  33.5  34110  288.74 0855.14
2009/04/23 09:01:19.0     -57   -104     60    119    133 209.0  28.2  34110  288.74 0855.14
2009/04/23 09:01:19.1     -66    -86     51    109    120 217.4  27.1  34110  288.74 0855.14
2009/04/23 09:01:19.2     -45    -78     41     91     99 209.9  26.2  34114  288.80 0855.14
2009/04/23 09:01:19.3     -52    -70     19     88     91 217.0  12.6  34110  288.72 0855.14
2009/04/23 09:01:19.4     -67    -73     -2    100    101 222.3  -1.3  34116  288.84 0855.14
2009/04/23 09:01:19.5     -61    -72      4     95     96 220.1   2.8  34116  288.82 0855.14
2009/04/23 09:01:19.6     -54    -58     29     80     85 223.2  20.0  34116  288.84 0855.14
2009/04/23 09:01:19.7     -24    -51     29     57     63 205.5  28.2  34116  288.84 0855.14
2009/04/23 09:01:19.8     -27    -66      8     72     73 202.7   6.9  34110  288.72 0855.14
2009/04/23 09:01:19.9     -22    -27     10     36     38 219.6  15.3  34110  288.74 0855.14
2009/04/23 09:01:20.0      -2    -52     24     53     58 182.7  26.2  34114  288.80 0855.14
2009/04/23 09:01:20.1     -22    -27     48     36     60 219.7  59.4  34120  288.89 0855.14
2009/04/23 09:01:20.2     -46    -29      2     55     56 237.6   2.9  34118  288.86 0855.14
2009/04/23 09:01:20.3     -48    -40     23     63     67 230.5  20.0  34114  288.79 0855.14
2009/04/23 09:01:20.4     -29    -88     54     93    107 198.3  32.9  34114  288.80 0855.14
2009/04/23 09:01:20.5     -26    -82     63     87    107 197.8  39.7  34118  288.86 0855.14
2009/04/23 09:01:20.6       1    -98     49     99    110 179.1  27.8  34112  288.75 0855.14
2009/04/23 09:01:20.7      -9    -91     35     92     98 185.8  22.0  34112  288.75 0855.14
2009/04/23 09:01:20.8     -21    -80     32     83     88 194.7  21.5  34114  288.80 0855.14
2009/04/23 09:01:20.9     -10    -80     15     81     83 187.6  10.6  34112  288.77 0855.14
2009/04/23 09:01:21.0      -4    -70     15     71     73 183.6  12.2  34114  288.79 0855.14
2009/04/23 09:01:21.1      -2   -107     -4    108    109 181.4  -2.2  34108  288.70 0855.14
2009/04/23 09:01:21.2     -25   -106      5    109    110 193.4   2.9  34108  288.70 0855.14
2009/04/23 09:01:21.3     -40    -92     32    101    107 203.6  17.9  34110  288.72 0855.14
2009/04/23 09:01:21.4     -28    -89     58     94    110 197.8  35.5  34108  288.70 0855.14
2009/04/23 09:01:21.5       0   -103     55    104    117 179.5  30.3  34106  288.65 0855.14
2009/04/23 09:01:21.6     -10    -86     52     87    101 186.7  33.5  34110  288.72 0855.14
2009/04/23 09:01:21.7       6    -90     33     91     96 176.0  20.0  34108  288.69 0855.14
2009/04/23 09:01:21.8     -20    -82     33     85     91 194.3  22.0  34106  288.67 0855.14
2009/04/23 09:01:21.9     -13    -67    -31     69     75 191.6 -31.5  34104  288.64 0855.14
2009/04/23 09:01:22.1     -18    -82    -48     85     97 192.9 -36.8  34100  288.57 0855.14
2009/04/23 09:01:22.1     -24   -100    -13    103    104 193.8  -7.3  34104  288.62 0855.14
2009/04/23 09:01:22.2     -12   -101     -4    102    103 187.1  -2.2  34098  288.53 0855.14
2009/04/23 09:01:22.3      15   -107     -7    109    110 172.0  -4.1  34094  288.47 0855.14
2009/04/23 09:01:22.4      32    -97     37    103    109 161.7  20.0  34090  288.40 0855.14
2009/04/23 09:01:22.5       0    -84     63     85    105 180.5  40.1  34092  288.43 0855.15
2009/04/23 09:01:22.6      15    -79     79     81    113 169.3  50.0  34094  288.45 0855.15
2009/04/23 09:01:22.7       7    -85     70     86    110 174.7  43.7  34094  288.45 0855.15
2009/04/23 09:01:22.8       4    -85     78     86    116 176.9  47.5  34094  288.47 0855.15
2009/04/23 09:01:22.9      23    -72     94     76    120 161.7  56.4  34094  288.47 0855.15
2009/04/23 09:01:23.0       8    -99     98    100    140 175.1  50.0  34098  288.52 0855.15
2009/04/23 09:01:23.1      14    -77     65     79    102 169.3  43.8  34098  288.52 0855.15
2009/04/23 09:01:23.2      18    -51     63     55     83 160.8  53.7  34094  288.45 0855.15
2009/04/23 09:01:23.3      47      6     63     48     79  82.1  59.0  34100  288.55 0855.15
2009/04/23 09:01:23.4       5    -25     63     26     68 168.4  77.1  34100  288.57 0855.15
2009/04/23 09:01:23.5      -8     -2     62      9     62 251.8  90.0  34100  288.55 0855.15
2009/04/23 09:01:23.6      19     23     57     30     64  39.6  69.8  34100  288.57 0855.15
2009/04/23 09:01:23.7      66    -17     92     69    115 105.1  60.0  34096  288.50 0855.15
2009/04/23 09:01:23.8      53      4     93     54    107  85.6  67.2  34094  288.47 0855.15
2009/04/23 09:01:23.9      51     -3     84     52     98  93.5  65.1  34092  288.43 0855.15
2009/04/23 09:01:24.0       3     41     64     42     76   4.5  64.6  34094  288.45 0855.15
2009/04/23 09:01:24.1     -19     30     42     36     55 327.5  55.4  34096  288.48 0855.15
2009/04/23 09:01:24.2      45     48    106     67    125  43.3  64.7  34094  288.45 0855.15
2009/04/23 09:01:24.3      19     15     77     25     80  50.5  81.2  34098  288.53 0855.15
2009/04/23 09:01:24.4       7    -10     42     13     43 143.9  81.8  34098  288.53 0855.15
2009/04/23 09:01:24.5      56    -27     71     63     94 116.2  53.7  34102  288.58 0855.15
2009/04/23 09:01:24.6      80     26     78     85    115  71.6  47.9  34098  288.52 0855.15
2009/04/23 09:01:24.7     114     -7     87    115    144  93.5  40.7  34098  288.53 0855.15
2009/04/23 09:01:24.8      92     22    102     95    139  76.3  52.2  34096  288.48 0855.15
2009/04/23 09:01:24.9      64     30     96     71    119  64.6  60.0  34098  288.52 0855.15
2009/04/23 09:01:25.0      46     36     80     59     99  52.2  60.5  34100  288.55 0855.15
2009/04/23 09:01:25.1      -2     46     51     47     69 356.4  52.2  34098  288.52 0855.15
2009/04/23 09:01:25.2       4     37     66     38     76   6.2  66.8  34098  288.52 0855.15
2009/04/23 09:01:25.3      18     10     80     21     82  59.3  85.4  34098  288.53 0855.15
2009/04/23 09:01:25.4      14    -22     63     27     68 147.4  76.1  34100  288.57 0855.15
2009/04/23 09:01:25.5      33     11     53     35     63  71.6  63.6  34102  288.60 0855.15
2009/04/23 09:01:25.6     -22      0     59     23     63 269.2  78.2  34104  288.64 0855.15
2009/04/23 09:01:25.7      24      1     63     25     67  85.6  77.1  34106  288.65 0855.15
2009/04/23 09:01:25.8      36     -6     70     37     79  99.7  69.8  34102  288.58 0855.15
2009/04/23 09:01:25.9      27    -14     52     31     60 117.1  66.8  34104  288.62 0855.15
2009/04/23 09:01:26.0       3    -22     51     23     55 172.0  74.0  34104  288.62 0855.15
2009/04/23 09:01:26.1      32    -39     50     51     71 140.4  50.0  34104  288.62 0855.15
2009/04/23 09:01:26.2      69    -47     64     84    105 124.2  41.2  34102  288.60 0855.15
2009/04/23 09:01:26.3      59    -40     55     72     90 124.2  41.7  34104  288.62 0855.15
2009/04/23 09:01:26.4      39    -62     55     74     92 147.5  40.7  34104  288.64 0855.15
2009/04/23 09:01:26.5      65    -78     62    102    119 140.4  34.0  34098  288.53 0855.15
2009/04/23 09:01:26.6      96    -62     60    115    129 122.9  29.3  34098  288.52 0855.15
2009/04/23 09:01:26.7      58    -41     66     72     97 125.1  47.9  34096  288.48 0855.15
2009/04/23 09:01:26.8      77    -82     98    113    149 136.8  45.4  34094  288.45 0855.15
2009/04/23 09:01:26.9     126   -104    123    164    205 129.5  40.7  34090  288.38 0855.15
2009/04/23 09:01:27.0     134    -92    125    163    205 124.6  41.7  34088  288.35 0855.15
2009/04/23 09:01:27.1     127    -84    103    153    184 123.3  37.0  34088  288.36 0855.15
2009/04/23 09:01:27.2     105    -67     99    125    159 122.4  42.4  34090  288.40 0855.15
2009/04/23 09:01:27.3      90    -65    104    112    152 126.0  47.9  34090  288.38 0855.15
2009/04/23 09:01:27.4      49    -46    103     68    123 133.2  64.1  34094  288.47 0855.15
2009/04/23 09:01:27.5      76    -57     71     95    118 126.9  40.7  34094  288.47 0855.15
2009/04/23 09:01:27.6      40    -63     83     75    111 147.5  52.7  34092  288.43 0855.15
2009/04/23 09:01:27.7      50    -56     82     76    111 138.6  52.2  34092  288.43 0855.15
2009/04/23 09:01:27.8      50    -36     47     62     77 126.0  40.7  34094  288.47 0855.15
2009/04/23 09:01:27.9      73    -57     45     93    103 128.2  27.3  34104  288.64 0855.15
2009/04/23 09:01:28.0      69    -43     19     82     85 122.4  13.2  34108  288.69 0855.15
2009/04/23 09:01:28.1      64    -31     39     72     81 116.2  30.8  34102  288.58 0855.15
2009/04/23 09:01:28.2      29    -63     45     70     83 155.5  36.0  34104  288.62 0855.15
2009/04/23 09:01:28.3      -1    -78     60     79     99 180.9  40.7  34104  288.62 0855.15
2009/04/23 09:01:28.4      32    -80     65     87    108 158.2  40.7  34100  288.57 0855.15
2009/04/23 09:01:28.5      51    -85     61    100    117 148.8  35.0  34100  288.55 0855.15
2009/04/23 09:01:28.6      60    -77     85     98    129 142.2  45.4  34094  288.47 0855.15
2009/04/23 09:01:28.7      12    -35     52     38     64 161.3  60.5  34094  288.45 0855.15
2009/04/23 09:01:28.8      26    -66     72     72    101 158.2  50.1  34092  288.42 0855.15
2009/04/23 09:01:28.9       1    -12     35     13     37 175.5  81.2  34098  288.53 0855.15
2009/04/23 09:01:29.0      39    -73     61     83    103 151.9  40.1  34096  288.48 0855.15
2009/04/23 09:01:29.1      35    -64     62     74     96 151.0  44.3  34092  288.42 0855.15
2009/04/23 09:01:29.2      51    -73     37     90     97 145.3  23.0  34096  288.48 0855.15
2009/04/23 09:01:29.3      41    -79     40     90     98 152.4  25.7  34096  288.48 0855.15
2009/04/23 09:01:29.4      41    -89     34     99    105 155.1  18.9  34094  288.47 0855.15
2009/04/23 09:01:29.5      33    -82     42     89     98 158.2  27.1  34094  288.47 0855.15
2009/04/23 09:01:29.6      53    -97     47    111    120 151.0  24.6  34094  288.47 0855.15
2009/04/23 09:01:29.7      45   -120     57    129    141 159.5  25.2  34086  288.33 0855.15
2009/04/23 09:01:29.8      54   -135     68    146    161 158.1  26.6  34084  288.30 0855.15
2009/04/23 09:01:29.9      53   -116     90    128    156 155.5  38.6  34086  288.33 0855.15
2009/04/23 09:01:30.0      57    -99     82    115    141 150.1  39.5  34088  288.35 0855.15
2009/04/23 09:01:30.1      37    -92     91    100    135 157.7  47.5  34088  288.35 0855.15
2009/04/23 09:01:30.2      50    -88     88    102    134 150.6  45.4  34088  288.36 0855.15
2009/04/23 09:01:30.3      36    -95     70    102    123 159.1  37.6  34086  288.31 0855.15
2009/04/23 09:01:30.4      44    -75     62     88    107 149.7  39.5  34082  288.26 0855.15
2009/04/23 09:01:30.5      21    -90     82     93    123 166.6  45.9  34084  288.30 0855.15
2009/04/23 09:01:30.6      -4   -106     80    107    133 182.2  40.1  34080  288.23 0855.15
2009/04/23 09:01:30.7      15   -134     94    135    164 173.3  38.0  34080  288.21 0855.15
2009/04/23 09:01:30.8      13   -164     96    165    190 175.1  32.9  34078  288.18 0855.15
2009/04/23 09:01:30.9      71   -113    105    134    170 147.5  42.2  34080  288.23 0855.15
2009/04/23 09:01:31.0      19   -101     89    103    136 169.3  45.8  34078  288.20 0855.15
2009/04/23 09:01:31.1      63   -107    109    125    165 149.3  45.6  34080  288.23 0855.15
2009/04/23 09:01:31.2      22   -101    104    104    147 167.5  50.1  34080  288.21 0855.15
2009/04/23 09:01:31.3      67     22    114     71    134  71.8  64.7  34080  288.21 0855.15
2009/04/23 09:01:31.4     118    -39    107    125    164 108.4  45.1  34080  288.23 0855.15
2009/04/23 09:01:31.5     140    -41     87    146    169 106.4  33.7  34080  288.21 0855.15
2009/04/23 09:01:31.6     141    -36    112    146    184 104.6  41.4  34078  288.18 0855.15
2009/04/23 09:01:31.7     143    -56    112    154    190 111.7  39.7  34080  288.23 0855.15
2009/04/23 09:01:31.8     156    -73     70    173    186 115.1  23.1  34080  288.23 0855.15
2009/04/23 09:01:31.9     147    -59    101    159    188 111.8  35.5  34080  288.21 0855.15
2009/04/23 09:01:32.0     166    -35     76    170    186 101.9  25.9  34082  288.26 0855.15
2009/04/23 09:01:32.1     154    -42     53    160    169 105.5  18.4  34080  288.23 0855.15
2009/04/23 09:01:32.2     133    -42     48    140    149 107.7  18.9  34078  288.20 0855.15
2009/04/23 09:01:32.3     124    -37     52    130    140 106.9  23.0  34080  288.21 0855.15
2009/04/23 09:01:32.4     128    -43     62    136    149 108.6  27.1  34080  288.23 0855.15
2009/04/23 09:01:32.5     115    -41     40    123    130 109.9  17.9  34080  288.23 0855.15
2009/04/23 09:01:32.6      97    -22     35    100    107 102.8  19.4  34082  288.25 0855.15
2009/04/23 09:01:32.7      97    -25     34    101    107 104.6  18.9  34080  288.23 0855.15
2009/04/23 09:01:32.8     103    -19     40    105    112 100.6  21.5  34082  288.25 0855.15
2009/04/23 09:01:32.9     101    -22     50    104    115 102.4  27.3  34080  288.23 0855.15
2009/04/23 09:01:33.0     103    -14     28    104    108  97.9  15.2  34082  288.25 0855.15
2009/04/23 09:01:33.1     100    -16     58    102    117  99.2  31.9  34082  288.26 0855.15
2009/04/23 09:01:33.2      90    -12     68     91    113  97.9  40.1  34082  288.25 0855.15
2009/04/23 09:01:33.3      86    -12     76     87    115  98.4  45.4  34082  288.26 0855.15
2009/04/23 09:01:33.4      59     -4     68     60     90  94.4  54.3  34084  288.28 0855.15
2009/04/23 09:01:33.5       1    -18     42     19     46 175.6  75.0  34086  288.33 0855.15
2009/04/23 09:01:33.6       0     23     26     24     35 359.1  50.1  34086  288.31 0855.15
2009/04/23 09:01:33.7      46    -14     38     49     62 107.7  41.7  34084  288.30 0855.15
2009/04/23 09:01:33.8      30    -37     53     48     71 141.3  52.2  34084  288.30 0855.15
2009/04/23 09:01:34.0      66    -34     74     75    105 117.1  50.5  34084  288.28 0855.15
2009/04/23 09:01:34.1      71    -56     74     91    117 128.6  43.7  34082  288.26 0855.15
2009/04/23 09:01:34.1      68    -23     73     72    102 109.1  50.1  34082  288.26 0855.15
2009/04/23 09:01:34.3       4     -4     39      7     39 135.0  90.0  34084  288.28 0855.15
2009/04/23 09:01:34.4     -14    -12     39     19     43 228.7  72.9  34086  288.31 0855.15
2009/04/23 09:01:34.5       0    -30     45     31     54 179.1  62.6  34086  288.31 0855.15
2009/04/23 09:01:34.6       0    -62     74     63     97 180.0  55.4  34084  288.30 0855.15
2009/04/23 09:01:34.7      -3    -46     76     47     89 184.5  65.1  34086  288.33 0855.15
2009/04/23 09:01:34.8      34    -59     53     69     87 150.1  41.7  34082  288.26 0855.15
2009/04/23 09:01:34.9      78    -15     69     80    105 101.5  45.4  34082  288.25 0855.15
2009/04/23 09:01:35.0      63     -1     45     64     78  91.7  38.6  34080  288.23 0855.15
2009/04/23 09:01:35.1      42    -14     68     45     81 108.6  63.6  34082  288.26 0855.15
2009/04/23 09:01:35.2       7    -22     56     24     60 161.7  76.1  34082  288.25 0855.15
2009/04/23 09:01:35.3       7    -23     42     25     48 161.5  65.7  34082  288.25 0855.15
2009/04/23 09:01:35.4     -12     14     27     19     33 318.6  60.5  34086  288.33 0855.15
2009/04/23 09:01:35.5     -14      4     25     15     29 288.4  64.7  34086  288.33 0855.15
2009/04/23 09:01:35.6       5    -10     33     12     35 151.0  81.2  34084  288.30 0855.15
2009/04/23 09:01:35.7      19    -19     60     27     65 134.9  74.0  34084  288.30 0855.15
2009/04/23 09:01:35.8      10    -14     66     18     68 143.9  83.9  34086  288.33 0855.15
2009/04/23 09:01:35.9      -2    -50     72     51     88 182.7  61.5  34084  288.28 0855.15
2009/04/23 09:01:36.0      -1    -62     74     63     97 181.0  55.4  34082  288.26 0855.15
2009/04/23 09:01:36.1     -10    -74     63     75     97 188.0  44.3  34084  288.28 0855.15
2009/04/23 09:01:36.2      -1    -71     61     72     94 180.9  44.8  34082  288.25 0855.15
2009/04/23 09:01:36.3      -7    -46     49     47     67 189.8  50.1  34082  288.26 0855.15
2009/04/23 09:01:36.4       0    -54     60     55     81 180.9  52.7  34082  288.25 0855.15
2009/04/23 09:01:36.5      22    -76     84     80    116 164.0  51.2  34080  288.23 0855.15
2009/04/23 09:01:36.6       6   -111     88    112    142 176.9  42.2  34080  288.21 0855.15
2009/04/23 09:01:36.7       0    -81     96     82    126 179.5  54.8  34078  288.20 0855.15
2009/04/23 09:01:36.8       9    -72     77     73    106 172.9  51.6  34078  288.18 0855.15
2009/04/23 09:01:36.9      47     -3     66     48     81  94.4  60.0  34080  288.21 0855.15
2009/04/23 09:01:37.0      53    -19     78     57     96 110.0  60.5  34078  288.20 0855.15
2009/04/23 09:01:37.1      49    -23     65     55     85 115.4  55.4  34080  288.23 0855.15
2009/04/23 09:01:37.2       0    -44     58     45     73 180.0  57.5  34082  288.25 0855.15
2009/04/23 09:01:37.3       1    -74     79     75    108 179.1  51.6  34082  288.25 0855.15
2009/04/23 09:01:37.4     -15    -96     79     98    125 188.9  43.3  34078  288.18 0855.15
2009/04/23 09:01:37.5     -22   -111     71    114    134 191.6  35.5  34076  288.16 0855.15
2009/04/23 09:01:37.6      -8   -104     86    105    135 184.5  43.7  34078  288.18 0855.15
2009/04/23 09:01:37.7      -1    -99     99    100    140 180.9  50.0  34080  288.23 0855.15
2009/04/23 09:01:37.8      -5   -117     89    118    147 182.7  41.2  34080  288.21 0855.15
2009/04/23 09:01:37.9      -5   -109     76    110    133 182.7  37.6  34076  288.16 0855.15
2009/04/23 09:01:38.0     -14   -110     67    111    129 187.6  34.0  34076  288.16 0855.15
2009/04/23 09:01:38.1      -8   -102     72    103    125 184.5  38.0  34076  288.16 0855.15
2009/04/23 09:01:38.2       8   -112     81    113    139 175.6  39.5  34078  288.20 0855.15
2009/04/23 09:01:38.3      18   -135     71    137    154 172.4  29.3  34076  288.16 0855.15
2009/04/23 09:01:38.4      31   -129     72    133    151 166.2  31.3  34076  288.14 0855.15
2009/04/23 09:01:38.5      20   -119     74    121    141 170.2  34.4  34078  288.18 0855.15
2009/04/23 09:01:38.6      25   -113     79    116    140 167.1  37.6  34080  288.21 0855.16
2009/04/23 09:01:38.7      61   -107     66    124    140 150.1  30.8  34078  288.20 0855.16
2009/04/23 09:01:38.8      82   -111     60    139    151 143.5  25.1  34078  288.20 0855.16
2009/04/23 09:01:38.9      79    -92     45    122    130 139.5  20.9  34080  288.21 0855.16
2009/04/23 09:01:39.0      81    -98     44    128    136 140.4  19.2  34082  288.25 0855.16
2009/04/23 09:01:39.1      70   -120     52    140    149 149.7  21.0  34080  288.21 0855.16
2009/04/23 09:01:39.2      84   -132     49    157    165 147.4  17.3  34078  288.18 0855.16
2009/04/23 09:01:39.3      91   -104     37    139    145 138.6  15.2  34078  288.18 0855.16
2009/04/23 09:01:39.4      86    -98     69    131    148 138.5  30.3  34078  288.18 0855.16
2009/04/23 09:01:39.5      80   -100     45    129    137 141.3  19.4  34078  288.20 0855.16
2009/04/23 09:01:39.6      76   -107     45    132    140 144.4  18.9  34076  288.16 0855.16
2009/04/23 09:01:39.7      86    -83     54    120    131 134.1  26.2  34078  288.18 0855.16
2009/04/23 09:01:39.8      65   -130     51    146    155 153.3  19.4  34078  288.18 0855.16
2009/04/23 09:01:39.9      56   -130     33    142    146 156.4  13.2  34078  288.20 0855.16
2009/04/23 09:01:40.0      71   -101     54    124    135 144.8  25.1  34078  288.20 0855.16
2009/04/23 09:01:40.1      96    -96     54    136    146 135.0  23.0  34078  288.18 0855.16
2009/04/23 09:01:40.2      85   -103     53    134    144 140.4  23.0  34076  288.16 0855.16
2009/04/23 09:01:40.3      86    -80     57    118    131 132.7  27.3  34076  288.16 0855.16
2009/04/23 09:01:40.4      72    -77     42    106    114 136.8  22.5  34076  288.14 0855.16
2009/04/23 09:01:40.5      69    -63     53     94    107 132.7  31.4  34076  288.16 0855.16
2009/04/23 09:01:40.6      55    -62     53     84     99 138.6  35.5  34080  288.21 0855.16
2009/04/23 09:01:40.7      65    -89     39    111    118 143.9  19.4  34076  288.16 0855.16
2009/04/23 09:01:40.8      48   -102     16    113    115 154.7   8.5  34078  288.20 0855.16
2009/04/23 09:01:40.9      24   -119      5    122    123 168.5   2.3  34080  288.21 0855.16
2009/04/23 09:01:41.0      23   -113     13    116    117 168.4   6.9  34082  288.25 0855.16
2009/04/23 09:01:41.1      34   -104      5    110    111 161.7   2.8  34076  288.16 0855.16
2009/04/23 09:01:41.2      44    -99     -7    109    110 155.9  -4.1  34080  288.21 0855.16
2009/04/23 09:01:41.3      50    -85    -15     99    101 149.3  -8.8  34078  288.20 0855.16
2009/04/23 09:01:41.4      40    -80    -14     90     92 153.3  -9.3  34078  288.20 0855.16
2009/04/23 09:01:41.5      42    -96    -24    105    108 156.4 -12.9  34080  288.21 0855.16
2009/04/23 09:01:41.6      67   -112    -21    131    133 149.2  -9.3  34076  288.14 0855.16
2009/04/23 09:01:41.7      74   -125     -8    146    147 149.3  -3.1  34074  288.13 0855.16
2009/04/23 09:01:41.8      70   -127     -5    146    147 151.1  -2.2  34076  288.16 0855.16
2009/04/23 09:01:41.9      69   -128      7    146    147 151.5   2.9  34076  288.16 0855.16
2009/04/23 09:01:42.0      54   -126     21    138    140 156.8   9.0  34078  288.20 0855.16
2009/04/23 09:01:42.1      39   -128     10    134    135 163.0   4.4  34076  288.14 0855.16
2009/04/23 09:01:42.2      25   -108     14    112    113 166.6   7.5  34074  288.11 0855.16
2009/04/23 09:01:42.3      36   -105     30    112    117 160.8  15.2  34072  288.09 0855.16
2009/04/23 09:01:42.4      37   -110     30    117    121 161.3  14.7  34076  288.16 0855.16
2009/04/23 09:01:42.5      39   -111     24    118    121 160.4  11.6  34076  288.16 0855.16
2009/04/23 09:01:42.6      34   -110     44    116    124 162.6  21.0  34076  288.14 0855.16
2009/04/23 09:01:42.7      34   -112     30    118    122 163.1  14.7  34076  288.16 0855.16
2009/04/23 09:01:42.8      40   -114     42    122    130 160.4  19.2  34076  288.16 0855.16
2009/04/23 09:01:42.9      40   -114     42    122    130 160.4  19.2  34076  288.16 0855.16
2009/04/23 09:01:43.0      44   -106     32    115    120 157.3  15.8  34076  288.14 0855.16
2009/04/23 09:01:43.1      60   -115     30    130    134 152.4  13.2  34076  288.16 0855.16
2009/04/23 09:01:43.2      51   -112     19    124    126 155.5   9.0  34076  288.16 0855.16
2009/04/23 09:01:43.3      37   -110     18    117    119 161.3   9.0  34080  288.23 0855.16
2009/04/23 09:01:43.4      40   -113     24    120    123 160.4  11.6  34076  288.16 0855.16
2009/04/23 09:01:43.5      35   -106     39    112    119 161.7  19.4  34076  288.16 0855.16
2009/04/23 09:01:43.6      23   -115     50    118    128 168.4  24.6  34074  288.13 0855.16
2009/04/23 09:01:43.7      41   -104     34    113    119 158.2  16.8  34074  288.13 0855.16
2009/04/23 09:01:43.8      35   -106     39    112    119 161.7  19.4  34076  288.16 0855.16
2009/04/23 09:01:43.9      24   -119     26    122    125 168.4  12.2  34076  288.16 0855.16
2009/04/23 09:01:44.0      17   -119     14    121    122 171.9   6.9  34076  288.16 0855.16
2009/04/23 09:01:44.1      11   -117     18    118    120 174.2   8.9  34076  288.14 0855.16
2009/04/23 09:01:44.2      12   -110      9    111    112 173.3   4.9  34076  288.16 0855.16
2009/04/23 09:01:44.3      12   -110      9    111    112 173.3   4.9  34076  288.16 0855.16
2009/04/23 09:01:44.4      -1    -82     38     83     91 180.9  26.6  34076  288.14 0855.16
2009/04/23 09:01:44.5     -13    -88     42     90     99 188.9  27.1  34074  288.11 0855.16
2009/04/23 09:01:44.6      -9    -98     49     99    110 185.8  27.8  34074  288.11 0855.16
2009/04/23 09:01:44.7     -10    -91     49     92    104 186.7  30.8  34074  288.11 0855.16
2009/04/23 09:01:44.8     -16    -82     58     84    102 191.6  38.6  34074  288.11 0855.16
2009/04/23 09:01:44.9     -25    -82     35     86     92 197.4  23.0  34074  288.11 0855.16
2009/04/23 09:01:45.0     -18    -93     20     95     98 191.1  12.2  34076  288.14 0855.16
2009/04/23 09:01:45.1      11    -95      8     96     97 173.3   4.9  34078  288.18 0855.16
2009/04/23 09:01:45.2      -1   -100     12    101    102 180.9   6.9  34076  288.14 0855.16
2009/04/23 09:01:45.3       1   -102      5    103    104 179.0   3.3  34074  288.13 0855.16
2009/04/23 09:01:45.4     -10   -104      5    105    106 185.8   2.9  34074  288.11 0855.16
2009/04/23 09:01:45.5     -30   -106      6    111    112 196.0   3.3  34074  288.13 0855.16
2009/04/23 09:01:45.6     -22    -94      8     97     98 193.4   4.9  34072  288.08 0855.16
2009/04/23 09:01:45.7     -27   -103     16    107    109 195.1   8.5  34072  288.09 0855.16
2009/04/23 09:01:45.8     -20   -100     29    103    108 191.5  15.8  34072  288.09 0855.16
2009/04/23 09:01:45.9     -16   -109     50    111    121 188.5  25.7  34102  288.58 0855.16
2009/04/23 09:01:46.0     -19    -94     51     97    109 191.6  30.3  34100  288.57 0855.16
2009/04/23 09:01:46.1     -23   -104     61    107    123 192.9  32.9  34086  288.31 0855.16
2009/04/23 09:01:46.2      15   -122     46    123    131 172.9  21.0  34082  288.26 0855.16
2009/04/23 09:01:46.3       8   -109     42    110    117 175.6  22.0  34074  288.13 0855.16
2009/04/23 09:01:46.4      11   -112     39    113    120 174.2  19.4  34076  288.14 0855.16
2009/04/23 09:01:46.5      25   -103     37    107    114 166.2  19.4  34074  288.11 0855.16
2009/04/23 09:01:46.6      15    -96     38     98    105 170.7  22.5  34076  288.14 0855.16
2009/04/23 09:01:46.7      20   -101     55    104    117 168.4  30.3  34074  288.11 0855.16
2009/04/23 09:01:46.8      34   -102     54    108    120 161.5  28.7  34072  288.09 0855.16
2009/04/23 09:01:46.9      63    -77     54    100    113 140.4  31.3  34072  288.09 0855.16
2009/04/23 09:01:47.0      23    -68     51     73     89 160.8  38.6  34078  288.20 0855.16
2009/04/23 09:01:47.1       5    -64     65     65     91 175.5  50.1  34090  288.38 0855.16
2009/04/23 09:01:47.2      48    -75     60     90    108 147.5  36.5  34078  288.20 0855.16
2009/04/23 09:01:47.3      42    -55     48     70     84 142.2  37.6  34074  288.13 0855.16
2009/04/23 09:01:47.4      29    -30     52     43     67 135.9  56.3  34082  288.26 0855.16
2009/04/23 09:01:47.5       0    -54     53     55     76 180.0  50.0  34086  288.33 0855.16
2009/04/23 09:01:47.6      -6    -62     50     63     80 186.2  42.7  34086  288.31 0855.16
2009/04/23 09:01:47.7       0    -76     42     77     87 180.0  30.8  34084  288.28 0855.16
2009/04/23 09:01:47.8      -3    -76     61     77     98 182.7  43.3  34084  288.30 0855.16
2009/04/23 09:01:47.9       2    -89     68     90    112 178.2  41.2  34080  288.23 0855.16
2009/04/23 09:01:48.0       7    -95     69     96    118 175.5  39.7  34076  288.14 0855.16
2009/04/23 09:01:48.1      32    -89     65     95    115 160.0  37.6  34074  288.13 0855.16
2009/04/23 09:01:48.2      36    -95     56    102    116 159.1  31.4  34076  288.16 0855.16
2009/04/23 09:01:48.3      54    -91     38    106    112 149.3  20.0  34074  288.13 0855.16
2009/04/23 09:01:48.4      69    -63     53     94    107 132.7  31.4  34076  288.16 0855.16
2009/04/23 09:01:48.5      66    -80     28    104    108 140.4  15.3  34076  288.14 0855.16
2009/04/23 09:01:48.6      51    -54     56     75     93 136.8  40.7  34076  288.14 0855.16
2009/04/23 09:01:48.7      60    -81     34    101    107 143.5  18.9  34076  288.16 0855.16
2009/04/23 09:01:48.8      45    -70      0     84     85 147.5   0.2  34076  288.16 0855.16
2009/04/23 09:01:48.9      51    -61      5     80     81 140.4   3.8  34076  288.16 0855.16
2009/04/23 09:01:49.0      54    -54     12     77     78 135.0   9.0  34076  288.14 0855.16
2009/04/23 09:01:49.1      45    -45      8     65     66 135.0   7.1  34076  288.14 0855.16
2009/04/23 09:01:49.2      50    -47      5     69     70 133.2   4.9  34076  288.16 0855.16
2009/04/23 09:01:49.3      40    -34     10     53     55 130.4  11.1  34078  288.18 0855.16
2009/04/23 09:01:49.4      18    -38     18     43     46 154.6  23.0  34076  288.16 0855.16
2009/04/23 09:01:49.5      13    -42     30     45     54 162.2  36.5  34074  288.13 0855.16
2009/04/23 09:01:49.6      16    -62     54     65     84 164.9  43.7  34076  288.16 0855.16
2009/04/23 09:01:49.7      19    -73     65     76    100 164.8  44.8  34072  288.09 0855.16
2009/04/23 09:01:49.8      31    -71     64     78    100 156.4  43.7  34074  288.13 0855.16
2009/04/23 09:01:49.9      30    -64     57     72     91 154.5  42.7  34076  288.16 0855.16
2009/04/23 09:01:50.0      23    -80     49     84     97 164.0  33.5  34076  288.16 0855.16
2009/04/23 09:01:50.1      24    -74     59     78     97 161.7  41.2  34072  288.09 0855.16
2009/04/23 09:01:50.2      39    -62     48     74     88 147.5  36.0  34074  288.11 0855.16
2009/04/23 09:01:50.3      51    -46     43     69     81 132.2  35.0  34072  288.09 0855.16
2009/04/23 09:01:50.4      43    -43     49     61     78 135.0  43.7  34080  288.21 0855.16
2009/04/23 09:01:50.5      35    -22     53     42     67 122.4  57.5  34096  288.48 0855.16
2009/04/23 09:01:50.6       4    -34     60     35     69 172.0  66.8  34088  288.35 0855.16
2009/04/23 09:01:50.7      73    -60     67     95    116 129.6  38.6  34090  288.38 0855.16
2009/04/23 09:01:50.8      81    -53     54     97    111 123.3  31.4  34132  289.11 0855.16
2009/04/23 09:01:50.9      64    -56     59     86    104 131.3  37.6  34148  289.36 0855.16
2009/04/23 09:01:51.0      70      0     75     71    103  90.0  51.6  34182  289.94 0855.16
2009/04/23 09:01:51.1      27    -40     54     49     72 145.7  52.2  34130  289.08 0855.16
2009/04/23 09:01:51.2      43    -45     53     63     82 136.7  44.8  34098  288.53 0855.16
2009/04/23 09:01:51.3      92    -43     75    102    126 115.2  39.7  34098  288.52 0855.16
2009/04/23 09:01:51.4      60    -23     58     65     87 110.8  46.9  34156  289.52 0855.16
2009/04/23 09:01:51.5      38    -53     63     66     91 144.8  49.0  34124  288.96 0855.16
2009/04/23 09:01:51.6      17    -11     58     21     61 122.4  80.2  34104  288.64 0855.15
2009/04/23 09:01:51.7       0    -25     47     26     53 180.9  68.8  34096  288.50 0855.15
2009/04/23 09:01:51.8      25    -63     88     68    111 158.2  57.9  34084  288.30 0855.15
2009/04/23 09:01:51.9       0    -90     89     91    127 180.4  49.9  34076  288.16 0855.15
2009/04/23 09:01:52.0       7    -62     97     63    115 172.9  64.6  34078  288.20 0855.15
2009/04/23 09:01:52.1       6    -78     82     79    113 175.5  50.7  34074  288.13 0855.15
2009/04/23 09:01:52.2      24    -79     88     83    120 163.1  52.1  34076  288.16 0855.15
2009/04/23 09:01:52.3      21   -105     70    108    128 168.5  35.6  34074  288.13 0855.15
2009/04/23 09:01:52.4      28    -83     75     88    115 161.3  44.3  34074  288.11 0855.15
2009/04/23 09:01:52.5      18    -73     69     76    102 165.7  47.5  34076  288.14 0855.15
2009/04/23 09:01:52.6      33    -98     74    104    127 161.3  39.5  34074  288.13 0855.15
2009/04/23 09:01:52.7      30    -60     70     68     97 153.7  49.7  34078  288.20 0855.15
2009/04/23 09:01:52.8      16    -78     57     80     98 168.4  39.5  34080  288.21 0855.15
2009/04/23 09:01:52.9      30    -80     71     86    111 159.1  43.7  34076  288.16 0855.15
2009/04/23 09:01:53.0      21    -58     62     62     87 160.0  50.1  34078  288.20 0855.15
2009/04/23 09:01:53.1      34    -53     65     64     91 147.5  50.1  34090  288.40 0855.15
2009/04/23 09:01:53.2      14      4     53     15     55  71.6  83.9  34146  289.33 0855.15
2009/04/23 09:01:53.3      32    -10     58     34     67 108.2  66.8  34202  290.30 0855.15
2009/04/23 09:01:53.4       3     -3     45      5     45 135.0  90.0  34216  290.53 0855.15
2009/04/23 09:01:53.5       0      3     24      4     24 355.5  90.0  34214  290.50 0855.15
2009/04/23 09:01:53.6      12     12     38     18     42  45.0  72.9  34220  290.60 0855.15
2009/04/23 09:01:53.7      40      0     54     41     67  90.0  59.4  34216  290.53 0855.15
2009/04/23 09:01:53.8      11     33     45     35     57  18.5  57.5  34216  290.53 0855.15
2009/04/23 09:01:53.9      33      2     40     34     52  85.6  55.4  34206  290.36 0855.15
2009/04/23 09:01:54.0      -1    -24     20     25     32 184.5  43.7  34208  290.40 0855.15
2009/04/23 09:01:54.1       0      7     41      8     41 357.3  90.0  34210  290.43 0855.15
2009/04/23 09:01:54.2      48    -16     43     51     66 108.6  44.8  34194  290.16 0855.15
2009/04/23 09:01:54.3      43    -41     28     60     66 133.3  27.1  34196  290.18 0855.15
2009/04/23 09:01:54.4      41    -50     25     65     69 140.3  22.0  34182  289.94 0855.15
2009/04/23 09:01:54.5      80    -63     51    102    114 128.2  28.2  34166  289.67 0855.15
2009/04/23 09:01:54.6      82    -58     55    101    115 125.5  31.4  34176  289.84 0855.15
2009/04/23 09:01:54.7      75    -36     52     84     98 115.4  35.0  34170  289.74 0855.15
2009/04/23 09:01:54.8      48    -50     57     70     90 135.8  43.7  34166  289.67 0855.15
2009/04/23 09:01:54.9      26    -56     53     62     81 154.6  45.4  34140  289.24 0855.15
2009/04/23 09:01:55.0      23    -77     29     81     86 163.1  20.0  34104  288.64 0855.15
2009/04/23 09:01:55.1      29    -76     22     82     86 158.6  15.3  34084  288.28 0855.15
2009/04/23 09:01:55.2      23    -88     21     91     94 165.3  13.2  34084  288.28 0855.15
2009/04/23 09:01:55.3       0    -84     30     85     91 180.0  19.4  34082  288.25 0855.15
2009/04/23 09:01:55.4       7    -83     29     84     90 175.1  19.2  34074  288.11 0855.15
2009/04/23 09:01:55.5      -6    -98      5     99    100 183.6   2.9  34080  288.21 0855.15
2009/04/23 09:01:55.6      -9   -103     -6    104    105 185.3  -3.7  34074  288.11 0855.16
2009/04/23 09:01:55.7      -9   -124    -15    125    127 184.4  -7.2  34070  288.06 0855.16
2009/04/23 09:01:55.8      11   -114    -27    115    119 174.2 -13.3  34074  288.13 0855.16
2009/04/23 09:01:55.9       5   -108     -6    109    110 176.9  -3.2  34072  288.08 0855.16
2009/04/23 09:01:56.0     -11   -108      3    109    110 185.8   1.8  34072  288.08 0855.16
2009/04/23 09:01:56.1     -19   -116     30    118    122 189.3  14.3  34072  288.08 0855.16
2009/04/23 09:01:56.2       0    -85     40     86     94 180.0  27.1  34068  288.01 0855.16
2009/04/23 09:01:56.3       0    -85     40     86     94 180.0  27.1  34068  288.01 0855.16
2009/04/23 09:01:56.4       4    -78     43     79     89 176.4  30.8  34068  288.01 0855.16
2009/04/23 09:01:56.5       5    -68     39     69     79 175.6  32.4  34066  287.99 0855.16
2009/04/23 09:01:56.6      12    -63     33     65     72 168.5  28.2  34072  288.08 0855.16
2009/04/23 09:01:56.7       0    -62     38     63     73 179.1  34.4  34070  288.06 0855.16
2009/04/23 09:01:56.8      12    -63     33     65     72 168.5  28.2  34072  288.08 0855.16
2009/04/23 09:01:56.9      27    -86     33     91     96 162.2  20.0  34072  288.08 0855.16
2009/04/23 09:01:57.0      14    -84     41     86     95 170.2  27.2  34074  288.13 0855.16
2009/04/23 09:01:57.1       0    -83     27     84     89 180.0  17.9  34076  288.16 0855.16
2009/04/23 09:01:57.2      -2    -85     27     86     91 181.4  17.3  34076  288.14 0855.16
2009/04/23 09:01:57.3      -2    -89     16     90     92 181.8  10.6  34074  288.11 0855.16
2009/04/23 09:01:57.4      -7    -84     15     85     87 185.3  10.6  34076  288.16 0855.16
2009/04/23 09:01:57.5     -15    -90      7     92     93 189.8   4.9  34074  288.13 0855.16
2009/04/23 09:01:57.6     -14    -85      4     87     88 189.3   2.8  34076  288.14 0855.16
2009/04/23 09:01:57.7      -9    -82     22     83     87 186.7  15.3  34070  288.06 0855.16
2009/04/23 09:01:57.8     -16    -83     29     85     90 191.1  18.9  34072  288.08 0855.16
2009/04/23 09:01:57.9      -6    -86     44     87     97 184.5  28.2  34076  288.16 0855.16
2009/04/23 09:01:58.0      -1    -90     51     91    104 180.9  31.9  34078  288.20 0855.16
2009/04/23 09:01:58.1       0    -82     51     83     97 180.5  35.5  34078  288.20 0855.16
2009/04/23 09:01:58.2     -11    -89     55     90    105 187.6  35.0  34078  288.18 0855.16
2009/04/23 09:01:58.3     -19    -79     56     82     99 193.4  38.0  34074  288.13 0855.16
2009/04/23 09:01:58.4     -15    -79     41     81     90 191.1  28.7  34076  288.14 0855.16
2009/04/23 09:01:58.5     -15    -77     66     79    102 191.6  44.3  34078  288.18 0855.16
2009/04/23 09:01:58.6     -25    -86     64     90    110 196.5  39.5  34074  288.13 0855.16
2009/04/23 09:01:58.7     -19   -103     69    105    125 190.7  36.0  34072  288.08 0855.16
2009/04/23 09:01:58.8     -15    -85     59     87    105 190.2  37.0  34074  288.13 0855.16
2009/04/23 09:01:58.9     -27   -103     47    107    116 195.1  25.1  34072  288.09 0855.16
2009/04/23 09:01:59.0     -34    -99     47    105    115 199.2  26.2  34068  288.03 0855.16
2009/04/23 09:01:59.1     -23   -103     58    106    120 192.9  31.3  34070  288.06 0855.16
2009/04/23 09:01:59.2     -32    -96     69    102    123 198.3  37.4  34072  288.08 0855.16
2009/04/23 09:01:59.3     -39    -97     57    105    119 201.8  31.3  34072  288.08 0855.16
2009/04/23 09:01:59.4     -24    -81     36     85     92 196.9  24.1  34072  288.09 0855.16
2009/04/23 09:01:59.6     -22    -65     51     69     85 199.2  40.1  34072  288.08 0855.16
2009/04/23 09:01:59.6     -38    -38     58     54     79 225.0  51.6  34076  288.16 0855.17
2009/04/23 09:01:59.7     -18    -53     35     57     66 198.7  35.5  34076  288.16 0855.17
2009/04/23 09:01:59.8     -10    -71      0     72     73 188.0  -0.3  34078  288.18 0855.17
2009/04/23 09:02:00.0      -2    -69     13     70     72 181.8  11.0  34078  288.18 0855.17
2009/04/23 09:02:00.1       6    -69      4     70     71 174.7   3.8  34078  288.18 0855.17
2009/04/23 09:02:00.2      -6    -98     19     99    101 184.0  11.0  34078  288.18 0855.17
2009/04/23 09:02:00.3       6    -76      3     77     78 175.5   2.9  34080  288.23 0855.17
2009/04/23 09:02:00.4       7    -91     39     92     99 175.5  24.1  34078  288.20 0855.17
2009/04/23 09:02:00.5       0    -95     40     96    104 180.0  23.1  34080  288.21 0855.17
2009/04/23 09:02:00.6       0    -94     39     95    102 180.5  23.1  34076  288.16 0855.17
2009/04/23 09:02:00.7     -16   -114     15    116    117 188.0   7.5  34072  288.08 0855.17
2009/04/23 09:02:00.8      17    -82     51     84     98 168.0  34.4  34074  288.11 0855.17
2009/04/23 09:02:00.9      34    -83     72     90    115 157.3  43.7  34074  288.13 0855.17
2009/04/23 09:02:01.0       0    -67     75     68    101 180.0  52.7  34072  288.09 0855.17
2009/04/23 09:02:01.1       0    -81     76     82    111 179.5  47.9  34074  288.11 0855.17
2009/04/23 09:02:01.2      15    -75     62     77     98 168.4  43.7  34074  288.11 0855.17
2009/04/23 09:02:01.3       7    -85     42     86     95 175.1  27.8  34072  288.08 0855.17
2009/04/23 09:02:01.4       4    -78     50     79     93 176.4  35.5  34072  288.09 0855.17
2009/04/23 09:02:01.5      -6    -74     41     75     85 185.3  31.4  34070  288.04 0855.17
2009/04/23 09:02:01.6      -1    -78     60     79     99 180.9  40.7  34068  288.03 0855.17
2009/04/23 09:02:01.7       5    -66     53     67     85 175.5  42.7  34068  288.01 0855.17
2009/04/23 09:02:01.8      13    -58     70     60     92 166.6  54.8  34068  288.01 0855.17
2009/04/23 09:02:01.9     -24    -71     94     76    120 199.2  56.4  34068  288.01 0855.17
2009/04/23 09:02:02.0     -47    -91     84    103    132 207.6  43.7  34070  288.06 0855.17
2009/04/23 09:02:02.1     -21    -94    104     97    142 192.9  52.2  34072  288.08 0855.17
2009/04/23 09:02:02.2      -8   -115     80    116    140 184.4  38.0  34072  288.09 0855.17
2009/04/23 09:02:02.3       4   -108     86    109    138 177.8  42.2  34068  288.03 0855.17
2009/04/23 09:02:02.4      24   -107     57    110    123 167.1  29.3  34074  288.11 0855.17
2009/04/23 09:02:02.5      22   -118     62    121    135 169.3  29.2  34074  288.11 0855.17
2009/04/23 09:02:02.6      20    -99     46    101    110 168.5  26.6  34076  288.16 0855.17
2009/04/23 09:02:02.7      18    -96     64     98    117 169.3  35.6  34076  288.14 0855.17
2009/04/23 09:02:02.8      18    -92     74     94    119 168.5  42.2  34078  288.18 0855.17
2009/04/23 09:02:02.9      30   -102     70    107    127 163.5  36.0  34080  288.23 0855.17
2009/04/23 09:02:03.0      76    -92     93    120    151 140.3  41.7  34092  288.42 0855.17
2009/04/23 09:02:03.1      47    -95     97    107    144 153.7  47.5  34090  288.40 0855.17
2009/04/23 09:02:03.2      23    -86     95     90    130 164.9  51.6  34086  288.33 0855.17
2009/04/23 09:02:03.3      12   -115    100    116    153 173.8  45.4  34084  288.30 0855.17
2009/04/23 09:02:03.4     -28   -150     60    153    164 190.7  22.3  34090  288.40 0855.17
2009/04/23 09:02:03.5     -54   -153     66    163    175 199.6  23.0  34086  288.31 0855.17
2009/04/23 09:02:03.6     -33   -159     83    163    182 192.0  29.3  34080  288.23 0855.17
2009/04/23 09:02:03.7      11   -149    113    150    187 175.6  40.7  34074  288.13 0855.17
2009/04/23 09:02:03.8       0   -189     59    190    200 180.2  17.3  34080  288.21 0855.17
2009/04/23 09:02:03.9       0   -189     53    190    198 180.2  15.8  34076  288.16 0855.17
2009/04/23 09:02:04.0       8   -166     62    167    178 177.1  21.3  34076  288.16 0855.17
2009/04/23 09:02:04.1      13   -123     82    124    148 173.7  36.5  34078  288.18 0855.17
2009/04/23 09:02:04.2       5   -123     81    124    148 177.3  35.6  34074  288.11 0855.17
2009/04/23 09:02:04.3      -1   -107     72    108    129 180.9  37.0  34072  288.09 0855.17
2009/04/23 09:02:04.4      17    -64     98     67    118 164.9  62.6  34080  288.23 0855.17
2009/04/23 09:02:04.5      79    -15     74     81    109 101.0  47.9  34086  288.31 0855.17
2009/04/23 09:02:04.6      26      7     39     27     47  74.9  62.6  34086  288.33 0855.17
2009/04/23 09:02:04.7     -19    -30     36     36     50 212.5  50.1  34088  288.35 0855.16
2009/04/23 09:02:04.8      -1    -79     63     80    101 180.9  42.7  34084  288.30 0855.16
2009/04/23 09:02:04.9      -2    -97     50     98    110 181.4  28.7  34078  288.20 0855.16
2009/04/23 09:02:05.0      -6    -79     66     80    103 184.5  43.8  34082  288.26 0855.16
2009/04/23 09:02:05.1       7    -50     89     51    102 171.1  67.7  34088  288.35 0855.16
2009/04/23 09:02:05.2      16    -49     84     52     98 161.5  65.1  34088  288.36 0855.16
2009/04/23 09:02:05.3       5    -72     61     73     95 175.5  43.8  34086  288.33 0855.16
2009/04/23 09:02:05.4       8    -49     34     50     60 170.2  37.6  34088  288.36 0855.16
2009/04/23 09:02:05.5       3    -31     31     32     44 173.8  51.1  34086  288.33 0855.16
2009/04/23 09:02:05.6      44    -28     29     53     60 122.4  31.4  34088  288.35 0855.16
2009/04/23 09:02:05.7      51    -47     49     70     85 133.2  38.0  34086  288.33 0855.16
2009/04/23 09:02:05.8      30    -64     57     72     91 154.5  42.7  34086  288.31 0855.16
2009/04/23 09:02:05.9     -18    -71     63     74     97 194.3  44.8  34086  288.33 0855.16
2009/04/23 09:02:06.0       0    -85     41     86     95 180.0  27.2  34086  288.31 0855.16
2009/04/23 09:02:06.1      41   -104     72    113    133 158.2  35.5  34088  288.35 0855.16
2009/04/23 09:02:06.2      15    -87     71     89    113 169.8  43.3  34086  288.33 0855.16
2009/04/23 09:02:06.3      29    -97     55    102    115 163.5  30.8  34088  288.35 0855.16
2009/04/23 09:02:06.4      50   -105     10    117    118 154.5   5.0  34086  288.33 0855.16
2009/04/23 09:02:06.5      43   -119     32    127    132 160.0  14.3  34088  288.35 0855.16
2009/04/23 09:02:06.6      30   -177     59    180    190 170.2  18.1  34084  288.30 0855.16
2009/04/23 09:02:06.7      69   -160     80    175    192 156.6  26.4  34086  288.33 0855.16
2009/04/23 09:02:06.8      50   -149     74    158    174 161.3  27.1  34084  288.30 0855.16
2009/04/23 09:02:06.9      59   -177     71    187    200 161.3  21.5  34086  288.31 0855.16
2009/04/23 09:02:07.0      51   -196     15    203    204 165.3   4.4  34088  288.35 0855.16
2009/04/23 09:02:07.1      39   -189      5    194    195 168.2   1.6  34086  288.31 0855.16
2009/04/23 09:02:07.2      29   -167     -1    170    171 170.0  -0.5  34082  288.26 0855.16
2009/04/23 09:02:07.3      18   -156     18    158    160 173.3   6.7  34076  288.14 0855.16
2009/04/23 09:02:07.4      12   -158     23    159    161 175.5   8.2  34078  288.18 0855.16
2009/04/23 09:02:07.5      15   -162     17    163    164 174.7   6.1  34080  288.23 0855.16
2009/04/23 09:02:07.6      12   -142     22    143    145 175.1   9.0  34086  288.33 0855.16
2009/04/23 09:02:07.7     -17   -124    -16    126    128 188.0  -7.3  34084  288.30 0855.16
2009/04/23 09:02:07.8      -4   -105      1    106    107 182.2   0.8  34082  288.26 0855.16
2009/04/23 09:02:07.9       0    -96      4     97     98 179.5   2.9  34084  288.28 0855.16
2009/04/23 09:02:08.0      -7   -101     22    102    105 184.5  12.6  34082  288.25 0855.16
2009/04/23 09:02:08.1     -14   -101     -9    103    104 188.1  -5.2  34086  288.31 0855.16
2009/04/23 09:02:08.2       5    -99     -7    100    101 176.9  -4.1  34084  288.30 0855.16
2009/04/23 09:02:08.3      15   -106    -21    108    111 171.9 -11.3  34084  288.30 0855.16
2009/04/23 09:02:08.4      25   -107     -6    110    111 166.6  -3.1  34084  288.30 0855.16
2009/04/23 09:02:08.5       0   -102     -4    103    104 180.0  -2.2  34086  288.31 0855.16
2009/04/23 09:02:08.6       7    -97      1     98     99 175.5   0.8  34084  288.30 0855.16
2009/04/23 09:02:08.7       3    -98     -5     99    100 177.8  -3.1  34084  288.28 0855.16
2009/04/23 09:02:08.8      -4   -123    -32    124    129 182.2 -14.5  34080  288.23 0855.16
2009/04/23 09:02:08.9     -17   -119     -4    121    122 188.5  -2.2  34082  288.26 0855.16
2009/04/23 09:02:09.0     -12   -143      1    144    145 184.9   0.7  34080  288.23 0855.16
2009/04/23 09:02:09.1      15   -143     -3    144    145 173.7  -1.3  34078  288.20 0855.16
2009/04/23 09:02:09.2     -36   -149     10    154    155 193.8   3.8  34076  288.16 0855.16
2009/04/23 09:02:09.3     -47   -199     35    205    209 193.3   9.9  34076  288.14 0855.16
2009/04/23 09:02:09.4     -52   -209     26    216    218 194.0   6.9  34076  288.16 0855.16
2009/04/23 09:02:09.5     -65   -165     11    178    179 201.6   3.6  34076  288.16 0855.16
2009/04/23 09:02:09.6     -26   -185    -16    187    188 188.0  -5.2  34074  288.13 0855.16
2009/04/23 09:02:09.7     -23   -204    -33    206    209 186.5  -9.3  34076  288.16 0855.16
2009/04/23 09:02:09.8     -20   -201    -47    203    209 185.8 -13.2  34076  288.16 0855.16
2009/04/23 09:02:09.9     -35   -174    -48    178    185 191.6 -15.2  34074  288.11 0855.16
2009/04/23 09:02:10.0     -26   -181    -36    183    187 188.2 -11.3  34076  288.16 0855.16
2009/04/23 09:02:10.1     -18   -182    -10    183    184 185.8  -3.3  34076  288.16 0855.16
2009/04/23 09:02:10.2     -30   -205     -6    208    209 188.5  -1.8  34072  288.08 0855.16
2009/04/23 09:02:10.3     -35   -230      3    233    234 188.7   0.8  34074  288.10 0855.16
2009/04/23 09:02:10.4     -44   -188      2    194    195 193.4   0.8  34070  288.04 0855.16
2009/04/23 09:02:10.5       4   -185     -8    186    187 178.6  -2.6  34074  288.11 0855.16
2009/04/23 09:02:10.6     -15   -192    -16    193    194 184.5  -4.9  34074  288.11 0855.16
2009/04/23 09:02:10.7      -4   -204    -37    205    209 181.4 -10.3  34072  288.09 0855.17
2009/04/23 09:02:10.8       8   -194    -49    195    202 177.5 -14.3  34072  288.09 0855.17
2009/04/23 09:02:10.9      15   -195    -25    196    198 175.5  -7.3  34072  288.09 0855.17
2009/04/23 09:02:11.0      25   -182    -14    184    185 171.9  -4.6  34072  288.08 0855.17
2009/04/23 09:02:11.1      39   -179    -23    184    186 167.5  -7.2  34070  288.04 0855.17
2009/04/23 09:02:11.2      28   -177    -24    180    182 170.9  -7.7  34070  288.06 0855.17
2009/04/23 09:02:11.3      32   -173     -9    177    178 169.3  -3.1  34072  288.08 0855.17
2009/04/23 09:02:11.4      36   -191    -10    195    196 169.1  -3.2  34070  288.06 0855.17
2009/04/23 09:02:11.5      80   -197      3    213    214 157.9   0.8  34076  288.14 0855.17
2009/04/23 09:02:11.6      87   -193     33    212    215 155.7   9.0  34074  288.11 0855.17
2009/04/23 09:02:11.7     113   -188     27    220    222 149.0   7.1  34072  288.09 0855.17
2009/04/23 09:02:11.8      77   -152     51    171    179 153.0  16.6  34072  288.09 0855.17
2009/04/23 09:02:11.9      72   -115     -4    136    137 147.9  -1.8  34076  288.14 0855.17
2009/04/23 09:02:12.0      68   -107      4    128    129 147.5   1.8  34076  288.14 0855.17
2009/04/23 09:02:12.1      42   -117     -4    125    126 160.0  -2.2  34074  288.13 0855.17
2009/04/23 09:02:12.2      45    -99    -10    109    110 155.5  -5.6  34074  288.13 0855.17
2009/04/23 09:02:12.3      52    -87     12    102    103 148.8   7.1  34072  288.09 0855.17
2009/04/23 09:02:12.4      52    -86     57    101    115 148.8  31.9  34076  288.16 0855.17
2009/04/23 09:02:12.5      51    -64     35     83     90 141.3  24.6  34076  288.16 0855.17
2009/04/23 09:02:12.6      60    -78     44     99    108 142.2  25.7  34076  288.16 0855.17
2009/04/23 09:02:12.7      24    -73     65     78    101 161.5  43.8  34074  288.13 0855.17
2009/04/23 09:02:12.8      42    -79     79     90    119 151.5  45.8  34076  288.14 0855.17
2009/04/23 09:02:12.9      24    -73     80     77    111 161.5  51.2  34076  288.14 0855.17
2009/04/23 09:02:13.0       8    -86     56     87    103 174.7  35.6  34074  288.11 0855.17
2009/04/23 09:02:13.1      23   -106     -4    109    110 167.5  -2.2  34074  288.13 0855.17
2009/04/23 09:02:13.2       9   -115     -7    116    117 175.5  -3.7  34076  288.16 0855.17
2009/04/23 09:02:13.3     -26    -92     31     96    101 196.0  17.9  34076  288.16 0855.17
2009/04/23 09:02:13.4     -41   -113      6    121    122 200.0   3.3  34078  288.18 0855.17
2009/04/23 09:02:13.5      -1   -108      5    109    110 180.9   2.8  34076  288.16 0855.17
2009/04/23 09:02:13.6      -3   -117     14    118    119 181.8   6.9  34076  288.14 0855.17
2009/04/23 09:02:13.7      -6   -117     14    118    119 183.1   6.9  34076  288.14 0855.17
2009/04/23 09:02:13.8       4   -109     15    110    112 177.8   8.0  34076  288.16 0855.17
2009/04/23 09:02:13.9       2    -93     15     94     96 178.2   9.5  34076  288.16 0855.17
2009/04/23 09:02:14.0      12    -94      9     95     96 172.4   5.9  34076  288.16 0855.17
2009/04/23 09:02:14.1      -7    -82     10     83     84 184.9   7.5  34074  288.11 0855.17
2009/04/23 09:02:14.2     -37    -68      0     78     79 209.0   0.2  34076  288.14 0855.17
2009/04/23 09:02:14.3     -43    -53    -24     69     74 218.7 -19.6  34076  288.14 0855.17
2009/04/23 09:02:14.4      -9    -56     15     57     60 189.8  15.3  34074  288.13 0855.17
2009/04/23 09:02:14.5      -3    -47      8     48     49 184.5  10.1  34076  288.14 0855.17
2009/04/23 09:02:14.6     -16    -46      0     49     50 200.0   0.8  34076  288.14 0855.17
2009/04/23 09:02:14.7     -21    -46      2     51     52 205.5   2.9  34076  288.16 0855.16
2009/04/23 09:02:14.8      -1    -60     23     61     65 181.8  22.0  34076  288.14 0855.16
2009/04/23 09:02:14.9       0    -56     41     57     70 180.0  39.7  34078  288.18 0855.16
2009/04/23 09:02:15.0      16    -55     52     58     77 164.0  47.9  34080  288.23 0855.16
2009/04/23 09:02:15.1      33    -88     70     95    118 159.1  40.1  34080  288.23 0855.16
2009/04/23 09:02:15.2      22   -101    104    104    147 167.5  50.1  34080  288.21 0855.16
2009/04/23 09:02:15.3       0    -57    111     58    125 180.9  70.4  34084  288.28 0855.16
2009/04/23 09:02:15.4      -6    -66     87     67    109 185.3  58.5  34080  288.21 0855.16
2009/04/23 09:02:15.5      13    -44     88     47     99 163.1  69.3  34082  288.25 0855.16
2009/04/23 09:02:15.6      -2    -34     72     35     80 184.4  72.4  34082  288.25 0855.16
2009/04/23 09:02:15.7      46     17     46     50     67  69.2  48.0  34080  288.23 0855.16
2009/04/23 09:02:15.8      33    -33     58     47     74 135.0  56.4  34082  288.25 0855.16
2009/04/23 09:02:15.9      59    -35     54     69     87 120.7  42.2  34080  288.21 0855.16
2009/04/23 09:02:16.0      23    -68     38     73     82 160.8  29.3  34078  288.20 0855.16
2009/04/23 09:02:16.1      37    -80     36     89     96 155.1  23.0  34080  288.21 0855.16
2009/04/23 09:02:16.2      41    -97     10    106    107 156.8   5.4  34076  288.16 0855.16
2009/04/23 09:02:16.3      36    -96     -2    103    104 159.5  -1.3  34078  288.20 0855.16
2009/04/23 09:02:16.4      28   -104     10    108    109 164.8   5.4  34076  288.16 0855.16
2009/04/23 09:02:16.5      24   -115      7    118    119 168.0   3.8  34078  288.20 0855.16
2009/04/23 09:02:16.6      14   -120     10    121    122 173.3   4.9  34080  288.21 0855.16
2009/04/23 09:02:16.7       1   -128     12    129    130 179.5   5.4  34078  288.20 0855.16
2009/04/23 09:02:16.8       0   -133     -5    134    135 180.4  -2.2  34076  288.16 0855.16
2009/04/23 09:02:16.9      21   -125    -25    127    130 170.2 -11.3  34076  288.16 0855.16
2009/04/23 09:02:17.0      12   -122    -34    123    128 174.2 -15.5  34076  288.16 0855.16
2009/04/23 09:02:17.1      25   -145    -13    148    149 170.2  -5.2  34080  288.21 0855.16
2009/04/23 09:02:17.2     -13   -148     -9    149    150 185.3  -3.7  34078  288.18 0855.16
2009/04/23 09:02:17.3      -2   -171      8    172    173 180.9   2.8  34080  288.21 0855.16
2009/04/23 09:02:17.4      13   -178     17    179    180 175.5   5.7  34084  288.28 0855.16
2009/04/23 09:02:17.5      15   -215     40    216    220 175.8  10.6  34084  288.30 0855.16
2009/04/23 09:02:17.6      16   -219     61    220    229 175.6  15.6  34080  288.21 0855.16
2009/04/23 09:02:17.7      27   -199     87    201    219 172.2  25.1  34082  288.25 0855.16
2009/04/23 09:02:17.8      19   -174     94    176    199 173.8  30.6  34078  288.18 0855.16
2009/04/23 09:02:17.9     -14   -177    105    178    206 184.7  33.5  34078  288.20 0855.16
2009/04/23 09:02:18.0      40   -168    137    173    220 166.6  42.4  34082  288.25 0855.16
2009/04/23 09:02:18.1      70   -160    140    175    224 156.2  42.7  34082  288.25 0855.16
2009/04/23 09:02:18.2      98   -154    106    183    211 147.5  32.9  34082  288.25 0855.16
2009/04/23 09:02:18.3     113   -142    105    182    210 141.5  32.7  34082  288.26 0855.16
2009/04/23 09:02:18.4     131   -144     98    195    218 137.7  28.7  34084  288.28 0855.16
2009/04/23 09:02:18.5     117   -172    106    209    234 145.7  29.1  34082  288.26 0855.16
2009/04/23 09:02:18.6      92   -188    143    210    254 153.9  37.6  34086  288.32 0855.16
2009/04/23 09:02:18.7     126   -211    165    246    296 149.2  37.3  34082  288.24 0855.16
2009/04/23 09:02:18.8     128   -189    122    229    259 145.9  30.3  34086  288.31 0855.16
2009/04/23 09:02:18.9      94   -183    116    206    236 152.8  32.1  34082  288.26 0855.16
2009/04/23 09:02:19.0      49   -159     95    167    192 162.8  32.4  34080  288.23 0855.16
2009/04/23 09:02:19.1      25   -182    113    184    215 172.0  34.4  34080  288.23 0855.16
2009/04/23 09:02:19.2     114   -179     55    213    220 147.4  14.5  34078  288.20 0855.16
2009/04/23 09:02:19.3      69   -159     16    174    175 156.6   5.4  34080  288.21 0855.16
2009/04/23 09:02:19.4      73   -149     19    167    169 153.7   6.5  34080  288.21 0855.16
2009/04/23 09:02:19.5      73   -157      8    174    175 155.1   2.9  34080  288.23 0855.16
2009/04/23 09:02:19.6      63   -152      8    165    166 157.5   2.8  34082  288.25 0855.16
2009/04/23 09:02:19.7      65   -134     -3    149    150 154.1  -1.3  34080  288.23 0855.16
2009/04/23 09:02:19.8     118   -126     17    173    174 136.8   5.9  34080  288.21 0855.16
2009/04/23 09:02:19.9     173   -167    -30    241    243 134.0  -7.3  34084  288.29 0855.16
2009/04/23 09:02:20.0      92   -194     85    216    232 154.5  22.8  34084  288.28 0855.16
2009/04/23 09:02:20.1      34   -225     90    228    245 171.3  23.0  34084  288.29 0855.16
2009/04/23 09:02:20.2      32   -294    106    296    314 173.8  20.6  34084  288.29 0855.16
2009/04/23 09:02:20.3      -7   -249    121    250    277 181.8  27.8  34084  288.29 0855.16
2009/04/23 09:02:20.4      15   -196     98    197    220 175.5  28.2  34086  288.31 0855.16
2009/04/23 09:02:20.5      -1   -206      3    207    208 180.5   1.0  34084  288.30 0855.16
2009/04/23 09:02:20.6     -16   -260     15    261    262 183.6   3.3  34086  288.32 0855.16
2009/04/23 09:02:20.7     -36   -283      6    286    287 187.3   1.2  34084  288.29 0855.15
2009/04/23 09:02:20.8      17   -390    -51    391    395 177.4  -7.5  34084  288.28 0855.15
2009/04/23 09:02:20.9     -16   -277    -18    278    279 183.5  -3.9  34084  288.27 0855.15
2009/04/23 09:02:21.0     -32   -260    -18    263    264 187.1  -4.1  34084  288.27 0855.15
2009/04/23 09:02:21.1      -8   -324    -29    325    327 181.5  -5.2  34080  288.22 0855.15
2009/04/23 09:02:21.2      21   -284    -20    285    286 175.6  -4.1  34082  288.26 0855.15
2009/04/23 09:02:21.3      40   -197    -57    202    209 168.4 -20.4  34082  288.26 0855.15
2009/04/23 09:02:21.4      74   -144    -71    162    176 152.8 -29.5  34084  288.30 0855.15
2009/04/23 09:02:21.5     -88   -202    -28    221    223 203.6  -7.3  34082  288.25 0855.15
2009/04/23 09:02:21.6     -37   -201     -4    205    206 190.5  -1.3  34084  288.30 0855.15
2009/04/23 09:02:21.7     -88   -146    -50    171    178 211.0 -21.0  34080  288.23 0855.15
2009/04/23 09:02:21.8     -67   -105    -55    125    136 212.6 -29.6  34082  288.25 0855.15
2009/04/23 09:02:21.9     -73    -24    -78     78    110 251.4 -54.5  34082  288.25 0855.15
2009/04/23 09:02:22.0      18   -104     -9    106    107 170.2  -5.2  34082  288.25 0855.15
2009/04/23 09:02:22.1      25   -170    -54    172    180 171.5 -22.8  34084  288.30 0855.15
2009/04/23 09:02:22.2      78   -170    -10    188    189 155.3  -3.3  34080  288.23 0855.15
2009/04/23 09:02:22.3      98   -174     29    200    203 150.6   8.5  34082  288.25 0855.15
2009/04/23 09:02:22.4     107   -136     23    174    176 141.7   7.8  34084  288.30 0855.15
2009/04/23 09:02:22.5     103   -172     -7    201    202 149.0  -2.2  34082  288.26 0855.15
2009/04/23 09:02:22.6      46    -97    -19    108    110 154.7 -10.3  34082  288.26 0855.15
2009/04/23 09:02:22.7      76    -67     10    102    103 131.8   5.9  34084  288.28 0855.15
2009/04/23 09:02:22.8      46   -107     61    117    131 156.4  29.3  34082  288.26 0855.15
2009/04/23 09:02:22.9      19   -141     29    143    147 172.0  11.6  34082  288.26 0855.15
2009/04/23 09:02:23.0      72   -151     15    168    169 154.6   5.4  34084  288.28 0855.15
2009/04/23 09:02:23.1     119   -149     19    191    192 141.3   5.9  34080  288.23 0855.15
2009/04/23 09:02:23.2     116   -167     70    204    216 145.3  18.9  34084  288.28 0855.15
2009/04/23 09:02:23.3     107   -163    -35    196    200 146.6 -10.3  34086  288.33 0855.15
2009/04/23 09:02:23.4      60   -175    -57    186    194 161.1 -22.3  34082  288.26 0855.15
2009/04/23 09:02:23.5      28   -157    -74    160    176 169.8 -31.0  34084  288.28 0855.15
2009/04/23 09:02:23.6      20   -147    -87    149    172 172.0 -37.9  34084  288.28 0855.15
2009/04/23 09:02:23.7      29   -190    -63    193    204 171.3 -18.1  34084  288.28 0855.16
2009/04/23 09:02:23.8      74   -204    -35    218    221 160.0  -9.3  34080  288.23 0855.16
2009/04/23 09:02:23.9      55   -254     -5    261    262 167.7  -1.2  34084  288.29 0855.16
2009/04/23 09:02:24.0      51   -270    -15    275    276 169.1  -3.1  34080  288.21 0855.16
2009/04/23 09:02:24.1      98   -169     -7    196    197 149.7  -2.2  34082  288.25 0855.16
2009/04/23 09:02:24.2      11   -214     -4    215    216 176.9  -1.2  34082  288.26 0855.16
2009/04/23 09:02:24.3      24   -199    -48    201    207 173.1 -13.4  34082  288.26 0855.16
2009/04/23 09:02:24.4      75   -225    -72    238    248 161.5 -21.8  34086  288.31 0855.16
2009/04/23 09:02:24.5     106   -222    -68    247    257 154.4 -15.5  34082  288.24 0855.16
2009/04/23 09:02:24.6     110   -215    -31    242    244 152.8  -7.3  34082  288.26 0855.16
2009/04/23 09:02:24.7     108   -218    -21    244    246 153.7  -5.1  34084  288.27 0855.16
2009/04/23 09:02:24.8      74   -180    -40    195    200 157.7 -11.6  34080  288.23 0855.16
2009/04/23 09:02:24.9      46   -195    -40    201    206 166.6 -11.3  34082  288.25 0855.16
2009/04/23 09:02:25.0      46   -178    -53    184    192 165.5 -16.0  34080  288.23 0855.16
2009/04/23 09:02:25.1      41   -137    -40    144    150 163.1 -15.5  34082  288.25 0855.16
2009/04/23 09:02:25.2      47   -137    -26    146    149 160.8 -10.3  34084  288.30 0855.16
2009/04/23 09:02:25.3      51   -160     -6    169    170 162.2  -2.2  34082  288.25 0855.16
2009/04/23 09:02:25.4     100   -133      2    167    168 143.0   1.0  34082  288.25 0855.16
2009/04/23 09:02:25.5     106   -128     26    167    170 140.4   9.0  34080  288.23 0855.16
2009/04/23 09:02:25.6      90   -124     66    154    167 144.0  24.6  34082  288.25 0855.16
2009/04/23 09:02:25.7      91   -131     55    160    170 145.3  18.9  34082  288.25 0855.15
2009/04/23 09:02:25.8      51   -140     58    150    160 160.0  22.3  34082  288.25 0855.15
2009/04/23 09:02:25.9      12   -171     30    172    175 175.8   9.9  34080  288.23 0855.15
2009/04/23 09:02:26.0      16   -154     48    155    163 173.8  17.3  34078  288.18 0855.15
2009/04/23 09:02:26.1      34   -125     53    130    140 164.4  23.1  34080  288.21 0855.15
2009/04/23 09:02:26.2      44   -128     71    136    153 160.8  29.8  34080  288.21 0855.15
2009/04/23 09:02:26.3      28   -138     60    141    153 168.5  24.1  34080  288.23 0855.15
2009/04/23 09:02:26.5      22   -111     69    114    133 168.5  34.4  34082  288.25 0855.15
2009/04/23 09:02:26.6      15   -106     76    108    132 172.0  38.6  34084  288.28 0855.15
2009/04/23 09:02:26.6     -17   -118     56    120    132 188.5  27.1  34082  288.25 0855.15
2009/04/23 09:02:26.8     -33   -128     69    133    149 194.7  29.3  34082  288.25 0855.15
2009/04/23 09:02:26.9     -25   -124     76    127    148 191.6  33.5  34082  288.26 0855.15
2009/04/23 09:02:27.0     -26   -138     75    141    159 190.7  30.3  34084  288.28 0855.15
2009/04/23 09:02:27.1     -35   -134     87    139    163 194.7  35.2  34080  288.23 0855.15
2009/04/23 09:02:27.2     -24   -120     97    123    156 191.5  42.4  34082  288.26 0855.15
2009/04/23 09:02:27.3     -24   -131     81    134    156 190.7  34.4  34086  288.31 0855.15
2009/04/23 09:02:27.4     -12   -118     94    119    151 186.2  42.7  34082  288.26 0855.15
2009/04/23 09:02:27.5     -37   -119     91    125    154 197.4  39.7  34082  288.25 0855.15
2009/04/23 09:02:27.6     -23   -114     91    117    148 191.6  41.7  34084  288.28 0855.15
2009/04/23 09:02:27.7     -40   -108     62    116    131 200.5  30.3  34082  288.26 0855.15
2009/04/23 09:02:27.8     -48   -132     53    141    150 200.1  21.5  34082  288.26 0855.15
2009/04/23 09:02:27.9     -41   -140     44    147    154 196.5  16.8  34082  288.26 0855.15
2009/04/23 09:02:28.0     -27   -155     47    158    166 190.0  16.8  34086  288.31 0855.15
2009/04/23 09:02:28.1     -49   -150     29    158    161 198.3  10.6  34082  288.26 0855.15
2009/04/23 09:02:28.2     -52   -157     21    166    168 198.5   7.5  34082  288.26 0855.15
2009/04/23 09:02:28.3     -46   -141     18    149    151 198.3   7.1  34084  288.28 0855.15
2009/04/23 09:02:28.4     -11   -144     28    145    148 184.4  11.1  34084  288.30 0855.15
2009/04/23 09:02:28.5      24   -178     17    180    181 172.2   5.4  34084  288.30 0855.15
2009/04/23 09:02:28.6      14   -157     40    158    164 174.7  14.3  34084  288.30 0855.15
2009/04/23 09:02:28.7      11   -178     26    179    182 176.4   8.5  34082  288.26 0855.15
2009/04/23 09:02:28.8       6   -195      0    196    197 178.0   0.0  34084  288.30 0855.15
2009/04/23 09:02:28.9       6   -163     29    164    167 177.8  10.1  34086  288.31 0855.15
2009/04/23 09:02:29.0      36   -151     11    156    157 166.6   4.2  34082  288.25 0855.15
2009/04/23 09:02:29.1      35   -128     -4    133    134 164.4  -1.8  34084  288.30 0855.15
2009/04/23 09:02:29.2      16    -91     -6     93     94 169.8  -4.1  34080  288.23 0855.15
2009/04/23 09:02:29.3      32    -39     10     51     53 140.4  11.1  34084  288.30 0855.15
2009/04/23 09:02:29.4      40    -20     34     45     56 117.1  40.7  34084  288.30 0855.15
2009/04/23 09:02:29.5      59    -59     63     84    105 135.0  40.1  34084  288.28 0855.15
2009/04/23 09:02:29.6      82    -69     63    108    125 130.0  33.4  34084  288.28 0855.15
2009/04/23 09:02:29.7      40    -95     51    104    115 157.3  27.3  34084  288.30 0855.15
2009/04/23 09:02:29.8      12    -86     60     87    105 172.0  37.6  34084  288.30 0855.15
2009/04/23 09:02:29.9       0    -89     62     90    109 179.5  38.0  34084  288.28 0855.15
2009/04/23 09:02:30.0     -10    -86     63     87    107 186.7  39.7  34084  288.30 0855.15
2009/04/23 09:02:30.1     -17    -81     43     83     93 192.0  29.3  34084  288.30 0855.15
2009/04/23 09:02:30.2     -18    -75     78     78    110 193.4  50.1  34084  288.28 0855.15
2009/04/23 09:02:30.3     -28    -85     82     90    121 198.3  47.5  34086  288.31 0855.15
2009/04/23 09:02:30.4     -27    -87     93     92    130 197.4  50.1  34086  288.31 0855.15
2009/04/23 09:02:30.5     -35   -106     57    112    125 198.7  29.2  34086  288.31 0855.15
2009/04/23 09:02:30.6     -14    -91     50     93    105 188.9  30.8  34084  288.30 0855.15
2009/04/23 09:02:30.7     -27    -79     47     84     96 199.2  31.9  34084  288.30 0855.15
2009/04/23 09:02:30.8     -13    -94     81     95    124 188.0  45.4  34086  288.33 0855.15
2009/04/23 09:02:30.9      -3   -123     90    124    153 181.4  39.7  34084  288.30 0855.15
2009/04/23 09:02:31.0     -36   -123    134    129    186 196.5  51.2  34082  288.26 0855.15
2009/04/23 09:02:31.1     -14    -94    135     96    165 188.9  61.3  34086  288.33 0855.15
2009/04/23 09:02:31.2      -3    -80    104     81    131 182.7  58.4  34086  288.31 0855.15
2009/04/23 09:02:31.3      -7    -94     69     95    117 184.5  39.7  34084  288.30 0855.15
2009/04/23 09:02:31.4     -39   -129     81    135    157 197.0  34.0  34084  288.28 0855.15
2009/04/23 09:02:31.5     -43   -142     74    149    166 196.9  28.0  34082  288.25 0855.15
2009/04/23 09:02:31.6     -45   -135     41    143    149 198.5  16.3  34084  288.28 0855.15
2009/04/23 09:02:31.7     -40   -141      3    147    148 196.0   1.2  34082  288.26 0855.15
2009/04/23 09:02:31.8     -33   -141      9    145    146 193.3   3.8  34082  288.26 0855.15
2009/04/23 09:02:31.9     -29   -167     89    170    191 190.0  29.8  34080  288.21 0855.15
2009/04/23 09:02:32.0      -9   -166     21    167    169 183.1   7.2  34080  288.23 0855.15
2009/04/23 09:02:32.1     -21   -150     27    152    155 188.0  10.1  34078  288.20 0855.15
2009/04/23 09:02:32.2     -51   -153     97    162    188 198.7  34.0  34084  288.28 0855.15
2009/04/23 09:02:32.3     -98   -144     31    175    178 214.1  10.3  34082  288.25 0855.15
2009/04/23 09:02:32.4     -46    -80     13     93     94 209.9   8.0  34080  288.21 0855.15
2009/04/23 09:02:32.5     -52      4    107     53    119 275.2  71.4  34084  288.28 0855.15
2009/04/23 09:02:32.6     -18    -39     73     44     85 205.4  65.7  34084  288.30 0855.15
2009/04/23 09:02:32.7      -9    -49    101     50    112 190.7  72.8  34082  288.26 0855.15
2009/04/23 09:02:32.8       5    -77    117     78    140 175.6  63.2  34082  288.26 0855.15
2009/04/23 09:02:32.9     -17    -99    110    101    149 190.2  52.2  34082  288.26 0855.15
2009/04/23 09:02:33.0      -2    -74     71     75    103 181.8  48.5  34082  288.25 0855.15
2009/04/23 09:02:33.1      45    -60    105     76    129 143.0  60.5  34082  288.26 0855.15
2009/04/23 09:02:33.2     -36   -109    102    115    153 198.3  46.4  34084  288.28 0855.15
2009/04/23 09:02:33.3     -40   -112     87    120    148 200.0  39.7  34082  288.25 0855.15
2009/04/23 09:02:33.4     -43   -120     85    128    153 200.0  36.0  34084  288.28 0855.15
2009/04/23 09:02:33.5     -67   -121     49    139    148 208.9  19.4  34082  288.25 0855.15
2009/04/23 09:02:33.6     -51   -118     69    129    146 203.6  30.8  34084  288.28 0855.15
2009/04/23 09:02:33.7     -16    -98     57    100    115 189.8  32.4  34084  288.28 0855.15
2009/04/23 09:02:33.8     -29   -143    100    146    176 191.5  37.8  34084  288.30 0855.15
2009/04/23 09:02:33.9     -54   -166     38    175    180 198.0  12.4  34084  288.28 0855.15
2009/04/23 09:02:34.0     -54   -149     30    159    162 200.0  10.8  34082  288.25 0855.15
2009/04/23 09:02:34.1     -22   -171     67    173    185 187.6  22.3  34082  288.26 0855.15
2009/04/23 09:02:34.2     -25   -181     48    183    190 188.1  14.7  34084  288.30 0855.15
2009/04/23 09:02:34.3     -36   -154     59    159    169 193.4  21.0  34086  288.31 0855.15
2009/04/23 09:02:34.4     -46   -136     70    144    160 198.7  28.0  34082  288.25 0855.15
2009/04/23 09:02:34.5     -58   -145     54    157    167 201.8  19.2  34084  288.30 0855.15
2009/04/23 09:02:34.6     -70   -165     22    180    182 203.2   7.2  34082  288.26 0855.15
2009/04/23 09:02:34.7     -50   -173     19    181    183 196.3   6.1  34082  288.25 0855.15
2009/04/23 09:02:34.8     -68   -166    -27    180    183 202.5  -8.6  34080  288.21 0855.15
2009/04/23 09:02:34.9    -114   -118    -69    165    178 224.1 -28.2  34078  288.20 0855.15
2009/04/23 09:02:35.0    -139    -70    -41    156    162 243.0 -14.7  34082  288.26 0855.15
2009/04/23 09:02:35.1    -223    -81    -48    238    244 250.0 -11.6  34082  288.26 0855.15
2009/04/23 09:02:35.2    -236    -71    -78    247    260 253.2 -17.5  34078  288.19 0855.15
2009/04/23 09:02:35.3    -258    -43    -82    262    274 260.4 -22.3  34078  288.19 0855.15
2009/04/23 09:02:35.4    -218    -22    -96    220    240 264.1 -29.5  34078  288.17 0855.15
2009/04/23 09:02:35.5     -94    -48    -86    106    136 242.9 -48.1  34078  288.18 0855.15
2009/04/23 09:02:35.6      -8    -44    -36     45     57 190.7 -48.1  34078  288.20 0855.15
2009/04/23 09:02:35.7      16    -35     -1     39     40 154.5  -2.2  34078  288.20 0855.15
2009/04/23 09:02:35.8      22     -5     59     23     63 103.3  78.2  34078  288.20 0855.16
2009/04/23 09:02:35.9      32     21     65     39     75  55.8  64.7  34078  288.20 0855.16
2009/04/23 09:02:36.0      32     20     47     38     60  57.6  56.4  34078  288.20 0855.16
2009/04/23 09:02:36.1     -13    -28     34     32     46 205.3  50.1  34080  288.23 0855.16
2009/04/23 09:02:36.2     -49    -69     23     85     89 215.2  15.3  34080  288.21 0855.16
2009/04/23 09:02:36.3     -59    -71      4     93     94 219.7   2.9  34078  288.20 0855.16
2009/04/23 09:02:36.4     -74   -131     -5    151    152 209.4  -2.2  34080  288.21 0855.16
2009/04/23 09:02:36.5     -12   -153    -21    154    156 184.5  -8.0  34078  288.18 0855.16
2009/04/23 09:02:36.6       6   -133      1    134    135 177.4   0.8  34076  288.14 0855.16
2009/04/23 09:02:36.7     -42   -126    -18    134    136 198.7  -7.7  34076  288.16 0855.16
2009/04/23 09:02:36.8     -30   -127      6    131    132 193.4   2.9  34078  288.20 0855.16
2009/04/23 09:02:36.9     -21   -106      6    109    110 191.6   3.3  34078  288.20 0855.16
2009/04/23 09:02:37.0      25   -104    -13    108    109 166.2  -7.3  34078  288.20 0855.16
2009/04/23 09:02:37.1      73    -51     -2     90     91 125.1  -1.8  34078  288.20 0855.16
2009/04/23 09:02:37.2      95    -45     40    106    113 115.4  21.5  34080  288.21 0855.16
2009/04/23 09:02:37.3      85    -57     58    103    118 123.7  31.4  34080  288.23 0855.16
2009/04/23 09:02:37.4      82   -119    -13    145    146 145.3  -5.2  34080  288.21 0855.16
2009/04/23 09:02:37.5      90   -126    -49    156    163 144.4 -22.5  34076  288.16 0855.16
2009/04/23 09:02:37.6      92   -127    -68    158    172 144.0 -29.3  34078  288.20 0855.16
2009/04/23 09:02:37.7      48   -127    -40    137    143 159.1 -16.6  34076  288.16 0855.16
2009/04/23 09:02:37.8      51   -128    -45    138    145 158.2 -23.8  34076  288.16 0855.16
2009/04/23 09:02:37.9      33   -139    -30    143    147 166.6 -11.9  34076  288.14 0855.16
2009/04/23 09:02:38.0      34   -125      2    130    131 164.4   1.2  34078  288.20 0855.16
2009/04/23 09:02:38.1      62   -130     12    145    146 154.5   4.9  34078  288.18 0855.16
2009/04/23 09:02:38.2      79   -127     29    150    153 147.9  11.1  34078  288.20 0855.16
2009/04/23 09:02:38.3      98   -118     42    154    160 140.3  15.6  34078  288.18 0855.16
2009/04/23 09:02:38.4      81   -137     67    160    173 149.2  23.8  34076  288.16 0855.16
2009/04/23 09:02:38.5     105   -131    105    168    198 141.3  35.0  34080  288.21 0855.16
2009/04/23 09:02:38.6     108   -143      9    180    181 142.8   2.9  34080  288.23 0855.16
2009/04/23 09:02:38.7      80   -173     19    191    192 155.1   5.7  34080  288.21 0855.16
2009/04/23 09:02:38.8      79   -223     57    237    244 160.4  13.5  34080  288.21 0855.16
2009/04/23 09:02:38.9      65   -240      7    249    250 164.9   1.7  34076  288.15 0855.16
2009/04/23 09:02:39.0      58   -241     -4    248    249 166.4  -1.1  34078  288.17 0855.16
2009/04/23 09:02:39.1      75   -259    -10    270    271 163.7  -2.2  34080  288.21 0855.16
2009/04/23 09:02:39.2      74   -243    -20    255    256 163.1  -4.6  34076  288.14 0855.16
2009/04/23 09:02:39.3      70   -242     -9    252    253 163.9  -2.2  34078  288.19 0855.16
2009/04/23 09:02:39.4      60   -224     -4    233    234 164.9  -1.2  34078  288.19 0855.16
2009/04/23 09:02:39.5      96   -174    -24    199    201 151.0  -6.9  34076  288.16 0855.16
2009/04/23 09:02:39.6      62   -193    -57    203    210 162.0 -20.4  34080  288.23 0855.16
2009/04/23 09:02:39.7      73   -201    -63    215    224 159.9 -21.5  34076  288.16 0855.16
2009/04/23 09:02:39.8      56   -163    -57    173    183 161.1 -18.3  34080  288.21 0855.15
2009/04/23 09:02:39.9      21   -156    -47    158    164 172.0 -21.7  34080  288.21 0855.15
2009/04/23 09:02:40.0     -12   -160    -39    161    166 184.5 -13.9  34078  288.18 0855.15
2009/04/23 09:02:40.1      21   -160    -53    162    171 172.4 -18.1  34078  288.20 0855.15
2009/04/23 09:02:40.2      27   -168    -47    171    177 170.7 -20.0  34082  288.25 0855.15
2009/04/23 09:02:40.3     -10   -160    -39    161    166 183.8 -13.7  34080  288.21 0855.15
2009/04/23 09:02:40.4     -40   -161      2    166    167 194.0   0.8  34080  288.21 0855.15
2009/04/23 09:02:40.5     -28   -180     -8    183    184 189.1  -2.6  34078  288.18 0855.15
2009/04/23 09:02:40.6      -3   -204     32    205    208 181.0   9.0  34076  288.16 0855.15
2009/04/23 09:02:40.7     -13   -186     23    187    189 184.0   7.2  34074  288.13 0855.15
2009/04/23 09:02:40.8     -56   -165    -48    175    182 198.7 -15.4  34080  288.23 0855.15
2009/04/23 09:02:40.9     -47   -198    -13    204    205 193.4  -3.7  34076  288.14 0855.15
2009/04/23 09:02:41.0     -23   -203     -5    205    206 186.5  -1.6  34076  288.16 0855.15
2009/04/23 09:02:41.1     -17   -229    -12    230    231 184.5  -3.1  34078  288.18 0855.15
2009/04/23 09:02:41.2     -36   -206    -26    210    212 190.0  -7.2  34076  288.14 0855.15
2009/04/23 09:02:41.3     -77   -216    -26    230    232 199.8  -6.5  34074  288.11 0855.15
2009/04/23 09:02:41.4    -138   -204    -21    247    248 214.1  -4.9  34072  288.09 0855.15
2009/04/23 09:02:41.5    -193   -218    -11    292    293 221.4  -2.2  34076  288.14 0855.15
2009/04/23 09:02:41.6    -165   -258     -6    307    308 212.6  -1.2  34076  288.15 0855.15
2009/04/23 09:02:41.7    -139   -261      5    297    298 208.1   1.0  34076  288.14 0855.15
2009/04/23 09:02:41.8     -95   -250     13    268    269 201.0   2.8  34074  288.12 0855.15
2009/04/23 09:02:41.9     -98   -239     -8    259    260 202.3  -1.8  34076  288.15 0855.15
2009/04/23 09:02:42.0     -41   -241    -30    245    247 189.7  -7.2  34074  288.12 0855.15
2009/04/23 09:02:42.1     -94   -278    -11    294    295 198.7  -2.2  34076  288.14 0855.15
2009/04/23 09:02:42.2    -117   -283     15    307    308 202.5   2.9  34076  288.14 0855.15
2009/04/23 09:02:42.3    -121   -260      3    287    288 204.9   0.7  34074  288.12 0855.15
2009/04/23 09:02:42.4     -39   -224     29    228    230 190.0   7.5  34074  288.11 0855.15
2009/04/23 09:02:42.5      10   -225     57    226    234 177.4  14.3  34074  288.11 0855.15
2009/04/23 09:02:42.6       4   -185     52    186    194 178.6  15.8  34074  288.11 0855.15
2009/04/23 09:02:42.7     -37   -220     17    224    225 189.7   4.4  34074  288.11 0855.15
2009/04/23 09:02:42.8      -8   -190     65    191    202 182.7  18.9  34074  288.13 0855.14
2009/04/23 09:02:42.9     -58   -244     45    251    256 193.4  10.3  34076  288.14 0855.14
2009/04/23 09:02:43.0     -75   -227     31    240    243 198.3   7.5  34078  288.17 0855.14
2009/04/23 09:02:43.1     -84   -214     20    231    232 201.6   5.2  34076  288.16 0855.14
2009/04/23 09:02:43.2     -70   -196     65    209    219 199.6  17.3  34072  288.09 0855.14
2009/04/23 09:02:43.3    -125   -183    101    222    243 214.3  26.2  34076  288.14 0855.14
2009/04/23 09:02:43.4    -125   -132     63    182    193 223.4  19.2  34074  288.13 0855.14
2009/04/23 09:02:43.5     -95   -124     65    157    169 217.4  23.8  34074  288.13 0855.14
2009/04/23 09:02:43.6    -110   -131     60    172    183 220.1  19.2  34072  288.09 0855.14
2009/04/23 09:02:43.7    -138   -113     65    179    190 230.5  20.4  34072  288.08 0855.14
2009/04/23 09:02:43.8    -118   -115     81    165    183 225.8  28.0  34074  288.11 0855.14
2009/04/23 09:02:43.9    -144   -108     31    181    184 233.1   9.9  34072  288.09 0855.14
2009/04/23 09:02:44.0    -126    -98     39    160    165 232.2  13.7  34076  288.16 0855.14
2009/04/23 09:02:44.1    -122    -80     28    147    150 236.7  11.1  34072  288.09 0855.14
2009/04/23 09:02:44.2     -90   -106     36    140    145 220.5  14.7  34074  288.13 0855.14
2009/04/23 09:02:44.3     -78   -101     28    128    132 217.8  12.6  34074  288.11 0855.14
2009/04/23 09:02:44.4     -97   -110     49    148    157 221.4  18.4  34076  288.14 0855.14
2009/04/23 09:02:44.5     -89   -127     56    156    165 215.2  20.2  34072  288.09 0855.14
2009/04/23 09:02:44.6     -98   -127     61    161    172 217.8  21.5  34072  288.09 0855.14
2009/04/23 09:02:44.7    -108   -146     33    182    186 216.5  10.3  34072  288.09 0855.14
2009/04/23 09:02:44.8    -120   -152     60    194    204 218.3  17.3  34072  288.09 0855.14
2009/04/23 09:02:44.9    -118   -150     47    192    198 218.3  13.9  34074  288.13 0855.14
2009/04/23 09:02:45.0     -73   -101     26    125    128 216.0  12.2  34072  288.08 0855.14
2009/04/23 09:02:45.1     -67    -38     81     78    112 240.2  51.2  34074  288.11 0855.14
2009/04/23 09:02:45.2     -68   -109     77    129    150 212.1  33.5  34070  288.04 0855.14
2009/04/23 09:02:45.3     -21   -100     80    103    130 192.0  41.7  34072  288.08 0855.14
2009/04/23 09:02:45.4     -16   -189     90    190    210 184.9  27.2  34072  288.09 0855.14
2009/04/23 09:02:45.5     -30   -236    110    238    262 187.3  26.4  34074  288.10 0855.14
2009/04/23 09:02:45.6     -36   -214     79    218    231 189.7  20.7  34072  288.08 0855.14
2009/04/23 09:02:45.7      31   -242     65    244    253 172.7  15.0  34072  288.09 0855.14
2009/04/23 09:02:45.8       9   -209     98    210    231 177.4  27.1  34074  288.11 0855.14
2009/04/23 09:02:45.9     -10   -227    131    228    262 182.7  32.4  34072  288.09 0855.14
2009/04/23 09:02:46.0       0   -214    127    215    249 180.2  33.5  34074  288.10 0855.14
2009/04/23 09:02:46.1      15   -256    154    257    299 176.6  33.5  34072  288.09 0855.14
2009/04/23 09:02:46.2       8   -273    112    274    296 178.2  23.4  34070  288.05 0855.14
2009/04/23 09:02:46.3      -3   -206    153    207    257 180.9  40.1  34070  288.04 0855.14
2009/04/23 09:02:46.4      -3   -150    164    151    222 181.4  52.2  34076  288.14 0855.14
2009/04/23 09:02:46.5      32   -170    174    174    246 169.3  50.1  34074  288.13 0855.14
2009/04/23 09:02:46.6      60   -189    179    199    267 162.2  46.9  34076  288.14 0855.14
2009/04/23 09:02:46.7      58   -236    115    244    269 166.2  27.1  34074  288.10 0855.14
2009/04/23 09:02:46.8      85   -233     95    249    266 160.0  22.0  34076  288.14 0855.14
2009/04/23 09:02:46.9      83   -235     74    250    261 160.6  16.6  34074  288.10 0855.14
2009/04/23 09:02:47.0     121   -236     86    266    280 152.8  17.9  34074  288.10 0855.14
2009/04/23 09:02:47.1      99   -208     26    231    233 154.4   6.5  34074  288.13 0855.14
2009/04/23 09:02:47.2     101   -201     24    226    228 153.3   6.1  34074  288.13 0855.14
2009/04/23 09:02:47.3      91   -226      5    244    245 158.1   1.2  34074  288.12 0855.14
2009/04/23 09:02:47.4      44   -179     -7    185    186 166.2  -2.2  34074  288.13 0855.14
2009/04/23 09:02:47.5      76   -162    -19    180    182 154.8  -6.2  34074  288.11 0855.14
2009/04/23 09:02:47.6      74   -221    -34    234    237 161.5  -8.3  34074  288.10 0855.14
2009/04/23 09:02:47.7     124   -181      3    220    221 145.5   1.0  34074  288.13 0855.14
2009/04/23 09:02:47.8     145   -157     24    214    216 137.2   6.5  34074  288.13 0855.14
2009/04/23 09:02:47.9     106   -184     10    213    214 150.1   2.8  34076  288.16 0855.14
2009/04/23 09:02:48.0     107   -166    -10    198    199 147.0  -3.1  34072  288.09 0855.14
2009/04/23 09:02:48.1     105   -167     38    198    202 147.7  11.1  34074  288.13 0855.14
2009/04/23 09:02:48.2      85   -146     32    170    174 149.7  10.8  34076  288.14 0855.14
2009/04/23 09:02:48.3      48   -221    -22    227    229 167.7  -5.6  34072  288.09 0855.14
2009/04/23 09:02:48.4      22   -208     25    210    212 173.8   6.9  34070  288.06 0855.14
2009/04/23 09:02:48.5      93   -244     78    262    274 159.1  16.6  34074  288.10 0855.14
2009/04/23 09:02:48.6     129   -212    107    249    271 148.6  24.9  34074  288.12 0855.14
2009/04/23 09:02:48.7     113   -189    122    221    252 149.2  31.4  34076  288.14 0855.14
2009/04/23 09:02:48.8     111   -154     85    191    209 144.2  25.7  34074  288.11 0855.14
2009/04/23 09:02:48.9      71   -171    134    186    229 157.5  39.5  34076  288.14 0855.14
2009/04/23 09:02:49.0      79   -146     87    167    188 151.5  29.8  34076  288.14 0855.14
2009/04/23 09:02:49.1      67   -154     62    169    180 156.4  20.7  34076  288.14 0855.14
2009/04/23 09:02:49.2      52   -203     70    210    222 165.5  18.6  34076  288.14 0855.14
2009/04/23 09:02:49.3      16   -261    151    262    302 176.4  32.4  34078  288.17 0855.14
2009/04/23 09:02:49.4     -82   -249     93    263    278 198.3  20.2  34078  288.19 0855.14
2009/04/23 09:02:49.5     -51   -229     55    235    242 192.7  13.2  34080  288.21 0855.14
2009/04/23 09:02:49.6     -73   -217     40    230    234 198.7   9.9  34074  288.13 0855.14
2009/04/23 09:02:49.7     -89   -215     57    233    241 202.5  13.9  34076  288.15 0855.14
2009/04/23 09:02:49.8     -36   -172     15    176    177 192.0   4.9  34074  288.11 0855.14
2009/04/23 09:02:49.9      -9   -128     35    129    134 184.0  15.3  34074  288.13 0855.14
2009/04/23 09:02:50.0      18   -187     87    188    207 174.4  26.6  34078  288.20 0855.14
2009/04/23 09:02:50.1      18   -185     86    186    204 174.4  27.0  34078  288.18 0855.14
2009/04/23 09:02:50.2     -14   -182    134    183    226 184.5  39.7  34080  288.23 0855.14
2009/04/23 09:02:50.3      68   -144     87    160    182 154.5  31.0  34080  288.23 0855.14
2009/04/23 09:02:50.4      51   -111    102    123    159 155.5  44.1  34076  288.16 0855.14
2009/04/23 09:02:50.5      67   -121     87    139    163 151.1  35.2  34076  288.14 0855.14
2009/04/23 09:02:50.6      42   -116     56    124    136 159.9  26.2  34076  288.14 0855.14
2009/04/23 09:02:50.7      26   -111     34    115    121 166.6  16.8  34076  288.14 0855.14
2009/04/23 09:02:50.8      13   -125     24    126    129 173.8  11.0  34076  288.14 0855.14
2009/04/23 09:02:50.9       0   -116     11    117    118 180.0   5.4  34076  288.16 0855.14
2009/04/23 09:02:51.0     -22   -109     14    112    113 191.5   7.5  34076  288.16 0855.14
2009/04/23 09:02:51.1     -36   -118     14    124    125 197.0   6.9  34076  288.16 0855.14
2009/04/23 09:02:51.2     -66   -113      6    132    133 210.3   2.8  34076  288.16 0855.14
2009/04/23 09:02:51.3     -78   -111      0    136    137 215.2  -0.3  34076  288.16 0855.14
2009/04/23 09:02:51.4     -53   -134     24    145    148 201.9   9.5  34076  288.16 0855.14
2009/04/23 09:02:51.5     -52   -119     -2    130    131 203.7  -1.3  34078  288.18 0855.14
2009/04/23 09:02:51.6     -47    -65    -22     81     83 216.1 -20.2  34076  288.14 0855.14
2009/04/23 09:02:51.7     -21    -40    -31     46     55 207.2 -40.0  34076  288.14 0855.14
2009/04/23 09:02:51.8     -48    -24      0     54     55 242.9  -0.3  34082  288.25 0855.14
2009/04/23 09:02:51.9     -51    -76     28     92     97 213.8  17.3  34078  288.20 0855.14
2009/04/23 09:02:52.0     -36    -98     33    105    111 200.5  17.3  34076  288.14 0855.14
2009/04/23 09:02:52.1     -32   -122     34    127    132 194.7  15.3  34078  288.18 0855.14
2009/04/23 09:02:52.2      -4   -142      8    143    144 181.8   3.3  34080  288.23 0855.14
2009/04/23 09:02:52.3       8   -157    -11    158    159 176.9  -4.1  34080  288.21 0855.14
2009/04/23 09:02:52.4      20   -166     25    168    170 172.9   8.5  34080  288.21 0855.14
2009/04/23 09:02:52.5       1   -190     53    191    199 179.5  15.6  34074  288.13 0855.14
2009/04/23 09:02:52.6     -58   -187     16    196    197 197.4   4.9  34076  288.16 0855.14
2009/04/23 09:02:52.7     -39   -193    -67    197    209 191.5 -18.9  34078  288.20 0855.14
2009/04/23 09:02:52.8      -8   -209    -64    210    220 182.2 -17.0  34078  288.18 0855.15
2009/04/23 09:02:52.9       5   -217    -78    218    232 178.6 -19.7  34078  288.18 0855.15
2009/04/23 09:02:53.0      35   -247    -69    250    260 171.8 -15.4  34080  288.21 0855.15
2009/04/23 09:02:53.1      43   -214    -71    219    231 168.4 -18.1  34078  288.20 0855.15
2009/04/23 09:02:53.2      -9   -183    -65    184    196 182.9 -19.4  34080  288.21 0855.15
2009/04/23 09:02:53.3      27   -176    -58    179    189 171.1 -18.1  34082  288.25 0855.15
2009/04/23 09:02:53.4      44   -216    -18    221    222 168.4  -4.9  34076  288.16 0855.15
2009/04/23 09:02:53.5      -7   -239    -17    240    241 181.8  -4.1  34080  288.21 0855.15
2009/04/23 09:02:53.7      21   -276    -29    277    279 175.5  -6.1  34082  288.24 0855.15
2009/04/23 09:02:53.8      70   -301    -34    310    312 166.9  -6.3  34082  288.26 0855.15
2009/04/23 09:02:53.8      91   -328    -43    341    344 164.5  -7.3  34084  288.28 0855.15
2009/04/23 09:02:54.0      77   -355    -14    364    365 167.7  -2.2  34084  288.27 0855.15
2009/04/23 09:02:54.1      56   -342     10    347    348 170.7   1.8  34082  288.25 0855.15
2009/04/23 09:02:54.2      60   -334    -16    340    341 169.7  -2.8  34082  288.25 0855.15
2009/04/23 09:02:54.3      18   -280    -48    281    286 176.2  -9.8  34082  288.26 0855.15
2009/04/23 09:02:54.4      16   -255    -60    256    264 176.4 -13.3  34082  288.24 0855.15
2009/04/23 09:02:54.5      60   -335    -63    341    347 169.8 -10.5  34080  288.22 0855.15
2009/04/23 09:02:54.6      52   -331    -83    336    347 171.0 -13.9  34082  288.25 0855.15
2009/04/23 09:02:54.7      81   -350   -106    360    376 166.9 -16.5  34082  288.25 0855.15
2009/04/23 09:02:54.8      74   -352    -73    360    368 168.0 -11.5  34084  288.27 0855.15
2009/04/23 09:02:54.9      51   -363    -56    367    372 172.0  -8.8  34084  288.27 0855.14
2009/04/23 09:02:55.0      35   -355    -18    357    358 174.3  -3.0  34086  288.32 0855.14
2009/04/23 09:02:55.1      24   -224    -71    226    238 173.8 -17.5  34088  288.34 0855.14
2009/04/23 09:02:55.2       0   -294    -88    295    308 180.0 -16.6  34092  288.43 0855.14
2009/04/23 09:02:55.3      54   -270    -77    276    286 168.5 -20.2  34090  288.39 0855.14
2009/04/23 09:02:55.4     104   -287    -60    306    312 160.0 -11.2  34092  288.41 0855.14
2009/04/23 09:02:55.5     100   -262      4    281    282 159.1   1.0  34090  288.37 0855.14
2009/04/23 09:02:55.6      72   -214     15    226    227 161.3   3.8  34088  288.35 0855.14
2009/04/23 09:02:55.7      90   -270     55    285    291 161.5  11.0  34090  288.39 0855.14
2009/04/23 09:02:55.8     148   -374    -48    403    406 158.4  -6.8  34088  288.36 0855.14
2009/04/23 09:02:55.9      13   -341      8    342    343 177.8   1.5  34090  288.38 0855.14
2009/04/23 09:02:56.0    -122   -449     26    466    467 195.2   3.2  34084  288.29 0855.14
2009/04/23 09:02:56.1     -50   -435      6    438    439 186.6   0.8  34086  288.33 0855.14
2009/04/23 09:02:56.2     -43   -368     -3    371    372 186.7  -0.6  34086  288.32 0855.14
2009/04/23 09:02:56.3     -35   -340    -43    342    345 186.0  -7.2  34090  288.40 0855.14
2009/04/23 09:02:56.4     -70   -357    -70    364    371 191.1 -11.0  34090  288.40 0855.14
2009/04/23 09:02:56.5      29   -312    -56    314    320 174.7 -10.2  34092  288.43 0855.14
2009/04/23 09:02:56.6     -21   -354    -31    355    357 183.4  -5.1  34086  288.33 0855.14
2009/04/23 09:02:56.7    -147   -406    -39    432    434 200.0  -5.2  34090  288.39 0855.14
2009/04/23 09:02:56.8    -145   -406    -24    432    433 199.7  -3.2  34094  288.45 0855.14
2009/04/23 09:02:56.9    -202   -368     -4    420    421 208.8  -0.6  34086  288.31 0855.15
2009/04/23 09:02:57.0    -155   -405     -3    434    435 201.0  -0.5  34088  288.36 0855.15
2009/04/23 09:02:57.1    -161   -387    -16    420    421 202.6  -2.2  34092  288.41 0855.15
2009/04/23 09:02:57.2    -156   -371    -36    403    405 202.8  -5.2  34092  288.43 0855.15
2009/04/23 09:02:57.3    -161   -349      3    385    386 204.7   0.5  34092  288.42 0855.15
2009/04/23 09:02:57.4    -114   -340    -23    359    360 198.6  -3.7  34094  288.44 0855.15
2009/04/23 09:02:57.5    -102   -314    -10    331    332 198.1  -1.9  34094  288.44 0855.15
2009/04/23 09:02:57.6     -83   -282    -16    295    296 196.5  -3.2  34092  288.41 0855.15
2009/04/23 09:02:57.7     -59   -319      4    325    326 190.6   0.8  34092  288.43 0855.15
2009/04/23 09:02:57.8     -51   -302     -1    307    308 189.7  -0.3  34092  288.43 0855.15
2009/04/23 09:02:57.9     -57   -288     25    294    296 191.3   4.9  34094  288.44 0855.15
2009/04/23 09:02:58.0     -52   -258     13    264    265 191.5   2.9  34094  288.44 0855.15
2009/04/23 09:02:58.1       4   -269     49    270    275 179.1  10.3  34094  288.44 0855.15
2009/04/23 09:02:58.2     -23   -273     13    275    276 184.9   2.9  34094  288.44 0855.15
2009/04/23 09:02:58.3     -30   -281     24    283    285 186.3   4.9  34094  288.44 0855.15
2009/04/23 09:02:58.4     -61   -288      8    295    296 192.0   1.6  34092  288.43 0855.15
2009/04/23 09:02:58.5     -42   -301     -6    305    306 188.0  -1.2  34092  288.43 0855.15
2009/04/23 09:02:58.6     -51   -302     -1    307    308 189.7  -0.3  34092  288.41 0855.15
2009/04/23 09:02:58.7     -10   -278     13    279    280 182.2   2.8  34092  288.41 0855.15
2009/04/23 09:02:58.8     -80   -270     32    282    284 196.5   6.5  34094  288.44 0855.15
2009/04/23 09:02:58.9     -25   -275     13    277    278 185.3   2.8  34092  288.41 0855.16
2009/04/23 09:02:59.0     -93   -273     14    289    290 198.9   2.9  34094  288.44 0855.16
2009/04/23 09:02:59.1     -53   -277     58    283    290 190.9  11.6  34090  288.39 0855.16
2009/04/23 09:02:59.2    -181   -212      3    280    281 220.5   0.7  34086  288.31 0855.16
2009/04/23 09:02:59.3    -163   -178     -9    242    243 222.5  -2.3  34090  288.37 0855.16
2009/04/23 09:02:59.4     -80   -200    -50    216    222 201.9 -13.2  34094  288.45 0855.16
2009/04/23 09:02:59.5     -50   -181    -28    188    191 195.6  -8.6  34090  288.40 0855.16
2009/04/23 09:02:59.6     -48   -185    -12    192    193 194.5  -3.7  34094  288.45 0855.16
2009/04/23 09:02:59.7     -46   -228    -16    233    234 191.6  -4.1  34094  288.46 0855.16
2009/04/23 09:02:59.8     -12   -220    -44    221    226 183.1 -11.5  34092  288.43 0855.16
2009/04/23 09:02:59.9     -47   -235    -47    240    245 191.5 -11.1  34092  288.41 0855.16
2009/04/23 09:03:00.0     -25   -246    -45    248    253 186.0 -10.3  34092  288.41 0855.16
2009/04/23 09:03:00.1       0   -242    -31    243    245 180.0  -7.3  34092  288.43 0855.16
2009/04/23 09:03:00.2       0   -208    -35    209    212 180.0  -9.6  34086  288.33 0855.16
2009/04/23 09:03:00.3     -72   -172    -57    187    196 202.9 -17.0  34088  288.35 0855.16
2009/04/23 09:03:00.4     -41   -173    -44    178    184 193.6 -13.9  34090  288.40 0855.16
2009/04/23 09:03:00.5     -40   -192    -47    197    203 191.8 -13.4  34090  288.40 0855.16
2009/04/23 09:03:00.6     -52   -175    -69    183    195 196.7 -26.1  34090  288.40 0855.16
2009/04/23 09:03:00.7     -25   -169    -85    171    190 188.5 -32.6  34090  288.38 0855.16
2009/04/23 09:03:00.8     -36   -173    -58    177    187 192.0 -18.1  34086  288.31 0855.16
2009/04/23 09:03:00.9     -32   -195    -28    198    201 189.3  -8.2  34088  288.35 0855.16
2009/04/23 09:03:01.0      16   -209    -16    210    211 175.6  -4.4  34088  288.36 0855.16
2009/04/23 09:03:01.1      75   -204     -4    218    219 159.7  -1.2  34088  288.35 0855.16
2009/04/23 09:03:01.2      21   -151    -50    153    160 172.0 -23.3  34086  288.31 0855.16
2009/04/23 09:03:01.3       6   -132    -78    133    154 177.3 -37.9  34086  288.33 0855.16
2009/04/23 09:03:01.4      29   -142    -55    146    156 168.4 -25.4  34090  288.38 0855.16
2009/04/23 09:03:01.5      99   -110     -5    149    150 138.1  -2.2  34088  288.35 0855.16
2009/04/23 09:03:01.6      69   -167     54    181    190 157.5  16.8  34086  288.33 0855.16
2009/04/23 09:03:01.7      56   -162     65    172    183 160.8  21.5  34088  288.36 0855.16
2009/04/23 09:03:01.8      57   -187     95    196    217 163.1  27.4  34088  288.35 0855.16
2009/04/23 09:03:01.9      36   -202    116    206    236 169.8  32.1  34086  288.31 0855.16
2009/04/23 09:03:02.0      37   -218    115    222    250 170.4  29.3  34086  288.32 0855.16
2009/04/23 09:03:02.1      60   -295    -56    302    308 168.4 -10.5  34086  288.31 0855.16
2009/04/23 09:03:02.2      16   -243    -35    244    247 176.2  -8.3  34084  288.27 0855.16
2009/04/23 09:03:02.3      44   -242    -13    247    248 169.5  -3.1  34084  288.29 0855.16
2009/04/23 09:03:02.4      50   -269    -29    274    276 169.3  -6.2  34088  288.34 0855.16
2009/04/23 09:03:02.5       3   -247    -58    248    255 179.1 -13.3  34084  288.27 0855.16
2009/04/23 09:03:02.6      -1   -278    -43    279    283 180.2  -8.8  34086  288.31 0855.16
2009/04/23 09:03:02.7      42   -253    -12    257    258 170.4  -2.8  34088  288.34 0855.16
2009/04/23 09:03:02.8      39   -209    -26    213    215 169.3  -7.2  34088  288.35 0855.16
2009/04/23 09:03:02.9      51   -200      1    207    208 165.5   0.5  34090  288.38 0855.16
2009/04/23 09:03:03.0      39   -224    -21    228    230 170.0  -5.4  34088  288.36 0855.16
2009/04/23 09:03:03.1      58   -224    -26    232    234 165.5  -6.5  34094  288.44 0855.16
2009/04/23 09:03:03.2      48   -210    -25    216    218 167.1  -6.7  34088  288.36 0855.16
2009/04/23 09:03:03.3      95   -185     -7    208    209 152.8  -2.1  34090  288.40 0855.16
2009/04/23 09:03:03.4      85   -144     44    168    174 149.5  14.7  34090  288.40 0855.16
2009/04/23 09:03:03.5      92   -167     51    191    198 151.0  15.0  34090  288.40 0855.16
2009/04/23 09:03:03.6      67   -201     21    212    214 161.5   5.9  34090  288.38 0855.16
2009/04/23 09:03:03.7      64   -194     10    205    206 161.5   2.8  34094  288.47 0855.16
2009/04/23 09:03:03.8      58   -180     28    190    193 162.0   8.5  34090  288.40 0855.16
2009/04/23 09:03:03.9      76   -177     14    193    194 156.8   4.4  34094  288.45 0855.16
2009/04/23 09:03:04.0      63   -199    -19    209    210 162.2  -5.4  34092  288.42 0855.16
2009/04/23 09:03:04.1      51   -192    -19    199    200 165.1  -5.6  34090  288.40 0855.16
2009/04/23 09:03:04.2      51   -179    -23    187    189 164.0  -7.2  34094  288.47 0855.16
2009/04/23 09:03:04.3      57   -168    -42    178    183 161.3 -13.4  34094  288.45 0855.16
2009/04/23 09:03:04.4      67   -171     -4    184    185 158.4  -1.3  34092  288.42 0855.16
2009/04/23 09:03:04.5     106   -174     69    205    217 148.6  18.6  34092  288.42 0855.16
2009/04/23 09:03:04.6     123   -138     41    185    190 138.3  12.6  34092  288.42 0855.16
2009/04/23 09:03:04.7     123   -123     58    175    185 135.1  18.6  34092  288.42 0855.16
2009/04/23 09:03:04.8     107   -112     62    156    167 136.3  22.8  34092  288.43 0855.16
2009/04/23 09:03:04.9     113    -93      7    147    148 129.6   2.9  34094  288.47 0855.16
2009/04/23 09:03:05.0      65    -72    -31     98    102 138.1 -22.8  34094  288.47 0855.16
2009/04/23 09:03:05.1      19   -139    -39    141    147 171.9 -15.5  34096  288.48 0855.16
2009/04/23 09:03:05.2      -4   -124    -24    125    128 182.2 -10.9  34096  288.48 0855.16
2009/04/23 09:03:05.3     -15   -112    -38    114    121 188.0 -18.7  34094  288.47 0855.16
2009/04/23 09:03:05.4      27   -115    -26    119    122 166.6 -12.4  34092  288.42 0855.16
2009/04/23 09:03:05.5      33   -141      7    145    146 166.7   2.9  34092  288.43 0855.16
2009/04/23 09:03:05.6       6   -134     -4    135    136 177.3  -1.8  34090  288.40 0855.16
2009/04/23 09:03:05.7      19   -158    -18    160    162 172.9  -6.5  34090  288.40 0855.16
2009/04/23 09:03:05.8      25   -157    -35    160    164 170.7 -12.4  34092  288.42 0855.16
2009/04/23 09:03:05.9      48   -135    -19    144    146 160.4  -7.7  34092  288.42 0855.15
2009/04/23 09:03:06.0      56   -176      8    185    186 162.2   2.5  34092  288.43 0855.15
2009/04/23 09:03:06.1      73   -132      7    151    152 151.0   2.9  34094  288.47 0855.15
2009/04/23 09:03:06.2      47   -139     20    147    149 161.3   8.0  34092  288.43 0855.15
2009/04/23 09:03:06.3      40   -123     50    130    139 161.7  22.0  34092  288.43 0855.15
2009/04/23 09:03:06.4      60   -121     34    136    141 153.7  14.3  34094  288.45 0855.15
2009/04/23 09:03:06.5      69   -147    -19    163    165 154.6  -6.9  34094  288.45 0855.15
2009/04/23 09:03:06.6      76   -160    -10    178    179 154.4  -3.3  34096  288.48 0855.15
2009/04/23 09:03:06.7     100   -204    -12    228    229 153.9  -3.1  34092  288.42 0855.15
2009/04/23 09:03:06.8     116   -181    -18    216    217 147.4  -4.9  34092  288.43 0855.15
2009/04/23 09:03:06.9      75   -158      1    176    177 154.5   0.5  34094  288.47 0855.15
2009/04/23 09:03:07.0      64   -136      4    151    152 154.5   1.8  34096  288.50 0855.15
2009/04/23 09:03:07.1      89   -152     26    177    179 149.7   8.5  34094  288.45 0855.15
2009/04/23 09:03:07.2      72   -154     52    171    179 154.8  17.1  34092  288.42 0855.15
2009/04/23 09:03:07.3      70   -129     69    147    162 151.5  27.0  34094  288.45 0855.15
2009/04/23 09:03:07.4      98   -111      7    149    150 138.5   2.9  34096  288.48 0855.15
2009/04/23 09:03:07.5      87   -120     23    149    151 144.0   9.0  34096  288.48 0855.15
2009/04/23 09:03:07.6     126   -113     -6    170    171 131.8  -2.2  34096  288.50 0855.15
2009/04/23 09:03:07.7     122   -104      2    161    162 130.4   1.0  34096  288.50 0855.15
2009/04/23 09:03:07.8     133    -96     10    165    166 126.0   3.8  34094  288.45 0855.15
2009/04/23 09:03:07.9     127    -95     12    159    160 126.9   4.6  34092  288.43 0855.15
2009/04/23 09:03:08.0     159    -93      9    185    186 120.4   2.8  34092  288.42 0855.15
2009/04/23 09:03:08.1     136    -91     28    164    167 123.7   9.9  34094  288.47 0855.15
2009/04/23 09:03:08.2     119    -80     54    144    153 124.2  21.0  34094  288.45 0855.15
2009/04/23 09:03:08.3     118    -75     52    141    150 122.5  20.9  34096  288.48 0855.15
2009/04/23 09:03:08.4     103    -41     59    112    126 111.8  29.8  34094  288.47 0855.15
2009/04/23 09:03:08.5      80    -52     65     96    115 122.9  36.5  34094  288.47 0855.15
2009/04/23 09:03:08.6      55    -33     61     65     89 121.5  48.5  34094  288.47 0855.15
2009/04/23 09:03:08.7     111     -8     66    112    130  94.3  33.5  34096  288.48 0855.15
2009/04/23 09:03:08.8      91    -29     43     96    105 108.2  25.7  34094  288.47 0855.15
2009/04/23 09:03:08.9      93    -38     35    101    108 112.6  19.4  34096  288.48 0855.15
2009/04/23 09:03:09.0     119    -36     19    125    127 106.9   9.0  34094  288.47 0855.15
2009/04/23 09:03:09.1     113    -68     27    132    135 121.1  11.6  34090  288.40 0855.15
2009/04/23 09:03:09.2     108    -83     26    137    140 127.7  11.1  34092  288.42 0855.15
2009/04/23 09:03:09.3      96    -74     56    122    134 127.8  27.1  34092  288.42 0855.15
2009/04/23 09:03:09.4      86    -80     65    118    134 132.7  31.4  34090  288.40 0855.15
2009/04/23 09:03:09.5     118    -75     49    140    149 122.4  19.4  34092  288.42 0855.15
2009/04/23 09:03:09.6      89    -67     63    112    128 127.3  31.9  34092  288.42 0855.15
2009/04/23 09:03:09.7      73    -72     65    103    121 134.4  35.5  34092  288.42 0855.15
2009/04/23 09:03:09.8      67    -63     60     93    110 133.1  35.6  34092  288.42 0855.15
2009/04/23 09:03:09.9      73    -56     65     93    113 127.3  38.0  34090  288.40 0855.15
2009/04/23 09:03:10.0      67    -63     60     93    110 133.1  35.6  34092  288.42 0855.15
2009/04/23 09:03:10.1      49    -69     53     85    100 144.4  35.5  34090  288.38 0855.15
2009/04/23 09:03:10.2      50    -63     53     81     96 141.7  35.6  34090  288.38 0855.15
2009/04/23 09:03:10.3      65    -56     56     86    102 130.9  36.0  34090  288.40 0855.15
2009/04/23 09:03:10.4      62    -34     51     71     87 118.9  39.1  34090  288.40 0855.15
2009/04/23 09:03:10.5      55    -33     54     65     84 121.5  43.7  34090  288.40 0855.15
2009/04/23 09:03:10.6      49    -23     50     55     74 115.4  47.9  34090  288.40 0855.15
2009/04/23 09:03:10.7      17    -22     51     28     58 142.2  68.8  34090  288.40 0855.15
2009/04/23 09:03:10.8      33    -23     57     41     70 124.2  60.5  34092  288.43 0855.15
2009/04/23 09:03:10.9      22    -22     49     32     58 135.0  64.6  34092  288.43 0855.15
2009/04/23 09:03:11.0      24     -7     48     26     54 106.8  68.8  34092  288.42 0855.15
2009/04/23 09:03:11.1      10     10     25     15     29  46.9  64.7  34092  288.43 0855.15
2009/04/23 09:03:11.2     -24     36     16     44     46 325.7  20.0  34094  288.47 0855.15
2009/04/23 09:03:11.3       2     -5     37      6     37 154.6  90.0  34094  288.45 0855.15
2009/04/23 09:03:11.4      27     19     54     34     63  54.0  64.7  34094  288.47 0855.15
2009/04/23 09:03:11.5      -7    -37     56     38     67 191.6  62.6  34092  288.43 0855.15
2009/04/23 09:03:11.6     -13    -58     69     60     91 193.4  54.8  34092  288.43 0855.15
2009/04/23 09:03:11.7     -16    -82     85     84    119 191.6  50.1  34092  288.42 0855.15
2009/04/23 09:03:11.8     -15    -75     78     77    109 191.6  49.7  34094  288.45 0855.15
2009/04/23 09:03:11.9       8    -63     76     64     99 172.0  55.8  34092  288.43 0855.15
2009/04/23 09:03:12.0       4    -34     70     35     78 172.0  72.8  34094  288.45 0855.15
2009/04/23 09:03:12.1      30    -14     35     34     48 115.4  49.1  34094  288.47 0855.15
2009/04/23 09:03:12.2      17      9     48     20     52  61.1  76.1  34094  288.45 0855.15
2009/04/23 09:03:12.3     -10     14     53     18     55 323.9  81.0  34094  288.47 0855.15
2009/04/23 09:03:12.4       5     17     75     18     77  18.3  86.9  34094  288.47 0855.15
2009/04/23 09:03:12.5      19     57     30     61     67  18.7  27.3  34090  288.40 0855.15
2009/04/23 09:03:12.6      35    -11     37     37     52 108.2  50.1  34090  288.38 0855.15
2009/04/23 09:03:12.7      38    -12     43     40     58 107.7  51.2  34088  288.35 0855.15
2009/04/23 09:03:12.8      23     23     60     33     68  45.1  68.8  34090  288.38 0855.15
2009/04/23 09:03:12.9       6     21     57     23     61  16.9  77.1  34096  288.48 0855.15
2009/04/23 09:03:13.0      33      2     74     34     81  85.6  74.0  34094  288.47 0855.15
2009/04/23 09:03:13.1      57      7     59     58     82  82.1  50.1  34092  288.42 0855.15
2009/04/23 09:03:13.2      50      0     55     51     75  90.0  52.2  34090  288.40 0855.15
2009/04/23 09:03:13.3      27    -22     47     36     59 129.6  58.5  34090  288.40 0855.15
2009/04/23 09:03:13.4      24    -50     55     56     78 153.7  52.0  34092  288.43 0855.15
2009/04/23 09:03:13.5      31    -48    100     58    115 147.5  66.8  34094  288.47 0855.15
2009/04/23 09:03:13.6      43    -73     90     86    124 149.3  50.7  34090  288.38 0855.15
2009/04/23 09:03:13.7      76    -75     85    108    137 134.6  42.2  34094  288.45 0855.15
2009/04/23 09:03:13.8       9   -118     69    119    137 175.6  32.9  34090  288.40 0855.15
2009/04/23 09:03:13.9      -9   -103     51    104    115 185.3  27.3  34090  288.40 0855.14
2009/04/23 09:03:14.0       6    -91     54     92    106 176.0  33.5  34092  288.43 0855.14
2009/04/23 09:03:14.1       1   -129     89    130    157 179.5  37.8  34092  288.43 0855.14
2009/04/23 09:03:14.2     -12   -147     35    148    153 184.9  13.2  34088  288.36 0855.14
2009/04/23 09:03:14.3     -23   -111     22    114    117 192.0  11.1  34090  288.40 0855.14
2009/04/23 09:03:14.4      21    -58     50     62     79 160.0  43.3  34092  288.43 0855.14
2009/04/23 09:03:14.5      21    -83     40     86     94 165.7  27.1  34092  288.42 0855.14
2009/04/23 09:03:14.6      30    -90     56     96    111 161.3  32.9  34090  288.38 0855.14
2009/04/23 09:03:14.7      57    -90     78    107    132 147.5  39.7  34092  288.42 0855.14
2009/04/23 09:03:14.8      42   -110    101    118    155 159.1  44.8  34090  288.38 0855.14
2009/04/23 09:03:14.9      43    -77    115     89    145 151.0  58.5  34092  288.43 0855.14
2009/04/23 09:03:15.0     115   -111     78    161    178 134.0  27.4  34090  288.40 0855.14
2009/04/23 09:03:15.1      59   -158    102    169    197 159.3  33.7  34092  288.42 0855.14
2009/04/23 09:03:15.2      40   -149    120    155    196 164.8  41.7  34090  288.38 0855.14
2009/04/23 09:03:15.3      76   -155    104    173    201 153.7  34.0  34090  288.40 0855.14
2009/04/23 09:03:15.4      65   -171    133    184    227 159.1  39.5  34092  288.42 0855.14
2009/04/23 09:03:15.5      67   -165    112    179    211 157.9  35.2  34092  288.43 0855.14
2009/04/23 09:03:15.6      74   -185     76    200    213 158.2  21.5  34090  288.40 0855.14
2009/04/23 09:03:15.7      93   -169     96    193    215 151.1  28.2  34090  288.40 0855.14
2009/04/23 09:03:15.8      96   -159     57    186    195 148.8  17.1  34090  288.40 0855.14
2009/04/23 09:03:15.9      91   -142     23    169    171 147.3   7.8  34090  288.40 0855.14
2009/04/23 09:03:16.0      79   -136     56    158    168 149.7  19.6  34092  288.42 0855.14
2009/04/23 09:03:16.1      99   -186     61    211    220 151.9  16.3  34092  288.42 0855.14
2009/04/23 09:03:16.2     105   -182     69    211    223 150.1  18.1  34094  288.47 0855.14
2009/04/23 09:03:16.3      73   -181     43    196    201 158.1  12.4  34092  288.42 0855.14
2009/04/23 09:03:16.4     122   -215     10    248    249 150.4   2.3  34092  288.43 0855.14
2009/04/23 09:03:16.5      92   -230     96    248    265 158.2  22.3  34094  288.44 0855.14
2009/04/23 09:03:16.6      96   -199    103    222    244 154.1  26.6  34098  288.51 0855.14
2009/04/23 09:03:16.7      81   -176     90    194    213 155.3  27.0  34096  288.50 0855.14
2009/04/23 09:03:16.8      94   -173     89    197    216 151.5  25.9  34094  288.47 0855.14
2009/04/23 09:03:16.9     130   -169     98    214    235 142.4  26.2  34096  288.50 0855.14
2009/04/23 09:03:17.0     121   -135     89    182    202 138.3  27.8  34096  288.50 0855.14
2009/04/23 09:03:17.1     100   -117     89    154    177 139.5  32.7  34098  288.53 0855.14
2009/04/23 09:03:17.2     107   -136     92    174    196 141.9  30.1  34096  288.48 0855.14
2009/04/23 09:03:17.3      62   -165     73    177    191 159.3  23.6  34094  288.47 0855.14
2009/04/23 09:03:17.4      54   -154     79    164    182 160.6  27.3  34096  288.48 0855.14
2009/04/23 09:03:17.5      51   -149     64    158    170 160.8  23.4  34094  288.47 0855.14
2009/04/23 09:03:17.6      21   -165     40    167    172 172.7  13.7  34094  288.45 0855.14
2009/04/23 09:03:17.7      -8   -163     45    164    171 183.1  15.3  34096  288.48 0855.14
2009/04/23 09:03:17.8     -33   -174     76    178    193 190.7  24.3  34096  288.50 0855.14
2009/04/23 09:03:17.9     -28   -159     74    162    178 190.0  26.2  34094  288.45 0855.15
2009/04/23 09:03:18.0     -50   -151     76    160    177 198.3  27.2  34096  288.48 0855.15
2009/04/23 09:03:18.1     -66    -89     44    111    119 216.5  22.5  34096  288.48 0855.15
2009/04/23 09:03:18.2     -45    -84     39     96    103 208.5  23.0  34096  288.48 0855.15
2009/04/23 09:03:18.3     -22   -104     57    107    121 192.0  30.3  34094  288.47 0855.15
2009/04/23 09:03:18.4     -32   -112     49    117    126 196.0  23.6  34096  288.48 0855.15
2009/04/23 09:03:18.5     -37    -44     -1     58     59 219.6  -1.3  34096  288.48 0855.15
2009/04/23 09:03:18.6       0    -25     63     26     68 179.1  77.1  34092  288.42 0855.15
2009/04/23 09:03:18.7       8   -102    101    103    144 175.5  50.0  34092  288.43 0855.15
2009/04/23 09:03:18.8       7   -108     45    109    117 176.0  23.6  34094  288.47 0855.15
2009/04/23 09:03:18.9      -5   -105     82    106    134 183.1  41.7  34092  288.43 0855.15
2009/04/23 09:03:19.0       2   -139     73    140    157 179.1  29.5  34094  288.47 0855.15
2009/04/23 09:03:19.1     -52   -128     85    139    162 202.3  34.8  34096  288.48 0855.15
2009/04/23 09:03:19.2     -80   -152     65    173    184 207.9  21.3  34094  288.47 0855.15
2009/04/23 09:03:19.3     -69   -149     80    165    183 204.9  27.8  34098  288.52 0855.15
2009/04/23 09:03:19.4     -49   -157     74    165    180 197.6  25.7  34098  288.52 0855.15
2009/04/23 09:03:19.5     -38   -159     41    164    170 193.6  14.3  34098  288.52 0855.15
2009/04/23 09:03:19.6     -49   -183     75    190    204 195.1  22.5  34096  288.48 0855.15
2009/04/23 09:03:19.7     -21   -156     86    158    179 188.0  31.0  34096  288.50 0855.15
2009/04/23 09:03:19.8     -10   -135     46    136    144 184.5  18.9  34096  288.48 0855.15
2009/04/23 09:03:19.9       4   -109      0    110    111 177.8  -0.3  34096  288.48 0855.15
2009/04/23 09:03:20.0     -14   -113     -6    114    115 187.1  -3.1  34096  288.50 0855.15
2009/04/23 09:03:20.1     -40   -137     -3    143    144 196.5  -1.3  34098  288.53 0855.15
2009/04/23 09:03:20.2      73    -93    -21    119    121 142.2 -10.3  34096  288.48 0855.15
2009/04/23 09:03:20.3      51    -80    -21     95     98 147.5 -12.4  34096  288.50 0855.15
2009/04/23 09:03:20.4      52    -69     -6     87     88 142.6  -4.1  34096  288.50 0855.15
2009/04/23 09:03:20.5      59    -48      0     77     78 129.5  -0.3  34096  288.48 0855.15
2009/04/23 09:03:20.6      55    -45     -9     72     73 129.6  -7.3  34098  288.52 0855.15
2009/04/23 09:03:20.7      51    -63     -8     82     83 141.3  -5.6  34096  288.48 0855.15
2009/04/23 09:03:20.8      52    -52    -19     74     77 135.0 -14.5  34096  288.48 0855.15
2009/04/23 09:03:20.9      47    -77    -24     91     95 148.4 -15.0  34096  288.50 0855.15
2009/04/23 09:03:21.0      72    -77     12    106    107 136.8   6.5  34094  288.45 0855.15
2009/04/23 09:03:21.1      32    -91      3     97     98 160.4   1.8  34096  288.50 0855.15
2009/04/23 09:03:21.2      21   -126     -8    128    129 170.2  -3.7  34096  288.48 0855.15
2009/04/23 09:03:21.3      83   -161    -17    182    183 152.8  -5.6  34094  288.45 0855.15
2009/04/23 09:03:21.4      83   -151      0    173    174 151.3   0.2  34090  288.40 0855.15
2009/04/23 09:03:21.5      38   -188     58    192    201 168.4  16.8  34090  288.40 0855.15
2009/04/23 09:03:21.6     152   -205     30    256    258 143.5   6.9  34086  288.32 0855.15
2009/04/23 09:03:21.8     135   -181     78    226    240 143.3  19.2  34084  288.29 0855.15
2009/04/23 09:03:21.9     129   -133     69    186    198 135.9  21.0  34086  288.31 0855.15
2009/04/23 09:03:22.0      73   -122     27    143    146 149.2  11.0  34088  288.36 0855.14
2009/04/23 09:03:22.1      42   -128     38    135    141 161.7  15.8  34092  288.43 0855.14
2009/04/23 09:03:22.2      37    -83    -28     91     95 155.9 -22.8  34094  288.45 0855.14
2009/04/23 09:03:22.3      23    -67    -19     72     75 160.8 -15.4  34096  288.48 0855.14
2009/04/23 09:03:22.4      46    -74      4     88     89 147.9   2.9  34094  288.45 0855.14
2009/04/23 09:03:22.5      37    -69      6     79     80 151.9   4.9  34096  288.48 0855.14
2009/04/23 09:03:22.6      50    -63     42     81     91 141.7  29.3  34090  288.40 0855.14
2009/04/23 09:03:22.7      50    -72     35     88     94 145.3  22.0  34092  288.43 0855.14
2009/04/23 09:03:22.8      42    -64     59     77     97 146.6  41.7  34090  288.40 0855.14
2009/04/23 09:03:22.9      39    -61     51     73     89 147.4  38.6  34086  288.33 0855.14
2009/04/23 09:03:23.0      -8    -52     76     53     92 188.9  62.1  34090  288.38 0855.14
2009/04/23 09:03:23.1      -1    -49     78     50     92 181.8  64.6  34094  288.47 0855.14
2009/04/23 09:03:23.2     -48     -3     54     49     72 265.6  52.2  34096  288.48 0855.14
2009/04/23 09:03:23.3     -43    -14     38     46     59 251.6  43.7  34096  288.48 0855.14
2009/04/23 09:03:23.4     -74    -31     45     81     92 247.4  31.4  34092  288.42 0855.14
2009/04/23 09:03:23.5     -69    -74     63    102    119 222.8  34.4  34092  288.43 0855.14
2009/04/23 09:03:23.6     -63    -40     61     75     96 237.5  43.7  34090  288.38 0855.14
2009/04/23 09:03:23.7     -85    -11     29     86     91 262.1  18.9  34084  288.30 0855.14
2009/04/23 09:03:23.8     -42     45     -8     62     63 316.8  -7.3  34090  288.40 0855.14
2009/04/23 09:03:23.9      11     36     10     38     40  16.9  15.3  34088  288.35 0855.14
2009/04/23 09:03:24.0      29    -15     40     33     51 117.1  56.4  34090  288.38 0855.14
2009/04/23 09:03:24.1      14    -32     19     35     39 156.4  31.4  34090  288.40 0855.14
2009/04/23 09:03:24.2      35    -22     27     42     49 122.4  35.5  34092  288.42 0855.14
2009/04/23 09:03:24.3      13      0     26     14     29  90.0  68.8  34096  288.48 0855.14
2009/04/23 09:03:24.4       6    -17     33     19     38 161.3  64.7  34094  288.45 0855.14
2009/04/23 09:03:24.5      11     26     22     29     36  23.6  41.7  34092  288.43 0855.14
2009/04/23 09:03:24.6      54      0     33     55     64  90.0  35.5  34094  288.45 0855.14
2009/04/23 09:03:24.7      57    -11     69     59     90 101.4  55.4  34094  288.47 0855.14
2009/04/23 09:03:24.8      78    -17     80     81    113 102.8  50.5  34090  288.40 0855.14
2009/04/23 09:03:24.9      85     -7    113     86    142  94.8  59.0  34092  288.43 0855.14
2009/04/23 09:03:25.0      45     43    126     63    140  46.9  71.9  34094  288.45 0855.13
2009/04/23 09:03:25.1      62     39    136     74    154  57.6  68.9  34092  288.42 0855.13
2009/04/23 09:03:25.2      41     -9    118     42    125 102.4  80.2  34094  288.45 0855.13
2009/04/23 09:03:25.3      71    -33    100     79    127 115.2  57.5  34092  288.42 0855.13
2009/04/23 09:03:25.4      80    -63     71    102    124 128.2  37.6  34092  288.42 0855.13
2009/04/23 09:03:25.5      84    -69     57    109    123 129.5  29.3  34092  288.43 0855.13
2009/04/23 09:03:25.6      81    -69     72    107    128 130.4  37.0  34090  288.38 0855.13
2009/04/23 09:03:25.7      88    -95     64    130    144 137.2  28.2  34092  288.42 0855.13
2009/04/23 09:03:25.8      76    -80     79    111    136 136.7  39.1  34088  288.36 0855.13
2009/04/23 09:03:25.9      90    -57     87    107    137 122.4  43.7  34090  288.40 0855.13
2009/04/23 09:03:26.0      92    -48    108    104    149 117.5  50.7  34090  288.38 0855.13
2009/04/23 09:03:26.1     132    -44    124    140    187 108.6  46.2  34090  288.40 0855.13
2009/04/23 09:03:26.2     121    -86    132    149    199 125.5  46.2  34090  288.40 0855.13
2009/04/23 09:03:26.3     153    -99    119    183    218 123.1  36.0  34092  288.43 0855.13
2009/04/23 09:03:26.4     105   -100     98    146    175 133.6  36.7  34088  288.36 0855.13
2009/04/23 09:03:26.5     143    -97    111    173    205 124.2  35.6  34090  288.38 0855.13
2009/04/23 09:03:26.6     107   -136     96    174    198 141.9  31.4  34090  288.38 0855.13
2009/04/23 09:03:26.7      62   -153    135    166    213 157.9  43.5  34088  288.35 0855.13
2009/04/23 09:03:26.8      56   -142    128    153    199 158.2  44.1  34090  288.38 0855.13
2009/04/23 09:03:26.9      85   -103    100    134    167 140.4  40.9  34090  288.40 0855.13
2009/04/23 09:03:27.0      79    -79     99    112    149 134.9  45.8  34088  288.36 0855.12
2009/04/23 09:03:27.1      86   -104    121    136    182 140.4  46.4  34086  288.33 0855.12
2009/04/23 09:03:27.2      77   -132    133    154    203 149.7  45.6  34090  288.38 0855.12
2009/04/23 09:03:27.3      85   -117    123    145    190 143.9  44.5  34088  288.35 0855.12
2009/04/23 09:03:27.4      51   -134    117    144    185 159.1  43.5  34090  288.38 0855.12
2009/04/23 09:03:27.5      42   -128    107    135    172 161.7  42.7  34086  288.33 0855.12
2009/04/23 09:03:27.6      43   -108    110    117    160 158.2  48.2  34086  288.33 0855.12
2009/04/23 09:03:27.7      15    -37     80     41     89 157.3  71.4  34090  288.38 0855.12
2009/04/23 09:03:27.8      25    -40     76     48     89 148.4  64.7  34088  288.35 0855.12
2009/04/23 09:03:27.9       4    -22     63     23     67 168.4  80.2  34094  288.47 0855.12
2009/04/23 09:03:28.0      14     -4     67     15     68 108.4  88.0  34092  288.43 0855.12
2009/04/23 09:03:28.1      62    -27     78     68    103 113.5  53.7  34092  288.43 0855.12
2009/04/23 09:03:28.2     114   -114    122    162    202 135.0  40.7  34086  288.33 0855.12
2009/04/23 09:03:28.3      78   -132    113    154    191 149.3  39.9  34086  288.31 0855.12
2009/04/23 09:03:28.4     105   -162    135    194    236 147.0  38.4  34090  288.40 0855.12
2009/04/23 09:03:28.5      77   -157    109    176    207 153.7  35.0  34090  288.40 0855.12
2009/04/23 09:03:28.6      44   -224    117    229    257 168.9  29.3  34086  288.31 0855.12
2009/04/23 09:03:28.7      39   -231    143    235    275 170.4  34.2  34088  288.36 0855.12
2009/04/23 09:03:28.8      59   -228    157    236    283 165.5  36.5  34084  288.29 0855.12
2009/04/23 09:03:28.9      50   -246    120    252    279 168.4  27.3  34086  288.31 0855.12
2009/04/23 09:03:29.0      35   -208    122    211    243 170.3  32.7  34086  288.31 0855.12
2009/04/23 09:03:29.1      97   -204    127    226    259 154.5  31.6  34088  288.34 0855.12
2009/04/23 09:03:29.2      71   -216    145    228    270 161.7  35.5  34082  288.26 0855.12
2009/04/23 09:03:29.3     104   -226    141    249    286 155.3  32.1  34086  288.32 0855.12
2009/04/23 09:03:29.4      95   -231    118    250    276 157.5  27.1  34080  288.21 0855.12
2009/04/23 09:03:29.5      61   -225    145    234    275 164.9  34.8  34082  288.26 0855.12
2009/04/23 09:03:29.6      89   -185    110    206    233 154.4  30.6  34082  288.26 0855.12
2009/04/23 09:03:29.7     124   -208    102    243    263 149.3  24.1  34084  288.27 0855.12
2009/04/23 09:03:29.8      80   -220     94    235    253 160.0  23.0  34086  288.31 0855.12
2009/04/23 09:03:29.9      76   -207     77    221    235 159.7  19.2  34086  288.33 0855.12
2009/04/23 09:03:30.0      63   -186     69    197    208 161.3  20.0  34086  288.31 0855.12
2009/04/23 09:03:30.1      82   -201     77    218    232 157.7  19.6  34086  288.33 0855.12
2009/04/23 09:03:30.2     134   -185     83    229    243 144.0  20.7  34088  288.36 0855.12
2009/04/23 09:03:30.3     129   -203     97    241    259 147.5  23.1  34088  288.36 0855.12
2009/04/23 09:03:30.4     125   -161     79    205    219 142.2  22.3  34086  288.33 0855.12
2009/04/23 09:03:30.5     129   -166     82    211    226 142.2  22.5  34084  288.30 0855.12
2009/04/23 09:03:30.6     132   -223     65    260    269 149.3  14.2  34084  288.27 0855.12
2009/04/23 09:03:30.7     115   -196     88    228    244 149.5  22.0  34080  288.22 0855.12
2009/04/23 09:03:30.8     161   -207     92    263    278 142.2  20.0  34086  288.31 0855.12
2009/04/23 09:03:30.9     146   -199     56    247    254 143.7  12.9  34088  288.34 0855.12
2009/04/23 09:03:31.0     130   -189     94    230    248 145.3  23.4  34080  288.22 0855.12
2009/04/23 09:03:31.1     158   -223     96    274    291 144.8  19.4  34086  288.32 0855.12
2009/04/23 09:03:31.2     114   -241     37    267    270 154.5   8.0  34088  288.34 0855.12
2009/04/23 09:03:31.3     132   -208     58    247    254 147.5  13.2  34086  288.32 0855.12
2009/04/23 09:03:31.4     126   -193     69    231    242 146.8  16.8  34084  288.29 0855.12
2009/04/23 09:03:31.5     102   -195     84    221    236 152.4  22.0  34080  288.23 0855.12
2009/04/23 09:03:31.6     102   -200     60    225    233 152.9  15.0  34084  288.28 0855.12
2009/04/23 09:03:31.7      56   -205     54    213    220 164.6  14.3  34086  288.33 0855.12
2009/04/23 09:03:31.8      46   -193     40    199    204 166.4  11.4  34086  288.31 0855.12
2009/04/23 09:03:31.9      48   -179     36    186    190 164.9  11.0  34086  288.31 0855.12
2009/04/23 09:03:32.0      52   -162     27    171    174 162.2   9.0  34090  288.40 0855.12
2009/04/23 09:03:32.1      55   -152    -13    162    163 159.9  -4.9  34092  288.42 0855.12
2009/04/23 09:03:32.2      22   -158     -5    160    161 172.0  -1.8  34092  288.42 0855.12
2009/04/23 09:03:32.3      27   -150      2    153    154 169.8   0.8  34092  288.42 0855.12
2009/04/23 09:03:32.4      42   -166     30    172    175 165.7  10.1  34084  288.28 0855.12
2009/04/23 09:03:32.5      24   -149     19    152    154 170.7   7.1  34084  288.30 0855.12
2009/04/23 09:03:32.6      46   -158     32    165    169 163.5  11.1  34084  288.28 0855.12
2009/04/23 09:03:32.7      50   -145     29    154    157 160.8  11.0  34080  288.23 0855.12
2009/04/23 09:03:32.9      76   -138     55    158    168 151.0  19.2  34080  288.23 0855.12
2009/04/23 09:03:32.9      48   -144     97    152    180 161.5  35.5  34080  288.23 0855.12
2009/04/23 09:03:33.0      22   -122     63    124    139 169.8  29.2  34082  288.25 0855.12
2009/04/23 09:03:33.1       9   -115     43    116    123 175.5  21.0  34082  288.25 0855.12
2009/04/23 09:03:33.2      -5   -110     55    111    123 182.7  28.7  34082  288.25 0855.12
2009/04/23 09:03:33.3      -9   -123     43    124    132 184.4  19.4  34080  288.23 0855.12
2009/04/23 09:03:33.4      13   -111     35    112    118 172.9  17.3  34080  288.23 0855.12
2009/04/23 09:03:33.5      32    -98     23    104    107 161.5  12.6  34082  288.25 0855.12
2009/04/23 09:03:33.6      51    -83     29     98    103 148.4  16.8  34080  288.23 0855.12
2009/04/23 09:03:33.7     100    -88      6    134    135 131.3   2.8  34080  288.23 0855.12
2009/04/23 09:03:33.8      90   -126      7    155    156 144.4   2.8  34082  288.25 0855.12
2009/04/23 09:03:33.9     119   -139      0    184    185 139.5  -0.3  34078  288.20 0855.12
2009/04/23 09:03:34.0     117   -128     19    174    176 137.7   6.5  34082  288.25 0855.12
2009/04/23 09:03:34.1      71   -104     52    127    137 145.7  23.1  34082  288.25 0855.12
2009/04/23 09:03:34.2      94   -104     27    141    144 137.7  11.1  34082  288.25 0855.12
2009/04/23 09:03:34.3      58    -79     50     99    110 143.5  28.2  34082  288.25 0855.12
2009/04/23 09:03:34.4      60    -62     50     87    100 136.3  32.4  34082  288.25 0855.12
2009/04/23 09:03:34.5      86    -64     38    108    115 126.9  19.4  34080  288.21 0855.12
2009/04/23 09:03:34.6      77    -49     32     92     98 122.5  19.4  34080  288.21 0855.12
2009/04/23 09:03:34.7      38    -26     56     47     73 124.2  56.3  34080  288.23 0855.12
2009/04/23 09:03:34.8      75    -24     -3     79     80 108.2  -2.6  34080  288.23 0855.12
2009/04/23 09:03:34.9      67    -71     13     98     99 136.8   8.0  34082  288.25 0855.12
2009/04/23 09:03:35.0      50    -70     38     87     94 144.4  25.1  34080  288.23 0855.12
2009/04/23 09:03:35.1       6   -117     41    118    125 176.9  19.2  34080  288.23 0855.12
2009/04/23 09:03:35.2       0   -121     43    122    130 180.4  19.4  34078  288.20 0855.12
2009/04/23 09:03:35.3      -6   -143     49    144    153 182.7  18.9  34078  288.20 0855.12
2009/04/23 09:03:35.4     -21   -152      0    154    155 188.0  -0.3  34078  288.20 0855.12
2009/04/23 09:03:35.5       0   -115    -33    116    120 180.4 -20.2  34080  288.21 0855.12
2009/04/23 09:03:35.6       0   -102    -13    103    104 180.0  -7.3  34078  288.20 0855.12
2009/04/23 09:03:35.7      29    -92    -30     97    101 162.6 -22.3  34080  288.21 0855.12
2009/04/23 09:03:35.8      15    -76    -39     78     87 168.5 -32.6  34078  288.18 0855.12
2009/04/23 09:03:35.9      15    -77    -25     79     82 168.4 -22.8  34078  288.18 0855.12
2009/04/23 09:03:36.0      24    -70     -2     75     76 160.8  -2.2  34076  288.16 0855.12
2009/04/23 09:03:36.1      55    -50     34     75     82 132.2  25.7  34078  288.20 0855.12
2009/04/23 09:03:36.2      59    -68     32     91     97 139.0  19.4  34078  288.20 0855.12
2009/04/23 09:03:36.4      66   -105     36    125    131 147.9  16.3  34076  288.16 0855.12
2009/04/23 09:03:36.4      70   -148     42    164    170 154.7  14.5  34076  288.14 0855.12
2009/04/23 09:03:36.5      92   -137     20    166    168 146.2   6.9  34076  288.16 0855.12
2009/04/23 09:03:36.6      73   -159     25    176    178 155.3   8.2  34078  288.18 0855.12
2009/04/23 09:03:36.7      88   -155     49    179    186 150.4  15.6  34082  288.26 0855.12
2009/04/23 09:03:36.8      53   -172     65    181    192 162.8  20.2  34078  288.20 0855.12
2009/04/23 09:03:36.9      49   -161    101    169    196 162.8  33.5  34076  288.16 0855.12
2009/04/23 09:03:37.0      57   -170     81    180    197 161.3  25.7  34078  288.18 0855.13
2009/04/23 09:03:37.1      14   -186     56    187    196 175.5  16.6  34078  288.18 0855.13
2009/04/23 09:03:37.2      24   -190      1    192    193 172.7   0.5  34078  288.18 0855.13
2009/04/23 09:03:37.3      16   -165     -6    166    167 174.4  -2.3  34082  288.25 0855.13
2009/04/23 09:03:37.4      44   -139     -4    146    147 162.2  -1.8  34076  288.16 0855.13
2009/04/23 09:03:37.5      38   -112    -28    119    123 161.3 -13.3  34080  288.21 0855.13
2009/04/23 09:03:37.6      32   -119    -36    124    129 164.8 -21.7  34080  288.21 0855.13
2009/04/23 09:03:37.7      32    -91    -31     97    103 160.4 -18.1  34080  288.21 0855.13
2009/04/23 09:03:37.8       0   -127    -35    128    133 180.0 -15.5  34078  288.18 0855.13
2009/04/23 09:03:37.9     -19   -131    -12    133    134 188.5  -5.2  34078  288.18 0855.13
2009/04/23 09:03:38.0     -65    -72     -9     98     99 222.3  -5.6  34078  288.20 0855.13
2009/04/23 09:03:38.1     -43    -29      0     53     54 235.8   0.8  34078  288.20 0855.13
2009/04/23 09:03:38.2     -42      1     11     43     45 271.7  15.3  34078  288.18 0855.13
2009/04/23 09:03:38.3     -36     24     15     44     47 303.3  18.9  34078  288.18 0855.13
2009/04/23 09:03:38.4     -38     40    -23     56     60 315.9 -27.5  34078  288.18 0855.13
2009/04/23 09:03:38.5     -34     64    -56     73     92 331.9 -46.1  34078  288.18 0855.13
2009/04/23 09:03:38.6     -48     48    -62     68     92 314.9 -51.9  34078  288.18 0855.13
2009/04/23 09:03:38.7     -60     43    -60     75     96 305.9 -47.7  34078  288.20 0855.13
2009/04/23 09:03:38.8     -28     26    -61     39     72 313.3 -69.0  34080  288.21 0855.13
2009/04/23 09:03:38.9     -12      0    -33     13     35 270.0 -83.6  34082  288.25 0855.13
2009/04/23 09:03:39.0       9    -29    -30     31     43 161.5 -54.4  34080  288.21 0855.13
2009/04/23 09:03:39.1      -9    -66    -19     67     69 188.0 -20.7  34080  288.21 0855.13
2009/04/23 09:03:39.2      13    -76    -18     78     81 170.2 -12.9  34076  288.16 0855.13
2009/04/23 09:03:39.3      19    -92    -47     95    105 168.0 -32.6  34078  288.18 0855.13
2009/04/23 09:03:39.4      16   -103    -25    105    108 171.1 -13.4  34080  288.21 0855.13
2009/04/23 09:03:39.5      56    -88    -36    105    111 147.5 -23.3  34078  288.18 0855.13
2009/04/23 09:03:39.6      52    -82    -26     98    102 147.4 -15.0  34082  288.25 0855.13
2009/04/23 09:03:39.7       9    -64    -18     65     68 172.0 -15.5  34078  288.18 0855.13
2009/04/23 09:03:39.8     -74    -44    -20     87     90 239.3 -13.4  34078  288.18 0855.13
2009/04/23 09:03:39.9     -65    -26    -14     71     73 248.2 -11.3  34078  288.18 0855.13
2009/04/23 09:03:40.0     -36    -32      9     49     50 228.7  11.1  34078  288.18 0855.13
2009/04/23 09:03:40.1     -56      4     39     57     69 274.3  37.6  34078  288.18 0855.13
2009/04/23 09:03:40.2     -67     31     33     75     81 295.2  25.1  34080  288.23 0855.13
2009/04/23 09:03:40.3     -50     41     23     66     70 309.5  19.2  34080  288.21 0855.13
2009/04/23 09:03:40.4     -34     64     29     73     78 331.9  22.5  34082  288.26 0855.13
2009/04/23 09:03:40.5     -54     49     61     74     95 312.2  43.7  34084  288.28 0855.13
2009/04/23 09:03:40.6     -77     75     22    108    111 314.0  11.6  34082  288.26 0855.13
2009/04/23 09:03:40.7     -94     79     41    124    131 310.0  18.4  34076  288.16 0855.13
2009/04/23 09:03:40.8     -84     91     24    125    128 317.2  11.0  34078  288.20 0855.13
2009/04/23 09:03:40.9    -113     21     -4    115    116 280.6  -2.2  34078  288.18 0855.13
2009/04/23 09:03:41.0    -113     60     26    128    131 298.0  11.6  34080  288.23 0855.13
2009/04/23 09:03:41.1    -109     24    -30    112    116 282.4 -15.0  34078  288.18 0855.13
2009/04/23 09:03:41.2     -44     33     11     56     58 306.9  11.1  34078  288.18 0855.13
2009/04/23 09:03:41.3       4    -70     31     71     77 176.4  25.1  34078  288.20 0855.13
2009/04/23 09:03:41.4      41    -79     10     90     91 152.4   6.9  34076  288.16 0855.13
2009/04/23 09:03:41.5     -67    -51     76     85    114 232.7  46.9  34078  288.20 0855.13
2009/04/23 09:03:41.6     -58    -70     75     91    117 219.6  43.8  34080  288.21 0855.13
2009/04/23 09:03:41.7    -161     67     48    175    182 292.6  15.6  34076  288.16 0855.13
2009/04/23 09:03:41.8    -108     -9     45    109    117 264.8  23.6  34076  288.16 0855.13
2009/04/23 09:03:41.9    -134     -7    100    135    168 267.0  40.1  34078  288.20 0855.13
2009/04/23 09:03:42.0    -157     47    108    164    196 286.8  36.5  34076  288.14 0855.13
2009/04/23 09:03:42.1    -145     69     60    161    171 295.8  21.3  34076  288.14 0855.13
2009/04/23 09:03:42.2    -158     86     35    181    185 298.6  11.1  34076  288.16 0855.13
2009/04/23 09:03:42.3    -120     75     -5    142    143 302.0  -2.2  34076  288.16 0855.13
2009/04/23 09:03:42.4     -83     95    -35    127    132 319.0 -15.4  34080  288.21 0855.13
2009/04/23 09:03:42.5     -98     70     -9    121    122 305.9  -4.6  34076  288.14 0855.13
2009/04/23 09:03:42.6     -98     41     22    107    110 293.1  11.6  34076  288.16 0855.13
2009/04/23 09:03:42.7     -66      0     -8     67     68 270.0  -7.2  34080  288.23 0855.13
2009/04/23 09:03:42.8     -13     63     12     65     67 348.4  11.0  34076  288.16 0855.13
2009/04/23 09:03:42.9    -113     49    -20    124    126 293.6  -9.3  34076  288.14 0855.13
2009/04/23 09:03:43.0    -151     90     20    177    179 300.9   6.7  34078  288.18 0855.12
2009/04/23 09:03:43.1    -154     73    -46    171    178 295.5 -15.2  34076  288.14 0855.12
2009/04/23 09:03:43.2    -143     15    -96    144    173 276.1 -40.9  34076  288.14 0855.12
2009/04/23 09:03:43.3    -143     19    -51    145    154 277.9 -19.4  34076  288.14 0855.12
2009/04/23 09:03:43.4    -189     -2    -86    190    208 269.2 -30.6  34078  288.18 0855.12
2009/04/23 09:03:43.5    -162     -8    -68    163    176 267.0 -28.2  34078  288.20 0855.12
2009/04/23 09:03:43.6    -184     -7    -82    185    202 267.6 -29.6  34078  288.18 0855.12
2009/04/23 09:03:43.7    -148      2    -16    149    150 270.8  -6.2  34078  288.18 0855.12
2009/04/23 09:03:43.8    -119      8    -67    120    137 274.3 -35.8  34080  288.23 0855.12
2009/04/23 09:03:43.9    -102     -4    -92    103    138 267.4 -50.8  34082  288.26 0855.12
2009/04/23 09:03:44.0     -92      0    -62     93    111 270.0 -40.9  34080  288.21 0855.12
2009/04/23 09:03:44.1     -97    -18    -90     99    133 259.0 -51.9  34078  288.20 0855.12
2009/04/23 09:03:44.2    -111    -32    -59    116    130 253.6 -33.6  34076  288.16 0855.12
2009/04/23 09:03:44.3     -82      6    -29     83     89 274.4 -19.7  34078  288.20 0855.12
2009/04/23 09:03:44.4     -72      1     -9     73     74 270.8  -7.3  34078  288.18 0855.12
2009/04/23 09:03:44.5     -67    -56    -41     88     97 230.0 -31.0  34080  288.23 0855.12
2009/04/23 09:03:44.6     -32    -90    -55     96    110 199.6 -36.8  34078  288.20 0855.12
2009/04/23 09:03:44.7     -40    -67    -38     79     87 210.7 -31.6  34078  288.20 0855.12
2009/04/23 09:03:44.8     -13    -54    -27     56     62 194.3 -31.6  34080  288.21 0855.12
2009/04/23 09:03:44.9       0    -44    -41     45     60 180.9 -52.3  34078  288.20 0855.12
2009/04/23 09:03:45.0      -5    -53    -50     54     73 185.3 -52.4  34076  288.14 0855.12
2009/04/23 09:03:45.1      11    -54    -59     56     81 168.4 -56.0  34076  288.16 0855.12
2009/04/23 09:03:45.2       9    -28    -58     30     65 161.3 -74.2  34074  288.13 0855.12
2009/04/23 09:03:45.3      -9      0    -27     10     28 270.0 -85.6  34076  288.14 0855.12
2009/04/23 09:03:45.4     -31     14    -17     35     38 295.3 -31.6  34076  288.16 0855.12
2009/04/23 09:03:45.5     -33     -2    -19     34     38 265.6 -35.8  34078  288.20 0855.12
2009/04/23 09:03:45.6     -15    -16    -15     22     26 223.2 -40.0  34078  288.18 0855.12
2009/04/23 09:03:45.7     -18    -11      7     22     24 239.3  19.4  34078  288.18 0855.12
2009/04/23 09:03:45.8     -25     -8    -25     27     36 251.8 -54.4  34078  288.18 0855.12
2009/04/23 09:03:45.9     -62     11    -20     64     67 280.6 -23.8  34078  288.18 0855.12
2009/04/23 09:03:46.0     -85      2    -41     86     95 271.7 -31.6  34076  288.16 0855.13
2009/04/23 09:03:46.2     -72    -36    -24     81     84 242.9 -21.7  34076  288.14 0855.13
2009/04/23 09:03:46.2     -71    -12    -62     73     95 260.3 -48.7  34072  288.09 0855.13
2009/04/23 09:03:46.3    -138     -6    -75    139    157 267.5 -35.2  34070  288.06 0855.13
2009/04/23 09:03:46.4    -163     20    -50    165    172 277.2 -22.1  34074  288.11 0855.13
2009/04/23 09:03:46.5    -165    -11    -57    166    175 266.1 -23.3  34074  288.11 0855.13
2009/04/23 09:03:46.7    -162    -11    -57    163    173 266.1 -19.4  34076  288.14 0855.13
2009/04/23 09:03:46.7    -132    -22    -56    134    145 260.3 -28.0  34076  288.16 0855.13
2009/04/23 09:03:46.8    -129      5    -59    130    142 272.5 -30.1  34076  288.14 0855.13
2009/04/23 09:03:46.9    -171    -13    -72    172    186 265.6 -28.5  34074  288.13 0855.13
2009/04/23 09:03:47.0    -150    -11    -31    151    155 265.6 -11.6  34074  288.11 0855.13
2009/04/23 09:03:47.1    -209    -28    -14    211    212 262.3  -3.9  34072  288.08 0855.13
2009/04/23 09:03:47.2    -198    -69    -16    210    211 250.7  -4.4  34074  288.13 0855.13
2009/04/23 09:03:47.3    -143    -62    -20    157    159 246.5  -7.5  34074  288.11 0855.13
2009/04/23 09:03:47.4     -28   -104    -67    108    127 195.1 -39.9  34076  288.16 0855.13
2009/04/23 09:03:47.5     -37    -92    -83    100    129 201.8 -48.2  34074  288.13 0855.13
2009/04/23 09:03:47.6    -108   -110    -74    155    171 224.5 -31.6  34076  288.16 0855.13
2009/04/23 09:03:47.7    -102   -105    -40    147    153 224.1 -15.5  34076  288.14 0855.13
2009/04/23 09:03:47.8    -128    -96      2    160    161 233.1   0.8  34074  288.13 0855.13
2009/04/23 09:03:47.9    -127    -77     -3    149    150 238.5  -1.2  34076  288.16 0855.13
2009/04/23 09:03:48.1    -106    -71    -40    128    135 236.3 -17.6  34076  288.16 0855.14
2009/04/23 09:03:48.1     -71    -59    -32     93     99 230.5 -19.1  34074  288.11 0855.14
2009/04/23 09:03:48.2     -84    -43    -27     95     98 242.9 -20.7  34074  288.13 0855.14
2009/04/23 09:03:48.3    -109    -32     -8    114    115 253.2  -4.1  34074  288.13 0855.14
2009/04/23 09:03:48.4    -130    -66    -18    146    148 243.0  -7.2  34074  288.13 0855.14
2009/04/23 09:03:48.5    -158    -68      3    173    174 246.7   1.0  34072  288.09 0855.14
2009/04/23 09:03:48.7    -147    -44      2    154    155 253.2   0.8  34076  288.14 0855.14
2009/04/23 09:03:48.7    -154    -86     18    177    179 240.9   6.1  34076  288.16 0855.14
2009/04/23 09:03:48.9    -133    -44      3    141    142 251.6   1.2  34074  288.11 0855.14
2009/04/23 09:03:48.9    -105    -80     21    133    135 232.7   9.0  34076  288.16 0855.14
2009/04/23 09:03:49.0    -104    -51      0    117    118 243.8   0.2  34074  288.11 0855.14
2009/04/23 09:03:49.2     -87    -58     11    105    106 236.3   6.5  34076  288.16 0855.14
2009/04/23 09:03:49.3     -59    -61     20     85     88 224.1  13.7  34076  288.14 0855.14
2009/04/23 09:03:49.4     -70    -54     42     89     98 232.2  27.1  34074  288.13 0855.14
2009/04/23 09:03:49.4     -81    -41     35     91     97 242.9  21.5  34076  288.16 0855.14
2009/04/23 09:03:49.6     -72    -27     25     78     82 249.2  17.9  34074  288.13 0855.14
2009/04/23 09:03:49.7     -90    -29     -9     95     96 251.8  -5.6  34076  288.14 0855.14
2009/04/23 09:03:49.8    -115    -32    -36    120    125 254.1 -21.8  34074  288.13 0855.14
2009/04/23 09:03:49.9     -94    -27    -48     98    109 253.6 -32.2  34076  288.16 0855.14
2009/04/23 09:03:50.0     -73    -24    -30     78     83 251.4 -25.9  34076  288.16 0855.14
2009/04/23 09:03:50.1     -49    -16      1     52     53 251.4   1.8  34076  288.16 0855.14
2009/04/23 09:03:50.2     -59     -4     17     60     63 265.7  16.3  34074  288.11 0855.14
2009/04/23 09:03:50.3     -69      0     54     70     88 270.0  42.2  34076  288.16 0855.14
2009/04/23 09:03:50.4     -49    -19     74     53     91 248.3  61.1  34078  288.20 0855.14
2009/04/23 09:03:50.5     -50      3     59     51     77 273.5  54.3  34078  288.18 0855.14
2009/04/23 09:03:50.6     -45      6     49     46     67 277.9  52.1  34076  288.16 0855.14
2009/04/23 09:03:50.7     -13     -2     43     14     45 258.5  80.7  34080  288.21 0855.14
2009/04/23 09:03:50.8      15     -7     25     17     30 115.3  62.6  34082  288.26 0855.14
2009/04/23 09:03:50.9      17      0     31     18     35  90.0  64.7  34082  288.25 0855.14
2009/04/23 09:03:51.0       6     11     33     13     35  29.0  79.2  34080  288.23 0855.14
2009/04/23 09:03:51.1     -19     -2     40     20     44 263.9  70.8  34080  288.21 0855.14
2009/04/23 09:03:51.2     -26      0     33     27     42 270.0  55.4  34078  288.20 0855.14
2009/04/23 09:03:51.3     -44    -28     43     53     68 237.6  43.7  34080  288.21 0855.14
2009/04/23 09:03:51.4     -32    -27     52     43     67 229.6  56.3  34078  288.20 0855.14
2009/04/23 09:03:51.5     -15    -23     52     28     59 212.6  68.9  34078  288.20 0855.14
2009/04/23 09:03:51.6     -19     -6     42     20     46 251.8  72.9  34082  288.25 0855.14
2009/04/23 09:03:51.7     -18     -7     29     20     35 248.3  64.6  34082  288.26 0855.14
2009/04/23 09:03:51.8     -25     -8     32     27     41 251.4  55.4  34080  288.23 0855.14
2009/04/23 09:03:51.9     -11    -18     15     22     26 210.7  35.6  34078  288.18 0855.14
2009/04/23 09:03:52.0      17      0     18     18     25  90.8  50.1  34078  288.20 0855.14
2009/04/23 09:03:52.1      37     -2     17     38     41  94.4  25.1  34082  288.26 0855.14
2009/04/23 09:03:52.2      40    -32     13     52     54 128.6  14.3  34076  288.16 0855.14
2009/04/23 09:03:52.3      51    -27     20     58     62 118.0  19.2  34074  288.13 0855.14
2009/04/23 09:03:52.4      75    -27     21     80     83 110.0  15.3  34076  288.14 0855.14
2009/04/23 09:03:52.5      65    -41      5     78     79 122.4   3.8  34078  288.18 0855.14
2009/04/23 09:03:52.6     103    -32     -7    108    109 107.3  -4.1  34076  288.14 0855.14
2009/04/23 09:03:52.7      78    -60     30     99    104 127.8  16.8  34074  288.13 0855.14
2009/04/23 09:03:52.8     103    -59     16    119    121 119.8   8.0  34074  288.13 0855.14
2009/04/23 09:03:52.9     107    -58      0    122    123 118.4  -0.3  34076  288.16 0855.14
2009/04/23 09:03:53.0     107    -71    -15    129    130 123.7  -6.7  34074  288.13 0855.14
2009/04/23 09:03:53.1     104    -41    -14    113    114 111.7  -7.2  34076  288.16 0855.14
2009/04/23 09:03:53.2      91    -34    -27     98    102 110.8 -15.4  34074  288.13 0855.14
2009/04/23 09:03:53.3      67    -63    -16     93     95 133.1 -10.3  34074  288.13 0855.14
2009/04/23 09:03:53.4      60    -68     12     92     93 138.6   7.5  34074  288.13 0855.14
2009/04/23 09:03:53.5      59    -68     22     91     94 139.0  13.7  34074  288.11 0855.14
2009/04/23 09:03:53.6      70   -111      1    132    133 147.5   0.8  34072  288.09 0855.14
2009/04/23 09:03:53.7      70   -111      1    132    133 147.5   0.8  34072  288.09 0855.14
2009/04/23 09:03:53.8      69    -98     18    120    122 144.8   8.9  34072  288.08 0855.14
2009/04/23 09:03:53.9      71    -86      6    112    113 140.4   3.3  34072  288.09 0855.14
2009/04/23 09:03:54.0      66   -122     27    139    142 151.5  11.0  34072  288.08 0855.14
2009/04/23 09:03:54.1      39   -110    -10    117    118 160.4  -5.2  34072  288.08 0855.14
2009/04/23 09:03:54.2      74   -105      4    129    130 144.8   1.8  34072  288.09 0855.14
2009/04/23 09:03:54.3      75   -103      6    128    129 144.0   2.9  34072  288.09 0855.14
2009/04/23 09:03:54.4      89   -102     -1    136    137 139.0  -0.7  34074  288.11 0855.14
2009/04/23 09:03:54.5      87   -100     20    133    135 139.0   8.9  34074  288.11 0855.14
2009/04/23 09:03:54.6      74   -113     30    136    140 146.6  12.6  34072  288.08 0855.14
2009/04/23 09:03:54.7      76   -117     26    140    143 147.0  10.6  34074  288.11 0855.14
2009/04/23 09:03:54.8      54   -126     26    138    141 156.8  11.0  34072  288.08 0855.14
2009/04/23 09:03:54.9      43   -129     16    137    138 161.3   6.9  34072  288.08 0855.14
2009/04/23 09:03:55.0      55   -134      3    145    146 157.7   1.2  34072  288.09 0855.14
2009/04/23 09:03:55.1      46   -151     -7    158    159 163.0  -2.6  34072  288.08 0855.14
2009/04/23 09:03:55.2      45   -136     -7    144    145 161.5  -3.1  34072  288.09 0855.14
2009/04/23 09:03:55.3      37   -121      6    127    128 163.0   2.8  34076  288.14 0855.14
2009/04/23 09:03:55.4      34   -127      6    132    133 164.9   2.9  34072  288.09 0855.14
2009/04/23 09:03:55.5      54   -162      6    171    172 161.5   2.1  34074  288.13 0855.14
2009/04/23 09:03:55.6      39   -175    -11    180    181 167.3  -3.7  34072  288.08 0855.14
2009/04/23 09:03:55.7      41   -147     -8    153    154 164.4  -3.2  34074  288.13 0855.14
2009/04/23 09:03:55.8      34   -130    -12    135    136 165.3  -5.2  34076  288.14 0855.14
2009/04/23 09:03:55.9      24   -180    -36    182    186 172.2 -11.3  34076  288.16 0855.14
2009/04/23 09:03:56.0      58   -204    -46    213    219 164.0 -12.4  34076  288.14 0855.14
2009/04/23 09:03:56.1      53   -195    -52    203    210 164.9 -14.5  34074  288.13 0855.14
2009/04/23 09:03:56.2      15   -189    -24    190    192 175.3  -7.3  34074  288.11 0855.14
2009/04/23 09:03:56.3      35   -231     -1    234    235 171.3  -0.3  34078  288.17 0855.14
2009/04/23 09:03:56.4      18   -234     20    235    236 175.5   4.9  34076  288.15 0855.14
2009/04/23 09:03:56.5      25   -222     27    224    226 173.5   7.1  34076  288.16 0855.14
2009/04/23 09:03:56.6      16   -214     10    215    216 175.5   2.9  34076  288.16 0855.14
2009/04/23 09:03:56.7      25   -200     39    202    206 172.7  11.0  34078  288.18 0855.14
2009/04/23 09:03:56.8      12   -214     53    215    222 176.6  13.9  34080  288.21 0855.14
2009/04/23 09:03:56.9      55   -204     43    212    217 164.9  11.4  34082  288.25 0855.14
2009/04/23 09:03:57.0      20   -219     43    221    226 174.7  11.0  34082  288.25 0855.14
2009/04/23 09:03:57.1       9   -213     57    214    222 177.5  15.0  34082  288.25 0855.14
2009/04/23 09:03:57.2      51   -246     56    252    259 168.2  12.6  34082  288.26 0855.14
2009/04/23 09:03:57.3      48   -222     62    228    237 167.7  15.3  34080  288.21 0855.14
2009/04/23 09:03:57.4      52   -228     47    234    239 167.1  11.6  34088  288.34 0855.14
2009/04/23 09:03:57.5      56   -203     54    211    218 164.6  14.5  34076  288.16 0855.14
2009/04/23 09:03:57.6      42   -209     64    214    224 168.4  16.6  34080  288.23 0855.14
2009/04/23 09:03:57.7      38   -189     44    193    199 168.4  12.9  34080  288.23 0855.14
2009/04/23 09:03:57.8      27   -172     64    175    186 171.1  21.0  34084  288.28 0855.14
2009/04/23 09:03:57.9      14   -191     78    192    207 175.8  23.4  34086  288.31 0855.14
2009/04/23 09:03:58.0      20   -185     88    187    206 173.8  27.1  34084  288.30 0855.14
2009/04/23 09:03:58.1      -3   -204     96    205    226 181.1  27.1  34082  288.25 0855.14
2009/04/23 09:03:58.2      -7   -195     65    196    207 182.2  18.4  34084  288.28 0855.14
2009/04/23 09:03:58.3      13   -191     32    192    195 176.0   9.5  34080  288.21 0855.14
2009/04/23 09:03:58.4       9   -195     35    196    200 177.1  10.1  34078  288.18 0855.14
2009/04/23 09:03:58.5      -2   -192     -3    193    194 180.7  -1.1  34080  288.23 0855.14
2009/04/23 09:03:58.6       3   -188     20    189    191 179.0   6.1  34082  288.25 0855.14
2009/04/23 09:03:58.7      -3   -176     45    177    183 181.1  14.3  34080  288.21 0855.14
2009/04/23 09:03:58.8       5   -188     64    189    200 178.2  18.9  34082  288.26 0855.14
2009/04/23 09:03:58.9      12   -190     31    191    194 176.4   9.3  34080  288.23 0855.14
2009/04/23 09:03:59.0      15   -198     51    199    206 175.5  14.5  34082  288.25 0855.14
2009/04/23 09:03:59.1      19   -199     63    200    210 174.4  17.7  34080  288.21 0855.14
2009/04/23 09:03:59.2       4   -176     83    177    195 178.4  27.1  34078  288.18 0855.14
2009/04/23 09:03:59.3     -17   -185     49    186    193 185.3  15.0  34078  288.20 0855.14
2009/04/23 09:03:59.4      -2   -184     51    185    193 180.9  15.6  34076  288.14 0855.14
2009/04/23 09:03:59.5     -21   -183     36    185    189 186.7  11.1  34074  288.13 0855.14
2009/04/23 09:03:59.6     -13   -170     53    171    180 184.5  17.3  34076  288.16 0855.14
2009/04/23 09:03:59.7     -27   -158     16    161    162 190.0   5.7  34078  288.18 0855.14
2009/04/23 09:03:59.8     -44   -156     -1    163    164 195.8  -0.5  34078  288.18 0855.14
2009/04/23 09:03:59.9     -66   -129      5    146    147 207.2   2.3  34080  288.21 0855.14
2009/04/23 09:04:00.0    -104   -123    -20    162    164 220.3  -7.3  34080  288.21 0855.14
2009/04/23 09:04:00.1    -150   -140    -26    206    208 226.9  -7.3  34084  288.28 0855.14
2009/04/23 09:04:00.2    -139   -159    -29    212    215 221.0  -8.0  34088  288.35 0855.14
2009/04/23 09:04:00.3    -156   -156    -20    222    223 225.0  -5.2  34088  288.36 0855.14
2009/04/23 09:04:00.4    -153   -142    -24    210    212 227.1  -6.7  34088  288.35 0855.14
2009/04/23 09:04:00.5    -143   -173    -16    225    226 219.6  -4.1  34084  288.28 0855.14
2009/04/23 09:04:00.6    -127   -194     -9    232    233 213.2  -2.2  34086  288.31 0855.14
2009/04/23 09:04:00.7    -114   -178    -12    212    213 212.6  -3.3  34086  288.31 0855.14
2009/04/23 09:04:00.8    -132   -165     10    212    213 218.7   2.9  34082  288.25 0855.14
2009/04/23 09:04:00.9    -150   -150      4    213    214 225.0   1.2  34082  288.25 0855.14
2009/04/23 09:04:01.0    -118   -118     30    168    171 225.1  10.1  34076  288.16 0855.14
2009/04/23 09:04:01.1    -158   -109    -24    192    194 235.4  -7.2  34080  288.23 0855.14
2009/04/23 09:04:01.2    -158    -98    -21    186    188 238.2  -6.7  34088  288.36 0855.14
2009/04/23 09:04:01.3    -163   -124    -50    206    213 232.7 -13.7  34092  288.42 0855.14
2009/04/23 09:04:01.4    -125   -117    -49    172    178 227.1 -20.4  34090  288.38 0855.14
2009/04/23 09:04:01.5    -115   -104    -41    156    162 227.8 -15.0  34090  288.40 0855.14
2009/04/23 09:04:01.6    -103   -113     -6    154    155 222.3  -2.2  34088  288.36 0855.14
2009/04/23 09:04:01.7    -113   -106     -3    156    157 226.9  -1.3  34084  288.28 0855.14
2009/04/23 09:04:01.8     -97    -97     14    138    139 225.0   5.9  34084  288.28 0855.14
2009/04/23 09:04:01.9     -78   -108      6    134    135 216.0   2.8  34080  288.23 0855.14
2009/04/23 09:04:02.0    -100    -83      0    131    132 230.4   0.2  34082  288.26 0855.14
2009/04/23 09:04:02.1    -100    -84    -11    131    132 230.0  -5.2  34082  288.26 0855.13
2009/04/23 09:04:02.2     -99    -77    -20    126    128 232.2  -9.4  34084  288.28 0855.13
2009/04/23 09:04:02.3    -121    -73      0    142    143 238.9   0.2  34080  288.21 0855.13
2009/04/23 09:04:02.4    -121    -67    -40    139    145 241.1 -16.0  34086  288.31 0855.13
2009/04/23 09:04:02.5    -131    -75    -35    152    157 240.2 -13.2  34092  288.42 0855.13
2009/04/23 09:04:02.6    -124    -81    -45    149    156 236.7 -17.0  34092  288.43 0855.13
2009/04/23 09:04:02.7    -132    -84    -28    157    160 237.5 -10.1  34090  288.40 0855.13
2009/04/23 09:04:02.8    -148    -72    -28    165    168 243.8  -9.8  34090  288.40 0855.13
2009/04/23 09:04:02.9    -155    -83    -19    176    178 241.8  -6.2  34090  288.40 0855.13
2009/04/23 09:04:03.0    -102   -123    -35    160    164 219.7 -12.4  34090  288.40 0855.13
2009/04/23 09:04:03.1    -110   -138    -50    177    183 218.7 -20.4  34090  288.40 0855.13
2009/04/23 09:04:03.2    -130   -125    -53    181    189 226.2 -16.4  34094  288.45 0855.13
2009/04/23 09:04:03.3     -96   -142    -59    172    182 214.1 -19.1  34092  288.43 0855.13
2009/04/23 09:04:03.4     -89   -131    -53    159    167 214.3 -23.6  34092  288.43 0855.13
2009/04/23 09:04:03.5    -137    -99    -57    170    179 234.0 -23.6  34090  288.38 0855.13
2009/04/23 09:04:03.6    -148    -77    -51    167    174 242.5 -22.5  34084  288.28 0855.13
2009/04/23 09:04:03.7    -170    -43    -61    176    187 255.6 -19.1  34086  288.31 0855.13
2009/04/23 09:04:03.8    -147    -44    -50    154    163 253.2 -18.1  34086  288.31 0855.13
2009/04/23 09:04:03.9    -131    -52    -13    142    143 248.2  -5.6  34082  288.25 0855.13
2009/04/23 09:04:04.0    -133    -66    -24    149    152 243.4  -9.4  34090  288.40 0855.13
2009/04/23 09:04:04.1    -125   -103    -46    163    170 230.5 -16.0  34088  288.36 0855.13
2009/04/23 09:04:04.2    -101   -100    -46    143    151 225.1 -18.1  34092  288.43 0855.13
2009/04/23 09:04:04.3     -94   -104    -43    141    147 221.9 -21.8  34092  288.43 0855.13
2009/04/23 09:04:04.4    -108    -70    -43    129    137 237.1 -18.7  34092  288.42 0855.13
2009/04/23 09:04:04.5    -112    -89    -41    144    150 231.4 -16.0  34090  288.40 0855.13
2009/04/23 09:04:04.6    -107    -81    -38    135    140 232.7 -20.2  34092  288.43 0855.13
2009/04/23 09:04:04.7    -105    -82    -43    134    140 232.2 -23.3  34092  288.43 0855.13
2009/04/23 09:04:04.8    -110    -79    -39    136    141 234.1 -20.2  34092  288.43 0855.13
2009/04/23 09:04:04.9    -115    -73    -39    137    142 237.6 -20.7  34094  288.45 0855.13
2009/04/23 09:04:05.0     -84    -84    -35    120    125 225.1 -21.7  34090  288.38 0855.13
2009/04/23 09:04:05.1     -60    -77    -39     98    105 217.8 -27.4  34090  288.40 0855.13
2009/04/23 09:04:05.2     -44    -71    -38     84     92 212.1 -30.6  34092  288.42 0855.13
2009/04/23 09:04:05.3     -56    -63    -31     85     90 221.4 -25.4  34086  288.33 0855.13
2009/04/23 09:04:05.4     -54    -85    -20    101    104 212.5 -11.5  34088  288.35 0855.13
2009/04/23 09:04:05.5     -41   -117     10    125    126 199.6   4.9  34086  288.33 0855.13
2009/04/23 09:04:05.6     -52   -130      3    141    142 201.8   1.2  34084  288.28 0855.13
2009/04/23 09:04:05.7     -58   -121     -9    135    136 205.9  -4.1  34080  288.21 0855.13
2009/04/23 09:04:05.8     -60   -127     -4    141    142 205.3  -1.8  34082  288.25 0855.13
2009/04/23 09:04:05.9     -52   -130      3    141    142 201.8   1.2  34084  288.28 0855.13
2009/04/23 09:04:06.0     -73   -152    -19    169    171 205.6  -6.7  34082  288.26 0855.13
2009/04/23 09:04:06.1     -68   -158    -34    173    177 203.4 -11.1  34088  288.35 0855.13
2009/04/23 09:04:06.2     -57   -152    -27    163    166 200.5  -9.6  34088  288.36 0855.13
2009/04/23 09:04:06.3     -65   -184     -8    196    197 199.6  -2.6  34090  288.40 0855.13
2009/04/23 09:04:06.4     -51   -195    -21    202    204 194.7  -6.0  34088  288.36 0855.13
2009/04/23 09:04:06.5     -41   -202     -8    207    208 191.6  -2.2  34088  288.36 0855.13
2009/04/23 09:04:06.6     -36   -195    -24    199    201 190.5  -6.9  34088  288.36 0855.13
2009/04/23 09:04:06.7     -25   -182     -1    184    185 188.0  -0.5  34090  288.38 0855.13
2009/04/23 09:04:06.8     -21   -173     -7    175    176 187.1  -2.3  34090  288.40 0855.13
2009/04/23 09:04:06.9     -10   -143    -16    144    145 184.0  -6.7  34090  288.38 0855.13
2009/04/23 09:04:07.0       7   -144     12    145    146 176.9   4.9  34090  288.38 0855.13
2009/04/23 09:04:07.1      30   -144     38    148    153 168.0  14.7  34088  288.36 0855.13
2009/04/23 09:04:07.2      25   -141     50    144    153 169.8  19.4  34088  288.35 0855.13
2009/04/23 09:04:07.3      21   -141     49    143    152 171.5  19.2  34086  288.31 0855.13
2009/04/23 09:04:07.4      11   -147     29    148    151 175.5  11.1  34090  288.38 0855.13
2009/04/23 09:04:07.5       6   -144     17    145    147 177.3   6.9  34090  288.38 0855.13
2009/04/23 09:04:07.6     -30   -126     11    130    131 193.4   5.0  34090  288.40 0855.13
2009/04/23 09:04:07.7     -32   -125     -2    130    131 194.7  -1.3  34092  288.42 0855.13
2009/04/23 09:04:07.8     -19   -129     -5    131    132 188.5  -2.2  34090  288.38 0855.13
2009/04/23 09:04:07.9       3   -124     29    125    129 178.2  13.2  34086  288.33 0855.13
2009/04/23 09:04:08.0      -3   -148     28    149    152 181.4  11.0  34088  288.36 0855.13
2009/04/23 09:04:08.1     -10   -133     31    134    138 184.4  13.1  34086  288.33 0855.13
2009/04/23 09:04:08.2      -1   -134     36    135    140 180.8  15.3  34088  288.36 0855.13
2009/04/23 09:04:08.3      12   -141     17    142    144 175.1   6.9  34092  288.42 0855.13
2009/04/23 09:04:08.4      11   -161     12    162    163 175.8   4.4  34092  288.43 0855.13
2009/04/23 09:04:08.5     -32   -128    -16    133    135 194.3  -7.2  34090  288.38 0855.13
2009/04/23 09:04:08.6     -19   -117    -15    119    120 189.3  -7.2  34092  288.42 0855.13
2009/04/23 09:04:08.7       9   -118     -2    119    120 175.6  -1.3  34092  288.42 0855.13
2009/04/23 09:04:08.8      26   -136     16    139    141 168.9   6.9  34092  288.42 0855.13
2009/04/23 09:04:08.9      10   -138     22    139    141 175.5   9.0  34088  288.35 0855.13
2009/04/23 09:04:09.0      16   -162     17    163    164 174.2   6.1  34090  288.38 0855.13
2009/04/23 09:04:09.1       2   -148      7    149    150 179.0   2.9  34090  288.40 0855.12
2009/04/23 09:04:09.2      -3   -170    -18    171    173 181.1  -6.2  34090  288.40 0855.12
2009/04/23 09:04:09.3      -2   -157     -5    158    159 181.0  -2.1  34090  288.40 0855.12
2009/04/23 09:04:09.4      13   -163     -5    164    165 175.1  -1.8  34094  288.45 0855.12
2009/04/23 09:04:09.5       0   -185    -12    186    187 180.0  -3.9  34094  288.45 0855.12
2009/04/23 09:04:09.6     -18   -185    -22    186    188 185.6  -6.9  34092  288.43 0855.12
2009/04/23 09:04:09.7     -15   -193    -24    194    196 184.5  -7.2  34094  288.45 0855.12
2009/04/23 09:04:09.8      -7   -195    -25    196    198 182.2  -7.3  34092  288.43 0855.12
2009/04/23 09:04:09.9       3   -223    -50    224    230 179.0 -12.6  34088  288.36 0855.12
2009/04/23 09:04:10.0       0   -213    -13    214    215 180.2  -3.7  34090  288.40 0855.12
2009/04/23 09:04:10.1       0   -212    -50    213    219 180.2 -13.4  34094  288.47 0855.12
2009/04/23 09:04:10.2      -9   -201    -65    202    212 182.7 -23.0  34098  288.52 0855.12
2009/04/23 09:04:10.3       0   -208    -70    209    221 180.2 -18.7  34096  288.48 0855.12
2009/04/23 09:04:10.4     -12   -260    -30    261    263 182.7  -6.7  34096  288.48 0855.12
2009/04/23 09:04:10.5     -42   -270    -15    274    275 188.9  -3.2  34094  288.46 0855.12
2009/04/23 09:04:10.6       3   -245    -63    246    254 179.1 -14.4  34094  288.44 0855.12
2009/04/23 09:04:10.7     -26   -244    -39    246    250 186.2  -9.0  34096  288.49 0855.12
2009/04/23 09:04:10.8     -27   -246    -40    248    252 186.3  -9.3  34098  288.51 0855.12
2009/04/23 09:04:10.9     -39   -260    -14    263    264 188.7  -3.1  34096  288.48 0855.12
2009/04/23 09:04:11.0     -32   -258     -7    261    262 187.1  -1.6  34094  288.46 0855.12
2009/04/23 09:04:11.1     -30   -246    -22    248    250 187.1  -5.1  34096  288.48 0855.12
2009/04/23 09:04:11.2     -41   -237    -25    241    243 190.0  -6.1  34096  288.49 0855.12
2009/04/23 09:04:11.3     -69   -238    -22    248    250 196.3  -5.2  34096  288.49 0855.12
2009/04/23 09:04:11.4     -79   -210    -32    225    228 200.7  -8.2  34096  288.48 0855.12
2009/04/23 09:04:11.5     -78   -194    -49    210    216 202.1 -13.2  34096  288.48 0855.12
2009/04/23 09:04:11.6     -93   -171    -47    195    201 208.7 -13.7  34096  288.48 0855.12
2009/04/23 09:04:11.7     -80   -178    -65    196    207 204.3 -18.3  34096  288.48 0855.12
2009/04/23 09:04:11.8     -74   -186    -60    201    210 201.8 -16.6  34096  288.48 0855.12
2009/04/23 09:04:11.9     -73   -193    -49    207    213 200.9 -13.4  34094  288.45 0855.12
2009/04/23 09:04:12.0     -63   -186    -47    197    203 198.9 -13.4  34096  288.48 0855.12
2009/04/23 09:04:12.1     -83   -186    -66    204    214 204.1 -23.6  34096  288.50 0855.12
2009/04/23 09:04:12.2    -110   -165    -79    199    214 213.6 -27.2  34096  288.50 0855.12
2009/04/23 09:04:12.3     -98   -136   -100    168    195 215.8 -37.9  34094  288.47 0855.12
2009/04/23 09:04:12.4     -94   -133    -94    163    188 215.2 -37.1  34100  288.55 0855.12
2009/04/23 09:04:12.5     -87   -143    -57    168    177 211.4 -23.6  34096  288.48 0855.12
2009/04/23 09:04:12.6     -85   -161    -53    183    191 207.9 -16.4  34096  288.50 0855.12
2009/04/23 09:04:12.7     -81   -163    -63    183    194 206.5 -19.1  34096  288.48 0855.12
2009/04/23 09:04:12.8     -66   -163    -40    176    181 202.1 -12.9  34098  288.52 0855.12
2009/04/23 09:04:12.9     -66   -154    -48    168    175 203.2 -16.0  34096  288.48 0855.12
2009/04/23 09:04:13.0     -75   -153    -43    171    177 206.3 -14.3  34096  288.48 0855.12
2009/04/23 09:04:13.1     -66   -154    -31    168    171 203.2 -10.5  34096  288.48 0855.11
2009/04/23 09:04:13.2     -71   -157     -6    173    174 204.3  -2.2  34096  288.50 0855.11
2009/04/23 09:04:13.3     -66   -154    -31    168    171 203.2 -10.5  34096  288.48 0855.11
2009/04/23 09:04:13.4     -63   -136    -60    151    162 204.9 -26.9  34096  288.48 0855.11
2009/04/23 09:04:13.5     -61   -129    -58    143    154 205.3 -27.4  34096  288.48 0855.11
2009/04/23 09:04:13.6     -76   -162    -82    180    197 205.3 -30.6  34100  288.55 0855.11
2009/04/23 09:04:13.7    -100   -148    -54    179    188 214.1 -17.0  34100  288.55 0855.11
2009/04/23 09:04:13.8    -130   -203    -20    242    243 212.6  -4.9  34102  288.58 0855.11
2009/04/23 09:04:13.9    -141   -216    -10    259    260 213.2  -2.2  34098  288.51 0855.11
2009/04/23 09:04:14.0    -122   -201    -33    236    239 211.2  -8.0  34098  288.51 0855.11
2009/04/23 09:04:14.1    -119   -197    -38    231    235 211.0  -9.3  34100  288.56 0855.11
2009/04/23 09:04:14.2    -104   -197    -48    224    230 207.9 -12.2  34096  288.50 0855.11
2009/04/23 09:04:14.3    -106   -191    -54    219    226 209.2 -13.9  34094  288.47 0855.11
2009/04/23 09:04:14.4    -121   -221    -51    252    258 208.7 -11.5  34096  288.49 0855.11
2009/04/23 09:04:14.5    -115   -208    -58    239    246 209.0 -13.7  34096  288.48 0855.11
2009/04/23 09:04:14.6    -180   -149    -37    234    237 230.4  -9.0  34094  288.44 0855.11
2009/04/23 09:04:14.7    -120   -169    -57    208    216 215.4 -15.4  34092  288.42 0855.11
2009/04/23 09:04:14.8    -132   -133    -52    188    196 224.8 -15.5  34092  288.43 0855.11
2009/04/23 09:04:15.0    -113   -135    -58    177    186 219.9 -23.8  34090  288.40 0855.11
2009/04/23 09:04:15.0     -30   -190     20    193    195 189.1   5.9  34086  288.33 0855.11
2009/04/23 09:04:15.2     -35   -165     19    169    171 192.0   6.5  34092  288.43 0855.12
2009/04/23 09:04:15.3     -62   -176     -9    187    188 199.4  -2.8  34090  288.38 0855.12
2009/04/23 09:04:15.4     -64   -146      0    160    161 203.6  -0.3  34090  288.38 0855.12
2009/04/23 09:04:15.5     -57   -173    -15    183    184 198.3  -4.9  34092  288.42 0855.12
2009/04/23 09:04:15.6     -64   -207    -48    217    223 197.4 -12.6  34098  288.53 0855.12
2009/04/23 09:04:15.7     -61   -192    -43    202    207 197.6 -12.2  34096  288.50 0855.12
2009/04/23 09:04:15.8     -50   -160    -55    168    176 197.4 -23.6  34100  288.57 0855.12
2009/04/23 09:04:15.9     -96   -143   -100    173    199 213.8 -37.1  34100  288.57 0855.12
2009/04/23 09:04:15.9     -71   -152    -91    168    191 205.2 -35.2  34100  288.55 0855.12
2009/04/23 09:04:16.1     -44   -151    -93    158    183 196.5 -37.9  34098  288.53 0855.12
2009/04/23 09:04:16.2     -54   -207    -86    214    230 194.7 -27.4  34094  288.45 0855.12
2009/04/23 09:04:16.3     -74   -218    -35    231    234 198.7  -8.8  34092  288.43 0855.12
2009/04/23 09:04:16.4     -64   -195    -41    206    211 198.3 -11.3  34094  288.45 0855.12
2009/04/23 09:04:16.5     -32   -196    -51    199    206 189.3 -14.5  34094  288.45 0855.12
2009/04/23 09:04:16.6     -44   -164    -31    170    173 195.1 -10.5  34092  288.43 0855.12
2009/04/23 09:04:16.7     -39   -171    -48    176    183 193.1 -15.4  34094  288.45 0855.12
2009/04/23 09:04:16.8     -87   -143    -57    168    178 211.4 -18.7  34096  288.50 0855.12
2009/04/23 09:04:16.9    -120   -156    -70    198    211 217.6 -19.6  34092  288.42 0855.12
2009/04/23 09:04:17.0    -114   -202    -29    233    235 209.4  -7.3  34096  288.49 0855.12
2009/04/23 09:04:17.1    -136   -182    -75    228    241 216.7 -18.3  34110  288.71 0855.12
2009/04/23 09:04:17.2    -117   -165    -59    203    211 215.2 -21.2  34102  288.60 0855.13
2009/04/23 09:04:17.3    -127   -170    -72    213    225 216.7 -18.7  34102  288.60 0855.13
2009/04/23 09:04:17.4    -127   -108    -67    167    179 229.6 -27.4  34102  288.60 0855.13
2009/04/23 09:04:17.5    -173   -149    -67    229    238 229.1 -21.2  34098  288.51 0855.13
2009/04/23 09:04:17.6    -187   -148    -93    239    256 231.6 -26.9  34106  288.66 0855.13
2009/04/23 09:04:17.7    -198   -136    -98    241    260 235.6 -27.5  34104  288.61 0855.13
2009/04/23 09:04:17.8    -177   -122   -117    216    245 235.4 -35.0  34108  288.70 0855.13
2009/04/23 09:04:17.9    -127   -115   -102    172    199 227.8 -37.9  34112  288.75 0855.13
2009/04/23 09:04:18.0    -126   -104    -96    164    190 230.5 -37.5  34108  288.69 0855.13
2009/04/23 09:04:18.1     -76   -100    -87    126    153 217.4 -42.0  34106  288.67 0855.13
2009/04/23 09:04:18.2     -82    -79    -87    115    144 226.0 -45.1  34104  288.62 0855.13
2009/04/23 09:04:18.3     -52    -98    -77    112    135 208.1 -42.0  34096  288.50 0855.13
2009/04/23 09:04:18.4     -94    -84    -81    127    150 228.2 -40.0  34094  288.45 0855.13
2009/04/23 09:04:18.5     -47    -93    -51    105    116 207.2 -31.7  34092  288.43 0855.13
2009/04/23 09:04:18.6     -43    -92    -68    102    122 204.9 -41.8  34094  288.47 0855.13
2009/04/23 09:04:18.7     -60    -95    -72    113    133 212.6 -39.9  34096  288.48 0855.13
2009/04/23 09:04:18.8     -34   -103    -76    109    132 198.7 -42.4  34096  288.48 0855.13
2009/04/23 09:04:18.9     -50    -79    -61     94    112 212.6 -40.0  34096  288.48 0855.13
2009/04/23 09:04:19.0     -20   -100    -40    103    110 191.6 -26.9  34092  288.43 0855.13
2009/04/23 09:04:19.1      -2    -94    -44     95    104 181.8 -31.0  34096  288.48 0855.13
2009/04/23 09:04:19.2       6    -78    -35     79     86 175.6 -29.5  34096  288.48 0855.13
2009/04/23 09:04:19.3      10    -52    -33     54     63 168.5 -38.8  34094  288.47 0855.13
2009/04/23 09:04:19.4      24    -83    -54     87    102 164.0 -39.4  34094  288.45 0855.13
2009/04/23 09:04:19.5      66   -120    -44    138    144 151.0 -23.8  34094  288.47 0855.13
2009/04/23 09:04:19.6      89    -84    -25    123    126 133.2 -11.9  34096  288.48 0855.13
2009/04/23 09:04:19.7      22    -56    -24     61     65 158.2 -27.4  34094  288.45 0855.13
2009/04/23 09:04:19.8     -22    -69    -66     73     98 198.3 -51.9  34092  288.43 0855.13
2009/04/23 09:04:19.9     -13    -45    -81     48     94 196.9 -70.6  34096  288.48 0855.13
2009/04/23 09:04:20.0     -54     -7    -53     55     76 262.1 -54.4  34096  288.48 0855.13
2009/04/23 09:04:20.1     -48     -3    -60     49     77 265.6 -60.8  34098  288.52 0855.13
2009/04/23 09:04:20.2      -7    -35    -56     36     66 191.6 -69.0  34100  288.55 0855.13
2009/04/23 09:04:20.3     -18    -20    -59     28     65 221.4 -77.3  34096  288.50 0855.13
2009/04/23 09:04:20.4      -6    -31    -50     32     59 191.5 -69.0  34098  288.53 0855.13
2009/04/23 09:04:20.5      24    -81    -31     85     90 163.5 -25.4  34096  288.48 0855.13
2009/04/23 09:04:20.6      20    -62     -7     66     67 161.7  -6.2  34096  288.48 0855.13
2009/04/23 09:04:20.7      17    -53    -10     56     57 161.5 -10.3  34096  288.48 0855.13
2009/04/23 09:04:20.8      12    -60    -17     62     65 168.4 -15.5  34096  288.48 0855.13
2009/04/23 09:04:20.9     -15    -77    -22     79     82 191.6 -20.2  34094  288.47 0855.13
2009/04/23 09:04:21.0     -26    -80    -27     85     90 198.3 -17.6  34094  288.45 0855.13
2009/04/23 09:04:21.1     -56   -101    -23    116    119 209.0 -11.3  34094  288.45 0855.13
2009/04/23 09:04:21.2     -51   -111    -14    123    124 204.5  -6.7  34096  288.48 0855.13
2009/04/23 09:04:21.3     -68   -112     -5    132    133 211.2  -2.2  34094  288.47 0855.13
2009/04/23 09:04:21.4     -58   -118     11    132    133 206.3   5.0  34094  288.47 0855.13
2009/04/23 09:04:21.5     -50   -112     14    123    124 204.1   6.9  34096  288.48 0855.13
2009/04/23 09:04:21.6     -39    -70     16     81     83 209.0  11.6  34094  288.47 0855.13
2009/04/23 09:04:21.7     -23    -77      1     81     82 196.5   0.8  34096  288.48 0855.13
2009/04/23 09:04:21.8     -35    -64    -34     74     81 208.9 -30.6  34094  288.47 0855.13
2009/04/23 09:04:21.9     -33   -140    -28    144    147 193.4 -11.3  34096  288.48 0855.13
2009/04/23 09:04:22.0     -59   -144    -27    156    159 202.3 -10.1  34094  288.47 0855.13
2009/04/23 09:04:22.1     -44   -171      5    177    178 194.5   1.8  34094  288.45 0855.13
2009/04/23 09:04:22.2     -81   -212      0    227    228 200.9   0.0  34094  288.45 0855.13
2009/04/23 09:04:22.3     -94   -217    -18    237    238 203.6  -4.4  34096  288.49 0855.13
2009/04/23 09:04:22.4    -125   -196    -26    233    235 212.6  -6.5  34096  288.48 0855.13
2009/04/23 09:04:22.5     -53   -209    -14    216    217 194.3  -3.7  34096  288.48 0855.13
2009/04/23 09:04:22.6     -51   -190      0    197    198 195.2   0.0  34094  288.47 0855.13
2009/04/23 09:04:22.7     -57   -212    -10    220    221 195.2  -2.6  34098  288.52 0855.13
2009/04/23 09:04:22.8     -75   -223    -35    236    239 198.7  -8.6  34096  288.49 0855.13
2009/04/23 09:04:22.9     -75   -207    -20    221    222 200.0  -5.2  34094  288.45 0855.13
2009/04/23 09:04:23.0     -20   -182    -23    184    186 186.5  -7.3  34096  288.50 0855.13
2009/04/23 09:04:23.1      -9   -212     10    213    214 182.5   2.9  34096  288.50 0855.13
2009/04/23 09:04:23.2     -47   -184    -25    191    193 194.5  -7.5  34096  288.48 0855.13
2009/04/23 09:04:23.3      -9   -150     12    151    152 183.6   4.9  34096  288.48 0855.13
2009/04/23 09:04:23.4       9   -119     36    120    126 175.6  16.8  34096  288.48 0855.13
2009/04/23 09:04:23.5      11   -135     41    136    143 175.1  16.8  34098  288.53 0855.13
2009/04/23 09:04:23.6      12   -156     42    157    163 175.5  15.0  34096  288.50 0855.13
2009/04/23 09:04:23.7       6   -157     51    158    167 177.8  18.1  34098  288.53 0855.13
2009/04/23 09:04:23.8       4   -183     63    184    195 178.6  18.9  34098  288.52 0855.13
2009/04/23 09:04:23.9      17   -218     44    219    224 175.5  11.6  34092  288.43 0855.13
2009/04/23 09:04:24.0      -8   -213     41    214    219 182.2  11.0  34094  288.45 0855.13
2009/04/23 09:04:24.1     -31   -221     54    224    231 188.1  13.7  34090  288.40 0855.13
2009/04/23 09:04:24.2       7   -217     20    218    220 178.0   5.4  34092  288.42 0855.13
2009/04/23 09:04:24.3      27   -249     26    251    253 173.8   6.0  34102  288.58 0855.13
2009/04/23 09:04:24.4      46   -239     32    244    247 169.1   7.5  34102  288.59 0855.13
2009/04/23 09:04:24.5      84   -223     61    239    247 159.3  14.5  34100  288.56 0855.13
2009/04/23 09:04:24.6      95   -241     71    260    270 158.4  15.3  34102  288.59 0855.13
2009/04/23 09:04:24.7      99   -263     76    282    293 159.3  15.2  34102  288.59 0855.13
2009/04/23 09:04:24.8     108   -307     93    326    340 160.6  16.0  34100  288.57 0855.13
2009/04/23 09:04:24.9     125   -297     95    323    337 157.2  16.5  34100  288.55 0855.13
2009/04/23 09:04:25.0     149   -259     98    299    315 150.1  18.1  34096  288.49 0855.13
2009/04/23 09:04:25.1     195   -224     39    298    301 139.0   7.5  34096  288.48 0855.13
2009/04/23 09:04:25.2     123   -283    110    309    327 156.4  20.3  34102  288.58 0855.14
2009/04/23 09:04:25.3     146   -253     45    293    297 150.1   8.9  34098  288.51 0855.14
2009/04/23 09:04:25.4     130   -236     39    270    273 151.0   8.2  34094  288.44 0855.14
2009/04/23 09:04:25.5     115   -224     68    252    262 152.8  15.2  34096  288.49 0855.14
2009/04/23 09:04:25.6      71   -252     17    262    263 164.2   3.9  34092  288.43 0855.14
2009/04/23 09:04:25.7      69   -256     15    266    267 164.9   3.3  34094  288.44 0855.14
2009/04/23 09:04:25.8      95   -227    -28    247    249 157.3  -6.5  34088  288.36 0855.14
2009/04/23 09:04:25.9      85   -214    -25    231    233 158.2  -6.2  34088  288.35 0855.14
2009/04/23 09:04:26.0     100   -193    -48    218    224 152.6 -12.6  34096  288.48 0855.14
2009/04/23 09:04:26.1      86   -196     -6    215    216 156.4  -1.6  34098  288.52 0855.14
2009/04/23 09:04:26.2      73   -185     59    199    208 158.4  16.6  34098  288.52 0855.14
2009/04/23 09:04:26.3      66   -204     41    215    220 162.0  11.0  34100  288.57 0855.14
2009/04/23 09:04:26.4      49   -211     26    217    219 166.9   6.9  34096  288.50 0855.14
2009/04/23 09:04:26.5      55   -207     27    215    217 165.1   7.2  34092  288.43 0855.14
2009/04/23 09:04:26.6      69   -243     35    253    256 164.0   8.0  34076  288.15 0855.14
2009/04/23 09:04:26.7      81   -239     25    253    255 161.1   5.7  34078  288.17 0855.14
2009/04/23 09:04:26.8      85   -235     -5    251    252 160.0  -1.2  34076  288.15 0855.14
2009/04/23 09:04:26.9      46   -230     -9    235    236 168.5  -2.3  34082  288.24 0855.14
2009/04/23 09:04:27.0      39   -228     11    232    233 170.2   2.8  34070  288.06 0855.14
2009/04/23 09:04:27.1      59   -231     15    239    240 165.5   3.8  34072  288.07 0855.14
2009/04/23 09:04:27.2      64   -233     -8    242    243 164.6  -2.1  34074  288.10 0855.14
2009/04/23 09:04:27.3      61   -228    -25    237    239 164.9  -6.2  34076  288.15 0855.14
2009/04/23 09:04:27.4      67   -235    -18    245    246 164.0  -4.4  34082  288.24 0855.14
2009/04/23 09:04:27.5      75   -243    -11    255    256 162.8  -2.6  34076  288.14 0855.14
2009/04/23 09:04:27.6      87   -258     -5    273    274 161.3  -1.1  34066  287.99 0855.14
2009/04/23 09:04:27.7      67   -246      2    256    257 164.6   0.5  34072  288.09 0855.14
2009/04/23 09:04:27.8      40   -235     28    239    241 170.2   6.7  34086  288.31 0855.14
2009/04/23 09:04:27.9      17   -226     27    227    229 175.5   6.9  34088  288.35 0855.14
2009/04/23 09:04:28.0      10   -208     -4    209    210 177.1  -1.2  34084  288.28 0855.14
2009/04/23 09:04:28.1     -66   -184    -50    196    203 199.8 -14.5  34088  288.35 0855.14
2009/04/23 09:04:28.3     -65   -213    -40    223    227 197.2 -10.3  34086  288.33 0855.14
2009/04/23 09:04:28.4     -35   -253    -10    256    257 188.0  -2.3  34090  288.37 0855.14
2009/04/23 09:04:28.4       7   -249     -1    250    251 178.2  -0.3  34090  288.37 0855.14
2009/04/23 09:04:28.5     -32   -233     12    236    237 188.0   2.9  34082  288.26 0855.14
2009/04/23 09:04:28.6     -77   -276     19    287    288 195.6   3.8  34078  288.17 0855.14
2009/04/23 09:04:28.7     -94   -250     37    268    271 200.7   8.0  34080  288.21 0855.14
2009/04/23 09:04:28.8     -89   -253     13    269    270 199.4   2.9  34078  288.17 0855.14
2009/04/23 09:04:28.9     -84   -254      0    268    269 198.5   0.0  34078  288.19 0855.14
2009/04/23 09:04:29.0     -92   -230     25    248    250 201.8   5.9  34078  288.19 0855.14
2009/04/23 09:04:29.1     -84   -214     35    231    234 201.6   8.8  34078  288.20 0855.14
2009/04/23 09:04:29.2     -72   -235    -23    246    248 197.2  -5.4  34074  288.12 0855.14
2009/04/23 09:04:29.3     -62   -253    -15    261    262 193.8  -3.3  34080  288.21 0855.14
2009/04/23 09:04:29.4     -65   -265    -19    273    274 193.8  -4.1  34078  288.19 0855.14
2009/04/23 09:04:29.5     -33   -269     -2    272    273 187.1  -0.5  34076  288.15 0855.14
2009/04/23 09:04:29.6     -28   -260     -5    262    263 186.2  -1.2  34084  288.27 0855.14
2009/04/23 09:04:29.7     -10   -229     27    230    232 182.5   6.7  34076  288.16 0855.14
2009/04/23 09:04:29.8     -10   -212     25    213    215 182.9   6.9  34084  288.28 0855.14
2009/04/23 09:04:29.9     -36   -206     26    210    212 190.0   7.2  34080  288.23 0855.14
2009/04/23 09:04:30.0      -7   -217     11    218    219 182.0   3.1  34080  288.23 0855.14
2009/04/23 09:04:30.1       0   -244      4    245    246 180.0   1.0  34088  288.34 0855.14
2009/04/23 09:04:30.2      -7   -244     -5    245    246 181.8  -1.3  34088  288.34 0855.14
2009/04/23 09:04:30.3      -3   -250     35    251    254 180.7   8.0  34084  288.29 0855.14
2009/04/23 09:04:30.4      19   -206     56    207    215 174.7  15.3  34080  288.23 0855.14
2009/04/23 09:04:30.5      31   -224     33    227    230 172.0   8.5  34082  288.25 0855.14
2009/04/23 09:04:30.6      22   -192     41    194    199 173.3  12.0  34082  288.25 0855.14
2009/04/23 09:04:30.7      16   -183     35    184    188 174.9  11.0  34082  288.25 0855.14
2009/04/23 09:04:30.8      36   -176     23    180    182 168.4   7.5  34084  288.30 0855.14
2009/04/23 09:04:30.9       3   -186     44    187    193 179.0  13.2  34086  288.31 0855.14
2009/04/23 09:04:31.0     -28   -212     54    214    221 187.6  14.3  34086  288.31 0855.14
2009/04/23 09:04:31.1       3   -232     61    233    241 179.1  14.7  34086  288.32 0855.14
2009/04/23 09:04:31.2      16   -249     35    250    253 176.2   8.0  34086  288.32 0855.14
2009/04/23 09:04:31.3      35   -299      1    302    303 173.3   0.2  34086  288.31 0855.14
2009/04/23 09:04:31.4      20   -280    -16    281    282 175.8  -3.3  34086  288.31 0855.14
2009/04/23 09:04:31.5      20   -264    -33    265    268 175.5  -7.2  34086  288.31 0855.14
2009/04/23 09:04:31.6      24   -258    -12    260    261 174.7  -2.8  34086  288.32 0855.14
2009/04/23 09:04:31.7      11   -252     -9    253    254 177.3  -2.2  34086  288.32 0855.14
2009/04/23 09:04:31.8      18   -241     12    242    243 175.5   2.9  34088  288.34 0855.14
2009/04/23 09:04:31.9      35   -229    -15    232    233 171.3  -3.7  34088  288.36 0855.14
2009/04/23 09:04:32.0      50   -205     47    212    218 166.2  12.6  34088  288.36 0855.14
2009/04/23 09:04:32.1       0   -213     37    214    218 180.2   9.9  34086  288.33 0855.14
2009/04/23 09:04:32.2       3   -209    -11    210    211 179.0  -3.1  34084  288.30 0855.14
2009/04/23 09:04:32.3     -38   -201    -18    205    206 190.7  -5.2  34088  288.35 0855.14
2009/04/23 09:04:32.4     -48   -180    -46    187    193 195.1 -13.9  34088  288.36 0855.14
2009/04/23 09:04:32.5     -53   -190    -34    198    201 195.6  -9.8  34088  288.36 0855.14
2009/04/23 09:04:32.6     -21   -200    -30    202    205 186.0  -8.6  34088  288.36 0855.14
2009/04/23 09:04:32.7     -14   -187    -22    188    190 184.4  -6.7  34086  288.33 0855.14
2009/04/23 09:04:32.8     -22   -176    -33    178    182 187.3 -10.5  34088  288.35 0855.14
2009/04/23 09:04:32.9     -40   -170    -21    175    177 193.4  -6.9  34088  288.36 0855.14
2009/04/23 09:04:33.0     -32   -169     -1    173    174 190.7  -0.5  34088  288.35 0855.14
2009/04/23 09:04:33.1      10   -204      8    205    206 177.1   2.5  34086  288.33 0855.14
2009/04/23 09:04:33.2       0   -192      9    193    194 180.2   2.9  34088  288.36 0855.14
2009/04/23 09:04:33.3       4   -225     19    226    227 178.9   4.9  34082  288.26 0855.14
2009/04/23 09:04:33.4      32   -244     45    247    252 172.4  10.3  34086  288.31 0855.14
2009/04/23 09:04:33.5      49   -231      7    237    238 168.0   1.8  34086  288.31 0855.14
2009/04/23 09:04:33.6      35   -198    -13    202    203 169.8  -3.7  34086  288.33 0855.14
2009/04/23 09:04:33.7      56   -160     -6    170    171 160.6  -2.2  34090  288.38 0855.14
2009/04/23 09:04:33.8      37   -184    -10    188    189 168.4  -3.2  34086  288.33 0855.14
2009/04/23 09:04:33.9      37   -165    -39    170    175 167.3 -13.2  34088  288.35 0855.14
2009/04/23 09:04:34.0      50   -126    -48    136    145 158.1 -19.7  34086  288.31 0855.14
2009/04/23 09:04:34.1      23   -138    -39    141    147 170.3 -15.5  34086  288.33 0855.14
2009/04/23 09:04:34.2      16   -142     -7    143    144 173.3  -3.1  34084  288.30 0855.14
2009/04/23 09:04:34.3     -10   -131    -30    132    136 184.4 -12.9  34086  288.33 0855.14
2009/04/23 09:04:34.4     -25   -134     -5    137    138 190.7  -2.2  34086  288.31 0855.14
2009/04/23 09:04:34.5     -39    -99    -30    107    112 201.8 -16.0  34084  288.28 0855.14
2009/04/23 09:04:34.6     -74    -98    -30    123    127 217.0 -13.9  34084  288.28 0855.14
2009/04/23 09:04:34.7     -70    -70    -33    100    105 225.0 -23.8  34084  288.30 0855.14
2009/04/23 09:04:34.8     -41    -70    -47     82     94 210.3 -37.3  34084  288.30 0855.14
2009/04/23 09:04:34.9     -32    -98    -62    104    121 198.5 -37.9  34084  288.28 0855.14
2009/04/23 09:04:35.0     -19   -110    -63    112    128 190.2 -36.3  34086  288.31 0855.14
2009/04/23 09:04:35.1     -59    -62    -84     86    120 223.7 -54.4  34086  288.33 0855.14
2009/04/23 09:04:35.2     -42    -64    -90     77    118 213.4 -59.2  34084  288.28 0855.14
2009/04/23 09:04:35.3     -54   -101    -97    115    150 208.5 -48.2  34082  288.26 0855.14
2009/04/23 09:04:35.4     -66   -117   -102    135    169 209.4 -45.3  34084  288.30 0855.14
2009/04/23 09:04:35.5     -85   -115    -72    144    160 216.5 -32.9  34084  288.30 0855.14
2009/04/23 09:04:35.6     -68   -119    -74    138    156 209.9 -34.7  34086  288.31 0855.14
2009/04/23 09:04:35.7     -86   -143    -59    168    178 211.0 -24.4  34086  288.31 0855.14
2009/04/23 09:04:35.8     -50   -149    -47    158    164 198.7 -21.7  34086  288.33 0855.14
2009/04/23 09:04:35.9     -47   -144    -49    152    160 198.3 -18.1  34084  288.28 0855.14
2009/04/23 09:04:36.0     -42   -142    -53    149    158 196.5 -24.8  34086  288.33 0855.14
2009/04/23 09:04:36.1       0   -144    -52    145    155 180.0 -19.7  34086  288.33 0855.14
2009/04/23 09:04:36.2       2   -148    -21    149    151 179.0  -8.2  34084  288.30 0855.14
2009/04/23 09:04:36.3     -16   -117     -2    119    120 188.1  -1.3  34084  288.30 0855.14
2009/04/23 09:04:36.4     -12    -94     -3     95     96 187.6  -2.2  34086  288.31 0855.14
2009/04/23 09:04:36.5     -16    -86    -30     88     92 191.1 -23.3  34086  288.31 0855.14
2009/04/23 09:04:36.6     -24    -81    -36     85     92 196.9 -28.5  34086  288.33 0855.14
2009/04/23 09:04:36.7     -18    -71    -44     74     86 194.3 -38.4  34086  288.33 0855.14
2009/04/23 09:04:36.8     -17    -67    -29     70     75 194.3 -27.5  34088  288.35 0855.14
2009/04/23 09:04:36.9     -17    -67    -29     70     75 194.3 -27.5  34088  288.35 0855.14
2009/04/23 09:04:37.0     -13    -63    -40     65     76 191.6 -39.9  34086  288.33 0855.14
2009/04/23 09:04:37.1     -15    -88    -44     90    100 189.8 -32.2  34084  288.30 0855.14
2009/04/23 09:04:37.2     -26    -84    -25     89     92 197.4 -20.7  34086  288.31 0855.14
2009/04/23 09:04:37.3       0   -100     -3    101    102 180.0  -2.2  34086  288.33 0855.14
2009/04/23 09:04:37.4      28   -104     12    108    109 164.9   6.5  34086  288.33 0855.14
2009/04/23 09:04:37.5      12    -95     26     96    100 172.4  15.3  34086  288.33 0855.14
2009/04/23 09:04:37.6       1   -107     42    108    115 179.1  22.5  34088  288.35 0855.14
2009/04/23 09:04:37.7      11   -106     70    107    127 173.8  36.0  34094  288.45 0855.14
2009/04/23 09:04:37.8      15   -115     77    117    140 172.4  36.5  34092  288.42 0855.14
2009/04/23 09:04:37.9      10   -132     49    133    141 175.6  21.0  34094  288.47 0855.14
2009/04/23 09:04:38.0       0   -148     55    149    158 180.0  21.3  34096  288.48 0855.14
2009/04/23 09:04:38.1       8   -152     63    153    165 176.9  23.6  34096  288.48 0855.14
2009/04/23 09:04:38.2       0   -163     96    164    190 180.2  33.1  34094  288.47 0855.14
2009/04/23 09:04:38.3      10   -131     98    132    164 175.5  40.4  34092  288.43 0855.14
2009/04/23 09:04:38.4      20   -144     69    146    161 171.9  27.0  34092  288.42 0855.14
2009/04/23 09:04:38.5      22   -118     76    121    142 169.3  35.5  34090  288.38 0855.14
2009/04/23 09:04:38.7       9   -118     69    119    137 175.6  32.9  34090  288.40 0855.14
2009/04/23 09:04:38.7      -5   -123     43    124    132 182.6  19.2  34092  288.42 0855.14
2009/04/23 09:04:38.8     -18   -126    -26    128    131 188.1 -11.5  34088  288.36 0855.14
2009/04/23 09:04:38.9     -44   -159     58    166    176 195.6  19.4  34090  288.40 0855.14
2009/04/23 09:04:39.0     -44   -139     23    146    148 197.8   9.0  34092  288.42 0855.14
2009/04/23 09:04:39.1     -31    -92     30     98    103 198.5  17.3  34090  288.40 0855.14
2009/04/23 09:04:39.2     -19    -72     29     75     80 195.1  22.5  34090  288.40 0855.14
2009/04/23 09:04:39.3      21    -64     42     68     79 161.7  35.0  34090  288.40 0855.14
2009/04/23 09:04:39.4      18    -59     68     62     92 163.1  52.7  34092  288.42 0855.14
2009/04/23 09:04:39.5      48    -63     30     80     85 143.0  21.5  34090  288.40 0855.14
2009/04/23 09:04:39.6      40    -75     29     86     91 151.9  18.9  34088  288.36 0855.14
2009/04/23 09:04:39.7      47    -56     39     74     83 140.4  29.8  34090  288.40 0855.14
2009/04/23 09:04:39.9      58    -45     14     74     76 127.8  11.1  34090  288.40 0855.14
2009/04/23 09:04:40.0      60    -45      3     75     76 126.9   2.9  34088  288.36 0855.14
2009/04/23 09:04:40.1      48    -45     -2     67     68 133.1  -2.2  34090  288.40 0855.14
2009/04/23 09:04:40.2      36    -58     29     69     74 148.4  24.1  34088  288.36 0855.14
2009/04/23 09:04:40.2      56    -88     59    105    120 147.5  31.9  34092  288.42 0855.15
2009/04/23 09:04:40.3      62    -91     73    111    132 145.7  36.0  34088  288.35 0855.15
2009/04/23 09:04:40.4      96    -79     72    125    144 129.5  32.9  34090  288.40 0855.15
2009/04/23 09:04:40.5      79    -50     77     94    121 122.5  43.7  34088  288.35 0855.15
2009/04/23 09:04:40.6      65    -62     60     90    108 133.6  36.5  34090  288.38 0855.15
2009/04/23 09:04:40.8      76    -76     53    108    120 135.0  27.8  34090  288.38 0855.15
2009/04/23 09:04:40.8      63    -59     39     87     95 133.6  26.2  34088  288.36 0855.15
2009/04/23 09:04:40.9      29    -77     55     83     99 159.5  36.5  34088  288.35 0855.15
2009/04/23 09:04:41.0      37    -61     33     72     79 148.4  25.7  34090  288.38 0855.15
2009/04/23 09:04:41.1      52    -65     29     84     90 141.3  19.4  34090  288.40 0855.15
2009/04/23 09:04:41.3      30    -51     41     60     72 149.3  37.6  34088  288.35 0855.15
2009/04/23 09:04:41.3      43    -59     24     74     78 143.9  18.4  34090  288.38 0855.15
2009/04/23 09:04:41.4      43    -68     22     81     85 147.5  15.3  34088  288.36 0855.15
2009/04/23 09:04:41.6      34    -72     15     80     82 154.6  11.1  34090  288.40 0855.15
2009/04/23 09:04:41.7      46    -45     39     65     75 134.9  35.5  34088  288.36 0855.15
2009/04/23 09:04:41.8      28    -49     24     57     61 150.1  23.1  34090  288.38 0855.15
2009/04/23 09:04:41.9      18    -30     17     36     39 149.3  26.2  34090  288.38 0855.15
2009/04/23 09:04:41.9       7    -22     15     24     28 161.3  35.5  34090  288.38 0855.15
2009/04/23 09:04:42.1      -1    -11     17     12     20 188.0  60.5  34090  288.38 0855.15
2009/04/23 09:04:42.2     -12     -8     13     15     19 237.6  45.8  34088  288.36 0855.15
2009/04/23 09:04:42.3     -37      7     24     38     44 281.4  35.5  34092  288.42 0855.15
2009/04/23 09:04:42.4     -33     33     21     47     51 315.0  26.2  34086  288.33 0855.15
2009/04/23 09:04:42.5     -36     38     10     53     55 316.8  11.1  34090  288.40 0855.15
2009/04/23 09:04:42.6     -27     23      3     36     37 311.3   4.9  34090  288.40 0855.15
2009/04/23 09:04:42.7     -27      0     20     28     34 270.0  37.6  34088  288.35 0855.15
2009/04/23 09:04:42.8      -3      0     29      4     29 270.0  90.0  34090  288.40 0855.15
2009/04/23 09:04:42.9      -4    -32     28     33     43 188.0  45.8  34090  288.40 0855.15
2009/04/23 09:04:43.0     -19    -30     29     36     46 212.5  42.7  34088  288.35 0855.15
2009/04/23 09:04:43.1     -21    -25     27     33     42 219.6  44.8  34090  288.38 0855.15
2009/04/23 09:04:43.2     -32    -20     32     39     50 237.6  43.7  34088  288.36 0855.15
2009/04/23 09:04:43.3     -45    -27     37     53     64 238.5  38.6  34086  288.33 0855.15
2009/04/23 09:04:43.4     -56    -11     24     58     62 258.5  23.1  34088  288.35 0855.15
2009/04/23 09:04:43.5     -46    -18     25     50     55 248.3  28.2  34088  288.36 0855.15
2009/04/23 09:04:43.6     -38    -73      7     83     84 207.6   4.9  34090  288.40 0855.15
2009/04/23 09:04:43.7     -58    -76     10     96     97 217.4   6.5  34088  288.36 0855.15
2009/04/23 09:04:43.8     -50    -79     57     94    109 212.1  34.4  34088  288.35 0855.15
2009/04/23 09:04:43.9     -65    -81     59    105    120 218.7  31.9  34088  288.35 0855.15
2009/04/23 09:04:44.0     -81    -56     17     99    101 235.4  10.1  34088  288.36 0855.15
2009/04/23 09:04:44.1     -99    -57     22    115    118 240.2  11.1  34090  288.40 0855.15
2009/04/23 09:04:44.2    -126    -64     -2    142    143 242.9  -1.2  34090  288.38 0855.15
2009/04/23 09:04:44.3    -114    -63    -22    131    133 241.2  -9.8  34090  288.38 0855.16
2009/04/23 09:04:44.4    -159    -62    -23    171    173 248.7  -7.7  34088  288.36 0855.16
2009/04/23 09:04:44.5    -161   -100    -45    190    196 238.2 -13.3  34090  288.40 0855.16
2009/04/23 09:04:44.6    -119   -142    -10    186    187 219.9  -3.3  34096  288.48 0855.16
2009/04/23 09:04:44.7     -28   -119    -37    123    129 193.4 -17.0  34092  288.42 0855.16
2009/04/23 09:04:44.8      24   -111     40    114    121 167.5  19.4  34096  288.50 0855.16
2009/04/23 09:04:44.9      -5   -108     59    109    123 182.7  31.3  34104  288.64 0855.16
2009/04/23 09:04:45.0      33   -162     53    166    175 168.4  17.7  34100  288.57 0855.16
2009/04/23 09:04:45.1      14   -157     43    158    164 174.7  15.3  34100  288.55 0855.16
2009/04/23 09:04:45.2      12   -157      6    158    159 175.5   2.5  34098  288.53 0855.16
2009/04/23 09:04:45.3      10   -137      7    138    139 175.5   2.9  34094  288.45 0855.16
2009/04/23 09:04:45.4      18   -100    -37    102    108 169.8 -24.8  34096  288.50 0855.16
2009/04/23 09:04:45.5      16    -80    -27     82     86 168.4 -23.8  34096  288.48 0855.16
2009/04/23 09:04:45.6      41    -62    -21     75     77 146.6 -20.7  34092  288.42 0855.16
2009/04/23 09:04:45.7      52    -59    -28     80     84 138.6 -23.8  34096  288.48 0855.16
2009/04/23 09:04:45.8      81    -69    -62    107    123 130.4 -37.8  34096  288.50 0855.16
2009/04/23 09:04:45.9     115    -63    -57    132    143 118.8 -29.0  34094  288.45 0855.16
2009/04/23 09:04:46.0     124    -49    -51    134    143 111.7 -25.9  34094  288.47 0855.16
2009/04/23 09:04:46.1     128    -38    -49    134    142 106.8 -25.3  34094  288.47 0855.16
2009/04/23 09:04:46.2     171     -2    -35    172    176  90.8 -11.6  34094  288.45 0855.16
2009/04/23 09:04:46.3     190     63    -21    201    203  71.6  -6.2  34098  288.53 0855.15
2009/04/23 09:04:46.4     214    105     31    239    242  63.8   7.5  34094  288.46 0855.15
2009/04/23 09:04:46.5     225    141     92    266    282  57.8  19.2  34100  288.54 0855.15
2009/04/23 09:04:46.6     195     65    135    206    246  71.6  36.3  34094  288.44 0855.15
2009/04/23 09:04:46.7     105     22     78    108    133  78.1  39.5  34090  288.40 0855.15
2009/04/23 09:04:46.8     180    -63    -10    191    192 109.3  -3.1  34092  288.43 0855.15
2009/04/23 09:04:46.9     213    -61     25    222    224 106.2   6.5  34092  288.43 0855.15
2009/04/23 09:04:47.0     190    -63     31    201    204 108.4   8.9  34096  288.48 0855.15
2009/04/23 09:04:47.1     179      0     35    180    184  90.0  11.1  34092  288.43 0855.15
2009/04/23 09:04:47.2     210     43     41    215    219  78.3  10.8  34092  288.43 0855.15
2009/04/23 09:04:47.3     180      5     63    181    192  88.1  19.2  34090  288.38 0855.15
2009/04/23 09:04:47.4     192    -21     10    194    195  96.4   3.1  34090  288.38 0855.15
2009/04/23 09:04:47.5     244    -38     28    248    250  99.0   6.5  34094  288.46 0855.15
2009/04/23 09:04:47.6     234     15     41    235    239  86.1  10.1  34092  288.43 0855.15
2009/04/23 09:04:47.7     243      0     38    244    248  90.0   8.9  34094  288.44 0855.15
2009/04/23 09:04:47.8     261     19     57    262    269  85.7  12.4  34090  288.39 0855.15
2009/04/23 09:04:47.9     264     -3     71    265    275  90.8  15.0  34094  288.46 0855.15
2009/04/23 09:04:48.0     276     16     79    277    289  86.5  16.0  34092  288.41 0855.15
2009/04/23 09:04:48.1     299     22      1    300    301  85.7   0.2  34090  288.39 0855.15
2009/04/23 09:04:48.2     298     37     14    301    302  82.8   2.8  34092  288.43 0855.15
2009/04/23 09:04:48.3     243      8     90    244    260  88.1  21.0  34092  288.41 0855.16
2009/04/23 09:04:48.4     258     -6     97    259    276  91.5  21.5  34094  288.44 0855.16
2009/04/23 09:04:48.5     206    -13     69    207    219  93.7  18.4  34088  288.36 0855.16
2009/04/23 09:04:48.6     235     32     36    238    241  82.1   8.8  34086  288.32 0855.16
2009/04/23 09:04:48.7     283     16     49    284    289  86.6   9.9  34090  288.39 0855.16
2009/04/23 09:04:48.8     280     26     55    282    288  84.5  11.1  34088  288.36 0855.16
2009/04/23 09:04:48.9     249    -15     90    250    265  93.5  20.4  34086  288.32 0855.16
2009/04/23 09:04:49.0     231    -40    123    235    265  99.9  29.8  34092  288.41 0855.16
2009/04/23 09:04:49.1     268    -33     82    271    284  97.1  16.8  34088  288.34 0855.16
2009/04/23 09:04:49.2     274    -30     91    276    291  96.4  18.4  34092  288.41 0855.16
2009/04/23 09:04:49.3     301     20     14    302    303  86.1   2.8  34088  288.36 0855.16
2009/04/23 09:04:49.4     276     25      8    278    279  84.8   1.7  34092  288.43 0855.16
2009/04/23 09:04:49.5     292     35     75    295    305  83.0  14.3  34094  288.44 0855.16
2009/04/23 09:04:49.6     249     61     32    257    259  76.1   7.1  34092  288.43 0855.16
2009/04/23 09:04:49.7     226     54     26    233    235  76.5   6.5  34094  288.44 0855.16
2009/04/23 09:04:49.8     222     16     26    223    225  85.7   6.9  34090  288.40 0855.16
2009/04/23 09:04:49.9     235     37      9    238    239  81.0   2.3  34096  288.48 0855.16
2009/04/23 09:04:50.0     232     47     20    237    238  78.3   4.9  34100  288.54 0855.16
2009/04/23 09:04:50.1     200     46     26    206    208  77.0   7.2  34112  288.75 0855.16
2009/04/23 09:04:50.2     151     28     71    154    169  79.4  26.6  34104  288.62 0855.16
2009/04/23 09:04:50.3     164     23     95    166    191  81.9  32.1  34096  288.50 0855.16
2009/04/23 09:04:50.4     204      7     94    205    225  87.9  26.6  34098  288.52 0855.16
2009/04/23 09:04:50.5     133    -44     99    141    172 108.6  38.4  34094  288.45 0855.16
2009/04/23 09:04:50.6     113     -2    102    114    152  91.3  46.9  34102  288.58 0855.16
2009/04/23 09:04:50.7      92    -21    121     95    153 102.8  57.9  34096  288.50 0855.16
2009/04/23 09:04:50.8     104    -41     92    113    145 111.7  43.7  34098  288.53 0855.16
2009/04/23 09:04:50.9     119      0    128    120    175  90.0  52.1  34092  288.43 0855.16
2009/04/23 09:04:51.0      81      6    127     82    151  85.2  64.6  34092  288.42 0855.16
2009/04/23 09:04:51.1     123     -9    115    124    169  94.3  47.9  34096  288.48 0855.16
2009/04/23 09:04:51.2      95    -17     65     97    116 100.6  36.5  34096  288.50 0855.16
2009/04/23 09:04:51.3      98    -11     82     99    128  96.6  43.8  34098  288.52 0855.15
2009/04/23 09:04:51.4     101     14      0    102    103  82.1  -0.3  34096  288.50 0855.15
2009/04/23 09:04:51.5      49     21     49     54     72  66.5  47.9  34098  288.53 0855.15
2009/04/23 09:04:51.6      44      8     36     45     57  79.4  43.7  34098  288.53 0855.15
2009/04/23 09:04:51.7      56     35     13     67     69  57.6  11.1  34098  288.52 0855.15
2009/04/23 09:04:51.8     156     -2    -36    157    162  90.9 -13.2  34094  288.47 0855.15
2009/04/23 09:04:51.9     120     76     -7    143    144  57.6  -3.2  34096  288.50 0855.15
2009/04/23 09:04:52.0     112     30    -34    117    121  74.9 -21.2  34096  288.50 0855.15
2009/04/23 09:04:52.1     134     45    -39    142    148  71.4 -15.5  34096  288.48 0855.15
2009/04/23 09:04:52.2     122     48     41    132    139  68.3  17.3  34096  288.48 0855.15
2009/04/23 09:04:52.3     151     49     20    159    161  71.8   7.2  34096  288.48 0855.15
2009/04/23 09:04:52.4     122     33     50    127    136  74.5  22.5  34094  288.45 0855.15
2009/04/23 09:04:52.5     116     36     45    122    130  72.7  20.9  34094  288.45 0855.15
2009/04/23 09:04:52.6     162     14     62    163    174  84.8  21.5  34096  288.48 0855.15
2009/04/23 09:04:52.7     159     34     21    163    165  77.6   7.5  34092  288.43 0855.15
2009/04/23 09:04:52.8     131      9      6    132    133  85.7   2.9  34092  288.42 0855.15
2009/04/23 09:04:52.9     111     25     58    114    127  77.2  28.7  34102  288.58 0855.15
2009/04/23 09:04:53.0     154     23     54    156    166  81.4  19.2  34096  288.50 0855.15
2009/04/23 09:04:53.1     176     25     15    178    179  81.9   4.9  34088  288.35 0855.15
2009/04/23 09:04:53.2     160     16     33    161    165  84.1  11.6  34104  288.62 0855.15
2009/04/23 09:04:53.3     163     32     69    167    180  78.8  23.6  34104  288.62 0855.15
2009/04/23 09:04:53.4     177     22     68    179    191  82.8  21.7  34100  288.57 0855.15
2009/04/23 09:04:53.5     167      5     47    168    175  88.3  15.8  34096  288.50 0855.15
2009/04/23 09:04:53.6     167     21     73    169    184  82.5  24.9  34090  288.40 0855.15
2009/04/23 09:04:53.7     106     -5     50    107    118  93.0  26.6  34092  288.42 0855.15
2009/04/23 09:04:53.8     135    -55     -2    146    147 112.2  -1.2  34092  288.43 0855.15
2009/04/23 09:04:53.9     127    -34    -12    132    133 105.0  -5.2  34090  288.40 0855.15
2009/04/23 09:04:54.0     154    -60     10    166    167 111.5   3.6  34088  288.36 0855.15
2009/04/23 09:04:54.1     142    -56     15    153    154 111.7   5.9  34088  288.36 0855.15
2009/04/23 09:04:54.2     144    -30      7    148    149 101.9   2.8  34090  288.40 0855.15
2009/04/23 09:04:54.3     110    -24     38    113    120 102.8  18.9  34088  288.35 0855.15
2009/04/23 09:04:54.4     132    -43     42    139    146 108.2  16.8  34090  288.40 0855.15
2009/04/23 09:04:54.5     152    -49     57    160    169 108.2  20.0  34090  288.38 0855.15
2009/04/23 09:04:54.6     142    -77     61    162    173 118.4  21.3  34092  288.42 0855.15
2009/04/23 09:04:54.7     130    -87     63    157    169 123.7  23.0  34094  288.45 0855.15
2009/04/23 09:04:54.8     120    -43     59    128    140 109.9  26.6  34094  288.47 0855.15
2009/04/23 09:04:54.9     127    -80     66    151    164 122.4  25.1  34098  288.53 0855.15
2009/04/23 09:04:55.0      93   -105     42    141    148 138.5  16.8  34100  288.55 0855.15
2009/04/23 09:04:55.1      85    -80     45    117    125 133.2  22.0  34098  288.52 0855.15
2009/04/23 09:04:55.2     104    -86     59    136    148 129.5  25.1  34096  288.48 0855.15
2009/04/23 09:04:55.3     101   -109     32    149    153 137.2  12.2  34100  288.57 0855.15
2009/04/23 09:04:55.4      93   -100     32    137    141 137.2  13.2  34098  288.52 0855.15
2009/04/23 09:04:55.5     118    -80      8    143    144 124.2   3.3  34096  288.50 0855.15
2009/04/23 09:04:55.6      93    -57      2    110    111 121.5   1.2  34096  288.50 0855.15
2009/04/23 09:04:55.7      70    -33     -3     78     79 115.4  -2.6  34096  288.50 0855.15
2009/04/23 09:04:55.8      58    -61     43     85     95 136.3  28.7  34096  288.50 0855.15
2009/04/23 09:04:55.9      31    -55     71     64     95 151.0  53.3  34098  288.53 0855.15
2009/04/23 09:04:56.0      49   -135    102    144    176 160.0  39.3  34098  288.53 0855.15
2009/04/23 09:04:56.1      72    -82     89    110    141 139.0  43.7  34098  288.52 0855.15
2009/04/23 09:04:56.2      68    -27    103     74    126 111.7  60.6  34100  288.57 0855.15
2009/04/23 09:04:56.3      48    -45     74     66     99 133.1  53.3  34100  288.55 0855.15
2009/04/23 09:04:56.4      53     17     79     56     96  71.4  61.5  34108  288.69 0855.15
2009/04/23 09:04:56.5      76      2     88     77    116  88.3  54.3  34106  288.67 0855.15
2009/04/23 09:04:56.6      65    -41     92     78    120 122.4  55.4  34110  288.72 0855.15
2009/04/23 09:04:56.7      90    -32    101     96    139 109.5  51.6  34112  288.77 0855.15
2009/04/23 09:04:56.8     128    -26    100    131    164 101.5  41.2  34114  288.80 0855.15
2009/04/23 09:04:56.9     101     -6    131    102    166  93.5  58.2  34120  288.89 0855.15
2009/04/23 09:04:57.0     103    -85     91    134    161 129.5  37.6  34108  288.69 0855.15
2009/04/23 09:04:57.1     125    -86     86    153    175 124.6  31.6  34110  288.74 0855.15
2009/04/23 09:04:57.2     101    -61     99    119    154 121.1  43.8  34112  288.77 0855.15
2009/04/23 09:04:57.3      80   -126    118    150    190 147.4  42.4  34114  288.79 0855.16
2009/04/23 09:04:57.4      56   -109    136    123    183 152.8  53.0  34116  288.84 0855.16
2009/04/23 09:04:57.5      88    -96    111    131    171 137.7  44.5  34096  288.48 0855.16
2009/04/23 09:04:57.6      77   -106     98    132    164 143.9  40.4  34090  288.40 0855.16
2009/04/23 09:04:57.7      69    -95     87    118    146 143.9  39.7  34092  288.42 0855.16
2009/04/23 09:04:57.8      58   -104     86    120    147 151.0  39.5  34090  288.40 0855.16
2009/04/23 09:04:57.9      65   -102     97    122    155 147.4  43.3  34090  288.40 0855.16
2009/04/23 09:04:58.0      56    -85     88    102    134 146.6  45.4  34090  288.40 0855.16
2009/04/23 09:04:58.1      21    -65     87     69    111 161.7  56.9  34092  288.43 0855.16
2009/04/23 09:04:58.2      42   -144     74    151    168 163.5  27.8  34094  288.45 0855.16
2009/04/23 09:04:58.3     -34   -189     66    193    205 190.2  18.9  34092  288.43 0855.16
2009/04/23 09:04:58.4     -13   -179     95    180    203 184.4  30.1  34088  288.36 0855.16
2009/04/23 09:04:58.5      -1   -154    121    155    196 180.5  42.0  34090  288.38 0855.16
2009/04/23 09:04:58.6      21   -125    111    127    168 170.2  45.8  34092  288.42 0855.16
2009/04/23 09:04:58.7      16   -105     97    107    144 171.1  47.5  34094  288.47 0855.16
2009/04/23 09:04:58.8      24   -119    103    122    159 168.4  44.5  34088  288.36 0855.16
2009/04/23 09:04:58.9      45    -95     98    106    144 154.7  47.9  34090  288.38 0855.16
2009/04/23 09:04:59.0      37   -100     91    107    140 159.5  44.8  34088  288.35 0855.16
2009/04/23 09:04:59.1      32    -83     87     90    125 158.6  49.9  34086  288.33 0855.16
2009/04/23 09:04:59.2      41    -57     71     71    100 143.9  50.1  34088  288.36 0855.16
2009/04/23 09:04:59.3      34    -90     61     97    114 159.1  35.5  34086  288.33 0855.16
2009/04/23 09:04:59.4      22    -78     76     82    111 164.4  47.9  34086  288.33 0855.16
2009/04/23 09:04:59.5      34    -51     74     62     96 145.7  55.8  34088  288.35 0855.16
2009/04/23 09:04:59.6      34    -53     52     64     82 147.5  43.7  34088  288.36 0855.16
2009/04/23 09:04:59.7       5    -17     55     18     57 161.7  80.7  34094  288.45 0855.16
2009/04/23 09:04:59.8       0     28     56     29     63   0.9  70.8  34094  288.47 0855.16
2009/04/23 09:04:59.9     -18    -15     49     24     54 228.7  72.9  34096  288.48 0855.16
2009/04/23 09:05:00.0       2     -3     29      4     29 147.5  90.0  34092  288.43 0855.16
2009/04/23 09:05:00.1      -9    -10     14     14     19 223.2  50.1  34094  288.45 0855.16
2009/04/23 09:05:00.2     -30    -26     43     40     58 228.7  51.2  34088  288.36 0855.16
2009/04/23 09:05:00.3       0    -23     68     24     72 180.9  81.2  34088  288.35 0855.16
2009/04/23 09:05:00.4      12    -30     53     33     62 158.2  64.7  34086  288.33 0855.16
2009/04/23 09:05:00.5      33    -15     44     37     57 115.2  56.3  34086  288.31 0855.16
2009/04/23 09:05:00.6      74      1     72     75    103  89.2  49.0  34084  288.30 0855.16
2009/04/23 09:05:00.7      71     69     48    100    110  45.9  27.3  34096  288.50 0855.16
2009/04/23 09:05:00.8     -16     16     57     23     61 315.0  77.1  34094  288.47 0855.16
2009/04/23 09:05:00.9      18    -51     53     55     76 160.8  50.0  34082  288.26 0855.16
2009/04/23 09:05:01.0      43     -8     56     44     71 100.6  56.4  34086  288.31 0855.16
2009/04/23 09:05:01.1      46     36     66     59     88  52.2  53.3  34094  288.47 0855.16
2009/04/23 09:05:01.2      34     13     75     37     83  68.3  71.9  34096  288.48 0855.16
2009/04/23 09:05:01.3      70     23     86     74    113  71.6  54.8  34102  288.58 0855.16
2009/04/23 09:05:01.4      62     35    102     72    124  60.2  61.5  34128  289.04 0855.16
2009/04/23 09:05:01.5      60     44    107     75    130  54.0  61.5  34118  288.87 0855.16
2009/04/23 09:05:01.6      -6     -7     84     10     84 223.2  90.0  34094  288.45 0855.16
2009/04/23 09:05:01.7      47     14     78     50     92  73.2  64.6  34088  288.36 0855.16
2009/04/23 09:05:01.8       8     -2     85      9     85 108.4  90.0  34092  288.43 0855.16
2009/04/23 09:05:01.9      -4     15     53     16     55 344.9  81.8  34108  288.69 0855.16
2009/04/23 09:05:02.0     -44    -22     39     50     63 243.8  42.7  34104  288.64 0855.16
2009/04/23 09:05:02.1     -27    -82     60     87    105 198.5  37.6  34092  288.43 0855.16
2009/04/23 09:05:02.2       0    -99     74    100    124 180.0  40.1  34092  288.42 0855.16
2009/04/23 09:05:02.3      35   -104     70    110    130 161.3  35.5  34090  288.38 0855.16
2009/04/23 09:05:02.4      38   -111     73    118    138 160.8  35.0  34090  288.40 0855.16
2009/04/23 09:05:02.5      51    -97     68    110    129 151.9  35.5  34090  288.40 0855.16
2009/04/23 09:05:02.6      43    -92     75    102    126 155.1  39.7  34092  288.43 0855.16
2009/04/23 09:05:02.7      60    -95     77    113    136 147.5  37.4  34092  288.42 0855.16
2009/04/23 09:05:02.8      65   -104     82    123    147 147.9  36.5  34092  288.42 0855.16
2009/04/23 09:05:02.9      65   -104     96    123    156 147.9  41.7  34092  288.42 0855.16
2009/04/23 09:05:03.0      54   -111    108    124    164 153.7  45.6  34088  288.35 0855.16
2009/04/23 09:05:03.1      27   -134    107    137    173 168.4  42.2  34088  288.35 0855.16
2009/04/23 09:05:03.2      39   -119    103    126    162 161.5  43.5  34088  288.36 0855.16
2009/04/23 09:05:03.3      17   -121     97    123    156 172.0  42.4  34086  288.33 0855.16
2009/04/23 09:05:03.4      34   -104    103    110    150 161.7  47.9  34086  288.33 0855.16
2009/04/23 09:05:03.5      23    -99     91    102    136 166.6  46.4  34088  288.36 0855.16
2009/04/23 09:05:03.6      18   -121     86    123    150 171.5  38.6  34088  288.35 0855.16
2009/04/23 09:05:03.7      26    -98     93    102    138 164.9  47.9  34088  288.36 0855.16
2009/04/23 09:05:03.8      13    -85     82     87    119 171.1  48.5  34090  288.40 0855.16
2009/04/23 09:05:03.9       0    -81     87     82    119 180.0  51.6  34092  288.42 0855.16
2009/04/23 09:05:04.0       6    -88    108     89    139 175.6  56.4  34092  288.43 0855.16
2009/04/23 09:05:04.1     -12   -144    102    145    177 184.9  38.6  34090  288.40 0855.16
2009/04/23 09:05:04.2       8   -126     89    127    155 176.0  38.6  34090  288.38 0855.16
2009/04/23 09:05:04.3      28   -119     86    123    150 166.6  38.6  34090  288.40 0855.16
2009/04/23 09:05:04.4      59   -152     91    164    187 158.6  31.4  34088  288.35 0855.16
2009/04/23 09:05:04.5      63   -165     93    177    199 158.8  29.8  34088  288.36 0855.16
2009/04/23 09:05:04.6      49   -162    115    170    205 163.1  37.3  34088  288.35 0855.16
2009/04/23 09:05:04.7      43   -167    115    173    207 165.5  36.7  34088  288.36 0855.16
2009/04/23 09:05:04.8      41   -200     94    205    225 168.4  26.6  34090  288.38 0855.16
2009/04/23 09:05:04.9      45   -193     71    199    211 166.9  20.2  34090  288.38 0855.16
2009/04/23 09:05:05.0      28   -169     73    172    186 170.4  24.3  34090  288.38 0855.16
2009/04/23 09:05:05.1      27   -161     57    164    174 170.2  19.2  34090  288.38 0855.16
2009/04/23 09:05:05.2      36   -152     55    157    166 166.6  20.0  34090  288.40 0855.16
2009/04/23 09:05:05.3      56   -157     64    167    178 160.2  22.0  34088  288.36 0855.16
2009/04/23 09:05:05.4      27   -169     46    172    179 170.9  15.2  34092  288.42 0855.16
2009/04/23 09:05:05.5      29   -169     60    172    183 170.2  19.4  34090  288.40 0855.16
2009/04/23 09:05:05.6      42   -173     62    179    190 166.2  19.2  34088  288.35 0855.16
2009/04/23 09:05:05.7      61   -159     65    171    182 159.1  21.7  34090  288.40 0855.16
2009/04/23 09:05:05.8      54   -148     83    158    178 160.0  30.1  34088  288.36 0855.16
2009/04/23 09:05:05.9      65   -137     76    152    169 154.5  28.5  34086  288.33 0855.16
2009/04/23 09:05:06.0      71   -152     34    168    172 154.8  11.6  34088  288.36 0855.16
2009/04/23 09:05:06.1      94   -170     32    195    198 151.0   9.5  34088  288.35 0855.16
2009/04/23 09:05:06.2      79   -169     38    187    191 154.7  11.6  34090  288.38 0855.16
2009/04/23 09:05:06.3      74   -174     26    190    192 157.1   7.8  34088  288.35 0855.16
2009/04/23 09:05:06.4      54   -167     37    176    180 162.0  12.0  34088  288.35 0855.16
2009/04/23 09:05:06.5      41   -195     54    200    208 168.0  15.2  34086  288.31 0855.16
2009/04/23 09:05:06.6      37   -182     36    186    190 168.2  11.0  34088  288.36 0855.16
2009/04/23 09:05:06.7      44   -183     40    189    194 166.4  12.2  34088  288.36 0855.16
2009/04/23 09:05:06.9      49   -179     40    186    191 164.4  12.4  34092  288.42 0855.16
2009/04/23 09:05:06.9      37   -195     47    199    205 169.1  13.5  34090  288.38 0855.16
2009/04/23 09:05:07.0      37   -180     35    184    188 168.2  11.0  34090  288.38 0855.16
2009/04/23 09:05:07.1      14   -191     55    192    200 175.8  16.0  34086  288.33 0855.16
2009/04/23 09:05:07.2      32   -160     58    164    173 168.7  20.0  34086  288.33 0855.16
2009/04/23 09:05:07.3      16   -162     94    163    188 174.2  32.7  34086  288.31 0855.16
2009/04/23 09:05:07.4      30   -180     97    183    207 170.4  30.3  34088  288.35 0855.16
2009/04/23 09:05:07.5      33   -207     97    210    231 170.9  27.0  34086  288.31 0855.16
2009/04/23 09:05:07.6      34   -203    101    206    229 170.3  27.8  34088  288.35 0855.16
2009/04/23 09:05:07.7      24   -204    104    206    230 173.1  28.7  34088  288.35 0855.16
2009/04/23 09:05:07.8      16   -199    110    200    228 175.1  31.4  34086  288.31 0855.16
2009/04/23 09:05:08.0      28   -196     96    199    220 171.8  27.3  34088  288.36 0855.16
2009/04/23 09:05:08.1      16   -216     85    217    233 175.5  22.5  34086  288.33 0855.16
2009/04/23 09:05:08.2      29   -210    103    213    236 172.0  27.8  34084  288.28 0855.16
2009/04/23 09:05:08.3      20   -192    102    194    219 173.8  30.1  34086  288.33 0855.16
2009/04/23 09:05:08.4      15   -199    112    200    229 175.6  31.4  34086  288.31 0855.16
2009/04/23 09:05:08.5      13   -210    104    211    235 176.2  28.2  34090  288.38 0855.16
2009/04/23 09:05:08.6       4   -202    114    203    232 178.6  31.6  34088  288.35 0855.16
2009/04/23 09:05:08.7      16   -211     91    212    230 175.5  24.9  34090  288.40 0855.16
2009/04/23 09:05:08.8      19   -195     94    197    218 174.2  27.3  34090  288.38 0855.16
2009/04/23 09:05:08.9       2   -182     98    183    207 179.1  30.6  34090  288.38 0855.16
2009/04/23 09:05:09.0     -11   -169     83    170    189 183.8  27.4  34088  288.35 0855.16
2009/04/23 09:05:09.1       7   -157     88    158    180 177.3  31.4  34088  288.36 0855.16
2009/04/23 09:05:09.2      15   -182     78    183    198 175.1  24.3  34092  288.42 0855.16
2009/04/23 09:05:09.3      14   -201    109    202    229 175.8  30.8  34090  288.38 0855.16
2009/04/23 09:05:09.4       3   -225    107    226    250 179.0  27.1  34092  288.43 0855.15
2009/04/23 09:05:09.5      14   -217    118    218    247 176.2  30.8  34092  288.43 0855.15
2009/04/23 09:05:09.6       6   -205    116    206    236 178.2  32.1  34090  288.38 0855.15
2009/04/23 09:05:09.7      17   -187     94    188    210 174.7  28.5  34088  288.36 0855.15
2009/04/23 09:05:09.8      44   -149     76    156    173 163.5  27.8  34090  288.38 0855.15
2009/04/23 09:05:09.9      49   -132     69    142    157 159.5  27.8  34090  288.38 0855.15
2009/04/23 09:05:10.0      65   -121     82    138    160 151.9  33.5  34092  288.42 0855.15
2009/04/23 09:05:10.1      76   -119    105    142    176 147.5  40.1  34092  288.42 0855.15
2009/04/23 09:05:10.2      59   -130    121    143    187 155.5  44.5  34090  288.38 0855.15
2009/04/23 09:05:10.3      52   -170    122    178    215 162.8  37.8  34086  288.33 0855.15
2009/04/23 09:05:10.4       7   -201    103    202    226 177.8  29.1  34086  288.33 0855.15
2009/04/23 09:05:10.5      18   -200     90    201    220 174.7  25.7  34090  288.40 0855.15
2009/04/23 09:05:10.6      57   -169    109    179    209 161.3  34.4  34090  288.38 0855.15
2009/04/23 09:05:10.7      41   -125    103    132    167 161.7  42.2  34092  288.43 0855.15
2009/04/23 09:05:10.8      -2   -149    128    150    197 180.9  45.1  34090  288.40 0855.15
2009/04/23 09:05:10.9       8   -183    109    184    213 177.5  33.5  34092  288.42 0855.15
2009/04/23 09:05:11.0      28   -180     76    183    198 170.9  23.6  34090  288.38 0855.15
2009/04/23 09:05:11.1      17   -194     81    195    211 174.9  23.8  34090  288.38 0855.15
2009/04/23 09:05:11.2      31   -168     64    171    182 169.5  21.3  34092  288.43 0855.15
2009/04/23 09:05:11.3      45   -178    114    184    216 165.7  35.0  34090  288.40 0855.15
2009/04/23 09:05:11.4      55   -199    115    207    236 164.4  31.4  34092  288.43 0855.15
2009/04/23 09:05:11.5      31   -220    121    223    253 171.9  31.3  34094  288.44 0855.15
2009/04/23 09:05:11.6      -7   -225    121    226    256 182.0  30.6  34092  288.43 0855.15
2009/04/23 09:05:11.7      10   -218    105    219    242 177.3  27.4  34092  288.43 0855.15
2009/04/23 09:05:11.8      45   -269     99    273    291 170.4  19.9  34092  288.41 0855.15
2009/04/23 09:05:11.9      36   -242     80    245    258 171.5  18.1  34092  288.43 0855.15
2009/04/23 09:05:12.0      39   -250     96    254    271 171.1  21.7  34094  288.46 0855.15
2009/04/23 09:05:12.1      55   -254     89    261    276 167.7  18.9  34092  288.43 0855.15
2009/04/23 09:05:12.2      66   -248    111    257    279 165.1  25.1  34094  288.44 0855.15
2009/04/23 09:05:12.3      84   -261     89    275    290 162.2  17.9  34094  288.44 0855.15
2009/04/23 09:05:12.4      81   -249     71    262    272 162.0  15.2  34092  288.41 0855.15
2009/04/23 09:05:12.5     102   -227    104    250    270 155.7  24.1  34096  288.48 0855.15
2009/04/23 09:05:12.6      79   -240    115    253    277 161.7  26.2  34094  288.46 0855.15
2009/04/23 09:05:12.7     129   -243     37    276    279 152.1   7.8  34096  288.49 0855.15
2009/04/23 09:05:12.8     111   -225     36    251    254 153.7   8.2  34096  288.48 0855.15
2009/04/23 09:05:12.9      76   -208     78    222    236 160.0  19.4  34096  288.48 0855.15
2009/04/23 09:05:13.0      92   -254     69    271    280 160.0  14.3  34094  288.44 0855.15
2009/04/23 09:05:13.1      69   -255     77    265    277 164.8  16.3  34094  288.46 0855.15
2009/04/23 09:05:13.2     107   -233     21    257    259 155.3   4.9  34094  288.46 0855.15
2009/04/23 09:05:13.3      63   -238     32    247    250 165.1   7.5  34092  288.41 0855.15
2009/04/23 09:05:13.4      -3   -243     47    244    249 180.9  11.0  34094  288.44 0855.15
2009/04/23 09:05:13.5      43   -233     55    237    244 169.5  13.2  34094  288.46 0855.15
2009/04/23 09:05:13.6      69   -210     -2    222    223 161.7  -0.7  34092  288.42 0855.15
2009/04/23 09:05:13.7      98   -244    -10    264    265 158.1  -2.2  34094  288.46 0855.15
2009/04/23 09:05:13.8      95   -311    -30    326    328 163.0  -5.3  34092  288.43 0855.15
2009/04/23 09:05:13.9      18   -302    -27    303    305 176.5  -5.2  34092  288.41 0855.15
2009/04/23 09:05:14.0      42   -300     -6    304    305 172.0  -1.2  34094  288.44 0855.15
2009/04/23 09:05:14.1      73   -254     47    265    270 163.9  10.1  34094  288.44 0855.15
2009/04/23 09:05:14.2     137   -253     40    288    291 151.5   8.0  34098  288.51 0855.15
2009/04/23 09:05:14.3      79   -245     40    258    262 162.1   8.9  34100  288.56 0855.15
2009/04/23 09:05:14.4      56   -237     37    244    247 166.7   8.8  34098  288.51 0855.15
2009/04/23 09:05:14.5      46   -245     25    250    252 169.3   5.9  34096  288.49 0855.15
2009/04/23 09:05:14.6      17   -241    -21    242    243 175.8  -5.2  34094  288.44 0855.15
2009/04/23 09:05:14.7     -14   -298    -38    299    302 182.7  -7.3  34096  288.49 0855.15
2009/04/23 09:05:14.8      12   -330    -57    331    337 177.8  -9.9  34094  288.47 0855.15
2009/04/23 09:05:14.9     -94   -279    -37    295    298 198.7  -7.3  34094  288.46 0855.15
2009/04/23 09:05:15.0     -89   -292    -44    306    310 197.0  -8.3  34096  288.49 0855.15
2009/04/23 09:05:15.1     -94   -281    -37    297    300 198.5  -7.2  34096  288.49 0855.15
2009/04/23 09:05:15.2    -123   -280    -19    306    307 203.7  -3.7  34096  288.48 0855.15
2009/04/23 09:05:15.3    -114   -297    -12    319    320 201.0  -2.2  34096  288.49 0855.15
2009/04/23 09:05:15.4    -189   -314     -4    367    368 211.0  -0.7  34094  288.47 0855.15
2009/04/23 09:05:15.5    -163   -328    -44    367    370 206.5  -6.9  34094  288.44 0855.15
2009/04/23 09:05:15.6    -189   -311    -72    364    372 211.3 -11.2  34084  288.30 0855.15
2009/04/23 09:05:15.7    -196   -266    -57    331    337 216.4  -9.9  34088  288.35 0855.15
2009/04/23 09:05:15.8    -169   -257   -108    308    327 213.4 -19.3  34086  288.32 0855.15
2009/04/23 09:05:15.9    -174   -225    -96    285    300 217.8 -23.3  34088  288.34 0855.15
2009/04/23 09:05:16.0    -147   -227    -94    271    286 213.0 -24.0  34086  288.32 0855.15
2009/04/23 09:05:16.1    -155   -252    -88    297    310 211.6 -16.6  34086  288.31 0855.15
2009/04/23 09:05:16.2    -151   -202    -75    253    265 216.7 -16.6  34082  288.24 0855.15
2009/04/23 09:05:16.3    -100   -210    -81    233    246 205.5 -24.3  34086  288.31 0855.15
2009/04/23 09:05:16.4    -133   -217    -70    255    265 211.6 -15.4  34084  288.27 0855.15
2009/04/23 09:05:16.5     -88   -264     -8    279    280 198.5  -1.8  34084  288.27 0855.15
2009/04/23 09:05:16.6     -71   -221     19    233    234 197.8   4.9  34086  288.32 0855.15
2009/04/23 09:05:16.7     -74   -214     32    227    230 199.2   8.0  34084  288.30 0855.15
2009/04/23 09:05:16.8     -76   -217      4    231    232 199.4   1.2  34084  288.30 0855.15
2009/04/23 09:05:16.9     -74   -236     -6    248    249 197.4  -1.6  34082  288.26 0855.15
2009/04/23 09:05:17.0     -19   -264     -1    265    266 184.2  -0.3  34090  288.39 0855.15
2009/04/23 09:05:17.1       0   -275      3    276    277 180.0   0.8  34098  288.51 0855.15
2009/04/23 09:05:17.2       0   -290     -2    291    292 180.0  -0.5  34094  288.46 0855.15
2009/04/23 09:05:17.3     -19   -274    -29    275    277 184.0  -6.2  34088  288.34 0855.15
2009/04/23 09:05:17.4     -12   -276      3    277    278 182.7   0.7  34090  288.39 0855.15
2009/04/23 09:05:17.5     -37   -279     14    282    283 187.6   2.9  34084  288.27 0855.15
2009/04/23 09:05:17.6       3   -276     54    277    283 179.3  11.1  34090  288.39 0855.15
2009/04/23 09:05:17.7      32   -301    -19    303    304 173.8  -3.7  34096  288.49 0855.15
2009/04/23 09:05:17.8      37   -265    -14    268    269 172.0  -3.2  34096  288.49 0855.15
2009/04/23 09:05:17.9      32   -259     -5    262    263 172.9  -1.1  34098  288.51 0855.15
2009/04/23 09:05:18.0      18   -278      8    279    280 176.2   1.8  34098  288.51 0855.15
2009/04/23 09:05:18.1      15   -280     10    281    282 176.9   2.1  34076  288.15 0855.15
2009/04/23 09:05:18.2       0   -291     16    292    293 180.0   3.3  34068  288.00 0855.15
2009/04/23 09:05:18.3      -9   -301     11    302    303 181.8   2.1  34074  288.10 0855.15
2009/04/23 09:05:18.4      14   -311     37    312    315 177.4   6.9  34078  288.19 0855.15
2009/04/23 09:05:18.5      33   -308     30    310    312 173.8   5.7  34074  288.10 0855.15
2009/04/23 09:05:18.6      13   -300      9    301    302 177.5   1.8  34064  287.93 0855.15
2009/04/23 09:05:18.7      -9   -292     -1    293    294 181.8  -0.3  34064  287.93 0855.15
2009/04/23 09:05:18.8     -24   -284      8    286    287 184.9   1.8  34068  288.02 0855.15
2009/04/23 09:05:18.9     -20   -276      4    277    278 184.2   1.0  34064  287.95 0855.15
2009/04/23 09:05:19.0     -16   -266     -5    267    268 183.5  -1.1  34062  287.92 0855.15
2009/04/23 09:05:19.1     -21   -263    -18    264    265 184.7  -3.9  34062  287.90 0855.15
2009/04/23 09:05:19.2       3   -267    -10    268    269 179.3  -2.3  34062  287.90 0855.15
2009/04/23 09:05:19.3     -11   -273    -10    274    275 182.5  -2.1  34060  287.88 0855.15
2009/04/23 09:05:19.4      -4   -276     -8    277    278 180.9  -1.8  34066  287.99 0855.15
2009/04/23 09:05:19.5      -3   -270     -5    271    272 180.7  -1.3  34064  287.95 0855.15
2009/04/23 09:05:19.6       0   -280     -5    281    282 180.1  -1.2  34064  287.95 0855.15
2009/04/23 09:05:19.7       5   -295      3    296    297 179.0   0.7  34062  287.90 0855.15
2009/04/23 09:05:19.8     -27   -292    -16    294    295 185.3  -3.2  34074  288.10 0855.15
2009/04/23 09:05:19.9     -32   -300    -11    302    303 186.2  -2.2  34072  288.07 0855.15
2009/04/23 09:05:20.0      -6   -280    -10    281    282 181.4  -2.2  34066  287.97 0855.15
2009/04/23 09:05:20.1      10   -240      3    241    242 177.4   0.8  34070  288.04 0855.15
2009/04/23 09:05:20.2      21   -276     14    277    278 175.6   2.9  34064  287.95 0855.15
2009/04/23 09:05:20.3     -47   -278    -27    283    285 189.7  -5.6  34070  288.05 0855.15
2009/04/23 09:05:20.4     -42   -299      9    303    304 188.1   1.8  34074  288.12 0855.15
2009/04/23 09:05:20.5     -50   -295    -20    300    301 189.8  -3.9  34074  288.12 0855.15
2009/04/23 09:05:20.6     -33   -270      4    273    274 187.1   1.0  34084  288.27 0855.15
2009/04/23 09:05:20.7     -88   -313    -22    326    327 195.8  -4.0  34086  288.31 0855.15
2009/04/23 09:05:20.8    -101   -326    -13    342    343 197.2  -2.2  34086  288.33 0855.15
2009/04/23 09:05:20.9     -88   -339    -31    351    353 194.6  -5.1  34088  288.35 0855.15
2009/04/23 09:05:21.0     -85   -342    -24    353    354 194.0  -3.9  34086  288.32 0855.15
2009/04/23 09:05:21.1    -103   -319    -10    336    337 198.0  -1.7  34086  288.33 0855.15
2009/04/23 09:05:21.2     -93   -307    -45    321    325 196.9  -8.1  34098  288.51 0855.15
2009/04/23 09:05:21.3    -101   -292    -56    310    316 199.2 -10.3  34098  288.53 0855.15
2009/04/23 09:05:21.4    -101   -275    -48    294    298 200.3  -9.3  34094  288.44 0855.15
2009/04/23 09:05:21.5     -96   -255    -44    273    277 200.7  -9.3  34094  288.44 0855.15
2009/04/23 09:05:21.6    -106   -242    -25    265    267 203.7  -5.6  34092  288.41 0855.15
2009/04/23 09:05:21.7     -77   -231    -18    244    245 198.5  -4.4  34092  288.41 0855.15
2009/04/23 09:05:21.8     -68   -239     -5    249    250 196.0  -1.2  34092  288.41 0855.15
2009/04/23 09:05:21.9     -49   -241     -9    247    248 191.6  -2.2  34090  288.39 0855.15
2009/04/23 09:05:22.0     -50   -247     -5    253    254 191.6  -1.3  34090  288.39 0855.15
2009/04/23 09:05:22.1     -68   -254      4    264    265 195.1   1.0  34088  288.34 0855.15
2009/04/23 09:05:22.2     -62   -262      4    270    271 193.4   1.0  34092  288.41 0855.15
2009/04/23 09:05:22.3     -69   -277     -6    286    287 194.2  -1.3  34094  288.44 0855.15
2009/04/23 09:05:22.4     -74   -263      7    274    275 195.8   1.6  34092  288.43 0855.15
2009/04/23 09:05:22.5     -89   -269    -11    284    285 198.3  -2.2  34090  288.39 0855.15
2009/04/23 09:05:22.6     -80   -239      2    253    254 198.5   0.5  34092  288.41 0855.15
2009/04/23 09:05:22.7     -63   -261     -5    269    270 193.6  -1.1  34088  288.36 0855.15
2009/04/23 09:05:22.8     -62   -260    -17    268    269 193.4  -3.7  34094  288.46 0855.15
2009/04/23 09:05:22.9     -42   -277    -25    281    283 188.7  -5.2  34090  288.39 0855.15
2009/04/23 09:05:23.0     -32   -299    -25    301    303 186.2  -4.9  34092  288.43 0855.15
2009/04/23 09:05:23.1     -14   -318    -29    319    321 182.7  -5.3  34090  288.37 0855.15
2009/04/23 09:05:23.2      21   -347    -46    348    352 176.5  -7.6  34100  288.54 0855.15
2009/04/23 09:05:23.3       0   -367    -51    368    372 180.0  -8.0  34094  288.44 0855.15
2009/04/23 09:05:23.4     -38   -327    -78    330    340 186.7 -13.4  34094  288.47 0855.15
2009/04/23 09:05:23.5     -35   -324    -42    326    329 186.3  -7.5  34092  288.43 0855.15
2009/04/23 09:05:23.6       0   -273    -15    274    275 180.1  -3.1  34092  288.43 0855.15
2009/04/23 09:05:23.7     -22   -248    -28    250    252 185.1  -6.5  34094  288.44 0855.15
2009/04/23 09:05:23.8     -23   -236     -4    238    239 185.6  -1.1  34096  288.48 0855.15
2009/04/23 09:05:23.9     -16   -182    -85    183    201 185.3 -31.0  34096  288.48 0855.15
2009/04/23 09:05:24.0     -15   -196    -57    197    205 184.4 -21.5  34096  288.50 0855.15
2009/04/23 09:05:24.1      71   -213    -63    225    233 161.5 -20.4  34094  288.45 0855.15
2009/04/23 09:05:24.2      47   -216    -17    222    223 167.7  -4.6  34096  288.48 0855.15
2009/04/23 09:05:24.3      68   -196     28    208    210 160.8   7.8  34090  288.40 0855.15
2009/04/23 09:05:24.4      60   -180     37    190    194 161.5  11.1  34082  288.25 0855.15
2009/04/23 09:05:24.5      46   -190     23    196    198 166.4   6.7  34078  288.18 0855.15
2009/04/23 09:05:24.6      50   -201     24    208    210 166.0   6.7  34078  288.20 0855.15
2009/04/23 09:05:24.7      55   -186     40    195    200 163.5  11.6  34076  288.16 0855.15
2009/04/23 09:05:24.8      40   -244    -48    248    253 170.7 -11.1  34094  288.46 0855.15
2009/04/23 09:05:24.9       6   -251    -55    252    259 178.6 -12.4  34094  288.44 0855.15
2009/04/23 09:05:25.0      13   -274    -10    275    276 177.1  -2.2  34094  288.44 0855.15
2009/04/23 09:05:25.1      -8   -239      3    240    241 182.0   0.8  34092  288.43 0855.15
2009/04/23 09:05:25.2      81   -246     50    260    265 161.7  11.0  34092  288.41 0855.15
2009/04/23 09:05:25.3      54   -246     30    252    254 167.6   6.9  34092  288.43 0855.15
2009/04/23 09:05:25.4      63   -182      9    193    194 160.8   2.8  34092  288.43 0855.15
2009/04/23 09:05:25.5      85   -142     -3    166    167 149.0  -1.1  34096  288.48 0855.15
2009/04/23 09:05:25.6      70   -127     -5    146    147 151.1  -2.2  34096  288.48 0855.15
2009/04/23 09:05:25.7      37   -122     35    128    133 163.0  15.3  34096  288.48 0855.15
2009/04/23 09:05:25.8      27   -135     36    138    143 168.5  14.7  34090  288.38 0855.15
2009/04/23 09:05:25.9       0   -142     50    143    152 180.4  19.4  34088  288.35 0855.15
2009/04/23 09:05:26.0     -41   -121     29    128    132 198.7  13.1  34090  288.38 0855.15
2009/04/23 09:05:26.1     -60    -95     49    113    123 212.5  25.1  34086  288.31 0855.15
2009/04/23 09:05:26.2     -60    -70     63     93    112 220.5  37.6  34086  288.33 0855.15
2009/04/23 09:05:26.3    -145    -98     29    176    179 236.0   9.5  34086  288.33 0855.15
2009/04/23 09:05:26.4    -189   -113    -18    221    222 239.3  -4.9  34088  288.35 0855.15
2009/04/23 09:05:26.5     -63   -132     81    147    167 205.5  31.4  34088  288.36 0855.15
2009/04/23 09:05:26.6     -47   -159     83    167    186 196.7  28.0  34088  288.35 0855.15
2009/04/23 09:05:26.7     -51   -192     49    199    205 195.1  13.9  34090  288.38 0855.15
2009/04/23 09:05:26.8    -144   -212     69    257    267 214.1  15.0  34090  288.39 0855.15
2009/04/23 09:05:26.9    -223   -153     42    271    275 235.6   8.9  34094  288.44 0855.15
2009/04/23 09:05:27.0    -195   -209     -1    286    287 223.0  -0.3  34110  288.73 0855.15
2009/04/23 09:05:27.1    -184   -182    -82    259    272 225.3 -17.6  34114  288.78 0855.15
2009/04/23 09:05:27.2    -188   -200    -76    275    286 223.3 -15.5  34108  288.68 0855.15
2009/04/23 09:05:27.3    -200   -169    -88    263    278 229.8 -18.6  34102  288.58 0855.15
2009/04/23 09:05:27.4    -159   -189    -88    248    264 220.1 -19.7  34106  288.65 0855.15
2009/04/23 09:05:27.5    -168   -168    -73    239    249 225.0 -22.1  34102  288.58 0855.15
2009/04/23 09:05:27.6    -137   -182     -5    229    230 217.0  -1.3  34100  288.55 0855.15
2009/04/23 09:05:27.7    -206   -194    -19    284    285 226.8  -3.9  34100  288.54 0855.15
2009/04/23 09:05:27.8    -165   -187      0    250    251 221.4   0.2  34096  288.48 0855.15
2009/04/23 09:05:27.9    -150   -181    -30    236    238 219.6  -7.5  34096  288.49 0855.15
2009/04/23 09:05:28.0    -170   -192      8    257    258 221.4   1.8  34096  288.49 0855.15
2009/04/23 09:05:28.1    -160   -198    -45    255    260 219.0 -10.1  34096  288.49 0855.15
2009/04/23 09:05:28.2    -181   -234    -59    297    303 217.8 -11.3  34092  288.41 0855.15
2009/04/23 09:05:28.3    -136   -186    -59    231    239 216.1 -14.3  34088  288.34 0855.15
2009/04/23 09:05:28.4     -75   -108    -19    132    134 214.7  -8.2  34088  288.35 0855.15
2009/04/23 09:05:28.5     -51   -168    -62    176    186 196.9 -24.6  34088  288.36 0855.15
2009/04/23 09:05:28.6       0   -165    -59    166    176 180.2 -24.4  34090  288.40 0855.15
2009/04/23 09:05:28.7     -40    -87    -80     96    124 204.9 -48.2  34088  288.35 0855.15
2009/04/23 09:05:28.8     -60   -143    -78    156    174 202.7 -32.9  34090  288.40 0855.15
2009/04/23 09:05:28.9     -26   -173    -60    176    185 188.7 -23.3  34094  288.47 0855.15
2009/04/23 09:05:29.0     -69   -179    -61    192    201 201.2 -22.8  34092  288.43 0855.15
2009/04/23 09:05:29.1     -65   -184    -61    196    205 199.6 -22.5  34096  288.48 0855.15
2009/04/23 09:05:29.2     -75   -201    -70    215    226 200.7 -23.8  34092  288.42 0855.15
2009/04/23 09:05:29.3     -83   -222    -71    238    248 200.5 -21.7  34096  288.48 0855.15
2009/04/23 09:05:29.4     -32   -230    -39    233    237 188.1  -9.6  34094  288.46 0855.15
2009/04/23 09:05:29.5      17   -230    -38    231    235 175.6  -9.3  34094  288.46 0855.15
2009/04/23 09:05:29.6      31   -219    -43    222    227 171.9 -11.1  34092  288.43 0855.15
2009/04/23 09:05:29.7       8   -214    -19    215    216 177.8  -5.2  34092  288.43 0855.15
2009/04/23 09:05:29.8       0   -230     -7    231    232 180.0  -1.8  34094  288.45 0855.15
2009/04/23 09:05:29.9      53   -221     27    228    230 166.4   6.9  34092  288.43 0855.15
2009/04/23 09:05:30.0      54   -183    -59    191    201 163.5 -17.3  34094  288.47 0855.15
2009/04/23 09:05:30.1      19   -163    -53    165    173 173.3 -23.3  34092  288.43 0855.15
2009/04/23 09:05:30.2      23   -136    -64    139    153 170.2 -31.0  34094  288.45 0855.15
2009/04/23 09:05:30.3      -7   -145    -52    146    154 183.1 -23.8  34090  288.40 0855.15
2009/04/23 09:05:30.4      -5   -183      3    184    185 181.8   1.2  34090  288.38 0855.15
2009/04/23 09:05:30.5      32   -234    -42    237    241 172.0 -10.3  34092  288.43 0855.15
2009/04/23 09:05:30.6       9   -213     -7    214    215 177.4  -2.1  34090  288.40 0855.15
2009/04/23 09:05:30.7      23   -170    -49    172    179 172.2 -16.0  34090  288.40 0855.15
2009/04/23 09:05:30.8     -33   -140    -18    144    146 193.4  -7.3  34092  288.43 0855.15
2009/04/23 09:05:30.9     -15   -142    -27    143    146 186.3 -10.9  34092  288.42 0855.15
2009/04/23 09:05:31.0     -37   -165     20    170    172 192.9   6.7  34092  288.42 0855.15
2009/04/23 09:05:31.1     -46   -166     39    173    178 195.6  12.9  34090  288.40 0855.15
2009/04/23 09:05:31.2     -57   -173     26    183    185 198.5   8.2  34092  288.43 0855.15
2009/04/23 09:05:31.3     -93   -168      6    193    194 209.0   1.8  34092  288.42 0855.15
2009/04/23 09:05:31.4     -84   -176      7    196    197 205.5   2.1  34090  288.38 0855.15
2009/04/23 09:05:31.5     -85   -187    -14    206    207 204.5  -3.9  34090  288.40 0855.15
2009/04/23 09:05:31.6     -50   -194     -7    201    202 194.7  -2.2  34092  288.42 0855.15
2009/04/23 09:05:31.7     -32   -205    -64    208    218 189.1 -17.3  34090  288.40 0855.15
2009/04/23 09:05:31.8     -24   -233    -51    235    241 186.0 -12.4  34098  288.51 0855.15
2009/04/23 09:05:31.9     -23   -274     24    276    278 184.9   5.0  34100  288.54 0855.15
2009/04/23 09:05:32.0     -40   -261     83    265    278 188.7  17.4  34098  288.53 0855.15
2009/04/23 09:05:32.1     -49   -256     96    261    278 190.9  21.0  34098  288.53 0855.15
2009/04/23 09:05:32.2     -43   -239     94    243    260 190.2  22.1  34096  288.49 0855.15
2009/04/23 09:05:32.3     -42   -209     73    214    227 191.3  18.9  34094  288.45 0855.15
2009/04/23 09:05:32.4     -15   -219     77    220    234 184.0  19.4  34096  288.48 0855.15
2009/04/23 09:05:32.5      35   -277    -15    280    281 172.7  -3.2  34096  288.48 0855.15
2009/04/23 09:05:32.6       0   -262     -5    263    264 179.8  -1.3  34094  288.44 0855.15
2009/04/23 09:05:32.7      -8   -229     17    230    231 182.2   4.4  34092  288.42 0855.15
2009/04/23 09:05:32.8      26   -201     71    203    216 172.4  19.4  34088  288.35 0855.15
2009/04/23 09:05:32.9      27   -192     87    194    212 171.9  25.7  34090  288.38 0855.15
2009/04/23 09:05:33.0      17   -210     71    211    223 175.1  18.6  34092  288.43 0855.15
2009/04/23 09:05:33.1      53   -198     89    206    224 164.8  24.9  34090  288.38 0855.15
2009/04/23 09:05:33.2      69   -200    112    212    239 160.8  30.2  34094  288.45 0855.15
2009/04/23 09:05:33.3      33   -217    148    220    265 171.3  37.0  34094  288.46 0855.15
2009/04/23 09:05:33.4     166   -176    115    243    268 136.7  27.2  34096  288.48 0855.15
2009/04/23 09:05:33.5     167   -191    -56    255    262 138.8 -12.4  34100  288.56 0855.15
2009/04/23 09:05:33.6     145   -213    -88    258    272 145.7 -23.3  34106  288.66 0855.15
2009/04/23 09:05:33.7      58   -217    -64    225    235 164.9 -16.0  34104  288.62 0855.15
2009/04/23 09:05:33.9      26   -259    -23    261    263 174.2  -5.1  34106  288.65 0855.15
2009/04/23 09:05:34.0     111   -269     -9    292    293 157.5  -1.8  34110  288.71 0855.15
2009/04/23 09:05:34.1     141   -237     11    277    278 149.2   2.3  34108  288.70 0855.15
2009/04/23 09:05:34.2     113   -211    -39    240    244 151.9  -9.4  34116  288.81 0855.15
2009/04/23 09:05:34.3      72   -214    -49    227    233 161.3 -12.4  34116  288.84 0855.15
2009/04/23 09:05:34.4      73   -227    -49    239    245 162.2 -11.6  34106  288.66 0855.15
2009/04/23 09:05:34.5      66   -217    -23    228    230 163.0  -6.0  34110  288.72 0855.15
2009/04/23 09:05:34.6     113   -205    -16    235    236 151.1  -3.9  34108  288.68 0855.15
2009/04/23 09:05:34.7     117   -192    -38    226    230 148.6  -9.6  34100  288.57 0855.15
2009/04/23 09:05:34.8     108   -210    -13    237    238 152.8  -3.1  34096  288.49 0855.15
2009/04/23 09:05:34.9     116   -223    -18    252    253 152.4  -4.1  34096  288.49 0855.15
2009/04/23 09:05:35.0     132   -219    -25    256    258 148.8  -5.6  34094  288.44 0855.15
2009/04/23 09:05:35.1     120   -195    -15    230    231 148.4  -3.9  34094  288.47 0855.15
2009/04/23 09:05:35.2      79   -193     -8    209    210 157.7  -2.2  34100  288.55 0855.15
2009/04/23 09:05:35.3      39   -179     39    184    189 167.5  12.2  34096  288.48 0855.15
2009/04/23 09:05:35.4      39   -187     33    192    195 168.2   9.9  34102  288.60 0855.15
2009/04/23 09:05:35.5      75   -195     19    210    211 158.8   5.2  34098  288.52 0855.16
2009/04/23 09:05:35.6      87   -177     38    198    202 153.9  11.1  34098  288.52 0855.16
2009/04/23 09:05:35.7      65   -162     75    175    190 157.9  24.6  34100  288.55 0855.16
2009/04/23 09:05:35.8      49   -144     90    153    177 161.3  33.1  34104  288.64 0855.16
2009/04/23 09:05:35.9      15   -196    105    197    223 175.6  30.6  34098  288.52 0855.16
2009/04/23 09:05:36.0     -23   -181    106    183    211 187.3  32.9  34102  288.60 0855.16
2009/04/23 09:05:36.1     -45   -184     89    190    209 193.8  27.1  34104  288.64 0855.16
2009/04/23 09:05:36.2     -22   -141     98    143    173 188.9  37.6  34104  288.64 0855.16
2009/04/23 09:05:36.3     -60    -95     75    113    135 212.5  36.5  34104  288.64 0855.16
2009/04/23 09:05:36.4     -52   -110     86    122    149 205.3  39.1  34106  288.65 0855.16
2009/04/23 09:05:36.5       1   -116     90    117    147 179.5  41.7  34106  288.67 0855.16
2009/04/23 09:05:36.6       6   -127     81    128    151 177.3  35.5  34102  288.60 0855.16
2009/04/23 09:05:36.7     -43   -145     82    152    172 196.5  30.8  34104  288.62 0855.16
2009/04/23 09:05:36.8     -46   -136     90    144    169 198.7  35.2  34106  288.65 0855.16
2009/04/23 09:05:36.9       0   -165     93    166    190 180.0  31.6  34104  288.64 0855.16
2009/04/23 09:05:37.0       2   -159    133    160    208 179.1  43.8  34100  288.57 0855.16
2009/04/23 09:05:37.1      21   -147    107    149    183 171.5  39.3  34102  288.60 0855.16
2009/04/23 09:05:37.2      67   -172    118    185    219 158.6  35.5  34104  288.62 0855.16
2009/04/23 09:05:37.3      52   -158     98    167    193 161.7  33.5  34102  288.60 0855.16
2009/04/23 09:05:37.4      59   -142     65    155    168 157.3  24.1  34102  288.58 0855.16
2009/04/23 09:05:37.5      34   -175     73    179    193 168.9  23.1  34106  288.67 0855.17
2009/04/23 09:05:37.6      58   -169    131    179    221 160.8  39.7  34106  288.65 0855.17
2009/04/23 09:05:37.7      70   -197    129    210    246 160.4  34.5  34100  288.56 0855.17
2009/04/23 09:05:37.8     139   -176    114    225    252 141.7  29.1  34100  288.54 0855.17
2009/04/23 09:05:37.9      93   -244    120    262    288 159.1  26.4  34100  288.54 0855.17
2009/04/23 09:05:38.0      88   -316     20    329    330 164.3   3.5  34100  288.57 0855.17
2009/04/23 09:05:38.1      51   -293     -6    298    299 170.0  -1.3  34100  288.54 0855.17
2009/04/23 09:05:38.2      76   -314     15    324    325 166.4   2.8  34102  288.58 0855.17
2009/04/23 09:05:38.3      49   -288    -16    293    294 170.2  -3.1  34106  288.66 0855.17
2009/04/23 09:05:38.4      35   -329     -8    331    332 173.8  -1.4  34120  288.88 0855.17
2009/04/23 09:05:38.5      41   -324    -42    327    330 172.8  -7.4  34110  288.72 0855.17
2009/04/23 09:05:38.6      41   -325    -27    328    330 172.8  -4.8  34112  288.76 0855.17
2009/04/23 09:05:38.7      10   -303    -51    304    309 178.0  -9.6  34104  288.61 0855.17
2009/04/23 09:05:38.8      33   -319   -111    321    340 173.9 -19.1  34090  288.37 0855.17
2009/04/23 09:05:38.9      38   -344   -108    347    364 173.7 -17.3  34096  288.49 0855.17
2009/04/23 09:05:39.0      43   -324    -63    327    334 172.4 -10.9  34100  288.55 0855.17
2009/04/23 09:05:39.1      17   -367    -63    368    374 177.3  -9.7  34102  288.59 0855.17
2009/04/23 09:05:39.2      -4   -358    -99    359    372 180.7 -20.0  34094  288.47 0855.17
2009/04/23 09:05:39.3     -21   -328    -75    329    338 183.8 -12.9  34094  288.44 0855.17
2009/04/23 09:05:39.4       3   -305    -38    306    309 179.3  -7.2  34104  288.61 0855.17
2009/04/23 09:05:39.5     -24   -314    -37    315    318 184.4  -6.8  34106  288.65 0855.16
2009/04/23 09:05:39.6     -14   -303    -27    304    306 182.7  -5.2  34094  288.46 0855.16
2009/04/23 09:05:39.7     -25   -274    -19    276    277 185.3  -4.1  34090  288.39 0855.16
2009/04/23 09:05:39.8     -22   -283    -51    284    289 184.5 -10.3  34078  288.19 0855.16
2009/04/23 09:05:39.9     -19   -280    -47    281    285 184.0  -9.6  34070  288.05 0855.16
2009/04/23 09:05:40.0     -29   -269    -35    271    274 186.3  -7.5  34064  287.93 0855.16
2009/04/23 09:05:40.1     -19   -272    -24    273    275 184.0  -5.2  34062  287.90 0855.16
2009/04/23 09:05:40.2     -19   -279    -32    280    282 184.0  -6.7  34060  287.88 0855.16
2009/04/23 09:05:40.3     -12   -275    -34    276    279 182.6  -7.2  34060  287.88 0855.16
2009/04/23 09:05:40.4     -10   -285    -52    286    291 182.0 -10.4  34062  287.90 0855.16
2009/04/23 09:05:40.5     -27   -293    -48    295    300 185.4  -9.4  34096  288.48 0855.16
2009/04/23 09:05:40.6      -4   -289    -58    290    296 180.9 -11.3  34102  288.58 0855.16
2009/04/23 09:05:40.7     -43   -352    -58    355    360 187.0  -9.3  34114  288.79 0855.16
2009/04/23 09:05:40.8      30   -394   -109    396    411 175.5 -15.4  34104  288.61 0855.16
2009/04/23 09:05:40.9      22   -353    -71    354    362 176.4 -11.3  34116  288.82 0855.16
2009/04/23 09:05:41.0      11   -369    -47    370    374 178.3  -7.4  34116  288.82 0855.16
2009/04/23 09:05:41.1      27   -370    -40    371    374 175.8  -6.3  34116  288.81 0855.16
2009/04/23 09:05:41.2      51   -397   -110    401    417 172.7 -15.4  34106  288.67 0855.16
2009/04/23 09:05:41.3      25   -413   -106    414    428 176.5 -14.4  34100  288.55 0855.16
2009/04/23 09:05:41.4      52   -392   -102    396    410 172.3 -14.5  34104  288.63 0855.16
2009/04/23 09:05:41.5      28   -351    -40    353    356 175.4  -6.5  34108  288.69 0855.17
2009/04/23 09:05:41.6       9   -335    -47    336    340 178.4  -8.0  34108  288.69 0855.17
2009/04/23 09:05:41.7       0   -343     14    344    345 179.9   2.4  34106  288.67 0855.17
2009/04/23 09:05:41.8       6   -328     72    329    337 178.8  12.4  34108  288.69 0855.17
2009/04/23 09:05:41.9      26   -337    -32    339    341 175.5  -5.5  34096  288.50 0855.17
2009/04/23 09:05:42.0      24   -310    -12    312    313 175.5  -2.2  34096  288.49 0855.17
2009/04/23 09:05:42.1     -14   -288    -13    289    290 182.9  -2.6  34100  288.56 0855.17
2009/04/23 09:05:42.2     -41   -288    -57    291    297 188.1 -11.1  34092  288.43 0855.17
2009/04/23 09:05:42.3     -54   -287    -92    293    308 190.7 -17.5  34084  288.29 0855.17
2009/04/23 09:05:42.4     -41   -280    -85    284    297 188.5 -16.8  34090  288.37 0855.17
2009/04/23 09:05:42.5     -58   -241    -37    248    251 193.6  -8.6  34092  288.41 0855.17
2009/04/23 09:05:42.6     -25   -223    -64    225    235 186.5 -16.0  34082  288.26 0855.17
2009/04/23 09:05:42.7     -31   -224    -63    227    236 188.0 -15.5  34082  288.24 0855.17
2009/04/23 09:05:42.8     -43   -230    -82    235    248 190.7 -24.3  34080  288.21 0855.17
2009/04/23 09:05:42.9     -29   -258    -82    260    273 186.5 -17.6  34092  288.41 0855.17
2009/04/23 09:05:43.0     -10   -242    -56    243    250 182.5 -13.2  34092  288.41 0855.17
2009/04/23 09:05:43.1     -30   -218    -56    221    229 188.0 -14.3  34080  288.23 0855.17
2009/04/23 09:05:43.2       0   -215    -60    216    225 180.2 -15.5  34084  288.30 0855.17
2009/04/23 09:05:43.3      22   -200    -44    202    207 173.5 -12.4  34094  288.47 0855.17
2009/04/23 09:05:43.4      18   -175    -69    176    189 174.0 -26.9  34098  288.52 0855.17
2009/04/23 09:05:43.5      50   -222    -98    228    248 167.3 -29.3  34106  288.65 0855.18
2009/04/23 09:05:43.6      28   -269    -96    271    288 174.0 -19.6  34112  288.75 0855.18
2009/04/23 09:05:43.7      30   -281    -86    283    295 173.8 -21.7  34100  288.54 0855.18
2009/04/23 09:05:43.8      72   -273   -101    283    301 165.1 -19.7  34094  288.46 0855.18
2009/04/23 09:05:43.9     105   -288   -101    307    323 160.0 -23.6  34096  288.48 0855.18
2009/04/23 09:05:44.0      76   -283    -97    294    309 164.9 -23.8  34092  288.41 0855.18
2009/04/23 09:05:44.1      62   -294   -101    301    317 168.0 -23.6  34086  288.32 0855.18
2009/04/23 09:05:44.2      89   -291    -88    305    317 163.0 -20.9  34090  288.37 0855.18
2009/04/23 09:05:44.3      83   -245    -89    259    275 161.3 -19.1  34098  288.51 0855.18
2009/04/23 09:05:44.4      82   -267    -78    280    290 163.0 -20.2  34086  288.31 0855.18
2009/04/23 09:05:44.5      76   -262    -76    273    283 163.7 -20.2  34088  288.36 0855.18
2009/04/23 09:05:44.6      95   -242    -85    261    274 158.6 -23.3  34090  288.39 0855.18
2009/04/23 09:05:44.7      69   -228    -77    239    252 163.1 -17.9  34092  288.41 0855.18
2009/04/23 09:05:44.8      55   -202    -74    210    223 164.6 -19.6  34092  288.43 0855.18
2009/04/23 09:05:44.9      32   -208     -8    211    212 171.1  -2.2  34092  288.43 0855.18
2009/04/23 09:05:45.0       0   -181    -24    182    184 180.0  -7.7  34100  288.55 0855.18
2009/04/23 09:05:45.1     -10   -163    -22    164    166 183.8  -7.7  34100  288.55 0855.18
2009/04/23 09:05:45.2       0   -175    -29    176    179 180.2  -9.6  34098  288.52 0855.18
2009/04/23 09:05:45.3       4   -138    -38    139    145 178.2 -15.4  34100  288.57 0855.18
2009/04/23 09:05:45.4      31   -152    -35    156    161 168.4 -12.9  34098  288.53 0855.18
2009/04/23 09:05:45.5      54   -101     42    115    122 151.9  20.9  34098  288.53 0855.19
2009/04/23 09:05:45.6      71   -130    -18    149    151 151.5  -7.2  34096  288.50 0855.19
2009/04/23 09:05:45.7      41   -129    -17    136    138 162.2  -7.2  34096  288.50 0855.19
2009/04/23 09:05:45.8     -28   -121     46    125    133 193.4  20.9  34100  288.55 0855.19
2009/04/23 09:05:45.9     -37   -105     85    112    140 199.6  41.2  34106  288.65 0855.19
2009/04/23 09:05:46.0      -7    -85     98     86    130 185.3  54.3  34106  288.65 0855.19
2009/04/23 09:05:46.1     -32    -92    106     98    144 199.6  52.2  34108  288.69 0855.19
2009/04/23 09:05:46.2      -3   -123     60    124    137 181.4  27.3  34104  288.62 0855.19
2009/04/23 09:05:46.3      15   -101     84    103    132 171.1  43.7  34104  288.64 0855.19
2009/04/23 09:05:46.4      49    -96     43    109    117 152.8  22.5  34100  288.55 0855.19
2009/04/23 09:05:46.5      61   -107     19    124    126 150.1   9.0  34098  288.52 0855.19
2009/04/23 09:05:46.7      86   -134     26    160    163 147.4   9.5  34106  288.67 0855.19
2009/04/23 09:05:46.7      61   -147     55    160    170 157.3  18.9  34100  288.55 0855.19
2009/04/23 09:05:46.8      12   -158     73    159    174 175.5  26.6  34100  288.57 0855.19
2009/04/23 09:05:46.9       4   -136     91    137    164 178.2  36.7  34104  288.62 0855.19
2009/04/23 09:05:47.0      23   -159     77    161    178 171.5  27.3  34104  288.62 0855.19
2009/04/23 09:05:47.1      56   -139     23    150    152 158.1   9.0  34106  288.65 0855.19
2009/04/23 09:05:47.2       0   -106     37    107    114 180.5  19.4  34106  288.65 0855.19
2009/04/23 09:05:47.3     -39   -136     64    142    155 196.0  26.2  34100  288.57 0855.19
2009/04/23 09:05:47.4      10   -169     52    170    178 176.4  17.1  34104  288.64 0855.19
2009/04/23 09:05:47.5      -5   -133     69    134    150 182.2  29.3  34104  288.62 0855.18
2009/04/23 09:05:47.6     -47   -135     90    144    169 199.2  35.2  34096  288.48 0855.18
2009/04/23 09:05:47.7      -9   -185    139    186    232 182.9  40.1  34096  288.50 0855.18
2009/04/23 09:05:47.8     -36   -213    119    217    247 189.8  31.3  34102  288.58 0855.18
2009/04/23 09:05:48.0     -33   -175     83    179    197 190.7  26.6  34100  288.57 0855.18
2009/04/23 09:05:48.0     -34   -170     74    174    189 191.6  24.6  34104  288.64 0855.18
2009/04/23 09:05:48.1      -4   -157     49    158    166 181.8  17.3  34104  288.64 0855.18
2009/04/23 09:05:48.2       9   -156     35    157    161 176.4  12.6  34104  288.64 0855.18
2009/04/23 09:05:48.3      13   -128    -15    129    130 173.8  -6.7  34102  288.60 0855.18
2009/04/23 09:05:48.4      50   -141    -16    150    151 160.4  -6.2  34102  288.58 0855.18
2009/04/23 09:05:48.5      31   -173    -54    176    184 169.8 -22.3  34102  288.58 0855.18
2009/04/23 09:05:48.6      44   -221    -81    226    240 168.7 -24.8  34106  288.65 0855.18
2009/04/23 09:05:48.7      96   -242    -67    261    270 158.2 -14.4  34098  288.53 0855.18
2009/04/23 09:05:48.8      64   -204    -65    214    223 162.4 -21.8  34100  288.55 0855.18
2009/04/23 09:05:48.9      34   -202    -14    206    207 170.2  -3.9  34092  288.42 0855.18
2009/04/23 09:05:49.0      15   -225     -6    226    227 176.0  -1.6  34088  288.35 0855.18
2009/04/23 09:05:49.1      15   -195      9    196    197 175.5   2.9  34088  288.35 0855.18
2009/04/23 09:05:49.2      15   -192    -26    193    195 175.5  -7.7  34090  288.38 0855.18
2009/04/23 09:05:49.3      40   -197     -9    202    203 168.4  -2.6  34094  288.45 0855.18
2009/04/23 09:05:49.4      41   -181    -28    186    189 167.1  -8.8  34094  288.47 0855.18
2009/04/23 09:05:49.5      16   -155    -48    156    164 174.0 -17.3  34092  288.43 0855.19
2009/04/23 09:05:49.6      22   -159    -46    161    167 172.0 -20.7  34094  288.45 0855.19
2009/04/23 09:05:49.7      -1   -180     39    181    186 180.5  12.2  34092  288.43 0855.19
2009/04/23 09:05:49.8       0   -190     55    191    199 180.2  16.3  34096  288.50 0855.19
2009/04/23 09:05:49.9      -8   -183     44    184    190 182.7  13.7  34094  288.47 0855.19
2009/04/23 09:05:50.0      19   -132    -48    134    143 171.5 -19.7  34096  288.50 0855.19
2009/04/23 09:05:50.1      10   -118    -49    119    128 175.1 -28.0  34092  288.43 0855.19
2009/04/23 09:05:50.2      -2   -114    -41    115    122 181.0 -24.8  34094  288.45 0855.19
2009/04/23 09:05:50.3       2   -132    -48    133    141 179.1 -25.3  34090  288.40 0855.19
2009/04/23 09:05:50.4      11   -151    -48    152    160 175.6 -17.6  34092  288.43 0855.19
2009/04/23 09:05:50.5      23   -138    -32    141    145 170.3 -12.9  34092  288.42 0855.19
2009/04/23 09:05:50.6      14   -134    -42    135    142 173.8 -17.5  34092  288.43 0855.19
2009/04/23 09:05:50.7      20   -118    -41    120    128 170.2 -19.1  34094  288.47 0855.19
2009/04/23 09:05:50.8      31   -114    -28    119    123 164.4 -13.4  34092  288.43 0855.19
2009/04/23 09:05:50.9       2   -115      2    116    117 178.6   1.2  34092  288.42 0855.19
2009/04/23 09:05:51.0       1   -120    -24    121    124 179.1 -11.3  34092  288.43 0855.19
2009/04/23 09:05:51.1       0   -129    -16    130    132 180.4  -7.3  34096  288.48 0855.19
2009/04/23 09:05:51.2      17   -155    -18    156    158 173.7  -6.9  34092  288.42 0855.19
2009/04/23 09:05:51.3       1   -137      7    138    139 179.5   2.9  34092  288.43 0855.19
2009/04/23 09:05:51.4      15   -127    -12    128    129 172.9  -5.6  34092  288.43 0855.19
2009/04/23 09:05:51.5       7   -137      7    138    139 176.9   3.3  34092  288.43 0855.19
2009/04/23 09:05:51.6       4   -126      6    127    128 177.8   2.9  34090  288.40 0855.19
2009/04/23 09:05:51.7      21   -127     -5    129    130 170.3  -2.2  34090  288.40 0855.19
2009/04/23 09:05:51.8      20   -119     -6    121    122 170.2  -3.2  34092  288.43 0855.19
2009/04/23 09:05:51.9      37   -131    -32    137    141 164.0 -13.3  34092  288.42 0855.19
2009/04/23 09:05:52.0      -6   -116     -6    117    118 183.1  -3.1  34090  288.40 0855.19
2009/04/23 09:05:52.1       9   -117     28    118    122 175.5  13.7  34090  288.40 0855.19
2009/04/23 09:05:52.2      45   -114     13    123    124 158.2   6.5  34092  288.43 0855.19
2009/04/23 09:05:52.3      26   -107    -76    111    134 166.2 -41.8  34092  288.42 0855.19
2009/04/23 09:05:52.4      26    -96    -52    100    112 164.4 -33.7  34092  288.42 0855.19
2009/04/23 09:05:52.5      20   -108    -34    110    115 169.3 -23.3  34094  288.45 0855.19
2009/04/23 09:05:52.6      43    -82     -8     93     94 151.9  -5.2  34092  288.43 0855.19
2009/04/23 09:05:52.7      65    -74     11     99    100 138.6   6.9  34090  288.40 0855.19
2009/04/23 09:05:52.8      54    -95     33    110    115 150.1  16.8  34092  288.43 0855.19
2009/04/23 09:05:52.9      76   -105     23    130    133 144.0  10.1  34092  288.42 0855.19
2009/04/23 09:05:53.0      65   -124     -6    141    142 152.4  -2.6  34094  288.45 0855.19
2009/04/23 09:05:53.1      58   -201    -15    210    211 164.0  -4.1  34092  288.43 0855.19
2009/04/23 09:05:53.2      64   -202     33    212    215 162.4   9.0  34092  288.43 0855.19
2009/04/23 09:05:53.3      15   -187     51    188    195 175.1  15.3  34092  288.43 0855.19
2009/04/23 09:05:53.4      47   -142    -65    150    163 161.7 -29.0  34092  288.43 0855.19
2009/04/23 09:05:53.5      26   -116    -43    119    126 167.1 -24.8  34094  288.45 0855.19
2009/04/23 09:05:53.6      57    -76    -60     96    113 143.0 -39.9  34092  288.43 0855.19
2009/04/23 09:05:53.7      62   -110    -82    127    151 150.6 -40.0  34092  288.43 0855.19
2009/04/23 09:05:53.8      52   -110    -66    122    138 154.7 -35.7  34092  288.42 0855.19
2009/04/23 09:05:53.9      66   -103    -51    123    133 147.4 -28.0  34090  288.40 0855.19
2009/04/23 09:05:54.0      20   -110    -76    112    135 169.3 -41.8  34092  288.42 0855.19
2009/04/23 09:05:54.1       5   -125    -41    126    133 177.3 -18.1  34092  288.43 0855.19
2009/04/23 09:05:54.2      31   -119    -39    123    130 165.3 -17.5  34092  288.42 0855.19
2009/04/23 09:05:54.3      28   -120    -15    124    125 166.6  -7.2  34092  288.43 0855.19
2009/04/23 09:05:54.4      -2   -131    -17    132    134 180.9  -7.3  34096  288.48 0855.19
2009/04/23 09:05:54.5     -33   -127    -17    132    134 194.7  -7.7  34092  288.43 0855.19
2009/04/23 09:05:54.6     -36   -121    -54    127    138 196.5 -28.5  34092  288.42 0855.19
2009/04/23 09:05:54.7     -20   -106    -67    108    127 190.7 -39.9  34092  288.43 0855.19
2009/04/23 09:05:54.8       2    -94    -69     95    117 178.2 -44.1  34090  288.40 0855.19
2009/04/23 09:05:54.9      14    -82    -65     84    106 169.8 -46.1  34094  288.47 0855.19
2009/04/23 09:05:55.0      33    -83    -70     90    114 158.2 -46.6  34098  288.53 0855.19
2009/04/23 09:05:55.1      28    -78    -80     84    116 160.0 -53.4  34098  288.53 0855.19
2009/04/23 09:05:55.2      10   -107    -56    108    121 174.7 -33.7  34098  288.52 0855.19
2009/04/23 09:05:55.3      16   -102    -34    104    109 171.1 -23.8  34096  288.50 0855.19
2009/04/23 09:05:55.4      42    -96    -40    105    112 156.4 -25.9  34096  288.48 0855.19
2009/04/23 09:05:55.5      39    -98    -60    106    121 158.2 -36.3  34100  288.55 0855.19
2009/04/23 09:05:55.6      31    -91    -79     97    125 160.8 -48.1  34104  288.62 0855.19
2009/04/23 09:05:55.7      32    -96    -76    102    127 161.7 -45.6  34106  288.65 0855.19
2009/04/23 09:05:55.8      35   -104    -76    110    133 161.3 -42.0  34102  288.60 0855.19
2009/04/23 09:05:55.9      18   -103    -49    105    115 169.8 -31.5  34106  288.65 0855.19
2009/04/23 09:05:56.0      22    -96    -31     99    103 167.1 -23.3  34104  288.64 0855.19
2009/04/23 09:05:56.1      23    -97    -30    100    104 166.2 -22.3  34104  288.64 0855.19
2009/04/23 09:05:56.2      18    -75    -20     78     81 166.6 -14.5  34102  288.60 0855.19
2009/04/23 09:05:56.3      10    -77    -55     78     95 171.9 -42.4  34102  288.58 0855.19
2009/04/23 09:05:56.4       6    -72    -46     73     86 174.7 -39.9  34098  288.53 0855.19
2009/04/23 09:05:56.5       5    -70    -35     71     79 175.6 -32.6  34102  288.60 0855.18
2009/04/23 09:05:56.6       8    -52    -52     53     74 171.1 -55.5  34100  288.57 0855.18
2009/04/23 09:05:56.7       2    -42    -45     43     62 177.3 -55.6  34100  288.57 0855.18
2009/04/23 09:05:56.8      13    -47    -34     49     59 164.0 -43.0  34100  288.57 0855.18
2009/04/23 09:05:56.9      18    -39    -15     44     46 154.6 -23.6  34100  288.57 0855.18
2009/04/23 09:05:57.0       0    -21    -19     22     29 180.9 -52.3  34100  288.57 0855.18
2009/04/23 09:05:57.1       0    -14    -26     15     30 182.7 -71.2  34098  288.53 0855.18
2009/04/23 09:05:57.2      -5    -29    -22     30     37 189.8 -44.1  34098  288.53 0855.18
2009/04/23 09:05:57.3       0    -50    -17     51     53 180.0 -23.6  34098  288.53 0855.18
2009/04/23 09:05:57.4       7    -55    -17     56     58 172.0 -23.8  34096  288.48 0855.18
2009/04/23 09:05:57.5      -2    -69     -2     70     71 181.8  -2.2  34096  288.48 0855.18
2009/04/23 09:05:57.6      -4    -88     20     89     92 183.1  12.6  34096  288.48 0855.18
2009/04/23 09:05:57.7      -7   -101     22    102    105 184.5  12.6  34092  288.42 0855.18
2009/04/23 09:05:57.8      -3    -94     36     95    101 182.2  21.5  34094  288.47 0855.18
2009/04/23 09:05:57.9      -5    -79     21     80     83 183.6  15.3  34094  288.47 0855.18
2009/04/23 09:05:58.0      12    -94      9     95     96 172.4   5.9  34096  288.48 0855.18
2009/04/23 09:05:58.1      33   -100      2    106    107 161.7   1.2  34094  288.47 0855.18
2009/04/23 09:05:58.2      52   -111     23    123    126 154.5  10.6  34090  288.38 0855.18
2009/04/23 09:05:58.3      47    -98     65    109    126 154.1  33.5  34090  288.40 0855.18
2009/04/23 09:05:58.4      42   -115     47    123    131 160.0  21.5  34090  288.40 0855.18
2009/04/23 09:05:58.5      94   -112     38    147    152 139.9  14.7  34092  288.43 0855.18
2009/04/23 09:05:58.6      86   -101     16    133    135 139.5   7.1  34092  288.43 0855.18
2009/04/23 09:05:58.7      74    -89     -6    116    117 140.3  -3.1  34092  288.42 0855.18
2009/04/23 09:05:58.8      52    -83     43     98    107 147.9  24.6  34090  288.40 0855.18
2009/04/23 09:05:58.9      73    -88     51    115    125 140.3  25.2  34092  288.42 0855.18
2009/04/23 09:05:59.0      78    -90     49    120    129 139.0  23.0  34090  288.40 0855.18
2009/04/23 09:05:59.1      88    -82     39    121    128 132.7  17.9  34092  288.42 0855.18
2009/04/23 09:05:59.2      84    -67     22    108    111 128.6  11.6  34094  288.45 0855.18
2009/04/23 09:05:59.3      63    -78     22    101    104 141.3  12.6  34090  288.40 0855.18
2009/04/23 09:05:59.4      50    -73     41     89     97 145.3  26.6  34086  288.33 0855.18
2009/04/23 09:05:59.5      51    -82     49     97    108 147.9  28.7  34088  288.35 0855.18
2009/04/23 09:05:59.6      53    -79     46     96    106 146.2  27.3  34088  288.35 0855.18
2009/04/23 09:05:59.7      50    -63     42     81     91 141.7  29.3  34090  288.40 0855.18
2009/04/23 09:05:59.8      51    -64     55     83     99 141.3  36.5  34090  288.40 0855.18
2009/04/23 09:05:59.9      46    -63     44     79     90 144.0  31.4  34090  288.38 0855.18
2009/04/23 09:06:00.0      43    -69     47     82     94 148.4  32.9  34088  288.36 0855.18
2009/04/23 09:06:00.1      35    -74     48     82     95 154.5  34.0  34086  288.31 0855.18
2009/04/23 09:06:00.2      35    -74     48     82     95 154.5  34.0  34086  288.31 0855.18
2009/04/23 09:06:00.3      38    -59     37     71     80 147.5  29.8  34088  288.36 0855.18
2009/04/23 09:06:00.4      41    -35     57     55     79 130.4  50.7  34088  288.36 0855.18
2009/04/23 09:06:00.5      45    -29     61     54     81 123.3  53.7  34094  288.47 0855.17
2009/04/23 09:06:00.6      78    -49     69     93    115 122.0  40.1  34102  288.60 0855.17
2009/04/23 09:06:00.7      71    -59     55     93    108 129.6  34.0  34094  288.45 0855.17
2009/04/23 09:06:00.8      88    -62     55    108    121 125.1  29.2  34094  288.47 0855.17
2009/04/23 09:06:00.9      84    -56     57    101    115 123.7  31.9  34098  288.53 0855.17
2009/04/23 09:06:01.0      76    -51     57     92    108 124.2  35.5  34094  288.47 0855.17
2009/04/23 09:06:01.1      80    -56     47     98    108 125.1  27.2  34096  288.50 0855.17
2009/04/23 09:06:01.2      75    -65     50    100    111 130.9  28.2  34106  288.67 0855.17
2009/04/23 09:06:01.3      93    -70     46    117    125 127.3  22.5  34104  288.62 0855.17
2009/04/23 09:06:01.4      63    -54     55     84    100 130.4  36.0  34122  288.92 0855.17
2009/04/23 09:06:01.5      51    -58     57     78     96 138.6  39.7  34116  288.84 0855.17
2009/04/23 09:06:01.6      55    -73     39     92     99 143.0  24.1  34104  288.64 0855.17
2009/04/23 09:06:01.8      36    -53     66     65     92 145.7  49.7  34114  288.79 0855.17
2009/04/23 09:06:01.9      15    -77     60     79     99 168.4  40.7  34108  288.70 0855.17
2009/04/23 09:06:02.0      18    -77     59     80     99 166.6  39.7  34108  288.70 0855.17
2009/04/23 09:06:02.1       6    -70     22     71     75 174.7  17.3  34096  288.50 0855.17
2009/04/23 09:06:02.2      10    -78     12     79     81 172.0   9.0  34094  288.47 0855.17
2009/04/23 09:06:02.3      41    -65     27     78     83 147.5  19.4  34096  288.48 0855.17
2009/04/23 09:06:02.4      60    -45     26     76     81 126.9  18.9  34104  288.62 0855.17
2009/04/23 09:06:02.5      46    -56    -17     73     76 140.3 -13.4  34098  288.53 0855.17
2009/04/23 09:06:02.6      33    -48    -16     59     62 145.7 -15.5  34098  288.53 0855.17
2009/04/23 09:06:02.7      19    -49     -2     53     54 158.2  -2.2  34102  288.58 0855.17
2009/04/23 09:06:02.8       9    -66    -11     67     68 171.9  -9.3  34098  288.53 0855.17
2009/04/23 09:06:02.9       6    -69     -7     70     71 174.7  -6.2  34096  288.48 0855.17
2009/04/23 09:06:03.0      30    -64      2     71     72 154.5   1.8  34096  288.48 0855.17
2009/04/23 09:06:03.1      41    -65     27     78     83 147.5  19.4  34096  288.48 0855.17
2009/04/23 09:06:03.2      45    -72     31     85     90 147.9  21.0  34096  288.48 0855.17
2009/04/23 09:06:03.3      47    -92     35    104    110 152.8  18.9  34096  288.50 0855.17
2009/04/23 09:06:03.4      51   -114     19    125    127 155.9   9.0  34096  288.48 0855.17
2009/04/23 09:06:03.5      57   -103     -4    118    119 151.1  -2.2  34096  288.48 0855.17
2009/04/23 09:06:03.6      38   -103      4    110    111 159.5   2.3  34096  288.50 0855.17
2009/04/23 09:06:03.7      39    -94     25    103    107 157.3  13.7  34096  288.50 0855.17
2009/04/23 09:06:03.8      52    -98     39    112    119 151.9  19.4  34096  288.48 0855.17
2009/04/23 09:06:03.9      39   -107     35    114    120 160.0  17.4  34096  288.50 0855.17
2009/04/23 09:06:04.0      18   -120     31    122    126 171.5  14.3  34096  288.48 0855.17
2009/04/23 09:06:04.1      13   -111     25    112    115 173.3  12.6  34096  288.48 0855.17
2009/04/23 09:06:04.2      10   -112     39    113    120 174.7  19.2  34096  288.48 0855.17
2009/04/23 09:06:04.3      21   -102     41    105    112 168.4  22.5  34094  288.45 0855.17
2009/04/23 09:06:04.4      23   -112     35    115    121 168.0  17.3  34094  288.47 0855.17
2009/04/23 09:06:04.5      23   -113     37    116    122 168.5  17.9  34094  288.47 0855.17
2009/04/23 09:06:04.6      18   -120     31    122    126 171.5  14.3  34096  288.48 0855.17
2009/04/23 09:06:04.7      41   -129     25    136    139 162.2  10.6  34096  288.48 0855.17
2009/04/23 09:06:04.8      43   -158     16    164    165 164.6   5.9  34102  288.58 0855.17
2009/04/23 09:06:04.9      45   -173     34    179    183 165.3  11.0  34102  288.58 0855.17
2009/04/23 09:06:05.0      27   -169     32    172    175 170.9  10.6  34100  288.57 0855.17
2009/04/23 09:06:05.1       7   -164      9    165    166 177.3   3.3  34100  288.57 0855.17
2009/04/23 09:06:05.2      -3   -165      2    166    167 181.1   0.8  34100  288.55 0855.17
2009/04/23 09:06:05.3     -20   -154     33    156    160 187.6  12.0  34098  288.53 0855.17
2009/04/23 09:06:05.4     -20   -163     60    165    175 187.1  20.2  34098  288.52 0855.17
2009/04/23 09:06:05.5       8   -198     70    199    211 177.5  19.4  34100  288.57 0855.17
2009/04/23 09:06:05.6      30   -207     79    210    224 171.5  21.3  34100  288.57 0855.17
2009/04/23 09:06:05.7      19   -174     68    176    188 173.5  22.3  34100  288.55 0855.17
2009/04/23 09:06:05.8      41   -152     87    158    180 164.9  31.3  34098  288.52 0855.17
2009/04/23 09:06:05.9      29   -172     82    175    193 170.2  27.1  34104  288.62 0855.17
2009/04/23 09:06:06.0      34   -169    102    173    200 168.4  33.4  34106  288.65 0855.17
2009/04/23 09:06:06.1      34   -169    102    173    200 168.4  33.4  34106  288.65 0855.17
2009/04/23 09:06:06.2      42   -165    110    171    203 165.7  35.6  34104  288.62 0855.17
2009/04/23 09:06:06.3       8   -168    124    169    209 177.1  39.9  34100  288.57 0855.17
2009/04/23 09:06:06.4      58   -180    130    190    230 162.2  37.6  34102  288.60 0855.17
2009/04/23 09:06:06.5      15   -179    131    180    222 174.9  39.7  34098  288.53 0855.17
2009/04/23 09:06:06.6      72   -170    132    185    227 157.1  39.3  34100  288.57 0855.17
2009/04/23 09:06:06.7      73   -171    116    187    220 156.8  35.0  34102  288.58 0855.17
2009/04/23 09:06:06.8      54   -182     93    191    212 163.3  27.8  34104  288.64 0855.17
2009/04/23 09:06:06.9      50   -186    103    193    218 164.8  30.6  34100  288.55 0855.17
2009/04/23 09:06:07.0      50   -187    115    194    225 164.9  33.5  34098  288.53 0855.17
2009/04/23 09:06:07.1      76   -192     82    207    222 158.2  23.0  34098  288.53 0855.17
2009/04/23 09:06:07.2      74   -160     74    177    191 155.1  23.8  34098  288.52 0855.17
2009/04/23 09:06:07.3      59   -179    133    189    231 161.7  38.6  34100  288.55 0855.17
2009/04/23 09:06:07.4      71   -179    124    193    229 158.2  35.6  34098  288.53 0855.17
2009/04/23 09:06:07.5      80   -207     90    223    240 158.8  23.1  34098  288.51 0855.17
2009/04/23 09:06:07.6      62   -249     70    257    267 165.8  15.3  34098  288.51 0855.17
2009/04/23 09:06:07.7      58   -257     31    264    266 167.1   6.9  34100  288.56 0855.17
2009/04/23 09:06:07.8     -25   -287     36    289    292 185.1   7.1  34098  288.51 0855.17
2009/04/23 09:06:07.9     -25   -285     42    287    291 185.1   8.5  34096  288.48 0855.17
2009/04/23 09:06:08.0     -29   -271     53    273    279 186.3  11.1  34094  288.44 0855.17
2009/04/23 09:06:08.1     -26   -266      8    268    269 185.6   1.7  34094  288.44 0855.17
2009/04/23 09:06:08.2     -26   -264      8    266    267 185.8   1.8  34094  288.46 0855.17
2009/04/23 09:06:08.3     -28   -262     12    264    265 186.2   2.8  34092  288.43 0855.17
2009/04/23 09:06:08.4     -18   -228     -5    229    230 184.7  -1.3  34092  288.43 0855.17
2009/04/23 09:06:08.5       8   -196    -25    197    199 177.5  -7.5  34096  288.50 0855.17
2009/04/23 09:06:08.6      14   -181    -59    182    192 175.5 -17.9  34098  288.53 0855.16
2009/04/23 09:06:08.7      -9   -211    -66    212    223 182.7 -17.3  34096  288.50 0855.16
2009/04/23 09:06:08.8     -48   -235    -25    240    242 191.6  -6.0  34092  288.43 0855.16
2009/04/23 09:06:08.9     -35   -249    -64    252    261 188.0 -14.3  34096  288.48 0855.16
2009/04/23 09:06:09.0     -42   -224    -30    228    231 190.7  -7.7  34092  288.43 0855.16
2009/04/23 09:06:09.1     -38   -209     -4    213    214 190.5  -1.3  34088  288.36 0855.16
2009/04/23 09:06:09.2     -46   -230    -16    235    236 191.5  -4.1  34092  288.43 0855.16
2009/04/23 09:06:09.3       3   -221    -62    222    231 179.0 -15.8  34094  288.47 0855.16
2009/04/23 09:06:09.4     -62   -225    -13    234    235 195.6  -3.2  34092  288.43 0855.16
2009/04/23 09:06:09.5     -73   -220    -29    232    234 198.5  -7.2  34092  288.43 0855.16
2009/04/23 09:06:09.6     -79   -193    -16    209    210 202.3  -4.6  34094  288.45 0855.16
2009/04/23 09:06:09.7     -69   -226    -39    237    241 197.0  -9.3  34096  288.49 0855.16
2009/04/23 09:06:09.8     -85   -281    -26    294    296 197.0  -5.2  34092  288.43 0855.16
2009/04/23 09:06:09.9     -91   -249    -34    266    269 200.1  -7.3  34096  288.48 0855.16
2009/04/23 09:06:10.0     -29   -195    -56    198    205 188.7 -20.4  34094  288.45 0855.16
2009/04/23 09:06:10.1     -24   -229    -66    231    240 186.2 -20.7  34096  288.49 0855.16
2009/04/23 09:06:10.2     -60   -240    -84    248    261 194.0 -23.3  34098  288.51 0855.16
2009/04/23 09:06:10.3     -60   -233    -84    241    255 194.5 -24.3  34104  288.61 0855.16
2009/04/23 09:06:10.4     -69   -233    -67    244    253 196.5 -20.0  34100  288.54 0855.16
2009/04/23 09:06:10.5     -85   -250    -65    265    273 198.9 -13.9  34100  288.56 0855.16
2009/04/23 09:06:10.6     -77   -280    -58    291    297 195.4 -11.3  34096  288.49 0855.16
2009/04/23 09:06:10.7     -52   -307    -86    312    324 189.7 -15.5  34098  288.53 0855.16
2009/04/23 09:06:10.8       4   -270    -17    271    272 179.0  -3.7  34098  288.51 0855.16
2009/04/23 09:06:10.9      -4   -253    -36    254    257 181.1  -8.3  34100  288.54 0855.16
2009/04/23 09:06:11.0    -100   -258    -65    277    285 201.2 -13.3  34100  288.56 0855.16
2009/04/23 09:06:11.1     -71   -218    -15    230    231 198.0  -3.9  34100  288.55 0855.16
2009/04/23 09:06:11.2     -50   -237     -9    243    244 192.0  -2.2  34102  288.58 0855.16
2009/04/23 09:06:11.3     -36   -212    -56    216    224 189.8 -14.5  34100  288.55 0855.16
2009/04/23 09:06:11.4     -32   -203    -66    206    216 189.1 -23.0  34100  288.55 0855.16
2009/04/23 09:06:11.5     -28   -201    -82    204    219 188.0 -27.5  34098  288.53 0855.16
2009/04/23 09:06:11.6     -73   -176    -83    191    208 202.5 -29.5  34098  288.53 0855.16
2009/04/23 09:06:11.7     -41   -169    -53    175    182 193.8 -22.1  34098  288.52 0855.16
2009/04/23 09:06:11.8     -14   -223     -7    224    225 183.6  -1.8  34098  288.52 0855.16
2009/04/23 09:06:11.9     -44   -167     -6    173    174 194.9  -2.1  34100  288.55 0855.16
2009/04/23 09:06:12.0     -19   -197    -15    198    199 185.6  -4.6  34098  288.53 0855.16
2009/04/23 09:06:12.1     -10   -213     -8    214    215 182.9  -2.3  34100  288.55 0855.16
2009/04/23 09:06:12.2      10   -225     -4    226    227 177.3  -1.3  34102  288.58 0855.16
2009/04/23 09:06:12.3      12   -222    -25    223    225 176.9  -6.5  34104  288.62 0855.16
2009/04/23 09:06:12.4     -17   -228    -45    229    234 184.4 -11.1  34106  288.65 0855.16
2009/04/23 09:06:12.5     -20   -259    -11    260    261 184.5  -2.6  34102  288.58 0855.16
2009/04/23 09:06:12.6     -41   -274    -20    278    279 188.5  -4.1  34102  288.59 0855.16
2009/04/23 09:06:12.7     -57   -239    -40    246    250 193.4  -9.3  34102  288.58 0855.16
2009/04/23 09:06:12.8     -39   -239    -44    243    247 189.3 -10.3  34104  288.61 0855.16
2009/04/23 09:06:12.9     -32   -231    -45    234    239 188.0 -10.9  34104  288.61 0855.16
2009/04/23 09:06:13.0     -46   -215    -65    221    231 192.3 -16.4  34102  288.60 0855.16
2009/04/23 09:06:13.1     -42   -207    -50    212    218 191.6 -13.4  34102  288.58 0855.16
2009/04/23 09:06:13.2     -72   -213    -19    225    226 198.7  -4.9  34100  288.57 0855.16
2009/04/23 09:06:13.3       8   -214     58    215    223 177.8  15.2  34100  288.57 0855.16
2009/04/23 09:06:13.4      42   -241     27    245    247 170.0   6.5  34102  288.58 0855.16
2009/04/23 09:06:13.5      51   -269     45    274    278 169.1   9.5  34100  288.54 0855.16
2009/04/23 09:06:13.6      28   -256     60    258    266 173.7  13.2  34100  288.56 0855.15
2009/04/23 09:06:13.7      36   -261      5    264    265 172.0   1.2  34102  288.58 0855.15
2009/04/23 09:06:13.8      33   -251     12    254    255 172.4   2.9  34098  288.53 0855.15
2009/04/23 09:06:13.9      28   -262     21    264    265 173.8   4.6  34098  288.51 0855.15
2009/04/23 09:06:14.0       0   -283    -11    284    285 180.0  -2.2  34100  288.54 0855.15
2009/04/23 09:06:14.1      -4   -259     -7    260    261 180.9  -1.6  34098  288.53 0855.15
2009/04/23 09:06:14.2      33   -267    -10    270    271 172.8  -2.2  34100  288.56 0855.15
2009/04/23 09:06:14.3       8   -259     -8    260    261 178.2  -1.8  34100  288.56 0855.15
2009/04/23 09:06:14.4       6   -251    -27    252    254 178.6  -6.2  34102  288.58 0855.15
2009/04/23 09:06:14.5      16   -274    -15    275    276 176.5  -3.1  34100  288.56 0855.15
2009/04/23 09:06:14.6      31   -267    -44    269    273 173.3  -9.3  34102  288.58 0855.15
2009/04/23 09:06:14.7      36   -260    -22    263    265 172.0  -4.9  34102  288.58 0855.15
2009/04/23 09:06:14.8      38   -271    -15    274    275 172.0  -3.1  34100  288.56 0855.15
2009/04/23 09:06:14.9      50   -275    -12    280    281 169.5  -2.6  34100  288.54 0855.15
2009/04/23 09:06:15.0      33   -268    -26    271    273 172.9  -5.6  34102  288.58 0855.15
2009/04/23 09:06:15.1      40   -281     -5    284    285 171.8  -1.2  34100  288.54 0855.15
2009/04/23 09:06:15.2      45   -286     -6    290    291 170.9  -1.3  34102  288.58 0855.15
2009/04/23 09:06:15.3      26   -276    -35    278    281 174.6  -7.2  34102  288.58 0855.15
2009/04/23 09:06:15.4      27   -280    -56    282    288 174.4 -11.3  34102  288.58 0855.15
2009/04/23 09:06:15.5      33   -307    -51    309    314 173.8  -9.5  34102  288.58 0855.15
2009/04/23 09:06:15.6     -14   -276    -76    277    288 182.9 -15.4  34102  288.59 0855.15
2009/04/23 09:06:15.7       2   -268    -77    269    280 179.5 -16.0  34110  288.71 0855.15
2009/04/23 09:06:15.8       3   -223    -50    224    230 179.0 -12.6  34106  288.67 0855.15
2009/04/23 09:06:15.9      -3   -227    -29    228    230 181.0  -7.3  34108  288.70 0855.15
2009/04/23 09:06:16.0     -45   -266    -10    270    271 189.7  -2.2  34104  288.63 0855.15
2009/04/23 09:06:16.1     -22   -267     -5    269    270 184.9  -1.1  34116  288.81 0855.15
2009/04/23 09:06:16.2       4   -269    -14    270    271 179.1  -3.1  34110  288.73 0855.15
2009/04/23 09:06:16.3      -8   -253    -10    254    255 182.0  -2.3  34114  288.80 0855.15
2009/04/23 09:06:16.4     -15   -249     -1    250    251 183.6  -0.3  34112  288.75 0855.15
2009/04/23 09:06:16.5      12   -228     35    229    232 176.9   8.9  34108  288.70 0855.15
2009/04/23 09:06:16.6      24   -224     58    226    234 173.7  14.5  34106  288.67 0855.15
2009/04/23 09:06:16.7      23   -257     51    259    265 174.7  11.1  34108  288.70 0855.15
2009/04/23 09:06:16.8     115   -260     24    285    287 156.2   5.0  34108  288.68 0855.15
2009/04/23 09:06:16.9      61   -244     57    252    259 165.8  12.9  34106  288.65 0855.15
2009/04/23 09:06:17.0      88   -240    113    256    279 159.7  25.2  34108  288.68 0855.15
2009/04/23 09:06:17.1     114   -223     44    251    255 152.8  10.1  34110  288.71 0855.15
2009/04/23 09:06:17.2     107   -197     39    225    229 151.5   9.9  34108  288.69 0855.15
2009/04/23 09:06:17.3     176   -317    -69    363    370 151.0 -10.8  34100  288.57 0855.15
2009/04/23 09:06:17.4      22   -471     12    472    473 177.2   1.5  34104  288.64 0855.15
2009/04/23 09:06:17.5     -49   -414     64    418    423 186.9   8.8  34100  288.56 0855.15
2009/04/23 09:06:17.6     100   -419    -52    431    435 166.5  -6.9  34098  288.51 0855.15
2009/04/23 09:06:17.7      -6   -431      9    432    433 180.9   1.2  34104  288.61 0855.15
2009/04/23 09:06:17.8      13   -446     29    447    448 178.2   3.8  34104  288.61 0855.15
2009/04/23 09:06:17.9      17   -437     41    438    441 177.7   5.4  34104  288.61 0855.15
2009/04/23 09:06:18.0      10   -378    -17    379    380 178.4  -2.7  34104  288.62 0855.15
2009/04/23 09:06:18.1      25   -370    -48    371    375 176.1  -7.5  34102  288.60 0855.15
2009/04/23 09:06:18.2       0   -357    -43    358    361 180.0  -6.9  34102  288.60 0855.15
2009/04/23 09:06:18.3     100   -361    -48    375    379 164.5  -7.4  34094  288.47 0855.15
2009/04/23 09:06:18.4      86   -339    -13    350    351 165.7  -2.2  34094  288.47 0855.15
2009/04/23 09:06:18.5      50   -362      1    366    367 172.0   0.2  34094  288.47 0855.15
2009/04/23 09:06:18.6      56   -298    -27    304    306 169.3  -5.1  34096  288.48 0855.15
2009/04/23 09:06:18.7      98   -307     17    323    324 162.2   3.1  34096  288.48 0855.15
2009/04/23 09:06:18.8      26   -288     57    290    296 174.7  11.1  34096  288.48 0855.15
2009/04/23 09:06:18.9      46   -266     90    271    286 170.2  18.4  34098  288.51 0855.15
2009/04/23 09:06:19.0      18   -314     41    315    318 176.6   7.6  34096  288.48 0855.15
2009/04/23 09:06:19.1       4   -268     87    269    283 179.0  17.9  34096  288.49 0855.15
2009/04/23 09:06:19.2     -10   -213     82    214    229 182.9  22.0  34096  288.50 0855.15
2009/04/23 09:06:19.3     -25   -231     82    233    247 186.2  20.0  34096  288.48 0855.15
2009/04/23 09:06:19.4     -64   -193    -23    204    206 198.5  -6.5  34100  288.55 0855.15
2009/04/23 09:06:19.5     -26   -167    -45    170    176 188.9 -15.0  34100  288.55 0855.15
2009/04/23 09:06:19.6     -51   -177    -23    185    187 196.0  -7.3  34100  288.57 0855.15
2009/04/23 09:06:19.7     -39   -218    -12    222    223 190.2  -3.2  34100  288.57 0855.15
2009/04/23 09:06:19.8    -137   -225      2    264    265 211.4   0.5  34098  288.51 0855.15
2009/04/23 09:06:19.9    -100   -197    -70    222    233 207.0 -17.6  34100  288.55 0855.15
2009/04/23 09:06:20.0     -90   -212    -67    231    240 202.9 -21.2  34104  288.61 0855.15
2009/04/23 09:06:20.1     -57   -202    -99    210    232 195.8 -31.5  34102  288.58 0855.15
2009/04/23 09:06:20.2     -84   -170   -126    190    227 206.5 -40.9  34100  288.57 0855.15
2009/04/23 09:06:20.3     -91   -254     -7    271    272 199.8  -1.6  34102  288.58 0855.15
2009/04/23 09:06:20.4     -15   -203     44    204    209 184.5  12.2  34100  288.55 0855.15
2009/04/23 09:06:20.5     -42   -174     40    180    185 193.6  12.6  34100  288.57 0855.15
2009/04/23 09:06:20.6     -39   -225    -54    229    236 190.0 -13.3  34102  288.59 0855.15
2009/04/23 09:06:20.7      20   -265     -1    266    267 175.6  -0.3  34104  288.61 0855.15
2009/04/23 09:06:20.8      28   -247     -5    249    250 173.5  -1.2  34102  288.58 0855.15
2009/04/23 09:06:20.9      38   -222     46    226    231 170.2  11.6  34096  288.50 0855.15
2009/04/23 09:06:21.0      30   -210     38    213    217 171.8  10.3  34100  288.55 0855.15
2009/04/23 09:06:21.1      17   -229    -10    230    231 175.6  -2.6  34100  288.55 0855.15
2009/04/23 09:06:21.2       3   -221     18    222    223 179.1   4.9  34100  288.57 0855.15
2009/04/23 09:06:21.3      41   -254     14    258    259 170.7   3.3  34104  288.63 0855.15
2009/04/23 09:06:21.4      50   -215     53    221    228 166.7  13.7  34102  288.58 0855.15
2009/04/23 09:06:21.5      80   -203     75    219    232 158.4  18.9  34102  288.58 0855.15
2009/04/23 09:06:21.6      44   -255     31    259    261 170.2   6.9  34104  288.61 0855.15
2009/04/23 09:06:21.7      53   -216     49    223    229 166.2  12.6  34102  288.60 0855.15
2009/04/23 09:06:21.8     101   -159     93    189    210 147.5  28.0  34100  288.57 0855.15
2009/04/23 09:06:21.9      79   -170     89    188    208 155.1  27.1  34102  288.60 0855.15
2009/04/23 09:06:22.0     104   -242    113    264    287 156.8  24.6  34102  288.59 0855.15
2009/04/23 09:06:22.1      95   -262     95    279    296 160.0  18.9  34104  288.61 0855.15
2009/04/23 09:06:22.2     145   -269     60    306    312 151.7  11.1  34102  288.59 0855.15
2009/04/23 09:06:22.3     121   -255     69    283    292 154.5  13.7  34102  288.58 0855.15
2009/04/23 09:06:22.4      89   -233    166    250    300 159.0  36.5  34100  288.54 0855.15
2009/04/23 09:06:22.5     107   -211    184    237    300 153.0  41.7  34098  288.53 0855.15
2009/04/23 09:06:22.6      80   -247    137    260    293 162.1  30.1  34100  288.54 0855.15
2009/04/23 09:06:22.7      77   -232    103    245    265 161.5  24.2  34102  288.58 0855.15
2009/04/23 09:06:22.8     115   -211    131    241    274 151.5  31.0  34100  288.56 0855.15
2009/04/23 09:06:22.9      24   -192    145    194    242 172.7  40.6  34098  288.53 0855.15
2009/04/23 09:06:23.0     -79   -219    160    233    282 200.0  37.6  34098  288.51 0855.15
2009/04/23 09:06:23.1     -82   -174    122    193    228 205.2  35.5  34098  288.52 0855.15
2009/04/23 09:06:23.2     -43   -113    126    122    175 200.9  50.9  34102  288.58 0855.15
2009/04/23 09:06:23.3       5   -123    183    124    221 177.3  62.7  34100  288.57 0855.15
2009/04/23 09:06:23.4     125   -254    192    284    342 153.7  37.4  34100  288.54 0855.15
2009/04/23 09:06:23.5     186   -293    170    348    387 147.5  27.9  34100  288.55 0855.15
2009/04/23 09:06:23.6     211   -351    145    410    436 149.0  19.5  34100  288.55 0855.14
2009/04/23 09:06:23.7     220   -325    175    393    430 145.9  25.6  34098  288.53 0855.14
2009/04/23 09:06:23.8     131   -373    194    396    440 160.6  28.1  34098  288.51 0855.14
2009/04/23 09:06:23.9     120   -353    137    373    397 161.2  21.0  34100  288.55 0855.14
2009/04/23 09:06:24.0      58   -328     37    334    337 169.9   6.4  34100  288.55 0855.14
2009/04/23 09:06:24.1     115   -233    -17    260    261 153.7  -3.9  34100  288.56 0855.14
2009/04/23 09:06:24.2     137   -170     31    219    222 141.0   8.2  34098  288.53 0855.14
2009/04/23 09:06:24.3     128   -180    115    222    250 144.6  29.3  34102  288.59 0855.14
2009/04/23 09:06:24.4     102   -207    115    231    258 153.7  28.2  34102  288.58 0855.14
2009/04/23 09:06:24.5      97   -234    100    254    272 157.5  22.8  34100  288.54 0855.14
2009/04/23 09:06:24.6      11   -273     99    274    291 177.5  20.4  34102  288.59 0855.14
2009/04/23 09:06:24.7     -15   -325    121    326    347 182.7  21.3  34100  288.57 0855.14
2009/04/23 09:06:24.8       8   -272     93    273    289 178.2  18.9  34100  288.56 0855.14
2009/04/23 09:06:24.9      37   -222    107    226    250 170.4  27.1  34106  288.65 0855.14
2009/04/23 09:06:25.0      66   -219     82    230    244 163.1  20.2  34102  288.58 0855.14
2009/04/23 09:06:25.1     120   -267     98    293    310 155.7  18.5  34102  288.58 0855.14
2009/04/23 09:06:25.2     178   -280      0    333    334 147.5   0.1  34102  288.59 0855.14
2009/04/23 09:06:25.3     235   -188     14    302    303 128.6   2.8  34100  288.56 0855.14
2009/04/23 09:06:25.4     181   -175     55    253    260 134.0  12.4  34102  288.59 0855.14
2009/04/23 09:06:25.5     154   -195     81    249    263 141.7  18.1  34102  288.59 0855.14
2009/04/23 09:06:25.6     201   -215     73    295    304 137.0  13.9  34100  288.56 0855.15
2009/04/23 09:06:25.7     183   -253     77    313    323 144.0  13.8  34098  288.53 0855.15
2009/04/23 09:06:25.8     181   -299     61    350    356 148.8   9.9  34100  288.54 0855.15
2009/04/23 09:06:25.9     215   -273     65    348    355 141.7  10.7  34100  288.55 0855.15
2009/04/23 09:06:26.0     231   -273    130    358    380 139.8  20.8  34102  288.59 0855.15
2009/04/23 09:06:26.1     201   -301    106    363    379 146.3  16.3  34100  288.55 0855.15
2009/04/23 09:06:26.2     156   -294     63    333    339 152.0  10.7  34100  288.57 0855.15
2009/04/23 09:06:26.3     114   -285     54    308    313 158.2  10.1  34100  288.56 0855.15
2009/04/23 09:06:26.4     158   -211    -15    264    265 143.1  -3.3  34100  288.54 0855.15
2009/04/23 09:06:26.5     182   -266     16    323    324 145.5   2.9  34100  288.54 0855.15
2009/04/23 09:06:26.6     187   -395     21    438    439 154.6   2.8  34100  288.56 0855.15
2009/04/23 09:06:26.7     179   -386     51    426    430 155.1   6.9  34100  288.55 0855.15
2009/04/23 09:06:26.8     270   -354     86    446    455 142.7  11.0  34092  288.41 0855.15
2009/04/23 09:06:26.9     161   -358    151    393    421 155.7  22.2  34092  288.43 0855.15
2009/04/23 09:06:27.0     100   -351    169    365    402 164.1  26.6  34092  288.42 0855.15
2009/04/23 09:06:27.1      55   -272    155    278    318 168.4  31.6  34094  288.44 0855.15
2009/04/23 09:06:27.2     -11   -245     93    246    262 182.7  21.7  34094  288.44 0855.15
2009/04/23 09:06:27.3     -32   -225     57    228    236 188.1  14.2  34098  288.53 0855.15
2009/04/23 09:06:27.4      96   -248    -32    267    269 158.8  -6.9  34098  288.53 0855.15
2009/04/23 09:06:27.5     167   -237    -25    291    293 144.8  -5.1  34096  288.49 0855.15
2009/04/23 09:06:27.6     204   -216    -69    298    307 136.7 -13.2  34098  288.51 0855.15
2009/04/23 09:06:27.7     265   -330     32    424    426 141.3   4.4  34092  288.41 0855.15
2009/04/23 09:06:27.8     296   -242     39    383    386 129.3   5.9  34094  288.47 0855.15
2009/04/23 09:06:27.9     272   -173     19    323    324 122.4   3.5  34096  288.49 0855.15
2009/04/23 09:06:28.0     235   -111     50    261    266 115.3  11.0  34096  288.49 0855.15
2009/04/23 09:06:28.1     131    -27    -78    134    155 101.9 -37.8  34096  288.50 0855.15
2009/04/23 09:06:28.2     205     -7    -67    206    216  92.1 -23.3  34086  288.33 0855.15
2009/04/23 09:06:28.3     167    -72      8    182    183 113.3   2.8  34094  288.47 0855.15
2009/04/23 09:06:28.4      70    -97     24    120    123 144.0  11.6  34096  288.48 0855.15
2009/04/23 09:06:28.5      78    -73     13    107    108 133.1   7.1  34094  288.47 0855.15
2009/04/23 09:06:28.6       8    -89     50     90    102 174.7  31.4  34096  288.48 0855.15
2009/04/23 09:06:28.7     -49   -115     78    126    148 203.2  35.5  34096  288.48 0855.15
2009/04/23 09:06:28.8    -191   -114     72    223    235 239.1  17.9  34098  288.52 0855.15
2009/04/23 09:06:28.9    -211   -142     12    255    256 236.0   2.9  34100  288.56 0855.15
2009/04/23 09:06:29.0    -205    -96    -32    227    230 244.8  -8.0  34096  288.50 0855.15
2009/04/23 09:06:29.1    -195   -146     -9    244    245 233.1  -2.2  34094  288.46 0855.15
2009/04/23 09:06:29.2    -109   -172     92    204    223 212.3  25.9  34094  288.45 0855.15
2009/04/23 09:06:29.3     -84   -152    114    174    208 209.0  36.3  34100  288.57 0855.15
2009/04/23 09:06:29.4       7    -34     72     35     80 168.4  72.4  34096  288.50 0855.15
2009/04/23 09:06:29.6     109    -47    128    119    174 113.5  52.0  34098  288.53 0855.15
2009/04/23 09:06:29.7      32    -47    117     58    130 145.7  72.4  34098  288.52 0855.14
2009/04/23 09:06:29.8     -10    -76    100     77    126 188.1  58.5  34100  288.55 0855.14
2009/04/23 09:06:29.9       0    -44     81     45     92 180.9  68.8  34098  288.53 0855.14
2009/04/23 09:06:30.0      -1     22     65     23     68 357.3  81.2  34102  288.60 0855.14
2009/04/23 09:06:30.1     -33     29     75     44     86 311.3  66.8  34104  288.64 0855.14
2009/04/23 09:06:30.2      21     13    114     25    116  57.6  89.0  34102  288.58 0855.14
2009/04/23 09:06:30.3     -28     89    115     94    148 342.2  56.4  34100  288.55 0855.14
2009/04/23 09:06:30.4     -24     73     93     77    120 341.7  56.3  34100  288.57 0855.14
2009/04/23 09:06:30.5      20     45     98     50    110  23.6  71.4  34098  288.53 0855.14
2009/04/23 09:06:30.6      63     98    118    117    166  32.6  49.9  34100  288.55 0855.14
2009/04/23 09:06:30.7      71    111    143    132    194  32.6  52.2  34108  288.69 0855.14
2009/04/23 09:06:30.8      43    186    152    191    244  13.1  42.7  34122  288.94 0855.14
2009/04/23 09:06:30.9      10     99    115    100    152   6.2  54.3  34124  288.97 0855.14
2009/04/23 09:06:31.0      68     68    143     97    172  45.0  62.8  34126  289.01 0855.14
2009/04/23 09:06:31.1      68     64    120     94    152  46.4  57.5  34124  288.97 0855.14
2009/04/23 09:06:31.2      47     71     77     86    115  33.8  46.9  34124  288.96 0855.14
2009/04/23 09:06:31.3     104     70     87    126    153  55.8  37.6  34110  288.74 0855.14
2009/04/23 09:06:31.4     163     81     90    183    203  63.6  28.2  34122  288.94 0855.14
2009/04/23 09:06:31.5     144     57     21    156    158  68.2   7.8  34124  288.96 0855.14
2009/04/23 09:06:31.6     141    -17      7    143    144  97.0   2.9  34122  288.94 0855.14
2009/04/23 09:06:31.7      78     15     42     80     90  78.5  29.8  34128  289.04 0855.13
2009/04/23 09:06:31.8      57     90     34    107    113  32.5  17.9  34116  288.84 0855.13
2009/04/23 09:06:31.9      23     77     -3     81     82  16.9  -2.2  34128  289.04 0855.13
2009/04/23 09:06:32.0      48     45    -27     66     71  46.9 -27.4  34128  289.02 0855.13
2009/04/23 09:06:32.1      70     23    -34     74     81  71.4 -30.6  34124  288.97 0855.13
2009/04/23 09:06:32.2      57     35    -38     68     77  58.5 -35.8  34112  288.77 0855.13
2009/04/23 09:06:32.3      50     32    -52     60     79  57.6 -49.8  34116  288.84 0855.13
2009/04/23 09:06:32.4      48     26    -40     55     68  61.1 -44.1  34118  288.87 0855.13
2009/04/23 09:06:32.5      36     32    -59     49     76  48.7 -60.7  34114  288.80 0855.13
2009/04/23 09:06:32.6      23     13    -64     27     69  61.1 -81.4  34122  288.92 0855.13
2009/04/23 09:06:32.7       5    -25    -74     26     78 168.4 -85.6  34112  288.75 0855.13
2009/04/23 09:06:32.8     -19      5    -81     20     83 286.8 -90.0  34106  288.65 0855.13
2009/04/23 09:06:32.9      -2     37    -45     38     58 355.5 -59.8  34108  288.69 0855.13
2009/04/23 09:06:33.0       7     23    -17     25     30  18.5 -42.0  34106  288.65 0855.13
2009/04/23 09:06:33.1       2      8     -3      9     10  15.1 -19.7  34108  288.69 0855.13
2009/04/23 09:06:33.2     -13      5     12     15     19 291.7  43.7  34108  288.69 0855.13
2009/04/23 09:06:33.3     -17     20     23     27     35 318.6  43.8  34106  288.67 0855.13
2009/04/23 09:06:33.4      -4     30      8     31     33 352.0  15.3  34106  288.65 0855.13
2009/04/23 09:06:33.5      -4     20      0     21     22 346.6  -1.3  34108  288.69 0855.13
2009/04/23 09:06:33.6     -14     12     18     19     26 309.5  50.0  34108  288.70 0855.13
2009/04/23 09:06:33.7     -10     14     22     18     28 323.9  54.3  34108  288.70 0855.13
2009/04/23 09:06:33.8       0     14     20     15     25 357.3  60.5  34106  288.67 0855.13
2009/04/23 09:06:33.9      34      0     34     35     48  90.9  51.1  34110  288.72 0855.13
2009/04/23 09:06:34.0      71      0     72     72    101  90.0  50.1  34108  288.69 0855.13
2009/04/23 09:06:34.1      92    -14     89     94    129  98.8  48.5  34110  288.74 0855.13
2009/04/23 09:06:34.2      98      0     74     99    123  90.0  40.1  34110  288.72 0855.13
2009/04/23 09:06:34.3      49     16     74     52     90  71.8  61.5  34106  288.67 0855.13
2009/04/23 09:06:34.4      24      0     65     25     69  90.0  78.2  34108  288.69 0855.13
2009/04/23 09:06:34.5      -1    -12     43     13     44 188.0  81.8  34110  288.74 0855.13
2009/04/23 09:06:34.6     -16      0     35     17     38 270.0  72.9  34112  288.75 0855.13
2009/04/23 09:06:34.7     -24    -24     33     34     47 225.0  51.1  34112  288.75 0855.13
2009/04/23 09:06:34.8     -38    -46     37     60     70 219.7  35.5  34110  288.72 0855.13
2009/04/23 09:06:34.9     -42    -72     53     84     99 210.7  35.5  34108  288.70 0855.13
2009/04/23 09:06:35.0      54    -22     78     59     97 112.6  59.0  34106  288.65 0855.13
2009/04/23 09:06:35.1      21   -100    106    103    147 168.0  50.7  34102  288.58 0855.13
2009/04/23 09:06:35.2      71    -68     93     99    135 134.0  48.5  34090  288.38 0855.13
2009/04/23 09:06:35.3      91   -143    136    170    217 147.4  43.0  34082  288.26 0855.13
2009/04/23 09:06:35.4      51   -145     18    154    156 160.4   6.9  34096  288.48 0855.13
2009/04/23 09:06:35.5      16   -216     74    217    230 175.6  18.9  34086  288.31 0855.13
2009/04/23 09:06:35.6      10   -205    101    206    229 177.1  27.8  34090  288.40 0855.13
2009/04/23 09:06:35.7      22   -188    124    190    226 173.1  36.0  34088  288.35 0855.13
2009/04/23 09:06:35.8       6    -49    115     50    125 172.9  75.0  34088  288.36 0855.13
2009/04/23 09:06:35.9     -64   -130     96    146    174 206.3  36.3  34090  288.40 0855.13
2009/04/23 09:06:36.0      -7   -154     15    155    156 182.7   5.7  34084  288.30 0855.13
2009/04/23 09:06:36.1     160   -160     90    227    244 135.0  22.5  34088  288.36 0855.13
2009/04/23 09:06:36.2     151   -200     28    251    253 143.0   6.5  34088  288.36 0855.13
2009/04/23 09:06:36.3      94   -150     39    178    183 147.9  12.4  34088  288.35 0855.13
2009/04/23 09:06:36.4      52   -142    -14    152    153 160.0  -5.6  34084  288.28 0855.13
2009/04/23 09:06:36.5      -1   -117     59    118    131 180.9  28.2  34090  288.38 0855.13
2009/04/23 09:06:36.6      19   -171     74    173    188 173.5  24.3  34088  288.35 0855.13
2009/04/23 09:06:36.7      33   -132     28    137    140 165.7  11.6  34088  288.36 0855.13
2009/04/23 09:06:36.8      42   -190    108    195    222 167.5  31.4  34088  288.35 0855.13
2009/04/23 09:06:36.9      60   -244    125    252    281 166.2  28.2  34088  288.34 0855.13
2009/04/23 09:06:37.0      18   -222    114    223    250 175.3  29.2  34088  288.34 0855.13
2009/04/23 09:06:37.1      -8   -214     85    215    231 182.2  23.0  34086  288.33 0855.13
2009/04/23 09:06:37.2      -8   -226     66    227    237 182.2  16.4  34084  288.27 0855.13
2009/04/23 09:06:37.3      14   -222     21    223    225 176.2   5.4  34086  288.33 0855.13
2009/04/23 09:06:37.4      42   -234     15    238    239 169.8   3.6  34090  288.39 0855.13
2009/04/23 09:06:37.5      80   -220      2    235    236 160.0   0.5  34090  288.37 0855.13
2009/04/23 09:06:37.6      65   -178     12    190    191 159.7   3.6  34090  288.38 0855.13
2009/04/23 09:06:37.7      91   -172     14    195    196 152.1   4.4  34088  288.36 0855.13
2009/04/23 09:06:37.8      79   -157     43    176    182 153.3  13.7  34088  288.35 0855.13
2009/04/23 09:06:37.9      50   -149     32    158    162 161.3  11.4  34084  288.28 0855.13
2009/04/23 09:06:38.0       8   -129      0    130    131 176.4   0.2  34088  288.35 0855.13
2009/04/23 09:06:38.1       7   -131    -11    132    133 176.9  -5.1  34088  288.35 0855.13
2009/04/23 09:06:38.2      21   -148    -19    150    152 171.9  -7.2  34076  288.16 0855.13
2009/04/23 09:06:38.3       3   -160    -22    161    163 178.6  -8.0  34082  288.25 0855.13
2009/04/23 09:06:38.4     -22   -204     15    206    207 186.3   4.2  34084  288.28 0855.13
2009/04/23 09:06:38.5       3   -230     11    231    232 179.1   2.8  34088  288.35 0855.13
2009/04/23 09:06:38.6      -5   -224      6    225    226 181.4   1.6  34088  288.36 0855.13
2009/04/23 09:06:38.7     -42   -224     27    228    230 190.7   6.9  34092  288.43 0855.13
2009/04/23 09:06:38.8     -50   -225     55    231    238 192.7  13.5  34090  288.37 0855.13
2009/04/23 09:06:38.9     -59   -222     19    230    231 195.1   4.9  34090  288.38 0855.13
2009/04/23 09:06:39.0     -45   -231     -8    236    237 191.1  -2.1  34092  288.41 0855.13
2009/04/23 09:06:39.1     -79   -190    -27    207    209 202.7  -7.5  34088  288.35 0855.13
2009/04/23 09:06:39.2    -100   -235    -14    256    257 203.2  -3.1  34084  288.29 0855.13
2009/04/23 09:06:39.3     -91   -210      3    229    230 203.4   0.8  34084  288.28 0855.13
2009/04/23 09:06:39.4     -89   -203     11    222    223 203.7   2.9  34084  288.30 0855.13
2009/04/23 09:06:39.5     -64   -212     43    222    227 196.9  11.0  34086  288.33 0855.13
2009/04/23 09:06:39.6     -26   -245     58    247    254 186.2  13.2  34082  288.26 0855.13
2009/04/23 09:06:39.7     -18   -285     -2    286    287 183.6  -0.5  34080  288.22 0855.13
2009/04/23 09:06:39.8     -14   -222     51    223    229 183.8  13.1  34076  288.16 0855.13
2009/04/23 09:06:39.9      27   -217     98    219    239 172.9  25.7  34076  288.14 0855.13
2009/04/23 09:06:40.0      20   -263     81    264    277 175.5  17.1  34074  288.10 0855.13
2009/04/23 09:06:40.1       5   -357     86    358    369 179.1  13.6  34078  288.18 0855.13
2009/04/23 09:06:40.2      30   -322     67    324    332 174.7  11.8  34076  288.15 0855.13
2009/04/23 09:06:40.3       3   -270     53    271    277 179.3  11.1  34078  288.17 0855.13
2009/04/23 09:06:40.4     -20   -258     48    259    264 184.5  10.6  34080  288.21 0855.13
2009/04/23 09:06:40.5     -70   -221     49    232    238 197.6  12.1  34078  288.17 0855.13
2009/04/23 09:06:40.6     -49   -198     25    205    207 194.0   7.1  34078  288.18 0855.13
2009/04/23 09:06:40.7     -16   -183     18    184    185 185.1   5.7  34076  288.16 0855.14
2009/04/23 09:06:40.8     -40   -174    -21    179    181 193.1  -6.7  34076  288.14 0855.14
2009/04/23 09:06:40.9     -46   -180    -53    186    194 194.5 -16.0  34076  288.16 0855.14
2009/04/23 09:06:41.0      -6   -214    -56    215    223 181.8 -14.7  34076  288.14 0855.14
2009/04/23 09:06:41.1      53   -180     36    188    192 163.5  10.8  34076  288.16 0855.14
2009/04/23 09:06:41.2      80   -127      4    151    152 147.9   1.8  34076  288.16 0855.14
2009/04/23 09:06:41.3      83   -150    -61    172    183 151.0 -19.6  34078  288.18 0855.14
2009/04/23 09:06:41.4      80   -156    -25    176    178 152.8  -8.2  34076  288.14 0855.14
2009/04/23 09:06:41.5      85   -198     -8    216    217 156.6  -2.2  34076  288.14 0855.14
2009/04/23 09:06:41.6      80   -158     20    178    180 153.0   6.7  34076  288.14 0855.14
2009/04/23 09:06:41.7      49   -147     73    156    172 161.3  27.0  34076  288.16 0855.14
2009/04/23 09:06:41.8     -43   -143     34    150    154 196.9  12.9  34076  288.14 0855.14
2009/04/23 09:06:41.9     -62   -158     31    170    173 201.6  10.6  34076  288.16 0855.14
2009/04/23 09:06:42.0      18   -129     56    131    142 172.0  24.1  34076  288.14 0855.14
2009/04/23 09:06:42.1     122   -101     54    159    169 129.6  18.9  34074  288.13 0855.14
2009/04/23 09:06:42.2     171   -150     95    228    247 131.3  24.1  34076  288.14 0855.14
2009/04/23 09:06:42.3     172   -207    172    270    320 140.4  35.6  34076  288.15 0855.14
2009/04/23 09:06:42.4     100   -229    202    251    322 156.4  43.0  34076  288.15 0855.14
2009/04/23 09:06:42.5      51   -235    189    241    306 167.7  42.0  34074  288.10 0855.14
2009/04/23 09:06:42.6     131   -243     81    277    289 151.7  16.4  34078  288.17 0855.14
2009/04/23 09:06:42.7      95   -216     99    237    256 156.2  24.1  34076  288.14 0855.14
2009/04/23 09:06:42.8     101   -224    164    246    295 155.7  37.0  34080  288.22 0855.14
2009/04/23 09:06:42.9      55   -213    170    220    278 165.5  41.7  34080  288.21 0855.14
2009/04/23 09:06:43.0      46   -191    139    197    241 166.4  38.6  34078  288.20 0855.14
2009/04/23 09:06:43.1      57   -301    169    307    350 169.3  31.4  34078  288.18 0855.14
2009/04/23 09:06:43.2     -65   -318    174    325    368 191.7  30.5  34080  288.22 0855.14
2009/04/23 09:06:43.3     -39   -284    131    287    315 188.0  26.2  34080  288.21 0855.14
2009/04/23 09:06:43.4      -4   -182    144    183    232 181.4  42.2  34080  288.23 0855.14
2009/04/23 09:06:43.5      12   -156     96    157    184 175.5  34.8  34080  288.23 0855.14
2009/04/23 09:06:43.6      -4    -30    106     31    110 188.0  83.3  34084  288.30 0855.14
2009/04/23 09:06:43.7       4    -94    118     95    151 177.3  56.4  34080  288.23 0855.14
2009/04/23 09:06:43.8      -4    -93    104     94    140 182.7  52.7  34078  288.20 0855.14
2009/04/23 09:06:43.9      13   -216    129    217    252 176.4  33.7  34082  288.26 0855.14
2009/04/23 09:06:44.0     -16   -205    105    206    231 184.5  29.1  34076  288.14 0855.14
2009/04/23 09:06:44.1      53   -146    105    156    188 160.0  37.0  34078  288.20 0855.14
2009/04/23 09:06:44.2     -16   -149    118    150    190 186.3  42.4  34078  288.18 0855.14
2009/04/23 09:06:44.3     -75   -159    113    176    209 205.4  35.6  34080  288.21 0855.14
2009/04/23 09:06:44.4     -12   -157    111    158    193 184.5  38.4  34080  288.21 0855.14
2009/04/23 09:06:44.5     -58   -161    137    172    219 200.0  42.7  34080  288.23 0855.14
2009/04/23 09:06:44.6     -93    -99    117    137    180 223.2  44.8  34082  288.25 0855.14
2009/04/23 09:06:44.7    -118    -65     72    135    153 241.1  30.8  34078  288.20 0855.14
2009/04/23 09:06:44.8    -105    -57     81    120    144 241.1  37.0  34078  288.20 0855.14
2009/04/23 09:06:44.9    -156    -26     -4    159    160 260.4  -1.6  34080  288.21 0855.14
2009/04/23 09:06:45.0    -312     -4     21    313    314 269.2   4.0  34076  288.15 0855.14
2009/04/23 09:06:45.1    -320      5    -25    321    323 271.0  -4.5  34070  288.05 0855.14
2009/04/23 09:06:45.2    -189      6    119    190    224 272.1  35.5  34078  288.20 0855.14
2009/04/23 09:06:45.3    -271    -46    112    275    296 260.3  23.1  34080  288.22 0855.14
2009/04/23 09:06:45.4    -324    -59     13    330    331 259.7   2.4  34080  288.22 0855.14
2009/04/23 09:06:45.5    -288    -29    -80    290    301 264.1 -15.5  34078  288.19 0855.14
2009/04/23 09:06:45.6    -206    -98     32    229    232 244.6   8.0  34072  288.09 0855.14
2009/04/23 09:06:45.7    -301    -79     69    312    320 255.2  12.5  34078  288.19 0855.14
2009/04/23 09:06:45.8    -254     12     -9    255    256 272.8  -2.2  34078  288.19 0855.14
2009/04/23 09:06:45.9    -322    -32   -103    324    341 264.2 -17.7  34080  288.22 0855.14
2009/04/23 09:06:46.0    -358   -110    -20    375    376 252.8  -3.2  34076  288.15 0855.14
2009/04/23 09:06:46.1    -295   -226    -24    372    373 232.5  -3.7  34072  288.08 0855.14
2009/04/23 09:06:46.2    -217   -185    -85    286    298 229.5 -21.5  34078  288.17 0855.14
2009/04/23 09:06:46.3    -224   -203    -43    303    307 227.8  -8.2  34076  288.14 0855.14
2009/04/23 09:06:46.4    -178   -344    -92    388    399 207.4 -13.4  34080  288.22 0855.14
2009/04/23 09:06:46.5    -130   -286    -95    315    330 204.5 -16.8  34072  288.09 0855.14
2009/04/23 09:06:46.6     -93   -259    -84    276    289 199.8 -17.0  34076  288.14 0855.14
2009/04/23 09:06:46.7    -101   -242      8    263    264 202.7   1.8  34076  288.15 0855.15
2009/04/23 09:06:46.8     -99   -246     32    266    268 201.9   6.9  34078  288.19 0855.15
2009/04/23 09:06:46.9    -108   -199     33    227    230 208.5   8.5  34076  288.16 0855.15
2009/04/23 09:06:47.0    -100   -211     18    234    235 205.3   4.6  34078  288.19 0855.15
2009/04/23 09:06:47.1     -40   -169     18    174    176 193.4   6.1  34078  288.20 0855.15
2009/04/23 09:06:47.2     -24    -86     15     90     92 196.0   9.5  34078  288.18 0855.15
2009/04/23 09:06:47.3     -45    -94     20    105    107 205.5  11.0  34078  288.20 0855.15
2009/04/23 09:06:47.4     -71    -92     -2    117    118 217.8  -1.3  34078  288.20 0855.15
2009/04/23 09:06:47.5     -59    -66    -34     89     95 221.9 -25.4  34078  288.20 0855.15
2009/04/23 09:06:47.6      30    -55    -28     63     68 151.0 -29.5  34078  288.18 0855.15
2009/04/23 09:06:47.7      34   -114     60    120    134 163.1  28.7  34076  288.16 0855.15
2009/04/23 09:06:47.8    -113    -93     28    147    150 230.5  11.1  34072  288.09 0855.15
2009/04/23 09:06:47.9    -168   -123    -25    209    211 233.6  -6.9  34080  288.21 0855.15
2009/04/23 09:06:48.0    -136   -128     11    187    188 226.7   3.6  34076  288.16 0855.15
2009/04/23 09:06:48.1     -28   -121     59    125    138 193.4  27.1  34080  288.23 0855.15
2009/04/23 09:06:48.2     -34   -103    -35    109    114 198.3 -23.8  34082  288.26 0855.15
2009/04/23 09:06:48.3     -79   -191      8    207    208 202.5   2.3  34080  288.21 0855.15
2009/04/23 09:06:48.4    -106   -222    -48    247    252 205.5 -11.1  34076  288.15 0855.15
2009/04/23 09:06:48.5     -68   -205     27    217    219 198.5   7.2  34078  288.20 0855.15
2009/04/23 09:06:48.6    -102   -256    -37    276    279 201.8  -7.7  34078  288.19 0855.15
2009/04/23 09:06:48.7     -85   -305    -42    317    320 195.6  -7.6  34080  288.22 0855.14
2009/04/23 09:06:48.8     -54   -315    -99    320    336 189.8 -17.2  34080  288.22 0855.14
2009/04/23 09:06:48.9     -36   -259     27    262    264 188.0   5.9  34080  288.21 0855.14
2009/04/23 09:06:49.0     -75   -223     36    236    239 198.7   8.9  34080  288.22 0855.14
2009/04/23 09:06:49.1      -7   -192     44    193    199 182.2  12.9  34076  288.16 0855.14
2009/04/23 09:06:49.2       0   -191     53    192    200 180.0  15.6  34080  288.21 0855.14
2009/04/23 09:06:49.3    -114   -251     33    276    279 204.5   6.9  34080  288.21 0855.14
2009/04/23 09:06:49.4     -45   -317      1    321    322 188.1   0.2  34078  288.19 0855.14
2009/04/23 09:06:49.5     -84   -305    -17    317    318 195.4  -3.2  34078  288.17 0855.14
2009/04/23 09:06:49.6     -87   -278    -69    292    301 197.4 -13.3  34080  288.21 0855.14
2009/04/23 09:06:49.7     -61   -191     72    201    213 197.8  20.2  34074  288.13 0855.14
2009/04/23 09:06:49.8     -81   -137    130    160    206 210.7  43.7  34078  288.20 0855.14
2009/04/23 09:06:49.9    -145   -103    164    179    242 234.5  47.5  34078  288.20 0855.14
2009/04/23 09:06:50.0     -64   -159    133    172    217 202.1  41.6  34078  288.20 0855.14
2009/04/23 09:06:50.1     -55   -127    106    139    174 203.6  41.2  34080  288.23 0855.14
2009/04/23 09:06:50.2      24   -189     92    191    212 172.7  27.3  34080  288.21 0855.14
2009/04/23 09:06:50.3     -18   -234     78    235    248 184.5  18.4  34080  288.22 0855.14
2009/04/23 09:06:50.4     -97   -263     33    281    284 200.3   6.9  34080  288.21 0855.14
2009/04/23 09:06:50.5     -96   -267    103    284    302 199.8  20.9  34084  288.27 0855.14
2009/04/23 09:06:50.6     -68   -360    -48    367    371 190.8  -7.5  34078  288.20 0855.14
2009/04/23 09:06:50.7      78   -249     83    262    275 162.6  17.7  34082  288.24 0855.14
2009/04/23 09:06:50.8      -9   -185    -12    186    187 182.9  -3.7  34082  288.25 0855.14
2009/04/23 09:06:50.9     -23   -171     51    173    181 187.8  16.6  34082  288.25 0855.14
2009/04/23 09:06:51.0      -8   -112     42    113    120 184.5  21.0  34078  288.18 0855.14
2009/04/23 09:06:51.1      -5   -110     69    111    130 182.7  35.5  34082  288.25 0855.14
2009/04/23 09:06:51.2     -34   -104     51    110    121 198.3  26.6  34082  288.25 0855.14
2009/04/23 09:06:51.3     -59   -125     71    139    156 205.3  29.1  34082  288.26 0855.14
2009/04/23 09:06:51.5       0    -61     87     62    106 180.9  61.1  34084  288.30 0855.14
2009/04/23 09:06:51.6      -1    -37     95     38    102 182.7  77.1  34084  288.30 0855.14
2009/04/23 09:06:51.6      -5    -12     81     14     82 201.8  90.0  34088  288.35 0855.14
2009/04/23 09:06:51.7     -43    -18     90     47    101 247.4  70.4  34084  288.30 0855.14
2009/04/23 09:06:51.8      29    -45     87     54    102 147.4  65.1  34086  288.33 0855.14
2009/04/23 09:06:51.9      62    -84     67    105    124 143.5  35.6  34082  288.25 0855.14
2009/04/23 09:06:52.0      54    -54     60     77     97 135.0  42.2  34082  288.25 0855.14
2009/04/23 09:06:52.1       0   -113     49    114    124 179.5  24.6  34082  288.26 0855.14
2009/04/23 09:06:52.2     -16   -147     70    148    163 186.2  27.2  34082  288.26 0855.14
2009/04/23 09:06:52.3     -22   -109     93    112    145 191.6  43.8  34080  288.23 0855.14
2009/04/23 09:06:52.4     -30   -119    101    123    159 194.3  43.7  34080  288.23 0855.14
2009/04/23 09:06:52.5     -95   -171     77    196    210 209.0  22.5  34082  288.25 0855.14
2009/04/23 09:06:52.7     -58   -142    108    154    188 202.3  38.6  34080  288.21 0855.14
2009/04/23 09:06:52.8     -56   -145    102    156    186 201.4  36.0  34080  288.23 0855.14
2009/04/23 09:06:52.8     -52   -129     53    140    149 201.9  21.0  34080  288.21 0855.14
2009/04/23 09:06:52.9     -78    -85     15    116    117 222.8   7.5  34080  288.21 0855.14
2009/04/23 09:06:53.0     -30    -45     15     55     58 214.3  15.2  34082  288.25 0855.14
2009/04/23 09:06:53.1      24    -74     86     78    116 161.7  52.7  34082  288.25 0855.14
2009/04/23 09:06:53.2      61    -84     93    104    139 143.9  46.9  34082  288.25 0855.14
2009/04/23 09:06:53.3      41    -98     74    107    130 157.3  37.6  34082  288.26 0855.14
2009/04/23 09:06:53.4      13    -77     61     79     99 170.2  41.7  34082  288.26 0855.14
2009/04/23 09:06:53.5       2    -21     37     22     43 173.8  66.8  34084  288.28 0855.14
2009/04/23 09:06:53.6     -54    -37    -14     66     68 235.8 -12.4  34088  288.35 0855.14
2009/04/23 09:06:53.7     -53     -8    -25     54     59 261.2 -30.6  34086  288.31 0855.14
2009/04/23 09:06:53.9     -68     15    -39     70     80 282.4 -35.8  34086  288.33 0855.14
2009/04/23 09:06:53.9     -77    -41    -58     88    105 242.0 -40.4  34086  288.33 0855.14
2009/04/23 09:06:54.0     -88    -74    -57    116    129 230.0 -32.2  34084  288.28 0855.14
2009/04/23 09:06:54.1     -11   -113    -50    114    124 185.8 -29.5  34084  288.30 0855.14
2009/04/23 09:06:54.2     -31   -154    -51    158    167 191.6 -17.9  34082  288.25 0855.14
2009/04/23 09:06:54.3     -77   -137    -55    158    167 209.4 -23.8  34080  288.23 0855.14
2009/04/23 09:06:54.4     -91    -57    -80    108    134 237.6 -44.5  34084  288.30 0855.14
2009/04/23 09:06:54.5    -104    -91    -40    139    144 228.6 -21.2  34084  288.28 0855.14
2009/04/23 09:06:54.6     -46   -195    -11    201    202 193.4  -3.3  34086  288.31 0855.14
2009/04/23 09:06:54.7       0   -181      8    182    183 180.0   2.8  34086  288.33 0855.14
2009/04/23 09:06:54.8       9   -204      0    205    206 177.3  -0.3  34082  288.26 0855.14
2009/04/23 09:06:54.9     -43   -194     40    199    203 192.5  11.4  34082  288.26 0855.14
2009/04/23 09:06:55.0     -14   -212      2    213    214 184.0   0.7  34084  288.30 0855.14
2009/04/23 09:06:55.2       1   -193    -68    194    206 179.5 -19.4  34084  288.30 0855.14
2009/04/23 09:06:55.3      27   -254    -42    256    260 173.8  -9.3  34080  288.21 0855.14
2009/04/23 09:06:55.3      19   -265    -56    266    272 175.8 -11.9  34082  288.26 0855.14
2009/04/23 09:06:55.4      49   -313    -13    317    318 171.1  -2.5  34082  288.24 0855.14
2009/04/23 09:06:55.5      84   -278      3    291    292 163.1   0.7  34082  288.24 0855.14
2009/04/23 09:06:55.6      95   -255     -6    273    274 159.5  -1.3  34082  288.26 0855.14
2009/04/23 09:06:55.7      80   -242     21    255    256 161.7   4.9  34082  288.24 0855.14
2009/04/23 09:06:55.8      62   -236     18    245    246 165.1   4.2  34084  288.29 0855.14
2009/04/23 09:06:55.9      68   -251     71    261    271 164.9  15.3  34084  288.29 0855.14
2009/04/23 09:06:56.0      73   -248     47    259    264 163.5  10.3  34084  288.29 0855.14
2009/04/23 09:06:56.1      65   -232     85    242    257 164.2  19.4  34084  288.29 0855.14
2009/04/23 09:06:56.2      28   -216     62    218    227 172.4  16.0  34080  288.23 0855.14
2009/04/23 09:06:56.4      17   -202    101    203    226 174.9  28.2  34084  288.30 0855.14
2009/04/23 09:06:56.5     -19   -265     68    266    275 184.2  14.5  34084  288.29 0855.14
2009/04/23 09:06:56.5       0   -262     82    263    276 180.0  17.3  34082  288.24 0855.14
2009/04/23 09:06:56.7      16   -196    -24    197    199 175.3  -7.2  34082  288.25 0855.14
2009/04/23 09:06:56.8     -10   -248    -35    249    252 182.5  -8.0  34084  288.27 0855.14
2009/04/23 09:06:56.8     -31   -237    -56    240    247 187.6 -13.3  34082  288.26 0855.14
2009/04/23 09:06:57.0     -60   -202     33    211    214 196.7   8.9  34088  288.35 0855.14
2009/04/23 09:06:57.1     -41   -206     53    211    218 191.3  14.3  34086  288.31 0855.14
2009/04/23 09:06:57.2     -91   -167     46    191    197 208.7  13.7  34084  288.30 0855.14
2009/04/23 09:06:57.3     -15   -161    -30    162    165 185.3 -10.5  34084  288.28 0855.14
2009/04/23 09:06:57.4     -11   -118      0    119    120 185.3  -0.3  34086  288.31 0855.14
2009/04/23 09:06:57.5      45    -55     45     72     84 140.3  35.5  34082  288.26 0855.14
2009/04/23 09:06:57.6      37    -33     92     50    104 132.2  68.8  34086  288.31 0855.14
2009/04/23 09:06:57.7      68      0     66     69     95  90.0  49.0  34086  288.33 0855.13
2009/04/23 09:06:57.8      63     -3     62     64     89  93.5  50.0  34086  288.31 0855.13
2009/04/23 09:06:57.9      76    -30     62     82    102 111.7  41.2  34084  288.30 0855.13
2009/04/23 09:06:58.0      77    -15     63     79    101 101.5  43.3  34086  288.33 0855.13
2009/04/23 09:06:58.1      32    -30     73     45     85 133.1  65.1  34088  288.35 0855.13
2009/04/23 09:06:58.2      36     20     63     42     75  60.2  64.6  34088  288.35 0855.13
2009/04/23 09:06:58.3      35      4     76     36     84  82.1  72.9  34086  288.31 0855.13
2009/04/23 09:06:58.4     138     10     78    139    159  85.7  31.9  34084  288.30 0855.13
2009/04/23 09:06:58.5      73   -114    -13    136    137 147.5  -5.6  34084  288.30 0855.13
2009/04/23 09:06:58.6     105   -133    -13    170    171 141.7  -4.6  34082  288.26 0855.13
2009/04/23 09:06:58.7     110   -105     -6    153    154 133.6  -2.2  34084  288.28 0855.13
2009/04/23 09:06:58.8      96    -79      6    125    126 129.5   2.9  34084  288.30 0855.13
2009/04/23 09:06:58.9      46   -104     44    114    122 155.9  22.0  34086  288.33 0855.13
2009/04/23 09:06:59.0      38    -87     49     96    107 156.4  28.2  34084  288.30 0855.13
2009/04/23 09:06:59.1      28    -59     62     66     90 154.5  48.5  34082  288.26 0855.13
2009/04/23 09:06:59.2       3    -30     72     31     78 173.8  76.1  34086  288.33 0855.13
2009/04/23 09:06:59.3      -7     24     66     26     70 343.1  77.1  34092  288.42 0855.13
2009/04/23 09:06:59.4     -53     52     68     75    101 314.1  47.5  34094  288.45 0855.13
2009/04/23 09:06:59.5     -43     36     57     57     80 309.5  50.1  34092  288.43 0855.13
2009/04/23 09:06:59.6     -78     -5     68     79    104 265.7  45.4  34088  288.36 0855.13
2009/04/23 09:06:59.7     -35    -22     68     42     79 237.5  65.1  34092  288.43 0855.13
2009/04/23 09:06:59.8     -19    -41     50     46     67 204.5  52.1  34086  288.33 0855.12
2009/04/23 09:06:59.9      11    -34     72     36     80 161.3  71.4  34088  288.36 0855.12
2009/04/23 09:07:00.0      -1    -32     88     33     93 182.6  79.7  34088  288.36 0855.12
2009/04/23 09:07:00.1      -5    -81     88     82    120 184.0  52.2  34088  288.35 0855.12
2009/04/23 09:07:00.2     -13    -81     62     83    103 189.3  40.7  34088  288.35 0855.12
2009/04/23 09:07:00.3     -13    -43     55     45     71 196.9  56.4  34088  288.36 0855.12
2009/04/23 09:07:00.4       0    -52     79     53     95 180.9  63.6  34088  288.36 0855.12
2009/04/23 09:07:00.5       2    -85    138     86    162 178.6  64.9  34090  288.38 0855.12
2009/04/23 09:07:00.6      30    -89    118     94    150 161.3  56.9  34084  288.30 0855.12
2009/04/23 09:07:00.7     -31    -91    115     97    150 198.7  56.3  34088  288.35 0855.12
2009/04/23 09:07:00.8     -18    -68    140     71    156 195.1  71.4  34088  288.36 0855.12
2009/04/23 09:07:00.9     -23    -19    125     30    128 230.5  86.9  34094  288.47 0855.12
2009/04/23 09:07:01.0    -141     22     53    143    152 279.2  21.0  34086  288.33 0855.12
2009/04/23 09:07:01.1    -125     49     26    135    138 291.7  11.1  34084  288.30 0855.12
2009/04/23 09:07:01.2     -82     20     30     85     91 284.2  19.4  34086  288.33 0855.12
2009/04/23 09:07:01.3     -33    -12     38     36     52 250.0  50.1  34088  288.35 0855.12
2009/04/23 09:07:01.4       1    -22     29     23     37 177.3  56.4  34090  288.40 0855.12
2009/04/23 09:07:01.5      32    -15     24     36     43 115.3  37.6  34092  288.42 0855.12
2009/04/23 09:07:01.6      52     -3     24     53     58  93.5  26.2  34088  288.35 0855.12
2009/04/23 09:07:01.7      71     -9     57     72     91  97.9  42.7  34088  288.35 0855.12
2009/04/23 09:07:01.8      62    -20     98     66    118 107.7  62.7  34088  288.35 0855.12
2009/04/23 09:07:01.9       2      0     65      3     65 108.4  90.0  34090  288.40 0855.12
2009/04/23 09:07:02.0     -43    -31     88     54    103 234.0  64.7  34092  288.42 0855.12
2009/04/23 09:07:02.1     -38      9     98     40    105 283.3  77.0  34096  288.48 0855.12
2009/04/23 09:07:02.2      48    -33    107     59    122 124.2  68.8  34090  288.38 0855.12
2009/04/23 09:07:02.3     -21    -84    122     87    149 194.3  60.6  34090  288.40 0855.12
2009/04/23 09:07:02.4     -21    -47    109     52    120 204.5  72.9  34086  288.33 0855.12
2009/04/23 09:07:02.5     -45   -114     77    123    145 201.9  35.5  34088  288.36 0855.12
2009/04/23 09:07:02.6     -58    -93     59    110    124 212.1  30.8  34088  288.36 0855.12
2009/04/23 09:07:02.7     -51    -88     65    102    120 210.3  35.5  34088  288.35 0855.12
2009/04/23 09:07:02.8     -60    -81     31    101    106 216.5  17.3  34086  288.33 0855.12
2009/04/23 09:07:02.9     -89    -94     73    130    149 223.3  31.4  34086  288.33 0855.12
2009/04/23 09:07:03.0     -40    -87    106     97    143 204.9  52.2  34090  288.40 0855.12
2009/04/23 09:07:03.1     -41   -114    135    122    181 200.0  53.0  34086  288.31 0855.12
2009/04/23 09:07:03.2    -132      2     73    133    151 271.3  31.3  34088  288.35 0855.12
2009/04/23 09:07:03.3    -100    -55     63    115    131 241.1  31.3  34088  288.36 0855.12
2009/04/23 09:07:03.4    -157     32     66    161    174 281.5  23.4  34088  288.35 0855.12
2009/04/23 09:07:03.5    -121     -4     42    122    130 267.9  18.9  34088  288.35 0855.12
2009/04/23 09:07:03.6     -10    -14     43     18     46 216.1  77.1  34088  288.36 0855.12
2009/04/23 09:07:03.7      67     22     79     71    106  71.6  52.7  34088  288.36 0855.12
2009/04/23 09:07:03.8      55    -20     55     59     80 110.8  47.9  34088  288.36 0855.13
2009/04/23 09:07:03.9      16    -80     82     82    115 168.4  50.1  34086  288.33 0855.13
2009/04/23 09:07:04.0     -21   -105     73    108    130 191.5  37.4  34088  288.35 0855.13
2009/04/23 09:07:04.1      -2    -94     34     95    100 181.8  20.0  34086  288.31 0855.13
2009/04/23 09:07:04.2      16    -50     44     53     68 161.7  43.8  34088  288.36 0855.13
2009/04/23 09:07:04.3      15    -26     56     31     64 149.3  68.8  34088  288.35 0855.13
2009/04/23 09:07:04.4     -21    -54     57     59     82 201.8  49.4  34090  288.38 0855.13
2009/04/23 09:07:04.5     -28    -58     65     65     91 206.3  50.1  34086  288.33 0855.13
2009/04/23 09:07:04.6      -8    -71     78     72    106 187.1  52.2  34090  288.40 0855.13
2009/04/23 09:07:04.7       4    -66     78     67    102 176.4  54.8  34090  288.38 0855.13
2009/04/23 09:07:04.8       0    -42     50     43     65 180.0  55.4  34088  288.35 0855.13
2009/04/23 09:07:04.9       0    -10     36     11     37 182.7  80.7  34088  288.36 0855.13
2009/04/23 09:07:05.0       6    -17     26     19     32 161.3  60.5  34090  288.38 0855.13
2009/04/23 09:07:05.1      -1    -28     27     29     39 182.7  49.0  34088  288.36 0855.13
2009/04/23 09:07:05.2     -25    -82     43     86     96 197.4  28.2  34088  288.35 0855.13
2009/04/23 09:07:05.3     -48    -82     31     96    101 210.7  17.9  34090  288.38 0855.13
2009/04/23 09:07:05.4     -45    -69     43     83     93 213.0  29.3  34090  288.40 0855.13
2009/04/23 09:07:05.5     -20    -75     60     78     98 195.1  42.2  34088  288.35 0855.13
2009/04/23 09:07:05.6      -9    -58     41     59     71 188.9  38.6  34088  288.36 0855.13
2009/04/23 09:07:05.7       5    -81     61     82    102 176.0  40.1  34088  288.35 0855.13
2009/04/23 09:07:05.8      -6    -76     93     77    120 184.5  56.3  34088  288.36 0855.14
2009/04/23 09:07:05.9      34    -48     53     59     79 144.8  47.5  34088  288.36 0855.14
2009/04/23 09:07:06.0      23     57     28     62     68  21.8  26.2  34092  288.43 0855.14
2009/04/23 09:07:06.1     -34     23     74     42     85 304.2  67.7  34092  288.43 0855.14
2009/04/23 09:07:06.2      -1     11     52     12     53 352.0  86.9  34094  288.45 0855.14
2009/04/23 09:07:06.3     -28    -40     59     50     77 215.2  56.3  34088  288.36 0855.14
2009/04/23 09:07:06.4     -49    -64     37     81     89 217.4  26.2  34090  288.38 0855.14
2009/04/23 09:07:06.5     -67    -72     52     99    111 223.2  29.8  34090  288.40 0855.14
2009/04/23 09:07:06.6     -96    -21     36     99    105 257.2  20.0  34090  288.38 0855.14
2009/04/23 09:07:06.7    -114      0     27    115    119 270.0  13.2  34090  288.38 0855.14
2009/04/23 09:07:06.8    -141     50      0    150    151 289.5  -0.3  34090  288.38 0855.14
2009/04/23 09:07:06.9    -113     30    -15    118    119 285.1  -7.3  34092  288.42 0855.14
2009/04/23 09:07:07.0    -118     18    -36    120    125 278.8 -21.8  34088  288.35 0855.14
2009/04/23 09:07:07.1    -109     32    -54    114    126 286.8 -31.6  34090  288.40 0855.14
2009/04/23 09:07:07.2     -96     -5    -48     97    108 267.0 -31.7  34088  288.36 0855.14
2009/04/23 09:07:07.3     -98    -33     19    104    106 251.4  10.6  34090  288.38 0855.14
2009/04/23 09:07:07.4    -119    -83    -46    146    154 234.9 -17.6  34090  288.38 0855.14
2009/04/23 09:07:07.5    -224   -108    -75    249    260 244.2 -21.7  34084  288.27 0855.14
2009/04/23 09:07:07.6    -186   -135     -7    230    231 234.0  -1.8  34088  288.35 0855.14
2009/04/23 09:07:07.7    -183    -86      0    203    204 244.8   0.0  34086  288.33 0855.14
2009/04/23 09:07:07.8    -167    -76      0    184    185 245.6   0.2  34086  288.33 0855.14
2009/04/23 09:07:07.9    -175   -127     65    217    227 234.0  16.8  34082  288.26 0855.14
2009/04/23 09:07:08.0    -148   -143     19    206    207 226.0   5.4  34086  288.33 0855.14
2009/04/23 09:07:08.1     -92   -204      7    224    225 204.3   1.8  34088  288.36 0855.14
2009/04/23 09:07:08.2    -188   -268     53    328    333 215.1   9.2  34088  288.35 0855.14
2009/04/23 09:07:08.3     -50   -189    140    196    240 195.1  38.8  34086  288.31 0855.14
2009/04/23 09:07:08.4     -61   -185    164    195    254 198.3  44.3  34090  288.39 0855.14
2009/04/23 09:07:08.5     -67   -208    119    219    249 198.0  30.8  34090  288.37 0855.14
2009/04/23 09:07:08.6     -30   -216    100    219    240 188.0  26.2  34090  288.37 0855.14
2009/04/23 09:07:08.7      -1   -201    130    202    240 180.4  35.7  34086  288.31 0855.14
2009/04/23 09:07:08.8     -53   -197    124    205    239 195.2  34.0  34088  288.35 0855.14
2009/04/23 09:07:08.9     -49   -188    126    195    232 194.7  35.6  34086  288.33 0855.14
2009/04/23 09:07:09.0    -136   -172     82    220    234 218.5  21.3  34092  288.43 0855.14
2009/04/23 09:07:09.1     -40   -101      5    109    110 201.9   2.8  34090  288.40 0855.14
2009/04/23 09:07:09.2      39   -145    136    151    203 164.9  46.9  34084  288.28 0855.14
2009/04/23 09:07:09.3      54   -137    147    148    208 158.2  50.0  34086  288.33 0855.14
2009/04/23 09:07:09.4      56    -83    136    101    169 145.7  59.8  34086  288.33 0855.14
2009/04/23 09:07:09.5      59   -149    115    161    197 158.2  39.3  34084  288.30 0855.14
2009/04/23 09:07:09.6      77   -176    129    193    232 156.4  36.7  34086  288.31 0855.14
2009/04/23 09:07:09.7      68   -157    136    172    219 156.6  42.4  34086  288.33 0855.14
2009/04/23 09:07:09.8      68   -114    133    133    188 149.3  50.1  34086  288.31 0855.14
2009/04/23 09:07:09.9     110   -138    146    177    229 141.5  43.7  34088  288.35 0855.14
2009/04/23 09:07:10.0     143   -162    137    217    256 138.6  35.5  34088  288.34 0855.14
2009/04/23 09:07:10.1     236   -145    146    278    314 121.6  30.0  34086  288.32 0855.14
2009/04/23 09:07:10.2     223   -101    159    245    292 114.4  35.7  34088  288.36 0855.14
2009/04/23 09:07:10.3      41    -71    107     83    135 150.1  58.4  34088  288.36 0855.14
2009/04/23 09:07:10.4      50    -96    116    109    159 152.4  52.0  34086  288.33 0855.14
2009/04/23 09:07:10.5      37   -133     77    139    158 164.4  31.6  34086  288.31 0855.14
2009/04/23 09:07:10.6      84    -79     88    116    145 133.1  41.2  34084  288.28 0855.14
2009/04/23 09:07:10.7      97    -43     77    107    131 114.0  39.7  34086  288.31 0855.14
2009/04/23 09:07:10.8     -21     38     65     44     78 330.1  63.6  34086  288.33 0855.14
2009/04/23 09:07:10.9     -50      9     59     51     77 280.6  54.3  34088  288.35 0855.14
2009/04/23 09:07:11.0      21     21     70     31     76  45.1  75.0  34088  288.36 0855.14
2009/04/23 09:07:11.1     -34    -16    103     38    109 244.7  79.7  34086  288.33 0855.14
2009/04/23 09:07:11.2      55    -58    109     81    135 136.3  60.0  34088  288.35 0855.14
2009/04/23 09:07:11.3      56    -38    117     68    135 124.2  66.8  34088  288.36 0855.14
2009/04/23 09:07:11.4      22     41     95     47    105  28.1  71.9  34090  288.40 0855.14
2009/04/23 09:07:11.5       0      5    117      6    117   4.5  90.0  34090  288.40 0855.14
2009/04/23 09:07:11.6       0    -59     88     60    106 180.9  62.6  34084  288.28 0855.14
2009/04/23 09:07:11.7       9   -118    115    119    165 175.6  49.2  34086  288.31 0855.14
2009/04/23 09:07:11.8      12    -58    102     60    118 168.4  66.8  34088  288.36 0855.14
2009/04/23 09:07:11.9       0    -50    109     51    120 180.9  73.1  34090  288.38 0855.14
2009/04/23 09:07:12.0      14    -25     88     29     92 151.0  80.7  34088  288.36 0855.14
2009/04/23 09:07:12.1      -9    -65     76     66    100 188.1  54.3  34086  288.31 0855.14
2009/04/23 09:07:12.2     -45   -129    124    137    184 199.2  47.1  34084  288.28 0855.14
2009/04/23 09:07:12.3     -48   -134    133    143    195 200.0  47.9  34084  288.30 0855.14
2009/04/23 09:07:12.4      -7   -106    128    107    166 184.0  56.1  34086  288.33 0855.14
2009/04/23 09:07:12.5     -35   -133    128    138    188 195.1  47.9  34086  288.33 0855.14
2009/04/23 09:07:12.6       0    -62    124     63    139 180.0  71.0  34094  288.45 0855.14
2009/04/23 09:07:12.7       7    -22    110     24    112 161.7  88.5  34090  288.38 0855.14
2009/04/23 09:07:12.8       2   -118    158    119    197 179.0  59.4  34088  288.35 0855.14
2009/04/23 09:07:12.9     -10   -136    137    137    193 184.4  50.1  34088  288.36 0855.14
2009/04/23 09:07:13.0      15   -134    152    135    203 173.3  53.7  34086  288.33 0855.14
2009/04/23 09:07:13.1      15   -196    126    197    233 175.5  35.6  34088  288.35 0855.14
2009/04/23 09:07:13.2       3   -240    128    241    272 179.1  30.3  34086  288.31 0855.14
2009/04/23 09:07:13.3     -21   -274     99    275    292 184.4  20.7  34086  288.31 0855.14
2009/04/23 09:07:13.4      -2   -312    102    313    330 180.5  18.0  34084  288.29 0855.14
2009/04/23 09:07:13.5      19   -260    129    261    291 175.8  28.2  34084  288.29 0855.14
2009/04/23 09:07:13.6      24   -284     96    286    302 175.1  18.6  34088  288.34 0855.14
2009/04/23 09:07:13.7      51   -318    110    323    342 170.9  18.9  34088  288.35 0855.14
2009/04/23 09:07:13.8      28   -280     66    282    290 174.2  13.2  34086  288.31 0855.12
2009/04/23 09:07:13.9      18   -289    134    290    319 176.4  26.5  34084  288.29 0855.12
2009/04/23 09:07:14.0      18   -284     49    285    290 176.4   9.9  34084  288.29 0855.12
2009/04/23 09:07:14.1      15   -266     30    267    269 176.6   6.5  34082  288.26 0855.12
2009/04/23 09:07:14.2      21   -209     87    211    228 174.0  23.4  34088  288.35 0855.12
2009/04/23 09:07:14.3      10   -226     75    227    240 177.3  18.4  34086  288.31 0855.12
2009/04/23 09:07:14.4      23   -195     85    197    214 173.1  25.1  34088  288.36 0855.12
2009/04/23 09:07:14.5      74   -186     84    201    217 158.2  23.8  34086  288.33 0855.12
2009/04/23 09:07:14.6      20   -220     91    222    239 174.7  23.6  34088  288.36 0855.12
2009/04/23 09:07:14.7      34   -219     88    222    238 171.1  22.8  34088  288.36 0855.12
2009/04/23 09:07:14.8      17   -182    103    183    209 174.4  31.9  34090  288.38 0855.12
2009/04/23 09:07:14.9       3   -218     95    219    238 179.1  25.1  34088  288.35 0855.12
2009/04/23 09:07:15.0     -28   -225     99    227    247 187.1  25.1  34090  288.37 0855.12
2009/04/23 09:07:15.1     -13   -229     56    230    237 183.4  13.9  34090  288.37 0855.12
2009/04/23 09:07:15.2     -35   -205     58    209    218 189.8  15.6  34088  288.36 0855.12
2009/04/23 09:07:15.3      31   -208    -37    211    215 171.3 -10.1  34088  288.36 0855.12
2009/04/23 09:07:15.4      -7   -176    -23    177    179 182.5  -7.7  34088  288.36 0855.12
2009/04/23 09:07:15.5     -43   -143    -13    150    151 196.9  -5.2  34092  288.42 0855.12
2009/04/23 09:07:15.6     -80   -126    -14    150    151 212.6  -5.6  34088  288.36 0855.12
2009/04/23 09:07:15.7     -63    -94      1    114    115 213.8   0.8  34092  288.42 0855.12
2009/04/23 09:07:15.8     -53    -84     17    100    102 212.5  10.1  34090  288.40 0855.10
2009/04/23 09:07:15.9     -28    -86     18     91     93 198.3  11.6  34090  288.40 0855.10
2009/04/23 09:07:16.0     -19    -58     53     62     81 198.5  45.4  34090  288.38 0855.10
2009/04/23 09:07:16.1       1    -55     73     56     92 178.2  58.5  34090  288.38 0855.10
2009/04/23 09:07:16.2      17   -103     65    105    123 170.7  35.5  34092  288.42 0855.10
2009/04/23 09:07:16.3      41    -87     59     97    113 154.7  35.5  34088  288.35 0855.10
2009/04/23 09:07:16.4      18    -90     86     92    125 168.4  48.0  34090  288.38 0855.10
2009/04/23 09:07:16.5      89   -109     65    141    155 140.8  27.1  34088  288.35 0855.10
2009/04/23 09:07:16.6      43   -129     64    137    151 161.3  27.1  34088  288.36 0855.10
2009/04/23 09:07:16.7      86   -182     70    202    214 154.7  19.2  34086  288.33 0855.10
2009/04/23 09:07:16.8      92   -239     39    257    261 158.8   8.8  34090  288.39 0855.09
2009/04/23 09:07:16.9     116   -234     16    262    263 153.7   3.6  34088  288.34 0855.09
2009/04/23 09:07:17.0     117   -218    118    248    274 151.7  27.3  34088  288.36 0855.09
2009/04/23 09:07:17.1      82   -288    126    300    325 164.0  24.2  34086  288.31 0855.09
2009/04/23 09:07:17.2     -24   -239     54    241    248 185.8  12.6  34088  288.36 0855.09
2009/04/23 09:07:17.3     -22   -245    -18    247    248 185.3  -4.4  34090  288.37 0855.09
2009/04/23 09:07:17.4     -13   -207    -26    208    210 183.8  -7.2  34086  288.33 0855.09
2009/04/23 09:07:17.5      13   -262     68    263    272 177.1  14.5  34080  288.22 0855.09
2009/04/23 09:07:17.6       4   -256    114    257    281 179.1  25.2  34078  288.19 0855.09
2009/04/23 09:07:17.7     -52   -239    159    245    292 192.3  35.7  34082  288.26 0855.09
2009/04/23 09:07:17.8      64   -193    179    204    271 161.7  45.8  34076  288.15 0855.09
2009/04/23 09:07:17.9      55    -71    133     91    161 142.2  62.4  34084  288.30 0855.09
2009/04/23 09:07:18.0     102    -86     84    134    158 130.4  35.2  34084  288.28 0855.09
2009/04/23 09:07:18.1       2   -181     64    182    194 179.1  19.4  34084  288.28 0855.09
2009/04/23 09:07:18.2      60   -110     57    126    138 151.5  25.7  34084  288.28 0855.09
2009/04/23 09:07:18.3     173   -106     47    203    209 121.5  13.2  34084  288.30 0855.09
2009/04/23 09:07:18.4     193    -53     78    201    215 105.3  22.5  34084  288.30 0855.09
2009/04/23 09:07:18.5     144    -16     80    145    165  96.6  31.4  34084  288.28 0855.09
2009/04/23 09:07:18.6     147    -35      8    152    153 103.7   3.3  34084  288.28 0855.09
2009/04/23 09:07:18.7     131      4      0    132    133  87.9  -0.3  34084  288.30 0855.09
2009/04/23 09:07:18.8     117    -13     49    118    127  96.6  23.6  34080  288.23 0855.09
2009/04/23 09:07:18.9      87    -25     17     91     93 106.4  11.1  34084  288.28 0855.09
2009/04/23 09:07:19.0     101     -6     40    102    109  93.9  22.5  34080  288.21 0855.09
2009/04/23 09:07:19.1      85    -48     84     98    129 119.8  44.8  34082  288.26 0855.09
2009/04/23 09:07:19.2      69    -15     75     71    103 102.4  51.6  34080  288.21 0855.09
2009/04/23 09:07:19.3      13   -166     82    167    186 175.3  27.8  34080  288.21 0855.09
2009/04/23 09:07:19.4     141   -200     71    245    256 144.8  16.3  34074  288.12 0855.09
2009/04/23 09:07:19.5     164   -136    111    214    241 129.8  29.3  34078  288.18 0855.09
2009/04/23 09:07:19.6     133   -208     76    247    259 147.4  17.1  34078  288.19 0855.09
2009/04/23 09:07:19.7     126   -153     62    199    209 140.6  17.4  34076  288.14 0855.09
2009/04/23 09:07:19.8     121     -9    -28    122    126  94.4 -12.9  34080  288.23 0855.09
2009/04/23 09:07:19.9     118      5    -82    119    144  87.4 -42.0  34078  288.20 0855.09
2009/04/23 09:07:20.0     108    -42    -82    116    142 111.3 -43.9  34078  288.20 0855.09
2009/04/23 09:07:20.1     132    -99    -59    166    177 126.9 -19.7  34078  288.20 0855.09
2009/04/23 09:07:20.2      27   -112   -100    116    153 166.2 -49.8  34080  288.23 0855.09
2009/04/23 09:07:20.3       3   -175   -101    176    202 178.9 -37.1  34076  288.14 0855.09
2009/04/23 09:07:20.4      -4   -206    -69    207    218 181.1 -23.6  34076  288.14 0855.09
2009/04/23 09:07:20.5     -64   -255    -40    263    267 194.2  -8.8  34074  288.12 0855.09
2009/04/23 09:07:20.6     -76   -135    -90    155    179 209.4 -37.1  34072  288.09 0855.09
2009/04/23 09:07:20.7      72   -159     15    175    176 155.7   5.2  34072  288.09 0855.09
2009/04/23 09:07:20.8      60   -355     60    361    366 170.3   9.5  34074  288.10 0855.09
2009/04/23 09:07:20.9      24   -292     57    294    300 175.3  11.0  34070  288.05 0855.09
2009/04/23 09:07:21.0     -60   -139   -122    152    194 203.6 -47.7  34072  288.08 0855.09
2009/04/23 09:07:21.1    -130   -113   -149    173    228 228.9 -49.5  34072  288.08 0855.09
2009/04/23 09:07:21.2    -151    -63   -144    164    218 247.4 -50.3  34070  288.04 0855.09
2009/04/23 09:07:21.3     -88     -1   -132     89    159 269.2 -67.2  34072  288.08 0855.09
2009/04/23 09:07:21.4     -27    -84    -73     89    115 197.8 -48.1  34072  288.08 0855.09
2009/04/23 09:07:21.5     -85   -212   -130    229    263 201.9 -36.5  34070  288.04 0855.09
2009/04/23 09:07:21.6    -172   -227    -89    286    300 217.2 -17.3  34070  288.04 0855.09
2009/04/23 09:07:21.7    -191   -217    -86    290    302 221.4 -21.7  34070  288.04 0855.09
2009/04/23 09:07:21.8    -183   -166   -127    248    278 227.7 -33.7  34070  288.04 0855.09
2009/04/23 09:07:21.9    -170   -171   -129    242    274 224.9 -34.7  34070  288.04 0855.09
2009/04/23 09:07:22.0    -171   -173   -136    244    279 224.8 -35.8  34070  288.04 0855.09
2009/04/23 09:07:22.1    -208   -208   -126    295    320 225.1 -28.9  34070  288.04 0855.09
2009/04/23 09:07:22.2    -138   -217   -161    258    304 212.5 -39.9  34068  288.02 0855.09
2009/04/23 09:07:22.3     -92   -221    -92    240    257 202.7 -26.5  34068  288.00 0855.09
2009/04/23 09:07:22.4     -85   -135    -66    160    173 212.1 -28.0  34068  288.01 0855.09
2009/04/23 09:07:22.5    -106   -120    -96    161    187 221.5 -38.1  34068  288.01 0855.09
2009/04/23 09:07:22.6     -58   -121    -80    135    156 205.5 -37.5  34070  288.04 0855.09
2009/04/23 09:07:22.8     -74   -142    -85    161    182 207.6 -34.5  34070  288.04 0855.09
2009/04/23 09:07:22.8    -101   -198   -108    223    247 207.2 -31.8  34068  288.00 0855.11
2009/04/23 09:07:22.9     -53   -181   -145    189    238 196.3 -45.8  34064  287.96 0855.11
2009/04/23 09:07:23.0     -48    -58   -129     76    149 219.7 -71.2  34068  288.01 0855.11
2009/04/23 09:07:23.1     -18   -166   -131    168    213 186.5 -46.1  34070  288.06 0855.11
2009/04/23 09:07:23.3     -61   -154   -115    166    201 201.6 -42.2  34068  288.01 0855.11
2009/04/23 09:07:23.4    -164   -162   -112    231    256 225.3 -31.8  34070  288.05 0855.11
2009/04/23 09:07:23.5      25   -160    -80    162    180 171.1 -32.6  34066  287.99 0855.11
2009/04/23 09:07:23.6      70   -154    -50    170    178 155.5 -16.6  34070  288.04 0855.11
2009/04/23 09:07:23.7       5   -220    -44    221    226 178.6 -11.3  34068  288.03 0855.11
2009/04/23 09:07:23.8      41   -203    -51    208    215 168.4 -13.9  34064  287.96 0855.11
2009/04/23 09:07:23.9    -108   -142    -90    179    200 217.2 -33.1  34070  288.04 0855.11
2009/04/23 09:07:24.0     -80   -253   -158    266    309 197.6 -37.9  34070  288.05 0855.11
2009/04/23 09:07:24.1     -92   -189   -171    211    271 206.1 -48.1  34070  288.04 0855.11
2009/04/23 09:07:24.2    -103   -219   -216    243    325 205.3 -50.6  34070  288.04 0855.11
2009/04/23 09:07:24.3     -89   -215   -155    233    279 202.5 -41.1  34066  287.99 0855.11
2009/04/23 09:07:24.4    -101   -143   -144    176    227 215.4 -48.1  34066  287.98 0855.11
2009/04/23 09:07:24.5    -123    -37   -139    129    189 253.1 -56.6  34070  288.06 0855.11
2009/04/23 09:07:24.6    -150    -88   -109    175    206 239.6 -39.6  34074  288.11 0855.11
2009/04/23 09:07:24.7    -167    -83    -98    187    211 243.4 -33.9  34070  288.06 0855.11
2009/04/23 09:07:24.8    -179   -125    -91    219    237 234.9 -28.5  34068  288.01 0855.11
2009/04/23 09:07:24.9    -204   -211    -81    294    306 224.1 -15.4  34072  288.07 0855.11
2009/04/23 09:07:25.0    -250   -215    -91    330    342 229.3 -20.0  34068  288.03 0855.11
2009/04/23 09:07:25.1    -156   -253    -92    298    311 211.6 -22.3  34066  287.99 0855.11
2009/04/23 09:07:25.2     -74   -183    -93    198    218 202.1 -31.5  34066  287.98 0855.11
2009/04/23 09:07:25.3      17   -161   -109    162    195 173.8 -41.1  34068  288.01 0855.11
2009/04/23 09:07:25.4     -61   -120   -111    135    174 207.2 -48.1  34066  287.99 0855.11
2009/04/23 09:07:25.5    -138   -112   -116    178    212 230.9 -40.1  34066  287.99 0855.11
2009/04/23 09:07:25.6    -102   -112   -116    152    191 222.3 -45.8  34068  288.01 0855.11
2009/04/23 09:07:25.7    -112   -190   -115    221    249 210.7 -33.9  34066  287.97 0855.11
2009/04/23 09:07:25.8     -75   -213    -74    226    237 199.4 -23.3  34066  287.99 0855.11
2009/04/23 09:07:25.9    -150   -124    -61    195    204 230.5 -22.5  34066  287.99 0855.11
2009/04/23 09:07:26.0    -162    -79    -96    181    204 244.0 -34.7  34068  288.01 0855.11
2009/04/23 09:07:26.1    -145   -119    -74    188    202 230.5 -27.2  34066  287.98 0855.11
2009/04/23 09:07:26.2    -151   -180    -93    236    253 220.1 -26.7  34068  288.00 0855.11
2009/04/23 09:07:26.3    -148   -155   -115    215    243 223.7 -34.7  34068  288.00 0855.11
2009/04/23 09:07:26.4     -85   -212   -134    229    265 201.9 -37.3  34066  287.97 0855.11
2009/04/23 09:07:26.5     -55   -222    -87    229    244 194.0 -26.4  34068  288.00 0855.11
2009/04/23 09:07:26.6     -51   -187   -118    195    227 195.4 -38.6  34066  287.99 0855.11
2009/04/23 09:07:26.7      -7   -182   -115    183    216 182.5 -39.9  34068  288.01 0855.11
2009/04/23 09:07:26.8     -54   -187   -106    195    221 196.3 -35.7  34068  288.03 0855.11
2009/04/23 09:07:26.9       0   -213    -80    214    228 179.8 -25.7  34068  288.01 0855.11
2009/04/23 09:07:27.0      -9   -213    -75    214    226 182.5 -24.0  34068  288.01 0855.11
2009/04/23 09:07:27.1      -7   -191    -85    192    209 182.2 -29.7  34070  288.04 0855.11
2009/04/23 09:07:27.2     -23   -186    -95    188    210 187.3 -33.1  34066  287.99 0855.11
2009/04/23 09:07:27.3      22   -207    -84    209    225 173.7 -27.5  34066  287.99 0855.11
2009/04/23 09:07:27.4      -2   -163    -57    164    173 180.9 -23.8  34068  288.03 0855.11
2009/04/23 09:07:27.5      -2   -116    -80    117    141 181.0 -42.0  34070  288.04 0855.11
2009/04/23 09:07:27.6      35   -140    -61    145    157 165.7 -28.5  34068  288.03 0855.11
2009/04/23 09:07:27.7      40   -148    -33    154    158 164.9 -12.4  34066  287.99 0855.11
2009/04/23 09:07:27.8      58   -202    -38    211    215 164.0 -10.3  34068  288.03 0855.11
2009/04/23 09:07:27.9      46   -245     19    250    251 169.3   4.4  34070  288.04 0855.11
2009/04/23 09:07:28.0      72   -230     21    242    243 162.6   5.2  34068  288.02 0855.11
2009/04/23 09:07:28.1      81   -199     42    216    221 157.7  11.1  34070  288.06 0855.11
2009/04/23 09:07:28.2      75   -248     -5    260    261 163.1  -1.3  34068  288.02 0855.11
2009/04/23 09:07:28.3      50   -293     42    298    302 170.2   8.0  34068  288.02 0855.11
2009/04/23 09:07:28.4      37   -290     53    293    298 172.7  10.3  34070  288.04 0855.11
2009/04/23 09:07:28.5      41   -225     33    229    232 169.5   8.2  34070  288.06 0855.11
2009/04/23 09:07:28.6      48   -215     43    221    226 167.3  11.1  34070  288.04 0855.11
2009/04/23 09:07:28.7      30   -223     19    226    227 172.2   4.9  34072  288.08 0855.11
2009/04/23 09:07:28.8      25   -205     19    207    208 172.9   5.4  34070  288.04 0855.11
2009/04/23 09:07:28.9      50   -178     52    185    193 164.2  15.8  34070  288.04 0855.10
2009/04/23 09:07:29.0      63   -172     86    184    203 159.7  27.1  34068  288.03 0855.10
2009/04/23 09:07:29.1      63   -194     41    204    209 162.0  11.6  34066  287.99 0855.10
2009/04/23 09:07:29.2      87   -185     48    205    211 154.7  13.2  34068  288.01 0855.10
2009/04/23 09:07:29.3      94   -171     61    196    206 151.3  17.3  34066  287.99 0855.10
2009/04/23 09:07:29.4     104   -171     71    201    213 148.6  20.0  34068  288.03 0855.10
2009/04/23 09:07:29.5      58   -157    108    168    199 159.5  35.7  34068  288.03 0855.10
2009/04/23 09:07:29.6      74   -149    121    167    206 153.5  39.7  34072  288.08 0855.10
2009/04/23 09:07:29.7      65   -161    116    174    209 157.9  37.0  34072  288.09 0855.10
2009/04/23 09:07:29.8      95   -139    119    169    206 145.5  38.6  34068  288.03 0855.10
2009/04/23 09:07:29.9      92   -149    167    176    242 148.4  48.7  34068  288.01 0855.10
2009/04/23 09:07:30.0     139   -108    153    177    233 128.0  45.4  34072  288.08 0855.10
2009/04/23 09:07:30.1     112   -155    107    192    219 144.2  31.4  34068  288.03 0855.10
2009/04/23 09:07:30.2     127   -191    147    230    272 146.2  35.6  34066  287.99 0855.10
2009/04/23 09:07:30.3      81   -134    146    157    214 148.8  47.9  34068  288.03 0855.10
2009/04/23 09:07:30.4      96    -55    118    111    162 119.8  52.0  34070  288.04 0855.10
2009/04/23 09:07:30.5     -21    -43     91     48    102 206.3  70.4  34076  288.16 0855.10
2009/04/23 09:07:30.6      -4     45    119     46    127 354.7  78.2  34072  288.08 0855.10
2009/04/23 09:07:30.7      23      9    100     25    103  68.3  85.9  34072  288.09 0855.10
2009/04/23 09:07:30.8     -31    -63    122     71    141 206.3  67.2  34072  288.08 0855.10
2009/04/23 09:07:30.9      14   -123    123    124    174 173.3  50.5  34066  287.98 0855.11
2009/04/23 09:07:31.0      68   -144    125    160    203 154.5  41.7  34070  288.06 0855.11
2009/04/23 09:07:31.1     124   -124    138    176    223 134.9  42.0  34070  288.04 0855.11
2009/04/23 09:07:31.2      30      0    151     31    154  90.0  89.0  34070  288.04 0855.11
2009/04/23 09:07:31.3      76    -15    135     78    155 101.5  67.2  34072  288.08 0855.11
2009/04/23 09:07:31.4     163    -81    167    183    247 116.4  47.1  34072  288.08 0855.11
2009/04/23 09:07:31.5      51    -22    195     56    202 113.5  83.5  34074  288.13 0855.11
2009/04/23 09:07:31.6      66    -10    114     67    132  98.8  66.8  34072  288.08 0855.11
2009/04/23 09:07:31.7      26   -128    125    131    181 168.4  48.7  34070  288.06 0855.11
2009/04/23 09:07:31.8     -18    -54     73     57     92 198.5  57.5  34070  288.04 0855.11
2009/04/23 09:07:31.9     -28   -137     79    140    160 191.6  31.9  34068  288.03 0855.11
2009/04/23 09:07:32.0     -61   -120     82    135    157 207.2  34.2  34068  288.01 0855.11
2009/04/23 09:07:32.1       9   -163     99    164    191 176.6  34.2  34068  288.03 0855.11
2009/04/23 09:07:32.2     -71   -153    154    169    228 204.9  47.5  34068  288.03 0855.11
2009/04/23 09:07:32.3    -168    -33    142    172    223 258.8  43.7  34068  288.03 0855.11
2009/04/23 09:07:32.4    -178    -25     93    180    202 261.9  29.3  34070  288.06 0855.11
2009/04/23 09:07:32.5    -172    -90    110    195    223 242.2  31.9  34066  287.98 0855.11
2009/04/23 09:07:32.6    -167    -36     76    171    187 257.8  25.7  34072  288.09 0855.11
2009/04/23 09:07:32.7    -173    -93     13    197    198 241.8   3.8  34070  288.06 0855.11
2009/04/23 09:07:32.8    -191    -21    -21    193    195 263.6  -6.5  34066  287.98 0855.11
2009/04/23 09:07:32.9    -102    -64     59    121    134 238.0  27.8  34066  287.98 0855.12
2009/04/23 09:07:33.0    -191    -97     57    215    223 242.9  15.0  34064  287.96 0855.12
2009/04/23 09:07:33.1    -274   -150      8    313    314 241.2   1.6  34064  287.95 0855.12
2009/04/23 09:07:33.2    -240   -158      4    288    289 236.7   0.8  34066  287.99 0855.12
2009/04/23 09:07:33.3    -198   -224     65    300    308 221.4  12.3  34066  287.99 0855.12
2009/04/23 09:07:33.4     -85   -215    166    232    285 201.6  39.3  34066  287.99 0855.12
2009/04/23 09:07:33.5     -40   -232     99    236    255 189.8  24.1  34068  288.00 0855.12
2009/04/23 09:07:33.6     -53   -225    111    232    257 193.3  27.3  34068  288.00 0855.12
2009/04/23 09:07:33.7     -49   -247    198    252    320 191.3  42.2  34068  288.02 0855.12
2009/04/23 09:07:33.8     -34   -218    167    221    277 188.9  40.9  34068  288.02 0855.12
2009/04/23 09:07:33.9     -71   -218    230    230    325 198.0  50.1  34066  287.99 0855.12
2009/04/23 09:07:34.0    -277   -147    113    314    333 242.0  20.7  34066  287.97 0855.12
2009/04/23 09:07:34.1    -172   -133     77    218    232 232.2  19.6  34066  287.98 0855.12
2009/04/23 09:07:34.2    -174   -147     37    228    232 229.8   9.3  34064  287.96 0855.12
2009/04/23 09:07:34.3    -112   -155     98    192    215 216.0  29.2  34064  287.96 0855.12
2009/04/23 09:07:34.4    -133   -142     54    195    203 223.2  15.6  34064  287.94 0855.12
2009/04/23 09:07:34.5    -143   -143     75    203    216 225.0  21.3  34066  287.99 0855.12
2009/04/23 09:07:34.6    -101   -103     82    145    166 224.5  32.1  34066  287.99 0855.12
2009/04/23 09:07:34.7     -78   -122     86    145    168 212.6  33.5  34068  288.03 0855.12
2009/04/23 09:07:34.8     -83   -119    132    146    196 214.7  46.9  34066  287.99 0855.12
2009/04/23 09:07:34.9    -157   -129    126    204    239 230.7  34.5  34062  287.92 0855.14
2009/04/23 09:07:35.0    -172    -87     -7    193    194 243.1  -2.1  34070  288.04 0855.14
2009/04/23 09:07:35.1    -153   -108     -5    188    189 234.7  -1.6  34068  288.01 0855.14
2009/04/23 09:07:35.2    -181    -95     36    205    209 242.2  10.1  34066  287.98 0855.14
2009/04/23 09:07:35.3    -139   -166     81    217    231 219.9  21.3  34068  288.01 0855.14
2009/04/23 09:07:35.4     -86   -131     -6    157    158 213.4  -2.2  34064  287.96 0855.14
2009/04/23 09:07:35.5    -130    -66     20    146    148 242.9   8.0  34064  287.96 0855.14
2009/04/23 09:07:35.6    -167    -47     31    174    177 254.3  10.3  34066  287.98 0855.14
2009/04/23 09:07:35.7    -166    -17     73    167    182 263.9  25.1  34062  287.92 0855.14
2009/04/23 09:07:35.8     -99     25     -5    103    104 284.6  -3.2  34066  287.98 0855.14
2009/04/23 09:07:35.9     -16    -39    -44     43     61 202.7 -54.5  34068  288.01 0855.14
2009/04/23 09:07:36.0     -25   -102     27    106    110 193.8  14.7  34068  288.03 0855.14
2009/04/23 09:07:36.1     -34    -97     47    103    113 199.6  26.6  34068  288.03 0855.14
2009/04/23 09:07:36.2     -54    -61     11     82     83 221.4   8.0  34068  288.03 0855.14
2009/04/23 09:07:36.3       9    -69      4     70     71 172.0   3.8  34066  287.99 0855.14
2009/04/23 09:07:36.4       7   -101     -7    102    103 175.5  -4.1  34068  288.01 0855.14
2009/04/23 09:07:36.5      60    -77      0     98     99 142.2  -0.3  34066  287.99 0855.14
2009/04/23 09:07:36.6       0   -101     40    102    109 180.0  22.5  34068  288.01 0855.14
2009/04/23 09:07:36.7       0    -81     38     82     90 180.5  27.1  34068  288.03 0855.14
2009/04/23 09:07:36.8      -1    -53     53     54     75 181.8  51.1  34066  287.99 0855.14
2009/04/23 09:07:36.9     -12    -58     29     60     66 191.6  27.2  34068  288.01 0855.16
2009/04/23 09:07:37.0     -28    -39      8     49     50 216.1  10.1  34070  288.04 0855.16
2009/04/23 09:07:37.1       7     -6      8     10     12 133.1  47.9  34066  287.98 0855.16
2009/04/23 09:07:37.2      54     -4     63     55     83  94.3  53.7  34068  288.03 0855.16
2009/04/23 09:07:37.3      10    -38     81     40     90 164.9  72.4  34074  288.11 0855.16
2009/04/23 09:07:37.4     -44    -26     73     52     89 239.3  61.1  34074  288.13 0855.16
2009/04/23 09:07:37.5     -26    -59     76     65    100 204.5  55.4  34070  288.04 0855.16
2009/04/23 09:07:37.6     -74    -54     93     92    130 233.6  50.1  34068  288.03 0855.16
2009/04/23 09:07:37.7     -98    -63     81    117    142 237.1  38.0  34070  288.06 0855.16
2009/04/23 09:07:37.8    -126    -51     63    137    150 247.8  27.1  34070  288.06 0855.16
2009/04/23 09:07:37.9    -144    -84     36    167    172 239.8  12.4  34082  288.25 0855.15
2009/04/23 09:07:38.0     -61   -120     16    135    137 207.1   7.1  34080  288.21 0855.15
2009/04/23 09:07:38.1     -12   -153     21    154    156 184.5   7.8  34070  288.04 0855.15
2009/04/23 09:07:38.2     -42   -118     29    126    130 200.0  13.1  34068  288.01 0855.15
2009/04/23 09:07:38.3     -34   -181     68    185    197 190.7  21.0  34068  288.01 0855.15
2009/04/23 09:07:38.4     -31   -170     42    173    179 190.5  13.7  34074  288.11 0855.15
2009/04/23 09:07:38.5       0   -123    -18    124    126 180.4  -8.2  34080  288.23 0855.15
2009/04/23 09:07:38.6      -8   -173     34    174    178 182.7  11.1  34084  288.28 0855.15
2009/04/23 09:07:38.7     -62   -179    136    190    233 199.2  39.3  34098  288.52 0855.15
2009/04/23 09:07:38.8     -59   -116    139    131    191 207.1  52.0  34088  288.36 0855.15
2009/04/23 09:07:38.9    -183     59    106    193    220 287.9  31.3  34080  288.23 0855.15
2009/04/23 09:07:39.0    -162     37     73    167    182 283.0  25.1  34072  288.08 0855.15
2009/04/23 09:07:39.1    -120    -67     53    138    147 240.7  22.0  34064  287.96 0855.15
2009/04/23 09:07:39.2    -186    -20     63    188    199 263.6  18.6  34070  288.04 0855.15
2009/04/23 09:07:39.3    -136    -27     43    139    146 258.5  17.3  34074  288.11 0855.15
2009/04/23 09:07:39.4    -207   -114    -30    237    239 241.2  -7.3  34078  288.19 0855.15
2009/04/23 09:07:39.5    -233   -120    -10    263    264 242.7  -2.2  34078  288.19 0855.15
2009/04/23 09:07:39.6    -147    -65    -52    161    170 246.0 -18.1  34084  288.28 0855.15
2009/04/23 09:07:39.7    -194    -31   -125    197    233 260.8 -39.9  34108  288.70 0855.15
2009/04/23 09:07:39.8    -211    -23   -123    213    245 263.6 -37.1  34102  288.59 0855.15
2009/04/23 09:07:39.9    -285    -35   -108    288    307 262.9 -25.9  34090  288.39 0855.14
2009/04/23 09:07:40.0    -222      3    -31    223    226 270.9  -8.0  34120  288.89 0855.14
2009/04/23 09:07:40.1    -163    -13    -40    164    169 265.2 -13.9  34114  288.79 0855.14
2009/04/23 09:07:40.2    -162    -56     -2    172    173 250.7  -0.7  34108  288.70 0855.14
2009/04/23 09:07:40.3    -184    -39      1    189    190 257.8   0.5  34106  288.67 0855.14
2009/04/23 09:07:40.4    -141    -84    -44    165    171 239.3 -15.0  34098  288.53 0855.14
2009/04/23 09:07:40.5    -134    -97     57    166    176 234.0  19.2  34074  288.13 0855.14
2009/04/23 09:07:40.6    -129   -103     15    166    167 231.4   5.4  34082  288.25 0855.14
2009/04/23 09:07:40.7    -248    -56    -28    255    257 257.2  -6.5  34094  288.44 0855.14
2009/04/23 09:07:40.8    -225    -79    -64    239    248 250.5 -15.0  34090  288.39 0855.14
2009/04/23 09:07:40.9    -240    -45   -110    245    268 259.4 -30.6  34096  288.49 0855.14
2009/04/23 09:07:41.0    -218     26   -106    220    244 277.0 -31.8  34090  288.37 0855.14
2009/04/23 09:07:41.1    -216    -12   -119    217    247 266.7 -35.7  34076  288.14 0855.14
2009/04/23 09:07:41.2    -240     32   -120    243    271 277.7 -32.4  34088  288.34 0855.14
2009/04/23 09:07:41.3    -217     37    -89    221    238 279.9 -27.4  34088  288.34 0855.14
2009/04/23 09:07:41.4    -196     20    -58    198    207 275.9 -16.4  34082  288.26 0855.14
2009/04/23 09:07:41.5    -276   -130    -39    306    309 244.8  -7.3  34082  288.24 0855.14
2009/04/23 09:07:41.6    -275   -134     -8    307    308 244.0  -1.6  34096  288.48 0855.14
2009/04/23 09:07:41.7    -255    -31    -90    257    272 263.0 -24.0  34086  288.31 0855.14
2009/04/23 09:07:41.8    -271      8    -90    272    286 271.7 -23.8  34092  288.41 0855.14
2009/04/23 09:07:41.9    -217     28    -80    219    233 277.5 -25.1  34092  288.43 0855.15
2009/04/23 09:07:42.0    -186     44    -57    192    201 283.5 -16.6  34088  288.36 0855.15
2009/04/23 09:07:42.1    -157    -39    -44    162    168 255.8 -15.2  34088  288.35 0855.15
2009/04/23 09:07:42.2    -191    -42    -62    196    205 257.6 -23.0  34082  288.26 0855.15
2009/04/23 09:07:42.3    -236   -135    -29    273    275 240.2  -6.2  34086  288.31 0855.15
2009/04/23 09:07:42.4    -148   -121      9    192    193 230.7   2.9  34086  288.31 0855.15
2009/04/23 09:07:42.5    -199    -15    -93    200    220 265.6 -31.4  34084  288.28 0855.15
2009/04/23 09:07:42.6    -226     -6   -122    227    257 268.3 -35.0  34082  288.24 0855.15
2009/04/23 09:07:42.7    -151    -21     22    153    155 262.0   8.5  34080  288.23 0855.15
2009/04/23 09:07:42.8    -102    -58    100    118    154 240.2  44.3  34084  288.28 0855.15
2009/04/23 09:07:42.9    -120   -102     89    158    181 229.6  31.6  34094  288.45 0855.15
2009/04/23 09:07:43.0    -118    -99     54    155    165 230.0  19.2  34092  288.42 0855.15
2009/04/23 09:07:43.1    -161    -98     58    189    198 238.7  17.3  34088  288.35 0855.15
2009/04/23 09:07:43.2    -147    -75     61    166    176 243.0  21.3  34090  288.40 0855.15
2009/04/23 09:07:43.3    -186      9     35    187    191 273.0  10.6  34090  288.40 0855.15
2009/04/23 09:07:43.4    -133    -26     26    136    139 258.6  11.1  34092  288.42 0855.15
2009/04/23 09:07:43.5    -214    -36     -8    218    219 260.3  -2.2  34082  288.25 0855.15
2009/04/23 09:07:43.6    -160    -88     32    183    186 241.1  10.1  34082  288.25 0855.15
2009/04/23 09:07:43.7    -168    -44     27    174    177 255.2   8.8  34084  288.30 0855.15
2009/04/23 09:07:43.8    -124     22    -18    126    128 280.1  -8.2  34098  288.53 0855.15
2009/04/23 09:07:43.9    -185     13    -73    186    199 274.3 -26.9  34092  288.43 0855.15
2009/04/23 09:07:44.0    -233      7    -76    234    246 271.9 -23.3  34068  288.00 0855.15
2009/04/23 09:07:44.1    -217      0    -86    218    234 270.1 -27.2  34068  288.01 0855.15
2009/04/23 09:07:44.2    -267    -20    -96    268    284 265.7 -25.1  34098  288.53 0855.15
2009/04/23 09:07:44.3    -288    -58    -27    294    296 258.5  -5.4  34100  288.54 0855.15
2009/04/23 09:07:44.4    -256    -55    -14    263    264 257.7  -3.1  34110  288.71 0855.15
2009/04/23 09:07:44.5    -240    -50    -45    246    251 258.1 -10.4  34098  288.51 0855.15
2009/04/23 09:07:44.6    -188      6    -90    189    209 271.9 -31.6  34080  288.23 0855.15
2009/04/23 09:07:44.7    -200     12    -56    201    209 273.5 -15.8  34082  288.26 0855.15
2009/04/23 09:07:44.8    -205      3    -48    206    212 270.9 -13.2  34082  288.26 0855.15
2009/04/23 09:07:44.9    -226      3    -50    227    233 270.8 -12.6  34088  288.36 0855.15
2009/04/23 09:07:45.0    -226    -43    -73    231    243 259.2 -17.5  34082  288.24 0855.15
2009/04/23 09:07:45.1    -231     45    -99    236    255 281.0 -28.5  34084  288.29 0855.15
2009/04/23 09:07:45.2    -182     32    -61    185    195 280.1 -18.3  34088  288.35 0855.15
2009/04/23 09:07:45.3    -196     63    -65    206    216 287.9 -22.8  34088  288.36 0855.15
2009/04/23 09:07:45.4    -191     46    -35    197    201 283.5 -10.3  34088  288.36 0855.15
2009/04/23 09:07:45.5    -177     35    -14    181    182 281.4  -4.6  34084  288.28 0855.15
2009/04/23 09:07:45.6    -206     42     -8    211    212 281.5  -2.3  34080  288.23 0855.15
2009/04/23 09:07:45.7    -226      9    -41    227    231 272.4 -10.3  34082  288.25 0855.15
2009/04/23 09:07:45.8    -212     70    -20    224    225 288.4  -5.2  34082  288.26 0855.15
2009/04/23 09:07:45.9    -228     25    -21    230    232 276.4  -5.4  34080  288.23 0855.15
2009/04/23 09:07:46.0    -226      9    -46    227    232 272.4 -11.6  34074  288.13 0855.15
2009/04/23 09:07:46.1    -212      9     18    213    214 272.5   4.9  34082  288.25 0855.15
2009/04/23 09:07:46.2    -163      0      0    164    165 270.0  -0.3  34086  288.31 0855.15
2009/04/23 09:07:46.3    -209    -19    -49    210    216 264.5 -13.3  34080  288.23 0855.15
2009/04/23 09:07:46.4    -210    -33    -11    213    214 261.0  -3.2  34080  288.23 0855.15
2009/04/23 09:07:46.5    -164    -36     41    168    174 257.6  13.9  34082  288.25 0855.15
2009/04/23 09:07:46.6    -129    -31     19    133    135 256.3   8.5  34088  288.36 0855.15
2009/04/23 09:07:46.7     -92    -43    -36    102    108 244.7 -23.8  34084  288.28 0855.15
2009/04/23 09:07:46.8    -137     -9    -53    138    147 266.1 -26.4  34074  288.13 0855.15
2009/04/23 09:07:46.9    -152     -6    -85    153    175 267.5 -36.0  34066  287.98 0855.15
2009/04/23 09:07:47.1     -85     60    -59    105    120 305.1 -36.3  34068  288.01 0855.15
2009/04/23 09:07:47.1     -34     27    -37     44     57 308.6 -48.2  34080  288.23 0855.15
2009/04/23 09:07:47.2     -71    -56    -26     91     94 231.4 -21.2  34080  288.21 0855.15
2009/04/23 09:07:47.3     -56    -81      8     99    100 214.7   4.9  34076  288.14 0855.15
2009/04/23 09:07:47.4     -92   -102      7    138    139 222.3   2.9  34082  288.25 0855.15
2009/04/23 09:07:47.5    -131    -66    -18    147    149 243.0  -7.3  34086  288.31 0855.15
2009/04/23 09:07:47.6    -123    -90    -45    153    160 233.6 -16.4  34086  288.31 0855.15
2009/04/23 09:07:47.7    -145    -92    -67    172    184 237.5 -26.7  34070  288.06 0855.15
2009/04/23 09:07:47.8    -127   -104    -56    165    174 230.5 -23.3  34072  288.08 0855.15
2009/04/23 09:07:47.9    -118   -143    -65    186    197 219.6 -24.6  34086  288.33 0855.17
2009/04/23 09:07:48.0    -135    -67    -16    151    152 243.4  -6.2  34082  288.26 0855.17
2009/04/23 09:07:48.1    -142    -28    -42    145    150 258.6 -20.7  34078  288.18 0855.17
2009/04/23 09:07:48.2    -176     -7    -46    177    183 267.6 -14.7  34072  288.09 0855.17
2009/04/23 09:07:48.3    -131    -52    -41    141    146 248.3 -21.2  34068  288.03 0855.17
2009/04/23 09:07:48.4    -152    -51    -78    161    178 251.4 -31.8  34068  288.01 0855.17
2009/04/23 09:07:48.5    -170    -39    -58    175    184 257.0 -23.8  34072  288.09 0855.17
2009/04/23 09:07:48.6    -153    -59    -50    165    172 248.7 -22.1  34078  288.18 0855.17
2009/04/23 09:07:48.7    -171   -108    -69    203    215 237.6 -18.9  34076  288.16 0855.17
2009/04/23 09:07:48.8    -161   -118    -71    200    213 233.8 -19.7  34104  288.64 0855.17
2009/04/23 09:07:49.0    -152   -136     32    205    208 228.2   8.9  34092  288.42 0855.17
2009/04/23 09:07:49.1    -165    -61     43    177    183 249.6  13.7  34078  288.20 0855.17
2009/04/23 09:07:49.1    -142     -8     22    143    145 266.5   8.9  34080  288.21 0855.17
2009/04/23 09:07:49.3    -132     48     -7    141    142 290.0  -3.2  34084  288.28 0855.17
2009/04/23 09:07:49.4    -147      0     -3    148    149 270.0  -1.3  34098  288.52 0855.17
2009/04/23 09:07:49.5    -183     39    -10    188    189 282.2  -3.2  34126  288.99 0855.17
2009/04/23 09:07:49.6    -180     35    -37    184    188 281.0 -11.5  34122  288.94 0855.17
2009/04/23 09:07:49.7    -106     53    -48    119    128 296.6 -27.4  34120  288.91 0855.17
2009/04/23 09:07:49.8    -103     54    -61    117    131 297.5 -33.7  34126  289.01 0855.17
2009/04/23 09:07:49.9    -105     24    -61    108    124 283.3 -36.3  34126  289.01 0855.17
2009/04/23 09:07:50.0    -150     -4    -64    151    164 268.3 -28.5  34096  288.48 0855.17
2009/04/23 09:07:50.1    -171      9    -63    172    183 273.0 -25.1  34108  288.69 0855.17
2009/04/23 09:07:50.2     -77     58    -92     97    133 307.3 -53.4  34122  288.92 0855.17
2009/04/23 09:07:50.3     -41     64    -68     77    102 327.5 -50.8  34116  288.82 0855.17
2009/04/23 09:07:50.4     -33     52    -47     62     77 327.4 -45.1  34120  288.89 0855.17
2009/04/23 09:07:50.5     -34     44    -26     56     61 322.2 -31.5  34124  288.97 0855.17
2009/04/23 09:07:50.6     -48     45      3     67     68 313.1   2.8  34130  289.08 0855.17
2009/04/23 09:07:50.7     -79     22     25     83     87 285.5  17.3  34122  288.92 0855.17
2009/04/23 09:07:50.8     -78    -15     45     80     91 258.5  31.9  34114  288.80 0855.17
2009/04/23 09:07:50.9     -93    -59     57    111    124 237.6  29.3  34106  288.67 0855.17
2009/04/23 09:07:51.0    -115   -101     52    154    163 228.7  18.9  34100  288.55 0855.17
2009/04/23 09:07:51.1    -164   -100     23    193    195 238.7   6.9  34108  288.69 0855.17
2009/04/23 09:07:51.2    -133    -73      1    152    153 241.2   0.7  34106  288.67 0855.17
2009/04/23 09:07:51.3    -135    -54     -2    146    147 248.2  -1.2  34120  288.89 0855.17
2009/04/23 09:07:51.4    -160    -47     16    167    168 253.6   5.7  34128  289.02 0855.17
2009/04/23 09:07:51.5    -145    -19     12    147    148 262.5   4.9  34124  288.97 0855.17
2009/04/23 09:07:51.6    -134    -12      0    135    136 264.8   0.2  34102  288.58 0855.17
2009/04/23 09:07:51.7     -58      0    -20     59     62 269.2 -23.6  34090  288.40 0855.17
2009/04/23 09:07:51.8     -18    -17     48     26     54 226.9  68.8  34098  288.53 0855.17
2009/04/23 09:07:51.9       9    -53     26     54     59 170.2  27.3  34100  288.57 0855.17
2009/04/23 09:07:52.0     -16    -49     17     52     55 198.3  18.9  34102  288.58 0855.17
2009/04/23 09:07:52.1     -92    -28     41     97    105 253.2  24.1  34104  288.62 0855.17
2009/04/23 09:07:52.2    -119    -58     43    133    140 243.8  17.9  34104  288.64 0855.17
2009/04/23 09:07:52.3    -116    -62     11    132    133 241.6   4.9  34106  288.67 0855.17
2009/04/23 09:07:52.4     -64    -62     25     90     94 225.6  15.8  34098  288.52 0855.17
2009/04/23 09:07:52.5     -37   -118      0    124    125 197.4  -0.3  34076  288.16 0855.17
2009/04/23 09:07:52.6     -18   -130     -9    132    133 188.0  -4.1  34072  288.08 0855.17
2009/04/23 09:07:52.7     -16   -149     -4    150    151 186.2  -1.8  34072  288.08 0855.17
2009/04/23 09:07:52.8       1   -171      7    172    173 179.5   2.5  34072  288.08 0855.17
2009/04/23 09:07:52.9     -22   -142     14    144    145 188.9   5.9  34086  288.31 0855.17
2009/04/23 09:07:53.0     -50   -148    -49    157    165 198.7 -17.6  34092  288.43 0855.17
2009/04/23 09:07:53.1     -56   -140    -46    151    157 201.8 -21.7  34086  288.33 0855.17
2009/04/23 09:07:53.2     -69   -147    -25    163    166 205.3  -9.0  34074  288.13 0855.17
2009/04/23 09:07:53.3     -12   -155    -20    156    158 184.5  -7.3  34068  288.01 0855.17
2009/04/23 09:07:53.4     -57   -170    -23    180    182 198.7  -7.3  34066  287.99 0855.17
2009/04/23 09:07:53.5     -80   -135    -36    157    162 210.7 -12.9  34070  288.04 0855.17
2009/04/23 09:07:53.6     -72   -132    -23    151    153 208.9  -8.8  34068  288.03 0855.17
2009/04/23 09:07:53.7     -89   -160    -44    184    190 209.0 -13.4  34068  288.01 0855.17
2009/04/23 09:07:53.8     -90   -159    -40    183    188 209.6 -12.4  34068  288.01 0855.17
2009/04/23 09:07:53.9     -57   -156     -8    167    168 200.3  -2.8  34068  288.03 0855.17
2009/04/23 09:07:54.0     -57   -144    -11    156    157 201.8  -4.1  34064  287.96 0855.16
2009/04/23 09:07:54.1     -45   -150      2    157    158 197.0   1.0  34068  288.01 0855.16
2009/04/23 09:07:54.2     -52   -179    -19    187    189 196.3  -6.0  34068  288.03 0855.16
2009/04/23 09:07:54.3     -62   -174    -37    185    189 199.8 -11.5  34070  288.06 0855.16
2009/04/23 09:07:54.4     -53   -167    -22    176    178 197.8  -7.3  34068  288.01 0855.16
2009/04/23 09:07:54.5     -31   -155    -45    159    166 191.6 -15.8  34070  288.04 0855.16
2009/04/23 09:07:54.6     -39   -146    -19    152    154 195.2  -7.2  34068  288.03 0855.16
2009/04/23 09:07:54.7     -41   -135    -12    142    143 197.0  -5.1  34068  288.03 0855.16
2009/04/23 09:07:54.8     -70   -127    -51    145    154 208.9 -19.6  34068  288.03 0855.16
2009/04/23 09:07:54.9     -88   -138    -43    164    170 212.6 -14.7  34068  288.01 0855.16
2009/04/23 09:07:55.0     -97   -157    -51    185    192 211.6 -15.5  34068  288.01 0855.16
2009/04/23 09:07:55.1     -89   -153    -49    178    185 210.1 -15.5  34066  287.98 0855.16
2009/04/23 09:07:55.2    -116   -140    -17    183    184 219.6  -5.6  34062  287.92 0855.16
2009/04/23 09:07:55.3    -129   -130     -7    184    185 224.8  -2.2  34064  287.96 0855.16
2009/04/23 09:07:55.4    -108   -114    -17    158    159 223.3  -6.2  34066  287.98 0855.16
2009/04/23 09:07:55.5     -94   -123    -24    156    158 217.4  -8.8  34064  287.96 0855.16
2009/04/23 09:07:55.6     -95   -115     -8    150    151 219.6  -3.1  34062  287.92 0855.16
2009/04/23 09:07:55.7     -75   -103     24    128    131 216.0  11.0  34064  287.96 0855.16
2009/04/23 09:07:55.8     -38   -141     49    147    156 195.2  18.6  34062  287.92 0855.16
2009/04/23 09:07:55.9     -14   -158     45    159    166 185.3  16.0  34064  287.94 0855.16
2009/04/23 09:07:56.0      -1   -138     27    139    142 180.5  11.1  34062  287.91 0855.16
2009/04/23 09:07:56.1      -1   -127     20    128    130 180.9   8.9  34064  287.94 0855.16
2009/04/23 09:07:56.2       9   -118     19    119    121 175.6   9.5  34068  288.01 0855.16
2009/04/23 09:07:56.3       0   -107     18    108    110 180.5   9.5  34066  287.98 0855.16
2009/04/23 09:07:56.4      -3   -107     13    108    109 181.8   7.1  34064  287.94 0855.16
2009/04/23 09:07:56.5       4    -85      8     86     87 177.3   5.9  34066  287.98 0855.16
2009/04/23 09:07:56.6       4    -70     65     71     96 176.4  47.9  34066  287.98 0855.16
2009/04/23 09:07:56.7      -8    -94     79     95    123 184.9  44.3  34064  287.96 0855.16
2009/04/23 09:07:56.8       6    -85     67     86    109 175.6  42.2  34066  287.98 0855.16
2009/04/23 09:07:56.9      25    -87     67     91    113 163.5  40.1  34066  287.99 0855.16
2009/04/23 09:07:57.0      38   -103     94    111    145 159.5  44.3  34070  288.04 0855.16
2009/04/23 09:07:57.1      -1   -126    106    127    165 180.5  44.3  34066  287.99 0855.16
2009/04/23 09:07:57.2     -25   -146    106    149    182 189.7  38.8  34062  287.92 0855.16
2009/04/23 09:07:57.3     -36   -138    125    143    189 194.7  45.6  34066  287.99 0855.16
2009/04/23 09:07:57.4     -27   -173     91    176    198 189.1  29.3  34066  287.99 0855.16
2009/04/23 09:07:57.5      31   -153     54    157    167 168.4  18.9  34064  287.96 0855.16
2009/04/23 09:07:57.6      29   -123     36    127    133 166.6  15.8  34064  287.94 0855.16
2009/04/23 09:07:57.7      46    -97     22    108    111 154.5  11.6  34066  287.98 0855.16
2009/04/23 09:07:57.8      59    -91     21    109    112 146.6  11.1  34066  287.98 0855.16
2009/04/23 09:07:57.9      54    -95      2    110    111 150.1   1.2  34066  287.98 0855.16
2009/04/23 09:07:58.0      30    -96     16    101    103 162.6   9.0  34066  287.98 0855.15
2009/04/23 09:07:58.1     -14   -120     22    121    124 187.1  10.6  34066  287.98 0855.15
2009/04/23 09:07:58.2       0    -89     44     90    100 180.5  27.8  34064  287.94 0855.15
2009/04/23 09:07:58.3       1    -74     41     75     85 179.1  31.4  34066  287.98 0855.15
2009/04/23 09:07:58.4      -1    -80     48     81     94 180.9  34.0  34066  287.98 0855.15
2009/04/23 09:07:58.5       0    -83     39     84     92 180.4  26.6  34066  287.99 0855.15
2009/04/23 09:07:58.6       0    -83     27     84     89 180.0  17.9  34066  287.99 0855.15
2009/04/23 09:07:58.7       0    -82     34     83     89 180.4  23.0  34064  287.94 0855.15
2009/04/23 09:07:58.8      -5   -109     69    110    129 182.7  35.5  34062  287.92 0855.15
2009/04/23 09:07:58.9      16   -114     62    116    131 172.0  30.3  34066  287.98 0855.15
2009/04/23 09:07:59.0      36   -134     58    139    150 164.9  23.6  34062  287.92 0855.15
2009/04/23 09:07:59.1      12   -118     88    119    148 174.2  39.7  34064  287.96 0855.15
2009/04/23 09:07:59.2     -32    -99     80    105    132 198.3  41.6  34066  287.98 0855.15
2009/04/23 09:07:59.3     -61    -96     39    114    121 212.5  18.9  34066  287.98 0855.15
2009/04/23 09:07:59.4     -70   -110      4    131    132 212.6   1.8  34062  287.91 0855.15
2009/04/23 09:07:59.5    -100    -97     -7    140    141 226.0  -3.2  34062  287.91 0855.15
2009/04/23 09:07:59.6     -42    -95     20    105    107 204.1  11.0  34062  287.91 0855.15
2009/04/23 09:07:59.7     -30    -64      7     72     73 205.5   5.9  34062  287.91 0855.15
2009/04/23 09:07:59.8     -26    -78    -16     83     85 198.5 -11.3  34060  287.89 0855.15
2009/04/23 09:07:59.9      54    -17     63     57     84 108.2  52.7  34064  287.94 0855.15
2009/04/23 09:08:00.0      57    -10     70     58     90 100.6  56.3  34066  287.99 0855.15
2009/04/23 09:08:00.1      50      0     89     51    102  90.0  67.7  34068  288.01 0855.15
2009/04/23 09:08:00.2      19      4     64     20     67  76.7  80.7  34070  288.04 0855.15
2009/04/23 09:08:00.3      15    -16     72     22     75 136.8  80.7  34070  288.06 0855.15
2009/04/23 09:08:00.4      -1    -76    102     77    127 181.0  58.5  34066  287.98 0855.15
2009/04/23 09:08:00.5     -31    -94     84    100    130 198.3  43.8  34062  287.92 0855.15
2009/04/23 09:08:00.6    -102    -53     17    116    118 242.5   8.5  34062  287.92 0855.15
2009/04/23 09:08:00.7    -147    -16      7    148    149 263.8   2.9  34066  287.98 0855.15
2009/04/23 09:08:00.8    -142     10    -18    143    145 274.4  -7.3  34064  287.94 0855.15
2009/04/23 09:08:00.9    -108     -3    -28    109    113 268.3 -14.5  34062  287.92 0855.15
2009/04/23 09:08:01.0      -5    -15     90     16     91 198.3  90.0  34068  288.01 0855.14
2009/04/23 09:08:01.1     -32    -32     88     46     99 225.0  69.8  34066  287.99 0855.14
2009/04/23 09:08:01.2     -58    -41     81     72    108 234.9  53.7  34068  288.01 0855.14
2009/04/23 09:08:01.3     -30    -24     67     39     77 230.5  66.8  34066  287.99 0855.14
2009/04/23 09:08:01.4     -16    -39     48     43     64 202.7  52.2  34066  287.99 0855.14
2009/04/23 09:08:01.5      24    -15     51     29     58 122.5  66.8  34066  287.98 0855.14
2009/04/23 09:08:01.6      -1    -22     67     23     70 182.7  81.2  34062  287.92 0855.14
2009/04/23 09:08:01.7     -12    -59     77     61     98 191.5  56.9  34066  287.99 0855.14
2009/04/23 09:08:01.8      -5    -67     92     68    114 184.4  60.5  34066  287.98 0855.14
2009/04/23 09:08:01.9      19    -20     60     28     66 136.6  73.1  34068  288.03 0855.14
2009/04/23 09:08:02.0      25     34     31     43     53  36.1  39.7  34070  288.06 0855.14
2009/04/23 09:08:02.1      -4    -12     38     13     40 198.3  81.0  34064  287.96 0855.14
2009/04/23 09:08:02.2      14     -2     49     15     51 101.5  81.8  34064  287.96 0855.14
2009/04/23 09:08:02.3      -1     24     40     25     47 357.3  64.7  34068  288.01 0855.14
2009/04/23 09:08:02.4       0      7     46      8     46 357.3  90.0  34072  288.08 0855.14
2009/04/23 09:08:02.5      17      1     49     18     52  85.6  80.2  34068  288.03 0855.14
2009/04/23 09:08:02.6      -6    -31     70     32     76 191.6  73.1  34072  288.08 0855.14
2009/04/23 09:08:02.7     -12      0     65     13     66 274.4  89.0  34076  288.14 0855.14
2009/04/23 09:08:02.8     -21     11     67     24     71 298.9  81.2  34074  288.11 0855.14
2009/04/23 09:08:02.9     -23    -26     98     35    104 221.4  80.7  34068  288.03 0855.14
2009/04/23 09:08:03.0     -49     -3     87     50    100 266.5  67.7  34068  288.01 0855.13
2009/04/23 09:08:03.1     -80     32     57     87    104 291.7  36.0  34066  287.99 0855.13
2009/04/23 09:08:03.2     -56     46     32     73     79 309.5  24.6  34064  287.96 0855.13
2009/04/23 09:08:03.3     -40     54     35     68     76 323.9  29.3  34066  287.99 0855.13
2009/04/23 09:08:03.4      -1     69     29     70     75 359.1  23.1  34068  288.01 0855.13
2009/04/23 09:08:03.5      20     49     48     54     72  22.7  46.9  34068  288.01 0855.13
2009/04/23 09:08:03.6      34     20     34     40     52  58.5  44.8  34068  288.03 0855.13
2009/04/23 09:08:03.7       9     16     23     19     29  29.0  56.4  34070  288.04 0855.13
2009/04/23 09:08:03.8      53    -33     49     63     79 122.4  42.2  34066  287.99 0855.13
2009/04/23 09:08:03.9      41    -33     40     53     66 128.6  40.7  34068  288.01 0855.13
2009/04/23 09:08:04.0      24    -24     40     34     52 134.9  55.4  34068  288.01 0855.13
2009/04/23 09:08:04.1      12     -8     20     15     25 122.4  60.5  34068  288.03 0855.13
2009/04/23 09:08:04.2     -11      7     20     14     24 302.4  60.5  34074  288.13 0855.13
2009/04/23 09:08:04.3     -21    -17     25     28     37 230.5  47.9  34072  288.08 0855.13
2009/04/23 09:08:04.4       0      0     28      1     28 189.7  90.0  34072  288.08 0855.13
2009/04/23 09:08:04.5      24      8     19     26     32  71.6  39.7  34070  288.06 0855.13
2009/04/23 09:08:04.6       2      3     49      4     49  32.5  90.0  34070  288.06 0855.13
2009/04/23 09:08:04.7       0    -21     46     22     51 180.9  72.9  34072  288.08 0855.13
2009/04/23 09:08:04.8      -1    -30     53     31     61 182.6  66.8  34070  288.06 0855.13
2009/04/23 09:08:04.9      -4    -54     42     55     69 184.4  42.7  34066  287.98 0855.13
2009/04/23 09:08:05.0       0    -42     44     43     61 180.0  50.1  34068  288.01 0855.13
2009/04/23 09:08:05.1       0    -40     41     41     57 179.1  50.1  34066  287.99 0855.13
2009/04/23 09:08:05.2       0    -42     37     43     56 180.0  45.8  34068  288.03 0855.13
2009/04/23 09:08:05.3       0    -29     40     30     50 180.9  58.5  34070  288.06 0855.13
2009/04/23 09:08:05.4      -3    -30     35     31     46 186.2  53.3  34068  288.01 0855.13
2009/04/23 09:08:05.5      -6    -19     32     21     38 198.5  64.6  34068  288.01 0855.13
2009/04/23 09:08:05.6       0    -13     27     14     30 182.7  70.8  34070  288.06 0855.13
2009/04/23 09:08:05.7     -12    -21     27     25     36 209.0  50.1  34070  288.04 0855.13
2009/04/23 09:08:05.8      -4    -28     34     29     44 189.8  54.3  34068  288.01 0855.13
2009/04/23 09:08:05.9      -5    -34     32     35     47 189.8  47.9  34068  288.03 0855.13
2009/04/23 09:08:06.0     -29    -34     31     46     55 220.5  35.6  34070  288.06 0855.13
2009/04/23 09:08:06.1     -32    -36     26     49     55 221.4  30.3  34068  288.03 0855.13
2009/04/23 09:08:06.2     -22    -47     44     53     68 205.5  43.8  34068  288.01 0855.13
2009/04/23 09:08:06.3     -38    -52     64     65     91 216.0  50.0  34070  288.06 0855.13
2009/04/23 09:08:06.4     -71    -33     60     79     99 244.6  40.7  34070  288.06 0855.13
2009/04/23 09:08:06.5     -23    -48     60     54     80 206.3  53.3  34076  288.14 0855.13
2009/04/23 09:08:06.6     -54    -17     63     57     84 251.8  52.7  34070  288.06 0855.13
2009/04/23 09:08:06.7     -78    -15     73     80    108 258.5  47.5  34076  288.14 0855.13
2009/04/23 09:08:06.8     -71     -5     59     72     93 265.7  43.7  34074  288.13 0855.13
2009/04/23 09:08:06.9     -66     -5     64     67     92 265.7  49.0  34086  288.31 0855.13
2009/04/23 09:08:07.0     -49     -3     67     50     83 266.5  59.4  34080  288.21 0855.13
2009/04/23 09:08:07.1     -29     -5     52     30     60 258.5  67.7  34076  288.14 0855.13
2009/04/23 09:08:07.2     -42    -14     46     45     64 250.9  49.1  34082  288.25 0855.13
2009/04/23 09:08:07.3     -50    -37     54     63     82 233.1  45.4  34080  288.21 0855.13
2009/04/23 09:08:07.4     -82    -53     41     98    106 237.1  23.6  34078  288.20 0855.13
2009/04/23 09:08:07.5     -58    -68     33     90     95 220.5  20.4  34072  288.09 0855.13
2009/04/23 09:08:07.6     -51    -73     20     90     93 215.2  12.6  34074  288.11 0855.13
2009/04/23 09:08:07.7      28    -18     65     34     73 122.5  70.8  34076  288.16 0855.13
2009/04/23 09:08:07.8       0    -38     47     39     61 180.9  56.3  34072  288.09 0855.13
2009/04/23 09:08:07.9       6    -92     45     93    103 176.0  27.3  34066  287.99 0855.13
2009/04/23 09:08:08.0     -18   -103     63    105    122 190.2  33.5  34068  288.01 0855.13
2009/04/23 09:08:08.1     -19    -98     78    100    126 191.1  41.7  34068  288.03 0855.13
2009/04/23 09:08:08.2      -1   -124     90    125    154 180.9  39.5  34068  288.01 0855.13
2009/04/23 09:08:08.3      -9   -114    117    115    164 184.9  50.1  34064  287.94 0855.13
2009/04/23 09:08:08.4      -1    -99    119    100    155 180.9  56.3  34066  287.99 0855.13
2009/04/23 09:08:08.5       3   -117    111    118    162 178.2  48.2  34070  288.06 0855.13
2009/04/23 09:08:08.6     -17   -127    121    129    176 187.6  48.0  34066  287.98 0855.13
2009/04/23 09:08:08.7     -17   -122    123    124    174 188.1  50.5  34066  287.98 0855.13
2009/04/23 09:08:08.8      -7   -108    117    109    159 184.0  52.2  34066  287.99 0855.13
2009/04/23 09:08:08.9       8   -110    114    111    159 175.5  50.7  34066  287.98 0855.13
2009/04/23 09:08:09.0       0   -122    101    123    159 180.0  43.7  34066  287.99 0855.13
2009/04/23 09:08:09.1       9   -122     65    123    139 175.6  30.3  34064  287.96 0855.13
2009/04/23 09:08:09.2     -13   -134     60    135    147 185.8  25.2  34066  287.98 0855.13
2009/04/23 09:08:09.3     -14   -160     59    161    171 185.3  21.0  34064  287.94 0855.13
2009/04/23 09:08:09.4     -21   -151     54    153    163 188.0  19.4  34064  287.94 0855.13
2009/04/23 09:08:09.5      -8   -141     58    142    153 183.6  23.1  34062  287.92 0855.13
2009/04/23 09:08:09.6     -11   -149     59    150    161 184.4  22.5  34066  287.99 0855.13
2009/04/23 09:08:09.7     -48   -142     56    150    160 198.7  21.3  34066  287.98 0855.13
2009/04/23 09:08:09.8     -34   -145     64    149    162 193.3  24.6  34066  287.99 0855.13
2009/04/23 09:08:09.9     -24   -118     65    121    137 191.6  30.8  34066  287.98 0855.13
2009/04/23 09:08:10.0     -27   -101     80    105    132 195.1  41.6  34066  287.99 0855.13
2009/04/23 09:08:10.1      -3    -97     92     98    134 181.8  48.5  34066  287.98 0855.13
2009/04/23 09:08:10.2     -19    -71     62     74     96 195.2  44.3  34068  288.01 0855.13
2009/04/23 09:08:10.3      22    -40     55     46     71 151.0  56.3  34066  287.98 0855.13
2009/04/23 09:08:10.4      54    -42     51     69     85 127.8  40.1  34068  288.03 0855.13
2009/04/23 09:08:10.5      47    -71     57     86    103 146.2  36.5  34066  287.99 0855.13
2009/04/23 09:08:10.6      25    -64     60     69     91 158.1  45.4  34066  287.98 0855.13
2009/04/23 09:08:10.7      32    -67     64     75     98 154.7  44.8  34066  287.99 0855.13
2009/04/23 09:08:10.8      19    -10     72     22     75 117.1  80.7  34066  287.99 0855.13
2009/04/23 09:08:10.9      -2    -35     71     36     79 184.5  71.4  34070  288.06 0855.13
2009/04/23 09:08:11.0      37    -58     91     70    114 147.4  58.5  34068  288.03 0855.14
2009/04/23 09:08:11.1      27    -96     94    100    137 164.0  48.0  34068  288.01 0855.14
2009/04/23 09:08:11.2      13    -21     81     26     85 147.5  81.2  34070  288.06 0855.14
2009/04/23 09:08:11.3       0     39     61     40     72 359.1  64.6  34072  288.09 0855.14
2009/04/23 09:08:11.4     -12     19     62     23     66 327.5  80.2  34074  288.11 0855.14
2009/04/23 09:08:11.5       9     -3     71     10     71 111.7  90.0  34070  288.06 0855.14
2009/04/23 09:08:11.6      29      8     56     31     64  74.9  68.8  34072  288.09 0855.14
2009/04/23 09:08:11.7      14    -15     52     21     56 136.8  78.2  34074  288.13 0855.14
2009/04/23 09:08:11.8      15    -26     73     31     79 149.3  76.1  34072  288.08 0855.14
2009/04/23 09:08:11.9      -6    -16     73     18     75 201.8  86.9  34072  288.08 0855.14
2009/04/23 09:08:12.0      14     37     62     40     73  21.8  64.6  34074  288.11 0855.14
2009/04/23 09:08:12.1       0    -42     63     43     76 180.9  63.6  34070  288.04 0855.14
2009/04/23 09:08:12.2     -23    -93    146     96    174 194.3  63.9  34068  288.03 0855.14
2009/04/23 09:08:12.3      55    -73     92     92    130 143.0  50.1  34066  287.99 0855.14
2009/04/23 09:08:12.4     114    -41    108    122    162 110.0  46.4  34068  288.01 0855.14
2009/04/23 09:08:12.5     -22    -39     84     46     95 209.9  68.8  34070  288.06 0855.14
2009/04/23 09:08:12.6     -17   -121    153    123    196 188.0  56.9  34068  288.01 0855.14
2009/04/23 09:08:12.7      -6    -86    124     87    151 184.5  61.5  34066  287.99 0855.14
2009/04/23 09:08:12.8      16   -115    114    117    163 172.0  49.4  34068  288.01 0855.14
2009/04/23 09:08:12.9      40   -131     84    138    161 163.1  34.2  34064  287.94 0855.14
2009/04/23 09:08:13.0      43   -127     79    135    156 161.3  33.1  34068  288.01 0855.13
2009/04/23 09:08:13.2      28   -140     69    143    158 168.4  27.8  34066  287.98 0855.13
2009/04/23 09:08:13.2       0   -146     82    147    168 180.0  31.6  34068  288.03 0855.13
2009/04/23 09:08:13.3     -10   -134     86    135    160 184.4  35.5  34068  288.01 0855.13
2009/04/23 09:08:13.4      -1    -98    112     99    149 180.9  54.3  34068  288.03 0855.13
2009/04/23 09:08:13.5      -7   -106    121    107    161 184.0  53.7  34078  288.20 0855.13
2009/04/23 09:08:13.6     -41   -139    150    145    208 196.5  50.9  34070  288.04 0855.13
2009/04/23 09:08:13.7     -25   -128    106    131    168 191.1  43.3  34070  288.06 0855.13
2009/04/23 09:08:13.8      -6   -154     73    155    171 182.2  27.1  34074  288.13 0855.13
2009/04/23 09:08:13.9     -21   -170     80    172    189 187.1  27.1  34072  288.08 0855.13
2009/04/23 09:08:14.0      19   -180    112    182    213 173.8  35.0  34070  288.04 0855.13
2009/04/23 09:08:14.1      18   -196     73    197    210 174.7  21.0  34068  288.03 0855.13
2009/04/23 09:08:14.2     -49   -216     90    222    239 192.9  23.4  34068  288.00 0855.13
2009/04/23 09:08:14.3     -36   -171     75    175    190 192.0  24.6  34070  288.04 0855.13
2009/04/23 09:08:14.4      -8   -173     10    174    175 182.7   3.3  34070  288.04 0855.13
2009/04/23 09:08:14.5      -8   -155     53    156    165 183.1  18.9  34068  288.03 0855.13
2009/04/23 09:08:14.6      10   -130     50    131    140 175.5  21.5  34068  288.03 0855.13
2009/04/23 09:08:14.7     -20   -120      5    122    123 189.7   2.3  34068  288.01 0855.13
2009/04/23 09:08:14.8       7   -109    -33    110    116 176.0 -17.0  34070  288.04 0855.13
2009/04/23 09:08:14.9      20   -102    -17    105    107 168.5  -9.3  34070  288.04 0855.13
2009/04/23 09:08:15.1      51    -93    -21    107    110 151.0 -11.3  34070  288.06 0855.14
2009/04/23 09:08:15.1      73    -88     -6    115    116 140.4  -3.2  34072  288.08 0855.14
2009/04/23 09:08:15.3      83    -76      5    113    114 132.7   2.8  34070  288.04 0855.14
2009/04/23 09:08:15.3      80    -83      5    116    117 135.9   2.9  34068  288.03 0855.14
2009/04/23 09:08:15.4      62    -83     11    104    105 143.0   6.5  34070  288.04 0855.14
2009/04/23 09:08:15.6      46    -86     37     98    104 151.9  21.0  34070  288.06 0855.14
2009/04/23 09:08:15.6      45    -88     44    100    109 152.8  25.7  34068  288.01 0855.14
2009/04/23 09:08:15.8      51    -80     18     95     97 147.5  11.1  34066  287.99 0855.14
2009/04/23 09:08:15.9      38   -103     21    111    114 159.5  11.0  34066  287.99 0855.14
2009/04/23 09:08:16.0      43   -111      6    120    121 158.6   3.3  34068  288.01 0855.14
2009/04/23 09:08:16.1      38   -115     -6    122    123 161.5  -3.1  34068  288.03 0855.14
2009/04/23 09:08:16.2      12   -125     -4    126    127 174.2  -2.2  34068  288.01 0855.14
2009/04/23 09:08:16.3       0   -121     -4    122    123 180.0  -2.2  34068  288.01 0855.14
2009/04/23 09:08:16.4       2   -138     -3    139    140 179.1  -1.3  34068  288.03 0855.14
2009/04/23 09:08:16.5      -6   -145      0    146    147 182.7  -0.3  34068  288.03 0855.14
2009/04/23 09:08:16.6      21   -154     -8    156    157 172.0  -3.1  34070  288.06 0855.14
2009/04/23 09:08:16.7      21   -141    -18    143    145 171.5  -7.2  34072  288.08 0855.14
2009/04/23 09:08:16.8      32   -143     -8    147    148 167.1  -3.1  34070  288.04 0855.14
2009/04/23 09:08:16.9      68   -113      6    133    134 148.8   2.9  34066  287.99 0855.14
2009/04/23 09:08:17.0      70   -111     26    132    135 147.5  11.1  34068  288.01 0855.14
2009/04/23 09:08:17.1      51   -154      7    163    164 161.7   2.8  34068  288.03 0855.14
2009/04/23 09:08:17.2      45   -151     -1    158    159 163.1  -0.7  34068  288.01 0855.14
2009/04/23 09:08:17.3      39   -147      4    153    154 164.9   1.8  34068  288.03 0855.14
2009/04/23 09:08:17.4      36   -151     -5    156    157 166.6  -2.1  34072  288.08 0855.14
2009/04/23 09:08:17.5      56   -118    -11    131    132 154.7  -5.2  34072  288.09 0855.14
2009/04/23 09:08:17.6      62   -130     -5    145    146 154.5  -2.2  34072  288.09 0855.14
2009/04/23 09:08:17.7      59   -144     15    156    157 157.7   5.7  34076  288.14 0855.14
2009/04/23 09:08:17.8      87   -138     52    164    173 147.9  17.7  34080  288.21 0855.14
2009/04/23 09:08:17.9      43   -181     69    187    199 166.6  21.0  34078  288.18 0855.14
2009/04/23 09:08:18.0      51   -193     35    200    204 165.1   9.9  34076  288.14 0855.14
2009/04/23 09:08:18.1      53   -181     84    189    206 163.7  25.3  34078  288.18 0855.14
2009/04/23 09:08:18.2      62   -159     74    171    186 158.6  24.9  34080  288.21 0855.14
2009/04/23 09:08:18.3      61   -194     26    204    206 162.4   7.5  34076  288.16 0855.14
2009/04/23 09:08:18.4      68   -194     11    206    207 160.6   3.3  34072  288.09 0855.14
2009/04/23 09:08:18.5      70   -216     42    228    232 162.0  10.6  34074  288.11 0855.14
2009/04/23 09:08:18.6      92   -218     53    237    243 157.1  12.6  34072  288.07 0855.14
2009/04/23 09:08:18.7      98   -212     58    234    242 155.1  13.9  34072  288.07 0855.14
2009/04/23 09:08:18.8     114   -170     26    205    207 146.2   7.5  34070  288.06 0855.14
2009/04/23 09:08:18.9     113   -180     38    213    217 147.7  10.3  34070  288.06 0855.14
2009/04/23 09:08:19.0     126   -177     11    218    219 144.4   3.1  34072  288.08 0855.14
2009/04/23 09:08:19.1      98   -149     10    179    180 146.8   3.3  34072  288.08 0855.15
2009/04/23 09:08:19.2      80   -173      7    191    192 155.1   2.3  34074  288.11 0855.15
2009/04/23 09:08:19.3      43   -156      2    162    163 164.6   0.8  34072  288.09 0855.15
2009/04/23 09:08:19.4      52   -160    -18    169    171 162.0  -6.2  34072  288.09 0855.15
2009/04/23 09:08:19.5      73   -181    -46    196    202 157.9 -13.2  34076  288.14 0855.15
2009/04/23 09:08:19.6      75   -183    -64    198    209 157.7 -17.9  34072  288.09 0855.15
2009/04/23 09:08:19.7     110   -161    -55    196    204 145.7 -15.8  34068  288.03 0855.15
2009/04/23 09:08:19.8      95   -130    -55    162    172 143.9 -18.9  34074  288.11 0855.15
2009/04/23 09:08:19.9     138   -152      5    206    207 137.9   1.6  34076  288.16 0855.15
2009/04/23 09:08:20.0     116   -162    -61    200    210 144.4 -17.0  34074  288.13 0855.15
2009/04/23 09:08:20.1     127   -169    -27    212    214 143.0  -7.3  34074  288.11 0855.15
2009/04/23 09:08:20.2      86   -185     25    204    206 155.1   7.1  34074  288.13 0855.15
2009/04/23 09:08:20.3      68   -228    -28    239    241 163.3  -6.9  34076  288.15 0855.15
2009/04/23 09:08:20.4      47   -233    -15    238    239 168.4  -3.7  34076  288.15 0855.15
2009/04/23 09:08:20.5      62   -245     16    253    254 165.7   3.8  34074  288.10 0855.15
2009/04/23 09:08:20.6      56   -237     -1    244    245 166.6  -0.3  34074  288.10 0855.15
2009/04/23 09:08:20.7      78   -235     28    248    250 161.5   6.5  34076  288.14 0855.15
2009/04/23 09:08:20.8      89   -232      3    249    250 158.8   0.8  34076  288.14 0855.15
2009/04/23 09:08:20.9      71   -199    -20    212    214 160.4  -5.6  34074  288.13 0855.15
2009/04/23 09:08:21.0     100   -181     52    207    214 151.1  14.3  34076  288.14 0855.15
2009/04/23 09:08:21.1      99   -156     67    185    196 147.5  21.0  34074  288.13 0855.15
2009/04/23 09:08:21.2     116   -160     70    198    210 144.0  20.0  34076  288.16 0855.15
2009/04/23 09:08:21.3     139   -192     99    238    257 144.0  23.8  34076  288.14 0855.15
2009/04/23 09:08:21.4     158   -204     55    259    265 142.2  12.1  34074  288.12 0855.15
2009/04/23 09:08:21.5     126   -195     58    233    241 147.0  14.2  34074  288.12 0855.15
2009/04/23 09:08:21.6     113   -221     -7    249    250 152.8  -1.6  34074  288.12 0855.15
2009/04/23 09:08:21.7      50   -199     98    206    228 165.7  27.3  34076  288.14 0855.15
2009/04/23 09:08:21.8      43   -166    101    172    199 165.3  33.1  34078  288.20 0855.15
2009/04/23 09:08:21.9      78   -164     18    182    183 154.4   5.9  34076  288.16 0855.15
2009/04/23 09:08:22.0      95   -172     32    197    200 151.0   9.3  34076  288.14 0855.15
2009/04/23 09:08:22.1      85   -133     82    158    178 147.4  29.8  34076  288.14 0855.14
2009/04/23 09:08:22.2      68   -111    133    131    186 148.4  50.4  34076  288.16 0855.14
2009/04/23 09:08:22.3      14   -100     48    102    112 171.9  27.1  34078  288.18 0855.14
2009/04/23 09:08:22.4       8   -108     -7    109    110 175.5  -4.1  34080  288.23 0855.14
2009/04/23 09:08:22.5      22   -108    -24    111    114 168.5 -12.4  34076  288.16 0855.14
2009/04/23 09:08:22.6      15   -101    -29    103    108 171.1 -16.0  34078  288.18 0855.14
2009/04/23 09:08:22.7      11   -118    -37    119    125 174.7 -17.6  34076  288.16 0855.14
2009/04/23 09:08:22.8      17   -103    -17    105    107 170.7  -9.3  34078  288.18 0855.14
2009/04/23 09:08:22.9      10    -92    -16     93     95 173.8  -9.8  34076  288.16 0855.14
2009/04/23 09:08:23.0      -5    -94     -9     95     96 183.1  -5.6  34078  288.20 0855.14
2009/04/23 09:08:23.1     -43   -122     30    130    134 199.6  13.1  34078  288.20 0855.14
2009/04/23 09:08:23.2     -45   -112     -2    121    122 201.9  -1.3  34078  288.18 0855.14
2009/04/23 09:08:23.3     -88   -100      4    134    135 221.4   1.8  34078  288.20 0855.14
2009/04/23 09:08:23.4     -57    -41    -39     71     81 234.0 -35.8  34076  288.16 0855.14
2009/04/23 09:08:23.5     -51    -78    -48     94    105 213.4 -33.7  34076  288.16 0855.14
2009/04/23 09:08:23.6      -7    -94    -76     95    121 184.5 -47.1  34080  288.23 0855.14
2009/04/23 09:08:23.7       0   -113    -42    114    121 180.5 -25.4  34078  288.20 0855.14
2009/04/23 09:08:23.8       3   -108      0    109    110 178.2  -0.3  34076  288.16 0855.14
2009/04/23 09:08:23.9      28   -109     -4    113    114 165.3  -2.2  34078  288.20 0855.14
2009/04/23 09:08:24.0      53   -110      6    123    124 154.1   2.9  34080  288.21 0855.14
2009/04/23 09:08:24.1      46    -98     37    109    116 154.6  18.9  34078  288.20 0855.14
2009/04/23 09:08:24.2      61    -96     13    115    116 147.5   6.9  34076  288.16 0855.14
2009/04/23 09:08:24.3      52    -52     14     74     76 135.0  11.1  34080  288.21 0855.14
2009/04/23 09:08:24.4      25    -42     -4     49     50 149.3  -5.2  34078  288.18 0855.14
2009/04/23 09:08:24.5      20    -54     13     58     60 159.1  13.2  34080  288.21 0855.14
2009/04/23 09:08:24.6      36    -63     14     73     75 150.1  11.1  34078  288.18 0855.14
2009/04/23 09:08:24.7      32    -58    -19     67     69 151.0 -20.7  34080  288.21 0855.14
2009/04/23 09:08:24.8      32    -41    -73     53     90 142.2 -64.9  34080  288.21 0855.14
2009/04/23 09:08:24.9      51   -113    -98    125    158 155.5 -46.4  34076  288.16 0855.14
2009/04/23 09:08:25.0      59   -142   -134    155    204 157.3 -50.0  34080  288.23 0855.14
2009/04/23 09:08:25.1      33   -140    -82    144    165 166.6 -36.8  34080  288.23 0855.14
2009/04/23 09:08:25.2      19   -144    -63    146    159 172.4 -29.0  34078  288.20 0855.14
2009/04/23 09:08:25.3      17   -214   -103    215    238 175.3 -31.8  34078  288.18 0855.14
2009/04/23 09:08:25.4      44   -134    -91    142    168 161.5 -40.0  34078  288.18 0855.14
2009/04/23 09:08:25.5      95   -123    -77    156    173 142.2 -32.4  34080  288.23 0855.14
2009/04/23 09:08:25.6     107   -157    -60    191    200 145.7 -22.5  34080  288.23 0855.14
2009/04/23 09:08:25.7      83   -183    -61    202    212 155.5 -17.0  34076  288.16 0855.14
2009/04/23 09:08:25.8      56   -168    -53    178    186 161.5 -16.6  34080  288.21 0855.14
2009/04/23 09:08:25.9      75   -179    -55    195    202 157.1 -20.7  34080  288.21 0855.14
2009/04/23 09:08:26.0      91   -150    -41    176    181 148.8 -13.2  34078  288.20 0855.14
2009/04/23 09:08:26.1      97   -157     -3    185    186 148.1  -1.1  34074  288.13 0855.15
2009/04/23 09:08:26.2     107   -151     -5    186    187 144.6  -1.8  34078  288.20 0855.15
2009/04/23 09:08:26.3     114   -136     23    178    180 139.9   7.5  34078  288.18 0855.15
2009/04/23 09:08:26.4     140   -125     52    188    196 131.8  15.6  34078  288.18 0855.15
2009/04/23 09:08:26.5     134    -78     54    156    166 120.2  19.2  34076  288.16 0855.15
2009/04/23 09:08:26.6     130    -61     28    144    147 115.4  11.1  34078  288.20 0855.15
2009/04/23 09:08:26.7     165    -34    -33    169    173 101.9 -11.1  34080  288.21 0855.15
2009/04/23 09:08:26.8     170    -13     -6    171    172  94.4  -2.2  34078  288.18 0855.15
2009/04/23 09:08:26.9     146      7     17    147    149  87.0   6.9  34076  288.16 0855.15
2009/04/23 09:08:27.0     163    -16      2    164    165  95.9   0.8  34076  288.14 0855.15
2009/04/23 09:08:27.1     217    -32     43    220    225  98.4  11.1  34076  288.14 0855.15
2009/04/23 09:08:27.2     167    -15     50    168    176  95.5  16.8  34078  288.18 0855.15
2009/04/23 09:08:27.3     172      0     24    173    175  90.1   8.0  34078  288.18 0855.15
2009/04/23 09:08:27.4     128     31     -1    132    133  76.3  -0.7  34078  288.18 0855.15
2009/04/23 09:08:27.5     133     48      3    142    143  70.1   1.2  34076  288.16 0855.15
2009/04/23 09:08:27.6     130     14      1    131    132  83.8   0.8  34078  288.18 0855.15
2009/04/23 09:08:27.7     100     47    -36    111    117  64.6 -18.1  34078  288.18 0855.15
2009/04/23 09:08:27.8     104     33     10    110    111  72.3   5.4  34078  288.20 0855.15
2009/04/23 09:08:27.9     119    -32     65    124    140 105.1  29.8  34080  288.21 0855.15
2009/04/23 09:08:28.0     123    -34    112    128    170 105.5  45.6  34082  288.26 0855.15
2009/04/23 09:08:28.1      93    -82     97    125    158 131.3  41.7  34084  288.30 0855.15
2009/04/23 09:08:28.2      69    -43     90     82    121 122.4  52.7  34084  288.30 0855.15
2009/04/23 09:08:28.3      39    -21     99     45    108 118.9  73.5  34080  288.23 0855.15
2009/04/23 09:08:28.4      19     34     80     40     89  29.0  71.9  34084  288.28 0855.15
2009/04/23 09:08:28.5      55     26    110     61    125  64.7  68.8  34084  288.28 0855.15
2009/04/23 09:08:28.6     -24    -30     76     39     85 219.6  70.8  34090  288.38 0855.15
2009/04/23 09:08:28.7      49    -78     83     93    124 147.9  46.4  34080  288.23 0855.15
2009/04/23 09:08:28.8      27   -161    121    164    203 170.4  39.9  34080  288.21 0855.15
2009/04/23 09:08:28.9      53   -159     89    168    190 161.3  30.1  34076  288.14 0855.15
2009/04/23 09:08:29.0      67   -107    118    127    173 147.9  47.9  34078  288.20 0855.15
2009/04/23 09:08:29.1      34    -90    115     97    150 159.1  56.3  34080  288.21 0855.15
2009/04/23 09:08:29.2     157   -102    143    188    236 122.9  41.2  34080  288.21 0855.15
2009/04/23 09:08:29.3     235   -111    172    261    312 115.3  36.5  34076  288.15 0855.15
2009/04/23 09:08:29.4     257   -138    171    292    338 118.2  33.0  34080  288.22 0855.15
2009/04/23 09:08:29.5     299   -187     99    353    367 122.0  15.7  34078  288.18 0855.15
2009/04/23 09:08:29.6     227   -270    135    353    377 139.9  22.0  34078  288.20 0855.15
2009/04/23 09:08:29.7     216   -297    176    368    407 143.9  27.3  34082  288.25 0855.15
2009/04/23 09:08:29.8     228   -270    100    354    368 139.8  15.8  34080  288.23 0855.15
2009/04/23 09:08:29.9     153   -290     66    329    336 152.1  11.4  34082  288.25 0855.15
2009/04/23 09:08:30.0     143   -268     66    304    312 151.9  12.4  34078  288.19 0855.15
2009/04/23 09:08:30.1     180   -275    110    329    348 146.8  18.6  34082  288.25 0855.14
2009/04/23 09:08:30.2     164   -227    173    281    329 144.2  34.8  34082  288.24 0855.14
2009/04/23 09:08:30.3     146   -139     59    202    211 133.6  16.3  34078  288.18 0855.14
2009/04/23 09:08:30.4      76   -151    -83    170    189 153.3 -31.8  34082  288.25 0855.14
2009/04/23 09:08:30.5      76   -165    -63    182    192 155.3 -23.6  34080  288.23 0855.14
2009/04/23 09:08:30.6      38   -219    -66    223    233 170.0 -16.6  34080  288.23 0855.14
2009/04/23 09:08:30.7      60   -175    -24    186    188 161.1  -7.5  34080  288.23 0855.14
2009/04/23 09:08:30.8      65   -215    -32    225    228 163.0  -8.2  34078  288.20 0855.14
2009/04/23 09:08:30.9      51   -191    -18    198    199 164.9  -5.4  34082  288.26 0855.14
2009/04/23 09:08:31.0      88   -172      9    194    195 152.8   2.8  34082  288.25 0855.14
2009/04/23 09:08:31.1     138   -113      9    179    180 129.5   2.9  34082  288.25 0855.14
2009/04/23 09:08:31.2     110   -135      0    175    176 140.8   0.0  34082  288.25 0855.14
2009/04/23 09:08:31.3      47   -144     57    152    162 161.7  21.3  34082  288.25 0855.14
2009/04/23 09:08:31.4       4   -159     66    160    173 178.2  23.6  34082  288.26 0855.14
2009/04/23 09:08:31.5       0   -181      1    182    183 180.2   0.5  34082  288.25 0855.14
2009/04/23 09:08:31.6      32   -159     -7    163    164 168.7  -2.8  34082  288.25 0855.14
2009/04/23 09:08:31.7       9   -149     29    150    153 176.4  11.0  34082  288.25 0855.14
2009/04/23 09:08:31.8      71   -128    -38    147    152 151.1 -14.7  34080  288.23 0855.14
2009/04/23 09:08:31.9      63   -116    -41    132    138 151.5 -21.8  34080  288.21 0855.14
2009/04/23 09:08:32.0      52    -94    -38    108    114 151.1 -23.3  34080  288.23 0855.14
2009/04/23 09:08:32.1      74   -116     -9    138    139 147.4  -3.7  34080  288.23 0855.15
2009/04/23 09:08:32.2      94   -107     -2    143    144 138.6  -1.2  34080  288.21 0855.15
2009/04/23 09:08:32.3      72   -130     -1    149    150 151.0  -0.7  34080  288.21 0855.15
2009/04/23 09:08:32.4      43   -137    -15    144    145 162.6  -6.2  34078  288.20 0855.15
2009/04/23 09:08:32.5      19   -135    -17    137    139 172.0  -7.3  34078  288.20 0855.15
2009/04/23 09:08:32.6      41   -123      6    130    131 161.5   2.8  34078  288.20 0855.15
2009/04/23 09:08:32.7      69   -125     39    143    149 151.0  15.3  34080  288.21 0855.15
2009/04/23 09:08:32.8      80   -122     44    147    154 146.6  16.8  34078  288.20 0855.15
2009/04/23 09:08:32.9     110   -130     43    171    177 139.9  14.3  34082  288.25 0855.15
2009/04/23 09:08:33.0     141   -170     47    222    227 140.4  12.0  34076  288.16 0855.15
2009/04/23 09:08:33.1     160   -150     79    220    233 133.2  20.2  34082  288.26 0855.15
2009/04/23 09:08:33.2     188   -188     83    267    280 135.0  17.3  34084  288.27 0855.15
2009/04/23 09:08:33.3     200   -174     42    266    270 131.1   9.0  34082  288.24 0855.15
2009/04/23 09:08:33.4     128   -189     17    229    230 145.7   4.4  34082  288.25 0855.15
2009/04/23 09:08:33.5     116   -190     79    223    236 148.6  20.2  34078  288.18 0855.15
2009/04/23 09:08:33.6     185   -179     91    258    274 134.0  19.6  34082  288.24 0855.15
2009/04/23 09:08:33.7     218   -204    106    299    317 133.1  20.2  34082  288.24 0855.15
2009/04/23 09:08:33.8     197   -242     85    313    325 140.8  15.3  34082  288.26 0855.15
2009/04/23 09:08:33.9     143   -263     25    300    302 151.5   4.9  34080  288.22 0855.15
2009/04/23 09:08:34.0      87   -295     15    308    309 163.5   2.8  34082  288.26 0855.15
2009/04/23 09:08:34.1     110   -304    -22    324    325 160.0  -4.0  34080  288.21 0855.15
2009/04/23 09:08:34.2      86   -309    -10    321    322 164.4  -1.8  34082  288.24 0855.15
2009/04/23 09:08:34.3     156   -288     30    328    330 151.5   5.3  34084  288.27 0855.15
2009/04/23 09:08:34.4     192   -247     51    314    319 142.1   9.3  34082  288.26 0855.15
2009/04/23 09:08:34.5     225   -212     32    310    312 133.2   5.9  34082  288.26 0855.15
2009/04/23 09:08:34.6     211   -191     -1    285    286 132.2  -0.3  34082  288.26 0855.15
2009/04/23 09:08:34.7     191   -223    -58    294    300 139.4 -11.3  34076  288.14 0855.15
2009/04/23 09:08:34.8      88   -185    -50    206    213 154.5 -13.7  34080  288.23 0855.15
2009/04/23 09:08:34.9      85   -173    -38    194    198 153.7 -11.3  34078  288.18 0855.15
2009/04/23 09:08:35.0      95   -165    -38    191    195 149.9 -11.3  34082  288.25 0855.15
2009/04/23 09:08:35.1     100   -162    -39    191    196 148.4 -11.6  34082  288.25 0855.15
2009/04/23 09:08:35.2      97   -144    -53    174    182 145.9 -17.0  34082  288.25 0855.15
2009/04/23 09:08:35.3      95   -151    -46    179    185 147.7 -14.5  34080  288.23 0855.15
2009/04/23 09:08:35.4     100   -123      2    159    160 140.8   1.0  34082  288.25 0855.15
2009/04/23 09:08:35.5      63   -228     28    237    239 164.4   6.9  34080  288.21 0855.15
2009/04/23 09:08:35.6      69   -227     29    238    240 163.0   7.1  34082  288.24 0855.15
2009/04/23 09:08:35.7      23   -216     17    218    219 173.8   4.6  34080  288.21 0855.15
2009/04/23 09:08:35.8      29   -287     19    289    290 174.2   3.8  34080  288.22 0855.15
2009/04/23 09:08:35.9       6   -283    -45    284    288 178.6  -9.0  34080  288.22 0855.15
2009/04/23 09:08:36.0     -31   -312    -95    314    329 185.8 -16.9  34078  288.17 0855.15
2009/04/23 09:08:36.1     -17   -336    -38    337    340 183.0  -6.6  34082  288.25 0855.15
2009/04/23 09:08:36.2     -95   -311    -48    326    330 197.0  -8.4  34082  288.24 0855.15
2009/04/23 09:08:36.3     -60   -316    -58    322    328 190.9 -10.3  34080  288.21 0855.15
2009/04/23 09:08:36.4     -67   -279    -89    288    301 193.6 -22.3  34078  288.17 0855.15
2009/04/23 09:08:36.5    -179   -279   -119    332    352 212.8 -25.0  34080  288.23 0855.15
2009/04/23 09:08:36.6    -146   -182   -106    234    256 218.7 -30.6  34082  288.26 0855.15
2009/04/23 09:08:36.7    -161   -156    -80    225    238 225.8 -24.6  34084  288.27 0855.15
2009/04/23 09:08:36.8    -189   -239    -84    305    317 218.3 -15.4  34080  288.22 0855.15
2009/04/23 09:08:36.9    -181   -258    -86    316    327 215.1 -20.0  34080  288.22 0855.15
2009/04/23 09:08:37.0    -176   -272    -90    325    338 213.0 -15.5  34080  288.23 0855.15
2009/04/23 09:08:37.1    -113   -354   -115    372    389 197.8 -22.2  34084  288.27 0855.15
2009/04/23 09:08:37.2     -40   -339   -124    342    363 186.8 -25.3  34080  288.23 0855.15
2009/04/23 09:08:37.3     -49   -276   -139    281    313 190.2 -32.8  34080  288.21 0855.15
2009/04/23 09:08:37.4    -178   -273   -113    327    345 213.1 -24.0  34082  288.25 0855.15
2009/04/23 09:08:37.5    -166   -274    -99    321    337 211.2 -17.2  34080  288.23 0855.15
2009/04/23 09:08:37.6    -144   -249   -102    288    306 210.1 -19.6  34082  288.24 0855.15
2009/04/23 09:08:37.7    -135   -244   -107    280    299 209.0 -26.4  34082  288.26 0855.15
2009/04/23 09:08:37.8    -106   -253   -119    275    299 202.7 -29.5  34080  288.22 0855.15
2009/04/23 09:08:37.9     -97   -250   -134    269    300 201.2 -32.6  34084  288.29 0855.15
2009/04/23 09:08:38.0     -93   -214   -147    234    276 203.4 -39.6  34084  288.27 0855.15
2009/04/23 09:08:38.1     -75   -262    -95    273    289 196.0 -24.3  34080  288.22 0855.15
2009/04/23 09:08:38.2     -47   -258    -96    263    279 190.5 -25.3  34082  288.24 0855.15
2009/04/23 09:08:38.3     -63   -234    -74    243    254 195.1 -21.8  34078  288.19 0855.15
2009/04/23 09:08:38.4     -64   -214    -94    224    242 196.7 -28.5  34084  288.27 0855.15
2009/04/23 09:08:38.5     -92   -221    -99    240    259 202.7 -28.0  34086  288.31 0855.15
2009/04/23 09:08:38.6    -101   -222   -115    245    270 204.5 -31.5  34082  288.24 0855.15
2009/04/23 09:08:38.7    -124   -193   -100    230    250 212.7 -29.5  34082  288.26 0855.15
2009/04/23 09:08:38.8    -106   -165   -103    197    222 212.7 -34.5  34080  288.21 0855.15
2009/04/23 09:08:38.9     -37   -206    -63    210    220 190.2 -16.8  34082  288.25 0855.15
2009/04/23 09:08:39.0     -47   -210    -71    216    228 192.7 -18.3  34080  288.23 0855.15
2009/04/23 09:08:39.1     -77   -230    -91    243    259 198.7 -25.9  34082  288.26 0855.15
2009/04/23 09:08:39.2    -135   -167    -82    216    231 219.0 -26.1  34082  288.26 0855.15
2009/04/23 09:08:39.3    -115   -160   -103    198    223 215.6 -33.9  34080  288.23 0855.15
2009/04/23 09:08:39.4     -78   -123   -123    147    191 212.5 -48.5  34078  288.20 0855.15
2009/04/23 09:08:39.5     -64   -151   -110    165    198 202.9 -41.4  34082  288.25 0855.15
2009/04/23 09:08:39.6     -94   -100    -97    138    168 223.2 -43.0  34082  288.25 0855.15
2009/04/23 09:08:39.7     -67    -79   -115    104    155 220.5 -57.7  34080  288.23 0855.15
2009/04/23 09:08:39.8     -20   -103    -91    106    139 191.1 -49.2  34080  288.23 0855.15
2009/04/23 09:08:39.9     -20    -75    -80     78    111 195.1 -54.5  34084  288.28 0855.15
2009/04/23 09:08:40.0    -104    -34   -105    110    152 251.8 -52.9  34082  288.25 0855.15
2009/04/23 09:08:40.1    -110      0    -93    111    144 270.0 -48.2  34084  288.28 0855.16
2009/04/23 09:08:40.2     -93    -12   -103     94    139 262.1 -56.6  34082  288.26 0855.16
2009/04/23 09:08:40.3     -25    -64   -120     69    138 201.8 -72.1  34084  288.28 0855.16
2009/04/23 09:08:40.4     -47     28    -76     55     93 300.7 -65.5  34084  288.28 0855.16
2009/04/23 09:08:40.5     -69     -4   -128     70    145 266.5 -73.2  34082  288.26 0855.16
2009/04/23 09:08:40.6     -16    -49   -119     52    129 198.3 -79.4  34084  288.28 0855.16
2009/04/23 09:08:40.7     -11    -58    -83     60    102 191.5 -64.9  34082  288.25 0855.16
2009/04/23 09:08:40.8     -18    -54    -74     57     93 198.5 -62.3  34084  288.30 0855.16
2009/04/23 09:08:40.9     -19    -19    -74     27     78 225.1 -85.6  34084  288.30 0855.16
2009/04/23 09:08:41.0      -9     -3    -91     10     91 248.3 -90.0  34084  288.30 0855.16
2009/04/23 09:08:41.1      65     31    -47     73     86  64.6 -40.0  34084  288.28 0855.17
2009/04/23 09:08:41.2      29     11    -72     32     78  68.3 -79.4  34082  288.25 0855.17
2009/04/23 09:08:41.3      20     37    -81     43     91  29.0 -74.2  34082  288.25 0855.17
2009/04/23 09:08:41.4      86     67    -72    110    131  52.2 -40.4  34084  288.28 0855.17
2009/04/23 09:08:41.5      91    -34    -55     98    112 110.4 -35.8  34082  288.26 0855.17
2009/04/23 09:08:41.6     118    -56    -11    131    132 115.3  -5.2  34080  288.23 0855.17
2009/04/23 09:08:41.8      99    -31     58    104    119 107.7  31.4  34078  288.20 0855.17
2009/04/23 09:08:41.9      80      0     94     81    124  90.0  54.3  34082  288.26 0855.17
2009/04/23 09:08:41.9      83      2    123     84    148  88.3  62.6  34084  288.28 0855.17
2009/04/23 09:08:42.1      54     -4    123     55    134  94.3  74.5  34084  288.30 0855.17
2009/04/23 09:08:42.2      79    -14    128     81    151 100.6  64.7  34086  288.33 0855.17
2009/04/23 09:08:42.3     -23    -25     88     35     94 223.2  78.2  34086  288.33 0855.17
2009/04/23 09:08:42.4     139    -76     91    159    183 118.9  32.4  34084  288.28 0855.17
2009/04/23 09:08:42.5     125      0    114    126    169  90.4  46.9  34082  288.25 0855.17
2009/04/23 09:08:42.6     161    -65    137    174    221 112.2  42.2  34082  288.26 0855.17
2009/04/23 09:08:42.7     122    -90    137    152    204 126.4  46.6  34082  288.26 0855.17
2009/04/23 09:08:42.8     138    -62    127    152    198 114.4  44.3  34084  288.30 0855.17
2009/04/23 09:08:42.9      29    -28    110     41    117 134.9  79.2  34084  288.30 0855.17
2009/04/23 09:08:43.0      42    -73     94     85    126 149.7  52.7  34084  288.28 0855.17
2009/04/23 09:08:43.1      36    -24     90     44    100 123.3  72.4  34086  288.31 0855.17
2009/04/23 09:08:43.2      76    -25     93     81    123 108.2  54.3  34084  288.28 0855.17
2009/04/23 09:08:43.3     110    -78    112    136    176 125.5  43.7  34084  288.28 0855.17
2009/04/23 09:08:43.4      83    -80    107    116    157 134.0  47.7  34082  288.26 0855.17
2009/04/23 09:08:43.5      83    -87    100    121    156 136.3  44.1  34082  288.25 0855.17
2009/04/23 09:08:43.6     107    -71     94    129    159 123.7  39.7  34082  288.25 0855.17
2009/04/23 09:08:43.7     106    -74    118    130    175 125.1  47.1  34082  288.25 0855.17
2009/04/23 09:08:43.8      87    -93    103    128    164 136.8  43.0  34082  288.26 0855.17
2009/04/23 09:08:43.9     115    -49    120    126    174 113.1  49.0  34082  288.26 0855.17
2009/04/23 09:08:44.0     128    -42     82    135    157 108.4  34.2  34084  288.28 0855.17
2009/04/23 09:08:44.1     120    -40     82    127    151 108.6  35.6  34082  288.25 0855.17
2009/04/23 09:08:44.2     123    -37     78    129    150 106.8  34.0  34084  288.30 0855.17
2009/04/23 09:08:44.3      93     -4     49     94    106  93.0  29.8  34086  288.31 0855.17
2009/04/23 09:08:44.4      60    -23     27     65     70 110.8  24.1  34082  288.26 0855.17
2009/04/23 09:08:44.5      15    -45     64     48     80 160.8  59.4  34084  288.28 0855.17
2009/04/23 09:08:44.6      32    -67     60     75     96 154.6  43.3  34084  288.28 0855.17
2009/04/23 09:08:44.7      62    -75     60     98    114 140.4  35.5  34084  288.30 0855.17
2009/04/23 09:08:44.8      69    -85     37    110    117 140.8  18.9  34084  288.28 0855.17
2009/04/23 09:08:44.9      65    -91     38    112    119 144.4  18.9  34088  288.35 0855.17
2009/04/23 09:08:45.0      24    -72     41     77     87 161.3  30.3  34084  288.28 0855.17
2009/04/23 09:08:45.1      21    -83     85     86    120 165.7  50.0  34084  288.28 0855.17
2009/04/23 09:08:45.2      28    -92    101     97    140 163.1  51.2  34084  288.30 0855.17
2009/04/23 09:08:45.3      31    -66     85     74    112 154.7  54.8  34086  288.33 0855.17
2009/04/23 09:08:45.4       0    -40     65     41     76 180.9  64.7  34088  288.35 0855.17
2009/04/23 09:08:45.5      10    -52     72     54     90 168.4  59.0  34086  288.31 0855.17
2009/04/23 09:08:45.6       5    -53     77     54     94 174.7  62.1  34086  288.31 0855.17
2009/04/23 09:08:45.7      -2    -29     61     30     67 184.5  72.8  34084  288.30 0855.17
2009/04/23 09:08:45.8      -5    -15     62     16     64 198.7  84.9  34086  288.31 0855.17
2009/04/23 09:08:45.9       0    -46     74     47     87 180.0  64.7  34084  288.30 0855.17
2009/04/23 09:08:46.0      11    -61     95     63    113 169.3  64.1  34086  288.31 0855.17
2009/04/23 09:08:46.1      -5    -70     96     71    119 184.4  60.0  34084  288.30 0855.17
2009/04/23 09:08:46.2     -16   -104    123    106    162 188.9  54.8  34082  288.25 0855.17
2009/04/23 09:08:46.3      -5   -140    116    141    182 182.2  43.7  34086  288.33 0855.17
2009/04/23 09:08:46.4     -18   -121    131    123    179 188.5  52.0  34088  288.35 0855.17
2009/04/23 09:08:46.5      -9   -137    121    138    183 184.0  46.2  34088  288.35 0855.17
2009/04/23 09:08:46.6     -18   -136    108    138    175 187.6  42.2  34090  288.38 0855.17
2009/04/23 09:08:46.7     -33   -144    103    148    180 193.3  38.4  34086  288.33 0855.17
2009/04/23 09:08:46.8     -46   -157    105    164    194 196.3  35.6  34088  288.36 0855.17
2009/04/23 09:08:46.9     -21   -156     93    158    183 188.0  33.5  34086  288.33 0855.17
2009/04/23 09:08:47.0       5   -164     80    165    183 178.0  27.8  34088  288.35 0855.17
2009/04/23 09:08:47.1      15   -166     84    167    186 174.7  28.2  34086  288.33 0855.17
2009/04/23 09:08:47.2      25   -154     72    157    172 170.7  26.4  34084  288.30 0855.17
2009/04/23 09:08:47.3      14   -146    109    147    183 174.2  40.1  34084  288.30 0855.17
2009/04/23 09:08:47.4      34   -170    101    174    201 168.5  32.9  34088  288.35 0855.17
2009/04/23 09:08:47.5      35   -170     90    174    195 168.2  29.3  34088  288.35 0855.17
2009/04/23 09:08:47.6       4   -133    113    134    175 178.2  44.3  34088  288.35 0855.17
2009/04/23 09:08:47.7       3   -136    116    137    179 178.6  44.5  34088  288.35 0855.17
2009/04/23 09:08:47.8      23   -136    102    138    171 170.3  40.4  34088  288.36 0855.17
2009/04/23 09:08:47.9      17   -164     95    165    190 174.0  32.7  34086  288.33 0855.17
2009/04/23 09:08:48.0       6   -149    117    150    190 177.4  42.2  34086  288.31 0855.17
2009/04/23 09:08:48.1       0   -158    109    159    192 180.0  37.6  34086  288.33 0855.17
2009/04/23 09:08:48.2      -2   -158    106    159    191 180.9  36.7  34086  288.31 0855.17
2009/04/23 09:08:48.3     -13   -177    123    178    216 184.2  38.0  34088  288.35 0855.17
2009/04/23 09:08:48.4       1   -199    117    200    231 179.5  33.4  34088  288.36 0855.17
2009/04/23 09:08:48.5      30   -192    132    195    235 170.9  37.6  34092  288.42 0855.17
2009/04/23 09:08:48.6      14   -179    109    180    210 175.5  34.0  34090  288.38 0855.17
2009/04/23 09:08:48.7      32   -171     65    175    186 169.3  21.5  34090  288.38 0855.17
2009/04/23 09:08:48.8      78   -140     79    161    179 151.0  28.0  34090  288.38 0855.17
2009/04/23 09:08:48.9      -1   -149     60    150    161 180.5  23.0  34092  288.42 0855.17
2009/04/23 09:08:49.0      24   -154     73    156    172 171.1  27.0  34090  288.40 0855.17
2009/04/23 09:08:49.1      20   -144     69    146    161 171.9  27.0  34092  288.42 0855.17
2009/04/23 09:08:49.2      25   -170    106    172    202 171.5  35.0  34086  288.31 0855.18
2009/04/23 09:08:49.3      -3   -162     91    163    186 181.1  31.4  34088  288.35 0855.18
2009/04/23 09:08:49.4      20   -147    123    149    193 172.0  43.7  34090  288.38 0855.18
2009/04/23 09:08:49.5      15   -135    118    136    180 173.3  45.6  34092  288.42 0855.18
2009/04/23 09:08:49.6     -10   -150     94    151    177 184.0  35.0  34090  288.38 0855.18
2009/04/23 09:08:49.7     -11   -138     57    139    150 184.9  23.1  34088  288.36 0855.18
2009/04/23 09:08:49.8      10   -129     58    130    142 175.5  25.2  34088  288.36 0855.18
2009/04/23 09:08:49.9      12   -111     67    112    130 173.8  33.5  34086  288.33 0855.18
2009/04/23 09:08:50.0      10   -104     79    105    131 174.2  41.2  34088  288.36 0855.18
2009/04/23 09:08:50.1      16   -117     79    119    142 171.9  36.5  34090  288.40 0855.18
2009/04/23 09:08:50.2      14   -132    119    133    178 173.8  46.9  34090  288.38 0855.18
2009/04/23 09:08:50.3       7   -163     79    164    182 177.3  27.3  34088  288.36 0855.18
2009/04/23 09:08:50.4      88    -81     98    120    154 132.7  43.7  34090  288.40 0855.18
2009/04/23 09:08:50.5     158    -78     93    177    199 116.4  29.8  34088  288.35 0855.18
2009/04/23 09:08:50.6      81   -111     78    138    158 143.9  32.1  34086  288.33 0855.18
2009/04/23 09:08:50.7      55   -133     95    145    173 157.3  36.0  34086  288.33 0855.18
2009/04/23 09:08:50.8      22   -126     97    129    161 169.8  40.9  34090  288.40 0855.18
2009/04/23 09:08:50.9      20   -125    136    127    186 170.7  52.2  34090  288.40 0855.18
2009/04/23 09:08:51.0     -14   -140    115    141    181 185.8  43.7  34090  288.40 0855.18
2009/04/23 09:08:51.1      18    -51     93     55    108 160.8  66.2  34088  288.36 0855.18
2009/04/23 09:08:51.2      -5   -133     89    134    160 182.2  36.7  34090  288.38 0855.18
2009/04/23 09:08:51.3     -51   -141     84    151    172 200.0  31.6  34088  288.35 0855.18
2009/04/23 09:08:51.4     -38   -167     61    172    182 192.9  20.0  34088  288.35 0855.18
2009/04/23 09:08:51.5     -17   -121     67    123    140 188.0  31.3  34090  288.38 0855.18
2009/04/23 09:08:51.6       2    -94     37     95    101 178.2  22.5  34090  288.40 0855.18
2009/04/23 09:08:51.7      36    -23     60     43     73 122.4  60.5  34088  288.35 0855.18
2009/04/23 09:08:51.8      -3    -46     69     47     83 184.5  62.6  34092  288.42 0855.18
2009/04/23 09:08:51.9      23    -68     91     73    116 160.8  56.4  34088  288.35 0855.18
2009/04/23 09:08:52.0      25    -39     74     47     87 147.4  64.7  34090  288.40 0855.18
2009/04/23 09:08:52.1      24     -7     88     26     91 106.8  82.8  34092  288.42 0855.18
2009/04/23 09:08:52.2     124     25     59    127    140  78.5  27.1  34098  288.53 0855.18
2009/04/23 09:08:52.3     101     14     36    102    109  82.1  19.4  34116  288.84 0855.18
2009/04/23 09:08:52.4      76      2     65     77    100  88.3  44.3  34104  288.62 0855.18
2009/04/23 09:08:52.5      27    -21     61     35     70 127.8  67.7  34092  288.42 0855.18
2009/04/23 09:08:52.6      19     19     54     27     60  45.1  71.9  34092  288.43 0855.18
2009/04/23 09:08:52.7      34     17     47     39     61  62.9  56.3  34094  288.47 0855.18
2009/04/23 09:08:52.8      96     15     74     98    122  81.2  41.2  34092  288.42 0855.18
2009/04/23 09:08:52.9     129    -20    108    131    169  98.8  43.7  34090  288.40 0855.18
2009/04/23 09:08:53.0      66    -13     99     68    120 101.5  62.6  34090  288.40 0855.18
2009/04/23 09:08:53.1      78    -23     76     82    111 106.4  47.9  34090  288.40 0855.18
2009/04/23 09:08:53.2      76    -33     44     83     93 113.5  30.3  34092  288.42 0855.18
2009/04/23 09:08:53.3      53    -33     55     63     83 122.4  46.4  34090  288.40 0855.18
2009/04/23 09:08:53.4      22    -47     56     53     77 154.6  51.2  34092  288.42 0855.18
2009/04/23 09:08:53.5      60    -33     69     69     97 118.9  50.1  34092  288.43 0855.18
2009/04/23 09:08:53.6      30    -48     64     57     85 147.5  53.7  34090  288.40 0855.18
2009/04/23 09:08:53.7      56    -71     74     91    117 141.7  43.7  34092  288.42 0855.18
2009/04/23 09:08:53.8      36    -38     69     53     87 136.8  58.5  34090  288.40 0855.18
2009/04/23 09:08:53.9      35    -54     64     65     91 146.6  50.0  34094  288.47 0855.18
2009/04/23 09:08:54.0      90    -38     90     98    133 113.1  47.9  34094  288.45 0855.18
2009/04/23 09:08:54.1      26    -17     59     32     67 124.2  68.9  34094  288.45 0855.18
2009/04/23 09:08:54.2      -2    -21     70     22     73 186.2  80.7  34094  288.45 0855.18
2009/04/23 09:08:54.3      13    -41     71     44     83 162.2  65.7  34094  288.47 0855.18
2009/04/23 09:08:54.4      16    -21     71     27     75 142.2  79.2  34096  288.48 0855.18
2009/04/23 09:08:54.5       0     24     49     25     55   0.9  70.8  34098  288.52 0855.18
2009/04/23 09:08:54.6      -1    -72    106     73    128 180.9  62.6  34094  288.47 0855.18
2009/04/23 09:08:54.7       2      3     82      4     82  32.5  90.0  34096  288.50 0855.18
2009/04/23 09:08:54.8      -8    -67     85     68    108 187.1  56.4  34094  288.47 0855.18
2009/04/23 09:08:54.9      37    -63     89     74    115 149.3  56.3  34092  288.42 0855.18
2009/04/23 09:08:55.0       0     -3     44      4     44 189.7  90.0  34094  288.45 0855.18
2009/04/23 09:08:55.1      -6    -38     77     39     86 189.8  70.8  34092  288.43 0855.18
2009/04/23 09:08:55.2       5    -80     92     81    122 176.4  54.2  34092  288.42 0855.17
2009/04/23 09:08:55.3      26    -28     74     39     83 136.8  70.4  34094  288.45 0855.17
2009/04/23 09:08:55.4      16    -22     57     28     63 143.9  72.8  34094  288.47 0855.17
2009/04/23 09:08:55.5       0    -16     41     17     44 182.7  77.1  34096  288.50 0855.17
2009/04/23 09:08:55.6     -11    -16     55     20     58 216.1  81.2  34096  288.50 0855.17
2009/04/23 09:08:55.7      15      7     57     17     59  64.7  82.8  34094  288.47 0855.17
2009/04/23 09:08:55.8      12      0     65     13     66  94.4  89.0  34094  288.47 0855.17
2009/04/23 09:08:55.9       0      0     64      1     64 189.7  90.0  34092  288.43 0855.17
2009/04/23 09:08:56.0      -7      2     52      8     52 288.6  90.0  34118  288.86 0855.17
2009/04/23 09:08:56.1       5     24     32     25     40  11.6  58.5  34112  288.75 0855.17
2009/04/23 09:08:56.2      38     12     38     40     55  72.3  50.0  34116  288.84 0855.17
2009/04/23 09:08:56.3       4     12     51     13     52  18.3  85.9  34116  288.82 0855.17
2009/04/23 09:08:56.4     -13    -13     46     19     49 223.4  77.1  34118  288.87 0855.17
2009/04/23 09:08:56.5     -16    -29     43     34     54 209.0  57.5  34106  288.65 0855.17
2009/04/23 09:08:56.6      12    -54     60     56     82 167.5  51.6  34094  288.47 0855.17
2009/04/23 09:08:56.7      46    -22     70     52     87 116.2  59.4  34096  288.48 0855.17
2009/04/23 09:08:56.8       0    -44     93     45    103 180.0  72.8  34094  288.45 0855.17
2009/04/23 09:08:56.9       0    -92    101     93    137 180.4  52.2  34094  288.45 0855.17
2009/04/23 09:08:57.0       9    -66    112     67    130 172.0  66.7  34096  288.48 0855.17
2009/04/23 09:08:57.1      -1    -94    100     95    137 180.9  52.1  34094  288.47 0855.17
2009/04/23 09:08:57.2     -10    -99    117    100    153 186.2  55.4  34096  288.48 0855.16
2009/04/23 09:08:57.3      -8   -102    103    103    145 184.5  50.1  34092  288.43 0855.16
2009/04/23 09:08:57.4      19    -83     87     86    122 166.6  50.1  34094  288.45 0855.16
2009/04/23 09:08:57.5       2    -85     91     86    125 178.2  51.2  34094  288.47 0855.16
2009/04/23 09:08:57.6      22    -84    133     88    159 164.9  63.4  34096  288.50 0855.16
2009/04/23 09:08:57.7       2   -133    146    134    198 179.0  52.5  34094  288.47 0855.16
2009/04/23 09:08:57.8     -39   -118    146    125    192 198.3  55.4  34090  288.40 0855.16
2009/04/23 09:08:57.9     -70    -68    118     98    153 226.0  56.3  34090  288.38 0855.16
2009/04/23 09:08:58.0     -77    -26     37     82     89 251.4  26.2  34098  288.53 0855.16
2009/04/23 09:08:58.1     -86    -91     57    126    138 223.2  25.7  34098  288.52 0855.16
2009/04/23 09:08:58.2     -81   -103     45    132    140 218.3  18.9  34098  288.53 0855.16
2009/04/23 09:08:58.3     -83    -82     42    117    124 225.4  20.0  34098  288.52 0855.16
2009/04/23 09:08:58.4     -64    -88     52    110    121 216.1  27.2  34110  288.72 0855.16
2009/04/23 09:08:58.5     -78    -98     49    126    135 218.3  21.5  34130  289.06 0855.16
2009/04/23 09:08:58.6     -81   -128     97    152    180 212.6  35.5  34112  288.77 0855.16
2009/04/23 09:08:58.7      -8   -112    136    113    176 184.4  56.3  34102  288.60 0855.16
2009/04/23 09:08:58.8     -24   -156    124    158    200 188.9  42.2  34096  288.48 0855.16
2009/04/23 09:08:58.9     -23   -116    100    119    155 191.6  43.8  34092  288.42 0855.16
2009/04/23 09:08:59.0     -40    -92     90    101    135 203.6  45.9  34096  288.48 0855.16
2009/04/23 09:08:59.1      -7    -97     72     98    121 184.5  40.1  34096  288.50 0855.16
2009/04/23 09:08:59.2     -43    -70     29     83     88 211.6  19.4  34102  288.58 0855.16
2009/04/23 09:08:59.3     -25    -82     42     86     95 197.4  27.8  34102  288.58 0855.16
2009/04/23 09:08:59.4      14    -72     26     74     79 168.4  19.4  34100  288.55 0855.16
2009/04/23 09:08:59.5      18    -67     40     70     80 164.9  32.4  34098  288.53 0855.16
2009/04/23 09:08:59.6     -23    -68     55     73     91 199.2  41.2  34098  288.52 0855.16
2009/04/23 09:08:59.7     -88     -3     49     89    101 267.9  31.4  34104  288.62 0855.16
2009/04/23 09:08:59.8     -35    -35     66     50     82 225.1  59.0  34098  288.53 0855.16
2009/04/23 09:08:59.9     -41      4     54     42     68 276.1  56.4  34108  288.70 0855.16
2009/04/23 09:09:00.0     -68    -13     75     70    102 258.6  52.1  34136  289.18 0855.16
2009/04/23 09:09:00.1     -50    -22     71     55     89 245.6  57.9  34130  289.06 0855.16
2009/04/23 09:09:00.2     -56    -20     79     60     99 250.0  59.4  34140  289.24 0855.16
2009/04/23 09:09:00.3     -56     -6     70     57     90 263.9  56.4  34186  290.02 0855.16
2009/04/23 09:09:00.4     -45    -18     72     49     87 248.3  63.2  34188  290.04 0855.16
2009/04/23 09:09:00.5     -62     15     71     64     95 284.2  53.3  34196  290.18 0855.16
2009/04/23 09:09:00.6     -71     -5     60     72     93 265.6  44.3  34210  290.43 0855.16
2009/04/23 09:09:00.7     -58     -6     72     59     93 263.9  56.4  34202  290.28 0855.16
2009/04/23 09:09:00.8      15     21     61     26     66  36.1  77.0  34162  289.62 0855.16
2009/04/23 09:09:00.9     -42    -24     90     49    102 240.2  68.9  34154  289.46 0855.16
2009/04/23 09:09:01.0     -21    -29     65     36     74 216.1  68.8  34140  289.24 0855.16
2009/04/23 09:09:01.1     -11    -58     51     60     78 190.7  45.4  34140  289.24 0855.16
2009/04/23 09:09:01.2     -44    -80     82     92    123 209.0  46.9  34156  289.50 0855.16
2009/04/23 09:09:01.3     -55   -117     85    130    155 205.3  35.6  34134  289.14 0855.16
2009/04/23 09:09:01.4     -23   -114     89    117    147 191.6  41.6  34122  288.94 0855.16
2009/04/23 09:09:01.5     -32   -157     86    161    182 191.5  30.6  34094  288.45 0855.16
2009/04/23 09:09:01.6     -30   -179     92    182    203 189.8  29.2  34096  288.50 0855.16
2009/04/23 09:09:01.7     -25   -178     82    180    197 188.2  26.2  34098  288.52 0855.16
2009/04/23 09:09:01.8     -27   -173     78    176    192 188.9  25.7  34098  288.53 0855.16
2009/04/23 09:09:01.9     -29   -171     70    174    187 189.6  23.0  34098  288.52 0855.16
2009/04/23 09:09:02.0     -27   -167     66    170    182 189.3  22.3  34096  288.50 0855.16
2009/04/23 09:09:02.1     -32   -164     44    168    174 191.1  14.7  34094  288.47 0855.16
2009/04/23 09:09:02.2     -41   -157     37    163    168 194.9  12.9  34096  288.48 0855.16
2009/04/23 09:09:02.3       3   -157     29    158    161 178.6  10.6  34096  288.48 0855.16
2009/04/23 09:09:02.4       4   -156     12    157    158 178.2   4.6  34096  288.50 0855.16
2009/04/23 09:09:02.5     -27   -145      7    148    149 190.7   2.9  34092  288.43 0855.16
2009/04/23 09:09:02.6     -31   -143     17    147    149 192.5   6.9  34094  288.47 0855.16
2009/04/23 09:09:02.7     -36   -150      7    155    156 193.8   2.8  34090  288.40 0855.16
2009/04/23 09:09:02.8     -27   -167     16    170    171 189.3   5.4  34092  288.42 0855.16
2009/04/23 09:09:02.9     -12   -179     19    180    182 184.0   6.1  34090  288.38 0855.16
2009/04/23 09:09:03.0     -33   -163     54    167    176 191.5  17.9  34090  288.38 0855.16
2009/04/23 09:09:03.1     -20   -143     51    145    154 188.1  19.4  34088  288.36 0855.16
2009/04/23 09:09:03.2     -25   -146     52    149    159 189.8  19.4  34086  288.33 0855.16
2009/04/23 09:09:03.3     -42   -158     47    164    171 194.9  16.0  34090  288.38 0855.16
2009/04/23 09:09:03.4     -53   -144     28    154    157 200.5  10.3  34088  288.36 0855.16
2009/04/23 09:09:03.5     -57   -122     36    135    140 205.3  15.3  34088  288.35 0855.16
2009/04/23 09:09:03.6     -64   -117     29    134    138 208.9  12.2  34086  288.33 0855.16
2009/04/23 09:09:03.7     -49   -129     28    139    142 200.9  11.6  34086  288.33 0855.16
2009/04/23 09:09:03.8     -53   -141     23    151    153 200.9   8.9  34090  288.38 0855.16
2009/04/23 09:09:03.9     -42   -137     28    144    147 197.0  11.1  34090  288.38 0855.16
2009/04/23 09:09:04.0     -43   -135     36    142    147 197.8  14.3  34084  288.30 0855.16
2009/04/23 09:09:04.1     -39   -136     27    142    145 196.0  11.1  34088  288.35 0855.16
2009/04/23 09:09:04.3     -49   -143     12    152    153 199.2   4.9  34086  288.33 0855.16
2009/04/23 09:09:04.3     -44   -134     18    142    144 198.5   7.5  34086  288.33 0855.16
2009/04/23 09:09:04.4     -50   -128     26    138    141 201.4  11.0  34088  288.35 0855.16
2009/04/23 09:09:04.5     -64   -134     49    149    158 205.5  18.4  34098  288.53 0855.16
2009/04/23 09:09:04.6     -46   -126     36    135    140 200.0  15.3  34112  288.77 0855.16
2009/04/23 09:09:04.7     -36   -111     17    117    119 198.3   8.5  34102  288.58 0855.16
2009/04/23 09:09:04.8     -51   -122     17    133    135 202.7   7.5  34102  288.60 0855.16
2009/04/23 09:09:04.9     -41   -107     31    115    120 201.4  15.3  34100  288.55 0855.16
2009/04/23 09:09:05.0     -52    -74     -5     91     92 215.2  -3.7  34100  288.57 0855.16
2009/04/23 09:09:05.1     -10    -91     36     92     98 186.7  22.5  34092  288.43 0855.16
2009/04/23 09:09:05.2      -8    -78     24     79     83 186.2  17.3  34094  288.45 0855.16
2009/04/23 09:09:05.3      -4   -105     17    106    108 182.2   9.5  34094  288.45 0855.16
2009/04/23 09:09:05.5     -26    -99      5    103    104 195.1   2.9  34098  288.53 0855.16
2009/04/23 09:09:05.5      13   -125     50    126    135 173.8  23.0  34088  288.36 0855.16
2009/04/23 09:09:05.6      12   -118     73    119    139 174.2  35.0  34088  288.35 0855.16
2009/04/23 09:09:05.7       6   -130     94    131    161 177.3  39.3  34090  288.38 0855.16
2009/04/23 09:09:05.8       1   -125     92    126    156 179.1  39.7  34090  288.40 0855.16
2009/04/23 09:09:05.9     -35   -130     82    135    157 195.1  34.2  34088  288.35 0855.16
2009/04/23 09:09:06.0     -37   -123     62    129    143 197.0  27.2  34088  288.36 0855.16
2009/04/23 09:09:06.1     -12   -118     80    119    143 186.2  37.0  34090  288.38 0855.16
2009/04/23 09:09:06.2     -11   -130     89    131    158 184.9  37.6  34090  288.38 0855.16
2009/04/23 09:09:06.3      -7   -138     80    139    160 183.1  32.4  34090  288.38 0855.16
2009/04/23 09:09:06.4      -1   -133    114    134    175 180.5  44.8  34090  288.40 0855.16
2009/04/23 09:09:06.6     -23   -138     92    141    168 189.8  36.0  34092  288.42 0855.16
2009/04/23 09:09:06.7     -27   -137     74    140    158 191.5  30.3  34090  288.38 0855.16
2009/04/23 09:09:06.8     -32   -135     63    139    152 193.4  26.2  34090  288.38 0855.16
2009/04/23 09:09:06.8     -22   -111     51    114    124 191.6  25.2  34090  288.40 0855.16
2009/04/23 09:09:06.9       0   -110     26    111    115 180.4  13.2  34088  288.36 0855.16
2009/04/23 09:09:07.0     -15   -108      2    110    111 188.1   1.2  34090  288.38 0855.16
2009/04/23 09:09:07.1       4    -94    -21     95     98 177.3 -12.4  34090  288.40 0855.16
2009/04/23 09:09:07.2      -3    -96    -21     97    100 181.8 -12.4  34088  288.36 0855.16
2009/04/23 09:09:07.3      33    -86    -28     93     97 158.6 -22.3  34088  288.36 0855.16
2009/04/23 09:09:07.4      48    -48    -19     69     72 135.0 -15.4  34090  288.38 0855.16
2009/04/23 09:09:07.5      59    -48     -5     77     78 129.5  -4.1  34090  288.40 0855.16
2009/04/23 09:09:07.6      52    -33     30     62     68 122.5  27.2  34090  288.40 0855.16
2009/04/23 09:09:07.7      47     -8     51     48     70 100.6  52.1  34090  288.40 0855.16
2009/04/23 09:09:07.8      48    -33     57     59     82 124.2  49.4  34092  288.43 0855.16
2009/04/23 09:09:07.9       0    -35     57     36     67 180.9  64.7  34098  288.53 0855.16
2009/04/23 09:09:08.0       4    -42     53     43     68 173.8  56.4  34092  288.43 0855.16
2009/04/23 09:09:08.1      30    -48     51     57     76 147.4  47.9  34092  288.42 0855.16
2009/04/23 09:09:08.2       0    -52     57     53     77 180.0  52.1  34090  288.40 0855.15
2009/04/23 09:09:08.3       1    -62     65     63     90 179.0  50.7  34090  288.40 0855.15
2009/04/23 09:09:08.4       4    -53     78     54     94 175.6  62.6  34094  288.47 0855.15
2009/04/23 09:09:08.5      38    -45     61     60     85 139.5  49.7  34090  288.40 0855.15
2009/04/23 09:09:08.6      15    -52     55     55     77 164.0  50.1  34090  288.40 0855.15
2009/04/23 09:09:08.7      31    -31     51     45     68 134.9  52.2  34092  288.42 0855.15
2009/04/23 09:09:08.8       5    -16     39     17     42 161.3  75.0  34092  288.42 0855.15
2009/04/23 09:09:08.9      28    -68     48     74     88 157.3  36.0  34090  288.38 0855.15
2009/04/23 09:09:09.0      74    -52     49     91    103 125.1  31.3  34090  288.38 0855.15
2009/04/23 09:09:09.1      61    -59     66     86    108 134.0  41.7  34092  288.43 0855.15
2009/04/23 09:09:09.2      65    -88     68    110    129 143.5  35.5  34090  288.40 0855.15
2009/04/23 09:09:09.3      57    -88     72    105    127 147.0  37.6  34090  288.40 0855.15
2009/04/23 09:09:09.5      65    -88     65    110    127 143.5  33.5  34088  288.36 0855.15
2009/04/23 09:09:09.6      48   -102     16    113    115 154.7   8.5  34088  288.35 0855.15
2009/04/23 09:09:09.7      39    -96     20    104    107 157.7  11.1  34090  288.38 0855.15
2009/04/23 09:09:09.8      13   -100     18    101    103 172.4  10.1  34090  288.38 0855.15
2009/04/23 09:09:09.9     -25    -96     34    100    106 195.1  18.9  34090  288.38 0855.15
2009/04/23 09:09:10.0     -40    -92     31    101    106 203.6  17.3  34090  288.40 0855.15
2009/04/23 09:09:10.1     -67    -40     53     79     95 239.3  36.5  34092  288.42 0855.15
2009/04/23 09:09:10.2     -56    -41     19     70     73 234.0  15.3  34090  288.40 0855.15
2009/04/23 09:09:10.3     -77    -28    -19     83     86 249.6 -12.9  34090  288.40 0855.16
2009/04/23 09:09:10.4    -116    -23     -2    119    120 258.6  -1.3  34092  288.42 0855.16
2009/04/23 09:09:10.5    -117    -68     -5    136    137 239.8  -2.2  34090  288.38 0855.16
2009/04/23 09:09:10.6    -116    -45    -16    125    127 248.7  -7.7  34090  288.38 0855.16
2009/04/23 09:09:10.7    -100    -31    -34    105    111 252.7 -18.1  34092  288.42 0855.16
2009/04/23 09:09:10.8    -101     16    -31    103    108 279.2 -17.0  34094  288.45 0855.16
2009/04/23 09:09:10.9     -92     30     -5     97     98 288.2  -3.2  34098  288.53 0855.16
2009/04/23 09:09:11.0     -67    -49     17     84     86 234.0  11.6  34094  288.45 0855.16
2009/04/23 09:09:11.1     -48    -63     43     80     90 217.0  30.3  34088  288.36 0855.16
2009/04/23 09:09:11.2     -49    -76     67     91    113 213.0  40.1  34090  288.38 0855.16
2009/04/23 09:09:11.3     -80    -54     49     97    108 235.8  28.7  34092  288.42 0855.16
2009/04/23 09:09:11.4    -105    -76     26    130    133 234.1  11.6  34090  288.40 0855.16
2009/04/23 09:09:11.5     -89    -99    -18    134    136 221.9  -7.7  34090  288.38 0855.16
2009/04/23 09:09:11.6    -151    -77    -57    170    179 243.0 -23.6  34092  288.43 0855.16
2009/04/23 09:09:11.7    -106    -61    -20    123    125 240.2  -9.4  34086  288.33 0855.16
2009/04/23 09:09:11.8    -120    -50     -5    131    132 247.4  -2.2  34092  288.42 0855.16
2009/04/23 09:09:11.9    -113      6     -2    114    115 273.5  -1.3  34092  288.42 0855.16
2009/04/23 09:09:12.0     -87     12      0     88     89 278.4  -0.3  34092  288.42 0855.16
2009/04/23 09:09:12.1     -66    -42      8     79     80 237.6   5.9  34090  288.40 0855.16
2009/04/23 09:09:12.2     -64    -61      7     89     90 226.0   4.9  34094  288.45 0855.16
2009/04/23 09:09:12.3    -108    -31     23    113    116 253.6  11.6  34100  288.57 0855.15
2009/04/23 09:09:12.4    -117    -18     41    119    127 261.2  19.2  34102  288.60 0855.15
2009/04/23 09:09:12.5    -108     11     11    109    110 276.1   5.9  34098  288.53 0855.15
2009/04/23 09:09:12.6     -92    -35     11     99    100 249.2   6.5  34100  288.57 0855.15
2009/04/23 09:09:12.7     -65    -78    -43    102    110 219.7 -28.5  34094  288.45 0855.15
2009/04/23 09:09:12.8     -40    -64     -9     76     77 212.6  -7.3  34100  288.57 0855.15
2009/04/23 09:09:12.9     -75    -42    -29     87     92 240.7 -18.7  34100  288.55 0855.15
2009/04/23 09:09:13.0     -98    -18    -26    100    104 259.4 -14.5  34096  288.48 0855.15
2009/04/23 09:09:13.1    -132    -10    -22    133    135 265.7  -9.4  34094  288.47 0855.15
2009/04/23 09:09:13.2    -158     -4    -20    159    161 268.5  -7.3  34092  288.43 0855.15
2009/04/23 09:09:13.3    -163      0      0    164    165 270.0  -0.3  34096  288.48 0855.15
2009/04/23 09:09:13.4    -137    -23     46    139    147 260.4  18.4  34100  288.55 0855.15
2009/04/23 09:09:13.5    -204    -38     71    208    220 259.4  18.9  34098  288.52 0855.15
2009/04/23 09:09:13.6    -161    -27     61    164    174 260.5  20.7  34104  288.62 0855.15
2009/04/23 09:09:13.7    -177    -21     66    179    190 263.2  20.7  34104  288.64 0855.15
2009/04/23 09:09:13.8    -103    -52     49    116    125 242.9  24.1  34100  288.55 0855.15
2009/04/23 09:09:13.9       2    -95     20     96     99 178.6  12.2  34096  288.48 0855.15
2009/04/23 09:09:14.0      48    -88     35    101    108 151.0  19.4  34096  288.50 0855.15
2009/04/23 09:09:14.1      31    -85     17     91     93 160.0  11.0  34096  288.48 0855.15
2009/04/23 09:09:14.2      36   -110     33    116    121 161.7  16.3  34096  288.50 0855.15
2009/04/23 09:09:14.3      22    -95     21     98    101 166.6  12.2  34096  288.48 0855.16
2009/04/23 09:09:14.4      29    -76     41     82     91 158.6  28.2  34096  288.48 0855.16
2009/04/23 09:09:14.5      14    -69     47     71     85 168.5  36.5  34094  288.45 0855.16
2009/04/23 09:09:14.6      21    -63     49     67     83 161.7  40.1  34096  288.48 0855.16
2009/04/23 09:09:14.7      -5    -80     61     81    101 184.0  40.7  34094  288.47 0855.16
2009/04/23 09:09:14.8     -31    -92     43     98    107 198.7  24.6  34092  288.42 0855.16
2009/04/23 09:09:14.9     -30   -107     13    112    113 196.0   7.1  34092  288.43 0855.16
2009/04/23 09:09:15.0     -18   -100     29    102    107 190.2  15.8  34092  288.42 0855.16
2009/04/23 09:09:15.1     -35    -72      9     81     82 206.3   6.5  34090  288.40 0855.16
2009/04/23 09:09:15.2     -59    -42     -9     73     74 234.0  -7.3  34092  288.43 0855.16
2009/04/23 09:09:15.3     -58    -32    -34     67     75 241.2 -32.6  34094  288.45 0855.16
2009/04/23 09:09:15.4     -74    -25    -31     79     84 251.4 -26.4  34096  288.48 0855.16
2009/04/23 09:09:15.5     -90    -38     26     98    102 246.9  15.3  34094  288.47 0855.16
2009/04/23 09:09:15.6    -125    -61     -2    140    141 243.8  -1.2  34094  288.45 0855.16
2009/04/23 09:09:15.7    -161    -91    -10    186    187 240.5  -3.2  34096  288.48 0855.16
2009/04/23 09:09:15.8    -138    -89    -21    165    167 237.1  -7.3  34096  288.48 0855.16
2009/04/23 09:09:15.9    -136    -28      1    139    140 258.1   0.7  34096  288.48 0855.16
2009/04/23 09:09:16.0     -72    -72      5    102    103 225.1   2.8  34096  288.48 0855.16
2009/04/23 09:09:16.1     -52    -69     64     87    108 217.4  40.1  34092  288.43 0855.16
2009/04/23 09:09:16.2     -90   -124     81    154    174 216.1  30.1  34092  288.43 0855.16
2009/04/23 09:09:16.3     -77   -113     48    137    146 214.3  19.4  34094  288.47 0855.17
2009/04/23 09:09:16.4     -56   -128     22    140    142 203.6   9.0  34094  288.45 0855.17
2009/04/23 09:09:16.5     -52   -141      7    151    152 200.5   2.9  34090  288.40 0855.17
2009/04/23 09:09:16.6     -85   -148      3    171    172 209.9   1.2  34092  288.42 0855.17
2009/04/23 09:09:16.7     -84   -142    -14    166    167 210.7  -4.9  34094  288.45 0855.17
2009/04/23 09:09:16.8     -34   -132    -18    137    139 194.7  -7.7  34092  288.43 0855.17
2009/04/23 09:09:16.9     -79   -109    -35    135    140 216.1 -14.5  34092  288.42 0855.17
2009/04/23 09:09:17.0    -131   -102    -38    167    172 232.2 -12.9  34088  288.35 0855.17
2009/04/23 09:09:17.1    -106   -128    -20    167    169 219.6  -6.9  34088  288.36 0855.17
2009/04/23 09:09:17.2     -92   -136    -22    165    167 214.3  -7.7  34092  288.42 0855.17
2009/04/23 09:09:17.3     -29   -140    -18    144    146 192.0  -7.2  34092  288.43 0855.17
2009/04/23 09:09:17.4     -21   -160      2    162    163 187.6   1.0  34092  288.43 0855.17
2009/04/23 09:09:17.5      -1   -128    -15    129    130 180.8  -6.7  34094  288.45 0855.17
2009/04/23 09:09:17.6      18   -103     22    105    108 169.8  12.2  34090  288.40 0855.17
2009/04/23 09:09:17.7      37    -81      0     90     91 155.1  -0.3  34094  288.45 0855.17
2009/04/23 09:09:17.8      40    -79     87     89    124 152.8  50.0  34090  288.40 0855.17
2009/04/23 09:09:17.9      25    -55    105     61    121 155.5  67.2  34094  288.47 0855.17
2009/04/23 09:09:18.0       8    -15     90     18     91 151.0  89.0  34096  288.48 0855.17
2009/04/23 09:09:18.1      22     25     80     34     86  41.4  76.1  34098  288.52 0855.17
2009/04/23 09:09:18.2     -18    -10     57     21     60 241.1  79.2  34100  288.55 0855.17
2009/04/23 09:09:18.3       3     -3     68      5     68 136.6  90.0  34100  288.55 0855.18
2009/04/23 09:09:18.4     -19    -31    117     37    122 212.5  81.8  34100  288.55 0855.18
2009/04/23 09:09:18.5       6    -78    116     79    140 175.5  62.6  34098  288.53 0855.18
2009/04/23 09:09:18.6     -33   -109     68    115    133 196.9  33.5  34094  288.45 0855.18
2009/04/23 09:09:18.7      -5    -64     89     65    110 184.5  60.5  34096  288.48 0855.18
2009/04/23 09:09:18.8      24      0     56     25     61  90.0  75.0  34100  288.55 0855.18
2009/04/23 09:09:18.9      52    -14     19     54     58 105.1  19.2  34098  288.52 0855.18
2009/04/23 09:09:19.0     126    -21     27    128    131  99.7  12.2  34094  288.47 0855.18
2009/04/23 09:09:19.1     131    -35     16    136    137 105.1   6.9  34094  288.45 0855.18
2009/04/23 09:09:19.2     129    -61     30    143    147 115.4  12.2  34100  288.57 0855.18
2009/04/23 09:09:19.3     108    -83     26    137    140 127.7  11.0  34098  288.53 0855.18
2009/04/23 09:09:19.4     111    -61     44    127    135 118.9  19.4  34096  288.50 0855.18
2009/04/23 09:09:19.5      72    -87     65    113    130 140.4  32.9  34096  288.50 0855.18
2009/04/23 09:09:19.6      79    -43     82     91    122 118.9  46.9  34098  288.52 0855.18
2009/04/23 09:09:19.7      77    -26    -27     82     87 109.1 -18.7  34104  288.62 0855.18
2009/04/23 09:09:19.8     109    -39    -24    117    120 110.0 -11.9  34120  288.91 0855.18
2009/04/23 09:09:19.9      81    -45     11     93     94 119.3   6.9  34110  288.72 0855.18
2009/04/23 09:09:20.0      70    -86     60    112    127 140.8  30.8  34100  288.57 0855.18
2009/04/23 09:09:20.1      74    -90     59    117    131 140.3  28.7  34096  288.50 0855.18
2009/04/23 09:09:20.2      70   -104     73    126    145 145.7  32.9  34100  288.55 0855.18
2009/04/23 09:09:20.3      61    -90     48    110    120 145.7  25.1  34096  288.50 0855.19
2009/04/23 09:09:20.4      69    -70     38     99    106 135.8  22.0  34100  288.57 0855.19
2009/04/23 09:09:20.5      92      0     -2     93     94  90.0  -1.8  34114  288.79 0855.19
2009/04/23 09:09:20.6      77     15      6     79     80  78.5   4.4  34112  288.75 0855.19
2009/04/23 09:09:20.7      43     17     -1     47     48  68.3  -2.2  34102  288.60 0855.19
2009/04/23 09:09:20.8      17     14     10     23     25  50.5  23.0  34104  288.62 0855.19
2009/04/23 09:09:20.9       3     -7     11      8     13 154.6  60.5  34104  288.62 0855.19
2009/04/23 09:09:21.0       0    -17     22     18     28 179.1  54.3  34106  288.67 0855.19
2009/04/23 09:09:21.1      -8    -14     24     17     29 209.0  62.6  34104  288.62 0855.19
2009/04/23 09:09:21.2      25    -42     43     49     65 149.3  46.9  34098  288.53 0855.19
2009/04/23 09:09:21.3      61    -39     41     73     83 122.4  32.4  34098  288.53 0855.19
2009/04/23 09:09:21.4      53    -44     38     69     78 129.6  30.8  34098  288.52 0855.19
2009/04/23 09:09:21.5      25    -34     31     43     53 143.9  39.7  34098  288.53 0855.19
2009/04/23 09:09:21.6      26    -29     26     40     47 138.6  35.6  34098  288.53 0855.19
2009/04/23 09:09:21.7       8    -22     29     24     37 160.0  56.3  34100  288.57 0855.19
2009/04/23 09:09:21.8       0    -21     33     22     39 180.9  63.6  34100  288.57 0855.19
2009/04/23 09:09:21.9     -23    -42     48     49     68 209.0  51.1  34098  288.52 0855.19
2009/04/23 09:09:22.0     -41    -38     67     57     87 226.9  55.4  34098  288.53 0855.19
2009/04/23 09:09:22.1     -36    -36     63     51     81 225.0  56.9  34098  288.52 0855.19
2009/04/23 09:09:22.2     -12    -12     54     18     56 225.0  81.0  34096  288.50 0855.19
2009/04/23 09:09:22.3       2     19     41     20     45   8.0  71.9  34106  288.65 0855.20
2009/04/23 09:09:22.4      16     27     35     32     47  30.7  52.2  34102  288.60 0855.20
2009/04/23 09:09:22.5      11    -25     45     28     53 156.4  64.7  34100  288.57 0855.20
2009/04/23 09:09:22.6       5    -65     32     66     73 175.5  27.3  34096  288.50 0855.20
2009/04/23 09:09:22.7      21    -64     35     68     76 161.7  29.3  34096  288.48 0855.20
2009/04/23 09:09:22.8       1    -51     57     52     77 178.2  52.2  34098  288.53 0855.20
2009/04/23 09:09:22.9      25    -74     78     79    111 161.3  50.0  34098  288.52 0855.20
2009/04/23 09:09:23.0      22    -47     69     52     86 154.7  59.4  34100  288.57 0855.20
2009/04/23 09:09:23.1       2     17     51     18     54   8.0  81.2  34100  288.55 0855.20
2009/04/23 09:09:23.2     -19    -20     34     28     44 223.4  55.4  34098  288.52 0855.20
2009/04/23 09:09:23.3       5    -74     74     75    105 175.5  50.5  34096  288.50 0855.20
2009/04/23 09:09:23.4      -6    -78     89     79    119 184.4  53.7  34096  288.50 0855.20
2009/04/23 09:09:23.5     -12    -90     96     91    132 187.6  51.6  34098  288.52 0855.20
2009/04/23 09:09:23.6     -13   -123     81    124    148 186.2  35.6  34096  288.50 0855.20
2009/04/23 09:09:23.7     -43    -92    112    102    151 205.5  52.2  34098  288.52 0855.20
2009/04/23 09:09:23.8     -25   -114     82    117    142 192.5  38.0  34098  288.52 0855.20
2009/04/23 09:09:23.9      -5   -120     88    121    149 182.7  39.7  34098  288.53 0855.20
2009/04/23 09:09:24.0       0   -126     74    127    146 180.0  33.4  34096  288.48 0855.20
2009/04/23 09:09:24.1      12   -111     73    112    133 173.8  35.6  34098  288.53 0855.20
2009/04/23 09:09:24.2      15   -107     82    109    136 172.0  40.7  34096  288.50 0855.20
2009/04/23 09:09:24.3       8   -102     63    103    120 175.5  34.4  34096  288.50 0855.20
2009/04/23 09:09:24.4     -23   -105     57    108    122 192.5  29.8  34098  288.53 0855.20
2009/04/23 09:09:24.5     -19   -118    103    120    158 189.3  45.4  34096  288.48 0855.20
2009/04/23 09:09:24.6     -22   -128     67    130    146 189.8  29.3  34096  288.50 0855.20
2009/04/23 09:09:24.7     -13   -124     73    125    144 186.3  33.4  34098  288.53 0855.20
2009/04/23 09:09:24.8     -35   -130     89    135    161 195.1  36.7  34096  288.50 0855.20
2009/04/23 09:09:24.9     -20   -104    102    107    147 191.1  48.5  34096  288.50 0855.20
2009/04/23 09:09:25.0      24   -119     95    122    154 168.4  41.7  34096  288.50 0855.20
2009/04/23 09:09:25.1      31   -112     98    117    152 164.4  43.8  34096  288.48 0855.20
2009/04/23 09:09:25.2      10    -82     78     83    113 172.9  48.5  34098  288.52 0855.20
2009/04/23 09:09:25.3       3    -91    101     92    136 177.8  52.7  34096  288.50 0855.21
2009/04/23 09:09:25.4      17    -64     85     67    108 164.8  56.9  34098  288.53 0855.21
2009/04/23 09:09:25.5      20   -122     75    124    144 170.3  34.4  34096  288.50 0855.21
2009/04/23 09:09:25.6      16   -114     96    116    150 172.0  43.8  34098  288.52 0855.21
2009/04/23 09:09:25.7      15   -111    125    113    168 171.9  53.3  34098  288.53 0855.21
2009/04/23 09:09:25.8      16   -103    118    105    157 171.1  53.7  34100  288.57 0855.21
2009/04/23 09:09:25.9       8    -93    104     94    140 174.7  52.7  34098  288.53 0855.21
2009/04/23 09:09:26.0      43    -77     90     89    126 150.6  50.1  34096  288.50 0855.21
2009/04/23 09:09:26.1     114   -141    109    182    212 141.0  34.0  34096  288.50 0855.21
2009/04/23 09:09:26.2     120   -127    108    175    205 136.6  34.8  34096  288.50 0855.21
2009/04/23 09:09:26.3      91   -103    115    138    179 138.5  43.8  34102  288.60 0855.21
2009/04/23 09:09:26.4      64    -86    110    108    154 143.0  50.1  34100  288.57 0855.21
2009/04/23 09:09:26.5      39    -78     89     88    125 153.3  50.1  34100  288.55 0855.21
2009/04/23 09:09:26.6     117    -91     69    149    164 127.7  26.6  34098  288.52 0855.21
2009/04/23 09:09:26.7      98    -92     10    135    136 133.1   4.4  34096  288.48 0855.21
2009/04/23 09:09:26.8     103    -94     -7    140    141 132.2  -3.1  34098  288.53 0855.21
2009/04/23 09:09:26.9      73    -92      5    118    119 141.7   2.8  34098  288.53 0855.21
2009/04/23 09:09:27.0      70    -82     -7    108    109 139.5  -3.7  34098  288.53 0855.21
2009/04/23 09:09:27.1      70    -79     -4    106    107 138.6  -2.2  34096  288.48 0855.21
2009/04/23 09:09:27.2      85    -46    -12     97     98 118.4  -7.3  34098  288.53 0855.21
2009/04/23 09:09:27.3      80    -22     -3     84     85 105.5  -2.2  34096  288.48 0855.21
2009/04/23 09:09:27.4      81    -14     -3     83     84 100.1  -2.2  34098  288.53 0855.21
2009/04/23 09:09:27.5      83    -16    -10     85     86 101.0  -6.7  34098  288.52 0855.21
2009/04/23 09:09:27.6      70      3     -1     71     72  87.4  -1.3  34096  288.50 0855.21
2009/04/23 09:09:27.7      59      8     -3     60     61  82.0  -3.1  34098  288.52 0855.21
2009/04/23 09:09:27.8      24      8     -2     26     27  71.8  -5.2  34096  288.50 0855.21
2009/04/23 09:09:27.9      27     18      6     33     34  55.8  11.1  34098  288.53 0855.21
2009/04/23 09:09:28.0      12     31     33     34     47  21.8  51.1  34100  288.57 0855.21
2009/04/23 09:09:28.1      22     33     35     40     53  34.3  45.8  34096  288.48 0855.21
2009/04/23 09:09:28.2      31     49     31     59     66  32.6  30.3  34096  288.48 0855.21
2009/04/23 09:09:28.3      31     48     44     58     72  32.6  41.7  34096  288.48 0855.21
2009/04/23 09:09:28.4      31     68     36     75     83  24.5  27.2  34098  288.53 0855.21
2009/04/23 09:09:28.5     -10     30     11     32     34 341.3  18.9  34098  288.53 0855.21
2009/04/23 09:09:28.6      -7     -6     24     10     26 226.9  77.1  34100  288.57 0855.21
2009/04/23 09:09:28.7      -6    -14     41     16     44 205.4  79.2  34100  288.57 0855.21
2009/04/23 09:09:28.8      -9    -29     30     31     43 198.5  50.0  34098  288.52 0855.21
2009/04/23 09:09:28.9       0    -21     33     22     39 180.9  63.6  34100  288.57 0855.21
2009/04/23 09:09:29.0     -12    -55     47     57     73 192.5  43.8  34096  288.48 0855.21
2009/04/23 09:09:29.1     -35    -38     74     52     90 222.3  61.5  34092  288.43 0855.21
2009/04/23 09:09:29.2     -36      0     65     37     74 270.0  67.7  34098  288.53 0855.21
2009/04/23 09:09:29.3     -32    -68     47     76     89 205.5  35.0  34096  288.50 0855.21
2009/04/23 09:09:29.4     -27    -97     75    101    125 196.0  40.1  34094  288.45 0855.21
2009/04/23 09:09:29.5     -41   -118     99    125    159 199.2  42.4  34094  288.45 0855.21
2009/04/23 09:09:29.6     -79   -111     91    137    164 215.6  36.7  34090  288.38 0855.21
2009/04/23 09:09:29.7     -40    -40     77     57     95 225.0  60.0  34092  288.43 0855.21
2009/04/23 09:09:29.8     -13    -38    101     41    109 200.0  77.1  34096  288.48 0855.21
2009/04/23 09:09:29.9     -44    -30     79     54     95 235.8  63.2  34114  288.79 0855.21
2009/04/23 09:09:30.0     -56    -19     56     60     82 251.4  48.5  34116  288.84 0855.21
2009/04/23 09:09:30.1     -35    -22     41     42     58 237.6  52.0  34110  288.72 0855.21
2009/04/23 09:09:30.2      -9    -38     38     40     55 193.4  50.0  34100  288.57 0855.21
2009/04/23 09:09:30.3     -44     20     50     49     70 294.4  49.1  34096  288.50 0855.21
2009/04/23 09:09:30.4      41     34    108     54    120  50.5  71.4  34096  288.50 0855.21
2009/04/23 09:09:30.5      67    -22     82     71    108 108.4  54.8  34088  288.36 0855.21
2009/04/23 09:09:30.6     -16      1     37     17     40 274.4  74.0  34096  288.48 0855.21
2009/04/23 09:09:30.7      -3     -8     36      9     37 205.4  86.9  34092  288.43 0855.21
2009/04/23 09:09:30.8      -7     -6     17     10     19 226.9  64.7  34096  288.48 0855.21
2009/04/23 09:09:30.9     -42      0     26     43     50 270.0  34.4  34096  288.48 0855.21
2009/04/23 09:09:31.0     -29      3     38     30     48 276.1  57.5  34094  288.45 0855.21
2009/04/23 09:09:31.1      -1     13     16     14     21 352.0  52.2  34102  288.58 0855.21
2009/04/23 09:09:31.2      20    -20     45     29     53 134.9  64.6  34104  288.62 0855.21
2009/04/23 09:09:31.3      50     -7     60     51     78  98.8  54.8  34106  288.65 0855.21
2009/04/23 09:09:31.4     -32   -104     94    110    144 197.4  44.8  34094  288.47 0855.21
2009/04/23 09:09:31.5     -39   -104     83    112    139 200.9  39.7  34096  288.50 0855.21
2009/04/23 09:09:31.6       1    -99     83    100    129 179.0  43.8  34098  288.53 0855.21
2009/04/23 09:09:31.7      -1    -76     70     77    104 180.9  47.9  34098  288.52 0855.21
2009/04/23 09:09:31.8      71    -45     57     85    102 122.5  37.0  34098  288.52 0855.21
2009/04/23 09:09:31.9      28    -52     50     60     78 151.9  44.8  34098  288.52 0855.21
2009/04/23 09:09:32.0      -9    -73    101     74    125 187.1  60.5  34096  288.48 0855.21
2009/04/23 09:09:32.1     -49    -67    114     84    141 216.5  60.5  34098  288.52 0855.21
2009/04/23 09:09:32.2     -78    -61     87    100    132 231.8  45.8  34100  288.55 0855.21
2009/04/23 09:09:32.3     -75    -53     78     93    121 234.5  44.3  34098  288.52 0855.21
2009/04/23 09:09:32.4     -78    -38     41     87     96 243.8  27.2  34098  288.52 0855.21
2009/04/23 09:09:32.5     -96    -38     15    104    106 248.2   8.5  34094  288.47 0855.21
2009/04/23 09:09:32.6     -89    -56     10    106    107 237.5   5.4  34096  288.48 0855.21
2009/04/23 09:09:32.7     -77    -63     33    100    106 230.5  18.4  34096  288.48 0855.21
2009/04/23 09:09:32.8     -66    -50     24     83     87 232.7  16.3  34094  288.45 0855.21
2009/04/23 09:09:32.9     -86    -55     20    103    105 237.6  11.1  34092  288.43 0855.21
2009/04/23 09:09:33.0     -80    -52     11     96     97 236.7   6.9  34090  288.38 0855.21
2009/04/23 09:09:33.1     -75    -35     33     83     89 244.8  22.5  34090  288.38 0855.21
2009/04/23 09:09:33.2    -117    -67     -2    135    136 240.2  -1.3  34094  288.47 0855.21
2009/04/23 09:09:33.3     -72    -75     52    105    117 223.7  27.8  34106  288.65 0855.21
2009/04/23 09:09:33.4     -74    -64     33     98    104 229.1  18.9  34108  288.69 0855.21
2009/04/23 09:09:33.5     -71    -73     52    103    115 224.1  28.2  34122  288.92 0855.21
2009/04/23 09:09:33.6     -74    -27     45     79     90 250.0  32.4  34108  288.70 0855.21
2009/04/23 09:09:33.7     -52    -33     30     62     68 237.5  27.2  34110  288.72 0855.21
2009/04/23 09:09:33.8     -12      0     27     13     29 270.0  72.8  34104  288.64 0855.21
2009/04/23 09:09:33.9     -18     30     29     36     46 329.3  42.7  34122  288.94 0855.21
2009/04/23 09:09:34.0     -24      7     25     26     36 286.8  52.0  34122  288.94 0855.21
2009/04/23 09:09:34.1     -19    -11     39     23     45 239.3  65.7  34120  288.91 0855.21
2009/04/23 09:09:34.2     -44      8     48     45     65 280.6  52.1  34130  289.06 0855.21
2009/04/23 09:09:34.3     -36     41     42     55     69 318.6  42.7  34130  289.06 0855.21
2009/04/23 09:09:34.4       4    -22     63     23     67 168.4  80.2  34138  289.21 0855.21
2009/04/23 09:09:34.5      74    -31     63     81    102 112.6  42.2  34152  289.43 0855.21
2009/04/23 09:09:34.6      42     -6     72     43     83  98.8  66.2  34152  289.45 0855.21
2009/04/23 09:09:34.7      32      9     78     34     85  73.2  75.0  34154  289.46 0855.21
2009/04/23 09:09:34.8      50      5    102     51    114  83.9  71.9  34180  289.92 0855.21
2009/04/23 09:09:34.9      27     -9     84     29     88 110.0  81.2  34188  290.04 0855.21
2009/04/23 09:09:35.0       0    -18     57     19     60 182.7  81.0  34180  289.91 0855.21
2009/04/23 09:09:35.1      14    -10     61     18     63 126.0  82.8  34168  289.72 0855.21
2009/04/23 09:09:35.2      17      2     74     18     76  82.1  85.9  34152  289.43 0855.21
2009/04/23 09:09:35.3       7    -35     60     36     69 168.4  65.7  34122  288.94 0855.21
2009/04/23 09:09:35.4      12    -47     60     49     77 164.9  56.4  34102  288.60 0855.21
2009/04/23 09:09:35.5     -21    -25     49     33     59 219.7  62.6  34106  288.65 0855.21
2009/04/23 09:09:35.6     -41    -33     54     53     75 231.4  49.1  34106  288.65 0855.21
2009/04/23 09:09:35.7     -29    -34     50     45     67 220.5  52.2  34106  288.67 0855.21
2009/04/23 09:09:35.8     -23    -57     42     62     74 201.8  36.5  34088  288.35 0855.21
2009/04/23 09:09:35.9       4    -78     77     79    110 176.4  49.4  34092  288.42 0855.21
2009/04/23 09:09:36.0       6    -78    104     79    130 175.6  58.5  34100  288.55 0855.21
2009/04/23 09:09:36.1     -14    -94     90     96    131 188.9  48.0  34098  288.53 0855.21
2009/04/23 09:09:36.2     -12    -95     88     96    130 187.6  47.5  34100  288.55 0855.21
2009/04/23 09:09:36.3      -6    -89     87     90    125 184.4  49.9  34100  288.57 0855.21
2009/04/23 09:09:36.4     -32   -103     82    109    136 197.4  40.7  34100  288.57 0855.21
2009/04/23 09:09:36.5     -32    -87     62     93    111 200.5  36.5  34100  288.55 0855.21
2009/04/23 09:09:36.6      -6    -58     60     59     84 186.2  49.7  34096  288.50 0855.21
2009/04/23 09:09:36.7       0    -46     54     47     71 180.0  55.4  34098  288.53 0855.21
2009/04/23 09:09:36.8       4    -62     50     63     80 175.5  42.7  34100  288.55 0855.21
2009/04/23 09:09:36.9       4    -55     69     56     88 175.6  56.4  34100  288.57 0855.21
2009/04/23 09:09:37.0      20    -61     68     65     94 161.5  50.7  34102  288.58 0855.21
2009/04/23 09:09:37.1      26    -21     52     34     62 129.6  63.6  34106  288.67 0855.21
2009/04/23 09:09:37.3      22      0     56     23     60  90.0  77.0  34108  288.70 0855.21
2009/04/23 09:09:37.4      63    -15     62     65     89 104.2  49.0  34108  288.69 0855.21
2009/04/23 09:09:37.5      70    -38     63     80    101 118.9  42.7  34104  288.64 0855.21
2009/04/23 09:09:37.6      45    -40     44     61     75 132.2  39.5  34104  288.64 0855.21
2009/04/23 09:09:37.7      10    -18     32     21     38 151.0  64.6  34108  288.70 0855.21
2009/04/23 09:09:37.8     -19    -40     36     45     57 205.4  43.7  34104  288.64 0855.21
2009/04/23 09:09:37.9     -46    -56     56     73     92 219.7  41.7  34100  288.57 0855.21
2009/04/23 09:09:38.0     -56    -62     40     84     93 221.9  27.2  34098  288.53 0855.21
2009/04/23 09:09:38.1     -33    -61     24     70     75 208.9  19.2  34100  288.55 0855.21
2009/04/23 09:09:38.2     -32    -80     26     87     91 201.8  16.8  34102  288.58 0855.21
2009/04/23 09:09:38.3     -16   -113     31    115    120 188.0  15.2  34102  288.60 0855.21
2009/04/23 09:09:38.4     -11   -148     53    149    158 184.4  20.4  34100  288.55 0855.21
2009/04/23 09:09:38.5     -27   -105    108    109    153 194.7  50.0  34104  288.62 0855.21
2009/04/23 09:09:38.6     -40   -127     66    134    149 197.8  27.8  34104  288.64 0855.21
2009/04/23 09:09:38.7     -10   -132     57    133    144 184.5  24.6  34104  288.62 0855.21
2009/04/23 09:09:38.8     -26   -131     48    134    142 191.5  20.4  34102  288.58 0855.21
2009/04/23 09:09:38.9       9   -102     95    103    140 174.7  47.9  34100  288.55 0855.21
2009/04/23 09:09:39.0      -4   -139     82    140    162 181.8  33.5  34100  288.57 0855.21
2009/04/23 09:09:39.1     -49   -141     73    150    166 199.2  27.4  34096  288.50 0855.21
2009/04/23 09:09:39.2     -47   -116     66    126    142 202.3  29.8  34096  288.50 0855.21
2009/04/23 09:09:39.3      26   -101     59    105    120 165.3  31.9  34098  288.52 0855.21
2009/04/23 09:09:39.4      34   -104     44    110    118 161.7  23.0  34100  288.55 0855.21
2009/04/23 09:09:39.5      34    -91     80     98    126 159.5  43.7  34102  288.58 0855.21
2009/04/23 09:09:39.6      22   -111     96    114    149 168.5  43.8  34100  288.57 0855.21
2009/04/23 09:09:39.7       1    -99     70    100    122 179.1  38.6  34102  288.60 0855.21
2009/04/23 09:09:39.8      15    -76     89     78    118 168.5  54.3  34104  288.64 0855.21
2009/04/23 09:09:39.9     -14   -104     93    106    141 188.1  45.8  34108  288.70 0855.21
2009/04/23 09:09:40.0      -3   -104    118    105    157 181.8  53.7  34100  288.57 0855.21
2009/04/23 09:09:40.1     -17   -103    122    105    160 189.3  54.8  34096  288.48 0855.21
2009/04/23 09:09:40.2     -17    -66     97     69    119 194.3  61.1  34100  288.57 0855.21
2009/04/23 09:09:40.3     -31    -59     85     67    108 208.1  56.9  34106  288.65 0855.21
2009/04/23 09:09:40.4     -77    -49     41     92    100 237.1  25.7  34106  288.67 0855.21
2009/04/23 09:09:40.5     -78    -13     10     80     81 260.3   7.5  34114  288.79 0855.21
2009/04/23 09:09:40.6      59      4      3     60     61  85.6   2.9  34122  288.94 0855.21
2009/04/23 09:09:40.7      56      6     31     57     64  83.0  31.4  34122  288.92 0855.21
2009/04/23 09:09:40.8      55    -23     31     60     67 113.5  29.3  34120  288.89 0855.21
2009/04/23 09:09:40.9      30    -41     73     51     89 143.9  61.5  34104  288.64 0855.21
2009/04/23 09:09:41.0       5    -80     73     81    109 176.4  47.5  34094  288.47 0855.21
2009/04/23 09:09:41.1       5    -66     60     67     89 175.5  46.4  34094  288.45 0855.21
2009/04/23 09:09:41.2     -41    -64     67     77    102 212.6  45.8  34096  288.48 0855.21
2009/04/23 09:09:41.3     -24    -63     64     68     93 200.9  49.0  34100  288.57 0855.21
2009/04/23 09:09:41.4     -15    -56     42     59     72 195.1  39.5  34098  288.53 0855.21
2009/04/23 09:09:41.5      -1    -76     73     77    106 180.9  48.5  34096  288.50 0855.21
2009/04/23 09:09:41.6     -26    -64     74     70    101 201.9  51.6  34094  288.45 0855.21
2009/04/23 09:09:41.7     -25    -57     67     63     91 203.6  51.6  34108  288.70 0855.21
2009/04/23 09:09:41.8     -64    -26     41     70     81 248.2  32.9  34120  288.91 0855.21
2009/04/23 09:09:41.9     -68    -31     47     75     88 245.6  35.5  34120  288.89 0855.21
2009/04/23 09:09:42.0     -88    -49      5    102    103 240.7   2.8  34112  288.77 0855.21
2009/04/23 09:09:42.1     -99    -36     -4    106    107 250.0  -2.2  34140  289.24 0855.21
2009/04/23 09:09:42.2    -108    -42    -11    116    117 248.7  -5.6  34168  289.72 0855.21
2009/04/23 09:09:42.3     -95    -42      8    104    105 246.0   4.4  34158  289.53 0855.21
2009/04/23 09:09:42.4     -90    -47     26    102    106 242.0  14.3  34158  289.55 0855.21
2009/04/23 09:09:42.5     -80    -54     42     97    105 235.8  24.6  34184  289.97 0855.21
2009/04/23 09:09:42.6     -86    -44     37     97    103 242.5  21.5  34174  289.80 0855.21
2009/04/23 09:09:42.7     -92    -18     -5     94     95 258.5  -3.1  34154  289.46 0855.21
2009/04/23 09:09:42.8     -59    -47     17     76     78 231.4  12.6  34150  289.40 0855.21
2009/04/23 09:09:42.9     -59    -58     18     83     86 225.6  12.6  34154  289.46 0855.21
2009/04/23 09:09:43.0     -59    -69     37     92     99 220.5  23.0  34158  289.55 0855.21
2009/04/23 09:09:43.1     -50    -50    -17     71     74 225.0 -13.4  34136  289.18 0855.21
2009/04/23 09:09:43.2     -77    -49     -3     92     93 237.6  -2.2  34156  289.50 0855.21
2009/04/23 09:09:43.3     -38    -38     65     54     84 225.0  56.4  34148  289.38 0855.21
2009/04/23 09:09:43.4     -32    -25     36     41     54 232.2  46.9  34134  289.13 0855.21
2009/04/23 09:09:43.5     -13    -28     68     31     74 205.3  73.1  34110  288.72 0855.21
2009/04/23 09:09:43.6     -16    -47     69     50     85 199.2  61.1  34104  288.62 0855.21
2009/04/23 09:09:43.7     -21    -58     60     62     86 200.0  50.0  34110  288.72 0855.21
2009/04/23 09:09:43.8    -100    -79     35    128    133 231.8  15.3  34134  289.14 0855.21
2009/04/23 09:09:43.9     -74    -69     40    102    109 227.3  22.5  34124  288.96 0855.21
2009/04/23 09:09:44.0     -76    -52     17     93     95 235.4  10.6  34124  288.97 0855.21
2009/04/23 09:09:44.1     -53    -43     54     69     87 230.5  42.2  34116  288.84 0855.21
2009/04/23 09:09:44.2     -73    -58     44     94    103 231.8  27.1  34122  288.92 0855.21
2009/04/23 09:09:44.3     -84    -66     61    108    124 231.8  31.9  34146  289.35 0855.21
2009/04/23 09:09:44.4     -95    -47     22    107    110 243.4  11.6  34164  289.63 0855.20
2009/04/23 09:09:44.5    -110    -41      2    118    119 249.6   1.2  34126  289.01 0855.20
2009/04/23 09:09:44.6    -124    -69     12    143    144 240.7   4.9  34140  289.24 0855.20
2009/04/23 09:09:44.7     -89    -52     40    104    111 239.8  22.0  34148  289.36 0855.20
2009/04/23 09:09:44.8     -99    -18     27    101    105 259.4  15.3  34132  289.11 0855.20
2009/04/23 09:09:44.9     -62     18     41     65     76 286.8  35.5  34134  289.13 0855.20
2009/04/23 09:09:45.0       1    -16     53     17     55 175.5  80.7  34138  289.19 0855.20
2009/04/23 09:09:45.1      32    -55     50     64     81 149.3  42.2  34100  288.57 0855.20
2009/04/23 09:09:45.2      -3    -86     64     87    108 182.2  40.1  34098  288.52 0855.20
2009/04/23 09:09:45.3       0   -102     66    103    122 180.4  35.6  34104  288.64 0855.20
2009/04/23 09:09:45.4      -8   -102     64    103    121 184.5  35.0  34108  288.70 0855.20
2009/04/23 09:09:45.5     -41    -97     54    106    118 203.2  29.3  34112  288.75 0855.20
2009/04/23 09:09:45.6     -71    -76     28    105    109 223.2  15.2  34148  289.36 0855.20
2009/04/23 09:09:45.7    -151    -30    -10    155    156 258.6  -3.9  34158  289.53 0855.20
2009/04/23 09:09:45.8    -170    -19    -46    172    179 263.4 -15.2  34172  289.79 0855.20
2009/04/23 09:09:45.9    -157    -39    -31    162    165 255.8 -10.9  34164  289.65 0855.20
2009/04/23 09:09:46.0    -161    -55     -5    171    172 250.9  -1.8  34174  289.80 0855.20
2009/04/23 09:09:46.1    -152    -40    -31    158    162 255.0 -11.3  34176  289.85 0855.20
2009/04/23 09:09:46.2    -168    -32    -52    172    179 259.2 -22.1  34174  289.82 0855.20
2009/04/23 09:09:46.3    -176    -45    -20    182    184 255.4  -6.5  34134  289.14 0855.20
2009/04/23 09:09:46.4    -162    -44    -19    168    170 254.7  -6.5  34144  289.30 0855.20
2009/04/23 09:09:46.5    -123    -21    -36    125    130 260.3 -21.2  34144  289.30 0855.20
2009/04/23 09:09:46.6    -106     -9    -22    107    110 264.8 -11.9  34162  289.62 0855.20
2009/04/23 09:09:46.7     -95      0    -31     96    101 270.0 -18.1  34146  289.33 0855.20
2009/04/23 09:09:46.8     -97    -26    -28    101    105 254.9 -15.5  34122  288.92 0855.20
2009/04/23 09:09:46.9    -100    -33    -13    106    107 251.8  -7.3  34112  288.77 0855.20
2009/04/23 09:09:47.0     -89    -47    -19    101    103 242.0 -10.9  34106  288.67 0855.20
2009/04/23 09:09:47.1     -58    -55      5     81     82 226.4   3.8  34108  288.70 0855.20
2009/04/23 09:09:47.2     -79   -101     25    129    132 218.3  11.0  34114  288.80 0855.20
2009/04/23 09:09:47.3     -65   -121      7    138    139 208.5   2.9  34110  288.74 0855.20
2009/04/23 09:09:47.4      -7   -101     -4    102    103 184.5  -2.6  34110  288.74 0855.20
2009/04/23 09:09:47.5     -15   -127     -5    128    129 187.1  -2.6  34110  288.74 0855.20
2009/04/23 09:09:47.6      -8   -137     -3    138    139 183.6  -1.3  34118  288.86 0855.20
2009/04/23 09:09:47.7     -15   -139     11    140    141 186.2   4.9  34114  288.79 0855.20
2009/04/23 09:09:47.8     -21   -141     22    143    145 188.5   8.9  34108  288.70 0855.20
2009/04/23 09:09:47.9      -5   -125     55    126    137 182.6  25.1  34100  288.57 0855.20
2009/04/23 09:09:48.0     -42   -155     12    161    162 195.4   4.4  34098  288.53 0855.20
2009/04/23 09:09:48.1     -48   -182     23    189    191 194.9   7.1  34100  288.55 0855.20
2009/04/23 09:09:48.2     -24   -162     19    164    166 188.5   6.7  34102  288.58 0855.20
2009/04/23 09:09:48.3     -14   -171     12    172    173 184.7   4.2  34100  288.57 0855.20
2009/04/23 09:09:48.4     -42   -158     41    164    170 195.1  14.3  34102  288.60 0855.21
2009/04/23 09:09:48.5     -47   -140     27    148    151 198.7  10.6  34104  288.62 0855.21
2009/04/23 09:09:48.6     -37   -158     -7    163    164 193.4  -2.8  34102  288.60 0855.21
2009/04/23 09:09:48.7     -27   -133    -28    136    140 191.6 -11.9  34102  288.58 0855.21
2009/04/23 09:09:48.8     -61   -149     -5    162    163 202.3  -1.8  34102  288.60 0855.21
2009/04/23 09:09:48.9     -42   -155     -8    161    162 195.2  -3.1  34104  288.62 0855.21
2009/04/23 09:09:49.0     -47   -128      6    137    138 200.1   2.8  34100  288.55 0855.21
2009/04/23 09:09:49.1    -146   -165     -8    221    222 221.4  -2.2  34098  288.53 0855.21
2009/04/23 09:09:49.2    -125   -137    -10    186    187 222.5  -3.3  34104  288.62 0855.21
2009/04/23 09:09:49.3    -122   -116     -3    169    170 226.4  -1.3  34102  288.60 0855.21
2009/04/23 09:09:49.4    -132   -100      7    166    167 232.7   2.5  34100  288.57 0855.21
2009/04/23 09:09:49.5    -111    -91    -14    144    145 230.5  -5.6  34100  288.55 0855.21
2009/04/23 09:09:49.6     -91    -91     -5    129    130 225.0  -2.2  34102  288.58 0855.21
2009/04/23 09:09:49.7     -77   -122      7    145    146 212.1   2.9  34102  288.60 0855.21
2009/04/23 09:09:49.8     -62   -131      7    146    147 205.3   2.8  34104  288.62 0855.21
2009/04/23 09:09:49.9     -36   -173     58    177    187 192.0  18.1  34104  288.62 0855.21
2009/04/23 09:09:50.0      12   -133      1    134    135 174.7   0.8  34104  288.62 0855.21
2009/04/23 09:09:50.1      11   -155     72    156    171 175.6  26.6  34102  288.58 0855.21
2009/04/23 09:09:50.2      40   -192     21    197    199 168.2   6.1  34102  288.60 0855.21
2009/04/23 09:09:50.3      67   -245     69    255    265 164.6  15.3  34096  288.48 0855.21
2009/04/23 09:09:50.4       0   -258     80    259    272 179.8  17.3  34090  288.37 0855.21
2009/04/23 09:09:50.5      62   -235     58    244    251 165.1  13.5  34080  288.22 0855.21
2009/04/23 09:09:50.6      63   -230     38    239    243 164.6   9.0  34104  288.63 0855.21
2009/04/23 09:09:50.7     -43   -225     27    230    232 190.9   6.7  34092  288.43 0855.21
2009/04/23 09:09:50.8     -52   -258     47    264    269 191.5  10.1  34094  288.46 0855.21
2009/04/23 09:09:50.9     -42   -268     58    272    279 188.9  12.1  34102  288.59 0855.21
2009/04/23 09:09:51.0     -63   -242     29    251    253 194.7   6.7  34106  288.66 0855.21
2009/04/23 09:09:51.1     -55   -206     13    214    215 195.1   3.6  34104  288.62 0855.21
2009/04/23 09:09:51.2     -26   -214     21    216    218 187.1   5.7  34104  288.64 0855.21
2009/04/23 09:09:51.3     -78   -166     19    184    186 205.3   6.1  34104  288.62 0855.21
2009/04/23 09:09:51.4     -61   -183     10    194    195 198.5   3.1  34104  288.64 0855.21
2009/04/23 09:09:51.5     -57   -183     28    192    195 197.4   8.5  34102  288.58 0855.21
2009/04/23 09:09:51.6     -52   -169    -68    177    189 197.2 -26.4  34100  288.57 0855.21
2009/04/23 09:09:51.7     -48   -123    -61    133    146 201.4 -31.5  34104  288.62 0855.21
2009/04/23 09:09:51.8     -31    -62    -30     70     76 206.3 -28.5  34102  288.58 0855.21
2009/04/23 09:09:51.9      16    -42    -70     45     83 159.1 -68.5  34102  288.58 0855.21
2009/04/23 09:09:52.0     -29    -59    -22     66     69 206.3 -23.6  34102  288.58 0855.21
2009/04/23 09:09:52.1     -90    -67    -64    113    129 233.1 -36.3  34100  288.55 0855.21
2009/04/23 09:09:52.2     -49   -106    -64    117    133 204.9 -35.8  34100  288.55 0855.21
2009/04/23 09:09:52.3     -12    -87    -33     88     93 188.5 -24.8  34102  288.60 0855.21
2009/04/23 09:09:52.4       4    -59      3     60     61 175.5   2.9  34102  288.60 0855.21
2009/04/23 09:09:52.5      11    -43     31     45     54 164.9  37.6  34102  288.60 0855.21
2009/04/23 09:09:52.6       4    -43     12     44     46 173.8  15.3  34100  288.57 0855.21
2009/04/23 09:09:52.7      -5    -30      8     31     33 189.8  15.3  34106  288.65 0855.21
2009/04/23 09:09:52.8      -3    -14      8     15     17 191.6  31.4  34104  288.64 0855.21
2009/04/23 09:09:52.9       5    -34    -20     35     40 170.2 -36.8  34104  288.62 0855.21
2009/04/23 09:09:53.0      -1    -22    -47     23     52 182.7 -77.2  34100  288.57 0855.21
2009/04/23 09:09:53.1      14    -40    -33     43     54 160.8 -46.1  34100  288.57 0855.21
2009/04/23 09:09:53.2       7    -38    -24     39     45 168.4 -39.9  34100  288.57 0855.21
2009/04/23 09:09:53.3       7    -66     -2     67     68 173.8  -2.2  34100  288.55 0855.21
2009/04/23 09:09:53.4      21    -83    -26     86     89 165.3 -22.3  34100  288.57 0855.21
2009/04/23 09:09:53.5     -19    -88    -17     91     93 192.5 -10.9  34100  288.57 0855.21
2009/04/23 09:09:53.6      12    -62     -8     64     65 168.4  -7.3  34100  288.57 0855.21
2009/04/23 09:09:53.7      14    -73    -23     75     79 168.5 -17.0  34102  288.58 0855.21
2009/04/23 09:09:53.8      33    -82    -28     89     93 158.2 -22.8  34100  288.55 0855.21
2009/04/23 09:09:53.9      28    -87    -33     92     97 161.7 -23.8  34100  288.55 0855.21
2009/04/23 09:09:54.0      34    -82    -30     89     94 157.3 -18.7  34100  288.57 0855.21
2009/04/23 09:09:54.1      55    -55      7     78     79 135.0   5.4  34104  288.62 0855.21
2009/04/23 09:09:54.2      38    -28    -16     48     50 126.0 -23.6  34104  288.62 0855.21
2009/04/23 09:09:54.3      56    -26      7     62     63 115.2   6.9  34102  288.60 0855.21
2009/04/23 09:09:54.4      82    -14     33     84     90 100.1  22.0  34106  288.65 0855.21
2009/04/23 09:09:54.5      76     -5     36     77     85  94.4  26.6  34102  288.58 0855.21
2009/04/23 09:09:54.6      81    -22     46     85     96 105.5  30.8  34100  288.57 0855.21
2009/04/23 09:09:54.7      73    -48     48     88    100 123.3  31.3  34102  288.58 0855.21
2009/04/23 09:09:54.8      98    -60     41    115    122 121.5  20.4  34100  288.57 0855.21
2009/04/23 09:09:54.9      96    -76     42    123    131 128.2  18.9  34100  288.57 0855.21
2009/04/23 09:09:55.0     107    -89     42    140    147 129.6  16.8  34102  288.60 0855.21
2009/04/23 09:09:55.1     105    -84     48    135    143 128.6  20.0  34104  288.62 0855.21
2009/04/23 09:09:55.2     120    -93     53    152    162 127.8  19.2  34102  288.60 0855.21
2009/04/23 09:09:55.3      93   -113     56    147    157 140.3  21.7  34104  288.62 0855.21
2009/04/23 09:09:55.4     131    -89     41    159    165 124.2  14.7  34102  288.60 0855.21
2009/04/23 09:09:55.5     105    -93     60    141    153 131.3  24.1  34098  288.52 0855.21
2009/04/23 09:09:55.6     128    -36     80    134    156 105.9  34.0  34098  288.53 0855.21
2009/04/23 09:09:55.7     124    -25     69    127    144 101.5  31.3  34100  288.57 0855.21
2009/04/23 09:09:55.8     113    -21     75    115    137 100.6  36.0  34100  288.55 0855.21
2009/04/23 09:09:55.9     116    -19     40    118    125  99.7  18.9  34100  288.55 0855.21
2009/04/23 09:09:56.0     130    -71     23    149    151 118.8   9.0  34102  288.60 0855.21
2009/04/23 09:09:56.1     142    -60      7    155    156 113.1   2.8  34104  288.64 0855.21
2009/04/23 09:09:56.2     152    -89      1    177    178 120.4   0.5  34100  288.57 0855.21
2009/04/23 09:09:56.3     145   -144     96    205    226 134.8  27.1  34098  288.52 0855.21
2009/04/23 09:09:56.4     154   -158     36    221    225 135.7   9.3  34102  288.60 0855.21
2009/04/23 09:09:56.5      81   -128    108    152    186 147.5  39.3  34100  288.57 0855.21
2009/04/23 09:09:56.6      70   -126     74    145    162 151.0  29.1  34098  288.53 0855.21
2009/04/23 09:09:56.7      59   -152    112    164    198 158.6  37.6  34096  288.50 0855.21
2009/04/23 09:09:56.8      79   -133     96    155    182 149.2  35.0  34094  288.47 0855.21
2009/04/23 09:09:56.9     116   -151    123    191    227 142.6  35.6  34096  288.48 0855.21
2009/04/23 09:09:57.0     100   -156     69    186    198 147.3  21.0  34096  288.50 0855.21
2009/04/23 09:09:57.1      48   -133     66    142    156 160.0  26.6  34096  288.50 0855.21
2009/04/23 09:09:57.2      30   -165     51    168    176 169.5  17.1  34102  288.58 0855.21
2009/04/23 09:09:57.3      50   -186    110    193    222 164.8  32.1  34090  288.40 0855.21
2009/04/23 09:09:57.4      82   -211     77    227    240 158.8  18.9  34084  288.29 0855.21
2009/04/23 09:09:57.5      54   -174     68    183    195 162.6  20.7  34078  288.20 0855.21
2009/04/23 09:09:57.6      71   -128    120    147    189 151.1  43.7  34096  288.48 0855.21
2009/04/23 09:09:57.7      61   -140    117    153    192 156.4  41.2  34094  288.47 0855.21
2009/04/23 09:09:57.8      74   -117    120    139    183 147.4  45.4  34090  288.38 0855.21
2009/04/23 09:09:57.9     161    -93    140    187    233 120.0  40.4  34094  288.45 0855.21
2009/04/23 09:09:58.0      76    -92    121    120    170 140.4  49.9  34092  288.43 0855.21
2009/04/23 09:09:58.1     120    -81    130    146    195 124.1  46.2  34092  288.43 0855.21
2009/04/23 09:09:58.2      94   -186    160    209    263 153.0  41.2  34090  288.39 0855.21
2009/04/23 09:09:58.3      98   -163    177    191    260 149.0  47.9  34094  288.44 0855.21
2009/04/23 09:09:58.4      64   -204    159    214    266 162.6  40.1  34094  288.44 0855.21
2009/04/23 09:09:58.5      90   -143    164    170    236 147.7  49.0  34096  288.48 0855.21
2009/04/23 09:09:58.6      79   -117    124    142    188 146.2  45.8  34096  288.48 0855.21
2009/04/23 09:09:58.7       6   -137     74    138    156 177.3  30.3  34098  288.52 0855.21
2009/04/23 09:09:58.8      -5   -120     10    121    122 182.7   4.9  34098  288.52 0855.21
2009/04/23 09:09:58.9       0   -103     81    104    131 180.0  41.7  34098  288.53 0855.21
2009/04/23 09:09:59.0      11    -81    102     82    130 172.0  56.4  34100  288.55 0855.21
2009/04/23 09:09:59.1      -5   -118     49    119    128 182.7  23.6  34098  288.53 0855.21
2009/04/23 09:09:59.3      21    -93    -12     96     97 167.1  -7.3  34100  288.55 0855.21
2009/04/23 09:09:59.3      38    -85    -33     94    100 155.5 -19.7  34098  288.52 0855.21
2009/04/23 09:09:59.4      45    -90    -33    101    107 153.3 -18.1  34102  288.60 0855.21
2009/04/23 09:09:59.5      11   -141    -30    142    146 175.5 -11.9  34102  288.58 0855.21
2009/04/23 09:09:59.6      19   -132    -48    134    143 171.5 -19.7  34100  288.57 0855.21
2009/04/23 09:09:59.7      61   -112     24    128    131 151.5  11.0  34100  288.55 0855.21
2009/04/23 09:09:59.8      63   -125     73    141    158 153.3  29.5  34098  288.52 0855.21
2009/04/23 09:09:59.9      49    -87     57    101    115 150.6  31.9  34096  288.50 0855.21
2009/04/23 09:10:00.0       5   -100     46    101    110 176.9  26.6  34098  288.53 0855.21
2009/04/23 09:10:00.1      -2    -97     38     98    105 181.4  22.5  34098  288.52 0855.21
2009/04/23 09:10:00.2       5    -71     24     72     76 175.6  18.4  34098  288.52 0855.21
2009/04/23 09:10:00.3      15    -78      2     80     81 168.9   1.8  34100  288.55 0855.21
2009/04/23 09:10:00.4      16    -48     17     51     54 161.3  18.9  34100  288.55 0855.22
2009/04/23 09:10:00.5     -19    -56     21     60     64 198.7  19.2  34098  288.53 0855.22
2009/04/23 09:10:00.6     -22    -44      1     50     51 207.2   1.8  34096  288.50 0855.22
2009/04/23 09:10:00.7     -24    -54     11     60     62 203.6  11.1  34094  288.47 0855.22
2009/04/23 09:10:00.8      -2    -30      7     31     32 184.5  13.2  34096  288.48 0855.22
2009/04/23 09:10:00.9       0    -30      7     31     32 180.9  13.2  34096  288.48 0855.22
2009/04/23 09:10:01.0      -7    -21      3     23     24 198.3   9.0  34096  288.48 0855.22
2009/04/23 09:10:01.1     -18    -11     -8     22     24 237.6 -19.7  34098  288.52 0855.22
2009/04/23 09:10:01.2      -5    -10     -6     12     13 209.0 -31.6  34096  288.50 0855.22
2009/04/23 09:10:01.3     -13    -22     -8     26     27 210.7 -23.8  34096  288.50 0855.22
2009/04/23 09:10:01.4      -8    -25      0     27     28 198.3  -1.3  34098  288.52 0855.22
2009/04/23 09:10:01.5      -2    -30      7     31     32 184.5  13.2  34096  288.48 0855.22
2009/04/23 09:10:01.6     -21    -31      1     38     39 214.3   2.9  34096  288.48 0855.22
2009/04/23 09:10:01.7     -51    -42     -2     67     68 230.5  -2.2  34102  288.60 0855.22
2009/04/23 09:10:01.8    -108    -47     -4    118    119 246.5  -2.2  34102  288.58 0855.22
2009/04/23 09:10:01.9    -103    -61      1    121    122 239.3   0.8  34104  288.64 0855.22
2009/04/23 09:10:02.0    -114    -68    -15    133    134 239.3  -6.7  34106  288.65 0855.22
2009/04/23 09:10:02.1    -110    -80    -38    137    143 234.1 -15.5  34110  288.72 0855.22
2009/04/23 09:10:02.2    -111    -84    -39    140    146 232.7 -15.5  34110  288.74 0855.22
2009/04/23 09:10:02.3     -88    -85    -24    123    126 226.0 -11.3  34112  288.75 0855.22
2009/04/23 09:10:02.4     -67    -79    -33    104    109 220.5 -23.3  34110  288.74 0855.22
2009/04/23 09:10:02.5     -57    -58    -55     82     98 224.5 -41.4  34106  288.67 0855.22
2009/04/23 09:10:02.6     -51    -54    -60     75     96 223.3 -47.7  34110  288.72 0855.22
2009/04/23 09:10:02.7     -73    -65    -33     98    103 228.2 -23.6  34104  288.64 0855.22
2009/04/23 09:10:02.8     -84    -61     -1    104    105 234.0  -0.7  34106  288.67 0855.22
2009/04/23 09:10:02.9     -88    -49      5    102    103 240.7   2.8  34116  288.84 0855.22
2009/04/23 09:10:03.0     -81    -56     14     99    101 235.4   8.0  34118  288.86 0855.22
2009/04/23 09:10:03.1     -54    -21     -2     59     60 248.3  -2.2  34114  288.80 0855.22
2009/04/23 09:10:03.2     -36    -32    -15     49     51 228.7 -22.8  34114  288.79 0855.22
2009/04/23 09:10:03.3     -13    -23    -40     27     48 210.7 -68.0  34108  288.70 0855.22
2009/04/23 09:10:03.4      14    -54    -46     56     72 164.9 -48.2  34106  288.67 0855.22
2009/04/23 09:10:03.6      37    -76    -69     85    109 153.7 -48.1  34104  288.62 0855.22
2009/04/23 09:10:03.6      55    -92    -69    108    128 148.8 -39.9  34102  288.60 0855.22
2009/04/23 09:10:03.7      69    -57    -30     90     96 129.5 -18.7  34104  288.62 0855.22
2009/04/23 09:10:03.8     113      8    -38    114    121  85.7 -18.7  34112  288.75 0855.22
2009/04/23 09:10:03.9      80     85    -86    118    146  43.2 -44.1  34110  288.72 0855.22
2009/04/23 09:10:04.0     134     85    -99    160    188  57.5 -39.4  34114  288.79 0855.22
2009/04/23 09:10:04.1      83    -83   -164    118    202 135.0 -65.2  34118  288.87 0855.22
2009/04/23 09:10:04.2      89    -46   -224    101    245 117.1 -78.4  34110  288.74 0855.22
2009/04/23 09:10:04.3     263    -13   -141    264    299  93.0 -34.7  34106  288.66 0855.22
2009/04/23 09:10:04.4     288    -49   -157    293    332  99.7 -35.0  34104  288.63 0855.22
2009/04/23 09:10:04.6     233    -30   -198    235    307  97.5 -48.7  34102  288.59 0855.22
2009/04/23 09:10:04.6     186    -68   -214    199    292 110.2 -56.6  34114  288.80 0855.22
2009/04/23 09:10:04.8     313    -54   -107    318    335  99.9 -23.6  34108  288.69 0855.22
2009/04/23 09:10:04.9     207   -103    -76    232    245 116.4 -18.3  34112  288.75 0855.22
2009/04/23 09:10:05.0     172    -48    -17    179    180 105.7  -5.6  34106  288.65 0855.22
2009/04/23 09:10:05.1     196    -69    -24    208    210 109.5  -6.7  34104  288.64 0855.22
2009/04/23 09:10:05.2     137    -52     20    147    149 110.8   8.0  34104  288.62 0855.22
2009/04/23 09:10:05.3     149    -59     71    161    175 111.7  25.3  34110  288.74 0855.22
2009/04/23 09:10:05.4     130    -51     -7    140    141 111.7  -3.2  34110  288.74 0855.22
2009/04/23 09:10:05.5     100    -65    -19    120    122 122.9  -9.3  34114  288.80 0855.23
2009/04/23 09:10:05.6     117    -79    -27    142    145 124.2 -10.9  34118  288.86 0855.23
2009/04/23 09:10:05.7      97    -49    -39    109    116 117.1 -19.7  34112  288.75 0855.23
2009/04/23 09:10:05.8      84    -40    -32     94     99 115.8 -23.3  34110  288.74 0855.23
2009/04/23 09:10:05.9      57     19     21     61     65  71.8  19.4  34108  288.70 0855.23
2009/04/23 09:10:06.0      73    -24    111     78    135 108.6  62.1  34114  288.80 0855.23
2009/04/23 09:10:06.1      99    -54    105    113    154 118.8  48.0  34112  288.75 0855.23
2009/04/23 09:10:06.2     171    -70    104    185    212 112.4  31.9  34098  288.52 0855.23
2009/04/23 09:10:06.3     183    -70     82    197    213 111.1  23.6  34100  288.57 0855.23
2009/04/23 09:10:06.4     104    -40     84    112    140 111.3  40.7  34106  288.65 0855.23
2009/04/23 09:10:06.5      63    -52     65     82    104 129.5  42.7  34106  288.65 0855.23
2009/04/23 09:10:06.6      64    -27     67     70     96 113.5  49.4  34108  288.70 0855.23
2009/04/23 09:10:06.7     102    -40     72    110    131 111.7  36.0  34104  288.62 0855.23
2009/04/23 09:10:06.8      91    -61     50    110    120 123.7  26.2  34102  288.58 0855.23
2009/04/23 09:10:06.9      18    -53     58     57     81 161.3  50.1  34104  288.64 0855.23
2009/04/23 09:10:07.0       8    -12     64     15     65 147.5  88.0  34110  288.74 0855.23
2009/04/23 09:10:07.1      29      5     40     30     50  78.5  58.5  34114  288.79 0855.23
2009/04/23 09:10:07.2      45    -11     45     47     65 104.2  49.0  34114  288.79 0855.23
2009/04/23 09:10:07.3      98    -26     67    102    122 105.0  36.5  34112  288.77 0855.23
2009/04/23 09:10:07.4      88    -42     87     98    131 115.4  45.9  34112  288.75 0855.23
2009/04/23 09:10:07.5      83    -41     62     93    111 116.6  36.5  34116  288.82 0855.23
2009/04/23 09:10:07.6      73     -6     37     74     82  95.2  28.2  34124  288.97 0855.23
2009/04/23 09:10:07.7      66    -22      7     70     71 108.6   5.9  34140  289.23 0855.23
2009/04/23 09:10:07.8      60     23    -56     65     85  69.2 -49.8  34162  289.60 0855.23
2009/04/23 09:10:07.9      56     22    -60     61     85  68.2 -54.9  34168  289.70 0855.23
2009/04/23 09:10:08.0      51     24    -57     57     80  64.6 -54.5  34166  289.67 0855.23
2009/04/23 09:10:08.1      47      8    -35     48     59  80.3 -44.1  34162  289.62 0855.23
2009/04/23 09:10:08.2      34      3    -33     35     48  83.9 -54.4  34160  289.58 0855.23
2009/04/23 09:10:08.3      20     -4    -32     21     38 103.3 -69.0  34162  289.60 0855.23
2009/04/23 09:10:08.4     -15    -26    -22     31     38 210.7 -42.0  34160  289.57 0855.23
2009/04/23 09:10:08.5     -26     -8    -19     28     33 251.6 -42.0  34156  289.52 0855.23
2009/04/23 09:10:08.6     -35     -8    -27     36     45 256.7 -45.1  34158  289.55 0855.23
2009/04/23 09:10:08.7     -39      3    -52     40     65 274.4 -62.9  34144  289.31 0855.23
2009/04/23 09:10:08.8     -62    -26    -59     68     90 247.4 -49.8  34130  289.06 0855.23
2009/04/23 09:10:08.9     -74    -24    -63     78    100 251.8 -47.7  34132  289.09 0855.23
2009/04/23 09:10:09.0     -86    -27    -36     91     97 252.3 -26.4  34130  289.08 0855.23
2009/04/23 09:10:09.1     -74    -18    -17     77     79 255.8 -12.9  34130  289.08 0855.23
2009/04/23 09:10:09.2     -34    -13    -29     37     47 248.3 -47.1  34126  288.99 0855.23
2009/04/23 09:10:09.3     -32      0     -9     33     35 270.0 -15.5  34128  289.02 0855.23
2009/04/23 09:10:09.4     -25    -28      1     38     39 221.4   2.9  34122  288.94 0855.23
2009/04/23 09:10:09.5     -50    -47      8     69     70 226.8   7.1  34112  288.77 0855.23
2009/04/23 09:10:09.6     -48    -40    -17     63     66 230.4 -15.4  34110  288.74 0855.23
2009/04/23 09:10:09.7     -63    -36    -17     73     76 240.2 -13.4  34112  288.75 0855.23
2009/04/23 09:10:09.8     -52    -36    -25     64     68 234.9 -25.4  34118  288.86 0855.23
2009/04/23 09:10:09.9     -41    -32    -27     53     59 232.2 -33.7  34118  288.86 0855.23
2009/04/23 09:10:10.0     -42    -15    -26     45     51 249.2 -36.8  34114  288.80 0855.23
2009/04/23 09:10:10.1     -51    -32    -17     61     63 237.5 -20.7  34112  288.75 0855.23
2009/04/23 09:10:10.2     -50    -10    -15     52     54 258.5 -21.7  34114  288.79 0855.23
2009/04/23 09:10:10.3     -59    -12     -7     61     62 258.5  -7.2  34116  288.82 0855.23
2009/04/23 09:10:10.4     -44    -14     -1     47     48 251.6  -1.3  34116  288.84 0855.23
2009/04/23 09:10:10.5     -35     -7     17     36     39 258.5  26.2  34114  288.80 0855.23
2009/04/23 09:10:10.6     -22      0     31     23     38 270.0  58.5  34114  288.80 0855.23
2009/04/23 09:10:10.7      -7      6     31     10     32 313.1  80.7  34114  288.80 0855.23
2009/04/23 09:10:10.8     -11      0     26     12     28 270.0  75.0  34114  288.80 0855.23
2009/04/23 09:10:10.9       0     -7     20      8     21 182.7  77.1  34120  288.89 0855.23
2009/04/23 09:10:11.0      16      0     17     17     24  90.0  50.1  34118  288.86 0855.23
2009/04/23 09:10:11.1      -1      6     27      7     27 350.3  82.8  34114  288.80 0855.23
2009/04/23 09:10:11.2      -3     14     29     15     32 344.9  70.8  34120  288.89 0855.23
2009/04/23 09:10:11.3      -1     20     25     21     32 355.5  56.3  34116  288.84 0855.23
2009/04/23 09:10:11.4       0     15     27     16     31 357.3  66.8  34118  288.86 0855.23
2009/04/23 09:10:11.5       0     15     20     16     25 357.3  56.4  34116  288.84 0855.23
2009/04/23 09:10:11.6       0     23     21     24     31 359.1  45.8  34118  288.87 0855.23
2009/04/23 09:10:11.7      16     23     12     29     31  34.3  23.0  34118  288.87 0855.23
2009/04/23 09:10:11.8      23     19      2     31     32  50.5   4.9  34118  288.86 0855.23
2009/04/23 09:10:11.9      24     14     -8     28     30  59.3 -15.5  34116  288.82 0855.23
2009/04/23 09:10:12.0      17      5     -5     18     19  71.4 -15.5  34118  288.87 0855.23
2009/04/23 09:10:12.1      17      0     -9     18     20  90.0 -33.7  34118  288.87 0855.23
2009/04/23 09:10:12.2       9     -3     -2     10     11 108.4 -11.3  34116  288.84 0855.23
2009/04/23 09:10:12.3       5    -12      6     14     15 158.2  23.0  34116  288.82 0855.23
2009/04/23 09:10:12.4       3    -18      0     19     20 168.4  -1.3  34112  288.77 0855.23
2009/04/23 09:10:12.5       9    -26     -3     28     29 160.0  -7.2  34114  288.79 0855.23
2009/04/23 09:10:12.6      23    -32    -12     40     42 143.9 -16.6  34118  288.86 0855.23
2009/04/23 09:10:12.7      29     18    -18     35     39  57.6 -31.7  34130  289.06 0855.23
2009/04/23 09:10:12.8      57    -19    -18     61     63 108.4 -21.7  34130  289.08 0855.23
2009/04/23 09:10:12.9      49    -27    -16     57     60 118.9 -15.5  34128  289.02 0855.23
2009/04/23 09:10:13.0      37    -33    -11     50     52 132.2 -12.4  34122  288.92 0855.23
2009/04/23 09:10:13.1      48    -44    -13     66     68 132.2 -11.3  34126  288.99 0855.23
2009/04/23 09:10:13.2      59    -25    -46     65     79 113.5 -43.0  34148  289.36 0855.23
2009/04/23 09:10:13.3      48    -27    -46     56     72 119.8 -48.2  34148  289.36 0855.23
2009/04/23 09:10:13.4      73    -46    -55     87    102 122.0 -39.9  34138  289.19 0855.23
2009/04/23 09:10:13.5      32    -58    -30     67     73 151.0 -30.6  34134  289.14 0855.24
2009/04/23 09:10:13.6      34    -76      3     84     85 155.9   2.3  34126  288.99 0855.24
2009/04/23 09:10:13.7      29    -78     27     84     89 159.1  17.9  34118  288.86 0855.24
2009/04/23 09:10:13.8      38    -74     58     84    102 152.8  38.6  34112  288.75 0855.24
2009/04/23 09:10:13.9      57    -75     51     95    107 142.6  30.3  34116  288.82 0855.24
2009/04/23 09:10:14.0      72    -54     56     90    106 126.9  35.5  34112  288.77 0855.24
2009/04/23 09:10:14.1      85    -36     57     93    109 113.1  35.0  34110  288.74 0855.24
2009/04/23 09:10:14.2     114    -28     77    118    140 104.2  36.0  34126  289.01 0855.24
2009/04/23 09:10:14.3     162     13     45    163    170  85.2  15.6  34162  289.60 0855.24
2009/04/23 09:10:14.4     147     -2     49    148    156  90.8  18.4  34158  289.55 0855.24
2009/04/23 09:10:14.5     156     11     79    157    175  85.6  28.7  34160  289.58 0855.24
2009/04/23 09:10:14.6     208     25      2    210    211  83.0   0.8  34160  289.58 0855.24
2009/04/23 09:10:14.7      94     31     54    100    113  71.6  31.3  34172  289.77 0855.24
2009/04/23 09:10:14.8      49     49     35     70     78  45.1  27.3  34172  289.79 0855.24
2009/04/23 09:10:14.9      29     24     54     38     66  50.4  61.5  34170  289.75 0855.24
2009/04/23 09:10:15.0      52      8     68     53     86  81.2  58.5  34172  289.77 0855.24
2009/04/23 09:10:15.1      12     40     33     42     53  16.9  43.7  34170  289.74 0855.24
2009/04/23 09:10:15.2      -7     36     32     37     48 348.4  46.9  34166  289.67 0855.24
2009/04/23 09:10:15.3     -22     56     16     61     64 338.2  15.3  34166  289.67 0855.24
2009/04/23 09:10:15.4     -26     40     20     48     52 326.6  24.1  34168  289.70 0855.24
2009/04/23 09:10:15.5     -39     31     20     51     54 308.6  21.0  34174  289.80 0855.25
2009/04/23 09:10:15.6     -26     13     33     30     44 297.1  52.2  34180  289.91 0855.25
2009/04/23 09:10:15.7     -32     21     29     39     48 304.2  40.7  34176  289.85 0855.25
2009/04/23 09:10:15.8     -39     22     20     46     50 299.8  26.2  34170  289.75 0855.25
2009/04/23 09:10:15.9     -39     22     13     45     47 299.8  16.3  34166  289.67 0855.25
2009/04/23 09:10:16.0     -42     26      9     50     51 302.4  11.1  34160  289.58 0855.25
2009/04/23 09:10:16.1     -24     24      6     35     36 315.0  11.1  34156  289.50 0855.25
2009/04/23 09:10:16.2     -18     30      7     36     37 329.3  11.1  34156  289.50 0855.25
2009/04/23 09:10:16.3     -18     22      8     29     31 320.4  15.3  34152  289.45 0855.25
2009/04/23 09:10:16.4     -24     14     -1     29     30 300.7  -2.2  34150  289.41 0855.25
2009/04/23 09:10:16.5     -33      2    -13     34     36 274.4 -23.3  34146  289.35 0855.25
2009/04/23 09:10:16.6     -38     12     -1     41     42 288.4  -2.2  34148  289.36 0855.25
2009/04/23 09:10:16.7     -56     -2     -6     57     58 267.4  -6.2  34152  289.43 0855.25
2009/04/23 09:10:16.8     -32     -2    -12     33     35 265.7 -23.3  34150  289.40 0855.25
2009/04/23 09:10:16.9     -35    -22    -26     42     49 237.6 -39.9  34150  289.40 0855.25
2009/04/23 09:10:17.0      -7    -32    -29     33     43 193.4 -51.3  34154  289.48 0855.25
2009/04/23 09:10:17.1       2    -26    -18     27     32 175.6 -40.0  34156  289.50 0855.25
2009/04/23 09:10:17.2       8     -8    -24     12     26 133.1 -75.2  34158  289.53 0855.25
2009/04/23 09:10:17.3       1    -10    -18     11     21 172.0 -71.2  34160  289.57 0855.25
2009/04/23 09:10:17.4     -32    -23    -14     40     43 234.0 -19.7  34160  289.58 0855.25
2009/04/23 09:10:17.5     -30    -34     -9     46     47 222.3 -11.3  34164  289.65 0855.25
2009/04/23 09:10:17.6     -33    -40    -15     52     55 219.6 -16.6  34170  289.74 0855.25
2009/04/23 09:10:17.7      -1    -29     -1     30     31 182.6  -2.2  34166  289.67 0855.25
2009/04/23 09:10:17.8      22    -27     22     36     42 140.4  34.4  34162  289.60 0855.25
2009/04/23 09:10:17.9      56    -27     37     63     73 116.2  33.5  34154  289.48 0855.25
2009/04/23 09:10:18.0      59    -40     32     72     78 124.2  25.1  34144  289.31 0855.25
2009/04/23 09:10:18.1      65    -44     41     79     89 124.2  29.8  34140  289.23 0855.25
2009/04/23 09:10:18.2      88    -51     39    102    109 120.2  21.5  34136  289.18 0855.25
2009/04/23 09:10:18.3      32    -35     54     48     72 137.7  53.3  34146  289.33 0855.25
2009/04/23 09:10:18.4       3    -49     72     50     87 176.4  62.1  34144  289.30 0855.25
2009/04/23 09:10:18.5       0    -81     76     82    111 179.5  47.9  34130  289.08 0855.25
2009/04/23 09:10:18.6       5    -66     74     67     99 175.5  52.7  34138  289.21 0855.25
2009/04/23 09:10:18.7       9    -58     72     59     93 171.1  56.4  34140  289.23 0855.25
2009/04/23 09:10:18.8     -16    -78     54     80     96 191.6  37.0  34164  289.65 0855.25
2009/04/23 09:10:18.9      -7    -90     31     91     97 184.5  18.9  34170  289.74 0855.25
2009/04/23 09:10:19.0      16    -86     60     88    106 169.3  37.6  34138  289.21 0855.25
2009/04/23 09:10:19.1      11    -88     73     89    115 172.4  43.7  34112  288.77 0855.25
2009/04/23 09:10:19.2      -7    -87     59     88    105 184.9  36.5  34118  288.87 0855.25
2009/04/23 09:10:19.3       0    -48     73     49     87 180.9  63.2  34126  288.99 0855.25
2009/04/23 09:10:19.4      17     -9     57     20     60 118.9  81.2  34124  288.97 0855.25
2009/04/23 09:10:19.5      -1    -12     42     13     43 184.5  81.8  34126  289.01 0855.25
2009/04/23 09:10:19.6       3    -46     38     47     60 175.5  43.7  34132  289.09 0855.25
2009/04/23 09:10:19.7      10    -51     38     53     65 168.4  39.5  34146  289.33 0855.25
2009/04/23 09:10:19.8      27    -31     26     42     49 139.5  35.5  34130  289.08 0855.25
2009/04/23 09:10:19.9      15    -19     29     25     38 140.4  54.3  34126  289.01 0855.25
2009/04/23 09:10:20.0      11    -10     31     16     34 133.3  70.8  34130  289.08 0855.25
2009/04/23 09:10:20.1      -8      0     17      9     19 270.0  68.8  34130  289.08 0855.25
2009/04/23 09:10:20.2      -5     10     13     12     17 331.0  48.2  34130  289.08 0855.25
2009/04/23 09:10:20.3      13     -8     20     16     25 122.4  56.4  34132  289.11 0855.25
2009/04/23 09:10:20.4       5      4     13      7     14  50.5  64.7  34130  289.08 0855.25
2009/04/23 09:10:20.5      10     10     17     15     22  43.2  52.2  34128  289.02 0855.25
2009/04/23 09:10:20.6      13     16     27     21     34  39.6  56.4  34124  288.97 0855.25
2009/04/23 09:10:20.7      16     -3     38     17     41 101.5  75.0  34118  288.87 0855.25
2009/04/23 09:10:20.8      13      2     28     14     31  78.5  72.8  34116  288.82 0855.25
2009/04/23 09:10:20.9       3     14     25     15     29  15.1  64.7  34122  288.94 0855.25
2009/04/23 09:10:21.0     -13     -4     23     14     26 251.4  64.7  34132  289.09 0855.25
2009/04/23 09:10:21.1      -3      8     36      9     37 334.6  86.9  34124  288.96 0855.25
2009/04/23 09:10:21.2      23     -4     42     24     48  99.7  66.8  34124  288.96 0855.25
2009/04/23 09:10:21.3      44     27     41     52     66  58.5  42.7  34134  289.14 0855.25
2009/04/23 09:10:21.4       8     -1     63      9     63 101.5  90.0  34164  289.63 0855.25
2009/04/23 09:10:21.5     -26      8     47     28     54 286.8  65.7  34158  289.53 0855.24
2009/04/23 09:10:21.6       0      0     34      0     34   0.0 -90.0  34160  289.58 0855.24
2009/04/23 09:10:21.7      14     17     42     23     47  39.6  68.8  34168  289.70 0855.24
2009/04/23 09:10:21.8      12      8     34     15     37  57.6  75.0  34164  289.63 0855.24
2009/04/23 09:10:21.9      14     10     36     18     40  54.0  70.8  34166  289.67 0855.24
2009/04/23 09:10:22.0      20    -10     47     23     52 117.1  72.8  34164  289.63 0855.24
2009/04/23 09:10:22.1      35      7     42     36     55  78.5  55.4  34158  289.53 0855.24
2009/04/23 09:10:22.2      34     20     54     40     67  58.5  60.5  34148  289.36 0855.24
2009/04/23 09:10:22.3       0      3     42      4     42   4.5  90.0  34148  289.38 0855.24
2009/04/23 09:10:22.4     -10     11     42     16     44 316.6  79.2  34146  289.33 0855.24
2009/04/23 09:10:22.5      11     12     50     17     52  43.4  81.0  34146  289.33 0855.24
2009/04/23 09:10:22.6       3     33     24     34     41   6.2  39.7  34148  289.38 0855.24
2009/04/23 09:10:22.7       4     20     12     21     24  13.4  31.4  34146  289.33 0855.24
2009/04/23 09:10:22.8       5     21     25     22     33  13.4  54.3  34140  289.24 0855.24
2009/04/23 09:10:22.9      -1     31     34     32     46 357.3  50.1  34140  289.24 0855.24
2009/04/23 09:10:23.0      16     27     35     32     47  30.7  52.2  34138  289.21 0855.24
2009/04/23 09:10:23.1      13     14     33     20     38  41.4  64.7  34138  289.19 0855.24
2009/04/23 09:10:23.2      31     10     28     33     43  71.8  45.8  34136  289.18 0855.24
2009/04/23 09:10:23.3      51     -3     38     52     64  93.5  39.7  34132  289.09 0855.24
2009/04/23 09:10:23.4      52    -17     39     55     67 108.4  39.5  34130  289.06 0855.24
2009/04/23 09:10:23.5      72     14     46     74     87  78.5  35.5  34120  288.91 0855.24
2009/04/23 09:10:23.6      67     32     39     75     84  64.6  29.8  34124  288.97 0855.24
2009/04/23 09:10:23.7      63     29     35     70     78  64.7  27.3  34136  289.18 0855.24
2009/04/23 09:10:23.8      40     42     17     59     62  43.2  16.3  34156  289.50 0855.24
2009/04/23 09:10:23.9      44     60     42     75     85  36.1  31.9  34170  289.75 0855.24
2009/04/23 09:10:24.0      35     63     25     73     78  28.9  18.9  34178  289.87 0855.24
2009/04/23 09:10:24.1      42     55     26     70     74  37.0  20.0  34178  289.89 0855.24
2009/04/23 09:10:24.2      34     58     33     68     75  30.7  27.3  34184  289.97 0855.24
2009/04/23 09:10:24.3      36     55     28     66     71  33.4  24.1  34186  290.02 0855.24
2009/04/23 09:10:24.4      72     77     28    106    110  43.3  15.2  34218  290.57 0855.24
2009/04/23 09:10:24.5      76    104      6    129    130  36.1   2.9  34204  290.33 0855.24
2009/04/23 09:10:24.6      92     71     18    117    119  52.2   9.0  34200  290.26 0855.24
2009/04/23 09:10:24.7      79     34     37     87     94  66.5  24.6  34202  290.28 0855.24
2009/04/23 09:10:24.8      59     22     31     64     71  69.2  27.3  34204  290.31 0855.24
2009/04/23 09:10:24.9      68      7     40     69     79  83.9  32.9  34204  290.31 0855.24
2009/04/23 09:10:25.0      64     -6     49     65     81  96.1  41.2  34224  290.65 0855.24
2009/04/23 09:10:25.1      69      9     72     70    100  82.1  50.7  34238  290.89 0855.24
2009/04/23 09:10:25.2      67      9     87     68    110  82.1  57.9  34238  290.89 0855.24
2009/04/23 09:10:25.3      68    -12     70     70     98 100.6  50.1  34226  290.69 0855.24
2009/04/23 09:10:25.4      72     -5     63     73     96  94.4  45.4  34220  290.60 0855.24
2009/04/23 09:10:25.5      50     -5     77     51     92  96.1  63.6  34222  290.64 0855.24
2009/04/23 09:10:25.6      63      8     90     64    110  82.1  60.6  34222  290.62 0855.24
2009/04/23 09:10:25.7      51     21     80     56     97  67.4  62.1  34220  290.60 0855.24
2009/04/23 09:10:25.8      55     22     74     60     95  68.3  56.4  34208  290.40 0855.24
2009/04/23 09:10:25.9       8    -14     63     17     65 151.0  84.9  34198  290.21 0855.24
2009/04/23 09:10:26.0      -9     15     58     18     60 327.5  81.8  34198  290.21 0855.24
2009/04/23 09:10:26.1      15     12     60     20     63  52.2  81.0  34188  290.04 0855.24
2009/04/23 09:10:26.2      25     28     44     38     58  41.4  54.3  34194  290.16 0855.24
2009/04/23 09:10:26.3      -1     23     25     24     34 355.5  48.2  34174  289.82 0855.24
2009/04/23 09:10:26.4     -17    -11     18     21     27 237.5  45.8  34166  289.67 0855.24
2009/04/23 09:10:26.5       3     -3     32      5     32 135.0  90.0  34156  289.52 0855.23
2009/04/23 09:10:26.6      15    -11     29     19     34 126.0  64.6  34164  289.65 0855.23
2009/04/23 09:10:26.7     -14    -27     24     31     39 207.2  43.7  34170  289.74 0855.23
2009/04/23 09:10:26.8      -3      0     22      4     22 270.0  90.0  34176  289.84 0855.23
2009/04/23 09:10:26.9      -1     -9      3     10     11 188.0  19.2  34182  289.94 0855.23
2009/04/23 09:10:27.0       4     -5      6      7      9 136.6  52.0  34186  290.01 0855.23
2009/04/23 09:10:27.1      10     -3     11     11     15 108.4  50.1  34190  290.08 0855.23
2009/04/23 09:10:27.2      -1     10      3     11     12 352.0  19.2  34188  290.06 0855.23
2009/04/23 09:10:27.3     -24     14     -1     29     30 300.7  -2.2  34194  290.14 0855.23
2009/04/23 09:10:27.4     -51     34     -6     62     63 304.2  -6.2  34208  290.38 0855.23
2009/04/23 09:10:27.5     -47     10     -9     49     50 282.4 -11.3  34218  290.57 0855.23
2009/04/23 09:10:27.6     -35     10    -14     37     39 286.8 -23.3  34218  290.57 0855.23
2009/04/23 09:10:27.7     -23     25    -28     35     44 316.8 -47.1  34202  290.28 0855.23
2009/04/23 09:10:27.8     -28     44    -28     53     59 327.4 -34.7  34206  290.35 0855.23
2009/04/23 09:10:27.9     -38     59    -37     71     80 327.5 -34.2  34240  290.94 0855.23
2009/04/23 09:10:28.0     -43     67    -26     80     84 327.4 -23.8  34266  291.37 0855.23
2009/04/23 09:10:28.1     -16     59    -20     62     65 344.8 -23.8  34266  291.37 0855.23
2009/04/23 09:10:28.2      -9     72    -20     73     76 352.9 -15.5  34272  291.49 0855.23
2009/04/23 09:10:28.3     -84     13    -29     85     89 278.8 -23.3  34254  291.16 0855.23
2009/04/23 09:10:28.4     -35      2      7     36     37 274.4  11.0  34258  291.23 0855.23
2009/04/23 09:10:28.5     -16     18     17     25     30 318.6  37.6  34262  291.30 0855.23
2009/04/23 09:10:28.6       5     36      5     37     38   8.0   9.0  34266  291.37 0855.23
2009/04/23 09:10:28.7      30     47     32     56     64  32.5  32.4  34262  291.32 0855.23
2009/04/23 09:10:28.8      17     44     31     48     57  20.9  35.6  34264  291.35 0855.23
2009/04/23 09:10:28.9      -8     64     25     65     69 352.9  22.0  34268  291.40 0855.23
2009/04/23 09:10:29.0     -10     71     42     72     83 352.0  32.9  34274  291.52 0855.23
2009/04/23 09:10:29.1      17     64     44     67     80  15.2  36.5  34272  291.47 0855.23
2009/04/23 09:10:29.2      30     65     58     72     92  25.4  43.7  34274  291.50 0855.23
2009/04/23 09:10:29.3      27     81     61     86    105  18.7  39.1  34276  291.55 0855.23
2009/04/23 09:10:29.4       7     94     47     95    105   4.4  28.2  34276  291.55 0855.23
2009/04/23 09:10:29.5     -33     71     30     79     84 334.7  21.0  34270  291.43 0855.23
2009/04/23 09:10:29.6     -51     63     15     82     84 320.8  10.6  34268  291.40 0855.23
2009/04/23 09:10:29.7     -40     83     -6     93     94 334.1  -4.1  34264  291.35 0855.23
2009/04/23 09:10:29.8     -16     81     14     83     85 348.4   9.5  34266  291.37 0855.23
2009/04/23 09:10:29.9      -5     70     14     71     73 355.6  11.1  34264  291.33 0855.23
2009/04/23 09:10:30.0       8     61     20     62     66   8.0  18.4  34260  291.28 0855.23
2009/04/23 09:10:30.1       3     69     13     70     72   2.7  11.1  34250  291.09 0855.23
2009/04/23 09:10:30.2      18     60     22     63     67  16.9  19.2  34242  290.96 0855.23
2009/04/23 09:10:30.3      40     57     24     70     75  35.2  18.9  34238  290.89 0855.23
2009/04/23 09:10:30.5       7     36     26     37     45  11.6  37.6  34246  291.03 0855.23
2009/04/23 09:10:30.5     -39     42     16     58     61 316.8  15.3  34250  291.11 0855.23
2009/04/23 09:10:30.6     -41     31     20     52     55 307.8  21.0  34254  291.16 0855.23
2009/04/23 09:10:30.7     -19     21      8     29     31 316.6  15.3  34246  291.03 0855.23
2009/04/23 09:10:30.9     -15     26     25     31     39 329.3  43.7  34246  291.04 0855.23
2009/04/23 09:10:30.9       0     17     14     18     22 357.3  43.7  34242  290.96 0855.23
2009/04/23 09:10:31.0      31     14     24     35     42  64.7  37.6  34218  290.57 0855.23
2009/04/23 09:10:31.2       6     21     24     23     33  16.9  48.2  34210  290.43 0855.23
2009/04/23 09:10:31.3      -8    -13     25     16     29 212.5  64.7  34212  290.45 0855.23
2009/04/23 09:10:31.4      10    -22     41     25     48 154.6  64.7  34204  290.31 0855.23
2009/04/23 09:10:31.5      25    -25     24     36     43 135.0  37.6  34192  290.11 0855.23
2009/04/23 09:10:31.6       9    -32      8     34     35 163.1  13.2  34180  289.92 0855.23
2009/04/23 09:10:31.7      -8    -55     45     56     71 188.9  43.7  34190  290.09 0855.23
2009/04/23 09:10:31.8     -41    -44     71     61     93 223.2  54.8  34194  290.14 0855.23
2009/04/23 09:10:31.9      -3    -35     69     36     77 186.2  70.8  34140  289.24 0855.23
2009/04/23 09:10:32.0      12     -8     53     15     55 122.4  83.9  34124  288.96 0855.23
2009/04/23 09:10:32.1      15     -8     49     18     52 118.9  80.2  34116  288.82 0855.23
2009/04/23 09:10:32.2     -12    -63     93     65    113 191.5  62.1  34108  288.69 0855.23
2009/04/23 09:10:32.3      -9    -66     95     67    116 188.0  61.5  34110  288.72 0855.23
2009/04/23 09:10:32.4      -3    -70     75     71    103 182.7  51.6  34104  288.64 0855.23
2009/04/23 09:10:32.5     -15    -58     72     61     94 195.1  55.4  34104  288.64 0855.23
2009/04/23 09:10:32.6     -20    -90     94     93    132 192.9  50.1  34102  288.60 0855.21
2009/04/23 09:10:32.7       8    -87    108     88    139 174.2  56.4  34112  288.75 0855.21
2009/04/23 09:10:32.8      21    -37     74     43     85 150.1  67.2  34126  288.99 0855.21
2009/04/23 09:10:32.9      -8    -40     90     41     98 191.6  74.0  34112  288.77 0855.21
2009/04/23 09:10:33.0      -4    -53     83     54     99 184.5  64.1  34114  288.79 0855.21
2009/04/23 09:10:33.1     -60    -16     50     63     80 254.9  42.7  34126  289.01 0855.21
2009/04/23 09:10:33.2     -57     -4     38     58     69 265.7  35.6  34142  289.28 0855.21
2009/04/23 09:10:33.3     -48    -50     66     70     96 224.2  49.0  34130  289.06 0855.21
2009/04/23 09:10:33.4     -32    -64     49     72     87 207.2  37.0  34124  288.97 0855.21
2009/04/23 09:10:33.5     -27    -41     42     50     65 213.4  43.8  34124  288.96 0855.21
2009/04/23 09:10:33.6      64    -46     60     79     99 125.9  40.7  34144  289.31 0855.21
2009/04/23 09:10:33.7      66    -21    106     70    127 107.7  63.6  34142  289.28 0855.21
2009/04/23 09:10:33.8      76    -24     80     80    113 108.2  50.1  34128  289.02 0855.21
2009/04/23 09:10:33.9      61    -44     57     76     95 126.0  40.7  34108  288.69 0855.21
2009/04/23 09:10:34.0      44    -60     57     75     94 144.0  41.2  34104  288.62 0855.21
2009/04/23 09:10:34.1      16    -67     63     69     93 166.6  47.9  34102  288.60 0855.21
2009/04/23 09:10:34.2       7    -91     53     92    106 175.5  32.4  34112  288.75 0855.21
2009/04/23 09:10:34.3      13    -88     53     90    104 171.1  33.5  34116  288.84 0855.21
2009/04/23 09:10:34.4      18    -88     58     90    107 168.4  35.6  34106  288.65 0855.21
2009/04/23 09:10:34.5       0   -114     84    115    142 180.5  39.7  34112  288.75 0855.21
2009/04/23 09:10:34.6       2   -114     75    115    137 179.0  36.0  34118  288.86 0855.20
2009/04/23 09:10:34.7      17   -124     54    126    137 172.0  24.6  34116  288.84 0855.20
2009/04/23 09:10:34.8       1   -107     76    108    132 179.1  38.6  34112  288.75 0855.20
2009/04/23 09:10:34.9      -8   -102     57    103    117 184.5  31.4  34114  288.80 0855.20
2009/04/23 09:10:35.0     -19    -89     69     92    115 192.5  40.1  34118  288.87 0855.20
2009/04/23 09:10:35.1     -17    -88     78     90    119 191.1  45.8  34118  288.86 0855.20
2009/04/23 09:10:35.2     -28   -107     55    111    123 194.7  28.7  34120  288.89 0855.20
2009/04/23 09:10:35.3     -34    -90     44     97    106 200.9  26.2  34124  288.96 0855.20
2009/04/23 09:10:35.4     -18    -82     24     85     89 192.9  16.3  34126  288.99 0855.20
2009/04/23 09:10:35.5      -2    -82     25     83     87 181.4  16.8  34126  288.99 0855.20
2009/04/23 09:10:35.6       4    -70     38     71     80 176.4  30.3  34122  288.94 0855.20
2009/04/23 09:10:35.7      -7    -55     24     56     60 188.0  24.1  34120  288.89 0855.20
2009/04/23 09:10:35.8     -22    -39     45     46     64 209.9  51.1  34118  288.87 0855.20
2009/04/23 09:10:35.9       0    -44     41     45     60 180.0  47.9  34118  288.86 0855.20
2009/04/23 09:10:36.0      -1    -53     33     54     63 181.8  34.4  34118  288.87 0855.20
2009/04/23 09:10:36.1     -15    -63     26     65     70 193.4  23.0  34124  288.96 0855.20
2009/04/23 09:10:36.2      -8    -71     31     72     78 187.1  24.1  34134  289.13 0855.20
2009/04/23 09:10:36.3       7    -68     27     69     74 173.8  22.0  34130  289.06 0855.20
2009/04/23 09:10:36.4      15    -64     33     66     73 166.6  27.3  34128  289.04 0855.20
2009/04/23 09:10:36.5      27    -35     29     45     53 143.0  35.6  34144  289.30 0855.20
2009/04/23 09:10:36.6      26    -23     26     35     43 131.3  40.7  34172  289.79 0855.19
2009/04/23 09:10:36.7      28    -15     40     32     51 118.9  56.4  34158  289.55 0855.19
2009/04/23 09:10:36.8      32     -2     56     33     65  94.4  66.8  34154  289.48 0855.19
2009/04/23 09:10:36.9       0    -22     60     23     64 180.9  79.2  34152  289.43 0855.19
2009/04/23 09:10:37.0     -25    -16     51     30     59 237.5  65.7  34152  289.45 0855.19
2009/04/23 09:10:37.1     -23     -7     31     25     39 251.6  56.4  34154  289.48 0855.19
2009/04/23 09:10:37.2     -27     12     26     30     39 295.2  45.8  34162  289.62 0855.19
2009/04/23 09:10:37.3     -30     -9     17     32     36 251.8  29.3  34160  289.57 0855.19
2009/04/23 09:10:37.4     -24     -4     16     25     29 260.3  35.5  34154  289.48 0855.19
2009/04/23 09:10:37.5     -22      0      3     23     24 270.0   9.0  34156  289.52 0855.19
2009/04/23 09:10:37.6     -22     11      0     25     26 297.1  -1.3  34152  289.43 0855.19
2009/04/23 09:10:37.7     -28     11      2     31     32 291.7   4.9  34154  289.46 0855.19
2009/04/23 09:10:37.8     -24      9     -3     26     27 291.7  -7.2  34158  289.55 0855.19
2009/04/23 09:10:37.9       5     -4      5      7      8 133.3  43.7  34188  290.04 0855.19
2009/04/23 09:10:38.0     -10      9     -4     14     14 313.3 -23.8  34192  290.11 0855.19
2009/04/23 09:10:38.1      -1     20     -8     21     22 355.5 -25.4  34192  290.11 0855.19
2009/04/23 09:10:38.2     -17      9    -16     20     25 297.1 -48.1  34198  290.21 0855.19
2009/04/23 09:10:38.3     -17     15    -11     23     25 311.3 -31.6  34208  290.40 0855.19
2009/04/23 09:10:38.4     -58     -9    -23     59     63 261.2 -26.4  34212  290.45 0855.19
2009/04/23 09:10:38.5     -71      4     -3     72     73 273.5  -3.1  34218  290.55 0855.19
2009/04/23 09:10:38.6      -4     37    -15     38     40 353.8 -26.4  34212  290.45 0855.20
2009/04/23 09:10:38.7      30     16    -13     35     37  61.1 -23.3  34210  290.43 0855.20
2009/04/23 09:10:38.8      38     31     13     50     52  50.5  15.3  34208  290.40 0855.20
2009/04/23 09:10:38.9      59     43     34     74     81  54.0  26.2  34208  290.40 0855.20
2009/04/23 09:10:39.0      60     44     33     75     81  54.0  25.1  34208  290.40 0855.20
2009/04/23 09:10:39.1      64     38     41     75     85  59.3  31.4  34214  290.50 0855.20
2009/04/23 09:10:39.2      38     21     52     44     68  61.1  55.4  34210  290.43 0855.20
2009/04/23 09:10:39.3      18     -2     53     19     56  97.9  81.2  34206  290.36 0855.20
2009/04/23 09:10:39.4      -1      6     54      7     54 350.3  90.0  34210  290.43 0855.20
2009/04/23 09:10:39.5     -11     18     49     22     53 329.3  75.0  34214  290.48 0855.20
2009/04/23 09:10:39.6      -5     23     42     24     48 346.6  66.8  34208  290.40 0855.20
2009/04/23 09:10:39.7      11     43     58     45     73  14.3  57.5  34190  290.09 0855.20
2009/04/23 09:10:39.8      27     -2     85     28     89  94.3  80.7  34176  289.85 0855.20
2009/04/23 09:10:39.9      70      7     75     71    103  83.9  51.6  34170  289.74 0855.20
2009/04/23 09:10:40.0      32    -27     54     43     69 130.4  56.4  34168  289.72 0855.20
2009/04/23 09:10:40.1      58    -23     59     63     86 111.8  48.5  34166  289.69 0855.20
2009/04/23 09:10:40.2      81    -13     74     83    111  99.7  46.4  34164  289.63 0855.20
2009/04/23 09:10:40.3      26     -4     55     27     61  99.7  72.8  34172  289.77 0855.20
2009/04/23 09:10:40.4       0    -16     29     17     33 182.7  66.8  34172  289.79 0855.20
2009/04/23 09:10:40.5     -46     -2     -6     47     48 267.4  -7.3  34192  290.13 0855.20
2009/04/23 09:10:40.6     -51     -3     -5     52     53 265.6  -6.2  34188  290.06 0855.19
2009/04/23 09:10:40.7     -43    -19    -23     48     53 245.6 -31.6  34204  290.31 0855.19
2009/04/23 09:10:40.8     -42    -14    -28     45     53 251.4 -39.9  34208  290.38 0855.19
2009/04/23 09:10:40.9     -42    -24    -26     49     55 240.2 -34.7  34200  290.26 0855.19
2009/04/23 09:10:41.0     -30    -12    -22     33     39 248.3 -40.9  34194  290.16 0855.19
2009/04/23 09:10:41.1     -27      0    -13     28     30 270.0 -31.5  34182  289.96 0855.19
2009/04/23 09:10:41.2     -32     -6     -9     33     35 258.5 -15.5  34182  289.96 0855.19
2009/04/23 09:10:41.3     -32    -15      1     36     37 244.7   2.8  34176  289.85 0855.19
2009/04/23 09:10:41.4     -24      0    -28     25     37 270.0 -56.6  34176  289.85 0855.19
2009/04/23 09:10:41.5      -7     10    -59     13     60 323.9 -90.0  34172  289.79 0855.19
2009/04/23 09:10:41.6      -5     16    -67     17     69 341.7 -89.3  34178  289.87 0855.19
2009/04/23 09:10:41.7      -4      7    -65      9     65 327.5 -90.0  34186  290.01 0855.19
2009/04/23 09:10:41.8      21      1    -45     22     50  85.6 -77.2  34184  289.97 0855.19
2009/04/23 09:10:41.9      64     48    -24     80     83  53.1 -22.3  34204  290.33 0855.19
2009/04/23 09:10:42.0      70     47    -47     85     97  55.8 -36.3  34208  290.38 0855.19
2009/04/23 09:10:42.1      57     47    -40     74     84  50.5 -35.8  34210  290.41 0855.19
2009/04/23 09:10:42.2      83     44    -29     95     99  62.0 -22.3  34206  290.35 0855.19
2009/04/23 09:10:42.3      59     63    -74     87    114  42.8 -49.2  34198  290.23 0855.19
2009/04/23 09:10:42.4      32     50    -46     60     75  32.5 -46.1  34200  290.25 0855.19
2009/04/23 09:10:42.5      19     72    -29     75     80  15.1 -26.9  34210  290.43 0855.19
2009/04/23 09:10:42.6      20     67    -27     71     75  16.9 -25.4  34226  290.70 0855.19
2009/04/23 09:10:42.7     -16     48     13     51     53 341.3  15.3  34220  290.58 0855.19
2009/04/23 09:10:42.8     -29     46     47     55     72 327.5  44.8  34200  290.25 0855.19
2009/04/23 09:10:42.9     -41     40     47     58     74 314.9  43.7  34196  290.19 0855.19
2009/04/23 09:10:43.0     -61      0     56     62     83 270.0  47.5  34192  290.13 0855.19
2009/04/23 09:10:43.1     -58     -4     44     59     73 265.7  40.7  34198  290.21 0855.19
2009/04/23 09:10:43.2     -36      0     18     37     41 270.0  27.2  34202  290.28 0855.19
2009/04/23 09:10:43.3     -29     10      2     31     32 290.0   4.9  34194  290.16 0855.19
2009/04/23 09:10:43.4     -21     16      9     27     29 307.8  18.9  34182  289.96 0855.19
2009/04/23 09:10:43.5       5      4     20      7     21  50.5  81.0  34180  289.92 0855.19
2009/04/23 09:10:43.6      20    -10     40     23     46 117.1  66.8  34168  289.72 0855.19
2009/04/23 09:10:43.7      25     -8     35     27     44 108.6  57.5  34168  289.70 0855.19
2009/04/23 09:10:43.8      -6    -21     37     23     43 196.9  64.7  34166  289.69 0855.19
2009/04/23 09:10:43.9      -1    -21     35     22     41 184.5  64.7  34166  289.69 0855.19
2009/04/23 09:10:44.0       4    -47     55     48     73 174.7  54.3  34168  289.72 0855.19
2009/04/23 09:10:44.1      -3    -38     76     39     85 184.5  70.8  34166  289.67 0855.19
2009/04/23 09:10:44.2     -15    -51     78     54     94 196.9  62.6  34164  289.63 0855.19
2009/04/23 09:10:44.3     -11    -53     77     55     94 191.6  61.1  34160  289.58 0855.19
2009/04/23 09:10:44.4      -1    -67     86     68    109 181.0  56.9  34160  289.58 0855.19
2009/04/23 09:10:44.5     -27    -93     82     98    127 196.5  43.8  34166  289.67 0855.19
2009/04/23 09:10:44.6     -32    -99     84    105    134 198.3  43.3  34166  289.67 0855.20
2009/04/23 09:10:44.7     -46   -119     63    128    142 201.4  27.8  34162  289.62 0855.20
2009/04/23 09:10:44.8     -14   -110     60    111    126 187.6  30.8  34156  289.52 0855.20
2009/04/23 09:10:44.9      -7   -112     48    113    122 184.0  24.1  34154  289.48 0855.20
2009/04/23 09:10:45.0      63    -63     80     90    120 135.0  46.4  34148  289.38 0855.20
2009/04/23 09:10:45.1      39    -73    105     83    133 151.9  57.5  34150  289.41 0855.20
2009/04/23 09:10:45.2     -24    -96    105    100    145 194.3  51.2  34148  289.36 0855.20
2009/04/23 09:10:45.3     -20   -103    121    106    160 191.1  54.3  34146  289.35 0855.20
2009/04/23 09:10:45.4     -28   -110    113    114    160 194.7  50.2  34150  289.41 0855.20
2009/04/23 09:10:45.5     -22   -125    120    128    175 190.2  48.0  34148  289.36 0855.20
2009/04/23 09:10:45.6     -31   -132    112    136    176 193.4  43.7  34150  289.40 0855.20
2009/04/23 09:10:45.7      -9   -117    128    118    174 184.5  52.2  34152  289.43 0855.20
2009/04/23 09:10:45.8      -2   -163    119    164    202 180.9  39.5  34144  289.30 0855.20
2009/04/23 09:10:45.9     -28   -167     80    170    187 189.8  27.1  34142  289.28 0855.20
2009/04/23 09:10:46.0     -22   -167     79    169    186 187.6  27.1  34142  289.26 0855.20
2009/04/23 09:10:46.1      11   -141    134    142    195 175.5  48.2  34152  289.45 0855.20
2009/04/23 09:10:46.2       0   -166     88    167    188 180.0  30.1  34132  289.09 0855.20
2009/04/23 09:10:46.3     -56   -129    107    141    177 203.6  41.2  34146  289.35 0855.20
2009/04/23 09:10:46.4     -47   -143    114    151    189 198.3  40.9  34144  289.31 0855.20
2009/04/23 09:10:46.5     -45   -157    106    164    195 196.0  36.0  34132  289.11 0855.20
2009/04/23 09:10:46.6     -61   -147     82    160    179 202.7  29.3  34132  289.09 0855.19
2009/04/23 09:10:46.7     -70   -177     81    191    207 201.8  24.6  34134  289.13 0855.19
2009/04/23 09:10:46.8     -90   -152     63    177    187 210.7  20.2  34130  289.06 0855.19
2009/04/23 09:10:46.9     -38   -156    129    161    206 193.8  43.3  34136  289.18 0855.19
2009/04/23 09:10:47.0     -52   -162    147    171    225 197.8  45.1  34136  289.16 0855.19
2009/04/23 09:10:47.1     -16   -124    133    126    183 187.6  51.6  34136  289.16 0855.19
2009/04/23 09:10:47.2     -44   -137    121    144    188 197.8  44.1  34138  289.19 0855.19
2009/04/23 09:10:47.3     -55   -159    109    169    201 199.2  35.7  34136  289.18 0855.19
2009/04/23 09:10:47.4     -81   -182    109    200    227 204.1  31.3  34136  289.18 0855.19
2009/04/23 09:10:47.5     -81   -195    104    212    236 202.7  28.2  34140  289.23 0855.19
2009/04/23 09:10:47.6     -69   -204    103    216    239 198.7  27.3  34140  289.24 0855.20
2009/04/23 09:10:47.7     -63   -213     65    223    233 196.5  16.4  34130  289.08 0855.20
2009/04/23 09:10:47.8     -36   -196    114    200    230 190.5  32.1  34136  289.16 0855.20
2009/04/23 09:10:47.9     -48   -201    123    207    240 193.4  33.5  34138  289.21 0855.20
2009/04/23 09:10:48.0     -68   -198     90    210    228 198.9  24.6  34136  289.18 0855.20
2009/04/23 09:10:48.1     -52   -134    123    144    189 201.4  44.5  34142  289.26 0855.20
2009/04/23 09:10:48.2     -62   -134    109    148    183 204.9  39.7  34142  289.26 0855.20
2009/04/23 09:10:48.3     -31    -93     97     99    138 198.7  49.9  34146  289.35 0855.20
2009/04/23 09:10:48.4     -13   -127     87    128    154 186.2  37.4  34148  289.38 0855.20
2009/04/23 09:10:48.5     -16   -152     57    153    163 186.2  21.3  34148  289.36 0855.20
2009/04/23 09:10:48.6     -33   -181     75    185    199 190.5  23.4  34144  289.31 0855.20
2009/04/23 09:10:48.7     -38   -208     99    212    233 190.5  27.1  34146  289.35 0855.20
2009/04/23 09:10:48.8     -78   -256     42    268    272 196.9   9.0  34134  289.12 0855.20
2009/04/23 09:10:48.9     -46   -229     32    234    237 191.6   8.0  34134  289.14 0855.20
2009/04/23 09:10:49.0     -44   -219     53    224    231 191.6  13.5  34142  289.26 0855.20
2009/04/23 09:10:49.1     -78   -232     65    245    254 198.7  15.0  34140  289.24 0855.20
2009/04/23 09:10:49.2     -89   -219     43    237    241 202.3  10.3  34134  289.14 0855.20
2009/04/23 09:10:49.3     -75   -189     45    204    210 201.6  12.6  34138  289.19 0855.20
2009/04/23 09:10:49.4     -71   -148     36    165    169 205.6  12.4  34132  289.11 0855.20
2009/04/23 09:10:49.5     -25   -112     39    115    122 192.9  18.9  34132  289.11 0855.20
2009/04/23 09:10:49.6     -54    -72     55     91    106 217.0  34.4  34134  289.13 0855.19
2009/04/23 09:10:49.7     -36    -71     24     80     84 207.2  16.8  34136  289.16 0855.19
2009/04/23 09:10:49.8     -20    -81     18     84     87 193.8  12.6  34136  289.16 0855.19
2009/04/23 09:10:49.9       4    -53     39     54     66 175.5  39.5  34134  289.14 0855.19
2009/04/23 09:10:50.0       0    -61     48     62     78 180.9  42.2  34132  289.09 0855.19
2009/04/23 09:10:50.1       1    -86     42     87     96 179.1  27.3  34122  288.94 0855.19
2009/04/23 09:10:50.2      27   -119     33    123    128 167.1  15.3  34120  288.89 0855.19
2009/04/23 09:10:50.3      -3   -148     18    149    151 181.4   7.1  34120  288.89 0855.19
2009/04/23 09:10:50.4      24   -192     -4    194    195 172.7  -1.3  34120  288.89 0855.19
2009/04/23 09:10:50.5      15   -194    -33    195    198 175.5  -9.6  34124  288.96 0855.19
2009/04/23 09:10:50.6       0   -177    -46    178    185 180.2 -14.7  34118  288.87 0855.19
2009/04/23 09:10:50.7     -31   -153    -56    157    167 191.6 -19.7  34120  288.89 0855.19
2009/04/23 09:10:50.8     -40   -162    -43    167    173 194.0 -14.7  34118  288.87 0855.19
2009/04/23 09:10:50.9     -37   -120    -20    126    128 197.4  -9.4  34120  288.89 0855.19
2009/04/23 09:10:51.0      15   -100     29    102    107 171.1  15.8  34116  288.84 0855.19
2009/04/23 09:10:51.1      45   -116    -37    125    130 158.6 -21.7  34122  288.94 0855.19
2009/04/23 09:10:51.2      42   -116     -8    124    125 159.9  -4.1  34122  288.92 0855.19
2009/04/23 09:10:51.3      48   -160     44    168    174 163.1  14.7  34114  288.80 0855.19
2009/04/23 09:10:51.4      20   -143     89    145    170 171.9  34.8  34114  288.79 0855.19
2009/04/23 09:10:51.5      80    -75     63    110    126 133.2  32.4  34112  288.77 0855.19
2009/04/23 09:10:51.6     107    -84     61    137    149 128.2  25.7  34114  288.80 0855.19
2009/04/23 09:10:51.7     166    -56     48    176    183 108.8  15.3  34118  288.87 0855.19
2009/04/23 09:10:51.8     149    -70     40    165    170 115.4  13.7  34116  288.82 0855.19
2009/04/23 09:10:51.9     110    -75     11    134    135 124.1   4.9  34116  288.84 0855.19
2009/04/23 09:10:52.0      97    -96    -41    137    143 134.9 -21.7  34114  288.80 0855.19
2009/04/23 09:10:52.1     111   -104    -33    153    157 133.2 -12.4  34114  288.79 0855.19
2009/04/23 09:10:52.2      84    -86     -4    121    122 135.9  -2.2  34114  288.79 0855.19
2009/04/23 09:10:52.3      67    -99      6    120    121 145.7   2.9  34112  288.77 0855.19
2009/04/23 09:10:52.4      24   -143     -5    146    147 170.2  -2.2  34110  288.72 0855.19
2009/04/23 09:10:52.5      27   -136     16    139    141 168.5   6.9  34110  288.72 0855.19
2009/04/23 09:10:52.6      30   -133      2    137    138 167.1   1.2  34112  288.75 0855.19
2009/04/23 09:10:52.7      70    -85    -33    111    115 140.4 -21.7  34108  288.70 0855.19
2009/04/23 09:10:52.8      93    -68     -6    116    117 126.4  -3.1  34110  288.74 0855.19
2009/04/23 09:10:52.9      60    -66     -2     90     91 138.1  -1.8  34112  288.75 0855.19
2009/04/23 09:10:53.0      30    -55     22     63     67 151.1  19.2  34112  288.75 0855.19
2009/04/23 09:10:53.1      19    -37     26     42     49 151.9  35.5  34110  288.74 0855.19
2009/04/23 09:10:53.2     -21    -60     39     64     74 199.2  35.5  34110  288.74 0855.19
2009/04/23 09:10:53.3     -23    -75     25     79     84 197.4  17.9  34110  288.72 0855.19
2009/04/23 09:10:53.4     -28   -118      1    122    123 193.4   0.8  34110  288.74 0855.19
2009/04/23 09:10:53.5       1   -133     16    134    135 179.5   6.9  34110  288.72 0855.19
2009/04/23 09:10:53.6     -10    -99      6    100    101 185.8   3.8  34108  288.70 0855.20
2009/04/23 09:10:53.7     -55   -110      8    124    125 206.7   3.8  34108  288.70 0855.20
2009/04/23 09:10:53.8     -33   -120    -11    125    126 195.6  -5.2  34108  288.69 0855.20
2009/04/23 09:10:53.9     -11   -115    -19    116    118 185.8  -9.3  34106  288.65 0855.20
2009/04/23 09:10:54.0       0   -120     26    121    124 180.4  12.2  34106  288.67 0855.20
2009/04/23 09:10:54.1      22   -109      5    112    113 168.5   2.8  34104  288.64 0855.20
2009/04/23 09:10:54.2      17   -181     -3    182    183 174.4  -1.1  34104  288.62 0855.20
2009/04/23 09:10:54.3      25   -190    -13    192    193 172.4  -3.9  34104  288.64 0855.20
2009/04/23 09:10:54.4      18   -199     -4    200    201 174.7  -1.3  34104  288.64 0855.20
2009/04/23 09:10:54.5      15   -197    -15    198    199 175.5  -4.6  34104  288.64 0855.20
2009/04/23 09:10:54.6     -23   -206    -16    208    209 186.5  -4.6  34104  288.64 0855.20
2009/04/23 09:10:54.7     -38   -220      1    224    225 190.0   0.5  34098  288.52 0855.20
2009/04/23 09:10:54.8     -16   -228     27    229    231 184.2   6.9  34104  288.62 0855.20
2009/04/23 09:10:54.9      37   -183     35    187    191 168.4  10.8  34104  288.64 0855.20
2009/04/23 09:10:55.0      68   -162     34    176    180 157.1  11.1  34102  288.60 0855.20
2009/04/23 09:10:55.1      54   -115     40    128    135 154.6  17.4  34102  288.58 0855.20
2009/04/23 09:10:55.2      56    -88     40    105    112 147.5  21.5  34106  288.65 0855.20
2009/04/23 09:10:55.3      50    -85     35     99    106 149.3  19.4  34104  288.62 0855.20
2009/04/23 09:10:55.4      31   -130     13    134    135 166.2   5.9  34106  288.65 0855.20
2009/04/23 09:10:55.5      42   -141    -19    148    150 163.5  -7.3  34106  288.65 0855.20
2009/04/23 09:10:55.6      34   -128      0    133    134 164.8  -0.3  34104  288.64 0855.19
2009/04/23 09:10:55.7      70   -127      7    146    147 151.0   2.9  34104  288.62 0855.19
2009/04/23 09:10:55.8      91   -127     30    157    160 144.4  10.8  34104  288.62 0855.19
2009/04/23 09:10:55.9      88   -138     36    164    168 147.4  12.4  34100  288.57 0855.19
2009/04/23 09:10:56.0      55   -160      0    170    171 160.8  -0.3  34104  288.62 0855.19
2009/04/23 09:10:56.1      19   -141     26    143    146 172.0  10.6  34102  288.58 0855.19
2009/04/23 09:10:56.2       7   -140     82    141    163 176.9  32.9  34104  288.62 0855.19
2009/04/23 09:10:56.3     -14   -164     86    165    186 185.1  29.5  34104  288.62 0855.19
2009/04/23 09:10:56.4      74   -146     85    164    184 153.0  29.5  34100  288.57 0855.19
2009/04/23 09:10:56.5      20   -161     95    163    188 172.7  32.9  34102  288.58 0855.19
2009/04/23 09:10:56.6     -30   -177     89    180    200 189.6  28.2  34102  288.60 0855.19
2009/04/23 09:10:56.7      41   -125     19    132    134 161.7   8.5  34102  288.58 0855.19
2009/04/23 09:10:56.9     108   -126    -32    167    171 139.5 -10.9  34102  288.60 0855.19
2009/04/23 09:10:57.0      78   -114    -43    139    145 145.7 -22.8  34104  288.64 0855.19
2009/04/23 09:10:57.1      49   -143    -66    152    165 160.8 -29.3  34102  288.58 0855.19
2009/04/23 09:10:57.2     -37   -139    -44    145    151 195.2 -21.7  34102  288.58 0855.19
2009/04/23 09:10:57.3     -36   -170     -6    174    175 192.0  -2.1  34100  288.57 0855.19
2009/04/23 09:10:57.4       0   -113     66    114    131 179.5  32.9  34104  288.62 0855.19
2009/04/23 09:10:57.5       8   -170     24    171    173 177.1   8.2  34100  288.57 0855.19
2009/04/23 09:10:57.6      23   -175     13    177    178 172.4   4.4  34102  288.58 0855.19
2009/04/23 09:10:57.7      52   -162     59    171    182 162.0  19.2  34100  288.55 0855.20
2009/04/23 09:10:57.8      21    -63    110     67    128 161.3  65.7  34100  288.55 0855.20
2009/04/23 09:10:57.9       5   -127    170    128    212 177.4  59.2  34104  288.64 0855.20
2009/04/23 09:10:58.0      43   -118     82    126    150 160.0  35.6  34102  288.60 0855.20
2009/04/23 09:10:58.1     -50   -168     -1    176    177 196.5  -0.5  34102  288.58 0855.20
2009/04/23 09:10:58.2     -77   -164     14    182    183 205.3   4.6  34102  288.60 0855.20
2009/04/23 09:10:58.3    -121   -177    -42    215    220 214.3 -11.1  34102  288.60 0855.20
2009/04/23 09:10:58.4    -142   -183    -56    232    239 217.8 -13.7  34102  288.58 0855.20
2009/04/23 09:10:58.5    -102   -234     -8    256    257 203.6  -1.8  34100  288.56 0855.20
2009/04/23 09:10:58.6     -85   -279     35    292    295 196.9   6.9  34104  288.63 0855.20
2009/04/23 09:10:58.7     -87   -304    -12    317    318 196.1  -2.2  34100  288.56 0855.20
2009/04/23 09:10:58.8     -62   -312     89    319    332 191.2  15.7  34100  288.56 0855.20
2009/04/23 09:10:58.9      -2   -259    140    260    295 180.5  30.8  34102  288.58 0855.20
2009/04/23 09:10:59.0     -19   -253     81    254    267 184.4  17.7  34104  288.61 0855.20
2009/04/23 09:10:59.1     -41   -296     94    299    314 188.0  17.5  34102  288.59 0855.20
2009/04/23 09:10:59.2     -96   -320     47    335    339 196.8   8.0  34102  288.60 0855.20
2009/04/23 09:10:59.3     -89   -240     36    257    260 200.5   8.0  34102  288.58 0855.20
2009/04/23 09:10:59.4     -76   -238     51    250    256 197.8  11.6  34106  288.66 0855.20
2009/04/23 09:10:59.5    -118   -242     17    270    271 206.1   3.6  34106  288.65 0855.20
2009/04/23 09:10:59.6    -170   -241    -34    295    298 215.2  -6.7  34102  288.59 0855.20
2009/04/23 09:10:59.7    -134   -263      4    296    297 207.0   0.8  34102  288.59 0855.20
2009/04/23 09:10:59.8    -105   -282     25    302    304 200.5   4.9  34104  288.63 0855.20
2009/04/23 09:10:59.9    -163   -225    -18    278    279 216.0  -3.9  34106  288.65 0855.20
2009/04/23 09:11:00.0    -222   -222     75    314    323 225.0  13.6  34108  288.68 0855.20
2009/04/23 09:11:00.1    -219   -263     -4    343    344 219.7  -0.7  34100  288.57 0855.20
2009/04/23 09:11:00.2    -127   -200    -56    238    245 212.5 -13.4  34100  288.56 0855.20
2009/04/23 09:11:00.3    -119   -190     -8    225    226 212.1  -2.3  34106  288.65 0855.20
2009/04/23 09:11:00.4     -78   -278     -5    289    290 195.8  -1.1  34104  288.63 0855.20
2009/04/23 09:11:00.5     -80   -279     33    291    293 196.0   6.5  34106  288.65 0855.20
2009/04/23 09:11:00.6       0   -239     65    240    249 180.2  15.3  34104  288.63 0855.20
2009/04/23 09:11:00.7     -65   -187     74    199    212 199.2  21.0  34104  288.62 0855.20
2009/04/23 09:11:00.8     -50   -142    112    151    188 199.6  40.1  34102  288.60 0855.20
2009/04/23 09:11:00.9    -132   -135    116    190    222 224.3  34.8  34106  288.65 0855.20
2009/04/23 09:11:01.0    -195   -165     95    256    273 229.8  21.0  34104  288.63 0855.20
2009/04/23 09:11:01.1    -219   -218    119    310    332 225.2  22.0  34106  288.65 0855.20
2009/04/23 09:11:01.2    -206   -170     57    268    275 230.5  12.0  34106  288.65 0855.20
2009/04/23 09:11:01.3    -197   -117     20    230    231 239.3   5.0  34104  288.64 0855.20
2009/04/23 09:11:01.4    -150    -59    -57    162    171 248.3 -24.4  34104  288.64 0855.20
2009/04/23 09:11:01.5    -158   -102     40    189    194 237.1  12.2  34104  288.62 0855.20
2009/04/23 09:11:01.6    -250    -50     17    256    257 258.6   3.8  34100  288.56 0855.20
2009/04/23 09:11:01.7    -303     18    -50    304    309 273.4  -9.3  34104  288.61 0855.21
2009/04/23 09:11:01.8    -330      8    -50    331    335 271.4  -8.6  34100  288.55 0855.21
2009/04/23 09:11:01.9    -105   -117     18    158    160 221.9   6.7  34100  288.57 0855.21
2009/04/23 09:11:02.0     -57   -120     55    133    143 205.5  23.1  34104  288.64 0855.21
2009/04/23 09:11:02.1     -61      7    109     62    125 277.0  67.7  34108  288.69 0855.21
2009/04/23 09:11:02.2     -27    -14     93     31     98 241.1  81.0  34110  288.74 0855.21
2009/04/23 09:11:02.3     -70    -47     71     85    110 235.8  43.8  34106  288.67 0855.21
2009/04/23 09:11:02.4      18    -53     58     57     81 161.3  50.1  34106  288.65 0855.21
2009/04/23 09:11:02.5      56    -83     69    101    122 145.7  37.6  34106  288.67 0855.21
2009/04/23 09:11:02.6      36   -101     45    108    117 160.4  23.1  34104  288.62 0855.21
2009/04/23 09:11:02.7     -20    -57     61     61     86 199.2  50.1  34106  288.65 0855.21
2009/04/23 09:11:02.8      -6    -76    -31     77     83 184.5 -27.4  34104  288.64 0855.21
2009/04/23 09:11:02.9     -31    -75     39     82     90 202.7  27.2  34102  288.60 0855.21
2009/04/23 09:11:03.0      -7   -103     70    104    125 184.4  37.4  34104  288.64 0855.21
2009/04/23 09:11:03.1      13   -118     15    119    121 173.3   7.5  34106  288.67 0855.21
2009/04/23 09:11:03.2     -34    -96    -36    102    109 199.6 -19.7  34104  288.62 0855.21
2009/04/23 09:11:03.3     -27    -87    -15     92     94 197.4  -9.8  34104  288.64 0855.21
2009/04/23 09:11:03.4    -113    -56     12    127    128 243.8   5.4  34102  288.60 0855.21
2009/04/23 09:11:03.5    -115    -68     31    134    138 239.3  13.1  34106  288.65 0855.21
2009/04/23 09:11:03.6    -108    -81     20    135    137 233.1   8.5  34106  288.67 0855.21
2009/04/23 09:11:03.7     -76   -108     31    133    137 215.2  13.1  34106  288.65 0855.21
2009/04/23 09:11:03.8     -47   -103     49    114    124 204.5  24.6  34106  288.65 0855.21
2009/04/23 09:11:03.9     -20    -94     33     97    103 192.5  18.9  34106  288.65 0855.21
2009/04/23 09:11:04.0     -19   -105     48    107    117 190.7  25.7  34104  288.64 0855.21
2009/04/23 09:11:04.1      -1   -128     23    129    132 180.8  10.1  34106  288.65 0855.21
2009/04/23 09:11:04.2      11   -140     25    141    144 175.1  10.1  34104  288.64 0855.21
2009/04/23 09:11:04.3      54   -123     24    135    138 156.3  10.1  34104  288.64 0855.21
2009/04/23 09:11:04.4      78    -52     71     94    117 123.7  40.7  34106  288.67 0855.21
2009/04/23 09:11:04.5      32    -96     44    102    111 161.3  25.1  34106  288.65 0855.21
2009/04/23 09:11:04.6      44   -124     11    132    133 160.4   5.0  34106  288.65 0855.21
2009/04/23 09:11:04.7     107   -102      4    149    150 133.6   1.8  34104  288.64 0855.21
2009/04/23 09:11:04.8     113   -116    -42    163    169 135.7 -14.7  34104  288.64 0855.21
2009/04/23 09:11:04.9     110   -106    -46    153    160 134.0 -17.0  34100  288.57 0855.21
2009/04/23 09:11:05.0     169   -104    -11    199    200 121.5  -3.3  34104  288.62 0855.21
2009/04/23 09:11:05.1     164    -66      0    177    178 112.0  -0.3  34104  288.64 0855.21
2009/04/23 09:11:05.2     209    -33      4    212    213  99.0   1.2  34104  288.64 0855.21
2009/04/23 09:11:05.3     130   -105    -33    168    172 129.1 -11.1  34104  288.64 0855.21
2009/04/23 09:11:05.4     113   -233    -23    260    262 154.1  -5.2  34108  288.68 0855.21
2009/04/23 09:11:05.5      47   -277    -15    281    282 170.3  -3.2  34106  288.65 0855.21
2009/04/23 09:11:05.6      32   -310    -30    312    314 174.0  -5.6  34108  288.70 0855.21
2009/04/23 09:11:05.7      16   -302    -20    303    304 176.9  -3.9  34108  288.68 0855.21
2009/04/23 09:11:05.8       3   -181     -3    182    183 178.9  -1.1  34108  288.70 0855.21
2009/04/23 09:11:05.9     -62   -132    -46    147    155 205.3 -17.6  34106  288.67 0855.21
2009/04/23 09:11:06.0     -73   -158    -77    175    191 204.9 -29.7  34106  288.67 0855.21
2009/04/23 09:11:06.1      40   -144    114    150    188 164.4  41.2  34104  288.62 0855.21
2009/04/23 09:11:06.2      13   -181    129    182    223 175.8  38.8  34104  288.64 0855.21
2009/04/23 09:11:06.3     -34   -169     94    173    196 191.5  30.8  34106  288.67 0855.21
2009/04/23 09:11:06.4     -97   -123     56    157    166 218.3  20.2  34106  288.65 0855.21
2009/04/23 09:11:06.5    -100   -131     27    165    168 217.4   9.5  34108  288.70 0855.21
2009/04/23 09:11:06.6     -93   -141     50    170    178 213.4  16.6  34108  288.69 0855.21
2009/04/23 09:11:06.7     -98   -154     85    183    201 212.6  26.6  34108  288.69 0855.21
2009/04/23 09:11:06.8     -85   -130     70    156    170 213.4  25.9  34108  288.70 0855.21
2009/04/23 09:11:06.9     -73   -111     45    133    141 213.4  18.9  34106  288.67 0855.21
2009/04/23 09:11:07.0     -50    -93     80    106    132 208.5  41.6  34108  288.70 0855.21
2009/04/23 09:11:07.1      -8    -63     85     64    106 188.0  59.4  34108  288.70 0855.21
2009/04/23 09:11:07.2      19    -87     90     90    127 167.5  50.1  34108  288.69 0855.21
2009/04/23 09:11:07.3     -30   -123    178    127    218 193.8  60.8  34112  288.75 0855.21
2009/04/23 09:11:07.4      95   -237    111    256    279 158.2  25.1  34106  288.65 0855.21
2009/04/23 09:11:07.5      49   -287    105    292    310 170.2  20.4  34106  288.66 0855.21
2009/04/23 09:11:07.6      18   -240     74    241    253 175.6  17.1  34106  288.65 0855.21
2009/04/23 09:11:07.7     -16   -205     85    206    222 184.5  23.4  34104  288.64 0855.21
2009/04/23 09:11:07.8      -5   -214    103    215    238 181.4  27.4  34108  288.70 0855.21
2009/04/23 09:11:07.9       0   -197     74    198    211 180.0  21.3  34108  288.70 0855.21
2009/04/23 09:11:08.0      99   -230     83    251    265 156.6  18.5  34108  288.68 0855.21
2009/04/23 09:11:08.1     126   -235     32    267    269 151.7   6.9  34108  288.68 0855.21
2009/04/23 09:11:08.2      94   -236     12    255    256 158.2   2.8  34108  288.70 0855.21
2009/04/23 09:11:08.3      88   -243     52    259    265 159.9  11.4  34110  288.71 0855.21
2009/04/23 09:11:08.4      92   -192     78    213    226 154.4  21.0  34108  288.70 0855.21
2009/04/23 09:11:08.5     115   -209    119    239    266 151.1  28.2  34110  288.73 0855.21
2009/04/23 09:11:08.6      87   -200    110    219    245 156.4  28.5  34106  288.66 0855.21
2009/04/23 09:11:08.7      55   -178     67    187    198 162.6  20.7  34108  288.70 0855.21
2009/04/23 09:11:08.8      15   -187     89    188    208 175.3  27.1  34110  288.72 0855.21
2009/04/23 09:11:08.9      33   -196    128    199    236 170.4  35.7  34112  288.77 0855.21
2009/04/23 09:11:09.0      34   -204     80    207    221 170.4  22.3  34112  288.75 0855.21
2009/04/23 09:11:09.1      22   -206     87    208    225 173.8  24.1  34114  288.79 0855.21
2009/04/23 09:11:09.2      11   -177     93    178    200 176.2  29.5  34114  288.80 0855.21
2009/04/23 09:11:09.3      24   -163     85    165    185 171.3  29.3  34112  288.75 0855.21
2009/04/23 09:11:09.4      12   -159    107    160    192 175.5  36.5  34114  288.80 0855.21
2009/04/23 09:11:09.5      27   -160    115    163    199 170.2  38.8  34112  288.77 0855.21
2009/04/23 09:11:09.6      21   -210     86    212    228 174.2  23.1  34112  288.77 0855.21
2009/04/23 09:11:09.7      54   -246    113    252    276 167.5  25.7  34110  288.73 0855.21
2009/04/23 09:11:09.8     111   -271    127    293    319 157.7  25.0  34106  288.65 0855.21
2009/04/23 09:11:09.9     134   -243    156    278    318 151.0  31.9  34106  288.65 0855.21
2009/04/23 09:11:10.0      67   -218    122    229    259 163.0  30.3  34110  288.73 0855.21
2009/04/23 09:11:10.1      60   -268     87    275    289 167.3  17.7  34112  288.75 0855.21
2009/04/23 09:11:10.2     118   -199     51    232    238 149.3  12.6  34110  288.71 0855.21
2009/04/23 09:11:10.3      79   -202     59    218    227 158.6  15.3  34112  288.77 0855.21
2009/04/23 09:11:10.4      90   -206     57    225    233 156.4  14.3  34116  288.84 0855.21
2009/04/23 09:11:10.5      35   -233     89    236    252 171.3  21.5  34116  288.81 0855.21
2009/04/23 09:11:10.6       9   -242     81    243    257 177.8  18.4  34116  288.83 0855.21
2009/04/23 09:11:10.7       4   -239     77    240    253 178.9  17.9  34114  288.80 0855.21
2009/04/23 09:11:10.8     -22   -219     59    221    229 186.0  15.0  34106  288.65 0855.21
2009/04/23 09:11:10.9     -43   -212     51    217    223 191.5  13.2  34108  288.69 0855.21
2009/04/23 09:11:11.0     -59   -219     53    227    234 195.2  13.2  34110  288.74 0855.21
2009/04/23 09:11:11.1     -98   -193     53    217    224 207.1  13.9  34108  288.70 0855.21
2009/04/23 09:11:11.2     -85   -155     46    178    184 208.9  14.5  34114  288.79 0855.21
2009/04/23 09:11:11.3     -39   -148     90    154    178 195.1  32.9  34120  288.91 0855.21
2009/04/23 09:11:11.4       0    -94    113     95    147 180.5  56.3  34118  288.87 0855.21
2009/04/23 09:11:11.5       0    -85     90     86    124 180.0  50.7  34120  288.89 0855.21
2009/04/23 09:11:11.6     -17    -96     74     98    122 190.2  41.2  34120  288.89 0855.21
2009/04/23 09:11:11.7      16    -84     53     86    101 168.9  35.0  34118  288.86 0855.21
2009/04/23 09:11:11.8       0    -83     21     84     87 180.4  14.3  34120  288.91 0855.21
2009/04/23 09:11:11.9     -26    -95     -7     99    100 195.6  -4.6  34122  288.92 0855.21
2009/04/23 09:11:12.0     -15    -88     31     90     96 189.8  19.2  34122  288.92 0855.21
2009/04/23 09:11:12.1     -13    -94     18     95     97 188.0  11.1  34120  288.89 0855.21
2009/04/23 09:11:12.2      -2    -85     28     86     91 181.4  18.4  34124  288.96 0855.21
2009/04/23 09:11:12.3      19    -50     18     54     58 159.1  18.9  34122  288.92 0855.21
2009/04/23 09:11:12.4      30    -47     37     56     67 147.4  35.6  34120  288.89 0855.21
2009/04/23 09:11:12.5      57    -55     56     80     97 134.0  38.0  34116  288.84 0855.21
2009/04/23 09:11:12.6      13    -51     64     53     83 165.7  55.8  34116  288.82 0855.21
2009/04/23 09:11:12.7       9    -27     85     29     89 161.7  81.2  34118  288.86 0855.21
2009/04/23 09:11:12.8       6     21     53     23     57  16.9  75.0  34122  288.92 0855.21
2009/04/23 09:11:12.9     -19    -39     74     44     86 206.3  66.2  34122  288.94 0855.21
2009/04/23 09:11:13.0      -8    -51     71     52     88 188.9  60.5  34122  288.94 0855.21
2009/04/23 09:11:13.1       3    -46     57     47     73 175.5  56.3  34124  288.97 0855.21
2009/04/23 09:11:13.2     -16    -29     53     34     62 209.0  64.7  34122  288.94 0855.21
2009/04/23 09:11:13.3      -8    -55     65     56     85 188.9  54.8  34120  288.89 0855.21
2009/04/23 09:11:13.4     -36    -63     83     73    110 209.9  54.3  34116  288.84 0855.21
2009/04/23 09:11:13.5      -9    -86     78     87    116 186.2  46.9  34120  288.89 0855.21
2009/04/23 09:11:13.6      -4    -88     77     89    117 182.7  45.8  34116  288.82 0855.21
2009/04/23 09:11:13.7      -6   -102     87    103    134 183.6  44.3  34114  288.80 0855.21
2009/04/23 09:11:13.8     -10    -99     90    100    134 185.8  46.9  34112  288.75 0855.21
2009/04/23 09:11:13.9       3    -84    103     85    133 177.8  56.4  34114  288.79 0855.21
2009/04/23 09:11:14.0     -31   -100    112    105    153 197.4  52.1  34116  288.84 0855.21
2009/04/23 09:11:14.1     -15    -79     94     81    124 190.7  54.3  34114  288.80 0855.21
2009/04/23 09:11:14.2     -16    -59     98     62    115 195.2  64.7  34114  288.80 0855.21
2009/04/23 09:11:14.3      12    -38     96     41    104 161.7  76.6  34114  288.80 0855.21
2009/04/23 09:11:14.4     -24      1    110     25    112 274.4  88.0  34116  288.82 0855.21
2009/04/23 09:11:14.5      31    -40    126     51    135 142.2  77.1  34118  288.87 0855.21
2009/04/23 09:11:14.6     -13    -96    114     97    149 188.0  55.8  34122  288.92 0855.21
2009/04/23 09:11:14.7      -8   -110    111    111    156 184.5  50.1  34118  288.86 0855.21
2009/04/23 09:11:14.8     -23   -137    112    140    179 189.8  43.0  34116  288.84 0855.21
2009/04/23 09:11:14.9     -42   -140     79    147    166 197.0  30.3  34120  288.89 0855.21
2009/04/23 09:11:15.0     -51   -120     71    131    149 203.2  31.3  34118  288.87 0855.21
2009/04/23 09:11:15.1     -39    -90     57     99    114 203.6  32.9  34116  288.82 0855.21
2009/04/23 09:11:15.2     -22    -92    121     95    153 193.4  57.9  34112  288.75 0855.21
2009/04/23 09:11:15.3     -34    -99    107    105    149 199.2  50.1  34112  288.75 0855.21
2009/04/23 09:11:15.4     -34   -127    103    132    167 195.1  42.2  34114  288.80 0855.21
2009/04/23 09:11:15.5     -50   -129     85    139    162 201.4  34.8  34114  288.80 0855.21
2009/04/23 09:11:15.6     -49   -103     64    115    131 205.3  31.4  34114  288.79 0855.21
2009/04/23 09:11:15.7     -73    -77     41    107    114 223.2  21.5  34114  288.79 0855.21
2009/04/23 09:11:15.8     -64    -68     17     94     96 223.2  10.6  34114  288.80 0855.21
2009/04/23 09:11:15.9     -51    -96      0    109    110 208.1  -0.3  34114  288.80 0855.21
2009/04/23 09:11:16.0     -54    -94    -35    109    115 210.3 -18.1  34114  288.80 0855.21
2009/04/23 09:11:16.1     -69   -125     18    144    146 209.0   7.1  34108  288.70 0855.21
2009/04/23 09:11:16.2     -80   -125      7    149    150 212.5   2.9  34110  288.74 0855.21
2009/04/23 09:11:16.3     -83   -132    -24    157    159 212.1  -9.0  34108  288.70 0855.21
2009/04/23 09:11:16.4     -85    -91    -29    125    129 223.2 -13.3  34112  288.75 0855.21
2009/04/23 09:11:16.5    -113   -148    -40    187    192 217.4 -12.2  34108  288.69 0855.21
2009/04/23 09:11:16.6     -94   -177      4    201    202 208.1   1.2  34112  288.77 0855.21
2009/04/23 09:11:16.7     -74   -205    -56    219    227 200.0 -14.5  34108  288.70 0855.20
2009/04/23 09:11:16.8     -15   -169    -58    170    180 185.3 -18.9  34118  288.86 0855.20
2009/04/23 09:11:16.9       4   -173    -19    174    176 178.4  -6.2  34114  288.79 0855.20
2009/04/23 09:11:17.0     -18   -118    -23    120    123 188.9 -10.9  34114  288.79 0855.20
2009/04/23 09:11:17.1     -17   -126     -2    128    129 188.0  -1.3  34114  288.79 0855.20
2009/04/23 09:11:17.2     -66    -96      1    117    118 214.7   0.8  34110  288.72 0855.20
2009/04/23 09:11:17.3     -73   -114      0    136    137 212.6   0.2  34110  288.74 0855.20
2009/04/23 09:11:17.4     -88   -101     -2    135    136 221.0  -1.3  34112  288.77 0855.20
2009/04/23 09:11:17.5     -92   -107     -3    142    143 220.5  -1.3  34110  288.74 0855.20
2009/04/23 09:11:17.6     -79   -124    -13    148    149 212.6  -5.2  34114  288.80 0855.20
2009/04/23 09:11:17.7     -56   -161    -27    171    174 199.4  -9.0  34114  288.80 0855.20
2009/04/23 09:11:17.8     -46   -176     -5    182    183 194.7  -1.8  34114  288.79 0855.20
2009/04/23 09:11:17.9     -38   -194     70    198    211 191.1  19.6  34116  288.82 0855.20
2009/04/23 09:11:18.0      12   -125    -44    126    133 174.2 -23.8  34154  289.48 0855.20
2009/04/23 09:11:18.1    -101   -116     65    154    167 221.0  24.3  34158  289.53 0855.20
2009/04/23 09:11:18.2    -111   -111     38    158    163 224.9  13.7  34144  289.31 0855.20
2009/04/23 09:11:18.3    -118   -120     24    169    171 224.5   8.2  34142  289.28 0855.20
2009/04/23 09:11:18.4    -169    -80    -29    188    191 244.6  -9.0  34178  289.87 0855.20
2009/04/23 09:11:18.5    -159    -92     52    184    192 239.8  15.8  34138  289.19 0855.20
2009/04/23 09:11:18.6    -129   -115     22    174    176 228.2   7.2  34154  289.46 0855.20
2009/04/23 09:11:18.7    -130   -150     15    199    200 221.0   4.4  34150  289.41 0855.21
2009/04/23 09:11:18.8     -70   -157     61    173    183 204.1  20.0  34132  289.11 0855.21
2009/04/23 09:11:18.9       5   -128    130    129    183 177.4  49.9  34112  288.77 0855.21
2009/04/23 09:11:19.0       6    -99     66    100    119 176.4  37.0  34118  288.86 0855.21
2009/04/23 09:11:19.1      -7   -162     67    163    176 182.5  23.6  34138  289.21 0855.21
2009/04/23 09:11:19.2     -43   -165     94    171    195 194.7  31.4  34132  289.09 0855.21
2009/04/23 09:11:19.3     -98   -175    103    201    225 209.4  29.2  34142  289.26 0855.21
2009/04/23 09:11:19.5    -113   -155     67    192    204 216.1  19.2  34166  289.69 0855.21
2009/04/23 09:11:19.5     -72   -180     79    194    209 201.9  23.1  34126  288.99 0855.21
2009/04/23 09:11:19.6     -73   -210     90    223    240 199.2  23.1  34132  289.09 0855.21
2009/04/23 09:11:19.7     -82   -241    127    255    284 198.9  28.2  34132  289.09 0855.21
2009/04/23 09:11:19.8    -119   -224    114    254    278 208.0  25.9  34164  289.63 0855.21
2009/04/23 09:11:19.9    -103   -186     92    213    232 209.0  24.9  34156  289.52 0855.21
2009/04/23 09:11:20.0    -125   -153     31    198    201 219.2   9.0  34204  290.33 0855.21
2009/04/23 09:11:20.1    -149   -150     43    212    217 224.8  11.6  34182  289.94 0855.21
2009/04/23 09:11:20.2     -93   -153     17    180    181 211.4   5.7  34162  289.60 0855.21
2009/04/23 09:11:20.3    -119   -136     11    181    182 221.2   3.6  34168  289.72 0855.21
2009/04/23 09:11:20.4    -127   -127    -10    181    182 225.0  -3.3  34206  290.36 0855.21
2009/04/23 09:11:20.5    -134   -142     28    196    199 223.3   8.2  34162  289.62 0855.21
2009/04/23 09:11:20.6     -42   -170     66    176    187 194.0  21.5  34138  289.21 0855.21
2009/04/23 09:11:20.7     -67   -141     32    157    161 205.4  11.6  34128  289.04 0855.21
2009/04/23 09:11:20.8     -45   -135     62    143    155 198.7  25.1  34132  289.11 0855.21
2009/04/23 09:11:20.9    -100   -164     68    193    205 211.4  19.4  34150  289.40 0855.21
2009/04/23 09:11:21.0     -45   -164     79    171    188 195.6  27.0  34136  289.16 0855.21
2009/04/23 09:11:21.1     -47   -135     44    144    151 199.2  17.1  34140  289.24 0855.21
2009/04/23 09:11:21.2     -96   -104     54    142    151 222.8  21.5  34148  289.36 0855.21
2009/04/23 09:11:21.3    -103    -85    -19    134    136 230.4  -8.2  34164  289.63 0855.21
2009/04/23 09:11:21.4    -102   -166      9    196    197 211.6   2.9  34138  289.21 0855.21
2009/04/23 09:11:21.5     -20   -120     33    122    127 189.8  15.3  34138  289.21 0855.21
2009/04/23 09:11:21.6     -28   -139     57    142    153 191.6  23.0  34124  288.97 0855.21
2009/04/23 09:11:21.8     -32    -96     69    102    123 198.3  37.4  34128  289.04 0855.21
2009/04/23 09:11:21.9     -35   -147     67    152    166 193.4  25.3  34128  289.02 0855.21
2009/04/23 09:11:21.9     -60   -193     32    203    206 197.4   9.0  34114  288.79 0855.21
2009/04/23 09:11:22.0     -84   -102     61    133    146 219.6  27.1  34118  288.87 0855.21
2009/04/23 09:11:22.1     -55    -86     35    103    109 212.5  18.9  34116  288.82 0855.21
2009/04/23 09:11:22.2     -51    -69     66     86    108 216.5  41.7  34112  288.77 0855.21
2009/04/23 09:11:22.3     -26    -77     62     82    102 198.7  41.2  34112  288.77 0855.21
2009/04/23 09:11:22.5     -24    -74     82     78    113 198.3  51.2  34112  288.77 0855.21
2009/04/23 09:11:22.5     -69   -156    116    171    206 203.8  37.4  34112  288.77 0855.21
2009/04/23 09:11:22.6    -110   -158    101    193    217 215.0  29.8  34116  288.84 0855.21
2009/04/23 09:11:22.7     -92   -131     81    161    180 215.2  28.7  34114  288.79 0855.20
2009/04/23 09:11:22.8      -6    -94    122     95    154 183.6  58.4  34128  289.04 0855.20
2009/04/23 09:11:22.9      23    -48    131     54    141 154.7  77.0  34128  289.02 0855.20
2009/04/23 09:11:23.1       0    -54    114     55    126 180.0  72.8  34130  289.06 0855.20
2009/04/23 09:11:23.1       9    -68    107     69    127 172.0  64.6  34126  289.01 0855.20
2009/04/23 09:11:23.3      -7   -100    109    101    148 184.5  52.2  34124  288.96 0855.20
2009/04/23 09:11:23.3       7    -43     96     44    105 170.2  73.5  34122  288.92 0855.20
2009/04/23 09:11:23.5      14     19     66     24     70  36.1  80.2  34124  288.97 0855.20
2009/04/23 09:11:23.6      33     17     79     38     87  62.9  72.9  34124  288.97 0855.20
2009/04/23 09:11:23.7      -7   -111    121    112    164 184.0  52.2  34120  288.89 0855.20
2009/04/23 09:11:23.8     -34   -124    113    129    171 195.6  45.8  34114  288.80 0855.20
2009/04/23 09:11:23.9     -48    -65     95     82    125 216.5  54.3  34112  288.77 0855.20
2009/04/23 09:11:24.0     -23    -72     91     76    118 198.3  55.8  34114  288.79 0855.20
2009/04/23 09:11:24.1     -33   -124    105    129    166 195.2  43.7  34114  288.80 0855.20
2009/04/23 09:11:24.2     -27   -137     94    140    168 191.5  37.0  34114  288.79 0855.20
2009/04/23 09:11:24.3     -34   -136    113    141    180 194.3  43.0  34112  288.77 0855.20
2009/04/23 09:11:24.4     -55   -171     97    180    204 198.0  30.8  34110  288.72 0855.20
2009/04/23 09:11:24.5     -98   -166     70    193    205 210.7  20.4  34112  288.75 0855.20
2009/04/23 09:11:24.6    -122   -155     54    198    206 218.1  15.3  34114  288.80 0855.20
2009/04/23 09:11:24.7    -138   -147     17    202    203 223.2   5.0  34118  288.86 0855.20
2009/04/23 09:11:24.8    -130   -131     22    185    187 224.8   6.9  34116  288.84 0855.18
2009/04/23 09:11:24.9    -127   -115     13    172    173 228.0   4.6  34118  288.87 0855.18
2009/04/23 09:11:25.0     -74   -146     -3    164    165 207.0  -1.1  34118  288.87 0855.18
2009/04/23 09:11:25.1     -86   -182    -58    202    211 205.5 -16.0  34114  288.80 0855.18
2009/04/23 09:11:25.2     -48   -203    -71    209    222 193.4 -18.9  34110  288.74 0855.18
2009/04/23 09:11:25.3     -52   -232     24    238    240 192.7   5.9  34108  288.70 0855.18
2009/04/23 09:11:25.4     -52   -227     15    233    234 192.9   3.9  34112  288.76 0855.18
2009/04/23 09:11:25.5     -31   -249     56    251    258 187.1  12.6  34112  288.76 0855.18
2009/04/23 09:11:25.6     -33   -254     59    257    264 187.6  13.1  34112  288.76 0855.18
2009/04/23 09:11:25.7     -31   -223     46    226    231 188.0  11.6  34114  288.80 0855.18
2009/04/23 09:11:25.8      23   -219     52    221    228 173.8  13.2  34112  288.75 0855.18
2009/04/23 09:11:25.9      15   -242     24    243    245 176.4   5.7  34114  288.80 0855.18
2009/04/23 09:11:26.0      -3   -222      1    223    224 181.0   0.5  34114  288.80 0855.18
2009/04/23 09:11:26.1      36   -210    110    214    240 170.2  29.3  34112  288.75 0855.18
2009/04/23 09:11:26.2      42   -197     82    202    218 167.7  23.1  34116  288.82 0855.18
2009/04/23 09:11:26.3      76   -225     37    238    241 161.3   9.0  34114  288.80 0855.18
2009/04/23 09:11:26.4     139   -282     37    315    318 153.7   6.7  34116  288.83 0855.18
2009/04/23 09:11:26.5     245   -263     64    360    366 137.0  10.1  34116  288.81 0855.18
2009/04/23 09:11:26.6     213   -197     65    291    299 132.7  12.6  34116  288.83 0855.18
2009/04/23 09:11:26.7     166   -199     81    260    273 140.1  17.3  34114  288.80 0855.18
2009/04/23 09:11:26.8     203   -150     32    253    256 126.4   7.2  34114  288.80 0855.18
2009/04/23 09:11:26.9     194   -119     79    228    242 121.5  19.2  34114  288.78 0855.18
2009/04/23 09:11:27.0     173   -171     34    244    247 134.7   8.0  34116  288.81 0855.18
2009/04/23 09:11:27.1     192   -150     -5    244    245 128.0  -1.3  34116  288.81 0855.18
2009/04/23 09:11:27.2     231   -149     -3    276    277 122.9  -0.7  34116  288.81 0855.18
2009/04/23 09:11:27.3     181   -131     27    224    226 126.0   6.9  34114  288.80 0855.18
2009/04/23 09:11:27.4     187    -96     25    211    213 117.1   6.9  34112  288.75 0855.18
2009/04/23 09:11:27.5     207   -144     35    253    256 124.9   8.0  34116  288.81 0855.18
2009/04/23 09:11:27.6     160   -113      6    197    198 125.3   1.8  34114  288.79 0855.18
2009/04/23 09:11:27.7     197   -138     -4    241    242 125.1  -1.1  34114  288.80 0855.18
2009/04/23 09:11:27.8     172   -153     20    231    232 131.8   5.0  34114  288.80 0855.18
2009/04/23 09:11:27.9     176   -136     82    223    237 127.8  21.0  34116  288.81 0855.18
2009/04/23 09:11:28.0     108   -142    117    179    213 142.8  36.0  34116  288.84 0855.18
2009/04/23 09:11:28.1     155   -136     91    207    226 131.3  25.2  34112  288.77 0855.18
2009/04/23 09:11:28.2     202    -63     41    212    216 107.5  11.0  34114  288.80 0855.18
2009/04/23 09:11:28.3     160    -66     39    174    179 112.6  12.6  34116  288.84 0855.18
2009/04/23 09:11:28.4     107    -64     67    125    141 121.1  30.8  34116  288.82 0855.18
2009/04/23 09:11:28.5      79    -67     87    104    135 130.4  43.8  34116  288.82 0855.18
2009/04/23 09:11:28.6      35    -44     62     57     84 141.3  52.2  34116  288.82 0855.18
2009/04/23 09:11:28.7      12    -62     73     64     97 168.5  54.3  34114  288.80 0855.18
2009/04/23 09:11:28.8     -14    -86    121     88    149 189.3  60.5  34118  288.86 0855.18
2009/04/23 09:11:28.9      31     10    101     33    106  71.8  80.7  34120  288.91 0855.18
2009/04/23 09:11:29.0     110    -44    125    119    172 111.8  51.2  34118  288.87 0855.18
2009/04/23 09:11:29.1     108    -58    119    123    171 118.4  49.2  34116  288.82 0855.18
2009/04/23 09:11:29.2     109    -66    113    128    170 121.5  45.8  34122  288.92 0855.18
2009/04/23 09:11:29.3      12   -111    121    112    164 173.8  52.2  34116  288.84 0855.18
2009/04/23 09:11:29.4      56   -139    171    150    227 158.1  54.3  34126  288.99 0855.18
2009/04/23 09:11:29.5      70   -109    132    130    185 147.0  49.9  34126  288.99 0855.18
2009/04/23 09:11:29.6      -8   -104    133    105    169 184.5  57.7  34128  289.04 0855.18
2009/04/23 09:11:29.7      19   -124    155    126    199 171.1  56.6  34128  289.02 0855.18
2009/04/23 09:11:29.8     -20   -143    150    145    208 188.0  50.9  34122  288.94 0855.17
2009/04/23 09:11:29.9     -31   -151    130    155    202 191.6  44.3  34120  288.91 0855.17
2009/04/23 09:11:30.0      11    -80    107     81    134 172.0  59.0  34120  288.91 0855.17
2009/04/23 09:11:30.1      54   -101    113    115    161 151.9  49.8  34120  288.91 0855.17
2009/04/23 09:11:30.2      37   -133     97    139    169 164.4  38.4  34120  288.91 0855.17
2009/04/23 09:11:30.3      27   -134     86    137    161 168.5  35.0  34118  288.87 0855.17
2009/04/23 09:11:30.4     -12   -142     61    143    155 184.9  24.6  34120  288.89 0855.17
2009/04/23 09:11:30.5       3    -67     64     68     93 177.3  49.0  34120  288.89 0855.17
2009/04/23 09:11:30.6      16    -28     57     33     65 149.3  66.8  34122  288.92 0855.17
2009/04/23 09:11:30.7      15      1     30     16     34  85.6  70.8  34122  288.92 0855.17
2009/04/23 09:11:30.8       7    -24     38     26     46 163.1  62.6  34122  288.92 0855.17
2009/04/23 09:11:30.9      -6    -40     72     41     82 188.9  68.3  34124  288.96 0855.17
2009/04/23 09:11:31.0       1    -16     48     17     50 175.6  81.2  34122  288.94 0855.17
2009/04/23 09:11:31.1      15     -5     30     16     34 108.6  70.8  34126  288.99 0855.17
2009/04/23 09:11:31.2      54    -78     73     95    119 145.3  41.7  34120  288.91 0855.17
2009/04/23 09:11:31.3      33   -115     63    120    135 164.0  29.8  34120  288.89 0855.17
2009/04/23 09:11:31.4      25    -63     28     68     73 158.2  23.0  34118  288.87 0855.17
2009/04/23 09:11:31.5     -13    -46     -7     48     49 196.0  -9.3  34120  288.89 0855.17
2009/04/23 09:11:31.6     -53    -56      5     78     79 223.3   3.8  34120  288.91 0855.17
2009/04/23 09:11:31.7     -18    -40     56     44     71 204.5  56.4  34120  288.89 0855.17
2009/04/23 09:11:31.8     -24    -24     64     34     72 225.0  69.8  34122  288.92 0855.16
2009/04/23 09:11:31.9     -41     23     41     48     63 299.8  44.8  34122  288.92 0855.16
2009/04/23 09:11:32.0     -44      3     45     45     63 274.4  50.1  34120  288.89 0855.16
2009/04/23 09:11:32.1     -63   -129     48    144    152 206.3  18.6  34118  288.87 0855.16
2009/04/23 09:11:32.2     -58    -91     57    109    123 212.5  29.3  34118  288.87 0855.16
2009/04/23 09:11:32.3     -49   -132     90    141    167 200.5  35.5  34118  288.87 0855.16
2009/04/23 09:11:32.4     -22   -107     82    110    137 192.0  40.7  34120  288.89 0855.16
2009/04/23 09:11:32.5     -60    -50     83     79    114 230.4  51.2  34118  288.87 0855.16
2009/04/23 09:11:32.6     -52    -55     99     76    124 223.3  58.5  34118  288.86 0855.16
2009/04/23 09:11:32.7     -84    -95    113    127    169 221.4  46.4  34114  288.80 0855.16
2009/04/23 09:11:32.8    -115    -73     85    137    161 237.6  34.8  34116  288.82 0855.16
2009/04/23 09:11:32.9    -108    -30     78    113    137 254.5  38.0  34120  288.89 0855.16
2009/04/23 09:11:33.0     -90    -74    117    117    165 230.4  50.1  34116  288.82 0855.16
2009/04/23 09:11:33.1     -97    -68     80    119    143 234.9  37.0  34118  288.86 0855.16
2009/04/23 09:11:33.2    -110    -57    143    125    189 242.5  54.6  34118  288.86 0855.16
2009/04/23 09:11:33.3     -80   -113    158    139    210 215.2  54.3  34116  288.84 0855.16
2009/04/23 09:11:33.4     -23   -136    145    138    200 189.7  51.4  34116  288.82 0855.16
2009/04/23 09:11:33.5     -51   -129    152    139    205 201.8  53.0  34116  288.84 0855.16
2009/04/23 09:11:33.6     -14    -93    142     95    170 188.5  63.4  34120  288.91 0855.16
2009/04/23 09:11:33.7      11    -81     75     82    111 172.0  47.5  34118  288.87 0855.16
2009/04/23 09:11:33.8      25      0     25     26     36  90.0  52.0  34118  288.86 0855.16
2009/04/23 09:11:33.9       2    -36    111     37    117 175.6  81.0  34118  288.86 0855.16
2009/04/23 09:11:34.0      32    -78     99     85    130 157.3  54.8  34116  288.84 0855.16
2009/04/23 09:11:34.1       6    -31     74     32     80 168.5  75.0  34116  288.84 0855.16
2009/04/23 09:11:34.2       2    -16     64     17     66 172.0  84.9  34120  288.91 0855.16
2009/04/23 09:11:34.3     -43    -91     35    101    108 205.5  19.2  34118  288.86 0855.16
2009/04/23 09:11:34.4     -64    -96     40    116    123 213.8  19.4  34114  288.79 0855.16
2009/04/23 09:11:34.5     -50    -86     73    100    123 210.3  39.7  34116  288.82 0855.16
2009/04/23 09:11:34.6     -91   -125    101    155    185 216.1  36.0  34116  288.84 0855.16
2009/04/23 09:11:34.7     -66   -139    121    155    196 205.5  42.0  34118  288.87 0855.16
2009/04/23 09:11:34.8     -61   -129    123    143    188 205.5  44.8  34120  288.89 0855.16
2009/04/23 09:11:34.9     -50   -144    107    153    186 199.2  38.6  34116  288.84 0855.16
2009/04/23 09:11:35.0     -47   -144    128    152    198 198.3  44.3  34118  288.86 0855.16
2009/04/23 09:11:35.1     -68   -157    137    172    219 203.6  42.7  34116  288.84 0855.16
2009/04/23 09:11:35.2     -92   -144    139    172    221 212.7  43.5  34118  288.87 0855.16
2009/04/23 09:11:35.3     -80   -127    148    151    211 212.1  49.8  34118  288.87 0855.16
2009/04/23 09:11:35.4     -59   -115    130    130    183 207.1  50.1  34120  288.91 0855.16
2009/04/23 09:11:35.5     -47   -118     95    128    159 201.9  40.4  34116  288.82 0855.16
2009/04/23 09:11:35.6     -21    -95     98     98    138 192.9  50.1  34114  288.79 0855.16
2009/04/23 09:11:35.7     -42   -136    100    143    174 197.4  38.0  34118  288.87 0855.16
2009/04/23 09:11:35.8     -44   -147     78    154    172 196.9  29.1  34116  288.84 0855.16
2009/04/23 09:11:35.9     -45   -135    106    143    178 198.7  40.1  34116  288.84 0855.16
2009/04/23 09:11:36.0     -49   -136     97    145    174 200.0  36.7  34118  288.87 0855.16
2009/04/23 09:11:36.1     -51   -117     95    128    159 203.6  40.4  34120  288.89 0855.16
2009/04/23 09:11:36.2     -39   -116     90    123    152 198.7  39.7  34118  288.86 0855.16
2009/04/23 09:11:36.3     -50   -129     78    139    159 201.4  31.9  34120  288.89 0855.16
2009/04/23 09:11:36.4     -71    -86     81    112    138 219.6  39.5  34120  288.89 0855.16
2009/04/23 09:11:36.5     -70    -46     74     84    111 236.7  46.4  34122  288.92 0855.16
2009/04/23 09:11:36.6     -52    -53     62     75     97 224.2  43.8  34120  288.91 0855.16
2009/04/23 09:11:36.7     -38    -60     69     72     99 212.5  49.0  34120  288.91 0855.16
2009/04/23 09:11:36.8     -53    -33     65     63     90 237.6  50.7  34120  288.89 0855.16
2009/04/23 09:11:36.9     -34    -84     93     91    130 202.3  50.1  34120  288.89 0855.16
2009/04/23 09:11:37.0     -32    -95     69    101    122 198.7  37.6  34120  288.89 0855.16
2009/04/23 09:11:37.1     -27    -63     54     69     87 203.6  42.2  34120  288.89 0855.16
2009/04/23 09:11:37.2     -38    -46     36     61     70 219.6  33.5  34122  288.92 0855.16
2009/04/23 09:11:37.3     -55    -29     41     63     75 242.0  35.6  34122  288.92 0855.16
2009/04/23 09:11:37.4     -77    -87     41    117    125 221.4  19.4  34120  288.91 0855.16
2009/04/23 09:11:37.5    -115    -59     16    130    132 242.9   7.1  34118  288.87 0855.16
2009/04/23 09:11:37.6     -81    -33    -29     88     92 247.4 -23.8  34120  288.89 0855.16
2009/04/23 09:11:37.7     -82    -38    -12     91     92 245.2  -7.7  34120  288.91 0855.16
2009/04/23 09:11:37.8     -62    -54      0     83     84 228.7  -0.3  34126  288.99 0855.17
2009/04/23 09:11:37.9     -50    -50      8     71     72 225.1   6.9  34128  289.04 0855.17
2009/04/23 09:11:38.0     -76    -25     -3     81     82 251.8  -2.2  34128  289.02 0855.17
2009/04/23 09:11:38.1     -56    -46     25     73     78 230.5  19.4  34128  289.04 0855.17
2009/04/23 09:11:38.2     -60    -51     33     80     86 229.6  23.0  34134  289.14 0855.17
2009/04/23 09:11:38.3     -77    -38     37     87     94 243.4  24.6  34134  289.14 0855.17
2009/04/23 09:11:38.4     -67    -42     37     80     88 237.5  26.2  34138  289.21 0855.17
2009/04/23 09:11:38.5     -88      0      4     89     90 269.6   2.9  34134  289.14 0855.17
2009/04/23 09:11:38.6     -77    -25     20     82     85 251.8  14.3  34138  289.21 0855.17
2009/04/23 09:11:38.7     -57    -21     21     61     65 249.2  19.4  34140  289.23 0855.17
2009/04/23 09:11:38.8     -37    -12     24     40     46 251.4  34.4  34140  289.24 0855.17
2009/04/23 09:11:38.9     -30    -27     32     41     52 227.8  42.7  34138  289.21 0855.17
2009/04/23 09:11:39.0     -27    -40     20     49     52 214.3  23.0  34138  289.21 0855.17
2009/04/23 09:11:39.1     -43    -45      6     63     64 223.2   5.9  34138  289.19 0855.17
2009/04/23 09:11:39.2     -46    -46     13     66     68 225.0  11.1  34142  289.26 0855.17
2009/04/23 09:11:39.3     -23    -63     14     68     70 200.0  12.2  34134  289.14 0855.17
2009/04/23 09:11:39.4     -21    -65     13     69     71 197.8  11.0  34130  289.08 0855.17
2009/04/23 09:11:39.5     -24    -70      3     75     76 199.2   2.9  34130  289.06 0855.17
2009/04/23 09:11:39.6     -46    -70     28     84     89 213.4  18.9  34120  288.89 0855.17
2009/04/23 09:11:39.7     -29    -97     39    102    109 196.5  21.5  34118  288.86 0855.17
2009/04/23 09:11:39.8     -57   -122     36    135    140 205.3  15.3  34116  288.84 0855.19
2009/04/23 09:11:39.9     -52   -120     20    131    133 203.6   9.0  34118  288.86 0855.19
2009/04/23 09:11:40.0     -39   -109     32    116    121 200.0  15.8  34120  288.89 0855.19
2009/04/23 09:11:40.1     -40    -84     87     94    128 205.3  47.9  34118  288.87 0855.19
2009/04/23 09:11:40.2     -96   -112     40    148    154 220.5  15.3  34136  289.16 0855.19
2009/04/23 09:11:40.3     -87   -104      2    136    137 220.1   1.2  34140  289.24 0855.19
2009/04/23 09:11:40.4     -58    -70    -24     92     96 219.6 -15.0  34130  289.06 0855.19
2009/04/23 09:11:40.5     -48    -50    -40     70     80 224.1 -36.8  34130  289.06 0855.19
2009/04/23 09:11:40.6     -21     -7      3     23     24 251.4   9.0  34128  289.02 0855.19
2009/04/23 09:11:40.7      -1    -11     31     12     33 188.0  81.2  34128  289.02 0855.19
2009/04/23 09:11:40.8       0    -40     18     41     44 179.1  24.1  34128  289.02 0855.19
2009/04/23 09:11:40.9      -1    -30     14     31     34 182.6  25.1  34128  289.02 0855.19
2009/04/23 09:11:41.0     -24    -38     25     46     52 212.5  30.3  34124  288.96 0855.19
2009/04/23 09:11:41.1     -38    -47     51     61     79 218.7  44.3  34122  288.92 0855.19
2009/04/23 09:11:41.2     -26    -46     26     54     59 209.9  27.3  34118  288.86 0855.19
2009/04/23 09:11:41.3     -26    -46     26     54     59 209.9  27.3  34120  288.89 0855.19
2009/04/23 09:11:41.4       1    -18     35     19     39 175.6  68.8  34120  288.91 0855.19
2009/04/23 09:11:41.5      -3    -31     56     32     64 186.2  67.7  34120  288.89 0855.19
2009/04/23 09:11:41.6      -9    -21     23     24     33 203.6  52.0  34118  288.87 0855.19
2009/04/23 09:11:41.7     -30      0      1     31     32 270.0   2.8  34120  288.89 0855.19
2009/04/23 09:11:41.8     -14      4      8     15     17 288.4  31.4  34122  288.92 0855.20
2009/04/23 09:11:41.9     -18      5     15     19     24 288.2  43.7  34120  288.89 0855.20
2009/04/23 09:11:42.0     -26     -8     20     28     34 251.4  37.6  34120  288.89 0855.20
2009/04/23 09:11:42.1     -61    -30     40     68     78 243.8  33.5  34118  288.86 0855.20
2009/04/23 09:11:42.2     -84    -53     -1    100    101 238.0  -0.7  34116  288.82 0855.20
2009/04/23 09:11:42.3     -83    -56      0    101    102 235.8  -0.3  34118  288.86 0855.20
2009/04/23 09:11:42.4     -88    -62     14    108    109 234.9   7.5  34120  288.91 0855.20
2009/04/23 09:11:42.5     -89    -24     20     93     96 254.9  12.6  34120  288.91 0855.20
2009/04/23 09:11:42.6     -77    -66     -4    102    103 229.6  -2.2  34120  288.91 0855.20
2009/04/23 09:11:42.7     -59    -94    -17    112    114 212.1  -8.8  34118  288.87 0855.20
2009/04/23 09:11:42.8      17    -82      7     84     85 168.0   4.9  34118  288.87 0855.20
2009/04/23 09:11:42.9       6   -118     13    119    120 176.9   6.5  34118  288.87 0855.20
2009/04/23 09:11:43.0      43   -139     65    146    159 162.6  25.7  34118  288.87 0855.20
2009/04/23 09:11:43.1     -18   -154     73    156    172 186.7  27.0  34114  288.79 0855.20
2009/04/23 09:11:43.2     -53   -184    113    192    222 196.0  33.4  34118  288.87 0855.20
2009/04/23 09:11:43.3     -13   -197     93    198    218 183.8  27.1  34118  288.86 0855.20
2009/04/23 09:11:43.4     -53   -184    113    192    222 196.0  33.4  34118  288.87 0855.20
2009/04/23 09:11:43.5     -54   -198    110    206    233 195.4  30.6  34116  288.84 0855.20
2009/04/23 09:11:43.6     -61   -171    109    182    212 199.8  34.0  34118  288.86 0855.20
2009/04/23 09:11:43.7     -25   -173    124    175    214 188.5  38.6  34116  288.82 0855.20
2009/04/23 09:11:43.8     -36   -192    176    196    263 190.7  46.9  34116  288.81 0855.20
2009/04/23 09:11:43.9    -176   -168    159    244    291 226.2  35.7  34122  288.92 0855.20
2009/04/23 09:11:44.0    -115   -166    106    202    228 214.7  29.8  34118  288.86 0855.20
2009/04/23 09:11:44.1     -90   -161    103    185    211 209.2  31.6  34114  288.80 0855.20
2009/04/23 09:11:44.2    -125   -116     69    171    184 227.1  23.0  34114  288.80 0855.20
2009/04/23 09:11:44.3    -117    -95     78    152    170 230.9  29.3  34116  288.84 0855.20
2009/04/23 09:11:44.4     -62    -41     14     75     77 236.7  11.1  34116  288.82 0855.20
2009/04/23 09:11:44.5     -16   -105     91    107    140 188.9  44.8  34116  288.84 0855.20
2009/04/23 09:11:44.6     -19   -132     88    134    160 188.5  36.5  34116  288.82 0855.20
2009/04/23 09:11:44.7     -24   -167    132    169    214 188.2  42.0  34112  288.77 0855.20
2009/04/23 09:11:44.8       1   -160    111    161    195 179.5  37.8  34116  288.84 0855.20
2009/04/23 09:11:44.9     -32   -156    113    160    195 191.6  38.6  34110  288.74 0855.20
2009/04/23 09:11:45.0     -32   -168    140    172    221 190.9  43.7  34110  288.74 0855.20
2009/04/23 09:11:45.1     -18   -183    150    184    237 185.8  43.5  34112  288.77 0855.20
2009/04/23 09:11:45.2     -11   -201    157    202    255 183.4  41.7  34114  288.78 0855.20
2009/04/23 09:11:45.3     -25   -198    148    200    248 187.3  40.4  34114  288.80 0855.20
2009/04/23 09:11:45.4     -42   -198    142    203    247 192.0  38.5  34114  288.80 0855.20
2009/04/23 09:11:45.5     -39   -174    148    179    232 192.9  43.8  34114  288.79 0855.20
2009/04/23 09:11:45.6     -49   -184    164    191    251 194.9  44.9  34112  288.75 0855.20
2009/04/23 09:11:45.7     -60   -179    170    189    254 198.7  46.6  34116  288.81 0855.20
2009/04/23 09:11:45.8     -53   -184    159    192    249 196.0  43.8  34112  288.75 0855.20
2009/04/23 09:11:45.9     -29   -143    128    146    194 191.5  45.8  34112  288.77 0855.20
2009/04/23 09:11:46.0      -2    -90    105     91    138 181.8  54.3  34116  288.84 0855.20
2009/04/23 09:11:46.1      -6    -76    107     77    131 184.5  60.5  34116  288.82 0855.20
2009/04/23 09:11:46.2     -16   -104     99    106    145 188.9  48.0  34114  288.80 0855.20
2009/04/23 09:11:46.3     -25   -101     85    105    135 194.3  43.7  34116  288.84 0855.20
2009/04/23 09:11:46.4     -27   -104     93    108    142 194.7  45.4  34114  288.80 0855.20
2009/04/23 09:11:46.5     -30    -75     78     81    112 201.8  49.0  34118  288.86 0855.20
2009/04/23 09:11:46.6     -24    -47     72     53     89 207.2  60.0  34114  288.80 0855.20
2009/04/23 09:11:46.7     -22    -67     55     71     89 198.5  42.2  34120  288.89 0855.20
2009/04/23 09:11:46.8     -11    -85     44     86     96 187.6  29.3  34114  288.80 0855.20
2009/04/23 09:11:46.9     -45    -69     61     83    103 213.4  40.1  34114  288.79 0855.20
2009/04/23 09:11:47.0     -50    -73     43     89     98 214.7  27.8  34112  288.77 0855.20
2009/04/23 09:11:47.1    -140    -35     28    145    148 255.8  11.1  34112  288.77 0855.20
2009/04/23 09:11:47.2    -110     32     70    115    134 286.4  35.0  34114  288.79 0855.20
2009/04/23 09:11:47.3     -87     -6     68     88    111 265.6  42.2  34114  288.79 0855.20
2009/04/23 09:11:47.4     -34    -12     62     37     72 250.0  65.7  34114  288.79 0855.20
2009/04/23 09:11:47.5     -12     14     66     19     68 320.4  82.8  34114  288.79 0855.20
2009/04/23 09:11:47.6     -76     34     88     84    121 294.0  51.2  34114  288.80 0855.20
2009/04/23 09:11:47.7    -114    -34     91    120    150 253.2  41.2  34112  288.77 0855.20
2009/04/23 09:11:47.8     -65    -24     59     70     91 249.2  44.3  34114  288.80 0855.20
2009/04/23 09:11:47.9     -92      0     22     93     96 270.0  13.7  34114  288.80 0855.20
2009/04/23 09:11:48.0     -96    -17      0     98     99 259.9  -0.3  34110  288.74 0855.20
2009/04/23 09:11:48.1     -74      5    -19     75     78 274.4 -14.5  34114  288.79 0855.20
2009/04/23 09:11:48.2     -32     16      7     37     38 297.1  11.1  34114  288.80 0855.20
2009/04/23 09:11:48.3     -14     -3     24     15     28 254.9  64.7  34116  288.84 0855.20
2009/04/23 09:11:48.4     -14    -15     14     21     25 223.2  35.6  34114  288.80 0855.20
2009/04/23 09:11:48.5      15    -23     14     28     31 147.5  27.3  34116  288.84 0855.20
2009/04/23 09:11:48.6      13    -39     53     42     67 161.5  57.5  34118  288.86 0855.20
2009/04/23 09:11:48.7     -45    -70     95     84    126 212.5  54.2  34116  288.82 0855.20
2009/04/23 09:11:48.8     -64    -67    100     94    137 223.7  52.1  34116  288.82 0855.20
2009/04/23 09:11:48.9     -73    -65     64     98    117 228.2  35.6  34116  288.84 0855.20
2009/04/23 09:11:49.0     -59    -82     64    102    120 216.0  35.5  34116  288.82 0855.20
2009/04/23 09:11:49.1     -44   -115     52    124    134 200.9  24.1  34116  288.84 0855.20
2009/04/23 09:11:49.3     -65    -92     86    113    142 215.2  41.2  34118  288.86 0855.20
2009/04/23 09:11:49.3     -72    -19     17     75     78 254.9  13.2  34128  289.02 0855.20
2009/04/23 09:11:49.5     -29    -46     59     55     80 212.6  52.2  34122  288.92 0855.20
2009/04/23 09:11:49.6     -15    -75    121     77    143 191.5  64.7  34118  288.87 0855.20
2009/04/23 09:11:49.7     -12    -62     86     64    107 191.6  60.0  34118  288.87 0855.20
2009/04/23 09:11:49.7       2    -85     84     86    120 178.6  50.0  34118  288.86 0855.20
2009/04/23 09:11:49.9      32    -67     41     75     85 154.7  31.4  34116  288.82 0855.20
2009/04/23 09:11:50.0      34    -86     34     93     99 158.2  20.4  34116  288.82 0855.20
2009/04/23 09:11:50.1     -14    -82     38     84     92 190.2  26.2  34114  288.79 0855.20
2009/04/23 09:11:50.2     -51   -147     -4    156    157 199.2  -1.8  34116  288.82 0855.20
2009/04/23 09:11:50.3     -93   -196     34    217    220 205.4   8.9  34110  288.74 0855.20
2009/04/23 09:11:50.4    -104   -159     54    191    199 213.2  15.8  34106  288.67 0855.20
2009/04/23 09:11:50.5    -136   -196     42    239    243 214.7  10.1  34110  288.73 0855.20
2009/04/23 09:11:50.6     -83   -166     31    186    189 206.5   9.5  34110  288.74 0855.20
2009/04/23 09:11:50.7    -130   -155     55    203    211 219.9  15.3  34110  288.72 0855.20
2009/04/23 09:11:50.8    -166   -137    107    216    241 230.5  28.2  34108  288.68 0855.20
2009/04/23 09:11:50.9     -89   -121    149    151    212 216.5  50.0  34112  288.77 0855.19
2009/04/23 09:11:51.0     -86   -111    139    141    197 217.9  49.9  34110  288.74 0855.19
2009/04/23 09:11:51.1    -142    -60     87    155    177 246.9  31.6  34120  288.89 0855.19
2009/04/23 09:11:51.2    -136    -36     48    141    150 254.9  18.9  34144  289.30 0855.19
2009/04/23 09:11:51.3    -148    -48     29    156    159 251.8  10.8  34122  288.92 0855.19
2009/04/23 09:11:51.4     -92    -82    -12    124    125 228.2  -5.6  34118  288.86 0855.19
2009/04/23 09:11:51.5     -96   -120     25    154    157 218.7   9.5  34112  288.77 0855.19
2009/04/23 09:11:51.6    -106   -111      8    154    155 223.7   3.3  34112  288.77 0855.19
2009/04/23 09:11:51.7    -101   -141     50    174    182 215.8  16.0  34108  288.70 0855.19
2009/04/23 09:11:51.8     -88   -112     26    143    146 218.3  10.6  34112  288.75 0855.19
2009/04/23 09:11:51.9     -95    -74      6    121    122 232.2   3.3  34110  288.74 0855.19
2009/04/23 09:11:52.0     -67    -80     30    105    110 219.7  16.3  34110  288.74 0855.19
2009/04/23 09:11:52.1     -78    -23     16     82     84 253.2  11.1  34110  288.74 0855.19
2009/04/23 09:11:52.2     -31    -14      6     35     36 244.7  11.1  34114  288.80 0855.19
2009/04/23 09:11:52.3     -62     -7     23     63     67 263.0  20.0  34110  288.74 0855.19
2009/04/23 09:11:52.4     -96     -1     63     97    115 269.2  35.6  34110  288.74 0855.19
2009/04/23 09:11:52.5    -115    -23     75    118    139 258.6  35.5  34110  288.72 0855.19
2009/04/23 09:11:52.6    -143    -12     84    144    166 265.2  32.9  34112  288.75 0855.19
2009/04/23 09:11:52.7    -167     12     76    168    184 274.1  26.2  34112  288.77 0855.19
2009/04/23 09:11:52.8    -187    -16     71    188    200 265.0  21.5  34112  288.77 0855.19
2009/04/23 09:11:52.9    -179    -12     61    180    191 266.1  18.9  34118  288.86 0855.19
2009/04/23 09:11:53.0    -163    -13     66    164    176 265.4  23.1  34118  288.87 0855.19
2009/04/23 09:11:53.1    -170     11     64    171    182 273.9  21.3  34118  288.86 0855.19
2009/04/23 09:11:53.2    -214    -16     64    215    225 265.6  16.6  34110  288.74 0855.19
2009/04/23 09:11:53.3    -222    -18     29    223    225 265.2   7.5  34114  288.79 0855.19
2009/04/23 09:11:53.4    -165      4     20    166    168 271.5   6.9  34124  288.97 0855.19
2009/04/23 09:11:53.5    -162     -8     36    163    168 267.0  12.6  34116  288.82 0855.19
2009/04/23 09:11:53.6    -175      3     47    176    183 271.3  15.0  34130  289.08 0855.19
2009/04/23 09:11:53.7    -117     27     53    121    132 283.3  25.1  34140  289.23 0855.19
2009/04/23 09:11:53.8    -149     -6      7    150    151 267.4   2.9  34126  289.01 0855.19
2009/04/23 09:11:53.9    -154    -21      6    156    157 262.0   2.3  34136  289.16 0855.19
2009/04/23 09:11:54.0    -157    -49     23    165    167 252.5   8.0  34134  289.13 0855.19
2009/04/23 09:11:54.1    -101   -100     65    143    157 225.1  26.2  34124  288.97 0855.19
2009/04/23 09:11:54.2    -103   -131     17    167    168 218.3   6.1  34146  289.35 0855.19
2009/04/23 09:11:54.3     -96   -141     70    171    184 214.3  23.1  34180  289.92 0855.19
2009/04/23 09:11:54.4     -63    -98     73    117    137 213.0  35.5  34184  289.99 0855.19
2009/04/23 09:11:54.5     -72    -66     37     98    104 227.3  21.0  34178  289.89 0855.19
2009/04/23 09:11:54.6     -51    -69     53     86    101 216.5  35.0  34168  289.72 0855.19
2009/04/23 09:11:54.7     -16    -78     63     80    101 191.6  42.7  34146  289.33 0855.19
2009/04/23 09:11:54.8     -33    -97    113    103    152 198.7  52.2  34148  289.36 0855.19
2009/04/23 09:11:54.9     -57   -121    107    134    171 205.3  43.0  34142  289.28 0855.19
2009/04/23 09:11:55.0    -123    -44     74    131    150 250.0  31.4  34148  289.36 0855.19
2009/04/23 09:11:55.1    -118    -59     94    132    162 243.4  39.1  34138  289.19 0855.19
2009/04/23 09:11:55.2    -135   -112     60    176    187 230.2  18.9  34122  288.94 0855.19
2009/04/23 09:11:55.3    -133   -120    106    180    208 228.0  33.5  34130  289.08 0855.19
2009/04/23 09:11:55.4    -131    -84     72    156    171 237.1  26.6  34150  289.41 0855.19
2009/04/23 09:11:55.5     -17    -64     82     67    105 195.1  56.4  34146  289.35 0855.19
2009/04/23 09:11:55.6     -56     37     60     68     90 303.3  45.8  34148  289.36 0855.19
2009/04/23 09:11:55.7     -88     48     55    101    115 298.9  31.4  34156  289.52 0855.19
2009/04/23 09:11:55.8     -43     36     15     57     60 309.6  15.3  34166  289.69 0855.19
2009/04/23 09:11:55.9      38     62     36     73     81  31.6  28.2  34156  289.50 0855.19
2009/04/23 09:11:56.0     -33     71     63     79    101 334.7  43.3  34160  289.57 0855.19
2009/04/23 09:11:56.1       0    105     70    106    127   0.5  36.5  34144  289.31 0855.19
2009/04/23 09:11:56.2      50     64    110     82    137  38.3  59.4  34138  289.21 0855.19
2009/04/23 09:11:56.3      28     60     75     67    100  25.3  53.3  34140  289.23 0855.19
2009/04/23 09:11:56.4       8     41     60     42     73  11.6  60.6  34152  289.43 0855.19
2009/04/23 09:11:56.5      18     51     60     55     81  19.2  52.7  34152  289.43 0855.19
2009/04/23 09:11:56.6       3     41     52     42     66   4.5  56.4  34154  289.48 0855.19
2009/04/23 09:11:56.7     -16     10     50     19     53 302.4  80.2  34154  289.46 0855.19
2009/04/23 09:11:56.8       5     13     44     15     46  21.8  81.0  34152  289.43 0855.19
2009/04/23 09:11:56.9      52     -3     51     53     73  94.3  50.0  34154  289.46 0855.20
2009/04/23 09:11:57.0      67      5     49     68     83  85.6  39.7  34154  289.48 0855.20
2009/04/23 09:11:57.1      49      9     48     50     69  79.4  50.0  34164  289.65 0855.20
2009/04/23 09:11:57.2      19     26     47     33     57  36.1  61.5  34160  289.58 0855.20
2009/04/23 09:11:57.3      37     45     64     59     87  39.6  52.2  34164  289.65 0855.20
2009/04/23 09:11:57.4      67      7     69     68     96  83.9  49.7  34166  289.69 0855.20
2009/04/23 09:11:57.5      73     10     49     74     88  82.1  36.5  34168  289.72 0855.20
2009/04/23 09:11:57.6      40     14     54     43     69  70.0  56.4  34162  289.60 0855.20
2009/04/23 09:11:57.7      23     25     50     35     61  43.2  61.5  34158  289.53 0855.20
2009/04/23 09:11:57.8      16     25     50     30     58  32.5  64.7  34158  289.53 0855.20
2009/04/23 09:11:57.9     -19     40     37     45     58 333.7  43.8  34152  289.45 0855.20
2009/04/23 09:11:58.0     -35      9     19     37     41 285.1  29.3  34152  289.45 0855.20
2009/04/23 09:11:58.1     -62     -5     -9     63     64 264.8  -8.2  34154  289.46 0855.20
2009/04/23 09:11:58.2     -49    -10    -34     51     61 258.5 -40.9  34150  289.41 0855.20
2009/04/23 09:11:58.3     -51    -32    -20     61     65 237.6 -18.7  34144  289.30 0855.20
2009/04/23 09:11:58.4     -34    -41     -2     54     55 219.6  -2.2  34146  289.35 0855.20
2009/04/23 09:11:58.5     -15    -44      8     47     48 199.2  10.1  34146  289.33 0855.20
2009/04/23 09:11:58.6     -41    -50      0     65     66 219.6   0.8  34140  289.23 0855.20
2009/04/23 09:11:58.7     -18    -18     -1     26     27 225.0  -2.2  34140  289.24 0855.20
2009/04/23 09:11:58.8       0     -6      2      7      8 184.5  19.2  34140  289.24 0855.20
2009/04/23 09:11:58.9      14     -6     20     16     25 115.3  56.4  34142  289.26 0855.20
2009/04/23 09:11:59.0      32    -25     37     41     55 127.8  46.9  34140  289.24 0855.20
2009/04/23 09:11:59.1      41    -20     51     46     68 116.2  52.2  34130  289.08 0855.20
2009/04/23 09:11:59.2       8    -47     62     48     78 169.3  57.9  34130  289.08 0855.20
2009/04/23 09:11:59.3       0    -50     49     51     70 180.0  49.0  34130  289.08 0855.20
2009/04/23 09:11:59.4      -3    -25     32     26     41 188.0  56.4  34130  289.06 0855.20
2009/04/23 09:11:59.5       7      2     49      8     49  71.6  90.0  34130  289.08 0855.20
2009/04/23 09:11:59.6      65     25     42     70     81  68.3  34.0  34150  289.41 0855.20
2009/04/23 09:11:59.7      53     24     60     59     84  65.6  49.7  34168  289.70 0855.20
2009/04/23 09:11:59.8       2      7     41      8     41  18.5  90.0  34160  289.58 0855.20
2009/04/23 09:11:59.9     -51     17     57     54     78 288.4  51.6  34164  289.63 0855.20
2009/04/23 09:12:00.0      38     14     96     41    104  70.0  76.6  34154  289.46 0855.20
2009/04/23 09:12:00.1      53     33     79     63    101  57.6  56.9  34156  289.50 0855.20
2009/04/23 09:12:00.2      41     20     82     46     94  63.8  67.7  34158  289.55 0855.20
2009/04/23 09:12:00.3      32     23     50     40     64  54.0  56.4  34164  289.63 0855.20
2009/04/23 09:12:00.4      -9     29     50     31     58 341.5  64.7  34170  289.74 0855.20
2009/04/23 09:12:00.5     -12     82     47     84     96 351.1  31.9  34170  289.75 0855.20
2009/04/23 09:12:00.6     -72     95     42    120    128 322.6  19.4  34178  289.87 0855.20
2009/04/23 09:12:00.7    -123     63      1    139    140 297.1   0.7  34176  289.84 0855.20
2009/04/23 09:12:00.8    -126     13     -4    127    128 276.1  -2.2  34172  289.77 0855.20
2009/04/23 09:12:00.9    -175    -34     34    179    183 259.0  10.8  34162  289.60 0855.19
2009/04/23 09:12:01.0    -114    -21     16    116    118 259.4   8.0  34152  289.45 0855.19
2009/04/23 09:12:01.1    -104    -47      8    115    116 245.6   4.4  34154  289.46 0855.19
2009/04/23 09:12:01.2     -76    -15     61     78     99 258.6  42.2  34172  289.79 0855.19
2009/04/23 09:12:01.3     -74    -24     40     78     87 251.8  29.3  34174  289.82 0855.19
2009/04/23 09:12:01.4     -64    -25     28     69     74 248.3  23.0  34174  289.82 0855.19
2009/04/23 09:12:01.5     -60    -32     24     69     74 242.0  19.2  34172  289.79 0855.19
2009/04/23 09:12:01.6     -93    -22     18     96     98 256.3  10.6  34182  289.94 0855.19
2009/04/23 09:12:01.7     -97    -80     49    126    135 230.4  21.5  34168  289.72 0855.19
2009/04/23 09:12:01.8     -76   -209     64    223    233 200.0  16.0  34150  289.40 0855.19
2009/04/23 09:12:01.9     -60   -172      9    183    184 199.2   2.9  34128  289.02 0855.19
2009/04/23 09:12:02.0     -60   -187    -12    197    198 198.0  -3.7  34132  289.09 0855.19
2009/04/23 09:12:02.1     -35   -230      3    233    234 188.7   0.8  34112  288.75 0855.19
2009/04/23 09:12:02.2     -17   -225     11    226    227 184.5   2.9  34116  288.82 0855.19
2009/04/23 09:12:02.3     -25   -269     49    271    276 185.3  10.3  34122  288.92 0855.19
2009/04/23 09:12:02.4       4   -202     87    203    220 178.6  24.6  34114  288.80 0855.19
2009/04/23 09:12:02.5      17   -207     67    208    219 175.3  17.9  34116  288.82 0855.19
2009/04/23 09:12:02.6       5   -211     10    212    213 178.6   2.9  34134  289.13 0855.19
2009/04/23 09:12:02.7      63   -225     78    234    247 164.2  18.6  34126  289.00 0855.19
2009/04/23 09:12:02.8     -13   -169     59    170    181 184.7  19.2  34144  289.31 0855.19
2009/04/23 09:12:02.9      11   -149     53    150    160 175.6  19.4  34160  289.57 0855.19
2009/04/23 09:12:03.0      -5   -191      1    192    193 181.8   0.5  34168  289.72 0855.19
2009/04/23 09:12:03.1      46   -226    -20    231    232 168.4  -5.2  34150  289.41 0855.19
2009/04/23 09:12:03.2     131   -181     40    224    228 144.2  10.3  34152  289.43 0855.19
2009/04/23 09:12:03.3      83   -195     51    213    220 156.8  13.5  34184  289.97 0855.19
2009/04/23 09:12:03.4     101   -116     58    155    165 139.0  21.0  34178  289.87 0855.19
2009/04/23 09:12:03.5      -1    -44     86     45     97 181.8  70.4  34176  289.85 0855.19
2009/04/23 09:12:03.6      67   -108     52    128    138 148.4  23.1  34164  289.63 0855.19
2009/04/23 09:12:03.7      54   -135     65    146    159 158.1  25.7  34162  289.62 0855.19
2009/04/23 09:12:03.8      -6    -91     90     92    128 184.0  50.0  34162  289.60 0855.19
2009/04/23 09:12:03.9      37   -111    110    118    161 161.3  47.9  34152  289.45 0855.19
2009/04/23 09:12:04.0      10   -133    100    134    167 175.5  40.9  34168  289.72 0855.19
2009/04/23 09:12:04.1      11   -151    122    152    194 175.6  43.3  34176  289.84 0855.19
2009/04/23 09:12:04.2      37   -137    103    142    175 164.9  39.3  34170  289.75 0855.19
2009/04/23 09:12:04.3      19   -138     22    140    142 171.9   9.0  34166  289.67 0855.19
2009/04/23 09:12:04.4      22   -142     53    144    153 171.1  20.9  34164  289.65 0855.19
2009/04/23 09:12:04.5     -57   -166    141    176    225 198.9  43.3  34180  289.92 0855.19
2009/04/23 09:12:04.6     -10   -138     62    139    152 184.5  25.7  34176  289.84 0855.19
2009/04/23 09:12:04.7      -6   -129     68    130    146 182.7  29.3  34168  289.72 0855.19
2009/04/23 09:12:04.8     -34   -129     40    134    140 195.1  16.8  34166  289.67 0855.19
2009/04/23 09:12:04.9     -25   -122     19    125    127 191.6   9.0  34166  289.67 0855.20
2009/04/23 09:12:05.0     -10   -132     49    133    141 184.5  21.0  34168  289.72 0855.20
2009/04/23 09:12:05.1       2   -117     71    118    137 178.6  33.5  34176  289.84 0855.20
2009/04/23 09:12:05.2       2   -118     85    119    146 179.0  39.5  34140  289.24 0855.20
2009/04/23 09:12:05.3       1   -119     80    120    144 179.1  36.5  34150  289.40 0855.20
2009/04/23 09:12:05.4       8   -114     58    115    128 175.5  28.7  34160  289.57 0855.20
2009/04/23 09:12:05.5      20   -116     40    118    125 169.8  18.9  34156  289.52 0855.20
2009/04/23 09:12:05.6      39    -99     33    107    113 158.6  17.3  34154  289.48 0855.20
2009/04/23 09:12:05.7      54    -69     45     88     98 141.7  28.7  34150  289.40 0855.20
2009/04/23 09:12:05.8      73    -69     38    101    107 133.1  21.0  34146  289.33 0855.20
2009/04/23 09:12:05.9      66    -59     71     89    113 131.8  43.3  34122  288.92 0855.20
2009/04/23 09:12:06.0      50    -72     55     88    103 145.3  35.5  34116  288.84 0855.20
2009/04/23 09:12:06.1      52    -35     63     64     89 124.2  50.5  34124  288.96 0855.20
2009/04/23 09:12:06.2      31      6     67     32     74  78.6  73.1  34138  289.21 0855.20
2009/04/23 09:12:06.3     -24     21     50     32     59 311.3  64.6  34146  289.33 0855.20
2009/04/23 09:12:06.4      54     20     69     58     90  69.2  56.3  34162  289.62 0855.20
2009/04/23 09:12:06.5      84     53     49    100    111  57.6  27.3  34184  289.99 0855.20
2009/04/23 09:12:06.6      51     31     32     60     68  58.5  31.3  34184  289.99 0855.20
2009/04/23 09:12:06.7      19     23     65     30     71  39.6  73.1  34174  289.80 0855.20
2009/04/23 09:12:06.8      42    -14     88     45     98 108.6  71.4  34166  289.69 0855.20
2009/04/23 09:12:06.9      62      7    109     63    125  83.0  66.8  34194  290.14 0855.20
2009/04/23 09:12:07.0      48     66    113     82    139  36.1  60.5  34204  290.33 0855.20
2009/04/23 09:12:07.1      32     -6     91     33     96 101.5  80.2  34208  290.40 0855.20
2009/04/23 09:12:07.2     -15     14     58     21     61 313.1  80.2  34208  290.40 0855.20
2009/04/23 09:12:07.3     -11    -18     67     22     70 210.7  80.7  34216  290.53 0855.20
2009/04/23 09:12:07.4     -16     29     46     34     57 331.0  59.4  34212  290.45 0855.20
2009/04/23 09:12:07.5     -16     10     52     19     55 302.5  81.2  34196  290.18 0855.20
2009/04/23 09:12:07.6     -20    -44     17     49     52 205.3  19.4  34200  290.26 0855.20
2009/04/23 09:12:07.7     -30    -61     -7     69     70 206.3  -6.2  34222  290.62 0855.20
2009/04/23 09:12:07.8     -38    -21    -11     44     46 240.2 -14.5  34222  290.64 0855.20
2009/04/23 09:12:07.9     -66     10      5     67     68 278.8   4.9  34216  290.53 0855.20
2009/04/23 09:12:08.0    -100    -51     65    113    130 242.9  32.9  34218  290.55 0855.20
2009/04/23 09:12:08.1     -62   -103     19    121    123 211.2   9.0  34200  290.26 0855.20
2009/04/23 09:12:08.2      37    -45     23     59     63 140.3  22.0  34198  290.23 0855.20
2009/04/23 09:12:08.3     107    -49     87    118    146 114.8  39.7  34144  289.30 0855.20
2009/04/23 09:12:08.4     109    -51    120    121    170 115.4  50.2  34142  289.26 0855.20
2009/04/23 09:12:08.5      92      0    130     93    159  90.4  61.1  34140  289.23 0855.20
2009/04/23 09:12:08.6     132    -47    172    141    222 109.5  56.4  34144  289.30 0855.20
2009/04/23 09:12:08.7     166    -36    195    171    259 102.4  54.3  34140  289.22 0855.20
2009/04/23 09:12:08.8     182     -8    212    183    280  92.6  54.8  34126  288.98 0855.20
2009/04/23 09:12:08.9     171     -9    153    172    230  93.3  46.2  34134  289.13 0855.20
2009/04/23 09:12:09.0      93    -31    135     99    167 108.6  60.3  34134  289.13 0855.20
2009/04/23 09:12:09.1     136    -62    109    150    185 114.4  39.7  34134  289.14 0855.20
2009/04/23 09:12:09.2      36    -97    130    104    166 159.5  56.9  34132  289.11 0855.20
2009/04/23 09:12:09.3     -33   -175    184    179    256 190.9  51.2  34126  288.98 0855.20
2009/04/23 09:12:09.4     -28   -179    210    182    277 189.1  54.6  34140  289.24 0855.20
2009/04/23 09:12:09.5     -10   -165    199    166    259 183.8  56.3  34136  289.18 0855.20
2009/04/23 09:12:09.6     -50   -189    168    196    258 195.1  44.9  34146  289.34 0855.20
2009/04/23 09:12:09.7     -57   -138    113    150    187 202.7  40.7  34146  289.35 0855.20
2009/04/23 09:12:09.8     -47    -77    124     91    153 211.6  60.5  34146  289.35 0855.20
2009/04/23 09:12:09.9     -39    -44    118     60    132 221.4  71.0  34138  289.21 0855.20
2009/04/23 09:12:10.0     -28     16     93     33     98 300.7  80.2  34140  289.23 0855.20
2009/04/23 09:12:10.1      16     49     93     52    106  18.5  68.8  34132  289.09 0855.20
2009/04/23 09:12:10.2     -13      0    101     14    101 270.0  90.0  34138  289.21 0855.20
2009/04/23 09:12:10.3      -8     26    107     28    110 341.3  85.4  34134  289.13 0855.20
2009/04/23 09:12:10.4      75    -43    119     87    147 119.8  60.5  34128  289.04 0855.20
2009/04/23 09:12:10.5      98    -93     99    136    168 133.6  39.7  34128  289.02 0855.20
2009/04/23 09:12:10.6     131    -44    134    139    193 108.6  49.2  34122  288.92 0855.20
2009/04/23 09:12:10.7     128    -35    148    133    198 105.5  53.5  34122  288.94 0855.20
2009/04/23 09:12:10.8      54     -4    105     55    118  94.4  70.4  34130  289.06 0855.20
2009/04/23 09:12:10.9      67     35    131     76    151  62.0  67.2  34148  289.36 0855.21
2009/04/23 09:12:11.0      34      0    129     35    133  90.0  84.8  34150  289.40 0855.21
2009/04/23 09:12:11.1       6     14    134     16    134  25.4  90.0  34144  289.30 0855.21
2009/04/23 09:12:11.2      27    140    134    143    195  11.1  47.9  34166  289.67 0855.21
2009/04/23 09:12:11.3      64    115     78    132    153  29.0  33.5  34150  289.41 0855.21
2009/04/23 09:12:11.4     163    -59    171    174    243 110.0  49.9  34136  289.16 0855.21
2009/04/23 09:12:11.5     184    -25    129    186    226  98.0  38.0  34124  288.97 0855.21
2009/04/23 09:12:11.6     241    -33     68    244    254  98.0  15.6  34122  288.93 0855.21
2009/04/23 09:12:11.7     217      5     79    218    231  88.5  20.7  34120  288.89 0855.21
2009/04/23 09:12:11.8     237     50     37    243    246  78.1   8.8  34130  289.05 0855.21
2009/04/23 09:12:11.9     207    105     -1    233    234  63.0  -0.3  34156  289.51 0855.20
2009/04/23 09:12:12.0     187     91     23    209    211  64.0   6.5  34146  289.33 0855.20
2009/04/23 09:12:12.1     230     70     71    241    252  72.9  16.4  34154  289.47 0855.20
2009/04/23 09:12:12.2     236     71    -19    247    248  73.2  -4.6  34150  289.39 0855.20
2009/04/23 09:12:12.3     167     40    -26    172    175  76.3  -8.8  34156  289.52 0855.20
2009/04/23 09:12:12.4     127     60    -17    141    143  64.6  -7.2  34158  289.55 0855.20
2009/04/23 09:12:12.5     141    145     51    203    210  44.3  14.3  34262  291.32 0855.20
2009/04/23 09:12:12.6     158     95     68    185    197  58.9  21.0  34274  291.52 0855.20
2009/04/23 09:12:12.7     288    105    137    307    336  70.0  25.7  34244  291.00 0855.20
2009/04/23 09:12:12.8     287    117      9    311    312  67.8   1.7  34214  290.48 0855.20
2009/04/23 09:12:12.9     215    128    -50    251    256  59.3 -11.3  34220  290.58 0855.20
2009/04/23 09:12:13.0     232     96     91    252    267  67.4  20.7  34212  290.44 0855.20
2009/04/23 09:12:13.1     215    114     27    244    246  62.0   6.5  34208  290.39 0855.20
2009/04/23 09:12:13.2     261     83     45    274    278  72.3   9.3  34174  289.80 0855.20
2009/04/23 09:12:13.3     330    103     76    346    355  72.6  12.4  34190  290.08 0855.20
2009/04/23 09:12:13.4     233    132    133    268    299  60.5  28.2  34192  290.10 0855.20
2009/04/23 09:12:13.5     298    172    103    345    361  60.0  16.7  34174  289.81 0855.20
2009/04/23 09:12:13.6     353    148     89    384    395  67.2  13.1  34152  289.43 0855.20
2009/04/23 09:12:13.7     254    117     62    280    287  65.2  12.6  34164  289.63 0855.20
2009/04/23 09:12:13.8     186      7    -66    187    198  87.6 -24.6  34126  289.01 0855.20
2009/04/23 09:12:13.9     236     47     12    241    242  78.5   2.9  34132  289.09 0855.19
2009/04/23 09:12:14.0     316      9     51    317    322  88.3   9.2  34138  289.19 0855.19
2009/04/23 09:12:14.1     204    -19    -70    205    217  95.5 -19.1  34140  289.23 0855.19
2009/04/23 09:12:14.2     274    -17     -5    275    276  93.7  -1.1  34138  289.20 0855.19
2009/04/23 09:12:14.3     165     71    -25    180    182  66.7  -8.0  34132  289.09 0855.19
2009/04/23 09:12:14.4     185    133     69    229    240  54.3  16.8  34162  289.61 0855.19
2009/04/23 09:12:14.5     228    126     40    261    265  61.1   8.9  34164  289.64 0855.19
2009/04/23 09:12:14.6     223    167     64    279    287  53.2  12.9  34188  290.03 0855.19
2009/04/23 09:12:14.7     230    174     18    289    290  52.9   3.6  34200  290.24 0855.19
2009/04/23 09:12:14.8     175    139     30    224    227  51.6   7.8  34198  290.23 0855.19
2009/04/23 09:12:14.9     223     92     94    242    259  67.6  22.3  34214  290.48 0855.19
2009/04/23 09:12:15.0     284    122     23    310    311  66.7   4.3  34214  290.49 0855.19
2009/04/23 09:12:15.1     226    139    -28    266    268  58.5  -6.2  34218  290.54 0855.19
2009/04/23 09:12:15.2     271     59     17    278    279  77.7   3.6  34190  290.09 0855.19
2009/04/23 09:12:15.3     248     95    -86    266    279  68.9 -23.0  34176  289.85 0855.19
2009/04/23 09:12:15.4     277    161   -125    321    344  59.8 -26.8  34178  289.89 0855.19
2009/04/23 09:12:15.5     236    125    -34    268    271  62.1  -7.3  34198  290.22 0855.19
2009/04/23 09:12:15.6     309    130     25    336    337  67.2   4.3  34190  290.08 0855.19
2009/04/23 09:12:15.7     319     61    -10    325    326  79.0  -1.9  34194  290.15 0855.19
2009/04/23 09:12:15.8     357    119    -11    377    378  71.5  -1.7  34202  290.28 0855.19
2009/04/23 09:12:15.9     307    119     53    330    335  68.8   9.2  34226  290.69 0855.19
2009/04/23 09:12:16.0     223     97     70    244    254  66.5  16.0  34240  290.92 0855.19
2009/04/23 09:12:16.1     226    103     79    249    262  65.4  17.7  34230  290.75 0855.19
2009/04/23 09:12:16.2     336    138     74    364    372  67.6  11.5  34178  289.86 0855.19
2009/04/23 09:12:16.3     317    106     91    335    348  71.5  15.3  34148  289.37 0855.19
2009/04/23 09:12:16.4     342    110    154    360    391  72.1  24.6  34154  289.47 0855.19
2009/04/23 09:12:16.5     383     67     25    390    391  80.0   3.8  34178  289.87 0855.19
2009/04/23 09:12:16.6     409    110     22    424    425  74.9   3.0  34182  289.94 0855.19
2009/04/23 09:12:16.7     441     27    -34    442    444  86.5  -4.5  34178  289.87 0855.19
2009/04/23 09:12:16.8     321     66   -128    328    352  78.2 -26.9  34184  289.98 0855.19
2009/04/23 09:12:16.9     313    -96     40    328    331 107.1   7.1  34152  289.45 0855.19
2009/04/23 09:12:17.0     292     45   -101    296    312  81.2 -23.8  34162  289.61 0855.19
2009/04/23 09:12:17.1     218    -54    -86    225    240 103.9 -26.4  34178  289.88 0855.19
2009/04/23 09:12:17.3     160     47   -110    167    199  73.6 -40.9  34182  289.94 0855.19
2009/04/23 09:12:17.4     240    129    -81    273    285  61.8 -16.6  34176  289.85 0855.19
2009/04/23 09:12:17.5     355    127    -69    378    385  70.3 -10.4  34164  289.64 0855.19
2009/04/23 09:12:17.6     411    111   -148    426    450  74.9 -24.4  34152  289.43 0855.19
2009/04/23 09:12:17.7     356    141   -111    384    399  68.3 -20.9  34150  289.40 0855.19
2009/04/23 09:12:17.8     285     78    -60    296    302  74.7 -11.5  34144  289.29 0855.19
2009/04/23 09:12:17.9     435     48    -46    438    441  83.7  -6.1  34154  289.46 0855.19
2009/04/23 09:12:18.0     391      4    -37    392    394  89.3  -5.5  34152  289.43 0855.19
2009/04/23 09:12:18.1     429     53     28    433    434  82.9   3.7  34170  289.73 0855.19
2009/04/23 09:12:18.2     369     73     42    377    380  78.8   6.4  34178  289.89 0855.19
2009/04/23 09:12:18.3     345     88     46    357    360  75.6   7.4  34196  290.18 0855.19
2009/04/23 09:12:18.4     348    135     35    374    376  68.8   5.4  34186  290.01 0855.19
2009/04/23 09:12:18.5     377    121    -24    396    397  72.2  -3.5  34142  289.28 0855.19
2009/04/23 09:12:18.6     347    127     31    370    372  69.9   4.9  34144  289.30 0855.19
2009/04/23 09:12:18.7     286    163    122    330    351  60.2  21.1  34160  289.57 0855.19
2009/04/23 09:12:18.8     285     95     47    301    305  71.4   8.9  34146  289.32 0855.19
2009/04/23 09:12:18.9     239     32     -5    242    243  82.3  -1.3  34148  289.36 0855.19
2009/04/23 09:12:19.0     320     50    -81    325    336  81.0 -14.1  34168  289.72 0855.19
2009/04/23 09:12:19.1     283     -4    -78    284    295  90.8 -15.5  34176  289.83 0855.19
2009/04/23 09:12:19.2     294    -14    -33    295    297  92.8  -6.5  34144  289.31 0855.19
2009/04/23 09:12:19.3     252    -67    -33    261    264 105.1  -7.2  34140  289.24 0855.19
2009/04/23 09:12:19.4     197     37    -57    201    208  79.2 -20.7  34152  289.43 0855.19
2009/04/23 09:12:19.5     256     55     12    262    263  77.8   2.8  34164  289.63 0855.19
2009/04/23 09:12:19.6     268   -100      3    287    288 110.4   0.7  34142  289.25 0855.19
2009/04/23 09:12:19.7     286      4     83    287    299  89.2  16.3  34136  289.15 0855.19
2009/04/23 09:12:19.8     245     18     62    246    254  85.7  14.2  34146  289.32 0855.19
2009/04/23 09:12:19.9     157     83    108    178    208  62.0  34.2  34152  289.45 0855.19
2009/04/23 09:12:20.0     166     45    148    173    227  74.9  44.8  34140  289.24 0855.19
2009/04/23 09:12:20.1     102     21    133    105    169  78.1  57.7  34146  289.33 0855.19
2009/04/23 09:12:20.2      51     17    132     54    142  71.4  77.0  34148  289.38 0855.19
2009/04/23 09:12:20.3      88    -11    161     89    183  97.5  68.8  34152  289.45 0855.19
2009/04/23 09:12:20.4     130     10    121    131    178  85.2  47.9  34144  289.31 0855.19
2009/04/23 09:12:20.5     132     22    119    134    179  80.3  46.4  34136  289.16 0855.19
2009/04/23 09:12:20.6      56     58     63     81    102  44.1  42.2  34140  289.24 0855.19
2009/04/23 09:12:20.7      99      2     69    100    121  88.3  37.6  34136  289.16 0855.19
2009/04/23 09:12:20.8      53    -88     85    104    134 148.8  43.7  34138  289.19 0855.19
2009/04/23 09:12:20.9      19    -26     74     33     81 143.9  74.5  34140  289.24 0855.19
2009/04/23 09:12:21.0      47    -72     57     87    104 147.0  36.0  34134  289.13 0855.19
2009/04/23 09:12:21.1      84    -56     77    101    127 123.7  41.7  34128  289.04 0855.19
2009/04/23 09:12:21.2      92    -45     75    103    127 116.2  39.7  34138  289.21 0855.19
2009/04/23 09:12:21.3     172     90     53    195    203  62.2  15.3  34164  289.65 0855.19
2009/04/23 09:12:21.4     206     71     95    218    237  70.9  25.1  34170  289.74 0855.19
2009/04/23 09:12:21.5     164     24    103    166    195  81.4  35.2  34144  289.31 0855.19
2009/04/23 09:12:21.6      27    -43    119     52    129 147.5  75.0  34144  289.31 0855.19
2009/04/23 09:12:21.7      11    -41     96     43    105 164.9  74.5  34148  289.36 0855.19
2009/04/23 09:12:21.8     -36    -36     81     51     95 225.0  64.7  34146  289.33 0855.19
2009/04/23 09:12:21.9     -45    -75     92     88    127 211.2  51.2  34134  289.14 0855.19
2009/04/23 09:12:22.0      -9    -58    108     59    123 188.9  68.9  34136  289.18 0855.18
2009/04/23 09:12:22.1     -23    -71     57     75     94 198.3  41.2  34136  289.18 0855.18
2009/04/23 09:12:22.2     -35   -113     48    119    128 197.4  23.0  34134  289.13 0855.18
2009/04/23 09:12:22.3     -30   -147     41    151    157 191.6  15.3  34134  289.14 0855.18
2009/04/23 09:12:22.4     -15   -152     52    153    162 185.8  18.9  34132  289.11 0855.18
2009/04/23 09:12:22.5     -31   -151     78    155    173 191.6  28.7  34134  289.13 0855.18
2009/04/23 09:12:22.6     -11   -113     69    114    133 185.8  34.4  34136  289.16 0855.18
2009/04/23 09:12:22.7      28   -138     65    141    155 168.4  27.1  34134  289.13 0855.18
2009/04/23 09:12:22.8      25   -146     76    149    167 170.3  28.7  34132  289.11 0855.18
2009/04/23 09:12:22.9     -11   -152     73    153    169 184.5  27.3  34140  289.23 0855.18
2009/04/23 09:12:23.0      -1    -94     67     95    116 180.9  38.6  34138  289.19 0855.18
2009/04/23 09:12:23.1     -16    -91     58     93    109 190.2  35.5  34142  289.28 0855.18
2009/04/23 09:12:23.2       1    -86     46     87     98 179.1  29.8  34148  289.36 0855.18
2009/04/23 09:12:23.3      53    -64     68     84    108 140.4  43.7  34138  289.19 0855.18
2009/04/23 09:12:23.4       7    -60     72     61     94 172.9  55.4  34136  289.16 0855.18
2009/04/23 09:12:23.5     -10    -71     58     72     92 188.0  43.7  34144  289.30 0855.18
2009/04/23 09:12:23.6     -21    -56     40     60     72 200.9  36.5  34140  289.24 0855.18
2009/04/23 09:12:23.7      10    -33     60     35     69 163.1  66.8  34138  289.19 0855.18
2009/04/23 09:12:23.8       5    -81     65     82    104 176.0  42.7  34138  289.21 0855.18
2009/04/23 09:12:23.9      26    -59     50     65     82 155.5  41.7  34134  289.14 0855.18
2009/04/23 09:12:24.0      43    -59     48     74     88 143.9  36.0  34140  289.23 0855.19
2009/04/23 09:12:24.1      58    -55     57     81     99 133.6  39.1  34136  289.16 0855.19
2009/04/23 09:12:24.2      67    -48     62     83    103 126.0  40.7  34140  289.23 0855.19
2009/04/23 09:12:24.3     104    -41     65    112    129 111.7  32.9  34138  289.21 0855.19
2009/04/23 09:12:24.4     125    -22     89    127    155 100.1  38.6  34140  289.24 0855.19
2009/04/23 09:12:24.5     127    -21    117    129    174  99.6  47.1  34140  289.23 0855.19
2009/04/23 09:12:24.6     156     27    102    159    188  79.9  35.6  34164  289.65 0855.19
2009/04/23 09:12:24.7     129     21    104    131    167  80.4  42.7  34174  289.80 0855.19
2009/04/23 09:12:24.8     122     10    125    123    175  85.2  49.9  34170  289.74 0855.19
2009/04/23 09:12:24.9     155     11    142    156    210  85.7  47.1  34162  289.62 0855.19
2009/04/23 09:12:25.0     164     14    135    165    213  85.0  43.7  34140  289.24 0855.19
2009/04/23 09:12:25.1     132     72     88    151    174  61.2  33.1  34142  289.26 0855.19
2009/04/23 09:12:25.2     143     63     91    157    181  66.0  32.7  34154  289.48 0855.19
2009/04/23 09:12:25.3     126     55    181    138    227  66.5  59.0  34162  289.62 0855.19
2009/04/23 09:12:25.4      96     -3    131     97    163  92.1  60.0  34160  289.58 0855.19
2009/04/23 09:12:25.5     104    -35    120    110    162 108.6  52.5  34144  289.30 0855.19
2009/04/23 09:12:25.6     143    -47    132    151    200 108.4  45.8  34138  289.21 0855.19
2009/04/23 09:12:25.7     110    -57    144    125    190 117.5  54.8  34140  289.23 0855.19
2009/04/23 09:12:25.8      44     -7     99     45    108  99.7  73.5  34142  289.26 0855.19
2009/04/23 09:12:25.9      -2     -3     88      4     88 212.5  90.0  34138  289.21 0855.19
2009/04/23 09:12:26.0      15    -32    111     36    116 154.5  80.7  34136  289.18 0855.19
2009/04/23 09:12:26.1      95   -125    159    158    224 142.6  50.1  34130  289.08 0855.19
2009/04/23 09:12:26.2     103   -127    133    164    211 140.8  43.5  34130  289.08 0855.19
2009/04/23 09:12:26.3     148    -34    153    152    215 103.2  50.1  34136  289.16 0855.19
2009/04/23 09:12:26.4     121    -20    125    123    175  99.6  49.9  34136  289.18 0855.19
2009/04/23 09:12:26.5     125    -45     93    134    163 110.0  38.0  34132  289.11 0855.19
2009/04/23 09:12:26.6      99    -53     67    113    131 118.4  33.5  34132  289.09 0855.19
2009/04/23 09:12:26.7      87    -15     85     89    123  99.7  49.0  34134  289.13 0855.19
2009/04/23 09:12:26.8      73    -34     94     81    124 115.2  54.3  34134  289.14 0855.19
2009/04/23 09:12:26.9      47    -29     85     56    101 121.5  63.6  34132  289.11 0855.19
2009/04/23 09:12:27.0      83      7     93     84    125  84.8  53.3  34134  289.13 0855.19
2009/04/23 09:12:27.1     125    -13    115    126    170  96.1  47.1  34136  289.16 0855.19
2009/04/23 09:12:27.2     101    -22    111    104    152 102.4  52.1  34134  289.13 0855.19
2009/04/23 09:12:27.3      79      4     77     80    111  86.5  49.0  34132  289.11 0855.19
2009/04/23 09:12:27.4      72     19     75     75    106  75.0  50.1  34136  289.16 0855.19
2009/04/23 09:12:27.5      26    -25     81     37     89 133.3  74.0  34138  289.19 0855.19
2009/04/23 09:12:27.6      90    -37     75     98    123 112.6  41.6  34136  289.18 0855.19
2009/04/23 09:12:27.7     120    -10    116    121    167  95.2  49.0  34136  289.16 0855.19
2009/04/23 09:12:27.8      98    -16     98    100    140  99.2  50.0  34138  289.19 0855.19
2009/04/23 09:12:27.9      83    -13    122     85    148  99.2  62.1  34136  289.18 0855.19
2009/04/23 09:12:28.0     176     11    169    177    244  86.3  49.0  34134  289.13 0855.20
2009/04/23 09:12:28.1     178     28    144    181    231  81.0  43.0  34128  289.04 0855.20
2009/04/23 09:12:28.2     192    122    119    228    257  57.6  29.8  34132  289.10 0855.20
2009/04/23 09:12:28.3     199     40    164    203    260  78.5  43.3  34128  289.03 0855.20
2009/04/23 09:12:28.4     118     19    174    120    211  80.8  62.6  34132  289.09 0855.20
2009/04/23 09:12:28.5     144     38    181    150    235  75.0  56.3  34132  289.11 0855.20
2009/04/23 09:12:28.6      73      1    139     74    157  89.2  70.0  34132  289.11 0855.20
2009/04/23 09:12:28.7     134      5    145    135    198  87.5  52.2  34132  289.09 0855.20
2009/04/23 09:12:28.8     151     11    152    152    214  85.7  50.1  34130  289.06 0855.20
2009/04/23 09:12:28.9     134     41     94    141    169  73.1  36.7  34134  289.14 0855.20
2009/04/23 09:12:29.0     100     59     77    117    140  59.3  36.5  34134  289.13 0855.20
2009/04/23 09:12:29.1     115     73     32    137    141  57.6  13.1  34130  289.08 0855.20
2009/04/23 09:12:29.2     155     72     70    172    185  64.9  23.1  34134  289.13 0855.20
2009/04/23 09:12:29.3     161     46     74    168    183  73.8  25.1  34132  289.11 0855.20
2009/04/23 09:12:29.4     176     62     70    187    199  70.3  21.3  34134  289.14 0855.20
2009/04/23 09:12:29.5     139     66     24    154    156  64.6   9.0  34132  289.11 0855.20
2009/04/23 09:12:29.6     141     46     51    149    158  71.8  19.2  34130  289.08 0855.20
2009/04/23 09:12:29.7     178     20     56    180    189  83.4  17.4  34132  289.11 0855.20
2009/04/23 09:12:29.8     206     16     96    207    228  85.4  27.1  34130  289.08 0855.20
2009/04/23 09:12:29.9     155      2     77    156    173  89.1  28.0  34128  289.04 0855.20
2009/04/23 09:12:30.0      99    -55    145    114    184 118.9  57.9  34134  289.13 0855.20
2009/04/23 09:12:30.1     158      0    111    159    193  90.0  38.4  34130  289.08 0855.20
2009/04/23 09:12:30.2     196     -3     64    197    208  90.9  17.9  34124  288.97 0855.20
2009/04/23 09:12:30.3     154    -17     97    156    183  96.6  35.2  34132  289.09 0855.20
2009/04/23 09:12:30.4     159     -8     99    160    188  93.0  35.0  34124  288.96 0855.20
2009/04/23 09:12:30.5     201    -15     89    202    220  94.3  25.2  34128  289.02 0855.20
2009/04/23 09:12:30.6     187    -14     52    188    196  94.4  15.6  34130  289.08 0855.20
2009/04/23 09:12:30.7     189      6     -9    190    191  87.9  -2.8  34128  289.04 0855.20
2009/04/23 09:12:30.8     204     41     23    209    211  78.5   6.5  34128  289.04 0855.20
2009/04/23 09:12:30.9     240     -1     -2    241    242  90.4  -0.5  34132  289.09 0855.20
2009/04/23 09:12:31.0     163    -21     36    165    169  97.5  12.4  34132  289.09 0855.20
2009/04/23 09:12:31.1     160     -6     28    161    164  92.4   9.9  34130  289.08 0855.20
2009/04/23 09:12:31.2     158      8      4    159    160  87.0   1.8  34130  289.06 0855.20
2009/04/23 09:12:31.3     154      2     17    155    156  89.2   6.5  34130  289.08 0855.20
2009/04/23 09:12:31.4     131     22     41    133    140  80.4  17.3  34134  289.13 0855.20
2009/04/23 09:12:31.5     123      3     57    124    136  88.3  26.6  34130  289.08 0855.20
2009/04/23 09:12:31.6     165     12     39    166    171  85.7  13.2  34132  289.11 0855.20
2009/04/23 09:12:31.7     209     11     26    210    212  87.0   7.2  34132  289.09 0855.20
2009/04/23 09:12:31.8     163    -16     36    164    168  95.9  12.4  34132  289.09 0855.20
2009/04/23 09:12:31.9     158     46      6    165    166  73.8   2.1  34128  289.02 0855.20
2009/04/23 09:12:32.0     149    -30     37    152    157 101.5  13.9  34134  289.13 0855.20
2009/04/23 09:12:32.1     176      9     34    177    181  87.0  11.1  34136  289.18 0855.20
2009/04/23 09:12:32.2     210      5     42    211    216  88.5  11.4  34130  289.06 0855.20
2009/04/23 09:12:32.3     180     43      3    186    187  76.5   1.2  34126  289.01 0855.20
2009/04/23 09:12:32.4     201     39     17    205    206  79.0   4.9  34126  289.01 0855.20
2009/04/23 09:12:32.5     178     43     26    184    186  76.3   8.2  34128  289.02 0855.20
2009/04/23 09:12:32.6     168     45      8    175    176  74.9   2.9  34124  288.97 0855.20
2009/04/23 09:12:32.7     176     26     48    178    185  81.4  15.2  34128  289.02 0855.20
2009/04/23 09:12:32.8     188     14    103    189    215  85.7  31.3  34130  289.06 0855.20
2009/04/23 09:12:32.9     191     19     24    192    194  84.1   7.2  34118  288.86 0855.20
2009/04/23 09:12:33.0     175     12     42    176    181  85.9  13.5  34122  288.94 0855.20
2009/04/23 09:12:33.1     134      2     58    135    146  88.7  24.6  34122  288.94 0855.20
2009/04/23 09:12:33.2     140     -2     38    141    147  90.8  15.2  34126  288.99 0855.20
2009/04/23 09:12:33.3     155    -26     45    158    165  99.5  16.0  34126  288.99 0855.20
2009/04/23 09:12:33.4     129     -7     64    130    144  93.5  28.2  34130  289.06 0855.20
2009/04/23 09:12:33.5      99    -12     57    100    115  97.0  32.4  34130  289.06 0855.20
2009/04/23 09:12:33.6     136    -12     57    137    148  95.2  23.6  34130  289.06 0855.20
2009/04/23 09:12:33.7     176      3     87    177    197  89.0  28.0  34126  288.99 0855.20
2009/04/23 09:12:33.8     180     26     90    182    203  81.6  28.5  34124  288.96 0855.20
2009/04/23 09:12:33.9     222      7     78    223    237  88.1  19.4  34128  289.02 0855.20
2009/04/23 09:12:34.0     241     14     66    242    251  86.5  15.3  34130  289.07 0855.20
2009/04/23 09:12:34.1     229     16     52    230    236  85.9  12.9  34128  289.02 0855.20
2009/04/23 09:12:34.2     246     22     74    248    259  84.8  16.6  34122  288.93 0855.20
2009/04/23 09:12:34.3     258      4    128    259    288  89.0  28.2  34126  289.00 0855.20
2009/04/23 09:12:34.4     190    -26     67    192    204  98.0  19.4  34126  288.99 0855.20
2009/04/23 09:12:34.5     149    -14     50    150    159  95.7  18.6  34128  289.04 0855.20
2009/04/23 09:12:34.6      79     -6     18     80     83  94.4  12.6  34130  289.08 0855.20
2009/04/23 09:12:34.7     139     45    -36    147    152  71.8 -13.9  34128  289.04 0855.20
2009/04/23 09:12:34.8     113     61     41    129    136  61.6  17.9  34126  289.01 0855.20
2009/04/23 09:12:34.9     160     45      8    167    168  74.1   2.8  34130  289.08 0855.20
2009/04/23 09:12:35.0     217     68     11    228    229  72.5   2.8  34126  289.01 0855.20
2009/04/23 09:12:35.1     221     74     59    234    242  71.4  14.3  34128  289.02 0855.20
2009/04/23 09:12:35.2     248     93     72    266    276  69.4  15.2  34126  289.00 0855.20
2009/04/23 09:12:35.3     210     71    -17    222    223  71.2  -4.6  34124  288.97 0855.20
2009/04/23 09:12:35.4     182     49      7    189    190  74.9   2.3  34124  288.96 0855.20
2009/04/23 09:12:35.5     209     62     72    219    231  73.4  18.4  34126  289.01 0855.20
2009/04/23 09:12:35.6     217     80     79    232    246  69.6  18.9  34128  289.02 0855.20
2009/04/23 09:12:35.7     223     79     47    237    242  70.5  11.4  34122  288.92 0855.20
2009/04/23 09:12:35.8     213    113     71    242    253  62.0  16.4  34126  289.00 0855.20
2009/04/23 09:12:35.9     223     93     88    242    257  67.3  21.0  34126  289.00 0855.20
2009/04/23 09:12:36.0     234     86     85    250    265  69.8  18.9  34124  288.97 0855.20
2009/04/23 09:12:36.1     276     81     74    288    298  73.6  14.5  34130  289.07 0855.20
2009/04/23 09:12:36.2     285     70     51    294    299  76.1   9.9  34130  289.05 0855.20
2009/04/23 09:12:36.3     242     73     25    253    255  73.2   5.7  34138  289.19 0855.20
2009/04/23 09:12:36.4     231     46     22    236    238  78.6   5.4  34132  289.10 0855.20
2009/04/23 09:12:36.5     247     25     45    249    254  84.1  10.3  34142  289.27 0855.20
2009/04/23 09:12:36.6     216     39     79    220    234  79.6  19.9  34142  289.28 0855.20
2009/04/23 09:12:36.7     239     43     61    243    251  79.6  14.3  34150  289.39 0855.20
2009/04/23 09:12:36.8     262    114     56    286    292  66.5  11.1  34142  289.25 0855.20
2009/04/23 09:12:36.9     223    133     56    260    267  59.1  12.2  34148  289.36 0855.20
2009/04/23 09:12:37.0     169     69    114    183    215  67.8  35.2  34148  289.38 0855.20
2009/04/23 09:12:37.1      73     -3    115     74    136  92.6  64.6  34160  289.58 0855.20
2009/04/23 09:12:37.2     134     -1     84    135    159  90.8  34.8  34186  290.02 0855.20
2009/04/23 09:12:37.3     136    -18    106    138    174  97.9  41.4  34194  290.16 0855.20
2009/04/23 09:12:37.4     135    -19     99    137    169  98.0  39.7  34190  290.09 0855.20
2009/04/23 09:12:37.5     120    -11     85    121    147  95.7  38.6  34178  289.87 0855.20
2009/04/23 09:12:37.6      97    -32     74    103    126 108.6  39.5  34188  290.04 0855.20
2009/04/23 09:12:37.7      75    -32     64     82    104 113.5  42.2  34186  290.01 0855.20
2009/04/23 09:12:37.8      33    -23     49     41     63 124.2  55.4  34172  289.79 0855.20
2009/04/23 09:12:37.9     104     -7     80    105    132  94.3  41.6  34172  289.79 0855.20
2009/04/23 09:12:38.0     106      1     88    107    138  89.2  43.7  34152  289.43 0855.20
2009/04/23 09:12:38.1      89     -2     98     90    133  91.7  52.2  34158  289.55 0855.20
2009/04/23 09:12:38.2      44    -14     60     47     76 108.6  57.5  34164  289.65 0855.20
2009/04/23 09:12:38.3      17    -62     63     65     90 164.8  49.4  34172  289.79 0855.20
2009/04/23 09:12:38.4       7    -99    104    100    144 175.5  50.7  34160  289.58 0855.20
2009/04/23 09:12:38.5      23   -115    118    118    166 168.5  50.1  34128  289.04 0855.20
2009/04/23 09:12:38.6      22    -87    103     90    136 165.7  54.3  34126  289.01 0855.20
2009/04/23 09:12:38.7       5    -63     85     64    106 174.7  59.4  34124  288.96 0855.20
2009/04/23 09:12:38.8      36    -12     71     39     81 108.6  68.8  34128  289.02 0855.20
2009/04/23 09:12:38.9      33      0     77     34     84  90.0  75.5  34130  289.06 0855.20
2009/04/23 09:12:39.0      50     16     69     53     87  72.3  58.5  34128  289.04 0855.20
2009/04/23 09:12:39.1      12     11     44     17     47  46.9  79.2  34132  289.11 0855.20
2009/04/23 09:12:39.2      16     16     51     24     56  45.1  73.1  34144  289.31 0855.20
2009/04/23 09:12:39.3      -8      0     45      9     45 270.0  89.0  34156  289.52 0855.20
2009/04/23 09:12:39.4      -4      5     44      7     44 316.6  90.0  34158  289.53 0855.20
2009/04/23 09:12:39.5      50     16     49     53     72  71.4  47.9  34166  289.67 0855.20
2009/04/23 09:12:39.6      76     47     55     90    105  58.5  35.0  34168  289.70 0855.20
2009/04/23 09:12:39.7      65     36     51     75     90  61.1  37.6  34176  289.85 0855.20
2009/04/23 09:12:39.8      52     44     65     69     94  49.6  49.0  34180  289.91 0855.20
2009/04/23 09:12:39.9      18     28     42     34     54  32.6  56.4  34170  289.75 0855.20
2009/04/23 09:12:40.0       2     -3     36      4     36 147.5  90.0  34176  289.84 0855.20
2009/04/23 09:12:40.1       8    -14     35     17     38 151.0  72.9  34178  289.89 0855.20
2009/04/23 09:12:40.2      19    -19     27     27     38 134.9  50.1  34178  289.89 0855.20
2009/04/23 09:12:40.3       3    -32     35     33     48 173.8  50.1  34164  289.65 0855.20
2009/04/23 09:12:40.4      -8    -42     48     43     64 191.6  52.2  34134  289.14 0855.20
2009/04/23 09:12:40.5      -7    -35     40     36     53 191.6  52.2  34128  289.02 0855.20
2009/04/23 09:12:40.6       0    -25     35     26     43 179.1  59.4  34130  289.08 0855.20
2009/04/23 09:12:40.7       9    -39     55     41     68 166.6  58.5  34128  289.04 0855.20
2009/04/23 09:12:40.8      24    -64     51     69     85 159.1  40.1  34126  288.99 0855.20
2009/04/23 09:12:40.9      16    -48     58     51     77 161.7  54.3  34128  289.02 0855.20
2009/04/23 09:12:41.0      13    -68     50     70     86 169.3  39.1  34124  288.97 0855.19
2009/04/23 09:12:41.1       5    -72     52     73     89 175.5  39.1  34122  288.94 0855.19
2009/04/23 09:12:41.2       4    -78     45     79     90 176.4  32.4  34124  288.97 0855.19
2009/04/23 09:12:41.3       4    -78     31     79     84 176.4  22.0  34124  288.97 0855.19
2009/04/23 09:12:41.4      20    -85     26     88     92 166.6  16.8  34122  288.92 0855.19
2009/04/23 09:12:41.5      16    -83     30     85     91 168.9  19.4  34122  288.94 0855.19
2009/04/23 09:12:41.7      19    -93     18     95     97 168.4  11.1  34122  288.94 0855.19
2009/04/23 09:12:41.7      -1    -88     17     89     91 180.9  11.1  34122  288.92 0855.19
2009/04/23 09:12:41.8       5    -76     32     77     83 175.6  23.6  34124  288.96 0855.19
2009/04/23 09:12:41.9       6    -88     24     89     93 175.5  15.3  34124  288.96 0855.19
2009/04/23 09:12:42.0      -2    -84     16     85     87 181.4  11.1  34122  288.92 0855.19
2009/04/23 09:12:42.1      -6    -88     19     89     92 184.0  12.2  34122  288.94 0855.19
2009/04/23 09:12:42.2     -12    -87     32     88     93 188.5  20.0  34122  288.94 0855.19
2009/04/23 09:12:42.3     -22    -88     39     91     99 194.3  24.1  34122  288.92 0855.19
2009/04/23 09:12:42.4      -1    -78     33     79     85 180.9  24.1  34122  288.94 0855.19
2009/04/23 09:12:42.5      -2    -86     44     87     97 181.4  28.2  34122  288.92 0855.19
2009/04/23 09:12:42.6      -4    -78     42     79     89 183.6  30.3  34120  288.89 0855.19
2009/04/23 09:12:42.7     -19    -96     26     98    102 191.5  15.2  34122  288.92 0855.19
2009/04/23 09:12:42.8     -23    -85      8     89     90 195.1   5.4  34122  288.94 0855.19
2009/04/23 09:12:42.9     -19    -90     18     93     95 192.0  11.1  34126  288.99 0855.19
2009/04/23 09:12:43.0     -16    -84     15     86     88 191.1  10.1  34128  289.04 0855.19
2009/04/23 09:12:43.1     -13    -87     17     89     91 188.9  11.1  34126  289.01 0855.19
2009/04/23 09:12:43.2     -15    -74     24     76     80 191.6  17.9  34126  288.99 0855.19
2009/04/23 09:12:43.3      -5    -66     18     67     70 184.5  15.3  34126  288.99 0855.19
2009/04/23 09:12:43.4       5    -67     27     68     73 175.5  23.0  34120  288.91 0855.19
2009/04/23 09:12:43.5       0    -84     48     85     97 179.5  32.4  34120  288.91 0855.19
2009/04/23 09:12:43.6      20    -66     66     70     96 163.1  49.0  34122  288.92 0855.19
2009/04/23 09:12:43.7       5    -70     69     71     99 175.5  49.4  34118  288.87 0855.19
2009/04/23 09:12:43.8     -18   -105     56    107    120 189.8  29.3  34118  288.87 0855.19
2009/04/23 09:12:43.9       0   -111     32    112    117 180.5  16.3  34118  288.87 0855.19
2009/04/23 09:12:44.0       1   -119     66    120    136 179.1  31.4  34132  289.11 0855.19
2009/04/23 09:12:44.1      -9   -110     53    111    123 184.9  27.2  34134  289.13 0855.19
2009/04/23 09:12:44.2       0    -82     56     83    100 180.4  37.0  34136  289.16 0855.19
2009/04/23 09:12:44.3     -34    -65    -21     74     76 208.1 -20.7  34134  289.14 0855.19
2009/04/23 09:12:44.4     -69    -95    -60    118    132 216.1 -33.6  34122  288.92 0855.19
2009/04/23 09:12:44.5     -95   -124    -52    157    165 217.4 -23.8  34116  288.82 0855.19
2009/04/23 09:12:44.6     -79   -123    -43    147    153 212.6 -21.7  34114  288.80 0855.19
2009/04/23 09:12:44.7     -78   -124    -38    147    152 212.1 -14.5  34112  288.75 0855.19
2009/04/23 09:12:44.8     -66   -112    -39    131    137 210.7 -16.6  34114  288.79 0855.19
2009/04/23 09:12:44.9     -47   -121    -57    131    142 201.4 -29.5  34114  288.80 0855.19
2009/04/23 09:12:45.1     -45   -129    -78    137    157 199.2 -36.5  34114  288.79 0855.20
2009/04/23 09:12:45.2     -67   -141    -62    157    168 205.3 -26.9  34116  288.84 0855.20
2009/04/23 09:12:45.3     -88   -144    -58    169    178 211.4 -23.8  34120  288.91 0855.20
2009/04/23 09:12:45.4    -104   -141    -39    176    181 216.5 -12.6  34120  288.91 0855.20
2009/04/23 09:12:45.5     -99   -133     -6    166    167 216.7  -2.2  34126  288.99 0855.20
2009/04/23 09:12:45.6     -87   -125      7    153    154 214.7   2.8  34130  289.08 0855.20
2009/04/23 09:12:45.7     -74   -111     -9    134    135 213.8  -4.1  34128  289.02 0855.20
2009/04/23 09:12:45.8     -53   -133     -3    144    145 201.8  -1.3  34126  288.99 0855.20
2009/04/23 09:12:45.9     -27   -114     41    118    126 193.4  19.4  34124  288.97 0855.20
2009/04/23 09:12:46.0      -1    -94     46     95    105 180.9  27.3  34122  288.94 0855.20
2009/04/23 09:12:46.1     -14    -95     41     97    105 188.9  24.1  34124  288.96 0855.20
2009/04/23 09:12:46.2     -15   -109     97    111    147 188.1  45.8  34124  288.96 0855.20
2009/04/23 09:12:46.3     -33   -119    103    124    161 195.6  44.1  34126  289.01 0855.20
2009/04/23 09:12:46.4     -45    -98     66    109    127 204.9  34.0  34124  288.97 0855.20
2009/04/23 09:12:46.5     -10    -97     12     98     99 186.2   7.1  34124  288.97 0855.20
2009/04/23 09:12:46.6       9    -63     40     64     75 171.1  35.5  34122  288.94 0855.20
2009/04/23 09:12:46.7      10    -54     36     55     65 169.3  35.6  34124  288.96 0855.20
2009/04/23 09:12:46.8      19    -71     45     74     86 164.9  34.4  34124  288.97 0855.20
2009/04/23 09:12:46.9      14    -82     21     84     87 170.2  14.3  34122  288.94 0855.20
2009/04/23 09:12:47.0      20    -98     -3    101    102 168.4  -2.2  34122  288.92 0855.20
2009/04/23 09:12:47.1      29    -90      4     95     96 161.7   2.9  34120  288.91 0855.20
2009/04/23 09:12:47.2      -1    -89     57     90    106 180.9  35.5  34122  288.92 0855.20
2009/04/23 09:12:47.3      19   -105     70    107    127 169.3  36.0  34124  288.96 0855.20
2009/04/23 09:12:47.4      26   -140     63    143    156 169.3  25.2  34122  288.92 0855.20
2009/04/23 09:12:47.5      44   -121     84    129    153 160.0  35.6  34124  288.97 0855.20
2009/04/23 09:12:47.6      61   -114     85    130    155 151.9  35.6  34124  288.96 0855.20
2009/04/23 09:12:47.7      49   -147     94    156    182 161.3  34.2  34122  288.92 0855.20
2009/04/23 09:12:47.8      35   -162     61    166    176 167.7  21.3  34126  289.01 0855.20
2009/04/23 09:12:47.9      53   -133     92    144    170 158.2  35.6  34128  289.04 0855.20
2009/04/23 09:12:48.0      76   -158     66    176    187 154.1  21.5  34130  289.06 0855.20
2009/04/23 09:12:48.1      58   -185    107    195    222 162.4  31.4  34134  289.13 0855.20
2009/04/23 09:12:48.2      84   -182     77    201    215 155.1  21.7  34136  289.16 0855.20
2009/04/23 09:12:48.3      66   -203     64    214    224 162.0  16.6  34134  289.13 0855.20
2009/04/23 09:12:48.4      74   -220     59    233    241 161.3  14.3  34134  289.12 0855.20
2009/04/23 09:12:48.5      90   -182     87    204    221 153.7  24.3  34132  289.11 0855.20
2009/04/23 09:12:48.6      80   -170     56    188    197 154.8  16.8  34130  289.08 0855.20
2009/04/23 09:12:48.7      43   -169     42    175    180 165.5  13.5  34130  289.08 0855.20
2009/04/23 09:12:48.8      52   -162     26    171    174 162.0   8.8  34128  289.04 0855.20
2009/04/23 09:12:48.9      49   -153     56    161    171 162.2  19.4  34128  289.04 0855.20
2009/04/23 09:12:49.0      51   -155     45    164    171 161.7  15.6  34130  289.06 0855.20
2009/04/23 09:12:49.1      58   -161     77    172    188 160.0  25.7  34130  289.06 0855.20
2009/04/23 09:12:49.2      25   -160     93    162    186 171.1  32.1  34132  289.09 0855.20
2009/04/23 09:12:49.3      58   -171     54    181    189 161.1  16.6  34124  288.97 0855.20
2009/04/23 09:12:49.4      40   -164     37    169    174 166.2  12.4  34126  288.99 0855.20
2009/04/23 09:12:49.5      40   -149     24    155    157 164.9   8.9  34124  288.96 0855.20
2009/04/23 09:12:49.6      64   -146     47    160    167 156.4  16.6  34126  288.99 0855.20
2009/04/23 09:12:49.7      36   -122     61    128    141 163.5  27.2  34124  288.97 0855.20
2009/04/23 09:12:49.8      37   -111     89    118    147 161.3  41.2  34128  289.02 0855.20
2009/04/23 09:12:49.9      51   -130     82    140    162 158.6  33.5  34128  289.04 0855.20
2009/04/23 09:12:50.0      51   -125     84    136    159 157.7  34.8  34130  289.06 0855.20
2009/04/23 09:12:50.1      40   -128     61    135    148 162.6  26.2  34128  289.04 0855.20
2009/04/23 09:12:50.2      74   -149     68    167    180 153.5  23.1  34124  288.97 0855.20
2009/04/23 09:12:50.3      40   -148     78    154    172 164.9  29.1  34122  288.94 0855.20
2009/04/23 09:12:50.4      47   -151     91    159    183 162.6  32.4  34120  288.89 0855.20
2009/04/23 09:12:50.5      45   -154    104    161    191 163.5  35.6  34120  288.91 0855.20
2009/04/23 09:12:50.6      43   -129     85    137    161 161.3  34.8  34120  288.89 0855.20
2009/04/23 09:12:50.7      -9   -169    105    170    199 183.1  34.8  34120  288.89 0855.20
2009/04/23 09:12:50.8      -7   -169    121    170    208 182.5  39.1  34124  288.97 0855.20
2009/04/23 09:12:50.9     -28   -162    153    165    225 189.8  47.9  34124  288.96 0855.20
2009/04/23 09:12:51.0     -65   -213    107    223    247 197.2  27.3  34122  288.93 0855.20
2009/04/23 09:12:51.1     -55   -224    118    231    259 194.0  29.2  34120  288.88 0855.21
2009/04/23 09:12:51.2     -46   -193    111    199    227 193.6  31.4  34122  288.94 0855.21
2009/04/23 09:12:51.3     -19   -175    116    177    211 186.2  36.0  34118  288.86 0855.21
2009/04/23 09:12:51.4      -6   -174    110    175    206 182.2  35.5  34118  288.87 0855.21
2009/04/23 09:12:51.5     -28   -181    100    184    209 188.9  31.0  34118  288.86 0855.21
2009/04/23 09:12:51.6     -22   -174    145    176    228 187.3  43.7  34118  288.86 0855.21
2009/04/23 09:12:51.7     -34   -201    102    204    228 189.7  28.5  34118  288.86 0855.21
2009/04/23 09:12:51.8     -66   -190     98    202    224 199.2  27.3  34116  288.84 0855.21
2009/04/23 09:12:51.9     -75   -159     91    176    198 205.4  29.3  34118  288.87 0855.21
2009/04/23 09:12:52.0     -55   -138     87    149    172 201.9  33.5  34120  288.89 0855.21
2009/04/23 09:12:52.1     -22   -111     92    114    146 191.6  43.7  34122  288.92 0855.21
2009/04/23 09:12:52.2      -4    -76     84     77    113 183.6  52.2  34118  288.86 0855.21
2009/04/23 09:12:52.3     -14    -99     97    101    140 188.1  49.0  34120  288.91 0855.21
2009/04/23 09:12:52.4       9    -78     61     79     99 172.9  41.7  34120  288.91 0855.21
2009/04/23 09:12:52.5       0   -114     62    115    130 179.5  30.8  34122  288.92 0855.21
2009/04/23 09:12:52.6      -9   -106     47    107    116 184.9  25.1  34120  288.91 0855.21
2009/04/23 09:12:52.7     -22   -110     50    113    123 191.5  25.1  34120  288.89 0855.21
2009/04/23 09:12:52.8     -40   -150     23    156    158 195.2   8.5  34118  288.86 0855.21
2009/04/23 09:12:52.9     -55   -167     31    176    179 198.3  10.1  34120  288.89 0855.21
2009/04/23 09:12:53.0     -65   -183     18    195    196 199.6   5.4  34120  288.89 0855.21
2009/04/23 09:12:53.1     -44   -193     46    199    205 192.9  13.2  34116  288.84 0855.21
2009/04/23 09:12:53.2    -111   -225     -4    251    252 206.3  -1.1  34116  288.81 0855.21
2009/04/23 09:12:53.3    -150   -251    -37    293    296 210.8  -7.2  34116  288.83 0855.21
2009/04/23 09:12:53.4     -95   -198    -71    220    232 205.6 -18.1  34114  288.80 0855.21
2009/04/23 09:12:53.5      -6   -176      4    177    178 182.0   1.6  34114  288.80 0855.21
2009/04/23 09:12:53.6     -30   -197     70    200    211 188.7  20.0  34118  288.86 0855.21
2009/04/23 09:12:53.7     -56   -167     67    177    189 198.5  21.7  34116  288.82 0855.21
2009/04/23 09:12:53.8     -48   -148     33    156    160 198.3  12.0  34114  288.80 0855.21
2009/04/23 09:12:53.9     -26   -116     24    120    123 192.9  11.6  34114  288.80 0855.21
2009/04/23 09:12:54.0       2    -90     34     91     97 178.2  20.4  34116  288.82 0855.21
2009/04/23 09:12:54.1     -31    -83     18     89     91 200.9  11.6  34116  288.84 0855.22
2009/04/23 09:12:54.2     -29   -145     12    149    150 191.6   4.9  34116  288.84 0855.22
2009/04/23 09:12:54.3     -42   -172     14    178    179 193.8   4.6  34116  288.84 0855.22
2009/04/23 09:12:54.4     -43   -149     37    156    161 196.0  13.5  34116  288.84 0855.22
2009/04/23 09:12:54.5     -50   -127     -1    137    138 201.8  -0.7  34114  288.80 0855.22
2009/04/23 09:12:54.6     -83   -130    -37    155    160 212.6 -13.7  34116  288.84 0855.22
2009/04/23 09:12:54.7     -64   -179    -14    191    192 199.8  -4.4  34116  288.84 0855.22
2009/04/23 09:12:54.8     -46   -200      0    206    207 193.1   0.2  34114  288.80 0855.22
2009/04/23 09:12:54.9     -78   -243    -32    256    259 197.8  -7.3  34116  288.83 0855.22
2009/04/23 09:12:55.0     -89   -293    -17    307    308 197.0  -3.3  34116  288.81 0855.22
2009/04/23 09:12:55.1     -55   -293    -88    299    311 190.7 -21.5  34116  288.83 0855.22
2009/04/23 09:12:55.2    -110   -235    -95    260    276 205.2 -25.4  34110  288.73 0855.22
2009/04/23 09:12:55.3     -90   -229    -93    247    263 201.4 -26.1  34116  288.83 0855.22
2009/04/23 09:12:55.4    -120   -163   -112    203    231 216.3 -35.8  34118  288.87 0855.22
2009/04/23 09:12:55.5    -146   -163    -87    220    236 221.9 -27.2  34116  288.84 0855.22
2009/04/23 09:12:55.6    -162   -167   -109    233    257 224.1 -31.4  34114  288.80 0855.22
2009/04/23 09:12:55.7    -154   -192    -80    247    259 218.7 -23.0  34116  288.81 0855.22
2009/04/23 09:12:55.8    -202   -189   -106    277    296 226.9 -26.4  34116  288.81 0855.22
2009/04/23 09:12:55.9    -199   -276   -103    341    356 215.9 -21.7  34118  288.86 0855.22
2009/04/23 09:12:56.0    -189   -268   -113    329    348 215.2 -19.0  34116  288.84 0855.22
2009/04/23 09:12:56.1    -175   -315    -78    361    370 209.0 -12.3  34116  288.81 0855.23
2009/04/23 09:12:56.2    -140   -319   -108    349    366 203.8 -17.3  34116  288.84 0855.23
2009/04/23 09:12:56.3    -118   -238    -79    266    278 206.5 -16.6  34118  288.85 0855.23
2009/04/23 09:12:56.4    -149   -234   -106    278    297 212.5 -26.4  34118  288.85 0855.23
2009/04/23 09:12:56.5    -120   -240   -126    269    297 206.5 -31.5  34116  288.83 0855.23
2009/04/23 09:12:56.6     -44   -252    -71    256    266 190.0 -15.5  34116  288.83 0855.23
2009/04/23 09:12:56.7     -82   -306    -36    317    320 195.1  -6.5  34114  288.78 0855.23
2009/04/23 09:12:56.8     -98   -232     12    253    254 202.9   2.9  34114  288.80 0855.23
2009/04/23 09:12:56.9     -94   -306     81    321    332 197.2  14.3  34116  288.83 0855.23
2009/04/23 09:12:57.0    -124   -284    102    311    328 203.6  18.2  34116  288.81 0855.23
2009/04/23 09:12:57.1    -125   -306    126    331    354 202.3  21.8  34120  288.88 0855.23
2009/04/23 09:12:57.2    -111   -278    150    300    335 201.8  28.5  34118  288.85 0855.23
2009/04/23 09:12:57.3     -54   -246    148    252    292 192.4  33.4  34118  288.85 0855.23
2009/04/23 09:12:57.4     -49   -219    129    225    259 192.7  32.4  34118  288.85 0855.23
2009/04/23 09:12:57.5     -40   -216    113    220    247 190.7  29.3  34116  288.81 0855.23
2009/04/23 09:12:57.6      -6   -177    107    178    207 182.0  33.7  34120  288.89 0855.23
2009/04/23 09:12:57.7       8   -206    109    207    233 177.8  30.2  34116  288.84 0855.23
2009/04/23 09:12:57.8      29   -269    179    271    324 173.8  36.5  34114  288.80 0855.23
2009/04/23 09:12:57.9      24   -316    188    318    369 175.5  33.5  34120  288.88 0855.23
2009/04/23 09:12:58.0       0   -296    128    297    323 180.0  24.8  34120  288.88 0855.23
2009/04/23 09:12:58.1     -42   -298     79    302    313 188.0  14.7  34124  288.97 0855.23
2009/04/23 09:12:58.2     -84   -277     40    290    293 197.0   8.0  34120  288.90 0855.23
2009/04/23 09:12:58.3    -102   -235      0    257    258 203.6   0.2  34118  288.85 0855.23
2009/04/23 09:12:58.4    -130   -208    -11    246    247 211.9  -2.6  34118  288.87 0855.23
2009/04/23 09:12:58.5    -131   -205    -19    244    245 212.5  -4.6  34118  288.87 0855.23
2009/04/23 09:12:58.6    -134   -176   -102    222    244 217.4 -30.8  34122  288.92 0855.23
2009/04/23 09:12:58.7    -112   -183    -11    215    216 211.4  -3.1  34120  288.91 0855.23
2009/04/23 09:12:58.8     -50   -264     30    269    271 190.7   6.5  34120  288.90 0855.23
2009/04/23 09:12:58.9     -72   -338    -15    346    347 192.1  -2.6  34116  288.81 0855.23
2009/04/23 09:12:59.0     -95   -273     51    290    295 199.2  10.1  34118  288.85 0855.23
2009/04/23 09:12:59.1     -70   -211     98    223    243 198.3  25.1  34118  288.87 0855.23
2009/04/23 09:12:59.2     -61   -168     93    179    201 200.0  29.5  34120  288.91 0855.23
2009/04/23 09:12:59.3     -44   -155     35    162    166 195.8  12.4  34120  288.91 0855.23
2009/04/23 09:12:59.4     -25   -200     -6    202    203 187.3  -1.8  34120  288.89 0855.23
2009/04/23 09:12:59.5      16   -267    -86    268    281 176.4 -23.0  34108  288.70 0855.23
2009/04/23 09:12:59.6     -35   -229    -84    232    246 188.7 -25.3  34120  288.88 0855.23
2009/04/23 09:12:59.7     -52   -288    -31    293    295 190.2  -6.1  34116  288.83 0855.23
2009/04/23 09:12:59.8     -56   -283      1    289    290 191.3   0.2  34116  288.81 0855.23
2009/04/23 09:12:59.9     -53   -228     37    235    238 193.3   9.0  34116  288.83 0855.23
2009/04/23 09:13:00.0     -97   -190     65    214    224 207.2  17.1  34116  288.84 0855.23
2009/04/23 09:13:00.1     -88   -249     31    265    267 199.6   6.9  34114  288.80 0855.24
2009/04/23 09:13:00.2    -122   -256     99    284    301 205.5  19.3  34114  288.80 0855.24
2009/04/23 09:13:00.3    -114   -252     75    277    288 204.3  15.3  34112  288.76 0855.24
2009/04/23 09:13:00.4     -66   -218     17    229    230 197.0   4.4  34110  288.74 0855.24
2009/04/23 09:13:00.5     -47   -170    131    177    220 195.6  40.1  34116  288.82 0855.24
2009/04/23 09:13:00.6      15   -199    212    200    291 175.6  52.0  34116  288.83 0855.24
2009/04/23 09:13:00.7     -11   -117    140    118    183 185.8  55.6  34116  288.84 0855.24
2009/04/23 09:13:00.8     -37    -45    105     59    120 219.7  68.3  34118  288.86 0855.24
2009/04/23 09:13:00.9     -70    -70     52    100    112 225.0  29.3  34116  288.82 0855.24
2009/04/23 09:13:01.0     -98   -119     68    155    169 219.6  25.3  34116  288.84 0855.24
2009/04/23 09:13:01.1     -80    -77     78    112    136 226.0  38.6  34118  288.86 0855.24
2009/04/23 09:13:01.2     -50     -9     53     51     73 259.4  50.1  34118  288.86 0855.24
2009/04/23 09:13:01.3     -11      0     90     12     90 270.0  90.0  34122  288.92 0855.24
2009/04/23 09:13:01.4     -20   -101    108    104    149 191.6  50.7  34118  288.87 0855.24
2009/04/23 09:13:01.5     -94   -117     39    151    157 218.7  14.7  34114  288.80 0855.24
2009/04/23 09:13:01.6     -90     16   -152     92    177 280.6 -70.4  34112  288.77 0855.24
2009/04/23 09:13:01.7      45      0    -91     46    101  90.0 -75.8  34108  288.69 0855.24
2009/04/23 09:13:01.8    -154     11    -47    155    161 274.3 -22.1  34110  288.74 0855.24
2009/04/23 09:13:01.9    -185    -46    -76    191    205 255.8 -27.2  34112  288.75 0855.24
2009/04/23 09:13:02.0    -183    -51    -83    191    208 254.3 -29.5  34110  288.72 0855.24
2009/04/23 09:13:02.1    -260   -113    -73    284    294 246.4 -14.5  34106  288.65 0855.24
2009/04/23 09:13:02.2    -210    -73   -165    223    277 250.7 -44.5  34110  288.71 0855.24
2009/04/23 09:13:02.3    -192   -103   -197    218    293 241.8 -51.3  34106  288.66 0855.24
2009/04/23 09:13:02.4    -145    -47   -205    153    255 251.8 -64.0  34100  288.57 0855.24
2009/04/23 09:13:02.5     -99     22    -82    102    130 282.8 -48.1  34108  288.70 0855.24
2009/04/23 09:13:02.6    -192     50    -30    199    202 284.8  -8.8  34104  288.62 0855.24
2009/04/23 09:13:02.7    -259     69     13    269    270 285.1   2.9  34110  288.73 0855.24
2009/04/23 09:13:02.8    -211    -30     42    214    219 261.9  11.1  34108  288.69 0855.24
2009/04/23 09:13:02.9    -148     18     29    150    153 277.0  11.0  34110  288.72 0855.24
2009/04/23 09:13:03.0    -148    -50     28    157    160 251.4  10.3  34112  288.75 0855.24
2009/04/23 09:13:03.1    -135    -49    -31    144    148 250.1 -12.4  34104  288.64 0855.24
2009/04/23 09:13:03.2    -268   -149    -88    307    320 240.9 -16.0  34108  288.70 0855.24
2009/04/23 09:13:03.3    -279   -173   -121    329    350 238.2 -25.4  34102  288.59 0855.24
2009/04/23 09:13:03.4    -307   -158   -139    346    372 242.8 -27.4  34104  288.62 0855.24
2009/04/23 09:13:03.5    -141   -133     27    195    197 226.7   8.0  34110  288.72 0855.24
2009/04/23 09:13:03.6    -149    -50      6    158    159 251.4   2.5  34106  288.67 0855.24
2009/04/23 09:13:03.7     -84    -53    -70    100    122 238.0 -43.0  34108  288.69 0855.24
2009/04/23 09:13:03.8    -166    -82    -57    186    194 243.6 -22.3  34108  288.69 0855.24
2009/04/23 09:13:03.9    -229    -34    -70    232    242 261.4 -21.7  34106  288.66 0855.24
2009/04/23 09:13:04.0    -226     14    -74    227    238 273.7 -23.0  34104  288.63 0855.24
2009/04/23 09:13:04.1    -139     -9    -93    140    168 266.1 -40.9  34104  288.62 0855.25
2009/04/23 09:13:04.2     -83    -57   -100    101    142 235.4 -54.4  34104  288.62 0855.25
2009/04/23 09:13:04.3     -22   -141    -83    143    165 188.9 -37.3  34106  288.67 0855.25
2009/04/23 09:13:04.4      -9   -122    -71    123    142 184.5 -36.8  34110  288.74 0855.25
2009/04/23 09:13:04.5     -27   -113    -41    117    123 193.8 -23.8  34110  288.72 0855.25
2009/04/23 09:13:04.6     -72    -59    -90     94    130 230.5 -53.4  34110  288.74 0855.25
2009/04/23 09:13:04.7     -62    -20    -81     66    104 251.8 -60.8  34110  288.74 0855.25
2009/04/23 09:13:04.8    -128    -37    -74    134    153 253.6 -35.8  34110  288.74 0855.25
2009/04/23 09:13:04.9    -141    -61    -71    154    169 246.5 -31.0  34110  288.74 0855.25
2009/04/23 09:13:05.0    -213    -46    -72    219    230 257.6 -23.8  34106  288.67 0855.25
2009/04/23 09:13:05.1    -190      0    -71    191    203 270.1 -25.4  34110  288.74 0855.25
2009/04/23 09:13:05.2    -140      0   -107    141    177 270.0 -45.6  34110  288.72 0855.25
2009/04/23 09:13:05.3    -163    -56   -101    173    200 250.9 -37.5  34106  288.67 0855.25
2009/04/23 09:13:05.4    -119    -23    -69    122    140 259.0 -35.8  34108  288.69 0855.25
2009/04/23 09:13:05.5     -46    -39     26     61     66 229.6  23.1  34106  288.67 0855.25
2009/04/23 09:13:05.6     -34   -174     82    178    195 191.3  26.4  34110  288.72 0855.25
2009/04/23 09:13:05.7     -69   -177     89    191    210 201.4  27.1  34110  288.72 0855.25
2009/04/23 09:13:05.8    -104   -218     97    242    260 205.5  23.0  34112  288.75 0855.25
2009/04/23 09:13:05.9     -82   -156     98    177    202 207.6  31.4  34110  288.72 0855.25
2009/04/23 09:13:06.0       1    -99    118    100    154 179.1  55.8  34112  288.75 0855.25
2009/04/23 09:13:06.1       7    -97    101     98    140 175.6  51.2  34110  288.72 0855.25
2009/04/23 09:13:06.2     -19   -132    122    134    181 188.5  47.5  34106  288.67 0855.25
2009/04/23 09:13:06.3      14   -117    128    118    174 172.9  52.2  34108  288.69 0855.25
2009/04/23 09:13:06.4     122   -137    148    184    236 138.3  43.0  34108  288.69 0855.25
2009/04/23 09:13:06.5      99   -193    180    218    282 152.8  43.7  34108  288.70 0855.25
2009/04/23 09:13:06.6     165   -119    215    204    296 126.0  52.1  34108  288.70 0855.25
2009/04/23 09:13:06.7     206   -159    203    261    330 127.8  41.9  34106  288.66 0855.25
2009/04/23 09:13:06.8     195    -81    182    212    279 112.6  45.1  34106  288.66 0855.25
2009/04/23 09:13:06.9     177    -36    189    181    261 101.5  51.2  34110  288.71 0855.25
2009/04/23 09:13:07.0     119    -32    211    124    244 105.1  66.8  34110  288.74 0855.25
2009/04/23 09:13:07.1      11     56    127     58    139  11.5  73.5  34112  288.75 0855.25
2009/04/23 09:13:07.2      33     12    132     36    136  70.0  84.8  34110  288.74 0855.25
2009/04/23 09:13:07.3     -59      4    113     60    127 274.3  70.4  34112  288.75 0855.25
2009/04/23 09:13:07.4     -37    -11     84     39     92 253.2  73.5  34112  288.77 0855.25
2009/04/23 09:13:07.5     -28   -113    122    117    169 194.3  51.2  34110  288.72 0855.25
2009/04/23 09:13:07.6    -102   -160     39    190    195 212.5  11.6  34110  288.72 0855.25
2009/04/23 09:13:07.7    -127   -165      3    209    210 217.8   1.0  34106  288.65 0855.25
2009/04/23 09:13:07.8    -111   -174     98    207    229 212.5  27.2  34106  288.65 0855.25
2009/04/23 09:13:07.9     -98   -123    119    158    197 218.7  40.7  34106  288.65 0855.25
2009/04/23 09:13:08.0     -78    -27     47     83     95 250.5  32.4  34108  288.69 0855.25
2009/04/23 09:13:08.1     -98    -98     37    139    145 224.9  15.2  34106  288.65 0855.25
2009/04/23 09:13:08.2     -49   -142     89    151    175 199.2  33.7  34102  288.60 0855.25
2009/04/23 09:13:08.3     -79   -169     78    187    202 205.3  23.8  34108  288.69 0855.25
2009/04/23 09:13:08.4     -71   -209     69    222    233 198.9  17.3  34110  288.74 0855.25
2009/04/23 09:13:08.5     -68   -204     82    216    231 198.5  21.7  34106  288.67 0855.25
2009/04/23 09:13:08.6     -65   -185    105    197    223 199.6  30.6  34110  288.74 0855.25
2009/04/23 09:13:08.7     -86   -201    115    219    247 203.2  30.1  34112  288.75 0855.25
2009/04/23 09:13:08.8    -129   -234    131    268    298 208.9  28.0  34108  288.68 0855.25
2009/04/23 09:13:08.9    -261   -189    -30    323    325 234.1  -5.5  34102  288.59 0855.25
2009/04/23 09:13:09.0    -192   -198    140    276    309 224.1  29.1  34110  288.71 0855.25
2009/04/23 09:13:09.1    -166   -164    165    234    286 225.2  38.6  34110  288.71 0855.25
2009/04/23 09:13:09.2    -191   -110    115    221    249 240.0  29.5  34106  288.66 0855.25
2009/04/23 09:13:09.3    -289    -54    -53    294    299 259.4 -10.3  34108  288.70 0855.25
2009/04/23 09:13:09.4    -226   -221      6    317    318 225.6   1.1  34112  288.76 0855.25
2009/04/23 09:13:09.5    -146   -174     -8    228    229 219.9  -2.2  34108  288.70 0855.25
2009/04/23 09:13:09.6    -201   -161      9    258    259 231.4   2.1  34112  288.75 0855.25
2009/04/23 09:13:09.8    -267   -174    -52    319    324 236.9  -9.3  34114  288.78 0855.25
2009/04/23 09:13:09.8    -276   -161    -96    320    335 239.8 -16.8  34112  288.77 0855.25
2009/04/23 09:13:09.9    -222   -259    -44    342    345 220.6  -7.4  34112  288.76 0855.25
2009/04/23 09:13:10.0     -49   -290    -34    295    298 189.7  -6.7  34108  288.70 0855.25
2009/04/23 09:13:10.1      12   -227     28    228    230 176.9   7.1  34112  288.77 0855.25
2009/04/23 09:13:10.2      71   -212     -1    224    225 161.3  -0.5  34106  288.65 0855.25
2009/04/23 09:13:10.3      61   -198     50    208    214 162.8  13.5  34108  288.69 0855.25
2009/04/23 09:13:10.4      24   -134     76    137    156 169.8  31.6  34108  288.69 0855.25
2009/04/23 09:13:10.5       9   -123     14    124    125 175.5   6.5  34108  288.70 0855.25
2009/04/23 09:13:10.7     -28   -149    -27    152    155 190.7 -10.3  34108  288.70 0855.25
2009/04/23 09:13:10.7     -85   -138     29    163    166 211.6  10.1  34110  288.72 0855.25
2009/04/23 09:13:10.8    -210   -230    -28    312    314 222.3  -5.2  34112  288.75 0855.25
2009/04/23 09:13:10.9    -165   -177     47    243    248 223.0  11.1  34102  288.58 0855.25
2009/04/23 09:13:11.0    -301   -216    -48    371    375 234.3  -7.4  34118  288.86 0855.25
2009/04/23 09:13:11.1    -277   -226    -59    358    363 230.8  -9.4  34120  288.88 0855.25
2009/04/23 09:13:11.2    -240   -281    -91    370    382 220.6 -13.9  34120  288.89 0855.25
2009/04/23 09:13:11.3    -207   -322    -63    383    389 212.8  -9.3  34112  288.77 0855.25
2009/04/23 09:13:11.4    -180   -306    -71    356    364 210.5 -11.3  34112  288.77 0855.25
2009/04/23 09:13:11.5    -246   -210   -117    324    344 229.5 -25.0  34116  288.82 0855.25
2009/04/23 09:13:11.6    -227   -240    -92    331    343 223.4 -20.1  34120  288.91 0855.25
2009/04/23 09:13:11.7    -231   -311    -49    388    392 216.6  -7.3  34118  288.86 0855.25
2009/04/23 09:13:11.8    -304   -321    -56    443    447 223.5  -7.3  34114  288.78 0855.25
2009/04/23 09:13:11.9     -49   -364     61    368    374 187.8   9.5  34110  288.72 0855.25
2009/04/23 09:13:12.1    -163   -400    -23    433    434 202.2  -3.1  34108  288.70 0855.25
2009/04/23 09:13:12.1    -148   -289    -69    325    333 207.1 -12.0  34114  288.79 0855.26
2009/04/23 09:13:12.3     -85   -249    -73    264    273 198.9 -20.2  34116  288.83 0855.26
2009/04/23 09:13:12.3     -53   -281    -31    287    289 190.7  -6.2  34114  288.78 0855.26
2009/04/23 09:13:12.5      74   -385   -119    393    410 169.1 -21.8  34112  288.75 0855.26
2009/04/23 09:13:12.6     171   -435   -194    468    506 158.5 -28.2  34110  288.74 0855.26
2009/04/23 09:13:12.7     209   -376   -149    431    457 151.0 -19.1  34108  288.70 0855.26
2009/04/23 09:13:12.8     218   -374    -83    434    443 149.7 -10.9  34106  288.65 0855.26
2009/04/23 09:13:12.9     231   -379    -17    445    446 148.6  -2.2  34104  288.63 0855.26
2009/04/23 09:13:13.0     212   -375     21    432    433 150.5   2.8  34102  288.60 0855.26
2009/04/23 09:13:13.1     196   -379     35    427    429 152.6   4.7  34100  288.56 0855.26
2009/04/23 09:13:13.2     214   -350     38    411    413 148.5   5.3  34100  288.55 0855.26
2009/04/23 09:13:13.3     234   -330     66    405    411 144.6   9.3  34098  288.53 0855.26
2009/04/23 09:13:13.4     232   -304     86    383    393 142.6  12.8  34100  288.57 0855.26
2009/04/23 09:13:13.5     171   -252    107    305    324 145.8  19.4  34100  288.54 0855.26
2009/04/23 09:13:13.6      92   -215     85    235    249 156.8  20.7  34100  288.56 0855.26
2009/04/23 09:13:13.7      40   -178    -34    183    187 167.1 -10.5  34102  288.60 0855.26
2009/04/23 09:13:13.8     105   -162   -124    194    230 147.0 -40.0  34106  288.67 0855.26
2009/04/23 09:13:13.9      84   -179    -17    198    199 154.7  -5.1  34104  288.64 0855.26
2009/04/23 09:13:14.0      84   -222     -1    238    239 159.3  -0.3  34108  288.70 0855.26
2009/04/23 09:13:14.1     118   -272    -21    297    298 156.4  -4.1  34106  288.65 0855.26
2009/04/23 09:13:14.2      91   -263      1    279    280 160.9   0.2  34108  288.70 0855.27
2009/04/23 09:13:14.3     123   -222    -41    254    258 151.0  -9.3  34106  288.66 0855.27
2009/04/23 09:13:14.4     117   -267     14    292    293 156.3   2.9  34106  288.66 0855.27
2009/04/23 09:13:14.5     137   -290     25    321    323 154.7   4.5  34106  288.66 0855.27
2009/04/23 09:13:14.6      31   -329    -50    331    335 174.6  -8.6  34108  288.69 0855.27
2009/04/23 09:13:14.7      33   -274    -65    276    284 173.1 -13.3  34110  288.73 0855.27
2009/04/23 09:13:14.8      87   -284    -16    298    299 163.0  -3.1  34110  288.71 0855.27
2009/04/23 09:13:14.9      66   -266    -29    275    277 166.0  -6.1  34114  288.78 0855.27
2009/04/23 09:13:15.0      41   -296    -76    299    309 172.0 -14.3  34108  288.70 0855.27
2009/04/23 09:13:15.1     -93   -276    -59    292    299 198.7 -11.6  34102  288.58 0855.27
2009/04/23 09:13:15.2    -171   -332      3    374    375 207.3   0.5  34098  288.52 0855.27
2009/04/23 09:13:15.3    -126   -317      5    342    343 201.7   0.9  34102  288.59 0855.27
2009/04/23 09:13:15.4    -130   -356     -7    380    381 200.1  -1.2  34102  288.59 0855.27
2009/04/23 09:13:15.5     -88   -329   -104    341    357 195.1 -17.0  34102  288.60 0855.27
2009/04/23 09:13:15.6     -87   -372    -76    383    391 193.3 -11.3  34100  288.55 0855.27
2009/04/23 09:13:15.7     -58   -356    -22    361    362 189.3  -3.5  34102  288.60 0855.27
2009/04/23 09:13:15.8     -70   -343    -18    351    352 191.6  -3.0  34104  288.62 0855.27
2009/04/23 09:13:15.9     -42   -300      3    304    305 188.0   0.7  34106  288.65 0855.27
2009/04/23 09:13:16.0    -128   -272    -90    301    315 205.3 -16.6  34108  288.70 0855.27
2009/04/23 09:13:16.1    -125   -292    -88    318    329 203.2 -20.3  34112  288.75 0855.27
2009/04/23 09:13:16.2    -111   -235   -134    261    293 205.3 -33.7  34116  288.83 0855.27
2009/04/23 09:13:16.3     -92   -278   -151    293    329 198.3 -33.8  34110  288.71 0855.27
2009/04/23 09:13:16.4    -179   -297    -67    347    354 211.1 -11.0  34106  288.67 0855.27
2009/04/23 09:13:16.5    -221   -255   -114    338    356 221.0 -23.6  34110  288.74 0855.27
2009/04/23 09:13:16.6    -159   -227   -174    278    327 215.0 -39.5  34114  288.78 0855.27
2009/04/23 09:13:16.7    -160   -251   -134    298    326 212.6 -30.3  34114  288.78 0855.27
2009/04/23 09:13:16.8    -127   -224   -135    258    291 209.6 -34.2  34114  288.80 0855.27
2009/04/23 09:13:16.9    -100   -205   -143    229    269 206.1 -39.9  34114  288.78 0855.27
2009/04/23 09:13:17.0     -74   -205   -127    219    253 200.0 -37.1  34114  288.80 0855.27
2009/04/23 09:13:17.1     -87   -226   -131    243    276 201.2 -35.2  34112  288.75 0855.27
2009/04/23 09:13:17.2     -71   -217   -126    229    261 198.3 -35.8  34114  288.80 0855.27
2009/04/23 09:13:17.3     -84   -227    -90    243    259 200.5 -25.4  34110  288.73 0855.27
2009/04/23 09:13:17.4     -84   -206   -103    223    245 202.3 -31.0  34112  288.76 0855.27
2009/04/23 09:13:17.5     -41   -216   -100    220    241 190.9 -30.6  34114  288.80 0855.27
2009/04/23 09:13:17.6     -22   -191   -115    193    224 186.7 -38.1  34114  288.79 0855.27
2009/04/23 09:13:17.7     -35   -216   -116    219    247 189.3 -34.6  34116  288.81 0855.27
2009/04/23 09:13:17.8     -32   -227   -121    230    259 188.1 -34.5  34112  288.76 0855.27
2009/04/23 09:13:17.9     -18   -228   -122    229    259 184.7 -34.7  34114  288.80 0855.27
2009/04/23 09:13:18.0     -27   -201    -98    203    225 187.8 -31.7  34108  288.70 0855.27
2009/04/23 09:13:18.1     -74   -217   -111    230    255 198.9 -31.7  34112  288.75 0855.27
2009/04/23 09:13:18.2    -101   -273   -119    292    315 200.3 -27.9  34114  288.78 0855.27
2009/04/23 09:13:18.3     -61   -259   -139    267    301 193.4 -34.2  34116  288.81 0855.27
2009/04/23 09:13:18.4     -15   -268    -93    269    284 183.4 -24.3  34116  288.81 0855.27
2009/04/23 09:13:18.5     -56   -254    -78    261    273 192.5 -16.6  34114  288.78 0855.27
2009/04/23 09:13:18.6     -94   -257    -78    274    286 200.1 -16.0  34114  288.78 0855.27
2009/04/23 09:13:18.7    -111   -244    -82    269    281 204.5 -21.8  34118  288.87 0855.27
2009/04/23 09:13:18.8     -83   -250    -63    264    272 198.5 -13.4  34120  288.90 0855.27
2009/04/23 09:13:18.9     -96   -284    -43    300    304 198.7  -8.2  34120  288.90 0855.27
2009/04/23 09:13:19.0     -91   -256    -48    272    277 199.6 -10.1  34118  288.85 0855.27
2009/04/23 09:13:19.1     -82   -255    -85    268    282 197.9 -17.6  34118  288.85 0855.27
2009/04/23 09:13:19.2     -29   -337    -61    339    345 185.0 -10.2  34112  288.77 0855.27
2009/04/23 09:13:19.3     -81   -304    -36    315    318 195.1  -6.6  34112  288.76 0855.27
2009/04/23 09:13:19.4     -53   -289    -37    294    297 190.5  -7.3  34116  288.81 0855.27
2009/04/23 09:13:19.5     -66   -285     14    293    294 193.1   2.9  34114  288.78 0855.27
2009/04/23 09:13:19.6     -25   -291    -31    293    295 185.1  -6.2  34114  288.80 0855.27
2009/04/23 09:13:19.7      -5   -286    -40    287    290 181.1  -8.0  34112  288.75 0855.27
2009/04/23 09:13:19.8       9   -310    -59    311    317 178.2 -10.9  34114  288.80 0855.27
2009/04/23 09:13:19.9      -4   -262    -47    263    268 181.0 -10.3  34112  288.75 0855.27
2009/04/23 09:13:20.0     -37   -210    -50    214    220 190.0 -13.2  34112  288.77 0855.27
2009/04/23 09:13:20.1     -38   -171    -52    176    183 192.7 -21.5  34112  288.75 0855.27
2009/04/23 09:13:20.2     -64   -194    -24    205    207 198.3  -6.7  34112  288.77 0855.27
2009/04/23 09:13:20.3     -63   -138    -31    152    156 204.5 -11.5  34114  288.80 0855.27
2009/04/23 09:13:20.4    -116   -123    -72    170    184 223.2 -28.7  34112  288.77 0855.27
2009/04/23 09:13:20.5    -117    -74     -4    139    140 237.6  -1.8  34114  288.80 0855.27
2009/04/23 09:13:20.6      -8    -24     30     26     39 198.3  54.3  34114  288.80 0855.27
2009/04/23 09:13:20.7     -39    -47     25     62     66 219.7  23.0  34116  288.82 0855.27
2009/04/23 09:13:20.8     -93   -132      2    162    163 215.2   1.0  34116  288.82 0855.27
2009/04/23 09:13:20.9     -59   -177    -57    187    195 198.7 -22.1  34114  288.80 0855.27
2009/04/23 09:13:21.0     -97   -168    -61    195    205 210.1 -17.6  34114  288.80 0855.27
2009/04/23 09:13:21.1    -149   -149    -61    211    219 225.0 -21.0  34112  288.77 0855.27
2009/04/23 09:13:21.2    -167   -124    -69    209    220 233.4 -23.8  34114  288.80 0855.27
2009/04/23 09:13:21.3    -132   -140    -63    193    203 223.3 -23.6  34114  288.79 0855.27
2009/04/23 09:13:21.4     -97   -148    -87    178    198 213.2 -32.4  34112  288.75 0855.27
2009/04/23 09:13:21.5     -92   -203   -102    224    246 204.5 -30.6  34114  288.80 0855.27
2009/04/23 09:13:21.6     -98   -233    -90    254    270 202.9 -19.6  34118  288.87 0855.27
2009/04/23 09:13:21.7     -85   -257    -65    271    279 198.3 -13.7  34122  288.93 0855.27
2009/04/23 09:13:21.8     -87   -223    -82    240    254 201.4 -19.1  34122  288.93 0855.27
2009/04/23 09:13:21.9     -94   -253    -39    271    274 200.5  -8.2  34122  288.92 0855.27
2009/04/23 09:13:22.0    -149   -260     25    300    302 209.9   4.9  34118  288.87 0855.27
2009/04/23 09:13:22.1    -180   -209    -81    277    289 220.8 -16.4  34110  288.71 0855.27
2009/04/23 09:13:22.2    -228   -132    -89    264    278 239.8 -23.3  34112  288.76 0855.27
2009/04/23 09:13:22.3    -124   -150    -73    195    208 219.6 -25.7  34112  288.77 0855.27
2009/04/23 09:13:22.4     -76   -164    -59    181    191 204.9 -18.1  34116  288.82 0855.27
2009/04/23 09:13:22.5    -123   -193    -59    230    238 212.5 -14.5  34116  288.81 0855.27
2009/04/23 09:13:22.6    -129   -202    -86    241    257 212.6 -19.7  34118  288.85 0855.27
2009/04/23 09:13:22.7    -180   -191    -75    263    273 223.2 -20.8  34118  288.85 0855.27
2009/04/23 09:13:22.8    -163   -185    -80    247    260 221.5 -18.1  34118  288.87 0855.27
2009/04/23 09:13:22.9    -180   -132    -71    224    236 233.8 -17.6  34118  288.87 0855.27
2009/04/23 09:13:23.0    -164   -101    -87    193    211 238.2 -30.3  34118  288.87 0855.27
2009/04/23 09:13:23.1    -182    -33    -98    186    210 259.6 -34.2  34118  288.87 0855.27
2009/04/23 09:13:23.2     -82      1    -58     83    101 270.8 -43.0  34116  288.84 0855.27
2009/04/23 09:13:23.3    -134     84    -10    159    160 302.0  -3.9  34118  288.86 0855.27
2009/04/23 09:13:23.4    -137     80    -43    159    164 300.4 -20.2  34118  288.87 0855.27
2009/04/23 09:13:23.5     -70     39     -3     81     82 298.9  -2.2  34120  288.89 0855.27
2009/04/23 09:13:23.6     -40    -14      4     43     44 250.0   5.9  34120  288.89 0855.27
2009/04/23 09:13:23.7      10    -37     -1     39     40 164.9  -2.2  34118  288.87 0855.27
2009/04/23 09:13:23.8     -20    -71     40     74     84 196.0  31.4  34120  288.89 0855.27
2009/04/23 09:13:23.9      13    -51     37     53     64 165.7  38.6  34122  288.92 0855.27
2009/04/23 09:13:24.0      55    -22     21     60     64 111.7  19.4  34120  288.89 0855.27
2009/04/23 09:13:24.1      60    -16     22     63     67 105.1  19.4  34122  288.92 0855.27
2009/04/23 09:13:24.2      48     12     40     50     64  75.8  43.7  34122  288.92 0855.27
2009/04/23 09:13:24.3     -18     -3     55     19     58 258.5  81.2  34120  288.91 0855.27
2009/04/23 09:13:24.4     -51    -27    -19     58     62 242.0 -18.7  34120  288.91 0855.27
2009/04/23 09:13:24.5     -15    -45    -38     48     61 198.7 -48.1  34118  288.87 0855.27
2009/04/23 09:13:24.6     -51    -97    -38    110    117 208.1 -19.1  34120  288.89 0855.27
2009/04/23 09:13:24.7     -53   -134    -40    145    151 201.9 -15.5  34120  288.91 0855.27
2009/04/23 09:13:24.8     -68   -170    -66    184    196 201.8 -19.7  34116  288.84 0855.27
2009/04/23 09:13:24.9     -72   -219    -95    231    249 198.3 -28.2  34126  289.00 0855.27
2009/04/23 09:13:25.0    -128   -278   -149    307    341 204.7 -32.3  34126  289.01 0855.27
2009/04/23 09:13:25.1    -114   -207   -183    237    299 208.9 -46.1  34130  289.05 0855.27
2009/04/23 09:13:25.2    -101   -149   -185    181    258 214.3 -55.1  34130  289.05 0855.27
2009/04/23 09:13:25.3     -48   -123   -152    133    201 201.4 -58.7  34130  289.06 0855.27
2009/04/23 09:13:25.4     -11   -146   -158    147    215 184.5 -56.6  34130  289.06 0855.27
2009/04/23 09:13:25.5      -9    -91   -139     92    166 185.8 -68.0  34130  289.06 0855.27
2009/04/23 09:13:25.6       0    -75   -131     76    151 180.0 -71.6  34130  289.08 0855.27
2009/04/23 09:13:25.7      14    -22   -107     27    110 147.4 -90.0  34130  289.06 0855.27
2009/04/23 09:13:25.8      53    -33    -78     63    100 122.4 -61.3  34130  289.06 0855.27
2009/04/23 09:13:25.9      60    -73   -115     95    149 140.4 -60.8  34128  289.02 0855.27
2009/04/23 09:13:26.0      25    -97   -118    101    155 165.3 -59.8  34128  289.04 0855.27
2009/04/23 09:13:26.1      80    -56   -109     98    146 125.1 -57.7  34128  289.04 0855.27
2009/04/23 09:13:26.2      47    -41    -96     63    114 131.3 -69.0  34128  289.02 0855.27
2009/04/23 09:13:26.3      68    -13    -68     70     97 101.4 -54.9  34120  288.91 0855.27
2009/04/23 09:13:26.4     -21     47    -64     52     82 335.5 -60.8  34124  288.96 0855.27
2009/04/23 09:13:26.5     -68      5    -77     69    103 274.3 -57.1  34124  288.97 0855.27
2009/04/23 09:13:26.6     -50      0   -117     51    127 270.8 -79.4  34122  288.94 0855.27
2009/04/23 09:13:26.7     -63    -34   -140     72    157 241.2 -75.2  34124  288.96 0855.27
2009/04/23 09:13:26.8     -60    -60    -87     86    122 225.1 -54.5  34124  288.96 0855.27
2009/04/23 09:13:26.9    -107    -26   -107    111    154 256.3 -53.8  34120  288.89 0855.27
2009/04/23 09:13:27.0    -151     73   -104    168    197 296.0 -39.2  34122  288.92 0855.27
2009/04/23 09:13:27.1    -127     92    -66    157    170 306.0 -28.5  34118  288.87 0855.27
2009/04/23 09:13:27.2    -139     31   -100    143    174 282.8 -42.4  34122  288.94 0855.27
2009/04/23 09:13:27.3    -197   -111    -85    227    242 240.7 -25.9  34124  288.95 0855.27
2009/04/23 09:13:27.4    -244    -84   -147    259    297 251.0 -36.5  34120  288.90 0855.27
2009/04/23 09:13:27.5     -75    -38   -162     85    182 242.9 -74.4  34122  288.92 0855.27
2009/04/23 09:13:27.6     -88    -41   -132     98    164 244.7 -64.2  34122  288.94 0855.27
2009/04/23 09:13:27.7    -120    -16   -123    122    173 262.1 -54.3  34122  288.94 0855.27
2009/04/23 09:13:27.8     -95     -6    -99     96    137 266.1 -55.6  34124  288.96 0855.27
2009/04/23 09:13:27.9    -137    -41   -106    144    178 253.2 -44.3  34124  288.96 0855.27
2009/04/23 09:13:28.0    -114    -19    -96    116    150 260.3 -48.2  34126  289.01 0855.27
2009/04/23 09:13:28.1    -111    -36   -106    117    157 251.8 -51.3  34126  288.99 0855.27
2009/04/23 09:13:28.2     -87    -64    -95    109    144 233.6 -50.2  34126  289.01 0855.27
2009/04/23 09:13:28.3     -29    -92   -107     97    144 197.8 -57.1  34126  288.99 0855.27
2009/04/23 09:13:28.4     -26    -59    -97     65    116 204.5 -68.0  34126  288.99 0855.27
2009/04/23 09:13:28.5     -27    -43   -104     51    115 212.5 -77.2  34126  288.99 0855.27
2009/04/23 09:13:28.6     -76    -35    -94     84    126 244.8 -57.7  34124  288.97 0855.27
2009/04/23 09:13:28.7     -63    -41    -85     76    114 236.7 -57.7  34128  289.02 0855.27
2009/04/23 09:13:28.8     -33    -39    -70     52     87 220.5 -63.8  34128  289.02 0855.27
2009/04/23 09:13:28.9     -61    -16   -104     64    122 254.9 -70.1  34128  289.04 0855.27
2009/04/23 09:13:29.0     -10    -42    -95     44    104 194.3 -77.9  34126  288.99 0855.27
2009/04/23 09:13:29.1      -2    -46   -112     47    121 183.6 -80.5  34124  288.97 0855.27
2009/04/23 09:13:29.2      17    -53   -104     56    118 161.3 -73.7  34126  288.99 0855.26
2009/04/23 09:13:29.3      26    -73    -94     78    122 160.0 -60.7  34124  288.97 0855.26
2009/04/23 09:13:29.4      48    -69    -89     85    123 145.3 -55.6  34124  288.96 0855.26
2009/04/23 09:13:29.5      10    -72    -93     73    118 171.9 -62.3  34128  289.04 0855.26
2009/04/23 09:13:29.6      -1    -19   -104     20    105 184.5 -90.0  34126  289.01 0855.26
2009/04/23 09:13:29.7      -8    -29    -90     31     95 195.1 -85.6  34126  289.01 0855.26
2009/04/23 09:13:29.8     -19    -35    -87     41     96 209.0 -77.3  34124  288.97 0855.26
2009/04/23 09:13:29.9       5    -74   -128     75    148 175.5 -71.2  34126  289.01 0855.26
2009/04/23 09:13:30.0      32   -106   -133    111    173 163.1 -60.5  34122  288.94 0855.26
2009/04/23 09:13:30.1      30    -87    -90     93    129 160.8 -53.8  34128  289.02 0855.26
2009/04/23 09:13:30.2      29    -89   -130     94    160 161.5 -64.9  34128  289.02 0855.26
2009/04/23 09:13:30.3      74    -78   -139    108    176 136.3 -62.6  34126  288.99 0855.26
2009/04/23 09:13:30.4      59    -64   -103     88    135 137.2 -59.8  34122  288.94 0855.26
2009/04/23 09:13:30.5      17     -7   -104     19    105 111.7 -90.0  34124  288.96 0855.26
2009/04/23 09:13:30.6      24    -38    -91     46    101 147.5 -75.8  34126  288.99 0855.26
2009/04/23 09:13:30.7      74    -79   -102    109    149 136.8 -52.4  34128  289.02 0855.26
2009/04/23 09:13:30.8     107    -63    -79    125    147 120.7 -39.9  34126  289.01 0855.26
2009/04/23 09:13:30.9      98    -22    -47    101    111 102.8 -31.5  34124  288.97 0855.26
2009/04/23 09:13:31.0     116    -17    -51    118    128  98.4 -29.5  34126  288.99 0855.26
2009/04/23 09:13:31.1      86    -73    -67    113    131 130.4 -37.9  34124  288.97 0855.26
2009/04/23 09:13:31.2      81    -51    -37     97    103 122.4 -25.9  34128  289.04 0855.26
2009/04/23 09:13:31.3      69    -44    -38     83     91 122.5 -31.0  34128  289.02 0855.26
2009/04/23 09:13:31.4      52    -71    -34     89     95 143.5 -25.4  34128  289.02 0855.26
2009/04/23 09:13:31.5      56    -87    -74    104    127 147.4 -43.9  34130  289.06 0855.26
2009/04/23 09:13:31.6      94    -81    -58    125    137 130.9 -31.0  34126  289.01 0855.26
2009/04/23 09:13:31.7     102    -88    -22    135    137 130.9  -9.4  34130  289.06 0855.26
2009/04/23 09:13:31.8      87    -86     -2    123    124 134.9  -1.2  34128  289.02 0855.26
2009/04/23 09:13:31.9     119    -58      0    133    134 116.2   0.2  34128  289.02 0855.26
2009/04/23 09:13:32.0     114    -41     27    122    126 110.0  12.6  34126  288.99 0855.26
2009/04/23 09:13:32.1     141    -66     41    156    162 115.3  14.7  34130  289.06 0855.26
2009/04/23 09:13:32.2     158    -49     47    166    173 107.3  15.8  34124  288.96 0855.26
2009/04/23 09:13:32.3     161    -37     53    166    175 103.0  17.9  34124  288.97 0855.26
2009/04/23 09:13:32.4     164    -46     62    171    181 105.9  20.7  34124  288.97 0855.26
2009/04/23 09:13:32.5     134    -68     81    151    171 117.0  30.6  34124  288.96 0855.26
2009/04/23 09:13:32.6     135    -66     51    151    160 116.2  18.9  34124  288.97 0855.26
2009/04/23 09:13:32.7     124    -59     49    138    146 115.3  20.0  34124  288.96 0855.26
2009/04/23 09:13:32.8     120   -100     17    157    159 130.0   6.5  34128  289.02 0855.26
2009/04/23 09:13:32.9     134   -122     22    182    184 132.2   7.1  34126  288.99 0855.26
2009/04/23 09:13:33.0     138   -106     24    175    177 127.5   7.8  34124  288.97 0855.26
2009/04/23 09:13:33.1     131    -38     32    137    141 106.4  13.2  34124  288.96 0855.26
2009/04/23 09:13:33.2     132    -58     31    145    149 113.6  12.2  34126  289.01 0855.26
2009/04/23 09:13:33.3     119    -51     37    130    136 113.5  15.8  34122  288.94 0855.26
2009/04/23 09:13:33.4     144      0     57    145    155  90.0  22.5  34124  288.97 0855.26
2009/04/23 09:13:33.5     146    -13     51    147    156  95.2  19.2  34124  288.97 0855.26
2009/04/23 09:13:33.6     120    -45     40    129    136 110.8  17.3  34126  288.99 0855.26
2009/04/23 09:13:33.7     108    -45     37    118    124 112.6  17.4  34124  288.96 0855.26
2009/04/23 09:13:33.8     103    -27     46    107    116 105.0  24.6  34124  288.97 0855.26
2009/04/23 09:13:33.9      94    -60     35    112    118 122.4  17.3  34124  288.96 0855.26
2009/04/23 09:13:34.0     103    -56     35    118    124 118.4  16.8  34124  288.96 0855.26
2009/04/23 09:13:34.1     100    -40     46    108    117 111.8  24.1  34124  288.97 0855.26
2009/04/23 09:13:34.2      80    -32     49     87     99 112.2  31.9  34124  288.97 0855.26
2009/04/23 09:13:34.3      69    -42     49     81     94 121.5  35.0  34124  288.97 0855.26
2009/04/23 09:13:34.4      78    -49     62     93    111 122.0  36.5  34126  289.01 0855.26
2009/04/23 09:13:34.5      93    -30     55     98    112 108.2  31.4  34126  288.99 0855.26
2009/04/23 09:13:34.6      78    -15     62     80    101 101.4  42.2  34124  288.97 0855.26
2009/04/23 09:13:34.8      68    -43     62     81    102 122.4  41.2  34124  288.97 0855.26
2009/04/23 09:13:34.9      76    -46     55     89    104 121.1  35.5  34126  288.99 0855.26
2009/04/23 09:13:34.9      84    -63     78    105    130 126.9  40.1  34124  288.97 0855.26
2009/04/23 09:13:35.0      93    -71     74    118    139 127.3  35.5  34126  288.99 0855.26
2009/04/23 09:13:35.1      93    -47     99    105    144 117.1  48.5  34122  288.94 0855.26
2009/04/23 09:13:35.2     129    -39     57    135    146 106.9  24.1  34124  288.97 0855.25
2009/04/23 09:13:35.3     139    -17     57    141    152  97.0  23.0  34122  288.94 0855.25
2009/04/23 09:13:35.4     149    -11     83    150    171  94.3  31.4  34120  288.91 0855.25
2009/04/23 09:13:35.5     129     -7     91    130    158  93.5  38.4  34120  288.89 0855.25
2009/04/23 09:13:35.6     117    -58     80    131    153 116.6  35.0  34124  288.96 0855.25
2009/04/23 09:13:35.7     135    -49    128    144    192 110.0  46.4  34124  288.97 0855.25
2009/04/23 09:13:35.8      98    -53     98    112    148 118.4  45.8  34126  289.01 0855.25
2009/04/23 09:13:35.9      57    -18     82     60    101 108.2  60.5  34124  288.97 0855.25
2009/04/23 09:13:36.0       3     -7     57      8     57 154.6  90.0  34128  289.02 0855.25
2009/04/23 09:13:36.1       7      0     58      8     58  90.0  90.0  34126  288.99 0855.25
2009/04/23 09:13:36.2      61    -60     74     86    113 134.4  45.4  34124  288.97 0855.24
2009/04/23 09:13:36.3      92    -49     98    105    143 118.0  48.0  34124  288.97 0855.24
2009/04/23 09:13:36.4      35    -41     88     54    103 139.5  64.7  34124  288.96 0855.24
2009/04/23 09:13:36.5       3     28     72     29     77   6.2  77.1  34124  288.97 0855.24
2009/04/23 09:13:36.6      71     -4     76     72    104  93.5  51.2  34126  289.01 0855.24
2009/04/23 09:13:36.7      49     15     89     52    103  72.3  67.2  34124  288.97 0855.24
2009/04/23 09:13:36.8      15    -13     63     20     66 131.3  80.7  34126  288.99 0855.24
2009/04/23 09:13:36.9      29    -46     63     55     83 147.4  53.7  34128  289.02 0855.24
2009/04/23 09:13:37.0      54    -54     53     77     93 135.0  37.6  34124  288.97 0855.24
2009/04/23 09:13:37.1      44    -40     84     60    103 132.2  61.1  34124  288.97 0855.24
2009/04/23 09:13:37.2      51    -69     90     87    125 143.5  50.2  34124  288.96 0855.24
2009/04/23 09:13:37.3      45    -58     97     74    122 142.2  58.5  34126  288.99 0855.24
2009/04/23 09:13:37.4      64    -70     76     96    122 137.7  42.7  34124  288.97 0855.24
2009/04/23 09:13:37.5      58    -91     98    109    146 147.4  46.9  34124  288.97 0855.24
2009/04/23 09:13:37.6      62    -31    110     70    130 117.1  64.7  34126  288.99 0855.24
2009/04/23 09:13:37.7      42    -20     80     47     92 115.3  66.8  34126  288.99 0855.24
2009/04/23 09:13:37.8      50     -3     80     51     94  93.5  64.7  34126  289.01 0855.24
2009/04/23 09:13:37.9      32     20     67     39     77  57.6  66.8  34128  289.02 0855.24
2009/04/23 09:13:38.0       0      0     65      0     65   0.0  90.0  34126  288.99 0855.24
2009/04/23 09:13:38.1      11    -35     76     37     84 161.3  72.4  34130  289.06 0855.24
2009/04/23 09:13:38.2       8    -23     82     25     85 160.0  82.8  34128  289.04 0855.24
2009/04/23 09:13:38.3     -32    -30     95     44    104 226.9  73.5  34130  289.06 0855.24
2009/04/23 09:13:38.4     -15    -31    112     35    117 207.2  82.3  34128  289.02 0855.24
2009/04/23 09:13:38.6     -61     35     88     71    113 299.8  56.4  34126  288.99 0855.24
2009/04/23 09:13:38.6     -73     18     64     76     99 284.2  44.3  34126  288.99 0855.24
2009/04/23 09:13:38.7      -6    -25     34     26     42 193.4  58.5  34126  289.01 0855.24
2009/04/23 09:13:38.9      24    -47     72     53     89 152.8  60.0  34130  289.06 0855.24
2009/04/23 09:13:39.0       9   -102     68    103    123 174.7  36.0  34128  289.04 0855.24
2009/04/23 09:13:39.0      -6   -107     85    108    137 183.6  42.2  34126  289.01 0855.24
2009/04/23 09:13:39.2      11   -113    127    114    170 174.2  53.5  34124  288.97 0855.24
2009/04/23 09:13:39.3      -6   -132    119    133    178 182.7  46.9  34128  289.02 0855.24
2009/04/23 09:13:39.3       0      7     88      8     88 357.3  90.0  34128  289.02 0855.24
2009/04/23 09:13:39.5      24     41     77     48     90  30.7  64.7  34128  289.04 0855.24
2009/04/23 09:13:39.6      40    -30     79     51     94 126.9  64.6  34124  288.97 0855.24
2009/04/23 09:13:39.7      -7    -99     99    100    140 184.0  50.0  34132  289.09 0855.24
2009/04/23 09:13:39.8      -9   -104     90    105    138 185.3  45.4  34138  289.19 0855.24
2009/04/23 09:13:39.9      -7    -96    113     97    148 184.5  55.4  34136  289.18 0855.24
2009/04/23 09:13:40.0      14   -132     76    133    153 173.8  32.4  34130  289.08 0855.24
2009/04/23 09:13:40.1       4   -108     79    109    134 177.8  39.7  34128  289.04 0855.24
2009/04/23 09:13:40.2      20    -61     95     65    115 161.5  62.6  34130  289.08 0855.24
2009/04/23 09:13:40.3      -9    -28     52     30     60 198.7  67.7  34134  289.13 0855.24
2009/04/23 09:13:40.4     -55    -55     -8     78     79 225.0  -6.2  34128  289.04 0855.24
2009/04/23 09:13:40.5     -60     -5     16     61     64 264.8  15.3  34126  289.01 0855.24
2009/04/23 09:13:40.6     -44    -18     43     48     64 247.4  47.9  34126  289.01 0855.24
2009/04/23 09:13:40.7     -64    -17     46     67     81 254.9  38.0  34124  288.97 0855.24
2009/04/23 09:13:40.8    -105    -23     81    108    135 257.6  40.7  34128  289.02 0855.24
2009/04/23 09:13:40.9     -48    -43     94     65    114 227.8  62.6  34124  288.96 0855.24
2009/04/23 09:13:41.0     -51    -63     98     82    127 219.2  56.3  34124  288.97 0855.24
2009/04/23 09:13:41.1     -65    -15     65     67     93 256.7  50.0  34128  289.04 0855.24
2009/04/23 09:13:41.2     -47    -26     69     54     87 241.1  57.9  34128  289.02 0855.24
2009/04/23 09:13:41.3     -89    -12     13     90     92 262.1   8.5  34136  289.18 0855.24
2009/04/23 09:13:41.4    -109    -29     12    113    114 255.0   6.5  34134  289.13 0855.24
2009/04/23 09:13:41.5    -140    -55     -5    151    152 248.3  -2.2  34134  289.13 0855.24
2009/04/23 09:13:41.6    -141    -78     16    162    163 241.1   5.9  34130  289.06 0855.24
2009/04/23 09:13:41.7    -135    -67     18    151    153 243.4   6.9  34128  289.04 0855.24
2009/04/23 09:13:41.8    -155    -75     35    173    177 244.0  11.4  34128  289.04 0855.24
2009/04/23 09:13:41.9     -58    -77     86     97    129 217.0  45.8  34126  288.99 0855.24
2009/04/23 09:13:42.0     -67    -56     58     88    105 230.0  36.0  34134  289.13 0855.24
2009/04/23 09:13:42.1     -67    -52     30     86     92 232.2  19.4  34132  289.09 0855.24
2009/04/23 09:13:42.2     -70    -33     30     78     83 244.6  21.5  34136  289.18 0855.24
2009/04/23 09:13:42.3    -158    -71     60    174    185 245.8  19.2  34136  289.16 0855.24
2009/04/23 09:13:42.4    -107    -68     44    127    135 237.6  19.4  34142  289.26 0855.24
2009/04/23 09:13:42.5    -129    -47     27    138    141 250.0  11.1  34150  289.41 0855.24
2009/04/23 09:13:42.6    -141    -17     12    143    144 263.0   4.9  34156  289.50 0855.24
2009/04/23 09:13:42.7    -164    -66     51    177    185 248.0  16.0  34166  289.67 0855.24
2009/04/23 09:13:42.8    -160    -31     10    164    165 258.8   3.8  34192  290.13 0855.24
2009/04/23 09:13:42.9    -144    -17     26    146    149 263.0  10.1  34192  290.11 0855.24
2009/04/23 09:13:43.0    -155    -51     32    164    168 251.8  11.1  34182  289.94 0855.24
2009/04/23 09:13:43.1    -157    -47    -11    164    165 253.2  -4.1  34172  289.79 0855.24
2009/04/23 09:13:43.2    -157    -65    -13    171    172 247.4  -4.6  34170  289.75 0855.24
2009/04/23 09:13:43.3    -136    -77     -8    157    158 240.2  -3.1  34164  289.63 0855.24
2009/04/23 09:13:43.4    -120   -112     25    165    167 227.1   8.8  34150  289.41 0855.24
2009/04/23 09:13:43.5    -131    -94      8    162    163 234.5   2.9  34162  289.60 0855.24
2009/04/23 09:13:43.6    -138    -93     69    167    180 235.9  23.6  34132  289.11 0855.24
2009/04/23 09:13:43.7    -110     30     72    115    135 285.5  35.5  34122  288.94 0855.24
2009/04/23 09:13:43.8    -126     26     57    129    141 281.9  25.2  34126  289.01 0855.24
2009/04/23 09:13:43.9    -134     19     62    136    149 278.4  27.1  34124  288.97 0855.24
2009/04/23 09:13:44.0     -89     31     63     95    113 289.1  36.0  34124  288.97 0855.24
2009/04/23 09:13:44.1     -17     11     22     21     30 304.2  50.1  34126  289.01 0855.24
2009/04/23 09:13:44.2     -60    -31     40     68     78 242.0  33.5  34126  289.01 0855.24
2009/04/23 09:13:44.3     -80    -69     29    106    110 229.1  15.3  34124  288.97 0855.24
2009/04/23 09:13:44.4     -73     -8     -9     74     75 263.0  -7.2  34124  288.97 0855.24
2009/04/23 09:13:44.5     -34      6      0     35     36 281.5  -1.3  34126  288.99 0855.24
2009/04/23 09:13:44.6       0    100     61    101    117 359.6  34.0  34120  288.91 0855.24
2009/04/23 09:13:44.7     -14     99     94    101    137 352.0  47.9  34124  288.96 0855.24
2009/04/23 09:13:44.8     -47     67     76     82    111 324.8  47.9  34134  289.13 0855.24
2009/04/23 09:13:44.9     -61      4     41     62     74 274.4  35.6  34140  289.23 0855.24
2009/04/23 09:13:45.0     -43    -56     14     71     73 217.8  11.1  34132  289.09 0855.24
2009/04/23 09:13:45.1      13    -63     37     65     74 168.4  32.4  34126  288.99 0855.24
2009/04/23 09:13:45.2      55     -4     98     56    112  94.4  67.7  34130  289.06 0855.24
2009/04/23 09:13:45.3      43      0    100     44    109  90.0  74.5  34140  289.23 0855.24
2009/04/23 09:13:45.4      53     24    108     59    123  65.6  68.9  34142  289.28 0855.24
2009/04/23 09:13:45.5     107     18     98    109    146  80.3  46.9  34138  289.19 0855.24
2009/04/23 09:13:45.6      80     11     91     81    121  81.6  53.7  34136  289.16 0855.24
2009/04/23 09:13:45.7      81     15     87     83    120  79.0  51.6  34134  289.14 0855.24
2009/04/23 09:13:45.8      32      7     65     33     72  76.7  71.9  34138  289.19 0855.24
2009/04/23 09:13:45.9      19     19     67     27     72  45.1  77.1  34138  289.21 0855.24
2009/04/23 09:13:46.0      24    -15     82     29     86 122.5  80.7  34138  289.19 0855.24
2009/04/23 09:13:46.1      33     26     53     43     68  51.4  56.4  34136  289.18 0855.24
2009/04/23 09:13:46.2      25      2     49     26     55  83.9  69.8  34132  289.09 0855.24
2009/04/23 09:13:46.3       2    -27     50     28     57 175.6  67.7  34130  289.06 0855.24
2009/04/23 09:13:46.4      64     -3     63     65     90  93.5  49.4  34128  289.02 0855.24
2009/04/23 09:13:46.5      52    -17     56     55     78 108.4  48.2  34128  289.02 0855.24
2009/04/23 09:13:46.6      48    -24     51     54     74 117.1  49.0  34128  289.04 0855.24
2009/04/23 09:13:46.7       9    -49     57     50     75 169.3  54.3  34132  289.09 0855.24
2009/04/23 09:13:46.8      50    -36     59     62     85 126.0  49.0  34134  289.13 0855.24
2009/04/23 09:13:46.9      12    -54     60     56     82 167.5  51.6  34132  289.11 0855.24
2009/04/23 09:13:47.0       6    -78     90     79    119 175.5  54.3  34128  289.02 0855.24
2009/04/23 09:13:47.1      -1    -86     80     87    118 180.9  47.9  34124  288.97 0855.24
2009/04/23 09:13:47.2      18    -51     60     55     81 160.8  52.7  34124  288.97 0855.24
2009/04/23 09:13:47.3      41    -71     74     83    111 149.7  46.4  34126  288.99 0855.24
2009/04/23 09:13:47.4      23    -67     78     72    106 160.8  52.2  34130  289.06 0855.24
2009/04/23 09:13:47.5      19    -71     77     74    106 164.8  51.2  34128  289.04 0855.24
2009/04/23 09:13:47.6       0    -63     74     64     97 180.9  54.3  34132  289.09 0855.24
2009/04/23 09:13:47.7      60    -95     86    113    142 147.4  41.2  34134  289.14 0855.24
2009/04/23 09:13:47.8      38    -99     78    107    132 159.1  39.7  34136  289.16 0855.24
2009/04/23 09:13:47.9     -10   -107     65    108    126 185.8  34.0  34144  289.31 0855.24
2009/04/23 09:13:48.0     -71   -153     68    169    182 204.9  23.0  34146  289.35 0855.24
2009/04/23 09:13:48.1     -50   -154     34    162    166 198.0  12.2  34146  289.33 0855.24
2009/04/23 09:13:48.2      -1   -103     44    104    112 181.0  24.1  34142  289.28 0855.24
2009/04/23 09:13:48.3     -18   -100     83    102    131 190.7  43.7  34138  289.19 0855.25
2009/04/23 09:13:48.4     -32    -89     58     95    111 200.0  35.0  34142  289.26 0855.25
2009/04/23 09:13:48.5     -50    -88     77    102    127 209.9  41.6  34142  289.28 0855.25
2009/04/23 09:13:48.6     -52    -82     84     98    129 212.6  44.8  34142  289.28 0855.25
2009/04/23 09:13:48.7     -35    -74     51     82     96 205.5  35.5  34138  289.21 0855.25
2009/04/23 09:13:48.8      36    -38     62     53     81 136.8  54.8  34134  289.13 0855.25
2009/04/23 09:13:48.9      52    -36     58     64     86 125.1  47.5  34132  289.09 0855.25
2009/04/23 09:13:49.0      49    -20     60     54     80 112.6  53.3  34132  289.11 0855.25
2009/04/23 09:13:49.1      45    -28     55     54     77 122.4  49.1  34134  289.13 0855.25
2009/04/23 09:13:49.2      13     14     40     20     44  41.4  70.8  34134  289.13 0855.25
2009/04/23 09:13:49.3     -10    -28     41     30     50 200.0  60.5  34134  289.13 0855.25
2009/04/23 09:13:49.4     -29    -33     58     45     73 221.4  57.5  34136  289.16 0855.25
2009/04/23 09:13:49.5     -46    -70     76     84    113 213.4  47.5  34126  289.01 0855.25
2009/04/23 09:13:49.6     -19    -91    100     94    137 192.0  52.1  34126  289.01 0855.25
2009/04/23 09:13:49.7     -21   -106     88    109    140 191.1  43.7  34124  288.97 0855.25
2009/04/23 09:13:49.8     -11    -91     96     92    132 187.1  50.7  34126  288.99 0855.25
2009/04/23 09:13:49.9      -5   -110     76    111    134 182.7  37.4  34124  288.97 0855.25
2009/04/23 09:13:50.0       0   -109     81    110    136 180.0  39.7  34128  289.02 0855.25
2009/04/23 09:13:50.1     -32    -96     62    102    119 198.3  34.0  34134  289.13 0855.25
2009/04/23 09:13:50.2     -24   -100     50    103    114 193.8  27.3  34136  289.18 0855.25
2009/04/23 09:13:50.3     -29   -108     58    112    126 195.2  29.3  34136  289.18 0855.25
2009/04/23 09:13:50.4     -25    -97     -2    101    102 194.7  -1.3  34136  289.16 0855.25
2009/04/23 09:13:50.5     -46   -105    -23    115    118 203.6 -11.5  34134  289.13 0855.25
2009/04/23 09:13:50.6     -52    -86     -5    101    102 211.6  -3.2  34132  289.09 0855.25
2009/04/23 09:13:50.7     -82    -68     -2    107    108 230.4  -1.3  34136  289.16 0855.25
2009/04/23 09:13:50.8     -59    -63    -22     87     90 222.8 -14.5  34134  289.14 0855.25
2009/04/23 09:13:50.9     -41    -45     -2     62     63 222.3  -2.2  34134  289.13 0855.25
2009/04/23 09:13:51.0     -42    -41     32     59     67 226.0  31.3  34132  289.09 0855.25
2009/04/23 09:13:51.1     -39    -57     50     70     86 214.3  39.1  34130  289.08 0855.25
2009/04/23 09:13:51.2     -81    -46     54     94    108 240.2  32.4  34132  289.09 0855.25
2009/04/23 09:13:51.3     -87    -31     32     93     99 250.0  19.4  34132  289.11 0855.25
2009/04/23 09:13:51.4     -74    -51      1     91     92 235.4   1.2  34132  289.11 0855.25
2009/04/23 09:13:51.5     -95    -79     78    124    146 230.4  35.5  34136  289.16 0855.25
2009/04/23 09:13:51.6    -111    -92     68    145    160 230.5  27.0  34132  289.11 0855.25
2009/04/23 09:13:51.7    -102   -109     65    150    163 223.2  24.6  34128  289.04 0855.25
2009/04/23 09:13:51.8    -137    -98     33    169    173 234.5  11.1  34146  289.33 0855.25
2009/04/23 09:13:51.9    -152    -66      7    167    168 246.4   2.5  34150  289.41 0855.25
2009/04/23 09:13:52.0    -137    -87    -52    163    172 237.5 -17.9  34152  289.43 0855.25
2009/04/23 09:13:52.1     -66   -104    -20    124    126 212.5  -9.4  34138  289.21 0855.25
2009/04/23 09:13:52.2     -38    -95     59    103    118 201.9  32.4  34140  289.23 0855.25
2009/04/23 09:13:52.3     -66    -24     79     71    106 250.0  52.7  34140  289.23 0855.26
2009/04/23 09:13:52.4     -97    -53     68    111    130 241.2  34.4  34138  289.21 0855.26
2009/04/23 09:13:52.5     -91    -77     57    120    132 230.0  27.1  34138  289.21 0855.26
2009/04/23 09:13:52.6    -138   -125     -5    187    188 228.0  -1.6  34152  289.43 0855.26
2009/04/23 09:13:52.7    -122   -101    -43    159    165 230.4 -15.2  34146  289.33 0855.26
2009/04/23 09:13:52.8     -55    -86    -46    103    112 212.5 -30.1  34148  289.36 0855.26
2009/04/23 09:13:52.9      -9   -105     -7    106    107 185.3  -4.1  34146  289.35 0855.26
2009/04/23 09:13:53.0      -5    -90     40     91     99 183.6  24.6  34146  289.33 0855.26
2009/04/23 09:13:53.1      -9    -79     58     80     98 187.1  39.7  34146  289.35 0855.26
2009/04/23 09:13:53.2     -22    -47     77     52     92 205.3  63.2  34148  289.36 0855.26
2009/04/23 09:13:53.3      -2    -42     58     43     72 183.6  60.5  34150  289.40 0855.26
2009/04/23 09:13:53.4       1    -72     82     73    109 179.1  53.7  34144  289.31 0855.26
2009/04/23 09:13:53.5     -20    -77     79     80    112 195.1  50.5  34138  289.21 0855.26
2009/04/23 09:13:53.6      29    -76     56     82     99 158.6  38.0  34138  289.21 0855.26
2009/04/23 09:13:53.7      23    -91     71     94    117 165.7  40.7  34140  289.24 0855.26
2009/04/23 09:13:53.8      23   -105     76    108    132 167.5  38.6  34126  289.01 0855.26
2009/04/23 09:13:53.9     -19   -100     66    102    121 191.1  36.0  34134  289.13 0855.26
2009/04/23 09:13:54.0     -77   -172     14    189    190 204.1   4.4  34136  289.16 0855.26
2009/04/23 09:13:54.1    -127   -218      7    253    254 210.3   1.8  34126  288.98 0855.26
2009/04/23 09:13:54.2    -102   -236     17    258    259 203.4   3.8  34126  289.00 0855.26
2009/04/23 09:13:54.3     -66   -264     10    273    274 194.2   2.1  34126  288.98 0855.25
2009/04/23 09:13:54.4     -66   -277     19    285    286 193.4   3.9  34122  288.92 0855.25
2009/04/23 09:13:54.5     -80   -272     16    284    285 196.5   3.3  34120  288.90 0855.25
2009/04/23 09:13:54.6     -94   -286      2    302    303 198.3   0.5  34124  288.95 0855.25
2009/04/23 09:13:54.7     -26   -281     -5    283    284 185.4  -1.1  34122  288.92 0855.25
2009/04/23 09:13:54.8     -44   -261     -3    265    266 189.7  -0.7  34124  288.97 0855.25
2009/04/23 09:13:54.9       0   -297     20    298    299 180.0   3.9  34124  288.95 0855.25
2009/04/23 09:13:55.0      43   -335      7    338    339 172.7   1.2  34122  288.93 0855.25
2009/04/23 09:13:55.1      -5   -324      5    325    326 180.9   1.0  34124  288.95 0855.25
2009/04/23 09:13:55.2     -53   -347     -6    352    353 188.8  -1.1  34126  288.99 0855.25
2009/04/23 09:13:55.3    -113   -275     60    298    305 202.5  11.4  34122  288.93 0855.25
2009/04/23 09:13:55.4     -42   -274    130    278    306 188.9  27.1  34126  288.98 0855.25
2009/04/23 09:13:55.5      14   -244    116    245    271 176.6  27.1  34146  289.32 0855.25
2009/04/23 09:13:55.6      40   -326     60    329    335 172.9  10.4  34122  288.94 0855.25
2009/04/23 09:13:55.7      62   -230     56    239    246 164.9  13.2  34124  288.95 0855.25
2009/04/23 09:13:55.8      67   -288     94    296    311 166.7  17.7  34124  288.97 0855.25
2009/04/23 09:13:55.9      50   -279     44    284    288 169.8   8.9  34126  288.98 0855.25
2009/04/23 09:13:56.0      88   -334     61    346    352 165.1  10.0  34124  288.96 0855.25
2009/04/23 09:13:56.1     146   -360    119    389    407 157.8  17.0  34126  288.98 0855.25
2009/04/23 09:13:56.2     127   -326    107    350    367 158.7  17.1  34126  288.99 0855.25
2009/04/23 09:13:56.3     106   -362    173    378    415 163.6  26.2  34124  288.95 0855.25
2009/04/23 09:13:56.4      46   -295    187    299    352 171.1  35.1  34132  289.11 0855.25
2009/04/23 09:13:56.5      49   -150    169    159    232 161.7  52.1  34128  289.04 0855.25
2009/04/23 09:13:56.6     179   -113    115    212    241 122.4  30.8  34124  288.96 0855.25
2009/04/23 09:13:56.7     154   -146    134    213    251 133.6  35.5  34126  288.98 0855.25
2009/04/23 09:13:56.8     149   -148    104    211    235 134.7  28.2  34124  288.96 0855.25
2009/04/23 09:13:56.9     131   -206    119    245    272 147.4  27.8  34124  288.95 0855.25
2009/04/23 09:13:57.0     111   -257    129    281    309 156.6  26.6  34126  288.98 0855.25
2009/04/23 09:13:57.1      24   -345    133    346    370 175.9  22.0  34128  289.04 0855.25
2009/04/23 09:13:57.2     -44   -237    130    242    274 190.7  30.3  34130  289.07 0855.25
2009/04/23 09:13:57.3      60   -265     60    272    279 167.1  12.6  34130  289.07 0855.23
2009/04/23 09:13:57.4      -2   -133    -17    134    136 180.9  -7.2  34134  289.14 0855.23
2009/04/23 09:13:57.5      45    -87     99     99    140 152.4  50.1  34136  289.18 0855.23
2009/04/23 09:13:57.6       7   -140     48    141    150 176.9  18.9  34136  289.18 0855.23
2009/04/23 09:13:57.7    -107   -128     54    167    176 219.9  18.1  34136  289.16 0855.23
2009/04/23 09:13:57.8     -53    -79    100     96    138 213.8  51.2  34132  289.09 0855.23
2009/04/23 09:13:57.9     -21    -64     57     68     88 198.5  44.3  34134  289.13 0855.23
2009/04/23 09:13:58.0       9    -53     70     54     88 170.2  57.9  34136  289.16 0855.23
2009/04/23 09:13:58.1      24    -58     65     63     90 157.3  50.7  34134  289.14 0855.23
2009/04/23 09:13:58.2       0    -43     69     44     81 179.1  64.7  34138  289.19 0855.23
2009/04/23 09:13:58.3      36   -116     62    122    136 162.6  29.2  34132  289.11 0855.23
2009/04/23 09:13:58.4      45   -178     29    184    187 165.7   9.0  34130  289.06 0855.23
2009/04/23 09:13:58.5      57   -196     24    205    207 163.7   6.9  34128  289.04 0855.23
2009/04/23 09:13:58.6      13   -238    -16    239    240 176.9  -3.9  34130  289.07 0855.23
2009/04/23 09:13:58.7      43   -214     -8    219    220 168.4  -2.2  34130  289.06 0855.23
2009/04/23 09:13:58.8      -1   -218    -71    219    231 180.5 -18.1  34128  289.04 0855.23
2009/04/23 09:13:58.9      11   -238    -59    239    247 177.3 -13.9  34128  289.02 0855.23
2009/04/23 09:13:59.0      13   -231     69    232    243 176.6  16.6  34136  289.17 0855.23
2009/04/23 09:13:59.1      80   -125    104    149    181 147.4  38.6  34134  289.14 0855.23
2009/04/23 09:13:59.2      59   -178    103    188    214 161.7  31.3  34130  289.06 0855.23
2009/04/23 09:13:59.3      60   -194    107    204    230 162.8  29.8  34130  289.06 0855.24
2009/04/23 09:13:59.4      64   -184     47    195    201 160.8  13.7  34110  288.72 0855.24
2009/04/23 09:13:59.5      51   -102     43    115    122 153.3  21.0  34106  288.67 0855.24
2009/04/23 09:13:59.6       5    -64     35     65     73 175.5  31.4  34108  288.70 0855.24
2009/04/23 09:13:59.7     -36    -96     45    103    112 200.9  25.1  34120  288.89 0855.24
2009/04/23 09:13:59.8     -35   -174     99    178    203 191.6  31.4  34116  288.84 0855.24
2009/04/23 09:13:59.9     -54   -157     59    167    178 199.2  19.4  34116  288.82 0855.24
2009/04/23 09:14:00.0     -59   -225    101    233    253 194.7  25.1  34118  288.87 0855.24
2009/04/23 09:14:00.1     -62   -183    137    194    237 198.7  38.6  34120  288.91 0855.24
2009/04/23 09:14:00.2     -63   -155    204    168    264 202.3  56.4  34122  288.93 0855.24
2009/04/23 09:14:00.3    -161   -151    123    221    252 226.9  31.6  34124  288.95 0855.24
2009/04/23 09:14:00.4    -140   -281     96    315    330 206.5  17.0  34122  288.92 0855.24
2009/04/23 09:14:00.5    -137   -276     78    309    319 206.5  14.3  34126  288.98 0855.24
2009/04/23 09:14:00.6    -127   -208     27    244    246 211.4   6.5  34130  289.07 0855.24
2009/04/23 09:14:00.7    -100   -221     31    243    246 204.5   7.5  34122  288.92 0855.24
2009/04/23 09:14:00.8     -50   -154     51    162    171 198.0  17.7  34120  288.89 0855.24
2009/04/23 09:14:00.9     -59   -144      1    156    157 202.3   0.5  34124  288.97 0855.24
2009/04/23 09:14:01.0     -58   -175      0    185    186 198.5   0.0  34122  288.94 0855.24
2009/04/23 09:14:01.1     -46   -193    -19    199    200 193.6  -5.6  34122  288.94 0855.24
2009/04/23 09:14:01.2     -15   -172    -26    173    176 185.1  -8.8  34120  288.91 0855.24
2009/04/23 09:14:01.3      -8   -181      6    182    183 182.7   2.1  34120  288.89 0855.24
2009/04/23 09:14:01.4       6   -187      9    188    189 178.0   2.8  34124  288.96 0855.24
2009/04/23 09:14:01.5      47   -182    -30    188    191 165.5  -9.3  34124  288.97 0855.24
2009/04/23 09:14:01.6      66   -157    -20    171    173 157.1  -6.9  34126  288.99 0855.24
2009/04/23 09:14:01.7     103   -110     53    151    161 136.8  19.4  34128  289.02 0855.24
2009/04/23 09:14:01.8     101    -89     47    136    145 131.4  19.2  34126  288.99 0855.24
2009/04/23 09:14:01.9     123    -21      5    125    126 100.1   2.3  34124  288.96 0855.24
2009/04/23 09:14:02.0     134     -2    -18    135    137  90.9  -7.7  34126  289.01 0855.24
2009/04/23 09:14:02.1     160     -8    -84    161    181  93.0 -34.2  34128  289.04 0855.24
2009/04/23 09:14:02.2     125     29    -86    129    155  76.7 -40.4  34128  289.02 0855.24
2009/04/23 09:14:02.3     114    -37    -13    120    121 108.2  -6.2  34128  289.04 0855.24
2009/04/23 09:14:02.4     139    -46      4    147    148 108.4   1.8  34128  289.04 0855.24
2009/04/23 09:14:02.5     118    -29    -16    122    124 104.2  -7.7  34132  289.09 0855.24
2009/04/23 09:14:02.6     136    -89    -25    163    165 123.3  -8.8  34128  289.04 0855.24
2009/04/23 09:14:02.7     107   -105     18    151    153 134.4   7.1  34128  289.02 0855.24
2009/04/23 09:14:02.8      68   -133     53    150    160 152.8  19.4  34124  288.97 0855.24
2009/04/23 09:14:02.9     187   -191    -44    268    272 135.7  -9.3  34126  288.98 0855.24
2009/04/23 09:14:03.0     143   -210    -16    255    256 145.8  -3.7  34120  288.90 0855.24
2009/04/23 09:14:03.1     242   -272     57    365    370 138.3   8.9  34108  288.69 0855.24
2009/04/23 09:14:03.2     237   -247     93    343    356 136.2  15.2  34110  288.74 0855.24
2009/04/23 09:14:03.3     202   -202     77    286    297 135.0  15.2  34112  288.76 0855.24
2009/04/23 09:14:03.4     200   -203     26    286    288 135.5   5.2  34120  288.90 0855.24
2009/04/23 09:14:03.5     174   -217    112    279    300 141.3  23.0  34114  288.78 0855.24
2009/04/23 09:14:03.6     188   -257    174    319    363 143.9  30.9  34102  288.60 0855.24
2009/04/23 09:14:03.7     125   -199    169    235    289 147.9  39.5  34116  288.83 0855.24
2009/04/23 09:14:03.8     124   -228    137    260    293 151.5  30.1  34118  288.87 0855.24
2009/04/23 09:14:03.9     127   -266     66    296    304 154.4  12.6  34126  288.98 0855.24
2009/04/23 09:14:04.0     130   -319     74    345    354 157.7  12.2  34120  288.89 0855.24
2009/04/23 09:14:04.1     101   -351     72    366    374 163.9  11.1  34118  288.86 0855.24
2009/04/23 09:14:04.2      61   -302     63    309    316 168.4  11.6  34124  288.95 0855.24
2009/04/23 09:14:04.3      69   -324     33    332    334 168.0   5.7  34126  288.99 0855.24
2009/04/23 09:14:04.4     130   -319     12    345    346 157.7   2.1  34120  288.91 0855.24
2009/04/23 09:14:04.5     137   -337     66    364    371 157.8  10.3  34112  288.77 0855.24
2009/04/23 09:14:04.7     206   -351     12    408    409 149.6   1.8  34122  288.92 0855.24
2009/04/23 09:14:04.7      62   -284     27    291    293 167.6   5.4  34108  288.70 0855.24
2009/04/23 09:14:04.9      45   -213     59    218    227 168.0  15.3  34118  288.86 0855.24
2009/04/23 09:14:05.0     108   -228     76    253    265 154.6  16.8  34118  288.87 0855.24
2009/04/23 09:14:05.1      75   -233      3    245    246 162.1   0.7  34122  288.92 0855.24
2009/04/23 09:14:05.2      60   -207      0    216    217 163.7   0.0  34120  288.89 0855.24
2009/04/23 09:14:05.3      36   -208     10    212    213 170.2   2.8  34122  288.92 0855.24
2009/04/23 09:14:05.4      -3   -171     41    172    177 181.1  13.5  34120  288.89 0855.26
2009/04/23 09:14:05.5     -80   -205     99    221    242 201.4  25.7  34116  288.83 0855.26
2009/04/23 09:14:05.6    -104   -221     71    245    256 205.2  16.3  34120  288.88 0855.26
2009/04/23 09:14:05.7     -77   -229     71    242    253 198.7  16.4  34118  288.87 0855.26
2009/04/23 09:14:05.8     -59   -219     82    227    242 195.2  19.9  34120  288.90 0855.26
2009/04/23 09:14:05.9       8   -228    164    229    281 177.8  39.1  34110  288.71 0855.26
2009/04/23 09:14:06.0     -17   -279    173    280    329 183.6  34.8  34108  288.70 0855.26
2009/04/23 09:14:06.1     -27   -290    150    292    328 185.3  29.3  34110  288.73 0855.26
2009/04/23 09:14:06.2      -3   -222    146    223    266 180.9  36.3  34106  288.66 0855.26
2009/04/23 09:14:06.3      33   -258    196    261    326 172.7  40.7  34106  288.66 0855.26
2009/04/23 09:14:06.4       6   -282    113    283    304 178.6  23.0  34106  288.66 0855.26
2009/04/23 09:14:06.5      77   -196     81    211    226 158.4  22.3  34110  288.72 0855.26
2009/04/23 09:14:06.6      35   -168     62    172    182 168.0  20.4  34116  288.82 0855.26
2009/04/23 09:14:06.7      -8   -231     42    232    236 182.0  10.3  34116  288.81 0855.26
2009/04/23 09:14:06.8      26   -256     12    258    259 174.2   2.8  34114  288.80 0855.26
2009/04/23 09:14:06.9       8   -245     27    246    248 178.0   6.5  34114  288.78 0855.26
2009/04/23 09:14:07.0      36   -227     50    230    236 170.9  12.4  34114  288.78 0855.26
2009/04/23 09:14:07.1      44   -221     77    226    239 168.5  18.9  34116  288.81 0855.26
2009/04/23 09:14:07.2      76   -210    116    224    252 160.0  29.5  34116  288.81 0855.26
2009/04/23 09:14:07.3      32   -217     91    220    238 171.5  23.8  34114  288.79 0855.26
2009/04/23 09:14:07.4      17   -232     98    233    252 175.6  24.1  34116  288.81 0855.27
2009/04/23 09:14:07.5      53   -230    105    237    259 166.9  25.3  34114  288.78 0855.27
2009/04/23 09:14:07.6      77   -259     95    271    288 163.3  19.4  34108  288.68 0855.27
2009/04/23 09:14:07.7      25   -200    100    202    225 172.7  28.0  34108  288.70 0855.27
2009/04/23 09:14:07.8     130    -82    128    154    200 122.4  44.1  34108  288.70 0855.27
2009/04/23 09:14:07.9     107    -68     65    127    142 122.4  29.3  34112  288.75 0855.27
2009/04/23 09:14:08.0      53   -100     31    114    119 151.9  15.3  34112  288.75 0855.27
2009/04/23 09:14:08.1     159    -96    110    186    216 121.1  33.5  34110  288.74 0855.27
2009/04/23 09:14:08.2      60   -128    146    142    203 154.7  50.4  34110  288.74 0855.27
2009/04/23 09:14:08.3      25   -124    172    127    213 168.4  60.3  34104  288.62 0855.27
2009/04/23 09:14:08.4      15   -165     90    166    188 174.7  31.0  34106  288.65 0855.27
2009/04/23 09:14:08.5      -8   -163    100    164    192 182.9  34.8  34106  288.67 0855.27
2009/04/23 09:14:08.6      41   -186     81    191    207 167.3  24.6  34108  288.69 0855.27
2009/04/23 09:14:08.7     136   -138    163    194    253 135.5  44.1  34104  288.61 0855.27
2009/04/23 09:14:08.8     135   -135    123    192    228 135.1  35.6  34106  288.65 0855.27
2009/04/23 09:14:08.9      70   -153    157    169    230 155.5  47.9  34100  288.57 0855.27
2009/04/23 09:14:09.0     108   -159    138    193    237 145.7  39.1  34102  288.58 0855.27
2009/04/23 09:14:09.1     136   -117    146    180    231 130.7  43.7  34106  288.65 0855.27
2009/04/23 09:14:09.2     101    -95    115    139    180 133.1  43.8  34102  288.60 0855.27
2009/04/23 09:14:09.3      95   -107    112    144    182 138.6  41.7  34106  288.65 0855.27
2009/04/23 09:14:09.4      76   -120    124    143    189 147.5  45.1  34104  288.64 0855.27
2009/04/23 09:14:09.5     -10   -130    135    131    188 184.4  50.9  34094  288.45 0855.27
2009/04/23 09:14:09.6     -31   -152    162    156    224 191.5  51.2  34096  288.48 0855.27
2009/04/23 09:14:09.7      83     -5    138     84    161  93.5  66.0  34102  288.60 0855.27
2009/04/23 09:14:09.8       7     -6    109     10    109 133.1  90.0  34098  288.52 0855.27
2009/04/23 09:14:09.9     -80    -51    113     95    147 237.5  56.3  34100  288.57 0855.27
2009/04/23 09:14:10.0    -113    -95     91    148    173 230.0  35.0  34100  288.55 0855.27
2009/04/23 09:14:10.1     -69   -123     82    142    163 209.4  32.9  34100  288.55 0855.27
2009/04/23 09:14:10.2     -51    -93    140    107    176 209.0  58.7  34096  288.50 0855.27
2009/04/23 09:14:10.3     -23   -100    112    103    152 193.4  52.2  34096  288.50 0855.27
2009/04/23 09:14:10.4      77    -14    109     79    134 100.6  60.5  34100  288.57 0855.27
2009/04/23 09:14:10.5     -28    -20     96     35    102 234.0  79.7  34100  288.55 0855.27
2009/04/23 09:14:10.6     -32    -50    106     60    121 212.5  68.3  34096  288.48 0855.27
2009/04/23 09:14:10.7      -6     -7     24     10     26 219.6  77.1  34100  288.55 0855.27
2009/04/23 09:14:10.8      57     55      2     80     81  46.0   1.8  34100  288.57 0855.27
2009/04/23 09:14:10.9      49     10    116     51    126  78.5  75.0  34098  288.52 0855.27
2009/04/23 09:14:11.0      67    -55    101     88    133 129.5  54.3  34096  288.50 0855.27
2009/04/23 09:14:11.1       7    -98    132     99    165 175.5  59.4  34096  288.48 0855.27
2009/04/23 09:14:11.2     -83   -113    149    141    205 216.5  52.0  34098  288.53 0855.27
2009/04/23 09:14:11.3    -113   -160     94    196    217 215.2  27.3  34100  288.55 0855.27
2009/04/23 09:14:11.4     -83   -147    111    169    202 209.4  36.3  34096  288.50 0855.27
2009/04/23 09:14:11.5    -186   -131     84    228    242 234.7  21.0  34100  288.54 0855.27
2009/04/23 09:14:11.6    -214    -54    104    221    244 255.8  27.1  34102  288.59 0855.27
2009/04/23 09:14:11.7    -154    -44     36    161    166 254.1  12.6  34096  288.50 0855.27
2009/04/23 09:14:11.8    -138    -55     46    149    157 248.3  17.3  34096  288.48 0855.27
2009/04/23 09:14:11.9    -191    -50    156    198    252 255.2  42.4  34096  288.49 0855.27
2009/04/23 09:14:12.0    -177     14    132    178    221 274.6  39.9  34096  288.48 0855.27
2009/04/23 09:14:12.1    -173     29    105    176    204 279.5  33.5  34096  288.50 0855.27
2009/04/23 09:14:12.2    -257      3     80    258    271 270.8  17.3  34100  288.54 0855.27
2009/04/23 09:14:12.3    -229     25     69    231    242 276.4  16.8  34100  288.54 0855.27
2009/04/23 09:14:12.4    -249     26     39    251    255 276.1   9.0  34100  288.56 0855.27
2009/04/23 09:14:12.5    -212    -76     74    226    238 250.3  18.1  34100  288.56 0855.27
2009/04/23 09:14:12.6    -108    -92    116    142    183 229.6  43.7  34098  288.52 0855.27
2009/04/23 09:14:12.7    -108      8    113    109    157 274.4  51.2  34098  288.52 0855.27
2009/04/23 09:14:12.8    -120      9    -41    121    127 274.4 -23.3  34098  288.52 0855.27
2009/04/23 09:14:12.9     -26     55     31     62     69 334.5  27.3  34098  288.53 0855.27
2009/04/23 09:14:13.0      31     -3     44     32     54  96.1  60.5  34098  288.52 0855.27
2009/04/23 09:14:13.1     -21   -102    116    105    156 191.6  52.7  34096  288.50 0855.27
2009/04/23 09:14:13.2      12    -35     99     38    106 161.3  78.2  34098  288.53 0855.27
2009/04/23 09:14:13.3      38   -124     91    130    158 163.0  38.4  34096  288.48 0855.27
2009/04/23 09:14:13.4      51   -141     71    151    166 159.9  27.1  34092  288.43 0855.27
2009/04/23 09:14:13.5       0   -191     61    192    202 180.2  17.7  34092  288.43 0855.27
2009/04/23 09:14:13.6     -39   -211     58    215    223 190.7  15.2  34088  288.36 0855.27
2009/04/23 09:14:13.7     -78   -192     -4    208    209 202.1  -1.3  34094  288.47 0855.27
2009/04/23 09:14:13.8    -109   -202     -5    230    231 208.5  -1.3  34098  288.53 0855.27
2009/04/23 09:14:13.9    -138   -134      9    193    194 225.8   2.8  34102  288.60 0855.27
2009/04/23 09:14:14.0    -126   -127      0    179    180 224.8   0.0  34108  288.70 0855.27
2009/04/23 09:14:14.1    -155    -61    -40    167    172 248.3 -13.7  34108  288.69 0855.27
2009/04/23 09:14:14.2    -227   -110     -9    253    254 244.0  -2.1  34098  288.53 0855.27
2009/04/23 09:14:14.3    -193    -70    -73    206    219 250.0 -19.7  34104  288.64 0855.27
2009/04/23 09:14:14.4    -187    -39    -57    192    200 258.1 -21.7  34106  288.65 0855.27
2009/04/23 09:14:14.5    -149    -76     -9    168    169 243.0  -3.3  34102  288.58 0855.27
2009/04/23 09:14:14.6    -150   -104     44    183    189 235.1  13.7  34098  288.52 0855.27
2009/04/23 09:14:14.7    -202    -73     10    216    217 250.0   2.8  34102  288.60 0855.27
2009/04/23 09:14:14.8    -165    -66    -32    178    181 248.0 -10.3  34106  288.65 0855.27
2009/04/23 09:14:14.9    -192    -88    -62    212    220 245.4 -21.2  34102  288.58 0855.27
2009/04/23 09:14:15.0    -194    -65   -147    205    252 251.4 -43.5  34100  288.56 0855.27
2009/04/23 09:14:15.1     -97   -155    -89    184    204 212.1 -31.8  34098  288.52 0855.27
2009/04/23 09:14:15.2    -168   -144     43    222    227 229.3  11.1  34092  288.43 0855.27
2009/04/23 09:14:15.3    -291   -160      2    333    334 241.1   0.5  34100  288.55 0855.27
2009/04/23 09:14:15.4    -328   -137    -86    356    367 247.3 -13.7  34096  288.50 0855.27
2009/04/23 09:14:15.5    -389   -193   -102    435    447 243.6 -13.3  34096  288.50 0855.27
2009/04/23 09:14:15.6    -333   -206    -85    392    402 238.3 -12.3  34102  288.60 0855.27
2009/04/23 09:14:15.7    -223   -245   -147    332    363 222.4 -30.0  34102  288.60 0855.27
2009/04/23 09:14:15.8     -56   -145    -54    156    165 201.4 -23.8  34102  288.60 0855.27
2009/04/23 09:14:15.9      35    -74     95     82    125 154.6  54.3  34100  288.55 0855.27
2009/04/23 09:14:16.0      -3     -7     83      8     83 205.4  90.0  34104  288.62 0855.27
2009/04/23 09:14:16.1      41    -74     74     85    112 150.6  45.4  34100  288.57 0855.27
2009/04/23 09:14:16.2      60   -170     40    181    186 160.4  12.6  34100  288.55 0855.27
2009/04/23 09:14:16.3     -10   -166     84    167    186 183.6  28.2  34096  288.48 0855.27
2009/04/23 09:14:16.4      12   -184    142    185    233 176.2  41.4  34096  288.50 0855.27
2009/04/23 09:14:16.5     -21   -201      7    203    204 186.0   2.1  34090  288.38 0855.27
2009/04/23 09:14:16.6     -69   -108      7    129    130 212.5   3.3  34096  288.48 0855.27
2009/04/23 09:14:16.7     -87   -100     11    133    134 221.0   4.9  34094  288.47 0855.27
2009/04/23 09:14:16.8     -54   -153      8    163    164 199.6   3.1  34094  288.47 0855.27
2009/04/23 09:14:16.9     -78   -155     42    174    180 206.7  13.7  34096  288.48 0855.27
2009/04/23 09:14:17.0    -105   -226     49    250    255 204.9  11.1  34094  288.46 0855.27
2009/04/23 09:14:17.1    -190   -217    -39    289    292 221.2  -7.7  34092  288.43 0855.27
2009/04/23 09:14:17.2    -179   -147    -82    232    247 230.5 -19.6  34092  288.43 0855.27
2009/04/23 09:14:17.3    -119   -105    -89    160    183 228.6 -35.8  34094  288.47 0855.27
2009/04/23 09:14:17.4     -23    -48      2     54     55 205.4   2.8  34096  288.50 0855.27
2009/04/23 09:14:17.5      26    -56     96     63    114 154.7  64.6  34094  288.47 0855.27
2009/04/23 09:14:17.6     -43   -229     99    234    254 190.7  24.1  34092  288.43 0855.27
2009/04/23 09:14:17.7     -68   -269    -29    278    280 194.2  -6.0  34094  288.44 0855.27
2009/04/23 09:14:17.8     -26   -331     21    333    334 184.6   3.7  34094  288.47 0855.27
2009/04/23 09:14:17.9     -32   -329     48    331    335 185.6   8.3  34094  288.45 0855.27
2009/04/23 09:14:18.0     -61   -317    124    323    345 190.9  22.2  34094  288.45 0855.27
2009/04/23 09:14:18.1     -54   -313     93    318    332 189.8  16.3  34088  288.34 0855.27
2009/04/23 09:14:18.2     -42   -293    126    297    322 188.2  24.3  34094  288.46 0855.27
2009/04/23 09:14:18.3     -67   -295    131    303    330 192.9  24.9  34094  288.44 0855.27
2009/04/23 09:14:18.4     -93   -306    149    320    352 196.9  26.9  34094  288.47 0855.26
2009/04/23 09:14:18.5     -87   -285    148    299    333 196.9  28.2  34094  288.46 0855.26
2009/04/23 09:14:18.6     -45   -375    167    378    413 187.0  25.3  34096  288.48 0855.26
2009/04/23 09:14:18.7       0   -377    152    378    407 180.0  23.1  34090  288.40 0855.26
2009/04/23 09:14:18.8     -36   -340    121    342    364 186.1  19.6  34094  288.47 0855.26
2009/04/23 09:14:18.9    -109   -382     85    398    408 196.0  12.1  34096  288.48 0855.26
2009/04/23 09:14:19.0    -180   -306    -19    356    357 210.5  -3.1  34100  288.57 0855.26
2009/04/23 09:14:19.1    -189   -236    -33    303    305 218.8  -6.2  34098  288.53 0855.26
2009/04/23 09:14:19.2    -214   -250    -80    330    340 220.5 -13.7  34096  288.50 0855.26
2009/04/23 09:14:19.3    -158   -223    -35    274    277 215.4  -7.3  34098  288.53 0855.26
2009/04/23 09:14:19.4     -60   -202    -58    211    220 196.5 -15.5  34098  288.52 0855.26
2009/04/23 09:14:19.5     -86   -232    -40    248    252 200.3  -9.3  34096  288.49 0855.26
2009/04/23 09:14:19.6     -26   -269     27    271    273 185.6   5.7  34098  288.51 0855.26
2009/04/23 09:14:19.7     -58   -235     71    243    254 194.0  16.3  34094  288.44 0855.26
2009/04/23 09:14:19.8     -16   -333     71    334    342 182.9  12.0  34096  288.50 0855.26
2009/04/23 09:14:19.9      22   -346     58    347    352 176.2   9.5  34096  288.50 0855.26
2009/04/23 09:14:20.0       5   -322     84    323    334 179.0  14.7  34094  288.44 0855.26
2009/04/23 09:14:20.1      32   -347     17    349    350 174.6   2.9  34094  288.47 0855.26
2009/04/23 09:14:20.2     -11   -324     -3    325    326 182.0  -0.6  34092  288.41 0855.26
2009/04/23 09:14:20.3      -7   -244     86    245    259 181.8  20.0  34096  288.48 0855.26
2009/04/23 09:14:20.4      16   -266     13    267    268 176.4   2.9  34094  288.44 0855.26
2009/04/23 09:14:20.5      44   -202    -29    207    210 167.7  -8.0  34088  288.36 0855.26
2009/04/23 09:14:20.6      42   -129      6    136    137 161.7   2.9  34094  288.45 0855.26
2009/04/23 09:14:20.7      11   -152     53    153    163 175.6  19.2  34096  288.50 0855.26
2009/04/23 09:14:20.8      13   -171     57    172    182 175.5  18.4  34098  288.52 0855.26
2009/04/23 09:14:20.9      40   -186     30    191    194 167.7   9.0  34094  288.47 0855.26
2009/04/23 09:14:21.0       3   -231     49    232    238 179.1  12.1  34094  288.46 0855.26
2009/04/23 09:14:21.1      71   -217    -59    229    237 161.7 -14.5  34094  288.46 0855.26
2009/04/23 09:14:21.2      20   -175    -27    177    180 173.3  -8.8  34096  288.50 0855.26
2009/04/23 09:14:21.3      51   -147     48    156    164 160.8  17.3  34094  288.45 0855.26
2009/04/23 09:14:21.4     128   -154     21    201    203 140.4   6.1  34096  288.48 0855.26
2009/04/23 09:14:21.5     172   -167     38    240    244 134.2   9.0  34094  288.46 0855.26
2009/04/23 09:14:21.6     124   -193     34    230    233 147.3   8.5  34094  288.47 0855.26
2009/04/23 09:14:21.7     122   -160     47    202    208 142.8  13.2  34094  288.45 0855.26
2009/04/23 09:14:21.8     176   -182     88    254    269 136.1  19.2  34096  288.49 0855.26
2009/04/23 09:14:21.9     167   -202     77    263    275 140.4  16.3  34096  288.48 0855.26
2009/04/23 09:14:22.0     166   -164     80    234    248 134.7  18.9  34094  288.46 0855.26
2009/04/23 09:14:22.1     125   -127    107    179    208 135.5  33.7  34094  288.47 0855.26
2009/04/23 09:14:22.2     126   -131     79    182    198 136.1  24.9  34096  288.50 0855.26
2009/04/23 09:14:22.3     139   -139    107    197    224 134.9  31.3  34096  288.48 0855.26
2009/04/23 09:14:22.4     127   -128     93    181    203 135.1  29.3  34096  288.50 0855.27
2009/04/23 09:14:22.5      94   -103    129    140    190 137.7  47.7  34096  288.48 0855.27
2009/04/23 09:14:22.6     108   -101    105    149    182 133.1  38.6  34098  288.53 0855.27
2009/04/23 09:14:22.7      68   -144    148    160    217 154.7  47.9  34096  288.48 0855.27
2009/04/23 09:14:22.8      41   -172    123    177    215 166.6  38.6  34096  288.48 0855.27
2009/04/23 09:14:22.9       0   -182    147    183    234 180.0  42.8  34094  288.47 0855.27
2009/04/23 09:14:23.0      18   -183    137    184    229 174.2  40.1  34096  288.50 0855.27
2009/04/23 09:14:23.1      -2   -154    118    155    194 181.0  41.2  34098  288.52 0855.27
2009/04/23 09:14:23.2      28   -142    132    145    196 168.5  47.1  34100  288.55 0855.27
2009/04/23 09:14:23.3      21   -151    123    153    196 171.9  43.3  34094  288.47 0855.27
2009/04/23 09:14:23.4      -6   -163    115    164    200 182.2  38.6  34098  288.53 0855.27
2009/04/23 09:14:23.5      17   -174    105    175    204 174.4  34.0  34100  288.55 0855.27
2009/04/23 09:14:23.6      27   -172    111    175    207 171.1  35.5  34098  288.53 0855.27
2009/04/23 09:14:23.7      43   -157     96    163    189 164.6  33.1  34098  288.52 0855.27
2009/04/23 09:14:23.8      52   -161    109    170    201 162.2  35.6  34100  288.57 0855.27
2009/04/23 09:14:23.9      49   -185    116    192    224 165.1  34.2  34102  288.58 0855.27
2009/04/23 09:14:24.0      54   -171    139    180    227 162.4  41.7  34102  288.60 0855.27
2009/04/23 09:14:24.1      37   -182    124    186    223 168.5  36.7  34104  288.64 0855.27
2009/04/23 09:14:24.2       9   -165    149    166    223 176.9  46.9  34100  288.55 0855.27
2009/04/23 09:14:24.3      58   -245    149    252    292 166.6  33.4  34106  288.65 0855.27
2009/04/23 09:14:24.4      49   -232    136    238    274 168.0  32.3  34106  288.65 0855.26
2009/04/23 09:14:24.5      33   -243    134    246    280 172.2  31.0  34106  288.66 0855.26
2009/04/23 09:14:24.6      50   -211    130    217    252 166.6  34.0  34106  288.66 0855.26
2009/04/23 09:14:24.7      62   -225    121    234    263 164.4  29.5  34104  288.61 0855.26
2009/04/23 09:14:24.8      23   -220     92    222    240 174.0  24.1  34106  288.66 0855.26
2009/04/23 09:14:24.9      42   -224     81    229    242 169.3  20.0  34106  288.66 0855.26
2009/04/23 09:14:25.0      33   -241     86    244    259 172.0  19.4  34106  288.65 0855.26
2009/04/23 09:14:25.1      46   -228     81    233    247 168.4  19.2  34104  288.63 0855.26
2009/04/23 09:14:25.2      42   -245    109    249    271 170.2  25.1  34104  288.61 0855.26
2009/04/23 09:14:25.3      51   -218    123    224    255 166.7  31.3  34104  288.63 0855.26
2009/04/23 09:14:25.4      52   -207    125    214    247 165.7  33.1  34104  288.61 0855.26
2009/04/23 09:14:25.5      -5   -218    130    219    254 181.4  33.5  34106  288.66 0855.26
2009/04/23 09:14:25.6     -16   -165    106    166    196 185.6  35.6  34106  288.65 0855.26
2009/04/23 09:14:25.7     -23   -196     77    198    212 186.9  22.3  34104  288.62 0855.26
2009/04/23 09:14:25.8     -33   -167     58    171    181 191.3  18.9  34106  288.65 0855.26
2009/04/23 09:14:25.9       0   -205    113    206    234 179.8  31.0  34104  288.64 0855.26
2009/04/23 09:14:26.0      -3   -179    146    180    231 181.1  43.7  34106  288.67 0855.26
2009/04/23 09:14:26.1     -15   -185    118    186    220 184.7  35.5  34106  288.65 0855.26
2009/04/23 09:14:26.2      11   -174    127    175    216 176.2  39.7  34110  288.74 0855.26
2009/04/23 09:14:26.3     -14   -190    143    191    238 184.5  40.7  34108  288.69 0855.26
2009/04/23 09:14:26.4     -22   -209    136    211    251 186.3  35.6  34108  288.68 0855.26
2009/04/23 09:14:26.5     -26   -260    160    262    306 185.8  34.4  34104  288.61 0855.26
2009/04/23 09:14:26.6     -94   -251     82    269    282 200.5  17.1  34112  288.76 0855.26
2009/04/23 09:14:26.7    -107   -233     10    257    258 204.7   2.3  34112  288.75 0855.26
2009/04/23 09:14:26.8     -33   -158     10    162    163 191.8   3.8  34110  288.72 0855.26
2009/04/23 09:14:26.9     -75   -102    -16    127    129 216.5  -7.2  34110  288.74 0855.26
2009/04/23 09:14:27.0    -134   -108      3    173    174 231.1   1.0  34116  288.82 0855.26
2009/04/23 09:14:27.1    -165   -136     94    214    233 230.5  25.2  34118  288.87 0855.26
2009/04/23 09:14:27.2    -139   -134    114    194    225 226.0  33.4  34108  288.70 0855.26
2009/04/23 09:14:27.3     -76   -148    171    167    239 207.2  50.7  34108  288.69 0855.26
2009/04/23 09:14:27.4     -11   -149    186    150    238 184.4  57.1  34110  288.74 0855.26
2009/04/23 09:14:27.5     -15    -43    163     46    169 200.0  84.1  34108  288.70 0855.26
2009/04/23 09:14:27.6       7    -22    130     24    132 161.7  90.0  34116  288.84 0855.26
2009/04/23 09:14:27.7      55   -180    134    189    231 163.1  38.8  34106  288.65 0855.26
2009/04/23 09:14:27.8      29   -172    130    175    218 170.4  40.1  34106  288.65 0855.26
2009/04/23 09:14:27.9      12   -118    160    119    199 173.8  59.8  34108  288.70 0855.26
2009/04/23 09:14:28.0     -22   -213    172    215    275 186.0  42.7  34104  288.61 0855.26
2009/04/23 09:14:28.1     -60   -204    156    213    264 196.5  39.7  34106  288.66 0855.26
2009/04/23 09:14:28.2       3   -184    142    185    233 178.9  41.4  34106  288.65 0855.26
2009/04/23 09:14:28.3      -3   -143    131    144    194 181.4  47.1  34104  288.64 0855.26
2009/04/23 09:14:28.4      16    -86     85     88    122 168.9  49.4  34106  288.65 0855.27
2009/04/23 09:14:28.5      78    -10     39     79     88  97.9  28.2  34108  288.70 0855.27
2009/04/23 09:14:28.6     -12    -37     53     40     66 198.7  59.4  34106  288.67 0855.27
2009/04/23 09:14:28.7     -16    -96    167     98    193 189.8  66.8  34108  288.70 0855.27
2009/04/23 09:14:28.8      -4    -12     84     13     85 198.7  90.0  34110  288.74 0855.27
2009/04/23 09:14:28.9       0   -122     82    123    147 180.0  36.5  34104  288.64 0855.27
2009/04/23 09:14:29.0      -9   -125    144    126    191 184.5  54.3  34106  288.65 0855.27
2009/04/23 09:14:29.1     -31   -100    131    105    167 197.4  57.1  34106  288.65 0855.27
2009/04/23 09:14:29.2     -59   -115    132    130    185 207.2  49.9  34104  288.64 0855.27
2009/04/23 09:14:29.3     -76   -103    116    129    173 216.5  46.9  34106  288.65 0855.27
2009/04/23 09:14:29.4     -81   -134    158    157    222 211.2  50.1  34104  288.62 0855.27
2009/04/23 09:14:29.5     -86   -119    128    148    195 216.0  45.6  34110  288.74 0855.27
2009/04/23 09:14:29.6    -128   -125     65    180    191 225.6  20.2  34110  288.72 0855.27
2009/04/23 09:14:29.7     -73   -115    102    137    170 212.5  40.4  34108  288.69 0855.27
2009/04/23 09:14:29.8     -77   -144    117    164    201 208.1  39.1  34108  288.70 0855.27
2009/04/23 09:14:29.9      32    -76     74     83    111 156.8  46.4  34112  288.77 0855.27
2009/04/23 09:14:30.0      56    -16     93     59    110 105.9  64.7  34108  288.70 0855.27
2009/04/23 09:14:30.1     -17    -64     96     67    117 195.1  62.1  34108  288.70 0855.27
2009/04/23 09:14:30.2      13    -25     95     29     99 152.8  82.3  34118  288.86 0855.27
2009/04/23 09:14:30.3     -21   -112     95    115    149 190.7  43.7  34114  288.80 0855.27
2009/04/23 09:14:30.4      11    -79    100     80    128 172.0  56.4  34110  288.74 0855.28
2009/04/23 09:14:30.5      -6   -127    129    128    181 182.7  50.1  34108  288.70 0855.28
2009/04/23 09:14:30.6      -8   -146    149    147    209 183.1  50.1  34108  288.69 0855.28
2009/04/23 09:14:30.7     -22   -145    190    147    240 188.9  58.5  34106  288.67 0855.28
2009/04/23 09:14:30.8     -57   -170    148    180    233 198.5  43.7  34106  288.65 0855.28
2009/04/23 09:14:30.9      -6   -144    162    145    217 182.7  53.5  34108  288.70 0855.28
2009/04/23 09:14:31.0      -1   -141    148    142    205 180.5  50.9  34106  288.67 0855.28
2009/04/23 09:14:31.2     -32   -167    181    171    249 191.1  51.6  34106  288.67 0855.28
2009/04/23 09:14:31.2     -20   -153    185    155    241 187.6  55.6  34108  288.70 0855.28
2009/04/23 09:14:31.4     -20   -143    153    145    210 188.0  51.6  34110  288.72 0855.28
2009/04/23 09:14:31.5      -9   -147    168    148    223 183.6  54.2  34106  288.65 0855.28
2009/04/23 09:14:31.6      16   -185    123    186    222 174.9  36.3  34106  288.65 0855.28
2009/04/23 09:14:31.7      15   -199    153    200    251 175.6  41.2  34106  288.65 0855.28
2009/04/23 09:14:31.8      17   -186    154    187    242 174.7  43.7  34102  288.60 0855.28
2009/04/23 09:14:31.9     103   -183    153    211    260 150.6  39.5  34108  288.68 0855.28
2009/04/23 09:14:32.0     109   -192    107    221    245 150.4  27.4  34106  288.65 0855.28
2009/04/23 09:14:32.1      69   -152    161    168    232 155.5  48.7  34112  288.75 0855.28
2009/04/23 09:14:32.2      95   -172     90    197    216 151.0  26.2  34106  288.67 0855.28
2009/04/23 09:14:32.3      68   -195    133    207    246 160.8  35.6  34106  288.65 0855.28
2009/04/23 09:14:32.4      46   -198    127    204    240 166.7  34.8  34108  288.69 0855.28
2009/04/23 09:14:32.5      30   -149    123    153    196 168.4  43.3  34108  288.69 0855.27
2009/04/23 09:14:32.6      68   -177    143    190    237 158.8  40.7  34108  288.69 0855.27
2009/04/23 09:14:32.7      63   -190    137    201    243 161.7  37.6  34106  288.67 0855.27
2009/04/23 09:14:32.8     105   -162    123    194    229 147.0  35.5  34110  288.74 0855.27
2009/04/23 09:14:32.9      90   -162    117    186    219 151.0  35.5  34110  288.72 0855.27
2009/04/23 09:14:33.0      46   -136    118    144    186 161.3  43.7  34108  288.70 0855.27
2009/04/23 09:14:33.1      52   -125    118    136    180 157.3  45.6  34106  288.67 0855.27
2009/04/23 09:14:33.2      47   -125    100    134    167 159.1  40.9  34108  288.70 0855.27
2009/04/23 09:14:33.3       0   -152     68    153    167 180.4  25.7  34112  288.75 0855.27
2009/04/23 09:14:33.4      -6   -134     50    135    143 182.7  21.0  34110  288.72 0855.27
2009/04/23 09:14:33.5      11   -120     69    121    139 174.7  31.9  34108  288.70 0855.27
2009/04/23 09:14:33.6     -21   -128    104    130    166 189.7  43.3  34110  288.72 0855.27
2009/04/23 09:14:33.7     -82   -182    119    200    232 204.3  33.7  34112  288.77 0855.27
2009/04/23 09:14:33.8    -102   -201    138    226    264 207.1  34.4  34110  288.73 0855.27
2009/04/23 09:14:33.9      13   -201    170    202    264 176.2  44.1  34114  288.78 0855.27
2009/04/23 09:14:34.0       0   -167    188    168    252 179.8  53.5  34110  288.72 0855.27
2009/04/23 09:14:34.1     -27   -190    139    192    237 188.1  39.5  34114  288.79 0855.27
2009/04/23 09:14:34.2     -38   -183     78    187    202 191.8  23.8  34112  288.77 0855.27
2009/04/23 09:14:34.3     -28   -133     64    136    150 192.0  27.1  34112  288.77 0855.27
2009/04/23 09:14:34.4     -42   -141     81    148    168 196.5  31.0  34114  288.79 0855.27
2009/04/23 09:14:34.5     -25    -86    111     90    142 196.5  56.4  34116  288.82 0855.26
2009/04/23 09:14:34.6    -105    -31    139    110    177 253.2  57.5  34118  288.87 0855.26
2009/04/23 09:14:34.7    -132    -43     66    139    153 251.8  27.2  34124  288.96 0855.26
2009/04/23 09:14:34.8     -49   -106     81    117    142 204.9  38.0  34120  288.91 0855.26
2009/04/23 09:14:34.9     -62    -95     39    114    121 213.4  19.2  34120  288.89 0855.26
2009/04/23 09:14:35.0      55    -65     65     86    107 139.5  40.7  34112  288.75 0855.26
2009/04/23 09:14:35.1      -4    -85     60     86    104 183.1  38.6  34110  288.74 0855.26
2009/04/23 09:14:35.2     -30    -55     51     63     81 209.0  43.3  34114  288.79 0855.26
2009/04/23 09:14:35.3      -6    -74      3     75     76 185.3   2.9  34110  288.74 0855.26
2009/04/23 09:14:35.4      51   -119     70    130    147 156.8  31.3  34112  288.75 0855.26
2009/04/23 09:14:35.5      19    -96    109     99    147 168.4  52.7  34110  288.72 0855.26
2009/04/23 09:14:35.6      18    -54     93     57    109 161.5  65.1  34118  288.87 0855.26
2009/04/23 09:14:35.7      49     50     66     71     96  44.1  48.5  34128  289.02 0855.26
2009/04/23 09:14:35.8      18     49     32     53     61  20.0  34.4  34128  289.02 0855.26
2009/04/23 09:14:35.9      90    -47     30    102    107 118.0  16.8  34116  288.82 0855.26
2009/04/23 09:14:36.0      51     65     60     83    102  38.3  39.7  34114  288.79 0855.26
2009/04/23 09:14:36.1       0    -20     74     21     76 182.7  83.9  34118  288.86 0855.26
2009/04/23 09:14:36.2      14    -65     82     67    105 167.5  56.4  34116  288.82 0855.26
2009/04/23 09:14:36.3      65    -56     76     86    114 130.9  46.4  34114  288.80 0855.26
2009/04/23 09:14:36.4     -11    -72     77     73    106 188.9  51.6  34118  288.87 0855.26
2009/04/23 09:14:36.5      23    -26     58     35     67 138.6  65.7  34118  288.86 0855.26
2009/04/23 09:14:36.6      72    -23     65     76    100 108.2  44.8  34116  288.84 0855.26
2009/04/23 09:14:36.7      76    -55     62     95    113 126.0  35.6  34118  288.87 0855.26
2009/04/23 09:14:36.8      27    -40     74     49     88 145.7  63.6  34120  288.89 0855.26
2009/04/23 09:14:36.9      30    -10     22     32     38 110.0  37.6  34122  288.92 0855.26
2009/04/23 09:14:37.0       4    -14     -2     15     16 161.3  -7.2  34126  288.99 0855.26
2009/04/23 09:14:37.1     -41    -27     -1     50     51 236.7  -1.3  34130  289.08 0855.26
2009/04/23 09:14:37.2     -60    -24    -30     65     71 248.2 -31.5  34136  289.18 0855.26
2009/04/23 09:14:37.3    -106    -34    -47    112    121 251.8 -28.5  34144  289.30 0855.26
2009/04/23 09:14:37.4     -86    -62    -39    107    113 234.1 -24.4  34150  289.40 0855.26
2009/04/23 09:14:37.5     -65    -90     22    112    115 216.0  11.1  34152  289.43 0855.26
2009/04/23 09:14:37.6     -72    -99     45    123    130 216.1  21.0  34160  289.57 0855.26
2009/04/23 09:14:37.7     -67   -106     64    126    141 212.5  29.2  34152  289.45 0855.26
2009/04/23 09:14:37.8     -86    -56     37    103    109 236.7  20.0  34148  289.36 0855.26
2009/04/23 09:14:37.9     -82    -83     30    117    121 224.5  14.7  34150  289.40 0855.26
2009/04/23 09:14:38.0     -43   -111     61    120    134 201.4  29.2  34138  289.19 0855.26
2009/04/23 09:14:38.1     -63   -108    117    126    171 210.3  47.9  34128  289.02 0855.26
2009/04/23 09:14:38.2      19    -19    117     27    120 134.9  87.0  34146  289.35 0855.26
2009/04/23 09:14:38.3     -28    -47    112     55    124 210.7  71.9  34136  289.18 0855.26
2009/04/23 09:14:38.4     -76    -81     87    112    141 223.2  41.7  34132  289.09 0855.26
2009/04/23 09:14:38.5     -33    -80     56     87    103 202.3  35.6  34128  289.04 0855.25
2009/04/23 09:14:38.6     -10    -81     97     82    127 187.6  55.4  34120  288.89 0855.25
2009/04/23 09:14:38.7      -9    -72     57     73     92 187.1  42.7  34124  288.96 0855.25
2009/04/23 09:14:38.8       4    -94     65     95    115 177.3  37.6  34120  288.89 0855.25
2009/04/23 09:14:38.9     -42    -97     86    106    136 203.6  43.7  34118  288.87 0855.25
2009/04/23 09:14:39.0     -85    -29    116     90    146 250.9  57.9  34136  289.16 0855.25
2009/04/23 09:14:39.1    -122    -55     80    134    156 245.6  34.0  34148  289.36 0855.25
2009/04/23 09:14:39.2    -136    -22     48    138    147 260.8  19.2  34146  289.33 0855.25
2009/04/23 09:14:39.3    -153     -9     19    154    156 266.5   7.1  34160  289.58 0855.25
2009/04/23 09:14:39.4     -94    -31     34    100    106 251.4  19.2  34148  289.36 0855.25
2009/04/23 09:14:39.5     -43   -132     85    140    163 198.3  34.2  34146  289.35 0855.25
2009/04/23 09:14:39.6     -58   -125     97    138    168 204.9  38.6  34112  288.77 0855.25
2009/04/23 09:14:39.7     -60   -179    168    189    252 198.7  46.4  34114  288.78 0855.25
2009/04/23 09:14:39.8     -55   -189    157    197    251 196.3  42.7  34112  288.76 0855.25
2009/04/23 09:14:39.9     -34   -174     98    178    203 191.1  31.4  34110  288.72 0855.25
2009/04/23 09:14:40.0      41    -64    108     77    132 147.5  61.1  34114  288.80 0855.25
2009/04/23 09:14:40.1      81    -39    134     90    161 115.8  62.8  34118  288.86 0855.25
2009/04/23 09:14:40.2      46     -7    103     47    113  98.8  73.5  34118  288.87 0855.25
2009/04/23 09:14:40.3    -151   -151    114    214    242 225.0  30.3  34116  288.81 0855.25
2009/04/23 09:14:40.4    -101   -168    101    197    221 211.0  29.3  34114  288.79 0855.25
2009/04/23 09:14:40.5    -117   -124     90    171    193 223.2  30.1  34114  288.79 0855.25
2009/04/23 09:14:40.6    -104   -159    142    191    238 213.2  40.4  34118  288.86 0855.25
2009/04/23 09:14:40.7    -115   -180    171    214    273 212.6  42.7  34118  288.85 0855.25
2009/04/23 09:14:40.8     -76   -137    138    157    209 209.0  45.8  34118  288.87 0855.25
2009/04/23 09:14:40.9     -64    -92     97    113    148 214.7  44.8  34118  288.87 0855.25
2009/04/23 09:14:41.0      -9   -125    153    126    198 184.5  56.4  34120  288.89 0855.25
2009/04/23 09:14:41.1      29    -87    117     92    148 161.5  57.9  34124  288.97 0855.25
2009/04/23 09:14:41.2      21   -106    126    109    166 168.9  54.8  34120  288.89 0855.25
2009/04/23 09:14:41.3      98   -148     88    178    198 146.4  28.5  34118  288.86 0855.25
2009/04/23 09:14:41.4      69   -178    181    191    263 158.8  48.5  34120  288.88 0855.25
2009/04/23 09:14:41.5       8   -275    125    276    302 178.2  26.2  34120  288.90 0855.26
2009/04/23 09:14:41.6      18   -243    175    244    300 175.6  39.3  34120  288.90 0855.26
2009/04/23 09:14:41.7      77   -320    158    330    365 166.4  27.3  34120  288.88 0855.26
2009/04/23 09:14:41.8      34   -231    105    234    256 171.5  25.9  34124  288.95 0855.26
2009/04/23 09:14:41.9      33   -215    107    218    242 171.3  28.2  34122  288.93 0855.26
2009/04/23 09:14:42.0      24   -221     76    223    236 173.8  18.9  34122  288.92 0855.26
2009/04/23 09:14:42.1      -9   -191     -7    192    193 182.7  -2.2  34118  288.87 0855.26
2009/04/23 09:14:42.2     -33   -206     28    209    211 189.3   7.8  34122  288.94 0855.26
2009/04/23 09:14:42.3     -15   -193     54    194    202 184.7  15.8  34120  288.89 0855.26
2009/04/23 09:14:42.4       0   -235     50    236    242 180.2  12.1  34114  288.78 0855.26
2009/04/23 09:14:42.5      66   -267     83    276    289 166.0  16.8  34110  288.73 0855.26
2009/04/23 09:14:42.6     129   -295    122    323    345 156.4  21.6  34116  288.82 0855.26
2009/04/23 09:14:42.7     183   -282     94    337    351 146.9  15.7  34116  288.84 0855.26
2009/04/23 09:14:42.8     179   -292     58    343    348 148.5   9.7  34120  288.88 0855.26
2009/04/23 09:14:42.9     180   -192    -59    264    271 136.8 -12.6  34114  288.80 0855.26
2009/04/23 09:14:43.0     133   -171    -64    217    227 142.2 -16.6  34116  288.84 0855.26
2009/04/23 09:14:43.1      42   -171    -61    177    188 166.0 -19.1  34118  288.86 0855.26
2009/04/23 09:14:43.2     142   -195     -1    242    243 144.0  -0.3  34118  288.87 0855.26
2009/04/23 09:14:43.3     115   -166     70    203    215 145.3  19.2  34118  288.86 0855.26
2009/04/23 09:14:43.4      76   -130     89    151    175 149.7  33.7  34120  288.91 0855.26
2009/04/23 09:14:43.5    -137   -104     82    173    191 232.9  27.1  34120  288.91 0855.26
2009/04/23 09:14:43.6    -163    -63     63    176    186 248.7  20.4  34124  288.96 0855.26
2009/04/23 09:14:43.7    -159    -55     14    169    170 250.9   4.9  34122  288.94 0855.26
2009/04/23 09:14:43.8     -90    -29      4     95     96 251.8   2.9  34124  288.96 0855.26
2009/04/23 09:14:43.9      16     -7     18     18     25 115.3  50.1  34124  288.96 0855.26
2009/04/23 09:14:44.0      37    -58    -20     69     71 147.4 -20.7  34124  288.96 0855.26
2009/04/23 09:14:44.1      89    -43      7     99    100 115.8   4.4  34122  288.94 0855.26
2009/04/23 09:14:44.2      51    -61     34     80     86 140.4  24.1  34124  288.96 0855.26
2009/04/23 09:14:44.3     -34   -110     79    116    140 197.4  37.6  34126  289.01 0855.26
2009/04/23 09:14:44.4       7   -158     89    159    182 177.3  31.9  34128  289.02 0855.26
2009/04/23 09:14:44.5      22   -184     59    186    196 172.9  17.7  34124  288.97 0855.26
2009/04/23 09:14:44.6     -37   -165    -29    170    173 192.9  -9.8  34124  288.96 0855.26
2009/04/23 09:14:44.7     -73   -195     26    209    211 200.7   7.2  34122  288.94 0855.26
2009/04/23 09:14:44.8     -40   -192     74    197    210 192.0  21.0  34128  289.04 0855.26
2009/04/23 09:14:44.9    -106   -206    105    232    254 207.2  26.2  34126  289.00 0855.26
2009/04/23 09:14:45.0      -3   -242    124    243    272 180.9  29.2  34128  289.03 0855.26
2009/04/23 09:14:45.1    -125   -226     31    259    261 209.0   6.9  34126  288.98 0855.26
2009/04/23 09:14:45.2     -83   -228     44    243    248 200.1  10.3  34130  289.05 0855.26
2009/04/23 09:14:45.3     -51   -192     79    199    214 195.1  22.8  34128  289.04 0855.26
2009/04/23 09:14:45.4     -39   -129    102    135    169 196.9  40.9  34128  289.02 0855.26
2009/04/23 09:14:45.5      -7   -114    128    115    172 183.6  53.5  34124  288.97 0855.26
2009/04/23 09:14:45.6     -52   -193    132    201    240 195.2  36.5  34120  288.91 0855.26
2009/04/23 09:14:45.7     -45   -162    113    169    203 195.6  37.0  34118  288.87 0855.26
2009/04/23 09:14:45.8     -59   -193    100    203    226 197.2  27.8  34116  288.82 0855.26
2009/04/23 09:14:45.9     -98   -181     77    206    219 208.5  21.3  34118  288.86 0855.26
2009/04/23 09:14:46.0     -91   -180     82    202    218 207.0  23.1  34120  288.89 0855.26
2009/04/23 09:14:46.1    -107    -39     61    114    129 250.0  30.3  34124  288.97 0855.26
2009/04/23 09:14:46.2    -121    -70      4    141    142 239.8   1.8  34126  288.99 0855.26
2009/04/23 09:14:46.3    -197   -111     14    227    228 240.7   3.6  34124  288.96 0855.26
2009/04/23 09:14:46.4    -223    -17     62    224    233 265.4  15.6  34126  288.99 0855.26
2009/04/23 09:14:46.5    -174      0     91    175    197 269.9  29.5  34126  288.99 0855.26
2009/04/23 09:14:46.6    -197     16     89    198    217 274.8  25.7  34142  289.26 0855.26
2009/04/23 09:14:46.7    -205     17     53    206    213 275.0  14.5  34154  289.46 0855.26
2009/04/23 09:14:46.8    -161     70     50    176    184 293.7  16.0  34176  289.85 0855.26
2009/04/23 09:14:46.9    -164     54     59    173    183 288.4  18.9  34198  290.23 0855.26
2009/04/23 09:14:47.0    -144    118     28    187    190 309.5   8.5  34200  290.26 0855.26
2009/04/23 09:14:47.1     -10     85     62     86    106 352.9  39.5  34204  290.31 0855.26
2009/04/23 09:14:47.2     -43     97     81    107    134 335.9  41.2  34226  290.69 0855.26
2009/04/23 09:14:47.3     -88     73    128    115    172 310.0  53.5  34242  290.96 0855.26
2009/04/23 09:14:47.4     -99    105     64    145    158 316.7  25.1  34248  291.06 0855.26
2009/04/23 09:14:47.5    -144    123     67    190    202 310.7  19.4  34250  291.11 0855.26
2009/04/23 09:14:47.6    -125    129    101    181    207 315.9  31.6  34188  290.06 0855.26
2009/04/23 09:14:47.7      17     83     78     85    115  12.0  47.9  34152  289.43 0855.26
2009/04/23 09:14:47.8     156     80    153    176    233  62.7  45.6  34154  289.48 0855.26
2009/04/23 09:14:47.9      99     70    189    122    224  54.9  64.6  34180  289.91 0855.26
2009/04/23 09:14:48.0     -20     65    170     69    183 343.1  77.1  34180  289.91 0855.26
2009/04/23 09:14:48.1      46     56    171     73    185  39.7  75.5  34146  289.35 0855.26
2009/04/23 09:14:48.2      35     41    116     54    127  40.5  73.1  34170  289.75 0855.26
2009/04/23 09:14:48.3      18     53    117     57    130  18.7  72.8  34166  289.69 0855.26
2009/04/23 09:14:48.4      13     47     67     49     83  16.0  60.0  34170  289.74 0855.26
2009/04/23 09:14:48.5     -38   -112    -12    119    120 198.7  -6.2  34176  289.85 0855.26
2009/04/23 09:14:48.6      35    -16    108     39    114 115.2  80.7  34168  289.70 0855.26
2009/04/23 09:14:48.7      36    -12     85     39     93 108.6  73.5  34162  289.60 0855.26
2009/04/23 09:14:48.8    -130    -73     79    150    169 240.7  29.8  34170  289.74 0855.26
2009/04/23 09:14:48.9    -122    -96     89    156    179 231.8  32.1  34182  289.96 0855.26
2009/04/23 09:14:49.0     -50   -127    114    137    178 201.8  44.1  34172  289.77 0855.26
2009/04/23 09:14:49.1       5   -200    115    201    231 178.4  32.7  34162  289.62 0855.26
2009/04/23 09:14:49.2      69   -206     98    218    239 161.5  25.9  34166  289.67 0855.26
2009/04/23 09:14:49.3     163   -149     47    221    227 132.4  12.2  34160  289.57 0855.26
2009/04/23 09:14:49.4      79   -143     53    164    173 151.0  18.1  34162  289.62 0855.26
2009/04/23 09:14:49.5     121   -106     95    162    187 131.3  33.1  34160  289.58 0855.27
2009/04/23 09:14:49.6     283    -54    100    289    307 100.8  19.2  34166  289.68 0855.27
2009/04/23 09:14:49.7     246   -176     88    303    316 125.7  16.3  34162  289.61 0855.27
2009/04/23 09:14:49.8     118    -56    111    131    171 115.3  44.5  34160  289.57 0855.27
2009/04/23 09:14:49.9     160     -1     58    161    171  90.4  20.2  34162  289.60 0855.27
2009/04/23 09:14:50.0     180    -29     79    183    199  99.2  25.1  34144  289.30 0855.27
2009/04/23 09:14:50.1     154    -29     71    157    172 101.0  26.2  34146  289.33 0855.27
2009/04/23 09:14:50.2      76     -5     74     77    106  94.3  49.0  34152  289.43 0855.27
2009/04/23 09:14:50.3      94     -3     84     95    126  92.1  45.9  34158  289.53 0855.27
2009/04/23 09:14:50.4      98      0     74     99    123  90.0  40.1  34158  289.53 0855.27
2009/04/23 09:14:50.5      47     -6     77     48     90  97.9  64.7  34158  289.53 0855.27
2009/04/23 09:14:50.6       5     47     39     48     61   6.2  43.7  34166  289.67 0855.27
2009/04/23 09:14:50.7      14     10     36     18     40  54.0  70.8  34162  289.60 0855.27
2009/04/23 09:14:50.8      43    -21     14     48     51 116.2  16.3  34164  289.63 0855.27
2009/04/23 09:14:50.9      38    -12     16     40     43 108.2  22.0  34160  289.58 0855.27
2009/04/23 09:14:51.0      47    -32      1     58     59 124.2   1.8  34156  289.52 0855.27
2009/04/23 09:14:51.1      90    -61    -14    109    110 124.2  -7.7  34162  289.60 0855.27
2009/04/23 09:14:51.2      22    -92     93     95    132 166.6  50.0  34158  289.55 0855.27
2009/04/23 09:14:51.3       9   -101     81    102    130 174.7  42.7  34164  289.65 0855.27
2009/04/23 09:14:51.4      -6   -108     54    109    121 183.6  28.2  34160  289.58 0855.27
2009/04/23 09:14:51.5      -6    -90     86     91    125 184.0  49.0  34160  289.58 0855.27
2009/04/23 09:14:51.6     -10   -129     12    130    131 184.5   5.4  34160  289.58 0855.27
2009/04/23 09:14:51.7     -28   -118    -18    122    124 193.4  -8.8  34160  289.58 0855.27
2009/04/23 09:14:51.8     -45   -133    -12    141    142 198.7  -5.2  34164  289.65 0855.27
2009/04/23 09:14:51.9     -24   -187    -58    189    198 187.3 -17.3  34172  289.77 0855.27
2009/04/23 09:14:52.0      44   -216     78    221    235 168.5  19.4  34148  289.36 0855.27
2009/04/23 09:14:52.1      53   -230     92    237    254 166.9  22.1  34156  289.49 0855.27
2009/04/23 09:14:52.2     115   -253     84    279    292 155.5  16.8  34154  289.47 0855.27
2009/04/23 09:14:52.3      40   -237    155    241    286 170.2  35.6  34156  289.51 0855.27
2009/04/23 09:14:52.4     -31   -356     13    358    359 185.0   2.1  34138  289.20 0855.27
2009/04/23 09:14:52.5     -47   -354     69    358    365 187.6  11.0  34128  289.03 0855.27
2009/04/23 09:14:52.6     -74   -388    144    395    420 190.8  20.8  34132  289.11 0855.27
2009/04/23 09:14:52.7    -135   -400    150    423    450 198.7  19.6  34178  289.87 0855.27
2009/04/23 09:14:52.8    -143   -453    145    476    498 197.6  17.0  34142  289.27 0855.27
2009/04/23 09:14:52.9    -109   -471    189    484    519 193.1  22.4  34090  288.39 0855.27
2009/04/23 09:14:53.0     -28   -476    213    477    522 183.4  25.7  34096  288.49 0855.27
2009/04/23 09:14:53.1     -34   -492    207    494    535 184.0  24.1  34098  288.53 0855.27
2009/04/23 09:14:53.2       6   -524    197    525    560 179.3  21.5  34120  288.89 0855.27
2009/04/23 09:14:53.3    -251   -394    144    468    490 212.5  17.2  34116  288.84 0855.27
2009/04/23 09:14:53.4    -130   -436    249    455    518 196.6  31.3  34108  288.68 0855.27
2009/04/23 09:14:53.5     -47   -397    154    400    428 186.8  22.1  34104  288.63 0855.26
2009/04/23 09:14:53.6       0   -403    132    404    426 180.0  18.2  34112  288.77 0855.26
2009/04/23 09:14:53.7      20   -355    181    356    399 176.8  29.1  34118  288.86 0855.26
2009/04/23 09:14:53.8      30   -343    227    345    412 174.9  36.5  34122  288.93 0855.26
2009/04/23 09:14:53.9     -35   -381    138    383    408 185.3  19.9  34122  288.93 0855.26
2009/04/23 09:14:54.0     -73   -387    150    394    421 190.7  22.0  34106  288.65 0855.26
2009/04/23 09:14:54.1     -54   -432    206    436    482 187.2  27.1  34120  288.91 0855.26
2009/04/23 09:14:54.2     -53   -383    179    387    426 188.0  26.9  34098  288.53 0855.26
2009/04/23 09:14:54.3    -121   -396    122    415    433 197.0  16.4  34100  288.55 0855.26
2009/04/23 09:14:54.4    -127   -302     -6    328    329 202.8  -1.2  34124  288.95 0855.26
2009/04/23 09:14:54.5    -143   -357     32    385    387 201.8   4.9  34126  288.99 0855.26
2009/04/23 09:14:54.6    -162   -420    101    451    463 201.2  12.6  34120  288.89 0855.26
2009/04/23 09:14:54.7    -117   -346      7    366    367 198.8   1.2  34104  288.64 0855.26
2009/04/23 09:14:54.8     -49   -327    106    331    348 188.6  17.8  34108  288.69 0855.26
2009/04/23 09:14:54.9    -134   -283     97    314    329 205.3  17.2  34136  289.17 0855.26
2009/04/23 09:14:55.0     -51   -300    107    305    323 189.7  20.1  34112  288.76 0855.26
2009/04/23 09:14:55.1      26   -198     35    200    204 172.4  10.1  34114  288.79 0855.26
2009/04/23 09:14:55.2     118    -91     57    150    160 127.7  21.5  34112  288.75 0855.26
2009/04/23 09:14:55.3    -127    -92    140    158    211 234.1  46.2  34112  288.75 0855.26
2009/04/23 09:14:55.4       0   -285    164    286    329 180.1  32.7  34102  288.58 0855.26
2009/04/23 09:14:55.5     -46   -294    189    298    352 188.9  35.5  34102  288.59 0855.27
2009/04/23 09:14:55.6     -67   -283    -25    291    293 193.4  -5.1  34108  288.68 0855.27
2009/04/23 09:14:55.7    -205   -287    -27    353    354 215.6  -4.4  34110  288.71 0855.27
2009/04/23 09:14:55.8    -161   -264    229    310    385 211.4  40.0  34104  288.62 0855.27
2009/04/23 09:14:55.9    -138   -269    -38    303    306 207.1  -7.2  34108  288.70 0855.27
2009/04/23 09:14:56.0     -71   -154    -30    170    173 204.9 -10.3  34118  288.86 0855.27
2009/04/23 09:14:56.1     -63    -96     73    116    137 213.4  35.5  34108  288.70 0855.27
2009/04/23 09:14:56.2    -206   -206    183    292    344 224.9  35.2  34104  288.63 0855.27
2009/04/23 09:14:56.3    -160   -252    125    299    324 212.5  24.2  34108  288.70 0855.27
2009/04/23 09:14:56.4    -258   -163    -58    306    312 237.8 -10.8  34100  288.56 0855.27
2009/04/23 09:14:56.5    -118   -185    123    220    252 212.6  31.9  34094  288.44 0855.27
2009/04/23 09:14:56.6    -232   -151     54    277    283 236.9  11.1  34096  288.49 0855.27
2009/04/23 09:14:56.7    -175   -160     22    238    240 227.6   5.4  34088  288.36 0855.27
2009/04/23 09:14:56.8    -189   -192     -5    270    271 224.5  -1.1  34088  288.36 0855.27
2009/04/23 09:14:56.9    -169   -157     18    231    232 227.1   4.6  34084  288.30 0855.27
2009/04/23 09:14:57.0    -165   -257    -39    306    309 212.7  -7.3  34080  288.21 0855.27
2009/04/23 09:14:57.2    -211   -320    -91    384    395 213.5 -13.4  34082  288.25 0855.27
2009/04/23 09:14:57.2    -133   -294    -75    323    332 204.3 -13.2  34084  288.30 0855.27
2009/04/23 09:14:57.4    -164   -303   -105    345    360 208.4 -21.9  34082  288.25 0855.27
2009/04/23 09:14:57.4    -129   -274   -142    304    335 205.3 -31.4  34084  288.27 0855.27
2009/04/23 09:14:57.6    -200   -176    -68    267    276 228.7 -14.3  34086  288.31 0855.27
2009/04/23 09:14:57.7    -137   -194    -86    238    253 215.2 -24.8  34090  288.37 0855.27
2009/04/23 09:14:57.8    -239   -293    -17    379    380 219.2  -2.7  34094  288.44 0855.27
2009/04/23 09:14:57.9    -269   -394   -140    478    498 214.3 -21.1  34082  288.25 0855.27
2009/04/23 09:14:58.0    -366   -201   -125    418    437 241.2 -16.6  34092  288.41 0855.27
2009/04/23 09:14:58.1     -85   -279     62    292    299 196.9  12.0  34096  288.49 0855.27
2009/04/23 09:14:58.2    -244   -226    -48    333    337 227.2  -8.2  34092  288.42 0855.27
2009/04/23 09:14:58.3    -110   -140    -19    179    181 218.3  -6.2  34082  288.26 0855.27
2009/04/23 09:14:58.4     -36   -179     65    183    194 191.6  20.0  34088  288.35 0855.27
2009/04/23 09:14:58.5     -23    -89    123     92    153 194.7  60.0  34094  288.45 0855.27
2009/04/23 09:14:58.6      59     13    112     61    127  77.6  68.9  34102  288.58 0855.27
2009/04/23 09:14:58.7      19     19    134     27    136  45.0  89.1  34102  288.60 0855.27
2009/04/23 09:14:58.8       5    -69    154     70    169 175.6  73.8  34094  288.47 0855.27
2009/04/23 09:14:58.9      23   -128    162    131    208 169.8  56.9  34088  288.36 0855.27
2009/04/23 09:14:59.0     -72   -190    256    204    327 200.7  57.5  34088  288.34 0855.27
2009/04/23 09:14:59.1     -52   -161    199    170    261 198.0  55.3  34088  288.36 0855.27
2009/04/23 09:14:59.2     -16   -255    164    256    304 183.6  35.6  34090  288.37 0855.27
2009/04/23 09:14:59.3     153   -210    212    261    336 143.9  43.4  34088  288.34 0855.27
2009/04/23 09:14:59.4      49   -300    120    305    327 170.7  22.5  34088  288.36 0855.27
2009/04/23 09:14:59.5      30   -275    141    277    310 173.7  29.2  34086  288.31 0855.27
2009/04/23 09:14:59.6       7   -254    105    255    275 178.4  23.8  34084  288.29 0855.27
2009/04/23 09:14:59.7     -57   -239    114    246    271 193.4  27.0  34086  288.31 0855.27
2009/04/23 09:14:59.8     -67   -228    109    238    261 196.5  26.2  34086  288.31 0855.27
2009/04/23 09:14:59.9    -101   -217    100    240    260 204.9  24.1  34084  288.29 0855.27
2009/04/23 09:15:00.0     -58   -224    114    232    258 194.5  28.2  34086  288.32 0855.27
2009/04/23 09:15:00.1     -15   -235    118    236    263 183.8  28.2  34086  288.31 0855.27
2009/04/23 09:15:00.2    -109   -278     93    299    314 201.4  17.3  34082  288.26 0855.27
2009/04/23 09:15:00.3    -163   -264     43    311    314 211.7   7.9  34080  288.22 0855.27
2009/04/23 09:15:00.4    -176   -268      0    321    322 213.4   0.0  34082  288.24 0855.27
2009/04/23 09:15:00.5    -100   -250    101    270    288 201.8  21.3  34084  288.29 0855.27
2009/04/23 09:15:00.6    -156   -180     84    239    254 221.0  19.4  34088  288.36 0855.27
2009/04/23 09:15:00.7    -153   -126     78    199    213 230.7  22.3  34084  288.30 0855.27
2009/04/23 09:15:00.8     -82   -172     53    191    199 205.5  15.6  34082  288.25 0855.27
2009/04/23 09:15:00.9     -62   -122     68    138    153 207.1  27.8  34088  288.35 0855.27
2009/04/23 09:15:01.0     -73    -53     47     91    102 234.0  29.3  34090  288.38 0855.27
2009/04/23 09:15:01.1     -80     -6     25     81     85 265.6  17.3  34086  288.33 0855.27
2009/04/23 09:15:01.2     -91      8    -30     92     97 275.2 -18.1  34092  288.42 0855.27
2009/04/23 09:15:01.3     -69    -94     58    117    130 216.5  27.8  34084  288.30 0855.27
2009/04/23 09:15:01.4    -158   -113     33    195    198 234.3   9.9  34082  288.25 0855.27
2009/04/23 09:15:01.5    -105    -99      7    145    146 226.8   2.9  34080  288.23 0855.27
2009/04/23 09:15:01.6     -92    -65     53    113    124 234.5  27.1  34084  288.28 0855.27
2009/04/23 09:15:01.7     -72    -86     95    113    147 219.7  43.8  34082  288.26 0855.27
2009/04/23 09:15:01.8    -105    -87     81    137    159 230.4  33.5  34082  288.26 0855.27
2009/04/23 09:15:01.9     -83    -77     61    114    129 226.9  30.3  34082  288.26 0855.27
2009/04/23 09:15:02.0     -52    -21     80     57     98 247.4  60.6  34086  288.33 0855.27
2009/04/23 09:15:02.1     -37     36     80     52     95 314.1  64.6  34092  288.42 0855.27
2009/04/23 09:15:02.2     -71     24    111     76    134 289.1  62.7  34090  288.38 0855.27
2009/04/23 09:15:02.3     -89     67    137    112    176 307.3  56.4  34086  288.31 0855.27
2009/04/23 09:15:02.4     -69     41     90     81    121 301.1  53.3  34088  288.35 0855.27
2009/04/23 09:15:02.5    -167    -93     89    192    211 240.9  26.6  34084  288.30 0855.27
2009/04/23 09:15:02.6     -18    -92     75     94    120 191.6  42.7  34086  288.31 0855.27
2009/04/23 09:15:02.7     -98    -26    117    102    155 254.9  54.3  34088  288.35 0855.27
2009/04/23 09:15:02.8     -79     64    118    103    156 309.1  54.3  34090  288.38 0855.27
2009/04/23 09:15:02.9       3    113    103    114    153   1.8  47.5  34086  288.33 0855.27
2009/04/23 09:15:03.0      38     40     96     56    111  44.1  67.2  34090  288.38 0855.27
2009/04/23 09:15:03.1       0    -58     98     59    114 180.9  65.7  34094  288.45 0855.27
2009/04/23 09:15:03.2     -37    -83    135     91    162 204.1  63.2  34088  288.36 0855.27
2009/04/23 09:15:03.3       0    -94    148     95    175 180.5  64.6  34088  288.35 0855.27
2009/04/23 09:15:03.4      -9   -118     73    119    139 184.5  35.0  34088  288.35 0855.27
2009/04/23 09:15:03.5     -55   -137     19    148    150 201.9   7.5  34088  288.35 0855.27
2009/04/23 09:15:03.6     -48   -140     60    149    160 199.2  23.0  34086  288.33 0855.27
2009/04/23 09:15:03.7     -29   -108     51    112    123 195.2  25.7  34084  288.30 0855.27
2009/04/23 09:15:03.8     -10   -138     82    139    161 184.5  33.1  34084  288.30 0855.27
2009/04/23 09:15:03.9     -33   -142     88    146    170 193.4  34.2  34084  288.30 0855.27
2009/04/23 09:15:04.0     -29   -181     48    184    191 189.1  14.7  34080  288.21 0855.27
2009/04/23 09:15:04.1      -2   -162     29    163    166 180.9  10.1  34084  288.28 0855.27
2009/04/23 09:15:04.2       0   -165     24    166    168 180.2   8.2  34084  288.30 0855.27
2009/04/23 09:15:04.3      -5    -76     13     77     79 184.4  10.1  34082  288.25 0855.27
2009/04/23 09:15:04.4     -27    -18    -45     33     55 235.8 -64.9  34084  288.28 0855.27
2009/04/23 09:15:04.5     -57    -79    -32     98    104 216.1 -18.1  34080  288.21 0855.27
2009/04/23 09:15:04.6     -67    -20     29     70     75 253.2  23.1  34084  288.30 0855.28
2009/04/23 09:15:04.7     -28    -19    -36     34     49 235.8 -54.5  34086  288.31 0855.28
2009/04/23 09:15:04.8      -7    -38    -89     39     97 191.6 -79.4  34084  288.30 0855.28
2009/04/23 09:15:04.9      72    -73    -80    103    130 135.5 -46.1  34086  288.31 0855.28
2009/04/23 09:15:05.0      47    -75    -52     89    103 147.9 -37.3  34084  288.28 0855.28
2009/04/23 09:15:05.1      21    -49    -59     54     79 156.4 -56.6  34086  288.31 0855.28
2009/04/23 09:15:05.2       0    -29    -56     30     63 180.9 -73.3  34086  288.33 0855.28
2009/04/23 09:15:05.3     -30    -77    -57     83    100 201.8 -42.4  34084  288.30 0855.28
2009/04/23 09:15:05.4     -46   -104    -37    114    119 204.1 -23.3  34082  288.25 0855.28
2009/04/23 09:15:05.5     -65    -75    -20    100    103 221.0 -11.5  34082  288.25 0855.28
2009/04/23 09:15:05.6     -67    -39     10     78     79 239.3   8.0  34082  288.26 0855.28
2009/04/23 09:15:05.7     -21    -47     40     52     65 204.5  41.7  34082  288.25 0855.28
2009/04/23 09:15:05.8     -18    -73     62     76     98 194.3  43.7  34086  288.31 0855.28
2009/04/23 09:15:05.9     -12    -87     88     88    124 188.5  50.1  34084  288.28 0855.28
2009/04/23 09:15:06.0     -39    -84     56     93    108 205.3  34.4  34084  288.30 0855.28
2009/04/23 09:15:06.1     -20   -103     56    106    119 191.1  30.3  34090  288.40 0855.28
2009/04/23 09:15:06.2     -10    -81     51     82     96 187.1  35.5  34092  288.43 0855.28
2009/04/23 09:15:06.3     -18    -54     43     57     71 198.5  41.7  34090  288.40 0855.28
2009/04/23 09:15:06.4     -33    -67     46     75     87 206.3  35.0  34088  288.35 0855.28
2009/04/23 09:15:06.5     -68    -93     23    116    119 216.0  11.6  34086  288.31 0855.28
2009/04/23 09:15:06.6    -113   -131     -6    174    175 220.8  -2.3  34080  288.23 0855.28
2009/04/23 09:15:06.7    -136   -144    -22    199    201 223.3  -6.5  34080  288.23 0855.28
2009/04/23 09:15:06.8    -168   -161    -92    234    251 226.2 -26.9  34084  288.27 0855.28
2009/04/23 09:15:06.9    -114   -132    -55    175    183 221.0 -22.8  34080  288.21 0855.28
2009/04/23 09:15:07.0    -113    -77     17    137    139 235.8   7.1  34082  288.25 0855.28
2009/04/23 09:15:07.1    -104    -41     47    113    122 248.3  23.6  34082  288.25 0855.28
2009/04/23 09:15:07.2    -127    -10      1    128    129 265.2   0.8  34092  288.42 0855.28
2009/04/23 09:15:07.3    -121      8    -42    122    129 273.9 -23.3  34092  288.42 0855.28
2009/04/23 09:15:07.4     -84    -22    -45     88     98 254.9 -33.1  34090  288.40 0855.28
2009/04/23 09:15:07.5     -92    -43    -32    102    106 244.8 -23.3  34078  288.20 0855.28
2009/04/23 09:15:07.6    -127    -36     65    133    148 254.1  27.3  34084  288.30 0855.28
2009/04/23 09:15:07.7    -178    -48     36    185    189 254.7  11.1  34086  288.31 0855.28
2009/04/23 09:15:07.8    -143    -67      0    159    160 244.8   0.0  34082  288.26 0855.28
2009/04/23 09:15:07.9     -89    -71     50    114    124 231.4  25.1  34086  288.33 0855.28
2009/04/23 09:15:08.0     -87    -45     42     99    107 242.5  23.6  34084  288.30 0855.28
2009/04/23 09:15:08.1     -92     35     30     99    104 291.3  17.3  34084  288.30 0855.28
2009/04/23 09:15:08.2    -116     46     19    125    127 291.7   9.0  34086  288.33 0855.28
2009/04/23 09:15:08.3    -118     60     16    133    134 297.0   6.9  34086  288.31 0855.28
2009/04/23 09:15:08.4     -58     34     36     68     76 300.7  30.3  34084  288.30 0855.28
2009/04/23 09:15:08.5     -42    -26     17     50     53 237.6  18.9  34084  288.30 0855.28
2009/04/23 09:15:08.6     -66    -94     85    116    143 215.2  39.7  34080  288.21 0855.29
2009/04/23 09:15:08.7     -20   -147     93    149    175 188.0  35.2  34078  288.20 0855.29
2009/04/23 09:15:08.8     -61   -165     42    176    182 200.3  13.5  34076  288.14 0855.29
2009/04/23 09:15:08.9     -47   -143     89    151    175 198.5  33.7  34080  288.23 0855.29
2009/04/23 09:15:09.0     -52   -139    112    149    186 200.5  40.9  34078  288.20 0855.29
2009/04/23 09:15:09.1    -114   -157    133    195    236 216.1  37.6  34076  288.16 0855.29
2009/04/23 09:15:09.2    -171   -139     94    221    240 230.9  24.3  34078  288.19 0855.29
2009/04/23 09:15:09.3    -240   -104     46    262    267 246.4  10.1  34080  288.22 0855.29
2009/04/23 09:15:09.4    -158    -88     74    182    196 240.9  23.4  34082  288.25 0855.29
2009/04/23 09:15:09.5    -113    -40     28    120    124 250.5  13.2  34076  288.16 0855.29
2009/04/23 09:15:09.6      -2    -46    105     47    115 183.6  74.0  34076  288.16 0855.29
2009/04/23 09:15:09.7      -2     25     76     26     80 353.8  80.7  34082  288.25 0855.29
2009/04/23 09:15:09.8     -63     -8     73     64     97 262.1  54.3  34080  288.21 0855.29
2009/04/23 09:15:09.9    -169     14     25    170    172 274.8   8.5  34078  288.18 0855.29
2009/04/23 09:15:10.0    -172   -100    -25    200    202 239.8  -7.2  34080  288.23 0855.29
2009/04/23 09:15:10.1     -91   -103     32    138    142 221.4  13.2  34076  288.16 0855.29
2009/04/23 09:15:10.2     -80   -240    178    254    310 198.5  38.5  34076  288.15 0855.29
2009/04/23 09:15:10.3     -92   -240    184    258    316 201.0  39.1  34078  288.17 0855.29
2009/04/23 09:15:10.4    -178   -214    110    279    299 219.6  22.8  34076  288.15 0855.29
2009/04/23 09:15:10.5    -186   -182     13    261    262 225.6   2.9  34080  288.22 0855.29
2009/04/23 09:15:10.6    -223   -185     -5    290    291 230.4  -1.2  34080  288.22 0855.29
2009/04/23 09:15:10.7    -154   -127     53    200    208 230.5  15.0  34076  288.16 0855.29
2009/04/23 09:15:10.8    -145   -146     32    207    210 224.8   8.8  34074  288.13 0855.29
2009/04/23 09:15:10.9    -133    -84      9    158    159 237.5   3.3  34076  288.16 0855.29
2009/04/23 09:15:11.0    -204      9    -11    205    206 272.6  -3.1  34082  288.26 0855.29
2009/04/23 09:15:11.1    -227    -87   -109    244    267 248.9 -30.1  34080  288.21 0855.29
2009/04/23 09:15:11.2     -88   -153    -50    177    183 209.9 -20.4  34074  288.13 0855.29
2009/04/23 09:15:11.3     -95   -140    -51    170    178 214.1 -17.0  34076  288.16 0855.29
2009/04/23 09:15:11.4    -208    -91     18    228    229 246.3   4.6  34080  288.21 0855.29
2009/04/23 09:15:11.5    -214    -44     -8    219    220 258.3  -2.2  34086  288.31 0855.29
2009/04/23 09:15:11.6    -126    -38    -24    132    135 253.1 -10.3  34086  288.33 0855.29
2009/04/23 09:15:11.7    -143    -47    -41    151    156 251.8 -20.0  34088  288.36 0855.29
2009/04/23 09:15:11.8    -126    -25    -14    129    130 258.5  -6.2  34078  288.20 0855.29
2009/04/23 09:15:11.9    -206    -98     -2    229    230 244.6  -0.7  34084  288.28 0855.29
2009/04/23 09:15:12.0    -156   -117     43    196    201 233.1  12.6  34086  288.31 0855.29
2009/04/23 09:15:12.1    -253   -105    -12    275    276 247.4  -2.6  34086  288.32 0855.29
2009/04/23 09:15:12.2    -204   -112     47    233    238 241.1  11.6  34088  288.34 0855.29
2009/04/23 09:15:12.3    -155    -82     76    176    191 242.0  24.9  34082  288.25 0855.29
2009/04/23 09:15:12.4    -183    -57    -31    192    195 252.5  -9.4  34090  288.40 0855.29
2009/04/23 09:15:12.5     -89    -25    -18     93     95 254.1 -11.3  34092  288.42 0855.29
2009/04/23 09:15:12.6     -41   -100     15    109    111 202.3   8.0  34086  288.31 0855.29
2009/04/23 09:15:12.7      40   -114     71    122    141 160.4  32.9  34080  288.23 0855.29
2009/04/23 09:15:12.8      74    -69     52    102    114 133.1  29.3  34080  288.23 0855.29
2009/04/23 09:15:12.9      72   -131     -4    150    151 151.1  -1.8  34080  288.23 0855.29
2009/04/23 09:15:13.0      77   -203     -8    218    219 159.1  -2.2  34078  288.18 0855.29
2009/04/23 09:15:13.1      76   -170    -47    187    193 155.9 -14.3  34080  288.23 0855.29
2009/04/23 09:15:13.2      58   -148    -37    160    165 158.4 -13.2  34084  288.28 0855.29
2009/04/23 09:15:13.3      31   -127    -16    131    133 166.2  -7.2  34086  288.31 0855.29
2009/04/23 09:15:13.4       9   -103     14    104    106 174.7   8.0  34082  288.26 0855.29
2009/04/23 09:15:13.5       8   -149      9    150    151 176.9   3.8  34082  288.25 0855.29
2009/04/23 09:15:13.6      -2   -149     14    150    151 181.0   5.4  34080  288.23 0855.29
2009/04/23 09:15:13.7     -15   -139     38    140    146 186.3  15.3  34080  288.23 0855.29
2009/04/23 09:15:13.8     -25   -181    -14    183    184 188.1  -4.4  34078  288.20 0855.29
2009/04/23 09:15:13.9     -59   -181   -107    191    218 198.3 -35.8  34078  288.18 0855.29
2009/04/23 09:15:14.0     -47   -215    -70    221    231 192.5 -23.0  34074  288.11 0855.29
2009/04/23 09:15:14.1    -182   -165    -13    246    247 227.8  -3.2  34078  288.19 0855.29
2009/04/23 09:15:14.2    -112   -190    -62    221    229 210.7 -20.2  34078  288.20 0855.29
2009/04/23 09:15:14.3     -92   -279    -13    294    295 198.3  -2.6  34082  288.24 0855.29
2009/04/23 09:15:14.4     -59   -249    -68    256    266 193.4 -15.0  34084  288.29 0855.29
2009/04/23 09:15:14.5     -93   -245     75    263    274 200.9  16.0  34086  288.31 0855.29
2009/04/23 09:15:14.6    -130   -233     71    268    278 209.2  15.0  34090  288.39 0855.30
2009/04/23 09:15:14.7    -130   -263    -93    294    309 206.3 -17.5  34082  288.26 0855.30
2009/04/23 09:15:14.8    -114   -324     -6    344    345 199.5  -1.1  34078  288.20 0855.30
2009/04/23 09:15:14.9     -53   -280      8    286    287 190.7   1.7  34086  288.31 0855.30
2009/04/23 09:15:15.0    -108   -356    -26    373    374 197.0  -4.1  34080  288.23 0855.30
2009/04/23 09:15:15.1     -76   -271    -25    282    284 195.8  -5.1  34080  288.21 0855.30
2009/04/23 09:15:15.2     -66   -211    -12    222    223 197.4  -3.2  34084  288.30 0855.30
2009/04/23 09:15:15.3     -58   -185     -2    194    195 197.4  -0.7  34082  288.26 0855.30
2009/04/23 09:15:15.4     -37   -154     35    159    163 193.6  12.6  34084  288.30 0855.30
2009/04/23 09:15:15.5     -33   -117     50    122    131 196.0  23.1  34084  288.30 0855.30
2009/04/23 09:15:15.6     -33   -100     53    106    118 198.3  28.2  34082  288.26 0855.30
2009/04/23 09:15:15.7     -35    -89     73     96    120 201.8  41.2  34084  288.28 0855.30
2009/04/23 09:15:15.8     -14    -69     72     71    101 191.6  50.1  34084  288.28 0855.30
2009/04/23 09:15:15.9       5    -10     73     12     73 154.6  90.0  34088  288.36 0855.30
2009/04/23 09:15:16.0     -51     54    137     75    156 316.8  69.1  34090  288.40 0855.30
2009/04/23 09:15:16.1     -14      6    107     16    108 295.3  90.0  34090  288.38 0855.30
2009/04/23 09:15:16.2       7     39    137     40    142  11.5  83.3  34092  288.42 0855.30
2009/04/23 09:15:16.3     -24    -51    106     57    120 205.3  69.3  34094  288.47 0855.30
2009/04/23 09:15:16.4       0   -232    197    233    305 180.0  44.3  34088  288.34 0855.30
2009/04/23 09:15:16.5     -20   -238    241    239    339 184.9  50.1  34082  288.26 0855.30
2009/04/23 09:15:16.6      19   -275    183    276    331 176.0  36.5  34088  288.34 0855.29
2009/04/23 09:15:16.7      24   -325    155    326    360 175.7  27.2  34092  288.42 0855.29
2009/04/23 09:15:16.8      42   -303    127    307    332 172.0  23.7  34092  288.43 0855.29
2009/04/23 09:15:16.9      82   -304     85    315    327 164.9  15.1  34094  288.46 0855.29
2009/04/23 09:15:17.0      97   -322     87    337    349 163.2  14.5  34094  288.47 0855.29
2009/04/23 09:15:17.1     103   -241    106    263    283 156.8  23.0  34088  288.34 0855.29
2009/04/23 09:15:17.2      84   -209     75    226    239 158.1  18.4  34088  288.34 0855.29
2009/04/23 09:15:17.3      80   -219     55    234    241 160.0  13.2  34086  288.32 0855.29
2009/04/23 09:15:17.4     104   -203     27    229    231 152.8   6.9  34088  288.35 0855.29
2009/04/23 09:15:17.5      86   -173     38    194    198 153.5  11.1  34086  288.33 0855.29
2009/04/23 09:15:17.6      62   -128     42    143    150 154.1  16.3  34092  288.42 0855.29
2009/04/23 09:15:17.7      20    -71     40     74     84 164.0  31.4  34092  288.43 0855.29
2009/04/23 09:15:17.8      33    -33     38     47     60 135.0  43.7  34090  288.40 0855.29
2009/04/23 09:15:17.9      30     -2     35     31     46  94.4  53.3  34090  288.38 0855.29
2009/04/23 09:15:18.0       3      0     52      4     52  90.0  90.0  34090  288.40 0855.29
2009/04/23 09:15:18.1     -23    -49     59     55     80 205.4  52.2  34086  288.33 0855.29
2009/04/23 09:15:18.2      -6    -78     51     79     94 184.5  35.6  34084  288.30 0855.29
2009/04/23 09:15:18.3      16    -30     58     35     67 151.0  65.7  34088  288.36 0855.29
2009/04/23 09:15:18.4      26    -43     83     51     97 149.3  64.7  34086  288.33 0855.29
2009/04/23 09:15:18.5      -1   -110     68    111    130 180.9  34.4  34090  288.38 0855.29
2009/04/23 09:15:18.6      34    -84     75     91    117 157.7  43.8  34092  288.42 0855.31
2009/04/23 09:15:18.7       3    -76     76     77    108 177.3  50.5  34092  288.42 0855.31
2009/04/23 09:15:18.8      14    -43     40     46     60 162.2  45.8  34094  288.47 0855.31
2009/04/23 09:15:18.9      59    -23     32     64     71 111.7  27.3  34092  288.42 0855.31
2009/04/23 09:15:19.0      89    -21     14     92     94 103.7   9.0  34090  288.40 0855.31
2009/04/23 09:15:19.1     103    -65     45    122    130 122.4  20.9  34090  288.40 0855.31
2009/04/23 09:15:19.2     129   -156     70    203    215 140.3  19.2  34090  288.38 0855.31
2009/04/23 09:15:19.3      93   -182     35    205    209 153.0   9.9  34082  288.25 0855.31
2009/04/23 09:15:19.4      65   -149    104    163    193 156.3  35.5  34080  288.23 0855.31
2009/04/23 09:15:19.5     140   -166     77    218    232 139.9  19.6  34086  288.33 0855.31
2009/04/23 09:15:19.6     169   -144     89    223    240 130.4  23.0  34086  288.32 0855.31
2009/04/23 09:15:19.7     131   -148     77    198    212 138.6  22.3  34082  288.25 0855.31
2009/04/23 09:15:19.8     121   -130    164    178    242 137.0  47.7  34080  288.21 0855.31
2009/04/23 09:15:19.9      74   -101    161    126    204 143.9  58.4  34084  288.28 0855.31
2009/04/23 09:15:20.0      42    -34    154     55    163 128.6  79.9  34080  288.23 0855.31
2009/04/23 09:15:20.1     109   -114    167    159    230 136.3  51.6  34086  288.31 0855.31
2009/04/23 09:15:20.2     108   -108    151    153    214 135.0  50.0  34084  288.30 0855.31
2009/04/23 09:15:20.3     169   -146    147    224    267 130.9  36.3  34084  288.27 0855.31
2009/04/23 09:15:20.4     122   -107     72    163    178 131.4  25.1  34082  288.26 0855.31
2009/04/23 09:15:20.5      80   -124     43    148    155 147.0  16.3  34084  288.28 0855.31
2009/04/23 09:15:20.6      65   -102     33    122    127 147.4  15.3  34080  288.23 0855.31
2009/04/23 09:15:20.7     113   -126     34    170    174 137.9  11.6  34086  288.33 0855.31
2009/04/23 09:15:20.8      27   -134     90    137    163 168.5  36.3  34084  288.28 0855.31
2009/04/23 09:15:20.9      91   -115     57    147    157 141.7  22.3  34084  288.30 0855.31
2009/04/23 09:15:21.0      82   -148    110    170    202 151.0  35.7  34082  288.25 0855.31
2009/04/23 09:15:21.1      72   -181    165    196    256 158.2  44.3  34086  288.32 0855.31
2009/04/23 09:15:21.2     120   -163    108    203    229 143.5  30.3  34086  288.33 0855.31
2009/04/23 09:15:21.3     168   -263     45    313    317 147.5   8.2  34086  288.31 0855.31
2009/04/23 09:15:21.4      93   -306    129    320    345 163.1  23.1  34080  288.23 0855.31
2009/04/23 09:15:21.5      48   -345    129    349    372 172.0  21.3  34082  288.25 0855.31
2009/04/23 09:15:21.6     -67   -430    185    436    473 188.9  24.5  34076  288.16 0855.31
2009/04/23 09:15:21.7    -143   -348    140    377    402 202.3  21.4  34076  288.15 0855.31
2009/04/23 09:15:21.8     -23   -176     21    178    180 187.6   6.9  34074  288.11 0855.31
2009/04/23 09:15:21.9     128   -154    154    201    253 140.3  41.4  34068  288.00 0855.31
2009/04/23 09:15:22.0      87   -159    200    182    270 151.3  53.0  34078  288.19 0855.31
2009/04/23 09:15:22.1      -5   -167    158    168    230 181.8  48.0  34080  288.21 0855.31
2009/04/23 09:15:22.2     -14   -318     79    319    329 182.6  13.9  34078  288.19 0855.31
2009/04/23 09:15:22.3     -85   -346    232    357    425 193.9  36.0  34078  288.17 0855.31
2009/04/23 09:15:22.4     -73   -523     56    529    533 188.0   6.1  34072  288.08 0855.31
2009/04/23 09:15:22.5    -119   -510    153    524    546 193.2  16.3  34082  288.26 0855.31
2009/04/23 09:15:22.6    -184   -389     97    431    442 205.3  12.8  34068  288.02 0855.31
2009/04/23 09:15:22.7     -57   -523    244    527    580 186.2  26.6  34084  288.30 0855.31
2009/04/23 09:15:22.8    -122   -557    215    571    610 192.4  21.6  34082  288.26 0855.31
2009/04/23 09:15:22.9    -135   -543    262    560    618 194.0  27.1  34084  288.27 0855.31
2009/04/23 09:15:23.0    -235   -558    219    606    644 202.8  20.8  34090  288.38 0855.31
2009/04/23 09:15:23.1    -413   -494    175    645    669 219.9  15.2  34086  288.33 0855.31
2009/04/23 09:15:23.2    -417   -397    -97    577    586 226.4  -9.6  34088  288.36 0855.31
2009/04/23 09:15:23.3    -246   -345     -1    424    425 215.5  -0.3  34082  288.26 0855.31
2009/04/23 09:15:23.4    -196   -433     93    476    486 204.3  11.1  34084  288.29 0855.31
2009/04/23 09:15:23.5    -357   -265      2    446    447 233.4   0.4  34092  288.41 0855.31
2009/04/23 09:15:23.6    -440   -264     41    514    516 239.0   4.6  34084  288.29 0855.31
2009/04/23 09:15:23.7    -446   -236   -102    505    516 242.1 -11.5  34088  288.35 0855.31
2009/04/23 09:15:23.8     -76   -325    111    334    353 193.2  18.5  34084  288.28 0855.31
2009/04/23 09:15:23.9    -189   -394    222    438    491 205.7  28.9  34084  288.30 0855.31
2009/04/23 09:15:24.0    -124   -383    223    403    460 198.0  31.4  34086  288.33 0855.31
2009/04/23 09:15:24.1    -286   -224     84    364    374 232.0  13.1  34088  288.35 0855.31
2009/04/23 09:15:24.2    -241   -323    -46    404    407 216.8  -6.6  34082  288.24 0855.31
2009/04/23 09:15:24.3    -448   -241   -180    509    540 241.7 -19.5  34066  287.97 0855.31
2009/04/23 09:15:24.4    -532   -311   -216    617    653 239.7 -24.4  34074  288.13 0855.31
2009/04/23 09:15:24.5     -99   -504   -122    514    529 191.1 -13.4  34064  287.94 0855.31
2009/04/23 09:15:24.6    -294   -332   -170    444    475 221.5 -26.4  34068  288.03 0855.31
2009/04/23 09:15:24.7    -321   -322   -139    456    476 224.9 -21.9  34080  288.22 0855.31
2009/04/23 09:15:24.8    -239   -448   -131    509    526 208.1 -14.5  34084  288.28 0855.31
2009/04/23 09:15:24.9    -299   -257    -36    395    397 229.3  -5.3  34088  288.35 0855.31
2009/04/23 09:15:25.1    -503   -247   -124    561    575 243.8 -12.5  34076  288.14 0855.31
2009/04/23 09:15:25.2    -226   -307   -140    382    406 216.4 -25.4  34076  288.16 0855.31
2009/04/23 09:15:25.3    -402   -214   -138    456    476 241.9 -21.8  34072  288.07 0855.31
2009/04/23 09:15:25.4    -192   -402    -89    446    455 205.6 -11.3  34078  288.17 0855.31
2009/04/23 09:15:25.5    -143   -265     13    302    303 208.3   2.5  34090  288.39 0855.31
2009/04/23 09:15:25.6    -150   -254    -17    296    297 210.7  -3.3  34094  288.44 0855.31
2009/04/23 09:15:25.7    -185   -147   -193    237    305 231.4 -48.1  34082  288.26 0855.29
2009/04/23 09:15:25.8    -172   -269   -168    320    361 212.6 -34.2  34090  288.37 0855.29
2009/04/23 09:15:25.9     -82   -268    -15    281    282 197.0  -3.2  34088  288.36 0855.29
2009/04/23 09:15:26.0     -42   -274    -72    278    288 188.9 -14.5  34088  288.34 0855.29
2009/04/23 09:15:26.1      11   -286    -97    287    302 177.8 -23.3  34090  288.37 0855.29
2009/04/23 09:15:26.2      25   -394    -50    395    399 176.3  -7.3  34090  288.38 0855.29
2009/04/23 09:15:26.3     -89   -264     40    279    282 198.7   8.2  34090  288.39 0855.29
2009/04/23 09:15:26.4    -169   -257     15    308    309 213.4   2.9  34092  288.43 0855.29
2009/04/23 09:15:26.5    -413   -213   -179    465    498 242.7 -26.7  34064  287.96 0855.29
2009/04/23 09:15:26.6    -156   -335    -75    370    378 205.0 -11.6  34072  288.08 0855.29
2009/04/23 09:15:26.7     -68   -323    -24    331    332 192.0  -4.2  34088  288.35 0855.29
2009/04/23 09:15:26.8    -255   -196      5    322    323 232.5   1.0  34072  288.07 0855.29
2009/04/23 09:15:26.9    -117   -198    -45    231    236 210.7 -11.1  34084  288.29 0855.29
2009/04/23 09:15:27.0    -156    -52     40    165    170 251.4  13.7  34084  288.28 0855.29
2009/04/23 09:15:27.1    -123   -112    -58    167    176 227.8 -23.8  34080  288.23 0855.29
2009/04/23 09:15:27.2    -165    -57    -49    175    181 250.7 -20.2  34078  288.20 0855.29
2009/04/23 09:15:27.3      -7    -85    -45     86     97 184.9 -34.2  34078  288.20 0855.29
2009/04/23 09:15:27.4      52    -82    -31     98    102 147.5 -22.8  34070  288.06 0855.29
2009/04/23 09:15:27.5      81    -67     36    106    113 129.5  18.9  34084  288.28 0855.29
2009/04/23 09:15:27.6     124    -77     -3    147    148 122.0  -1.3  34080  288.23 0855.29
2009/04/23 09:15:27.7     121   -127     -6    176    177 136.3  -2.2  34084  288.28 0855.27
2009/04/23 09:15:27.8      86   -135    -33    161    165 147.5 -11.9  34084  288.28 0855.27
2009/04/23 09:15:27.9      91   -112    -29    145    148 140.8 -11.3  34082  288.26 0855.27
2009/04/23 09:15:28.0      40    -32      3     52     53 128.6   3.8  34078  288.20 0855.27
2009/04/23 09:15:28.1    -214     49    -63    220    229 283.0 -16.0  34078  288.20 0855.27
2009/04/23 09:15:28.2    -395     77   -235    403    466 281.1 -37.4  34060  287.89 0855.27
2009/04/23 09:15:28.3     -99     13    243    100    262 277.5  76.8  34080  288.23 0855.27
2009/04/23 09:15:28.4     -87    -66    262    110    284 232.7  76.0  34086  288.31 0855.27
2009/04/23 09:15:28.5    -264   -126    156    293    331 244.5  30.5  34098  288.53 0855.27
2009/04/23 09:15:28.6    -216   -259    213    338    399 219.9  35.3  34100  288.55 0855.27
2009/04/23 09:15:28.7    -122   -133    187    181    260 222.5  50.9  34078  288.19 0855.27
2009/04/23 09:15:28.8     -70    -39     64     81    103 241.1  42.7  34086  288.31 0855.27
2009/04/23 09:15:28.9     109    -32    154    114    191 106.4  60.0  34074  288.13 0855.27
2009/04/23 09:15:29.0      12      9    179     16    179  54.0  90.0  34076  288.16 0855.27
2009/04/23 09:15:29.1     -16     50    155     53    163 341.7  80.7  34072  288.08 0855.27
2009/04/23 09:15:29.2     -97     32    179    103    206 288.6  67.5  34066  287.98 0855.27
2009/04/23 09:15:29.3    -342   -137    200    369    419 248.1  30.9  34076  288.14 0855.27
2009/04/23 09:15:29.4    -253     63   -148    261    300 284.2 -36.3  34064  287.95 0855.27
2009/04/23 09:15:29.5     -55    233    131    240    273 346.6  31.3  34074  288.10 0855.27
2009/04/23 09:15:29.6     153    -41    215    159    267 105.1  60.0  34072  288.09 0855.27
2009/04/23 09:15:29.7     -34    -17     61     39     72 242.9  64.6  34080  288.21 0855.27
2009/04/23 09:15:29.8       1   -117    145    118    186 179.1  56.4  34072  288.09 0855.27
2009/04/23 09:15:29.9    -195   -273    107    336    353 215.6  17.8  34076  288.16 0855.27
2009/04/23 09:15:30.0    -182   -362    175    406    442 206.7  24.9  34072  288.09 0855.27
2009/04/23 09:15:30.1    -316   -303    141    439    462 226.2  17.8  34072  288.07 0855.27
2009/04/23 09:15:30.2    -316   -424    -29    530    531 216.7  -3.2  34076  288.16 0855.27
2009/04/23 09:15:30.3    -287   -484   -148    563    583 210.7 -14.8  34072  288.09 0855.27
2009/04/23 09:15:30.4    -409   -651   -181    769    791 212.1 -13.3  34074  288.12 0855.27
2009/04/23 09:15:30.5    -323   -542   -301    631    699 210.8 -31.7  34070  288.04 0855.27
2009/04/23 09:15:30.6    -289   -387     68    484    489 216.8   8.0  34068  288.02 0855.27
2009/04/23 09:15:30.7    -457   -373    -57    591    594 230.8  -5.6  34066  287.97 0855.27
2009/04/23 09:15:30.8    -283   -282    139    400    424 225.1  19.2  34078  288.19 0855.27
2009/04/23 09:15:30.9       6   -360    167    361    397 179.0  26.5  34078  288.20 0855.27
2009/04/23 09:15:31.0    -215   -388     99    444    456 209.0  12.6  34072  288.07 0855.27
2009/04/23 09:15:31.1    -105   -477     50    489    492 192.5   5.9  34070  288.05 0855.27
2009/04/23 09:15:31.2    -131   -329    -74    355    363 201.8 -11.9  34068  288.03 0855.27
2009/04/23 09:15:31.3    -252   -252   -120    357    377 225.0 -18.6  34068  288.03 0855.27
2009/04/23 09:15:31.4    -224   -183   -134    290    319 230.7 -30.9  34068  288.02 0855.27
2009/04/23 09:15:31.5    -413   -256     -1    487    488 238.2  -0.2  34074  288.13 0855.27
2009/04/23 09:15:31.6    -149   -263    -21    303    304 209.6  -4.1  34076  288.15 0855.27
2009/04/23 09:15:31.7      29   -262     92    264    280 173.5  19.2  34074  288.10 0855.29
2009/04/23 09:15:31.8      10   -386    -21    387    388 178.4  -3.1  34070  288.06 0855.29
2009/04/23 09:15:31.9      57   -556    -78    559    565 174.1  -8.0  34076  288.16 0855.29
2009/04/23 09:15:32.0     -78   -352   -162    361    395 192.5 -30.2  34068  288.01 0855.29
2009/04/23 09:15:32.1      68   -308   -113    316    336 167.4 -19.8  34070  288.05 0855.29
2009/04/23 09:15:32.2      43   -325    -84    328    339 172.3 -14.5  34068  288.03 0855.29
2009/04/23 09:15:32.3       0   -317    -87    318    330 180.1 -15.4  34076  288.15 0855.29
2009/04/23 09:15:32.4     -24   -247    -84    249    263 185.6 -18.7  34070  288.05 0855.29
2009/04/23 09:15:32.5     -91   -207    -72    227    239 203.8 -17.6  34080  288.21 0855.29
2009/04/23 09:15:32.6    -118   -296     42    319    322 201.9   7.6  34076  288.15 0855.29
2009/04/23 09:15:32.7    -134   -271     34    303    305 206.3   6.5  34076  288.15 0855.29
2009/04/23 09:15:32.8    -156   -314     17    351    352 206.5   2.9  34074  288.13 0855.29
2009/04/23 09:15:32.9    -239   -354     18    428    429 214.1   2.5  34070  288.06 0855.29
2009/04/23 09:15:33.0    -231   -441     10    499    500 207.7   1.2  34074  288.13 0855.29
2009/04/23 09:15:33.1    -117   -392     33    410    412 196.6   4.7  34074  288.11 0855.29
2009/04/23 09:15:33.2    -165   -376    -28    411    412 203.7  -4.0  34076  288.14 0855.29
2009/04/23 09:15:33.3     -40   -349     33    352    354 186.6   5.4  34076  288.15 0855.29
2009/04/23 09:15:33.4    -268   -543     40    606    608 206.3   3.8  34074  288.12 0855.29
2009/04/23 09:15:33.5    -121   -557     43    571    573 192.3   4.4  34072  288.07 0855.29
2009/04/23 09:15:33.6     -51   -471    154    474    499 186.3  18.0  34070  288.05 0855.29
2009/04/23 09:15:33.7     -15   -500     95    501    511 181.8  10.8  34074  288.13 0855.28
2009/04/23 09:15:33.8       6   -496    149    497    519 179.3  16.7  34078  288.20 0855.28
2009/04/23 09:15:33.9      68   -412     98    418    430 170.6  13.2  34072  288.09 0855.28
2009/04/23 09:15:34.0     100   -326    100    342    357 163.0  16.3  34074  288.10 0855.28
2009/04/23 09:15:34.1      88   -264    107    279    298 161.5  22.0  34076  288.14 0855.28
2009/04/23 09:15:34.2     106   -266    152    287    324 158.2  30.1  34076  288.15 0855.28
2009/04/23 09:15:34.3     242   -188    143    307    338 127.8  26.9  34076  288.16 0855.28
2009/04/23 09:15:34.4     255   -265    223    368    430 136.1  34.1  34070  288.06 0855.28
2009/04/23 09:15:34.5     196   -183     38    269    272 133.1   8.2  34078  288.17 0855.28
2009/04/23 09:15:34.6     169   -203    159    265    309 140.3  33.7  34076  288.14 0855.28
2009/04/23 09:15:34.7     201   -195    216    281    354 134.2  41.5  34078  288.18 0855.28
2009/04/23 09:15:34.8     194   -194    180    275    328 134.9  36.3  34078  288.19 0855.28
2009/04/23 09:15:34.9      63   -264    112    272    294 166.4  23.6  34076  288.14 0855.28
2009/04/23 09:15:35.0      62   -231    148    240    281 164.8  34.8  34080  288.21 0855.28
2009/04/23 09:15:35.1      50   -220    161    226    277 167.1  39.1  34082  288.24 0855.28
2009/04/23 09:15:35.2     -47   -231     89    236    252 191.6  21.5  34078  288.17 0855.28
2009/04/23 09:15:35.3      16   -207    189    208    281 175.5  47.0  34074  288.12 0855.28
2009/04/23 09:15:35.4       6   -122    133    123    181 176.9  52.2  34082  288.26 0855.28
2009/04/23 09:15:35.5      63   -125     82    141    163 153.3  32.9  34078  288.20 0855.28
2009/04/23 09:15:35.6      55   -166    199    176    265 161.5  54.2  34084  288.29 0855.28
2009/04/23 09:15:35.7      11   -191    190    192    270 176.6  50.0  34086  288.32 0855.29
2009/04/23 09:15:35.8      42   -199    252    204    324 168.0  56.9  34078  288.19 0855.29
2009/04/23 09:15:35.9     104   -242    242    264    358 156.8  47.5  34086  288.32 0855.29
2009/04/23 09:15:36.0      15   -156    234    157    281 174.2  63.2  34084  288.29 0855.29
2009/04/23 09:15:36.1      -7   -252    257    253    360 181.6  50.2  34084  288.27 0855.29
2009/04/23 09:15:36.2      37   -138    222    143    264 164.9  64.6  34088  288.35 0855.29
2009/04/23 09:15:36.3       3   -101    161    102    190 178.2  64.7  34086  288.31 0855.29
2009/04/23 09:15:36.4      -9   -194    231    195    302 182.7  56.1  34084  288.27 0855.29
2009/04/23 09:15:36.5       0   -231    266    232    352 180.0  54.4  34084  288.29 0855.29
2009/04/23 09:15:36.6       7   -194    233    195    303 177.8  56.3  34086  288.32 0855.29
2009/04/23 09:15:36.7      48   -162    191    169    255 163.5  54.0  34094  288.47 0855.29
2009/04/23 09:15:36.8      50   -270    160    275    318 169.5  32.8  34088  288.34 0855.29
2009/04/23 09:15:36.9     -88   -220     96    238    256 201.8  23.1  34084  288.27 0855.29
2009/04/23 09:15:37.0     -25   -165    124    167    208 188.7  40.1  34090  288.38 0855.29
2009/04/23 09:15:37.1     -71   -148     84    165    185 205.6  29.1  34084  288.28 0855.29
2009/04/23 09:15:37.2     -38   -119     64    126    141 197.8  29.2  34090  288.38 0855.29
2009/04/23 09:15:37.3     -85    -91     44    125    133 223.2  19.4  34090  288.40 0855.29
2009/04/23 09:15:37.4     -24   -175     98    177    202 188.0  31.4  34092  288.43 0855.29
2009/04/23 09:15:37.5     -65   -207    104    218    241 197.4  27.3  34088  288.36 0855.29
2009/04/23 09:15:37.6     -76   -192     79    207    221 201.6  22.0  34088  288.35 0855.29
2009/04/23 09:15:37.7    -184   -238     26    301    303 217.8   5.0  34090  288.39 0855.29
2009/04/23 09:15:37.8    -190   -202     67    278    287 223.2  13.7  34090  288.39 0855.29
2009/04/23 09:15:37.9    -216    -39     10    220    221 259.6   2.8  34092  288.42 0855.29
2009/04/23 09:15:38.0    -119     30     28    123    127 284.2  13.1  34088  288.35 0855.29
2009/04/23 09:15:38.1      -1    -73     69     74    101 180.9  47.9  34088  288.35 0855.29
2009/04/23 09:15:38.2      77   -104    130    130    183 143.5  50.1  34086  288.33 0855.29
2009/04/23 09:15:38.3      37   -109    144    116    184 161.3  56.9  34090  288.38 0855.29
2009/04/23 09:15:38.4     -38   -164    165    169    236 193.1  49.2  34088  288.36 0855.29
2009/04/23 09:15:38.5     -19    -86    123     89    151 192.5  60.5  34088  288.35 0855.29
2009/04/23 09:15:38.6     -30   -169    133    172    217 190.2  41.6  34086  288.31 0855.29
2009/04/23 09:15:38.7    -112   -169    122    203    236 213.6  33.7  34086  288.31 0855.29
2009/04/23 09:15:38.8    -202   -364    179    417    453 209.0  24.9  34082  288.24 0855.29
2009/04/23 09:15:38.9     -67   -350    129    357    379 190.9  20.7  34084  288.30 0855.29
2009/04/23 09:15:39.0    -154   -241    165    287    331 212.6  32.6  34084  288.27 0855.29
2009/04/23 09:15:39.1    -325   -218     99    392    405 236.1  14.3  34082  288.25 0855.29
2009/04/23 09:15:39.2    -145   -159    179    216    280 222.3  43.8  34078  288.19 0855.29
2009/04/23 09:15:39.3    -143   -130     72    194    206 227.8  21.3  34084  288.30 0855.29
2009/04/23 09:15:39.4    -126   -213     -3    248    249 210.7  -0.7  34088  288.36 0855.29
2009/04/23 09:15:39.5     -19   -259    -12    260    261 184.2  -2.8  34088  288.34 0855.29
2009/04/23 09:15:39.6     -14   -190      9    191    192 184.4   2.8  34086  288.33 0855.29
2009/04/23 09:15:39.7      57   -234    -23    241    243 166.2  -5.6  34088  288.34 0855.30
2009/04/23 09:15:39.8      -9   -129     10    130    131 184.4   4.4  34086  288.31 0855.30
2009/04/23 09:15:39.9      -8   -162     46    163    170 183.1  15.8  34086  288.31 0855.30
2009/04/23 09:15:40.0      63   -254     31    262    264 166.0   6.9  34084  288.29 0855.30
2009/04/23 09:15:40.1     -17   -277     13    278    279 183.6   2.8  34086  288.32 0855.30
2009/04/23 09:15:40.2      58   -310     70    316    324 169.3  12.6  34086  288.32 0855.30
2009/04/23 09:15:40.3      89   -265     90    280    295 161.3  17.9  34088  288.34 0855.30
2009/04/23 09:15:40.4     -27   -231    158    233    281 186.9  37.4  34086  288.32 0855.30
2009/04/23 09:15:40.5      -7   -189    104    190    216 182.2  31.3  34086  288.31 0855.30
2009/04/23 09:15:40.6      -4   -273    184    274    330 180.9  37.0  34084  288.27 0855.30
2009/04/23 09:15:40.7      -8   -264    177    265    318 181.8  37.0  34084  288.29 0855.30
2009/04/23 09:15:40.8      57   -260    190    267    327 167.5  39.0  34084  288.29 0855.30
2009/04/23 09:15:40.9     164   -163    189    232    299 134.9  43.7  34084  288.27 0855.30
2009/04/23 09:15:41.0     151    -16    173    152    230  96.2  54.3  34086  288.31 0855.30
2009/04/23 09:15:41.1      71     46    158     85    179  57.1  69.3  34090  288.40 0855.30
2009/04/23 09:15:41.2       6     29    129     30    132  11.6  87.0  34090  288.38 0855.30
2009/04/23 09:15:41.3      13   -146    116    147    187 174.7  42.7  34086  288.31 0855.30
2009/04/23 09:15:41.4     177   -213     84    278    291 140.3  16.8  34090  288.37 0855.30
2009/04/23 09:15:41.5      96   -229    224    249    334 157.3  46.6  34084  288.29 0855.30
2009/04/23 09:15:41.6     143   -291    190    325    376 153.7  33.0  34088  288.35 0855.30
2009/04/23 09:15:41.7     222   -241    241    328    407 137.4  39.9  34084  288.30 0855.28
2009/04/23 09:15:41.8      14   -309    250    310    398 177.4  43.0  34086  288.32 0855.28
2009/04/23 09:15:41.9      37   -242    178    245    302 171.3  39.5  34084  288.29 0855.28
2009/04/23 09:15:42.0      10    -78    164     79    182 172.0  72.8  34090  288.40 0855.28
2009/04/23 09:15:42.1     144   -162    219    217    308 138.3  50.1  34088  288.36 0855.28
2009/04/23 09:15:42.2     175   -151    214    232    315 130.7  47.6  34092  288.41 0855.28
2009/04/23 09:15:42.3     227   -197    212    301    368 130.9  38.6  34090  288.40 0855.28
2009/04/23 09:15:42.4     112   -265    219    288    361 157.1  41.2  34090  288.37 0855.28
2009/04/23 09:15:42.5     129   -232    198    266    331 151.0  40.4  34088  288.36 0855.28
2009/04/23 09:15:42.6     136   -159    231    210    312 139.5  53.0  34088  288.34 0855.28
2009/04/23 09:15:42.7      88   -152    179    176    251 149.9  50.2  34086  288.33 0855.27
2009/04/23 09:15:42.8     120   -253    224    281    359 154.5  42.6  34084  288.30 0855.27
2009/04/23 09:15:42.9      58   -306    217    312    380 169.3  38.0  34090  288.38 0855.27
2009/04/23 09:15:43.0       3   -216    203    217    297 179.1  48.0  34094  288.44 0855.27
2009/04/23 09:15:43.1       0   -256    294    257    390 180.0  54.4  34090  288.37 0855.27
2009/04/23 09:15:43.2     -56   -352    295    357    463 189.1  43.8  34090  288.38 0855.27
2009/04/23 09:15:43.3     -68   -255    334    265    426 195.1  57.6  34088  288.35 0855.27
2009/04/23 09:15:43.4    -137   -129    198    189    273 226.9  51.2  34100  288.54 0855.27
2009/04/23 09:15:43.5    -271   -234    175    359    399 229.2  28.0  34100  288.55 0855.27
2009/04/23 09:15:43.6    -332   -225     38    402    404 235.8   5.5  34098  288.51 0855.27
2009/04/23 09:15:43.7    -278   -189     51    337    341 235.8   8.7  34100  288.55 0855.27
2009/04/23 09:15:43.8    -188   -224    148    293    328 220.1  28.7  34090  288.37 0855.27
2009/04/23 09:15:43.9     103    -21    148    106    182 101.5  60.8  34090  288.38 0855.27
2009/04/23 09:15:44.0       0   -121    197    122    231 180.4  64.9  34094  288.45 0855.27
2009/04/23 09:15:44.1     -13    -76    165     78    182 189.8  73.1  34092  288.43 0855.27
2009/04/23 09:15:44.2     -15   -109    126    111    167 188.1  54.3  34092  288.43 0855.27
2009/04/23 09:15:44.3    -132   -204    247    244    347 213.0  50.4  34094  288.46 0855.27
2009/04/23 09:15:44.4    -181   -119     16    217    218 236.7   4.4  34090  288.38 0855.27
2009/04/23 09:15:44.5     -53   -157    181    166    245 198.7  53.0  34090  288.40 0855.27
2009/04/23 09:15:44.6    -103   -223    174    246    301 204.9  38.6  34090  288.39 0855.27
2009/04/23 09:15:44.7    -158   -139     77    211    224 228.7  20.9  34096  288.48 0855.26
2009/04/23 09:15:44.8     -94   -155     51    182    190 211.4  15.8  34088  288.35 0855.26
2009/04/23 09:15:44.9     -86   -216     27    233    235 201.8   6.7  34092  288.43 0855.26
2009/04/23 09:15:45.0      46   -204    -92    210    229 167.3 -29.6  34094  288.47 0855.26
2009/04/23 09:15:45.1      54   -114     30    127    131 154.6  13.7  34100  288.57 0855.26
2009/04/23 09:15:45.2     -17   -291    117    292    314 183.4  22.9  34104  288.61 0855.26
2009/04/23 09:15:45.3     -69   -167    186    181    259 202.5  50.9  34094  288.46 0855.26
2009/04/23 09:15:45.4    -170   -220     89    279    293 217.8  17.7  34100  288.54 0855.26
2009/04/23 09:15:45.5    -348   -221    -67    413    419 237.6  -9.3  34086  288.33 0855.26
2009/04/23 09:15:45.6    -369   -258      7    451    452 235.0   0.9  34094  288.46 0855.26
2009/04/23 09:15:45.7    -215   -412    -25    465    466 207.6  -3.2  34094  288.46 0855.26
2009/04/23 09:15:45.8    -204   -327     19    386    387 211.9   2.9  34100  288.54 0855.26
2009/04/23 09:15:45.9    -122   -278     -9    304    305 203.7  -1.8  34088  288.36 0855.26
2009/04/23 09:15:46.0    -132   -207     -9    246    247 212.6  -2.2  34096  288.48 0855.26
2009/04/23 09:15:46.2    -186    -89     25    207    209 244.5   7.1  34108  288.69 0855.26
2009/04/23 09:15:46.2    -126   -130     53    182    190 224.1  16.3  34102  288.58 0855.26
2009/04/23 09:15:46.3    -163     63     67    176    188 291.3  21.7  34098  288.52 0855.26
2009/04/23 09:15:46.4    -279    132     13    309    310 295.4   2.5  34094  288.44 0855.26
2009/04/23 09:15:46.5    -337    -82     48    347    351 256.3   7.9  34100  288.54 0855.26
2009/04/23 09:15:46.6    -338    -91    -45    351    354 254.9  -7.3  34088  288.35 0855.26
2009/04/23 09:15:46.7    -281    -21    -78    282    293 265.6 -15.5  34092  288.43 0855.26
2009/04/23 09:15:46.8    -281    -14    -15    282    283 267.0  -3.1  34094  288.46 0855.26
2009/04/23 09:15:46.9    -367     16    -73    368    376 272.6 -11.3  34096  288.50 0855.26
2009/04/23 09:15:47.0    -360    -28   -110    362    378 265.4 -21.8  34098  288.52 0855.26
2009/04/23 09:15:47.1    -348    -42   -112    351    368 263.0 -22.8  34100  288.55 0855.26
2009/04/23 09:15:47.2    -393     -6   -130    394    414 269.1 -23.6  34100  288.56 0855.26
2009/04/23 09:15:47.3    -347    -95   -128    360    383 254.6 -19.6  34098  288.52 0855.26
2009/04/23 09:15:47.4    -358    -40   -132    361    384 263.5 -25.4  34096  288.50 0855.26
2009/04/23 09:15:47.5    -300    -57   -139    306    336 259.2 -30.4  34096  288.49 0855.26
2009/04/23 09:15:47.6    -372    -31   -135    374    397 265.2 -25.0  34098  288.52 0855.26
2009/04/23 09:15:47.7    -363      0   -161    364    398 270.0 -29.7  34102  288.59 0855.26
2009/04/23 09:15:47.8    -375     17   -140    376    401 272.6 -25.8  34098  288.52 0855.26
2009/04/23 09:15:47.9    -396     47    -79    399    407 276.8 -11.3  34098  288.51 0855.26
2009/04/23 09:15:48.0    -311      0    -44    312    316 270.1  -8.1  34096  288.48 0855.26
2009/04/23 09:15:48.1    -243   -155    -92    289    303 237.5 -22.8  34094  288.46 0855.26
2009/04/23 09:15:48.2    -349   -138   -115    376    394 248.3 -17.0  34098  288.52 0855.26
2009/04/23 09:15:48.3    -345   -114   -110    364    380 251.6 -21.8  34098  288.52 0855.26
2009/04/23 09:15:48.4    -238    -33   -102    241    261 262.1 -28.5  34094  288.44 0855.26
2009/04/23 09:15:48.5    -326     79    -81    336    346 283.7 -13.6  34094  288.45 0855.26
2009/04/23 09:15:48.6    -237     11    -61    238    246 272.8 -14.5  34096  288.48 0855.26
2009/04/23 09:15:48.7    -390    -78   -152    398    426 258.6 -26.4  34102  288.58 0855.26
2009/04/23 09:15:48.8    -420   -105   -154    434    460 255.9 -24.7  34094  288.46 0855.26
2009/04/23 09:15:48.9    -365    -84   -171    375    412 257.0 -30.6  34100  288.54 0855.26
2009/04/23 09:15:49.0    -337   -131   -127    362    384 248.7 -19.4  34100  288.54 0855.26
2009/04/23 09:15:49.1    -266    -45   -118    270    294 260.3 -29.5  34096  288.49 0855.26
2009/04/23 09:15:49.2    -190     38   -134    194    235 281.4 -42.4  34108  288.70 0855.26
2009/04/23 09:15:49.3    -331    -73   -159    340    375 257.5 -31.4  34102  288.60 0855.26
2009/04/23 09:15:49.4    -297    -55   -183    303    353 259.4 -38.4  34100  288.57 0855.26
2009/04/23 09:15:49.5    -269    -16   -220    270    348 266.5 -48.0  34104  288.61 0855.26
2009/04/23 09:15:49.6    -216     46    -71    221    233 282.2 -17.9  34104  288.64 0855.26
2009/04/23 09:15:49.8    -184     83    -47    203    209 294.4 -13.2  34104  288.62 0855.26
2009/04/23 09:15:49.8    -133     58    -70    146    161 293.5 -31.8  34106  288.67 0855.26
2009/04/23 09:15:49.9    -158     -3    -32    159    163 268.7 -11.6  34106  288.67 0855.26
2009/04/23 09:15:50.0    -214    -46    -31    219    222 257.8  -8.2  34104  288.64 0855.26
2009/04/23 09:15:50.1    -218      1    -69    219    229 270.4 -22.8  34108  288.70 0855.26
2009/04/23 09:15:50.2    -279     12    -56    280    286 272.6 -11.3  34114  288.78 0855.26
2009/04/23 09:15:50.3    -250    -13     -9    251    252 267.0  -2.2  34114  288.80 0855.26
2009/04/23 09:15:50.4    -221     17    -59    222    230 274.6 -15.0  34116  288.84 0855.26
2009/04/23 09:15:50.5    -212     43    -68    217    228 281.5 -17.5  34118  288.86 0855.26
2009/04/23 09:15:50.6    -358    -16   -113    359    376 267.3 -22.5  34108  288.69 0855.26
2009/04/23 09:15:50.7    -314    -63   -105    321    338 258.6 -18.2  34100  288.57 0855.26
2009/04/23 09:15:50.8    -313    -63   -105    320    336 258.5 -23.5  34110  288.74 0855.26
2009/04/23 09:15:50.9    -282    -58    -84    289    300 258.3 -21.0  34110  288.71 0855.26
2009/04/23 09:15:51.0    -269    -50    -45    274    278 259.4  -9.3  34106  288.65 0855.26
2009/04/23 09:15:51.1    -197     71    -72    210    223 289.9 -19.1  34100  288.57 0855.26
2009/04/23 09:15:51.2    -207     69    -78    219    233 288.6 -19.6  34106  288.65 0855.26
2009/04/23 09:15:51.3    -220      4    -95    221    240 271.3 -29.3  34108  288.68 0855.26
2009/04/23 09:15:51.4    -153     81     23    174    176 297.8   7.8  34106  288.65 0855.26
2009/04/23 09:15:51.5    -171     40     11    176    177 283.3   3.8  34110  288.74 0855.26
2009/04/23 09:15:51.6    -252    -31    -92    255    271 262.8 -24.6  34112  288.75 0855.26
2009/04/23 09:15:51.7    -246    -59    -32    254    257 256.5  -7.2  34104  288.61 0855.26
2009/04/23 09:15:51.8    -271    -39    -13    274    275 261.6  -2.8  34114  288.80 0855.26
2009/04/23 09:15:51.9    -255    -77    -84    267    280 253.2 -17.5  34108  288.70 0855.26
2009/04/23 09:15:52.0    -230    -75    -96    243    261 251.8 -27.2  34106  288.66 0855.26
2009/04/23 09:15:52.1    -267    -84    -99    280    296 252.5 -24.4  34110  288.71 0855.26
2009/04/23 09:15:52.2    -277    -75    -79    288    299 254.7 -15.5  34108  288.70 0855.26
2009/04/23 09:15:52.3    -307    -18   -110    308    327 266.5 -24.7  34112  288.76 0855.26
2009/04/23 09:15:52.4    -165     90     66    189    201 298.6  19.2  34116  288.84 0855.26
2009/04/23 09:15:52.5    -163     91     71    187    200 299.3  21.5  34120  288.91 0855.26
2009/04/23 09:15:52.6    -213    110     20    240    241 297.3   4.9  34126  289.00 0855.26
2009/04/23 09:15:52.7    -201    122     20    236    237 301.3   5.0  34142  289.25 0855.26
2009/04/23 09:15:52.9    -190    118     27    224    226 301.8   6.9  34136  289.16 0855.26
2009/04/23 09:15:53.0    -146     87    -22    171    173 300.9  -7.3  34130  289.06 0855.26
2009/04/23 09:15:53.1    -161     21    -45    163    169 277.5 -20.2  34122  288.94 0855.26
2009/04/23 09:15:53.2    -178     50     -7    186    187 285.9  -2.2  34118  288.86 0855.26
2009/04/23 09:15:53.3    -147     44      2    154    155 286.8   0.8  34122  288.94 0855.26
2009/04/23 09:15:53.4    -131     83     -4    156    157 302.5  -1.8  34128  289.02 0855.26
2009/04/23 09:15:53.5     -79    124     19    148    150 327.5   7.5  34138  289.21 0855.26
2009/04/23 09:15:53.6     -53    132     39    143    149 338.1  15.3  34134  289.13 0855.26
2009/04/23 09:15:53.7     -69    123     22    142    144 330.6   9.0  34134  289.14 0855.26
2009/04/23 09:15:53.8     -94     52      0    108    109 298.9  -0.3  34136  289.16 0855.26
2009/04/23 09:15:53.9    -163     31    -61    167    177 281.0 -25.4  34132  289.09 0855.26
2009/04/23 09:15:54.0    -212      0    -52    213    220 270.0 -13.9  34130  289.08 0855.26
2009/04/23 09:15:54.1    -122     -8    -39    123    130 266.1 -17.6  34134  289.14 0855.26
2009/04/23 09:15:54.2    -130      0      5    131    132 270.0   2.3  34134  289.13 0855.26
2009/04/23 09:15:54.3    -112     43    -21    121    123 291.3 -10.3  34134  289.13 0855.26
2009/04/23 09:15:54.4    -136     64    -36    151    156 295.4 -13.7  34124  288.96 0855.26
2009/04/23 09:15:54.5    -137     35    -50    142    150 284.6 -23.8  34126  289.01 0855.26
2009/04/23 09:15:54.6    -108      0    -37    109    116 270.0 -18.7  34140  289.24 0855.26
2009/04/23 09:15:54.7    -113    -15    -39    115    121 262.1 -23.3  34136  289.18 0855.26
2009/04/23 09:15:54.8    -131    -39    -74    137    155 253.1 -35.7  34134  289.13 0855.28
2009/04/23 09:15:54.9    -118    -16    -70    120    138 262.1 -37.8  34134  289.13 0855.28
2009/04/23 09:15:55.0    -118      2   -114    119    164 271.3 -53.6  34142  289.26 0855.28
2009/04/23 09:15:55.1     -84    -17   -101     86    132 258.5 -59.8  34140  289.23 0855.28
2009/04/23 09:15:55.2      30     64    -84     72    110  25.5 -59.8  34138  289.19 0855.28
2009/04/23 09:15:55.3      41     48    -93     64    112  40.5 -66.5  34142  289.26 0855.28
2009/04/23 09:15:55.4      77     59    -54     98    111  52.7 -35.8  34138  289.19 0855.28
2009/04/23 09:15:55.5     112     77    -61    137    149  55.4 -30.1  34122  288.94 0855.28
2009/04/23 09:15:55.6     131    127    -24    183    185  45.8  -7.7  34106  288.65 0855.28
2009/04/23 09:15:55.7     120     85     83    148    169  54.5  31.9  34110  288.72 0855.28
2009/04/23 09:15:55.8     150    144     71    209    221  46.2  18.9  34108  288.70 0855.28
2009/04/23 09:15:55.9      93    170      0    194    195  28.7   0.2  34114  288.80 0855.28
2009/04/23 09:15:56.0      87     39     22     96     99  66.0  13.2  34114  288.80 0855.28
2009/04/23 09:15:56.1     131    -20     83    133    156  98.8  35.0  34110  288.74 0855.28
2009/04/23 09:15:56.2     152    -16     68    153    167  96.2  25.7  34114  288.79 0855.28
2009/04/23 09:15:56.3     156     70     42    172    178  65.8  13.9  34118  288.87 0855.28
2009/04/23 09:15:56.4     231    112     48    257    262  64.0  10.6  34116  288.83 0855.28
2009/04/23 09:15:56.5     225    106     83    249    263  64.7  18.6  34118  288.85 0855.28
2009/04/23 09:15:56.6     248     81    -27    262    264  71.8  -6.1  34118  288.85 0855.28
2009/04/23 09:15:56.7     234     65      3    244    245  74.3   0.8  34116  288.83 0855.28
2009/04/23 09:15:56.8     127    147    -12    195    196  41.0  -3.7  34118  288.86 0855.29
2009/04/23 09:15:56.9     206    113     51    236    242  61.2  12.4  34114  288.80 0855.29
2009/04/23 09:15:57.0     105    199    100    226    247  27.9  25.3  34114  288.80 0855.29
2009/04/23 09:15:57.1      99    167     91    195    215  30.7  27.1  34108  288.69 0855.29
2009/04/23 09:15:57.2      95    133    104    164    194  35.6  35.5  34106  288.67 0855.29
2009/04/23 09:15:57.3      52    143    126    153    198  20.1  43.7  34112  288.77 0855.29
2009/04/23 09:15:57.4     -14    129    107    130    168 353.7  43.7  34118  288.87 0855.29
2009/04/23 09:15:57.5     -24     87     58     91    107 344.4  35.5  34130  289.08 0855.29
2009/04/23 09:15:57.6     -45    113    105    122    160 338.2  45.4  34160  289.57 0855.29
2009/04/23 09:15:57.7     -33     99    143    105    177 341.5  60.3  34164  289.65 0855.29
2009/04/23 09:15:57.8     -10    150     11    151    152 356.0   4.4  34132  289.11 0855.29
2009/04/23 09:15:57.9      -9    127     12    128    129 355.5   5.4  34124  288.96 0855.29
2009/04/23 09:15:58.0     -63    133     36    148    153 334.6  13.9  34158  289.55 0855.29
2009/04/23 09:15:58.1     -56    104      1    119    120 331.9   0.8  34172  289.77 0855.29
2009/04/23 09:15:58.2     -49     78      6     93     94 327.9   3.8  34176  289.85 0855.29
2009/04/23 09:15:58.3     -49     93     71    106    127 332.4  37.0  34178  289.87 0855.29
2009/04/23 09:15:58.4    -166     27    -14    169    170 279.2  -4.9  34178  289.87 0855.29
2009/04/23 09:15:58.5    -171     57    -36    181    185 288.4 -11.3  34158  289.55 0855.29
2009/04/23 09:15:58.6    -133     82    -47    157    165 301.5 -16.8  34146  289.33 0855.29
2009/04/23 09:15:58.7    -122     94    -35    155    160 307.7 -12.9  34146  289.35 0855.29
2009/04/23 09:15:58.8    -119     32    -69    124    141 285.1 -35.8  34126  288.99 0855.29
2009/04/23 09:15:58.9    -104     41    -46    113    122 291.8 -27.4  34138  289.19 0855.29
2009/04/23 09:15:59.0    -172    -37    -58    177    187 257.8 -18.3  34144  289.30 0855.29
2009/04/23 09:15:59.1    -155    -24    -54    157    167 261.0 -18.9  34154  289.46 0855.29
2009/04/23 09:15:59.2    -141      2    -44    142    149 270.9 -17.5  34156  289.50 0855.29
2009/04/23 09:15:59.3    -142     38    -70    148    163 285.0 -31.6  34154  289.46 0855.29
2009/04/23 09:15:59.4    -115      3    -50    116    126 271.7 -29.5  34130  289.08 0855.29
2009/04/23 09:15:59.5     -67     20    -24     70     74 286.8 -23.3  34136  289.16 0855.29
2009/04/23 09:15:59.6     -52    -10    -19     54     58 258.6 -19.6  34138  289.21 0855.29
2009/04/23 09:15:59.7     -50    -12     -3     52     53 255.8  -4.1  34140  289.23 0855.29
2009/04/23 09:15:59.8     -68     -8     23     69     73 263.0  18.9  34160  289.58 0855.29
2009/04/23 09:15:59.9     -26      6     55     27     61 283.3  72.8  34160  289.58 0855.29
2009/04/23 09:16:00.0     -35     42     26     55     60 320.4  27.2  34166  289.67 0855.29
2009/04/23 09:16:00.1     -57     15     32     60     68 285.1  31.3  34170  289.75 0855.29
2009/04/23 09:16:00.2     -70      5     41     71     81 274.3  32.9  34172  289.77 0855.29
2009/04/23 09:16:00.3     -49     10     33     51     60 282.4  35.6  34174  289.80 0855.29
2009/04/23 09:16:00.4     -42      0     40     43     58 270.0  49.0  34172  289.79 0855.29
2009/04/23 09:16:00.5     -52    -21     57     57     80 247.4  50.1  34184  289.97 0855.29
2009/04/23 09:16:00.6     -55    -42     49     70     85 232.2  38.0  34194  290.14 0855.29
2009/04/23 09:16:00.7     -89    -48     48    102    112 241.6  27.1  34198  290.23 0855.29
2009/04/23 09:16:00.8     -60    -23     64     65     91 249.2  50.0  34194  290.14 0855.29
2009/04/23 09:16:00.9     -48    -33     56     59     81 235.8  48.5  34192  290.11 0855.29
2009/04/23 09:16:01.0     -46    -56     43     73     84 219.7  34.0  34186  290.02 0855.29
2009/04/23 09:16:01.1     -11    -52     83     54     99 192.5  64.1  34184  289.97 0855.29
2009/04/23 09:16:01.2     -10    -99     56    100    114 185.8  31.9  34174  289.80 0855.29
2009/04/23 09:16:01.3     -13   -102    115    103    154 187.6  53.7  34178  289.89 0855.29
2009/04/23 09:16:01.4     -63    -59    152     87    175 226.9  67.5  34172  289.77 0855.29
2009/04/23 09:16:01.5    -111   -127     97    170    195 221.2  32.4  34176  289.84 0855.29
2009/04/23 09:16:01.6     -60   -124    139    138    195 205.9  50.1  34156  289.50 0855.29
2009/04/23 09:16:01.7     -41   -124    130    131    184 198.7  50.2  34154  289.46 0855.29
2009/04/23 09:16:01.8     -72   -128    127    148    195 209.4  44.8  34192  290.13 0855.29
2009/04/23 09:16:01.9     -82   -100     97    130    162 219.6  40.7  34206  290.36 0855.29
2009/04/23 09:16:02.0     -53    -83     91     99    134 212.6  47.9  34194  290.14 0855.29
2009/04/23 09:16:02.1     -39    -21    103     45    112 241.1  75.0  34158  289.55 0855.29
2009/04/23 09:16:02.2      10    -58    112     59    126 170.2  70.4  34136  289.18 0855.29
2009/04/23 09:16:02.3     -69    -61    109     93    143 228.2  54.8  34134  289.13 0855.29
2009/04/23 09:16:02.4    -146    -74    113    164    199 242.9  37.8  34132  289.09 0855.29
2009/04/23 09:16:02.5    -173     47    107    180    209 285.3  33.5  34128  289.02 0855.29
2009/04/23 09:16:02.6    -159    -27     85    162    182 260.4  30.1  34140  289.23 0855.29
2009/04/23 09:16:02.7    -174    -18     56    176    185 263.9  17.7  34138  289.19 0855.29
2009/04/23 09:16:02.8    -172    130     76    216    228 307.1  20.0  34126  288.99 0855.28
2009/04/23 09:16:02.9    -165    127    134    209    248 307.7  35.6  34138  289.20 0855.28
2009/04/23 09:16:03.0    -122    133    110    181    211 317.5  34.4  34156  289.50 0855.28
2009/04/23 09:16:03.1     -88    149     86    174    194 329.3  28.0  34158  289.53 0855.28
2009/04/23 09:16:03.2     -77    119     91    143    169 327.0  35.5  34160  289.58 0855.28
2009/04/23 09:16:03.3      18    112     62    114    129   9.3  31.3  34168  289.72 0855.28
2009/04/23 09:16:03.4     -50    137     70    146    161 340.0  27.4  34164  289.63 0855.28
2009/04/23 09:16:03.5     -89    139     85    166    186 327.5  29.1  34164  289.63 0855.28
2009/04/23 09:16:03.6     -53    165     61    174    185 342.2  19.6  34162  289.60 0855.28
2009/04/23 09:16:03.7     -11    151     78    152    170 355.6  29.3  34154  289.48 0855.28
2009/04/23 09:16:03.8     -22    160    102    162    191 351.9  35.5  34158  289.53 0855.25
2009/04/23 09:16:03.9     -22    134     94    136    165 350.7  38.0  34166  289.67 0855.25
2009/04/23 09:16:04.0     -18    144     99    146    176 352.9  37.3  34170  289.74 0855.25
2009/04/23 09:16:04.1      -2    160     92    161    185 359.0  32.4  34172  289.79 0855.25
2009/04/23 09:16:04.2      47    159     79    166    183  16.5  27.2  34178  289.87 0855.25
2009/04/23 09:16:04.3      57     79     90     98    133  35.6  47.9  34168  289.70 0855.25
2009/04/23 09:16:04.4      87     72     91    114    145  50.4  42.7  34174  289.80 0855.25
2009/04/23 09:16:04.5      41     97     81    106    133  23.2  41.6  34174  289.80 0855.25
2009/04/23 09:16:04.6     -53    115     39    127    134 335.1  17.3  34194  290.14 0855.25
2009/04/23 09:16:04.7     -10    139     11    140    141 355.5   4.9  34190  290.08 0855.25
2009/04/23 09:16:04.8      -6    122     85    123    149 356.9  38.0  34200  290.25 0855.25
2009/04/23 09:16:04.9     -43     77     92     89    128 331.0  50.7  34210  290.43 0855.25
2009/04/23 09:16:05.0      74     67     96    101    139  47.8  48.5  34196  290.19 0855.25
2009/04/23 09:16:05.1     -69    115     86    135    160 328.8  35.5  34196  290.19 0855.25
2009/04/23 09:16:05.2     -74     79      0    109    110 316.8   0.2  34206  290.36 0855.25
2009/04/23 09:16:05.3     -26     45    -20     53     56 330.1 -24.4  34202  290.30 0855.25
2009/04/23 09:16:05.4       7     36    -26     37     45  11.6 -42.0  34204  290.31 0855.25
2009/04/23 09:16:05.5      26     26    -22     37     43  45.0 -37.9  34210  290.43 0855.25
2009/04/23 09:16:05.6      26     21     -1     34     35  50.4  -2.2  34200  290.26 0855.25
2009/04/23 09:16:05.7      63     35     10     73     74  61.1   8.0  34190  290.09 0855.25
2009/04/23 09:16:05.8      54     39     -8     67     68  54.1  -7.3  34196  290.19 0855.25
2009/04/23 09:16:05.9      24     35      3     43     44  34.3   4.9  34200  290.26 0855.25
2009/04/23 09:16:06.0      -6     26     20     27     33 346.6  41.7  34206  290.35 0855.25
2009/04/23 09:16:06.1     -82     44      8     94     95 298.4   4.9  34202  290.30 0855.25
2009/04/23 09:16:06.2    -126    135    -37    186    190 317.0 -11.3  34194  290.16 0855.25
2009/04/23 09:16:06.3    -215    133    -33    253    256 301.8  -7.5  34212  290.44 0855.25
2009/04/23 09:16:06.4    -224    157     -3    274    275 305.1  -0.7  34212  290.46 0855.25
2009/04/23 09:16:06.5    -199    149     16    249    250 306.9   3.8  34220  290.59 0855.25
2009/04/23 09:16:06.6    -159    129     72    206    219 309.1  19.4  34208  290.40 0855.25
2009/04/23 09:16:06.7    -104     91     -5    139    140 311.3  -2.2  34172  289.79 0855.25
2009/04/23 09:16:06.8     -79     53     51     96    108 303.7  30.3  34160  289.58 0855.25
2009/04/23 09:16:06.9     -58     70    108     92    141 320.4  55.4  34192  290.11 0855.25
2009/04/23 09:16:07.0     -64     62     99     90    133 314.0  52.7  34204  290.31 0855.25
2009/04/23 09:16:07.1    -109     88     97    141    171 309.1  37.8  34218  290.57 0855.25
2009/04/23 09:16:07.2    -115     74     65    137    151 302.9  27.2  34250  291.11 0855.25
2009/04/23 09:16:07.3     -66     35     90     75    117 298.0  56.3  34216  290.52 0855.25
2009/04/23 09:16:07.4     -51      6     79     52     94 277.0  64.6  34212  290.45 0855.25
2009/04/23 09:16:07.5     -49     37     59     62     85 306.9  49.0  34200  290.26 0855.25
2009/04/23 09:16:07.6      18     20    113     28    116  41.4  86.4  34202  290.28 0855.25
2009/04/23 09:16:07.7      64     -8     57     65     86  97.9  46.4  34196  290.19 0855.25
2009/04/23 09:16:07.8      70     24     69     75    101  70.9  47.9  34202  290.28 0855.27
2009/04/23 09:16:07.9     108     68    -46    128    136  57.6 -24.8  34202  290.28 0855.27
2009/04/23 09:16:08.0      78    102    -24    129    132  37.4 -10.9  34204  290.31 0855.27
2009/04/23 09:16:08.1      79     -9     43     80     90  97.0  30.3  34204  290.31 0855.27
2009/04/23 09:16:08.2       9    -61     47     62     77 171.1  40.7  34194  290.16 0855.27
2009/04/23 09:16:08.3      65    -41     99     78    126 122.4  57.9  34180  289.92 0855.27
2009/04/23 09:16:08.4      27    -39     65     48     80 144.8  60.0  34168  289.72 0855.27
2009/04/23 09:16:08.5      80    -57    115     99    151 125.5  54.8  34164  289.65 0855.27
2009/04/23 09:16:08.6      64   -108    127    126    178 149.2  50.1  34166  289.69 0855.27
2009/04/23 09:16:08.7     124     -5    174    125    214  92.6  60.8  34164  289.65 0855.27
2009/04/23 09:16:08.8      91    -26    188     95    210 106.4  71.4  34158  289.55 0855.27
2009/04/23 09:16:08.9     -11     -3    171     12    171 251.6  90.0  34166  289.67 0855.27
2009/04/23 09:16:09.0      18     11    108     22    110  57.6  89.0  34156  289.52 0855.27
2009/04/23 09:16:09.1      19    -19    175     27    177 135.0  90.0  34152  289.43 0855.27
2009/04/23 09:16:09.2      41    -47    110     63    126 138.6  67.7  34160  289.58 0855.27
2009/04/23 09:16:09.3      81    -12    211     82    226  98.8  77.6  34142  289.28 0855.27
2009/04/23 09:16:09.4      13    128    125    129    179   5.8  49.2  34154  289.48 0855.27
2009/04/23 09:16:09.5     200    161    236    257    348  51.1  47.6  34152  289.42 0855.27
2009/04/23 09:16:09.6      37    145    194    150    245  14.3  58.4  34178  289.87 0855.27
2009/04/23 09:16:09.7       0     28    156     29    158 359.1  90.0  34166  289.67 0855.27
2009/04/23 09:16:09.8      49    190    262    197    327  14.5  59.3  34166  289.66 0855.29
2009/04/23 09:16:09.9      95    293    250    309    397  18.0  43.0  34158  289.55 0855.29
2009/04/23 09:16:10.0     -75    316    257    325    414 346.6  42.4  34172  289.79 0855.29
2009/04/23 09:16:10.1      86    162    236    184    299  28.1  58.4  34154  289.46 0855.29
2009/04/23 09:16:10.2     191    197    214    275    348  44.1  42.0  34134  289.14 0855.29
2009/04/23 09:16:10.3     185    165    178    249    306  48.2  39.3  34160  289.58 0855.29
2009/04/23 09:16:10.4     148    148    203    210    292  45.0  49.0  34158  289.53 0855.29
2009/04/23 09:16:10.5      33    319    242    321    402   6.0  40.8  34194  290.15 0855.29
2009/04/23 09:16:10.6     136    136    123    193    228  44.9  35.6  34162  289.62 0855.29
2009/04/23 09:16:10.7     132    171     47    217    223  37.6  12.4  34154  289.48 0855.29
2009/04/23 09:16:10.8     -11    152    -13    153    154 355.6  -5.2  34166  289.69 0855.29
2009/04/23 09:16:10.9      83     68     87    108    138  50.4  43.3  34156  289.52 0855.29
2009/04/23 09:16:11.0      76    139    109    159    192  28.9  37.6  34154  289.46 0855.29
2009/04/23 09:16:11.1      42    218      4    223    224  10.9   1.2  34154  289.48 0855.29
2009/04/23 09:16:11.2      86    182    137    202    244  25.3  37.4  34152  289.43 0855.29
2009/04/23 09:16:11.3     151    142    135    208    247  46.8  36.0  34158  289.53 0855.29
2009/04/23 09:16:11.4     225     70    121    236    265  72.7  29.2  34166  289.66 0855.29
2009/04/23 09:16:11.5      67     96     82    118    143  34.7  38.0  34170  289.74 0855.29
2009/04/23 09:16:11.6     142    120    154    187    242  49.8  43.7  34184  289.97 0855.29
2009/04/23 09:16:11.7     125    102    136    162    211  50.9  44.3  34174  289.82 0855.29
2009/04/23 09:16:11.8     116    134    196    178    264  41.0  53.2  34158  289.54 0855.26
2009/04/23 09:16:11.9     159    155    146    223    266  45.8  36.3  34172  289.76 0855.26
2009/04/23 09:16:12.0     149    206      7    255    256  35.8   1.8  34176  289.85 0855.26
2009/04/23 09:16:12.1     189    188     85    267    281  45.1  17.7  34182  289.93 0855.26
2009/04/23 09:16:12.2     144     82    160    167    231  60.2  48.7  34156  289.50 0855.26
2009/04/23 09:16:12.3      53     52    158     75    174  45.1  72.9  34162  289.62 0855.26
2009/04/23 09:16:12.4      18     -1    113     19    114  94.3  90.0  34160  289.57 0855.26
2009/04/23 09:16:12.5      29     29     77     42     87  45.1  69.3  34160  289.57 0855.26
2009/04/23 09:16:12.6      -3     14     54     15     56 348.4  83.9  34156  289.50 0855.26
2009/04/23 09:16:12.7      -5     69     41     70     81 355.5  32.9  34158  289.55 0855.26
2009/04/23 09:16:12.8     -45    118     37    127    133 339.1  16.3  34170  289.75 0855.26
2009/04/23 09:16:12.9     -46     81     27     94     98 330.6  16.3  34178  289.87 0855.26
2009/04/23 09:16:13.0    -120     76      5    143    144 302.4   2.3  34178  289.89 0855.26
2009/04/23 09:16:13.1    -123     52     46    134    142 293.1  18.9  34182  289.94 0855.26
2009/04/23 09:16:13.2     -15     61    -16     63     66 345.7 -14.5  34182  289.94 0855.26
2009/04/23 09:16:13.3      57     52    -25     78     81  47.8 -22.8  34172  289.79 0855.26
2009/04/23 09:16:13.4      86      0     74     87    114  89.6  44.8  34172  289.77 0855.26
2009/04/23 09:16:13.5     223    -10     65    224    234  92.8  16.3  34164  289.65 0855.26
2009/04/23 09:16:13.6     135     45    158    143    213  71.6  53.3  34192  290.11 0855.26
2009/04/23 09:16:13.7     -46    -49     92     68    114 223.2  60.5  34174  289.80 0855.26
2009/04/23 09:16:13.8       4    -26    148     27    150 170.2  90.0  34168  289.72 0855.25
2009/04/23 09:16:13.9     -64    -62    106     90    139 226.0  55.8  34160  289.58 0855.25
2009/04/23 09:16:14.0    -152   -184     95    239    257 219.6  23.0  34158  289.53 0855.25
2009/04/23 09:16:14.1    -105   -250    130    272    301 202.7  27.3  34154  289.47 0855.25
2009/04/23 09:16:14.2     -83   -311    130    322    347 195.1  23.1  34152  289.42 0855.25
2009/04/23 09:16:14.3     -25   -349    131    350    373 184.2  21.5  34150  289.40 0855.25
2009/04/23 09:16:14.4     -98   -272     56    290    296 200.0  11.0  34150  289.39 0855.25
2009/04/23 09:16:14.5     -70   -317     99    325    340 192.6  17.0  34146  289.32 0855.25
2009/04/23 09:16:14.6     -65   -279    135    287    317 193.3  27.1  34148  289.37 0855.25
2009/04/23 09:16:14.7     -89   -263    132    278    307 198.7  27.3  34152  289.44 0855.25
2009/04/23 09:16:14.8    -134   -325    163    352    387 202.5  26.9  34152  289.43 0855.25
2009/04/23 09:16:14.9    -154   -253    214    297    366 211.4  39.3  34148  289.37 0855.25
2009/04/23 09:16:15.0     -89   -246    239    262    354 200.0  47.0  34146  289.34 0855.25
2009/04/23 09:16:15.1     -68   -300    259    308    402 192.9  44.3  34146  289.35 0855.25
2009/04/23 09:16:15.2     -66   -331    205    338    395 191.3  34.1  34148  289.37 0855.25
2009/04/23 09:16:15.3     -50   -367    180    371    412 187.8  27.8  34142  289.28 0855.25
2009/04/23 09:16:15.4     -90   -380    212    391    444 193.4  30.8  34136  289.17 0855.25
2009/04/23 09:16:15.5     -71   -327    212    335    396 192.4  35.3  34142  289.26 0855.25
2009/04/23 09:16:15.6     -44   -349    205    352    407 187.2  32.9  34136  289.18 0855.25
2009/04/23 09:16:15.7     -47   -248    157    253    297 190.9  35.0  34122  288.92 0855.25
2009/04/23 09:16:15.8     -21   -213    123    215    247 185.8  32.4  34122  288.92 0855.26
2009/04/23 09:16:15.9    -101   -232    103    254    274 203.6  23.1  34122  288.93 0855.26
2009/04/23 09:16:16.0    -121    -99    136    157    207 230.5  45.6  34126  288.99 0855.26
2009/04/23 09:16:16.1     -83   -208     48    225    231 201.9  12.2  34124  288.97 0855.26
2009/04/23 09:16:16.2    -119   -105     65    160    172 228.6  23.0  34128  289.04 0855.26
2009/04/23 09:16:16.3    -134   -231     42    268    272 210.1   8.9  34128  289.03 0855.26
2009/04/23 09:16:16.4    -193   -192     37    273    276 225.1   7.8  34128  289.03 0855.26
2009/04/23 09:16:16.5       0   -128     47    129    137 180.0  21.0  34124  288.96 0855.26
2009/04/23 09:16:16.6      70   -176    164    190    250 158.2  45.4  34110  288.73 0855.26
2009/04/23 09:16:16.7      15   -149    138    150    203 174.2  47.9  34100  288.57 0855.26
2009/04/23 09:16:16.8     110   -191     95    221    240 149.9  24.9  34104  288.63 0855.26
2009/04/23 09:16:16.9      45   -288      8    292    293 171.1   1.7  34120  288.88 0855.26
2009/04/23 09:16:17.0      -5   -296     47    297    301 181.0   9.0  34110  288.71 0855.26
2009/04/23 09:16:17.1       5   -259     52    260    266 178.9  11.4  34102  288.58 0855.26
2009/04/23 09:16:17.3     -25   -208     70    210    222 186.9  18.6  34106  288.67 0855.26
2009/04/23 09:16:17.3      -7   -244     73    245    256 181.8  16.8  34106  288.65 0855.26
2009/04/23 09:16:17.4     -12   -278     93    279    295 182.6  18.4  34096  288.48 0855.26
2009/04/23 09:16:17.5      11   -329     20    330    331 178.0   3.6  34090  288.38 0855.26
2009/04/23 09:16:17.6     -32   -288    -26    290    292 186.5  -5.2  34092  288.41 0855.26
2009/04/23 09:16:17.7       7   -321    -12    322    323 178.6  -2.2  34080  288.22 0855.26
2009/04/23 09:16:17.8    -117   -293    -12    316    317 201.9  -2.2  34074  288.12 0855.26
2009/04/23 09:16:17.9     -61   -201     57    211    219 196.9  15.3  34082  288.25 0855.26
2009/04/23 09:16:18.0     -10    -86    112     87    141 186.7  58.4  34086  288.31 0855.26
2009/04/23 09:16:18.1      16    -65    120     68    137 165.7  68.3  34090  288.38 0855.26
2009/04/23 09:16:18.2      71    -24     89     76    117 109.1  55.4  34092  288.43 0855.26
2009/04/23 09:16:18.3      49    -61    112     79    137 141.3  61.1  34098  288.52 0855.26
2009/04/23 09:16:18.4      79    -94    110    123    165 139.9  46.6  34096  288.48 0855.26
2009/04/23 09:16:18.5      52   -129    135    140    194 158.2  49.2  34102  288.58 0855.26
2009/04/23 09:16:18.6      31    -49     93     59    110 147.4  64.7  34100  288.57 0855.26
2009/04/23 09:16:18.7      12     15     70     20     72  39.6  83.9  34096  288.48 0855.26
2009/04/23 09:16:18.8      72     12    121     74    141  80.3  65.7  34094  288.47 0855.26
2009/04/23 09:16:18.9      87    -65    149    109    184 126.9  60.5  34094  288.47 0855.26
2009/04/23 09:16:19.0     167   -167    219    237    322 134.9  47.6  34082  288.26 0855.26
2009/04/23 09:16:19.1      78   -242    150    255    295 162.0  33.4  34082  288.24 0855.26
2009/04/23 09:16:19.2      82   -221     78    237    250 159.5  18.4  34088  288.34 0855.26
2009/04/23 09:16:19.3     -37    -81     23     90     94 204.5  14.7  34088  288.35 0855.26
2009/04/23 09:16:19.4     -40    -87     41     97    105 204.9  24.1  34088  288.35 0855.26
2009/04/23 09:16:19.5      57   -141     73    153    169 158.1  27.3  34080  288.23 0855.26
2009/04/23 09:16:19.6     107   -269     57    290    296 158.2  11.1  34078  288.19 0855.26
2009/04/23 09:16:19.7     133   -280     61    311    317 154.5  11.1  34078  288.19 0855.26
2009/04/23 09:16:19.8      93   -212     90    232    248 156.2  22.1  34076  288.14 0855.26
2009/04/23 09:16:19.9      51   -155    133    164    211 161.7  43.5  34072  288.09 0855.26
2009/04/23 09:16:20.0     123   -169    148    210    256 143.9  38.6  34080  288.22 0855.26
2009/04/23 09:16:20.1     111   -153    115    190    222 144.0  34.2  34080  288.23 0855.26
2009/04/23 09:16:20.2      71    -54    101     90    135 127.3  54.2  34082  288.26 0855.26
2009/04/23 09:16:20.3     155    -64    160    168    232 112.6  48.5  34082  288.26 0855.26
2009/04/23 09:16:20.4     107     -2    165    108    197  91.3  63.9  34082  288.26 0855.26
2009/04/23 09:16:20.5     -41     26    127     49    136 302.4  78.2  34080  288.23 0855.26
2009/04/23 09:16:20.7     -14   -129    190    130    230 186.3  62.6  34078  288.18 0855.26
2009/04/23 09:16:20.8     -22   -128    113    130    172 189.8  45.6  34080  288.21 0855.26
2009/04/23 09:16:20.9     -91    -54     31    107    112 239.3  16.3  34078  288.20 0855.26
2009/04/23 09:16:21.0     -82      3    -20     83     86 272.1 -13.9  34078  288.20 0855.26
2009/04/23 09:16:21.1     -66     12    -64     68     93 280.6 -53.4  34078  288.18 0855.26
2009/04/23 09:16:21.2      -3    -40    -18     41     44 185.3 -28.5  34078  288.20 0855.26
2009/04/23 09:16:21.3      31    -31      2     44     45 135.0   2.9  34076  288.16 0855.26
2009/04/23 09:16:21.4      40    -58    -14     71     73 144.8 -11.3  34078  288.18 0855.26
2009/04/23 09:16:21.5      23    -59    -23     64     68 158.1 -23.3  34070  288.06 0855.26
2009/04/23 09:16:21.6      90     22     -3     93     94  75.8  -2.2  34074  288.11 0855.26
2009/04/23 09:16:21.7      56     17     16     59     62  73.2  15.2  34078  288.20 0855.26
2009/04/23 09:16:21.8      -1    -22    -19     23     29 182.7 -48.1  34080  288.23 0855.26
2009/04/23 09:16:21.9      -7    -35    -31     36     47 191.6 -50.2  34082  288.25 0855.26
2009/04/23 09:16:22.0      -5    -17    -27     18     32 198.7 -69.0  34080  288.21 0855.26
2009/04/23 09:16:22.1      51      3      3     52     53  86.5   3.8  34078  288.18 0855.26
2009/04/23 09:16:22.2     108     44     27    117    121  67.4  13.2  34078  288.18 0855.26
2009/04/23 09:16:22.3     147     48     18    155    157  71.8   6.7  34078  288.18 0855.26
2009/04/23 09:16:22.4     259     17    -51    260    266  86.1 -11.1  34078  288.19 0855.26
2009/04/23 09:16:22.5     280      9     77    281    292  88.1  15.3  34074  288.10 0855.26
2009/04/23 09:16:22.6     261    -94    -27    278    280 110.0  -5.6  34076  288.14 0855.26
2009/04/23 09:16:22.7     275   -122     47    302    306 114.0   9.0  34078  288.19 0855.26
2009/04/23 09:16:22.8     228    -52     89    235    251 103.0  21.7  34072  288.07 0855.26
2009/04/23 09:16:22.9     292   -109    133    312    339 110.6  24.5  34074  288.10 0855.26
2009/04/23 09:16:23.0     357   -233    116    427    443 123.1  15.3  34068  288.01 0855.26
2009/04/23 09:16:23.1     284   -223    118    362    381 128.1  18.1  34062  287.91 0855.26
2009/04/23 09:16:23.2     329   -269    111    426    441 129.3  14.7  34064  287.95 0855.26
2009/04/23 09:16:23.3     249   -375    150    451    476 146.4  18.4  34072  288.07 0855.26
2009/04/23 09:16:23.4     142   -382    170    408    442 159.6  24.1  34068  288.02 0855.26
2009/04/23 09:16:23.5       0   -326    148    327    358 180.0  25.9  34070  288.05 0855.26
2009/04/23 09:16:23.6      71   -283    129    292    319 165.8  25.3  34070  288.05 0855.26
2009/04/23 09:16:23.7     197   -313    131    370    393 147.8  19.5  34068  288.00 0855.26
2009/04/23 09:16:23.8     154   -233    119    280    304 146.6  24.6  34064  287.95 0855.26
2009/04/23 09:16:23.9     302   -409     61    509    513 143.5   6.9  34074  288.10 0855.25
2009/04/23 09:16:24.0     281   -442     49    525    528 147.5   5.4  34070  288.04 0855.25
2009/04/23 09:16:24.1     275   -361     91    454    464 142.7  11.3  34072  288.09 0855.25
2009/04/23 09:16:24.2     184   -288    207    342    399 147.4  34.1  34064  287.94 0855.25
2009/04/23 09:16:24.3     256   -132     50    289    294 117.3   9.9  34074  288.10 0855.25
2009/04/23 09:16:24.4     181   -154     79    238    251 130.4  18.5  34066  287.97 0855.25
2009/04/23 09:16:24.5      42   -102    202    111    230 157.7  68.9  34070  288.04 0855.25
2009/04/23 09:16:24.6     157   -317    204    354    408 153.6  32.7  34074  288.13 0855.25
2009/04/23 09:16:24.7     144   -251    253    290    384 150.1  45.6  34074  288.11 0855.25
2009/04/23 09:16:24.8      99   -277    185    295    348 160.2  35.3  34076  288.15 0855.25
2009/04/23 09:16:24.9      17   -224     19    225    226 175.5   4.9  34074  288.11 0855.25
2009/04/23 09:16:25.0     -64   -234     20    243    244 195.4   4.9  34074  288.10 0855.25
2009/04/23 09:16:25.1      85   -212     -8    229    230 158.2  -2.2  34074  288.13 0855.25
2009/04/23 09:16:25.2     148   -268     -1    307    308 151.1  -0.3  34074  288.10 0855.25
2009/04/23 09:16:25.3     198   -282     82    345    355 144.9  13.5  34074  288.10 0855.25
2009/04/23 09:16:25.4     192   -218     79    291    302 138.6  15.3  34074  288.10 0855.25
2009/04/23 09:16:25.5      66   -207     59    218    227 162.2  15.3  34074  288.11 0855.25
2009/04/23 09:16:25.6     -16   -210    118    211    241 184.4  31.9  34074  288.13 0855.25
2009/04/23 09:16:25.7    -157   -299    182    338    383 207.7  30.8  34074  288.10 0855.25
2009/04/23 09:16:25.8    -181   -131    128    224    257 234.0  32.3  34070  288.04 0855.25
2009/04/23 09:16:25.9     -32   -133     95    137    166 193.8  38.4  34072  288.08 0855.25
2009/04/23 09:16:26.0     -63   -104     57    122    134 211.2  27.1  34076  288.16 0855.25
2009/04/23 09:16:26.1      -8   -104     -4    105    106 184.4  -2.2  34072  288.09 0855.25
2009/04/23 09:16:26.2     108   -140     72    177    191 142.4  23.1  34072  288.09 0855.25
2009/04/23 09:16:26.3     196   -113     58    227    235 120.0  14.3  34074  288.13 0855.25
2009/04/23 09:16:26.4     221   -122     93    253    269 118.9  21.0  34076  288.15 0855.25
2009/04/23 09:16:26.5     253     18    114    254    278  85.9  25.9  34074  288.12 0855.25
2009/04/23 09:16:26.6     -36   -107     74    114    135 198.7  35.6  34074  288.13 0855.25
2009/04/23 09:16:26.7      -9   -125     65    126    141 184.5  29.3  34074  288.13 0855.25
2009/04/23 09:16:26.8      78    -66     61    103    119 130.0  33.5  34076  288.16 0855.25
2009/04/23 09:16:26.9      57    -63     72     86    112 138.1  43.8  34078  288.18 0855.26
2009/04/23 09:16:27.0      43    -43    -21     62     66 135.0 -18.7  34076  288.16 0855.26
2009/04/23 09:16:27.1     110    -51    -22    122    124 115.2 -10.3  34076  288.14 0855.26
2009/04/23 09:16:27.2     127    -21     30    129    133  99.7  13.1  34070  288.04 0855.26
2009/04/23 09:16:27.3     167    -47    127    174    215 105.7  39.7  34072  288.09 0855.26
2009/04/23 09:16:27.4      33     47    177     58    186  35.2  80.7  34082  288.25 0855.26
2009/04/23 09:16:27.5     -39     89    131     98    163 336.4  59.8  34080  288.23 0855.26
2009/04/23 09:16:27.6     -31    156     56    160    170 348.7  19.4  34080  288.21 0855.26
2009/04/23 09:16:27.7      -8    109     51    110    121 355.5  26.6  34080  288.23 0855.26
2009/04/23 09:16:27.8      -3    118     56    119    131 358.2  27.1  34080  288.23 0855.26
2009/04/23 09:16:27.9    -130     22     15    132    133 279.7   6.9  34078  288.18 0855.26
2009/04/23 09:16:28.0    -133    -93     10    163    164 234.9   3.8  34090  288.38 0855.26
2009/04/23 09:16:28.1     127     14    -94    128    158  83.4 -44.5  34084  288.28 0855.26
2009/04/23 09:16:28.2      -8    113    -40    114    122 355.6 -19.6  34084  288.30 0855.26
2009/04/23 09:16:28.3       9     89    -70     90    114   5.8 -46.6  34086  288.33 0855.26
2009/04/23 09:16:28.4     -84     79     21    116    118 313.1  10.6  34082  288.25 0855.26
2009/04/23 09:16:28.5    -205      7    -50    206    213 272.1 -13.7  34090  288.38 0855.26
2009/04/23 09:16:28.6    -165    -96   -145    191    239 239.8 -45.6  34086  288.31 0855.26
2009/04/23 09:16:28.7    -127    199    -21    237    238 327.5  -5.1  34090  288.37 0855.26
2009/04/23 09:16:28.8    -229    106     74    253    264 294.8  16.4  34088  288.34 0855.26
2009/04/23 09:16:28.9    -263     39     -5    266    267 278.6  -1.2  34086  288.32 0855.26
2009/04/23 09:16:29.0    -242    -45     48    247    252 259.4  11.1  34088  288.34 0855.26
2009/04/23 09:16:29.1    -272    -33     84    275    288 262.9  17.1  34086  288.31 0855.26
2009/04/23 09:16:29.2    -264    -59    119    271    295 257.4  25.2  34084  288.27 0855.26
2009/04/23 09:16:29.3    -145   -228     90    271    286 212.5  18.4  34084  288.29 0855.26
2009/04/23 09:16:29.4    -236   -149    -31    280    282 237.8  -6.5  34088  288.36 0855.26
2009/04/23 09:16:29.5    -282   -169      5    329    330 239.1   1.0  34088  288.35 0855.26
2009/04/23 09:16:29.6    -164   -302    -65    344    351 208.6 -10.8  34086  288.32 0855.26
2009/04/23 09:16:29.7    -111   -314     65    334    341 199.5  11.0  34084  288.27 0855.26
2009/04/23 09:16:29.8     -42   -248     56    252    259 189.8  12.6  34080  288.21 0855.26
2009/04/23 09:16:29.9    -106   -265    177    286    336 201.9  34.8  34080  288.21 0855.26
2009/04/23 09:16:30.0    -203   -147    211    252    328 234.0  44.2  34074  288.12 0855.26
2009/04/23 09:16:30.1    -140    146    126    203    238 316.3  34.8  34082  288.25 0855.26
2009/04/23 09:16:30.2    -243   -171    156    298    336 234.9  30.0  34090  288.37 0855.26
2009/04/23 09:16:30.3    -264     -9    196    265    329 267.9  40.2  34082  288.26 0855.26
2009/04/23 09:16:30.4    -303    199     98    363    377 303.3  15.2  34086  288.32 0855.26
2009/04/23 09:16:30.5    -205    201     23    288    289 314.4   4.6  34088  288.36 0855.26
2009/04/23 09:16:30.6    -100    100    106    142    177 315.0  40.4  34088  288.35 0855.26
2009/04/23 09:16:30.7      -2      0     86      3     86 251.6  90.0  34088  288.36 0855.26
2009/04/23 09:16:30.8      15     -4    -24     16     28 105.1 -69.0  34090  288.40 0855.26
2009/04/23 09:16:30.9      53     63   -139     83    161  40.1 -70.8  34094  288.47 0855.28
2009/04/23 09:16:31.0     194    202     29    281    283  43.9   6.0  34100  288.54 0855.28
2009/04/23 09:16:31.1     236     73     -6    248    249  72.7  -1.6  34098  288.53 0855.28
2009/04/23 09:16:31.2     201    -24    170    203    264  96.8  43.8  34104  288.63 0855.28
2009/04/23 09:16:31.3     171     66    181    184    258  68.7  49.8  34104  288.61 0855.28
2009/04/23 09:16:31.4     113     49    217    124    249  66.5  67.7  34114  288.80 0855.28
2009/04/23 09:16:31.5      69     -5    154     70    169  94.4  73.8  34116  288.82 0855.28
2009/04/23 09:16:31.6     -48     17    129     52    139 290.0  77.1  34114  288.79 0855.28
2009/04/23 09:16:31.7     -72     -7    178     73    192 263.9  76.8  34108  288.70 0855.28
2009/04/23 09:16:31.8    -120     17    115    122    167 278.4  48.2  34094  288.47 0855.28
2009/04/23 09:16:31.9    -220    -46     85    225    240 258.1  21.5  34096  288.49 0855.28
2009/04/23 09:16:32.0    -209    -51    130    216    252 256.3  34.2  34098  288.53 0855.28
2009/04/23 09:16:32.1    -157    -99    121    186    221 237.8  35.7  34092  288.42 0855.28
2009/04/23 09:16:32.2    -181   -149    138    235    272 230.5  33.4  34098  288.53 0855.28
2009/04/23 09:16:32.3    -298   -237     96    381    393 231.5  14.2  34100  288.54 0855.28
2009/04/23 09:16:32.4     -26   -169    106    172    202 188.9  35.0  34082  288.25 0855.28
2009/04/23 09:16:32.5     -62   -145    143    158    213 203.2  46.9  34096  288.48 0855.28
2009/04/23 09:16:32.6       6   -155    108    156    189 177.8  38.0  34092  288.43 0855.28
2009/04/23 09:16:32.7     -13   -197    173    198    262 183.8  45.8  34090  288.39 0855.28
2009/04/23 09:16:32.8    -191   -246    229    312    387 217.9  39.8  34100  288.54 0855.28
2009/04/23 09:16:32.9    -228   -321     58    394    399 215.4   8.5  34104  288.64 0855.28
2009/04/23 09:16:33.0    -234   -405    164    468    495 210.0  20.0  34130  289.08 0855.28
2009/04/23 09:16:33.1    -301   -369    156    477    502 219.2  18.1  34108  288.68 0855.28
2009/04/23 09:16:33.2    -324   -361     86    486    494 221.9  10.1  34110  288.73 0855.28
2009/04/23 09:16:33.3    -366   -365     96    518    527 225.1  10.6  34112  288.75 0855.28
2009/04/23 09:16:33.4    -377   -432     39    574    576 221.1   3.9  34096  288.49 0855.28
2009/04/23 09:16:33.5    -338   -468     38    578    580 215.8   3.8  34098  288.53 0855.28
2009/04/23 09:16:33.6    -379   -396      3    549    550 223.7   0.4  34090  288.40 0855.28
2009/04/23 09:16:33.7    -362   -377    -28    523    524 223.8  -3.1  34096  288.48 0855.28
2009/04/23 09:16:33.8    -236   -386    -25    453    454 211.5  -3.2  34092  288.41 0855.28
2009/04/23 09:16:33.9    -226   -374      0    438    439 211.1   0.1  34100  288.55 0855.28
2009/04/23 09:16:34.0    -367   -472    -70    598    603 217.9  -6.7  34104  288.63 0855.28
2009/04/23 09:16:34.1    -374   -310   -141    487    508 230.3 -16.2  34088  288.34 0855.28
2009/04/23 09:16:34.2    -343   -435     -2    555    556 218.3  -0.3  34096  288.48 0855.28
2009/04/23 09:16:34.3    -114   -271    -83    295    306 202.8 -20.4  34088  288.34 0855.28
2009/04/23 09:16:34.4     -30   -218     98    221    241 188.0  25.2  34080  288.21 0855.28
2009/04/23 09:16:34.5    -133   -280    171    311    354 205.5  31.3  34094  288.45 0855.28
2009/04/23 09:16:34.6    -131   -514    248    531    586 194.3  26.9  34076  288.14 0855.28
2009/04/23 09:16:34.7    -129   -503    275    520    588 194.4  30.2  34082  288.26 0855.28
2009/04/23 09:16:34.8    -177   -464    215    497    541 200.9  25.0  34082  288.25 0855.28
2009/04/23 09:16:34.9    -190   -451    169    490    519 202.8  19.1  34078  288.17 0855.28
2009/04/23 09:16:35.0    -168   -490    177    519    549 199.0  18.9  34082  288.25 0855.28
2009/04/23 09:16:35.1    -242   -471    123    530    545 207.2  13.1  34080  288.23 0855.28
2009/04/23 09:16:35.2    -167   -336    116    376    394 206.5  17.2  34076  288.16 0855.28
2009/04/23 09:16:35.3    -193   -257    180    322    368 217.0  31.7  34082  288.25 0855.28
2009/04/23 09:16:35.4    -352   -245    150    430    456 235.2  19.3  34084  288.28 0855.28
2009/04/23 09:16:35.5    -260   -189     96    322    337 234.0  16.7  34080  288.23 0855.28
2009/04/23 09:16:35.6    -351   -135    125    377    398 248.9  18.4  34094  288.44 0855.28
2009/04/23 09:16:35.7    -240    -53    -43    246    250 257.4 -10.1  34096  288.49 0855.28
2009/04/23 09:16:35.8    -198   -239    181    311    359 219.6  33.0  34080  288.22 0855.28
2009/04/23 09:16:35.9    -240   -195    112    310    329 230.9  20.6  34086  288.31 0855.28
2009/04/23 09:16:36.0    -256    -69     44    266    270 254.9   9.5  34082  288.24 0855.28
2009/04/23 09:16:36.1    -267   -200    176    334    377 233.1  30.1  34080  288.23 0855.28
2009/04/23 09:16:36.2    -394   -171     -1    430    431 246.5  -0.3  34074  288.11 0855.28
2009/04/23 09:16:36.3    -386      0     15    387    388 270.0   2.3  34058  287.83 0855.28
2009/04/23 09:16:36.4    -509   -103     54    520    523 258.5   6.0  34074  288.13 0855.28
2009/04/23 09:16:36.5    -370   -288    104    469    481 232.1  12.5  34084  288.30 0855.28
2009/04/23 09:16:36.6    -223   -243    181    330    376 222.5  31.3  34078  288.20 0855.28
2009/04/23 09:16:36.7    -356   -206     11    412    413 240.0   1.6  34088  288.36 0855.28
2009/04/23 09:16:36.8    -313   -100    129    329    353 252.2  22.7  34084  288.30 0855.28
2009/04/23 09:16:36.9    -393   -116    144    410    435 253.5  19.4  34090  288.39 0855.28
2009/04/23 09:16:37.0    -420   -131     72    441    447 252.6   9.3  34102  288.60 0855.28
2009/04/23 09:16:37.1    -363    -13     70    364    371 267.9  11.0  34144  289.30 0855.28
2009/04/23 09:16:37.2    -399   -192     19    443    444 244.2   2.5  34090  288.38 0855.28
2009/04/23 09:16:37.3    -402    -83     57    411    416 258.3   8.0  34076  288.16 0855.28
2009/04/23 09:16:37.4    -184   -188    178    264    318 224.3  37.3  34080  288.21 0855.28
2009/04/23 09:16:37.5    -318   -379      7    496    497 220.0   0.8  34078  288.17 0855.28
2009/04/23 09:16:37.6    -252   -279     67    376    382 222.1  10.1  34068  288.01 0855.28
2009/04/23 09:16:37.7     -92   -344     49    357    361 195.1   7.9  34078  288.18 0855.28
2009/04/23 09:16:37.8    -282   -482      3    559    560 210.3   0.4  34066  287.99 0855.28
2009/04/23 09:16:37.9    -343   -495    -39    603    605 214.8  -3.7  34078  288.19 0855.28
2009/04/23 09:16:38.0    -257   -278    -51    379    383 222.8  -7.7  34074  288.11 0855.28
2009/04/23 09:16:38.1     -15   -243    143    244    282 183.6  33.4  34076  288.14 0855.28
2009/04/23 09:16:38.2      64   -410    175    416    451 171.1  24.2  34084  288.28 0855.28
2009/04/23 09:16:38.3      42   -298     57    302    308 171.9  10.8  34078  288.19 0855.28
2009/04/23 09:16:38.4     132    -78     82    154    174 120.6  30.3  34080  288.21 0855.28
2009/04/23 09:16:38.5     -16    -99    146    101    177 189.3  62.1  34088  288.35 0855.28
2009/04/23 09:16:38.6    -107    -63    106    125    163 239.3  44.5  34088  288.35 0855.28
2009/04/23 09:16:38.7     -26     -8     31     28     41 251.6  53.3  34088  288.35 0855.28
2009/04/23 09:16:38.8      12    -41     14     43     46 163.1  18.9  34088  288.36 0855.28
2009/04/23 09:16:38.9     -46    -99    -51    110    121 204.9 -31.0  34080  288.23 0855.31
2009/04/23 09:16:39.0    -140    -24     22    143    145 260.3   9.0  34084  288.30 0855.31
2009/04/23 09:16:39.1    -158    -99     36    187    191 237.8  11.0  34084  288.30 0855.31
2009/04/23 09:16:39.2    -164   -388     -1    422    423 203.0  -0.3  34062  287.92 0855.31
2009/04/23 09:16:39.3    -203   -398    182    447    482 207.1  23.5  34068  288.03 0855.31
2009/04/23 09:16:39.4    -330   -398   -174    518    547 219.6 -18.6  34076  288.16 0855.31
2009/04/23 09:16:39.5    -203   -357     49    411    414 209.6   6.9  34084  288.28 0855.31
2009/04/23 09:16:39.6    -189   -534   -102    567    577 199.6 -10.3  34074  288.12 0855.31
2009/04/23 09:16:39.7    -194   -381     93    428    439 207.1  12.3  34072  288.09 0855.31
2009/04/23 09:16:39.8    -134   -304     89    333    345 203.9  15.0  34086  288.32 0855.31
2009/04/23 09:16:39.9    -174    -86     50    195    202 243.8  14.5  34072  288.08 0855.31
2009/04/23 09:16:40.0    -163    -82    140    183    230 243.1  41.4  34080  288.23 0855.31
2009/04/23 09:16:40.1     -43    -67     58     80     98 212.6  39.7  34084  288.30 0855.31
2009/04/23 09:16:40.2     -98    -17    133    100    166 259.9  59.4  34086  288.31 0855.31
2009/04/23 09:16:40.3    -176      8    111    177    208 272.6  35.5  34084  288.28 0855.31
2009/04/23 09:16:40.4    -269     32     79    271    283 276.8  16.3  34082  288.26 0855.31
2009/04/23 09:16:40.5       3   -163     72    164    179 178.6  25.3  34078  288.18 0855.31
2009/04/23 09:16:40.6    -146     49     51    155    164 288.6  18.1  34076  288.14 0855.31
2009/04/23 09:16:40.7    -198     54     97    206    227 285.3  27.1  34084  288.28 0855.31
2009/04/23 09:16:40.8    -187    124     43    225    230 303.5  10.8  34086  288.31 0855.31
2009/04/23 09:16:40.9    -131     65    -44    147    154 296.6 -17.0  34086  288.33 0855.32
2009/04/23 09:16:41.0    -200    -15     -4    201    202 265.6  -1.3  34086  288.33 0855.32
2009/04/23 09:16:41.1    -195      0    -54    196    204 270.0 -15.4  34086  288.33 0855.32
2009/04/23 09:16:41.2     -99     17      0    101    102 279.7   0.2  34074  288.11 0855.32
2009/04/23 09:16:41.3    -172     64    142    184    232 290.4  41.7  34082  288.25 0855.32
2009/04/23 09:16:41.4    -320   -150     86    354    365 244.8  13.7  34082  288.25 0855.32
2009/04/23 09:16:41.5    -108   -216     47    242    247 206.7  11.0  34082  288.24 0855.32
2009/04/23 09:16:41.6    -130   -192    -12    233    234 214.1  -3.1  34080  288.22 0855.32
2009/04/23 09:16:41.7    -129   -173    -60    217    226 216.7 -15.5  34076  288.16 0855.32
2009/04/23 09:16:41.8    -137   -166    -34    216    219 219.6  -9.0  34074  288.13 0855.32
2009/04/23 09:16:41.9    -117    -78    -12    141    142 236.3  -5.1  34080  288.21 0855.32
2009/04/23 09:16:42.0     -34   -117    -39    123    130 196.5 -17.6  34082  288.25 0855.32
2009/04/23 09:16:42.1    -106    -67    -24    126    129 237.6 -10.9  34082  288.25 0855.32
2009/04/23 09:16:42.2     -53    -92    -65    107    125 209.9 -38.8  34080  288.23 0855.32
2009/04/23 09:16:42.3    -112   -120    -58    165    174 223.2 -23.8  34078  288.20 0855.32
2009/04/23 09:16:42.4     -92    -43    -12    102    103 244.6  -7.2  34080  288.21 0855.32
2009/04/23 09:16:42.5     -69     26     -2     74     75 290.8  -2.2  34084  288.30 0855.32
2009/04/23 09:16:42.6     -60    -23     29     65     71 249.2  26.2  34084  288.30 0855.32
2009/04/23 09:16:42.7     -15    -76     15     78     80 191.6  11.1  34084  288.30 0855.32
2009/04/23 09:16:42.8    -209    -76    -52    223    230 250.0 -13.2  34084  288.30 0855.32
2009/04/23 09:16:42.9    -206    -24    -65    208    219 263.2 -17.5  34090  288.40 0855.29
2009/04/23 09:16:43.1    -208    -15    -68    209    220 265.7 -18.1  34090  288.40 0855.29
2009/04/23 09:16:43.1    -164     24    -46    166    173 278.4 -15.5  34092  288.42 0855.29
2009/04/23 09:16:43.2    -205    139     60    249    257 304.2  13.7  34098  288.53 0855.29
2009/04/23 09:16:43.3    -224    157     38    274    277 305.0   8.0  34098  288.53 0855.29
2009/04/23 09:16:43.4    -240    171    -16    295    296 305.5  -3.1  34100  288.54 0855.29
2009/04/23 09:16:43.5    -219     -7    -68    220    231 268.1 -17.3  34090  288.38 0855.29
2009/04/23 09:16:43.6    -271    -34   -110    274    295 262.8 -27.5  34086  288.31 0855.29
2009/04/23 09:16:43.7    -256     47    -61    261    269 280.6 -13.2  34092  288.41 0855.29
2009/04/23 09:16:43.8    -199     92    -12    220    221 294.8  -3.1  34104  288.62 0855.29
2009/04/23 09:16:43.9    -131    131     25    186    188 315.0   7.8  34108  288.69 0855.29
2009/04/23 09:16:44.0    -154    127     79    200    215 309.5  22.8  34132  289.09 0855.29
2009/04/23 09:16:44.1    -194    131    148    235    277 304.1  35.5  34126  288.98 0855.29
2009/04/23 09:16:44.2    -154    163    137    225    263 316.7  34.4  34124  288.95 0855.29
2009/04/23 09:16:44.3     -87     61    187    107    215 305.1  68.1  34126  288.99 0855.29
2009/04/23 09:16:44.4     -65     49    116     82    142 307.3  60.6  34132  289.09 0855.29
2009/04/23 09:16:44.5    -111     10    103    112    152 275.2  47.9  34124  288.97 0855.29
2009/04/23 09:16:44.6    -204    -25     93    206    226 263.0  26.2  34108  288.70 0855.29
2009/04/23 09:16:44.7    -181     -4     53    182    190 268.5  16.3  34110  288.72 0855.29
2009/04/23 09:16:44.8    -176     -1     24    177    179 269.6   7.8  34104  288.64 0855.29
2009/04/23 09:16:45.0    -156    -67     -7    170    171 246.7  -2.6  34100  288.55 0855.30
2009/04/23 09:16:45.0    -167    -66    -24    180    182 248.3  -7.7  34092  288.43 0855.30
2009/04/23 09:16:45.1    -209    -25    -10    211    212 263.0  -2.8  34100  288.57 0855.30
2009/04/23 09:16:45.2    -228    -79     -1    242    243 250.9  -0.3  34128  289.02 0855.30
2009/04/23 09:16:45.3    -209    -68     47    221    226 251.8  12.0  34132  289.09 0855.30
2009/04/23 09:16:45.4    -203     96    -28    225    227 295.4  -7.2  34160  289.58 0855.30
2009/04/23 09:16:45.5    -244     84    -79    259    270 289.0 -22.3  34150  289.41 0855.30
2009/04/23 09:16:45.6    -250     74    -67    261    270 286.6 -14.5  34140  289.22 0855.30
2009/04/23 09:16:45.7    -353     94   -119    366    385 284.9 -18.1  34124  288.96 0855.30
2009/04/23 09:16:45.8    -308   -157   -103    346    362 242.9 -16.6  34114  288.79 0855.30
2009/04/23 09:16:45.9    -375   -135   -118    399    416 250.1 -21.4  34104  288.63 0855.30
2009/04/23 09:16:46.0    -265    -96   -125    283    309 250.0 -29.7  34084  288.29 0855.30
2009/04/23 09:16:46.1    -223      4   -148    224    268 271.3 -40.9  34086  288.31 0855.30
2009/04/23 09:16:46.2    -288   -183    -66    342    349 237.6 -11.0  34082  288.25 0855.30
2009/04/23 09:16:46.3    -254   -180    139    312    341 234.7  25.7  34122  288.93 0855.30
2009/04/23 09:16:46.4     -34   -257    223    260    342 187.6  44.8  34148  289.37 0855.30
2009/04/23 09:16:46.5     -39   -317    120    320    341 187.1  21.5  34086  288.33 0855.30
2009/04/23 09:16:46.6     -52   -367     50    371    375 188.1   7.8  34074  288.13 0855.30
2009/04/23 09:16:46.8     -85   -419     62    428    433 191.5   8.3  34074  288.11 0855.30
2009/04/23 09:16:46.9     -36   -391    134    393    416 185.4  18.9  34074  288.12 0855.30
2009/04/23 09:16:47.0     -45   -321    122    325    347 188.1  21.5  34082  288.25 0855.30
2009/04/23 09:16:47.0     -98   -249     17    268    269 201.6   3.6  34084  288.27 0855.30
2009/04/23 09:16:47.1      57   -260     69    267    276 167.5  14.7  34080  288.21 0855.30
2009/04/23 09:16:47.3     -95   -201    -46    223    228 205.4 -11.9  34078  288.18 0855.30
2009/04/23 09:16:47.4     -94   -132    -65    163    175 215.6 -27.4  34084  288.30 0855.30
2009/04/23 09:16:47.5    -258    -44    -93    262    279 260.1 -19.6  34068  288.00 0855.30
2009/04/23 09:16:47.6    -127   -172    -99    215    236 216.5 -30.6  34088  288.35 0855.30
2009/04/23 09:16:47.7     -29    -97     39    102    109 196.5  21.5  34082  288.26 0855.30
2009/04/23 09:16:47.8      28   -200    115    203    233 172.0  32.1  34076  288.16 0855.30
2009/04/23 09:16:47.9     -78   -227     82    241    255 199.1  18.9  34080  288.21 0855.30
2009/04/23 09:16:48.0    -115   -196    -65    228    238 210.5 -16.0  34078  288.19 0855.29
2009/04/23 09:16:48.1     -94    -85    -75    128    148 227.8 -37.8  34078  288.18 0855.29
2009/04/23 09:16:48.2     -50   -152    109    161    194 198.3  37.0  34082  288.26 0855.29
2009/04/23 09:16:48.3     -47   -163    164    170    236 196.3  49.0  34086  288.33 0855.29
2009/04/23 09:16:48.4    -161    -85    117    183    217 242.2  35.6  34084  288.28 0855.29
2009/04/23 09:16:48.5    -209     12    131    210    247 273.5  35.0  34094  288.46 0855.29
2009/04/23 09:16:48.6    -280    -21     86    281    295 265.6  17.1  34090  288.39 0855.29
2009/04/23 09:16:48.7    -233    126     76    265    276 298.4  16.0  34090  288.39 0855.29
2009/04/23 09:16:48.8    -264    158    -28    308    310 300.9  -5.2  34096  288.49 0855.29
2009/04/23 09:16:48.9    -203    162     30    260    262 308.6   6.7  34096  288.48 0855.29
2009/04/23 09:16:49.0    -263    124    -36    292    295 295.3  -7.2  34100  288.56 0855.29
2009/04/23 09:16:49.1    -284    104     36    303    306 290.2   6.9  34096  288.48 0855.29
2009/04/23 09:16:49.2    -312    123      9    336    337 291.6   1.6  34104  288.64 0855.29
2009/04/23 09:16:49.3    -239     79     84    252    266 288.4  18.4  34110  288.73 0855.29
2009/04/23 09:16:49.4    -204     27    -42    206    211 277.7 -11.5  34122  288.94 0855.29
2009/04/23 09:16:49.5    -246     12    -68    247    257 272.8 -15.5  34112  288.75 0855.29
2009/04/23 09:16:49.6    -464     51   -105    467    479 276.4 -12.7  34088  288.34 0855.29
2009/04/23 09:16:49.7    -508    149   -121    530    544 286.4 -12.9  34112  288.75 0855.29
2009/04/23 09:16:49.8    -523    140   -106    542    553 285.0 -11.1  34116  288.84 0855.29
2009/04/23 09:16:49.9    -443    161   -101    472    483 290.0 -12.2  34126  289.01 0855.29
2009/04/23 09:16:50.0    -322     -9   -144    323    353 268.3 -30.0  34118  288.86 0855.26
2009/04/23 09:16:50.1    -421    -17    -62    422    427 267.6  -8.4  34100  288.55 0855.26
2009/04/23 09:16:50.2    -361     98   -132    375    398 285.3 -19.5  34152  289.42 0855.26
2009/04/23 09:16:50.3    -383    153   -180    413    450 291.9 -29.5  34132  289.11 0855.26
2009/04/23 09:16:50.4    -350    152   -204    382    433 293.5 -34.7  34124  288.97 0855.26
2009/04/23 09:16:50.5    -307    123   -234    331    405 291.9 -43.0  34118  288.86 0855.26
2009/04/23 09:16:50.6    -355    263   -207    443    488 306.5 -31.3  34096  288.49 0855.26
2009/04/23 09:16:50.7    -365    155   -146    397    422 293.1 -25.4  34122  288.94 0855.26
2009/04/23 09:16:50.8    -366     28    -60    368    374 274.5  -9.3  34094  288.45 0855.26
2009/04/23 09:16:50.9    -293   -112    -11    314    315 248.9  -2.1  34088  288.34 0855.26
2009/04/23 09:16:51.0    -206     22    -31    208    211 276.1  -8.6  34094  288.45 0855.26
2009/04/23 09:16:51.1    -213     72    -70    226    237 288.8 -17.3  34096  288.48 0855.26
2009/04/23 09:16:51.2    -224     63    -71    233    244 285.9 -17.0  34094  288.46 0855.26
2009/04/23 09:16:51.3    -282    123    -97    308    324 293.6 -17.6  34098  288.53 0855.26
2009/04/23 09:16:51.4    -360     26    -22    361    362 274.3  -3.5  34096  288.49 0855.26
2009/04/23 09:16:51.5    -244     33    -90    247    262 277.7 -25.3  34114  288.78 0855.26
2009/04/23 09:16:51.6    -128     26    -74    131    150 281.5 -35.8  34096  288.48 0855.26
2009/04/23 09:16:51.7     -75     47   -164     89    186 302.4 -73.7  34118  288.87 0855.26
2009/04/23 09:16:51.8     -81    125    -98    150    179 327.0 -40.7  34112  288.75 0855.26
2009/04/23 09:16:51.9     -65     83    -32    106    111 321.7 -17.0  34120  288.89 0855.26
2009/04/23 09:16:52.0     -58     25      7     64     65 293.5   6.9  34118  288.87 0855.23
2009/04/23 09:16:52.1     -55    -86     74    103    126 212.6  39.5  34110  288.72 0855.23
2009/04/23 09:16:52.2     -66   -119    132    137    190 209.0  49.2  34126  288.99 0855.23
2009/04/23 09:16:52.3    -150   -135    170    203    264 228.0  43.8  34126  288.98 0855.23
2009/04/23 09:16:52.4    -222   -195    106    296    314 228.7  20.6  34132  289.09 0855.23
2009/04/23 09:16:52.5    -181   -162     87    244    259 228.2  20.2  34136  289.17 0855.23
2009/04/23 09:16:52.6    -188    -15     42    189    194 265.2  12.6  34122  288.94 0855.23
2009/04/23 09:16:52.7    -121     71     44    141    148 300.7  17.3  34124  288.97 0855.23
2009/04/23 09:16:52.8    -131    -13     44    132    140 264.3  18.4  34114  288.79 0855.23
2009/04/23 09:16:52.9     -58    -23     90     63    109 248.2  61.5  34110  288.72 0855.23
2009/04/23 09:16:53.0     -55     93     55    109    122 329.3  29.2  34112  288.77 0855.23
2009/04/23 09:16:53.1     -36     90    117     98    152 338.2  56.3  34110  288.74 0855.23
2009/04/23 09:16:53.2     -65     72     79     98    125 318.1  43.3  34108  288.69 0855.23
2009/04/23 09:16:53.3     -48     12     34     50     60 285.1  37.6  34106  288.67 0855.23
2009/04/23 09:16:53.4      -6     17     47     19     50 341.3  77.1  34106  288.67 0855.23
2009/04/23 09:16:53.5      10      5     42     12     43  61.1  82.8  34108  288.70 0855.23
2009/04/23 09:16:53.6      -2    -40     50     41     64 183.6  56.4  34108  288.69 0855.23
2009/04/23 09:16:53.7     -15     15     68     22     71 315.0  80.7  34102  288.60 0855.23
2009/04/23 09:16:53.8     -39      9     42     41     58 283.3  48.2  34106  288.67 0855.23
2009/04/23 09:16:53.9     -67    -20     52     70     87 253.2  40.7  34100  288.57 0855.23
2009/04/23 09:16:54.0     -59     -5     57     60     82 264.8  49.0  34104  288.62 0855.22
2009/04/23 09:16:54.1     -96    -64     55    116    128 236.3  27.1  34100  288.55 0855.22
2009/04/23 09:16:54.2    -115   -118     68    165    178 224.3  23.4  34096  288.48 0855.22
2009/04/23 09:16:54.3     -90   -124     54    154    164 215.8  19.4  34094  288.45 0855.22
2009/04/23 09:16:54.4     -96    -98     15    138    139 224.5   6.5  34094  288.47 0855.22
2009/04/23 09:16:54.5     -79    -88     37    119    125 221.9  17.3  34092  288.43 0855.22
2009/04/23 09:16:54.6     -76   -110     75    134    153 214.7  31.4  34090  288.40 0855.22
2009/04/23 09:16:54.7     -82   -114     49    141    150 216.0  19.4  34088  288.35 0855.22
2009/04/23 09:16:54.8     -81   -166    102    185    211 206.1  31.3  34088  288.36 0855.22
2009/04/23 09:16:54.9     -59   -124    104    138    172 205.3  40.9  34088  288.35 0855.22
2009/04/23 09:16:55.0     -76   -183     82    199    215 202.7  23.4  34082  288.25 0855.22
2009/04/23 09:16:55.1     -88   -159     45    182    188 209.0  13.9  34078  288.20 0855.22
2009/04/23 09:16:55.2     -25   -150     50    153    162 189.7  18.1  34080  288.21 0855.22
2009/04/23 09:16:55.3     -14   -109     46    110    119 187.6  23.6  34082  288.25 0855.22
2009/04/23 09:16:55.4     -10   -113     82    114    140 185.3  39.5  34082  288.25 0855.22
2009/04/23 09:16:55.5     -41   -144    146    150    209 196.0  49.8  34082  288.26 0855.22
2009/04/23 09:16:55.6     -87   -220    159    237    285 201.6  37.3  34088  288.34 0855.22
2009/04/23 09:16:55.7     -91   -318    131    331    355 196.1  22.9  34078  288.18 0855.22
2009/04/23 09:16:55.8     -39   -306    107    309    328 187.3  19.2  34072  288.07 0855.22
2009/04/23 09:16:55.9     -19   -281    -12    282    283 184.0  -2.6  34088  288.36 0855.22
2009/04/23 09:16:56.0      20   -320    -18    321    322 176.3  -3.3  34078  288.19 0855.23
2009/04/23 09:16:56.1      -5   -304      9    305    306 181.0   1.8  34078  288.19 0855.23
2009/04/23 09:16:56.2     -61   -235     20    243    244 194.7   4.9  34078  288.19 0855.23
2009/04/23 09:16:56.3       8   -228    -20    229    230 178.0  -5.2  34082  288.25 0855.23
2009/04/23 09:16:56.4       0   -180     38    181    186 180.2  12.0  34082  288.25 0855.23
2009/04/23 09:16:56.5      -6   -165     95    166    191 182.2  32.1  34084  288.30 0855.23
2009/04/23 09:16:56.6      12   -159    130    160    206 175.5  43.7  34084  288.28 0855.23
2009/04/23 09:16:56.7      35   -148     99    153    182 166.6  35.7  34084  288.30 0855.23
2009/04/23 09:16:56.8      20    -67    111     71    131 163.1  64.6  34086  288.33 0855.23
2009/04/23 09:16:56.9      34     -3     78     35     85  96.1  74.5  34086  288.33 0855.23
2009/04/23 09:16:57.0     112   -172    160    206    260 147.0  41.7  34086  288.31 0855.23
2009/04/23 09:16:57.1     180   -146    137    233    270 129.1  33.5  34086  288.31 0855.23
2009/04/23 09:16:57.2     164    -58    133    174    219 109.5  41.4  34086  288.31 0855.23
2009/04/23 09:16:57.3      36    -12    128     39    133 108.6  82.7  34088  288.35 0855.23
2009/04/23 09:16:57.4      55    -68    133     88    159 141.3  63.4  34086  288.33 0855.23
2009/04/23 09:16:57.5      57   -195    156    204    256 163.7  41.2  34078  288.19 0855.23
2009/04/23 09:16:57.6     111   -149    117    187    220 143.3  35.5  34082  288.25 0855.23
2009/04/23 09:16:57.7      38   -204    124    208    242 169.3  33.7  34084  288.28 0855.23
2009/04/23 09:16:57.8      51   -192    108    199    226 165.1  30.8  34082  288.25 0855.23
2009/04/23 09:16:57.9      27   -147    143    150    207 169.3  48.5  34084  288.28 0855.23
2009/04/23 09:16:58.0     -16   -211    113    212    240 184.4  30.3  34080  288.21 0855.22
2009/04/23 09:16:58.1     -17   -195    151    196    247 185.1  41.6  34082  288.26 0855.22
2009/04/23 09:16:58.2      -8   -115     90    116    146 184.4  42.2  34080  288.21 0855.22
2009/04/23 09:16:58.3      14    -71     94     73    119 168.5  58.5  34082  288.26 0855.22
2009/04/23 09:16:58.4      33    -37     86     50     99 138.6  67.2  34088  288.35 0855.22
2009/04/23 09:16:58.5      -9    -16     82     19     84 209.0  86.9  34086  288.33 0855.22
2009/04/23 09:16:58.6      -8   -107    144    108    180 184.5  59.4  34082  288.26 0855.22
2009/04/23 09:16:58.7     -39   -136    105    142    176 196.0  40.1  34082  288.25 0855.22
2009/04/23 09:16:58.8    -113   -102    100    153    182 227.8  36.0  34078  288.18 0855.22
2009/04/23 09:16:58.9    -103     15     70    105    126 278.4  36.5  34088  288.35 0855.22
2009/04/23 09:16:59.0    -103    -57     52    118    128 241.1  25.2  34096  288.48 0855.22
2009/04/23 09:16:59.1     -20    -59     53     63     82 199.2  44.8  34084  288.30 0855.22
2009/04/23 09:16:59.2      -7    -85     52     86    100 184.9  34.4  34084  288.30 0855.22
2009/04/23 09:16:59.3      39    -44     75     60     96 138.6  56.9  34080  288.23 0855.22
2009/04/23 09:16:59.4      11    -33     72     35     80 161.5  72.4  34082  288.26 0855.22
2009/04/23 09:16:59.5      -3    -39     98     40    105 184.5  77.0  34082  288.25 0855.22
2009/04/23 09:16:59.6     -32    -92    108     98    145 199.6  52.2  34102  288.58 0855.22
2009/04/23 09:16:59.7     -74    -81    105    110    152 222.3  48.5  34108  288.70 0855.22
2009/04/23 09:16:59.8     -63   -104    104    122    160 211.2  45.1  34108  288.69 0855.22
2009/04/23 09:16:59.9     -21   -150     57    152    162 188.1  21.3  34100  288.55 0855.22
2009/04/23 09:17:00.0     -31   -147     98    151    180 192.0  36.0  34102  288.60 0855.23
2009/04/23 09:17:00.1     -82   -163     62    183    194 206.7  18.9  34140  289.24 0855.23
2009/04/23 09:17:00.2    -114   -148     44    188    194 217.6  13.2  34140  289.23 0855.23
2009/04/23 09:17:00.3     -94   -148     26    176    178 212.5   8.5  34190  290.09 0855.23
2009/04/23 09:17:00.4     -59   -133     40    146    152 204.1  15.3  34168  289.72 0855.23
2009/04/23 09:17:00.5     -47   -144     57    152    162 198.3  21.3  34132  289.09 0855.23
2009/04/23 09:17:00.6     -92   -153    138    179    226 211.0  41.7  34156  289.52 0855.23
2009/04/23 09:17:00.7     -91   -110    142    143    201 219.6  50.0  34154  289.48 0855.23
2009/04/23 09:17:00.8    -100   -152     97    183    207 213.4  30.3  34174  289.80 0855.23
2009/04/23 09:17:00.9    -134   -150    123    202    236 221.7  34.2  34196  290.18 0855.23
2009/04/23 09:17:01.0     -56   -183    120    192    226 197.2  35.5  34126  288.99 0855.23
2009/04/23 09:17:01.1    -101   -120     95    157    183 220.1  34.4  34190  290.08 0855.23
2009/04/23 09:17:01.2     -90   -142    115    169    204 212.3  37.6  34204  290.33 0855.23
2009/04/23 09:17:01.3     -76   -171    122    188    224 204.1  35.7  34192  290.11 0855.23
2009/04/23 09:17:01.4     -86   -167    114    189    220 207.4  33.7  34206  290.36 0855.23
2009/04/23 09:17:01.5    -114   -154    145    192    240 216.5  40.7  34200  290.25 0855.23
2009/04/23 09:17:01.6     -81   -128    167    152    225 212.5  53.0  34194  290.14 0855.23
2009/04/23 09:17:01.7    -107    -79    160    134    208 233.6  56.1  34188  290.04 0855.23
2009/04/23 09:17:01.8    -143    -71    152    160    220 243.4  48.2  34182  289.96 0855.23
2009/04/23 09:17:01.9    -175    -89    103    197    222 242.9  30.1  34198  290.21 0855.23
2009/04/23 09:17:02.0    -126   -104     58    164    173 230.4  20.0  34182  289.96 0855.26
2009/04/23 09:17:02.1    -155    -77     15    174    175 243.6   5.2  34168  289.72 0855.26
2009/04/23 09:17:02.2    -216     -7    -63    217    225 267.9 -21.0  34222  290.62 0855.26
2009/04/23 09:17:02.3    -261    -28   -105    263    283 263.8 -27.4  34190  290.09 0855.26
2009/04/23 09:17:02.4    -214    -51   -109    221    246 256.5 -32.6  34166  289.66 0855.26
2009/04/23 09:17:02.5    -157    -90    -87    182    201 240.2 -31.6  34160  289.57 0855.26
2009/04/23 09:17:02.6     -83    -54    -93    100    136 236.7 -52.3  34160  289.58 0855.26
2009/04/23 09:17:02.7    -165     -8    -50    166    174 267.2 -17.0  34164  289.63 0855.26
2009/04/23 09:17:02.8    -243     27     -9    245    246 276.4  -2.2  34188  290.05 0855.26
2009/04/23 09:17:02.9    -140     24    -31    143    147 279.7 -12.4  34178  289.87 0855.26
2009/04/23 09:17:03.0    -151     28    -26    154    157 280.6  -9.8  34196  290.19 0855.26
2009/04/23 09:17:03.1    -111     48     28    122    126 293.6  13.1  34198  290.21 0855.26
2009/04/23 09:17:03.2     -98    -85     49    130    138 229.1  21.5  34192  290.13 0855.26
2009/04/23 09:17:03.3    -114     23    -21    117    119 281.4 -10.3  34160  289.57 0855.26
2009/04/23 09:17:03.4     -78    -23      5     82     83 253.6   3.8  34166  289.69 0855.26
2009/04/23 09:17:03.5     -70    -45     -7     84     85 237.5  -5.2  34170  289.74 0855.26
2009/04/23 09:17:03.6     -38    -73     -3     83     84 207.6  -2.2  34170  289.74 0855.26
2009/04/23 09:17:03.7     -57   -105     64    120    136 208.5  30.3  34180  289.91 0855.26
2009/04/23 09:17:03.8     -51    -36     13     63     65 234.9  12.2  34178  289.89 0855.26
2009/04/23 09:17:03.9    -117    -32    -58    122    135 254.5 -31.6  34146  289.35 0855.26
2009/04/23 09:17:04.0    -146      0    -41    147    153 269.6 -15.8  34168  289.72 0855.26
2009/04/23 09:17:04.1    -138     37    -42    143    150 285.0 -16.6  34174  289.82 0855.26
2009/04/23 09:17:04.2    -112      8    -35    113    119 274.3 -17.6  34160  289.58 0855.26
2009/04/23 09:17:04.3     -96    -36     12    103    104 249.2   7.1  34138  289.19 0855.26
2009/04/23 09:17:04.4    -138   -108     62    176    187 232.0  19.4  34154  289.48 0855.26
2009/04/23 09:17:04.5    -138   -173     90    222    239 218.7  23.4  34160  289.58 0855.26
2009/04/23 09:17:04.6    -154   -192     62    247    255 218.7  14.2  34162  289.61 0855.26
2009/04/23 09:17:04.7    -161   -202     32    259    262 218.5   7.1  34168  289.71 0855.26
2009/04/23 09:17:04.8    -221   -166     34    277    280 233.1   7.1  34192  290.10 0855.26
2009/04/23 09:17:04.9    -192   -159     25    250    252 230.4   5.9  34186  290.02 0855.26
2009/04/23 09:17:05.0    -147   -141     42    205    210 226.2  11.6  34150  289.40 0855.26
2009/04/23 09:17:05.1    -125   -117     65    172    183 227.1  21.5  34138  289.19 0855.26
2009/04/23 09:17:05.2     -59   -108     65    124    140 208.5  29.8  34122  288.92 0855.26
2009/04/23 09:17:05.3    -102    -97     70    141    157 226.4  28.2  34138  289.21 0855.26
2009/04/23 09:17:05.4     -74   -146    142    164    216 207.0  45.6  34102  288.60 0855.26
2009/04/23 09:17:05.5     -91    -80    131    122    179 228.7  52.2  34112  288.75 0855.26
2009/04/23 09:17:05.6     -55   -119    130    132    185 204.9  50.2  34114  288.79 0855.26
2009/04/23 09:17:05.7     -42   -129    182    136    227 198.3  59.8  34098  288.52 0855.26
2009/04/23 09:17:05.8     -77   -139    125    159    202 209.0  42.0  34110  288.72 0855.26
2009/04/23 09:17:05.9    -112   -105     81    154    174 226.9  30.1  34144  289.30 0855.26
2009/04/23 09:17:06.0     -68   -142     97    158    185 205.5  34.8  34132  289.11 0855.24
2009/04/23 09:17:06.1     -13    -90     90     92    128 188.5  50.0  34124  288.97 0855.24
2009/04/23 09:17:06.2      -9   -119    100    120    156 184.4  44.3  34126  289.01 0855.24
2009/04/23 09:17:06.3      -6   -104    112    105    153 183.6  52.1  34126  289.01 0855.24
2009/04/23 09:17:06.4      16   -113     74    115    136 171.9  35.6  34092  288.43 0855.24
2009/04/23 09:17:06.5      -7    -85     92     86    125 185.3  52.1  34094  288.47 0855.24
2009/04/23 09:17:06.6     -22   -105     79    108    133 192.0  39.7  34102  288.60 0855.24
2009/04/23 09:17:06.7     -39   -162     70    167    181 193.8  23.8  34094  288.45 0855.24
2009/04/23 09:17:06.8     -20   -179     63    181    192 186.5  19.2  34084  288.28 0855.24
2009/04/23 09:17:06.9     -15   -204     38    205    209 184.2  10.6  34086  288.33 0855.24
2009/04/23 09:17:07.0      12   -229     44    230    235 176.9  10.8  34086  288.31 0855.20
2009/04/23 09:17:07.1     -17   -230     30    231    233 184.4   7.5  34086  288.32 0855.20
2009/04/23 09:17:07.2       7   -218     38    219    223 178.0   9.9  34084  288.28 0855.20
2009/04/23 09:17:07.3      14   -227     62    228    237 176.4  15.2  34082  288.26 0855.20
2009/04/23 09:17:07.4       0   -203     81    204    219 180.2  23.0  34082  288.26 0855.20
2009/04/23 09:17:07.5     -37   -176     71    180    193 192.0  22.5  34084  288.30 0855.20
2009/04/23 09:17:07.6     -43   -161     36    167    171 195.1  12.2  34084  288.30 0855.20
2009/04/23 09:17:07.7     -44   -130     21    138    140 198.7   9.0  34084  288.28 0855.20
2009/04/23 09:17:07.8     -67   -113     11    132    133 210.7   4.9  34084  288.28 0855.20
2009/04/23 09:17:07.9    -122   -155     82    198    214 218.3  23.6  34094  288.47 0855.20
2009/04/23 09:17:08.0     -57   -166    167    176    242 198.9  48.7  34100  288.55 0855.20
2009/04/23 09:17:08.1     -78   -179     86    196    214 203.6  25.2  34096  288.50 0855.20
2009/04/23 09:17:08.2     -64   -190    123    201    235 198.7  34.4  34096  288.48 0855.20
2009/04/23 09:17:08.3    -168   -217    118    275    299 217.9  24.9  34090  288.39 0855.20
2009/04/23 09:17:08.4    -163   -120    132    203    242 233.6  36.0  34096  288.48 0855.20
2009/04/23 09:17:08.5    -109   -109     71    155    170 225.0  26.4  34092  288.43 0855.20
2009/04/23 09:17:08.6    -117    -62     47    133    142 242.0  19.4  34094  288.47 0855.20
2009/04/23 09:17:08.7     -82    -82     23    117    120 225.1  11.1  34098  288.52 0855.20
2009/04/23 09:17:08.8     -27   -103     67    107    126 195.1  35.5  34106  288.65 0855.20
2009/04/23 09:17:08.9     -40   -115     65    122    138 199.2  30.8  34108  288.69 0855.20
2009/04/23 09:17:09.0     -93   -120    100    153    182 217.8  36.0  34100  288.55 0855.19
2009/04/23 09:17:09.1     -59    -55     36     81     88 226.9  25.7  34098  288.53 0855.19
2009/04/23 09:17:09.2     -25    -45     61     52     80 209.9  55.4  34102  288.58 0855.19
2009/04/23 09:17:09.3     -46    -75     85     89    123 211.6  49.0  34100  288.55 0855.19
2009/04/23 09:17:09.4     -80    -65     91    104    138 230.9  45.8  34100  288.57 0855.19
2009/04/23 09:17:09.5     -91    -55     58    107    121 238.5  30.8  34100  288.57 0855.19
2009/04/23 09:17:09.6     -93     -7     65     94    114 265.7  37.6  34100  288.57 0855.19
2009/04/23 09:17:09.7     -92     36     93    100    136 291.7  47.9  34100  288.57 0855.19
2009/04/23 09:17:09.8     -62     62     69     89    112 315.0  42.2  34098  288.53 0855.19
2009/04/23 09:17:09.9     -45     78    118     91    149 329.7  58.5  34098  288.52 0855.19
2009/04/23 09:17:10.0     -86     54    105    102    146 302.4  50.7  34096  288.50 0855.19
2009/04/23 09:17:10.1     -14     54     53     56     77 344.9  49.0  34098  288.53 0855.19
2009/04/23 09:17:10.2      18     46     70     50     86  21.8  61.1  34100  288.57 0855.19
2009/04/23 09:17:10.3      27     39     60     48     76  34.3  56.4  34100  288.57 0855.19
2009/04/23 09:17:10.4       7     61     46     62     77   7.1  39.7  34096  288.50 0855.19
2009/04/23 09:17:10.5       6     82     51     83     97   4.4  35.5  34100  288.57 0855.19
2009/04/23 09:17:10.7      64     25     59     69     90  68.3  44.8  34098  288.52 0855.19
2009/04/23 09:17:10.7      19    -10     66     22     69 117.1  81.0  34100  288.57 0855.19
2009/04/23 09:17:10.8     -26    -96    113    100    150 195.6  54.2  34096  288.48 0855.19
2009/04/23 09:17:10.9     -17    -73    123     76    144 193.4  64.7  34098  288.53 0855.19
2009/04/23 09:17:11.0     -23    -70     98     74    122 198.3  59.0  34096  288.50 0855.20
2009/04/23 09:17:11.1       4    -59     87     60    105 175.5  62.6  34098  288.52 0855.20
2009/04/23 09:17:11.2      16    -26     64     31     71 147.5  72.8  34102  288.58 0855.20
2009/04/23 09:17:11.3      30     -8     57     32     65 105.1  68.8  34098  288.53 0855.20
2009/04/23 09:17:11.4      19    -31     87     37     94 147.5  75.5  34100  288.55 0855.20
2009/04/23 09:17:11.6       1    -35     72     36     80 177.3  71.4  34102  288.58 0855.20
2009/04/23 09:17:11.6     -15    -58     71     61     93 195.2  54.8  34100  288.57 0855.20
2009/04/23 09:17:11.7      -5    -52     71     53     88 186.2  59.4  34092  288.42 0855.20
2009/04/23 09:17:11.8      -6    -32     81     33     87 191.5  77.1  34102  288.58 0855.20
2009/04/23 09:17:11.9       8    -47     75     48     89 170.2  64.7  34098  288.53 0855.20
2009/04/23 09:17:12.1      -6    -66     67     67     94 185.3  50.1  34100  288.57 0855.20
2009/04/23 09:17:12.1     -33    -80     62     87    106 202.3  39.1  34098  288.52 0855.20
2009/04/23 09:17:12.2     -61    -96     56    114    127 212.6  28.2  34100  288.57 0855.20
2009/04/23 09:17:12.3     -71    -70     40    100    107 225.4  23.0  34098  288.52 0855.20
2009/04/23 09:17:12.4     -58    -70     21     91     94 219.7  13.2  34098  288.53 0855.20
2009/04/23 09:17:12.5     -68    -64     18     94     96 226.9  11.1  34100  288.57 0855.20
2009/04/23 09:17:12.6     -93    -59     21    111    114 237.6  11.0  34098  288.53 0855.20
2009/04/23 09:17:12.7     -68    -60     63     91    110 228.7  38.0  34100  288.55 0855.20
2009/04/23 09:17:12.8     -68    -49     45     85     96 234.0  30.3  34098  288.53 0855.20
2009/04/23 09:17:13.0     -36    -55     58     66     87 213.4  46.4  34098  288.52 0855.20
2009/04/23 09:17:13.1     -49    -78     82     93    123 212.5  45.9  34098  288.53 0855.21
2009/04/23 09:17:13.1     -17    -66     64     69     94 194.3  48.5  34098  288.52 0855.21
2009/04/23 09:17:13.2       0    -48     79     49     92 180.9  64.7  34096  288.50 0855.21
2009/04/23 09:17:13.3      -1    -51     65     52     83 181.8  56.9  34096  288.50 0855.21
2009/04/23 09:17:13.5      15    -83     56     85    101 169.3  36.5  34098  288.52 0855.21
2009/04/23 09:17:13.6      -1    -94     95     95    134 180.9  50.1  34096  288.50 0855.21
2009/04/23 09:17:13.7      57    -83     68    101    121 145.3  37.4  34096  288.50 0855.21
2009/04/23 09:17:13.8      34    -76     60     84    103 155.5  39.1  34098  288.52 0855.21
2009/04/23 09:17:13.9      25   -107     38    110    117 166.6  19.4  34096  288.50 0855.21
2009/04/23 09:17:14.0      49   -146     54    155    165 161.5  19.2  34096  288.50 0855.21
2009/04/23 09:17:14.1      30   -134    116    138    180 167.1  44.3  34094  288.47 0855.21
2009/04/23 09:17:14.2      -3   -131    133    132    187 181.4  50.1  34096  288.50 0855.21
2009/04/23 09:17:14.3     -41   -182    129    187    227 192.9  37.8  34094  288.45 0855.21
2009/04/23 09:17:14.4     -36   -156    107    161    193 193.3  36.5  34096  288.48 0855.21
2009/04/23 09:17:14.5     -20   -135    116    137    179 188.5  44.5  34096  288.48 0855.21
2009/04/23 09:17:14.6       1   -126     72    127    145 179.5  31.9  34094  288.47 0855.21
2009/04/23 09:17:14.7       1   -104     75    105    129 179.1  39.5  34092  288.43 0855.21
2009/04/23 09:17:14.8      16   -101     69    103    123 170.7  37.0  34094  288.47 0855.21
2009/04/23 09:17:14.9       1    -79     46     80     92 179.0  32.9  34094  288.47 0855.21
2009/04/23 09:17:15.0      -5    -68     27     69     74 184.5  22.0  34096  288.48 0855.21
2009/04/23 09:17:15.1     -15    -63     26     65     70 193.4  23.0  34096  288.48 0855.22
2009/04/23 09:17:15.2     -10    -73     14     74     76 188.0  11.1  34098  288.52 0855.22
2009/04/23 09:17:15.3      17    -87      1     89     90 168.4   0.8  34096  288.48 0855.22
2009/04/23 09:17:15.4      34    -71     -5     79     80 154.5  -4.1  34094  288.47 0855.22
2009/04/23 09:17:15.5      17    -38     27     42     49 155.5  35.5  34096  288.48 0855.22
2009/04/23 09:17:15.6       5    -12     51     14     52 158.2  84.9  34098  288.52 0855.22
2009/04/23 09:17:15.7      17      5     78     18     80  71.8  87.5  34100  288.57 0855.22
2009/04/23 09:17:15.8     -36      0     65     37     74 270.0  67.7  34102  288.60 0855.22
2009/04/23 09:17:15.9     -77    -10     54     78     94 262.1  37.6  34102  288.60 0855.22
2009/04/23 09:17:16.0     -63    -30     68     70     97 244.6  50.5  34100  288.57 0855.22
2009/04/23 09:17:16.1     -45    -27     73     53     90 238.5  60.5  34104  288.62 0855.22
2009/04/23 09:17:16.2    -109    -35      5    115    116 251.8   2.8  34100  288.55 0855.22
2009/04/23 09:17:16.3     -40    -83     55     93    108 205.5  34.0  34100  288.55 0855.22
2009/04/23 09:17:16.4    -109    -60     10    125    126 241.1   5.0  34102  288.58 0855.22
2009/04/23 09:17:16.5    -213    -74     61    226    235 250.7  15.3  34100  288.55 0855.22
2009/04/23 09:17:16.6    -222   -153    -85    270    284 235.4 -17.6  34112  288.76 0855.22
2009/04/23 09:17:16.7    -219   -159     96    271    288 234.0  19.6  34104  288.61 0855.22
2009/04/23 09:17:16.8    -183      0    148    184    236 270.0  43.0  34100  288.55 0855.22
2009/04/23 09:17:16.9    -136    111     86    176    195 309.1  28.0  34096  288.48 0855.22
2009/04/23 09:17:17.0    -129    121     84    178    196 313.1  27.1  34100  288.57 0855.22
2009/04/23 09:17:17.1    -155     64     93    168    192 292.4  31.4  34096  288.48 0855.23
2009/04/23 09:17:17.2    -154     49    102    162    191 287.7  35.5  34100  288.55 0855.23
2009/04/23 09:17:17.3    -114     61    108    130    169 298.4  43.8  34098  288.53 0855.23
2009/04/23 09:17:17.4     -87     44     72     98    121 297.1  40.1  34100  288.57 0855.23
2009/04/23 09:17:17.5     -80    -20    108     83    136 255.4  58.5  34098  288.52 0855.23
2009/04/23 09:17:17.6     -58    -23     74     63     97 248.3  55.4  34100  288.57 0855.23
2009/04/23 09:17:17.7    -124    -50     26    134    137 247.8  11.0  34100  288.57 0855.23
2009/04/23 09:17:17.8    -159    -32     56    163    173 258.5  19.2  34096  288.48 0855.23
2009/04/23 09:17:17.9    -152    -66     40    166    171 246.5  13.7  34094  288.47 0855.23
2009/04/23 09:17:18.0    -136   -104     64    172    183 232.5  21.3  34096  288.50 0855.23
2009/04/23 09:17:18.1    -126    -62     61    141    153 243.8  25.1  34102  288.60 0855.23
2009/04/23 09:17:18.2     -79     71      5    107    108 312.2   2.8  34102  288.60 0855.23
2009/04/23 09:17:18.3     -66     91    -16    113    115 323.9  -8.2  34118  288.86 0855.23
2009/04/23 09:17:18.4    -103    100    -30    144    148 314.0 -11.9  34172  289.77 0855.23
2009/04/23 09:17:18.5    -136    121    -26    183    185 311.6  -8.2  34148  289.36 0855.23
2009/04/23 09:17:18.6    -135     91    -49    163    171 304.0 -17.0  34120  288.91 0855.23
2009/04/23 09:17:18.7     -54     88    -20    104    106 328.4 -10.9  34148  289.38 0855.23
2009/04/23 09:17:18.8     -92     76    -15    120    121 309.6  -7.3  34154  289.46 0855.23
2009/04/23 09:17:18.9     -88     40    -12     97     98 294.8  -7.3  34168  289.72 0855.23
2009/04/23 09:17:19.0     -73     26    -15     78     80 290.0 -11.3  34168  289.72 0855.23
2009/04/23 09:17:19.1     -49     45    -25     67     71 312.2 -25.4  34164  289.65 0855.25
2009/04/23 09:17:19.2     -47     22     11     52     54 295.2  12.2  34164  289.63 0855.25
2009/04/23 09:17:19.3     -26     -8     11     28     30 251.6  21.0  34160  289.57 0855.25
2009/04/23 09:17:19.4      11      8     -6     14     15  54.0 -27.4  34150  289.41 0855.25
2009/04/23 09:17:19.5      25     17    -24     31     39  55.8 -48.1  34148  289.36 0855.25
2009/04/23 09:17:19.6      32     15    -36     36     50  64.7 -54.5  34136  289.18 0855.25
2009/04/23 09:17:19.7      77     -9    -10     78     79  97.0  -7.3  34142  289.28 0855.25
2009/04/23 09:17:19.8     102     -1      7    103    104  90.8   4.4  34158  289.53 0855.25
2009/04/23 09:17:19.9      81     44    -39     93    100  61.1 -28.5  34146  289.33 0855.25
2009/04/23 09:17:20.0     101     52    -55    114    126  62.5 -31.7  34140  289.23 0855.25
2009/04/23 09:17:20.1     125     41    -36    132    137  71.8 -15.5  34136  289.16 0855.25
2009/04/23 09:17:20.2      38     95    -57    103    117  21.9 -35.8  34128  289.04 0855.25
2009/04/23 09:17:20.3      -4     93    -31     94     98 357.3 -23.8  34128  289.04 0855.25
2009/04/23 09:17:20.4      20     76     33     79     85  15.1  24.1  34138  289.21 0855.25
2009/04/23 09:17:20.5      32     84     74     91    117  20.9  43.7  34162  289.60 0855.25
2009/04/23 09:17:20.6      20     75     66     78    102  15.1  44.8  34178  289.87 0855.25
2009/04/23 09:17:20.7      79     83     87    115    144  43.7  40.7  34162  289.62 0855.25
2009/04/23 09:17:20.8      89     83     45    122    130  46.9  20.9  34160  289.58 0855.25
2009/04/23 09:17:20.9     117    104     12    157    158  48.2   4.4  34160  289.57 0855.25
2009/04/23 09:17:21.0     109     71     47    131    139  56.7  20.4  34146  289.35 0855.25
2009/04/23 09:17:21.1     118     92     48    150    158  52.2  17.7  34148  289.38 0855.27
2009/04/23 09:17:21.2     134    102     64    169    180  52.5  21.5  34150  289.41 0855.27
2009/04/23 09:17:21.3      85    161     32    183    186  27.9  10.1  34164  289.65 0855.27
2009/04/23 09:17:21.4     112    120     80    165    183  43.0  27.8  34150  289.41 0855.27
2009/04/23 09:17:21.5      94    148    109    176    207  32.5  35.0  34148  289.36 0855.27
2009/04/23 09:17:21.6     130    147     90    197    216  41.4  26.2  34164  289.63 0855.27
2009/04/23 09:17:21.7     102    188     62    214    223  28.5  16.3  34176  289.84 0855.27
2009/04/23 09:17:21.8     117    226     69    255    265  27.4  15.3  34176  289.83 0855.27
2009/04/23 09:17:21.9     112    189     79    220    233  30.7  20.2  34188  290.06 0855.27
2009/04/23 09:17:22.0      85    232     53    248    254  20.1  12.2  34186  290.00 0855.27
2009/04/23 09:17:22.1       7    247      6    248    249   1.8   1.6  34210  290.42 0855.27
2009/04/23 09:17:22.2       8    256      2    257    258   2.0   0.5  34228  290.71 0855.27
2009/04/23 09:17:22.3     -50    226     -5    232    233 347.5  -1.3  34226  290.70 0855.27
2009/04/23 09:17:22.4     -68    231     16    241    242 343.5   3.9  34226  290.70 0855.27
2009/04/23 09:17:22.5     -31    185     42    188    193 350.4  12.6  34220  290.60 0855.27
2009/04/23 09:17:22.6     -65    172     50    184    191 339.3  15.3  34236  290.87 0855.27
2009/04/23 09:17:22.7     -53    161     42    170    176 341.7  13.9  34218  290.57 0855.27
2009/04/23 09:17:22.8      -5    189     57    190    199 358.4  16.8  34206  290.35 0855.27
2009/04/23 09:17:22.9     -28    213     52    215    222 352.4  13.7  34216  290.52 0855.27
2009/04/23 09:17:23.0     -14    221     52    222    229 356.2  13.2  34220  290.60 0855.27
2009/04/23 09:17:23.1     -21    196     -7    198    199 353.8  -2.2  34234  290.84 0855.27
2009/04/23 09:17:23.2       0    243     18    244    245   0.2   4.2  34242  290.97 0855.27
2009/04/23 09:17:23.3      -4    236     51    237    243 359.0  12.2  34240  290.93 0855.27
2009/04/23 09:17:23.4      36    286     74    289    299   7.2  14.5  34268  291.41 0855.27
2009/04/23 09:17:23.5     -10    338    116    339    359 358.2  18.9  34200  290.25 0855.27
2009/04/23 09:17:23.6      27    350     82    352    362   4.5  13.2  34172  289.79 0855.27
2009/04/23 09:17:23.7      28    357    -32    359    361   4.6  -5.2  34086  288.32 0855.27
2009/04/23 09:17:23.8      48    348     17    352    353   7.9   2.8  34074  288.10 0855.27
2009/04/23 09:17:23.9      71    361     31    369    371  11.2   4.9  34122  288.93 0855.27
2009/04/23 09:17:24.0     -20    399     -6    400    401 357.1  -0.9  34172  289.79 0855.27
2009/04/23 09:17:24.1     -40    418      0    421    422 354.4   0.1  34158  289.53 0855.27
2009/04/23 09:17:24.2     -38    377    -23    379    380 354.2  -3.5  34102  288.60 0855.27
2009/04/23 09:17:24.3     -13    348    -15    349    350 357.8  -2.6  34078  288.18 0855.27
2009/04/23 09:17:24.4      -7    362    -20    363    364 358.8  -3.2  34074  288.11 0855.27
2009/04/23 09:17:24.5     -38    404    -12    406    407 354.6  -1.7  34076  288.14 0855.27
2009/04/23 09:17:24.6     -92    409      2    420    421 347.3   0.4  34070  288.06 0855.27
2009/04/23 09:17:24.7     -80    416      8    424    425 349.0   1.1  34072  288.07 0855.27
2009/04/23 09:17:24.8     -50    384      0    388    389 352.6   0.0  34074  288.13 0855.27
2009/04/23 09:17:24.9      -5    416    -13    417    418 359.2  -1.9  34088  288.36 0855.27
2009/04/23 09:17:25.0     -34    420     -8    422    423 355.3  -1.2  34074  288.12 0855.27
2009/04/23 09:17:25.1     -93    482    -63    492    497 349.0  -7.3  34110  288.71 0855.24
2009/04/23 09:17:25.2     -78    462     61    469    473 350.4   7.4  34116  288.84 0855.24
2009/04/23 09:17:25.3     -35    469    -11    471    472 355.6  -1.4  34104  288.64 0855.24
2009/04/23 09:17:25.4     -68    423     92    429    439 350.8  12.2  34134  289.14 0855.24
2009/04/23 09:17:25.5    -101    430     70    442    448 346.7   9.0  34106  288.67 0855.24
2009/04/23 09:17:25.6    -173    442    -20    475    476 338.6  -2.5  34092  288.42 0855.24
2009/04/23 09:17:25.7    -162    368    -15    403    404 336.2  -2.2  34084  288.29 0855.24
2009/04/23 09:17:25.8    -196    332    -49    386    390 329.4  -7.3  34084  288.28 0855.24
2009/04/23 09:17:25.9    -100    356    -78    371    380 344.2 -11.9  34090  288.40 0855.24
2009/04/23 09:17:26.0      -5    424    -28    425    426 359.3  -3.8  34192  290.12 0855.24
2009/04/23 09:17:26.1      28    435    -71    436    442   3.8  -9.3  34154  289.48 0855.24
2009/04/23 09:17:26.2      65    406    -32    412    414   9.1  -4.5  34168  289.70 0855.24
2009/04/23 09:17:26.3      26    362    -39    363    366   4.2  -6.3  34158  289.54 0855.24
2009/04/23 09:17:26.4      44    382     -8    385    386   6.6  -1.3  34182  289.93 0855.24
2009/04/23 09:17:26.5     101    307    -21    324    325  18.3  -3.7  34174  289.81 0855.24
2009/04/23 09:17:26.6     201    235      9    310    311  40.5   1.7  34166  289.68 0855.24
2009/04/23 09:17:26.7     198    273     86    338    349  36.0  14.3  34152  289.43 0855.24
2009/04/23 09:17:26.8      77    365    -44    374    377  11.9  -6.8  34080  288.23 0855.24
2009/04/23 09:17:26.9      79    399    -56    407    411  11.3  -7.9  34102  288.60 0855.24
2009/04/23 09:17:27.0     109    300    -58    320    326  20.0 -10.3  34162  289.59 0855.24
2009/04/23 09:17:27.1     103    271     21    291    292  20.9   4.2  34192  290.10 0855.22
2009/04/23 09:17:27.2     139    171     73    221    233  39.0  18.4  34178  289.89 0855.22
2009/04/23 09:17:27.3     218     99    135    240    275  65.6  31.6  34180  289.90 0855.22
2009/04/23 09:17:27.4     218    139     95    259    275  57.5  21.0  34168  289.70 0855.22
2009/04/23 09:17:27.5     201    163     73    260    271  50.9  15.8  34184  289.98 0855.22
2009/04/23 09:17:27.6     259    218     42    339    342  49.9   7.1  34258  291.22 0855.22
2009/04/23 09:17:27.7     254    171    124    307    331  56.0  23.1  34272  291.48 0855.22
2009/04/23 09:17:27.8     203    203    180    288    339  45.0  35.2  34300  291.94 0855.22
2009/04/23 09:17:27.9     200    233    236    308    388  40.6  41.4  34282  291.66 0855.22
2009/04/23 09:17:28.0     291    196    205    352    407  56.0  32.9  34168  289.72 0855.22
2009/04/23 09:17:28.1     279    122    107    305    323  66.3  20.1  34094  288.44 0855.24
2009/04/23 09:17:28.2     222    133     80    259    272  59.1  17.3  34088  288.36 0855.24
2009/04/23 09:17:28.3     197    161    100    255    273  50.7  22.3  34094  288.46 0855.24
2009/04/23 09:17:28.4     279    198     65    343    350  54.6  10.7  34098  288.52 0855.24
2009/04/23 09:17:28.5     290    169     66    336    343  59.7  11.1  34084  288.27 0855.24
2009/04/23 09:17:28.6     247    178      2    305    306  54.3   0.5  34100  288.56 0855.24
2009/04/23 09:17:28.7     238    136    -25    275    277  60.2  -5.2  34092  288.41 0855.24
2009/04/23 09:17:28.8     211    107     20    237    238  62.9   4.9  34086  288.31 0855.24
2009/04/23 09:17:28.9     130    176    -36    220    224  36.5  -9.4  34092  288.43 0855.24
2009/04/23 09:17:29.0     185    197     78    271    283  43.3  16.0  34092  288.43 0855.24
2009/04/23 09:17:29.1     249    170     64    302    309  55.6  12.0  34112  288.75 0855.24
2009/04/23 09:17:29.2     275    164     37    321    324  59.2   6.7  34074  288.12 0855.24
2009/04/23 09:17:29.3     334    166    107    374    390  63.5  16.0  34072  288.08 0855.24
2009/04/23 09:17:29.4     335    200    141    391    416  59.1  19.9  34082  288.24 0855.24
2009/04/23 09:17:29.5     280    214    130    353    376  52.6  21.0  34084  288.27 0855.24
2009/04/23 09:17:29.6     274    166    114    321    340  58.8  20.2  34084  288.30 0855.24
2009/04/23 09:17:29.7     319    112     73    339    347  70.6  12.2  34084  288.28 0855.24
2009/04/23 09:17:29.8     294    112     51    315    320  69.1   9.2  34078  288.17 0855.24
2009/04/23 09:17:29.9     337    136     40    364    367  68.0   6.4  34080  288.23 0855.24
2009/04/23 09:17:30.0     329    108     63    347    353  71.7  10.4  34082  288.25 0855.24
2009/04/23 09:17:30.1     254    190     41    318    321  53.2   7.4  34080  288.22 0855.24
2009/04/23 09:17:30.2     301    252     91    393    404  50.1  13.1  34082  288.25 0855.24
2009/04/23 09:17:30.3     278    253     64    377    383  47.7   9.7  34080  288.23 0855.24
2009/04/23 09:17:30.4     286    212    107    357    373  53.4  16.8  34220  290.59 0855.24
2009/04/23 09:17:30.5     347    228     60    416    421  56.7   8.3  34192  290.11 0855.24
2009/04/23 09:17:30.6     371    159    152    404    431  66.7  21.7  34182  289.95 0855.24
2009/04/23 09:17:30.7     367    145    140    395    420  68.3  19.5  34180  289.90 0855.24
2009/04/23 09:17:30.8     339     94     52    352    356  74.4   8.5  34142  289.28 0855.24
2009/04/23 09:17:30.9     296    107    146    315    347  70.1  26.9  34188  290.06 0855.24
2009/04/23 09:17:31.0     262    125    124    291    316  64.5  24.5  34194  290.14 0855.24
2009/04/23 09:17:31.1     269    117     57    294    300  66.5  11.1  34140  289.22 0855.24
2009/04/23 09:17:31.2     246    142     50    285    290  60.0  10.0  34152  289.44 0855.24
2009/04/23 09:17:31.3     126     98     78    160    178  52.2  28.0  34192  290.11 0855.24
2009/04/23 09:17:31.4     295    135    102    325    341  65.3  17.5  34202  290.27 0855.24
2009/04/23 09:17:31.5     325    188    121    376    396  60.0  17.9  34182  289.96 0855.24
2009/04/23 09:17:31.6     247    131     15    280    281  62.0   3.1  34114  288.78 0855.24
2009/04/23 09:17:31.7     169     99     95    196    217  59.6  27.4  34146  289.35 0855.24
2009/04/23 09:17:31.8     250     13    228    251    339  87.0  47.0  34172  289.76 0855.24
2009/04/23 09:17:31.9     231     47    159    236    284  78.3  37.4  34126  288.98 0855.24
2009/04/23 09:17:32.0     355     99     27    369    370  74.3   4.2  34100  288.57 0855.24
2009/04/23 09:17:32.1     358     99     -8    372    373  74.5  -1.3  34098  288.52 0855.25
2009/04/23 09:17:32.2     322     77     24    332    333  76.5   4.2  34096  288.50 0855.25
2009/04/23 09:17:32.3     360     97     42    374    377  74.9   6.5  34100  288.57 0855.25
2009/04/23 09:17:32.4     302     42    119    306    328  82.0  22.3  34136  289.15 0855.25
2009/04/23 09:17:32.5     291     54     46    296    300  79.4   9.0  34122  288.93 0855.25
2009/04/23 09:17:32.6     270     45    114    274    296  80.5  23.8  34134  289.14 0855.25
2009/04/23 09:17:32.7     332     65    120    339    360  78.8  19.5  34108  288.69 0855.25
2009/04/23 09:17:32.8     317     93    140    331    359  73.6  24.3  34120  288.91 0855.25
2009/04/23 09:17:32.9     299    131     85    327    338  66.3  14.6  34110  288.74 0855.25
2009/04/23 09:17:33.0     304    138     71    334    342  65.6  12.1  34100  288.57 0855.25
2009/04/23 09:17:33.1     259    177     85    315    327  55.6  15.1  34114  288.78 0855.25
2009/04/23 09:17:33.2     243    144     88    283    297  59.4  17.3  34114  288.80 0855.25
2009/04/23 09:17:33.3     212    151     64    261    269  54.5  13.9  34120  288.88 0855.25
2009/04/23 09:17:33.4     180    115     88    214    231  57.4  23.4  34116  288.84 0855.25
2009/04/23 09:17:33.5     215    102    101    238    258  64.6  24.2  34090  288.39 0855.25
2009/04/23 09:17:33.6     219    116     98    249    267  62.0  22.8  34092  288.41 0855.25
2009/04/23 09:17:33.7     180    136     93    226    244  52.9  23.4  34090  288.39 0855.25
2009/04/23 09:17:33.8     152    114     96    191    213  53.1  28.7  34088  288.36 0855.25
2009/04/23 09:17:33.9     195     96    110    218    244  63.8  28.7  34102  288.58 0855.25
2009/04/23 09:17:34.0     213    108     92    239    256  63.0  22.1  34106  288.65 0855.25
2009/04/23 09:17:34.1     180    121    119    218    248  56.0  31.0  34114  288.80 0855.25
2009/04/23 09:17:34.2     218    179    128    283    310  50.7  26.2  34194  290.15 0855.25
2009/04/23 09:17:34.3     226    160    134    278    308  54.7  27.3  34222  290.61 0855.25
2009/04/23 09:17:34.4     240    150    123    283    308  58.0  25.1  34182  289.93 0855.25
2009/04/23 09:17:34.5     178    157    154    238    283  48.7  35.7  34164  289.64 0855.25
2009/04/23 09:17:34.6     182    108    164    212    268  59.3  41.7  34200  290.24 0855.25
2009/04/23 09:17:34.7     206    151    161    256    302  53.8  35.5  34250  291.10 0855.25
2009/04/23 09:17:34.8     194    186    155    270    311  46.2  32.4  34184  289.98 0855.25
2009/04/23 09:17:34.9     162    158    143    227    268  45.8  35.5  34130  289.07 0855.25
2009/04/23 09:17:35.0     111    151    116    188    220  36.5  35.0  34094  288.45 0855.25
2009/04/23 09:17:35.1     149    142     71    206    219  46.4  19.2  34112  288.77 0855.25
2009/04/23 09:17:35.2     119    114     67    166    179  46.2  23.0  34094  288.45 0855.25
2009/04/23 09:17:35.3      65    153     69    167    180  22.9  23.6  34102  288.60 0855.25
2009/04/23 09:17:35.4      89    159     51    183    190  29.4  15.6  34136  289.18 0855.25
2009/04/23 09:17:35.5     138     99     48    171    178  54.3  15.8  34172  289.77 0855.25
2009/04/23 09:17:35.6     179    100     55    206    214  60.7  15.0  34200  290.26 0855.25
2009/04/23 09:17:35.7     215    161     52    269    275  53.1  11.0  34204  290.31 0855.25
2009/04/23 09:17:35.8     193     76     73    208    221  68.3  19.4  34180  289.92 0855.25
2009/04/23 09:17:35.9     264    125    154    293    331  64.6  30.0  34234  290.82 0855.25
2009/04/23 09:17:36.0     277    120    175    303    349  66.5  32.8  34258  291.25 0855.25
2009/04/23 09:17:36.1     188     71    214    202    294  69.2  52.1  34240  290.92 0855.26
2009/04/23 09:17:36.2     213    140    149    256    296  56.7  32.9  34236  290.85 0855.26
2009/04/23 09:17:36.3     131    230    127    265    293  29.8  27.3  34192  290.10 0855.26
2009/04/23 09:17:36.4     194     92    148    216    261  64.5  37.6  34228  290.73 0855.26
2009/04/23 09:17:36.5     244    123    126    274    301  63.1  26.4  34106  288.66 0855.26
2009/04/23 09:17:36.6     215    243    154    325    359  41.5  27.1  34126  289.01 0855.26
2009/04/23 09:17:36.7     241    261    106    356    372  42.8  16.6  34128  289.04 0855.26
2009/04/23 09:17:36.8     314    208    138    377    401  56.4  20.9  34142  289.28 0855.26
2009/04/23 09:17:36.9     355    202    111    409    424  60.3  15.2  34100  288.56 0855.26
2009/04/23 09:17:37.0     294    146    -68    329    337  63.5 -11.8  34096  288.49 0855.26
2009/04/23 09:17:37.1     376    156     51    408    412  67.5   7.2  34138  289.19 0855.26
2009/04/23 09:17:37.2     375    263     93    459    469  54.9  11.4  34148  289.37 0855.26
2009/04/23 09:17:37.3     454    173     -9    487    488  69.1  -1.2  34098  288.51 0855.26
2009/04/23 09:17:37.4     469    240     32    527    528  62.9   3.5  34094  288.47 0855.26
2009/04/23 09:17:37.5     431    224     94    486    496  62.5  11.0  34100  288.54 0855.26
2009/04/23 09:17:37.6     320     90    139    333    360  74.2  23.9  34106  288.67 0855.26
2009/04/23 09:17:37.7     204     15      6    205    206  85.6   1.8  34118  288.87 0855.26
2009/04/23 09:17:37.8     234    -48    -36    240    243 101.7  -8.6  34136  289.15 0855.26
2009/04/23 09:17:37.9     156    -21    -22    158    160  98.0  -8.2  34138  289.19 0855.26
2009/04/23 09:17:38.0     120    -40    -45    127    134 108.4 -23.8  34142  289.26 0855.26
2009/04/23 09:17:38.1     153     16   -106    154    186  83.9 -42.2  34142  289.26 0855.25
2009/04/23 09:17:38.2     205     67    -24    216    218  71.8  -6.5  34146  289.35 0855.25
2009/04/23 09:17:38.3     149    -40    -48    155    162 105.1 -22.3  34128  289.04 0855.25
2009/04/23 09:17:38.4     188    -23   -148    190    240  97.0 -46.4  34134  289.14 0855.25
2009/04/23 09:17:38.5     147   -109   -104    184    211 126.6 -36.5  34134  289.13 0855.25
2009/04/23 09:17:38.6     170    -16     -9    171    172  95.5  -3.3  34140  289.23 0855.25
2009/04/23 09:17:38.7     280    -43    101    284    302  98.8  19.6  34172  289.76 0855.25
2009/04/23 09:17:38.8     243    -22    145    245    284  95.2  33.4  34160  289.56 0855.25
2009/04/23 09:17:38.9     126     26     54    129    139  78.1  23.6  34148  289.36 0855.25
2009/04/23 09:17:39.0     105     80    -47    133    142  52.7 -19.6  34144  289.31 0855.25
2009/04/23 09:17:39.2     158     52    -89    167    189  71.6 -35.0  34142  289.28 0855.25
2009/04/23 09:17:39.3     184     14    -61    185    194  85.6 -23.8  34148  289.36 0855.25
2009/04/23 09:17:39.3     189    -46   -109    195    223 103.7 -36.0  34150  289.40 0855.25
2009/04/23 09:17:39.4     105    -48    107    116    157 114.8  47.7  34138  289.19 0855.25
2009/04/23 09:17:39.5      25    -38    154     46    160 146.6  83.1  34142  289.26 0855.25
2009/04/23 09:17:39.6      24      7    112     26    114  73.2  87.5  34148  289.38 0855.25
2009/04/23 09:17:39.8       2    -42     75     43     86 176.4  67.2  34156  289.50 0855.25
2009/04/23 09:17:39.9     -41    -79     57     90    106 207.6  35.5  34154  289.48 0855.25
2009/04/23 09:17:40.0     -27   -118     63    122    137 192.9  29.3  34148  289.36 0855.25
2009/04/23 09:17:40.1     -29   -110     39    114    121 195.2  18.9  34148  289.36 0855.25
2009/04/23 09:17:40.2      18    -59     19     62     65 162.2  17.3  34144  289.31 0855.25
2009/04/23 09:17:40.3      64      7    135     65    149  83.0  72.8  34140  289.23 0855.25
2009/04/23 09:17:40.4      27     17     96     32    101  57.6  81.0  34142  289.26 0855.25
2009/04/23 09:17:40.5     -10     31     93     33     98 341.7  80.2  34144  289.31 0855.25
2009/04/23 09:17:40.6     -30     48    107     57    121 327.5  69.8  34146  289.33 0855.25
2009/04/23 09:17:40.7     -87     75    123    116    169 310.9  51.6  34152  289.45 0855.25
2009/04/23 09:17:40.8      -6     80     82     81    115 355.5  49.1  34170  289.75 0855.25
2009/04/23 09:17:40.9      21     55    113     59    127  20.9  70.8  34160  289.58 0855.25
2009/04/23 09:17:41.0      44     86     62     97    115  27.2  35.5  34174  289.82 0855.25
2009/04/23 09:17:41.1      88     64    119    109    161  54.0  52.7  34218  290.57 0855.25
2009/04/23 09:17:41.2      16     78    138     80    159  11.6  67.2  34222  290.62 0855.25
2009/04/23 09:17:41.3      17    126    127    128    180   8.0  50.2  34252  291.13 0855.25
2009/04/23 09:17:41.4      51    130    103    140    173  21.4  39.9  34236  290.86 0855.25
2009/04/23 09:17:41.5       3    186    103    187    213   1.1  31.4  34228  290.72 0855.25
2009/04/23 09:17:41.6     -62    173     76    184    199 340.2  23.6  34202  290.30 0855.25
2009/04/23 09:17:41.7      18     69     93     72    117  15.1  58.4  34184  289.99 0855.25
2009/04/23 09:17:41.8      18     31     99     37    105  30.7  78.6  34194  290.14 0855.25
2009/04/23 09:17:41.9      67     67    105     95    141  45.0  52.7  34202  290.28 0855.25
2009/04/23 09:17:42.0     -28     98    113    102    152 344.0  53.3  34198  290.21 0855.25
2009/04/23 09:17:42.1      35    106     61    112    127  18.5  31.3  34200  290.26 0855.25
2009/04/23 09:17:42.2      36     55     79     66    102  33.4  55.8  34200  290.26 0855.25
2009/04/23 09:17:42.3     -51     68    114     86    142 323.0  59.4  34182  289.96 0855.25
2009/04/23 09:17:42.4     -80    171    154    190    244 334.8  43.5  34152  289.43 0855.25
2009/04/23 09:17:42.5    -118     88    150    148    210 306.9  50.1  34124  288.97 0855.25
2009/04/23 09:17:42.6     -59     20     98     63    116 289.1  64.6  34128  289.04 0855.25
2009/04/23 09:17:42.7     -20     -8     92     22     94 246.5  86.9  34134  289.14 0855.25
2009/04/23 09:17:42.8     -42    -10     67     44     80 256.7  63.6  34128  289.02 0855.25
2009/04/23 09:17:42.9     -31    -57     83     66    106 208.9  57.5  34126  289.01 0855.25
2009/04/23 09:17:43.0     -37    -58     94     69    116 212.5  60.5  34140  289.23 0855.25
2009/04/23 09:17:43.1     -24    -62     64     67     92 201.9  49.0  34158  289.53 0855.25
2009/04/23 09:17:43.2      -6    -42     20     43     47 188.9  26.2  34164  289.65 0855.25
2009/04/23 09:17:43.3      46    -87      0     99    100 151.9   0.2  34176  289.85 0855.25
2009/04/23 09:17:43.4     101    -10     24    102    105  96.1  13.7  34186  290.01 0855.25
2009/04/23 09:17:43.5      83     22     44     87     97  74.9  28.2  34206  290.35 0855.25
2009/04/23 09:17:43.6      40     49     46     64     78  39.6  39.7  34204  290.33 0855.25
2009/04/23 09:17:43.7      43     23     91     49    103  62.0  68.9  34196  290.18 0855.25
2009/04/23 09:17:43.8      84     63     68    105    125  53.1  35.6  34204  290.31 0855.25
2009/04/23 09:17:43.9     117    103     79    157    175  48.7  28.7  34198  290.21 0855.25
2009/04/23 09:17:44.0     179    133    132    224    260  53.4  33.4  34194  290.15 0855.25
2009/04/23 09:17:44.1     165    195    123    256    284  40.3  27.3  34208  290.37 0855.25
2009/04/23 09:17:44.2     157    110    149    192    243  54.9  41.7  34194  290.16 0855.25
2009/04/23 09:17:44.3     112    125    107    168    199  41.9  35.5  34182  289.96 0855.25
2009/04/23 09:17:44.4     142    100    109    174    205  54.9  35.5  34172  289.77 0855.25
2009/04/23 09:17:44.5      54    243    154    250    293  12.7  34.5  34154  289.47 0855.25
2009/04/23 09:17:44.6     -74    334     58    343    348 347.4   9.7  34136  289.18 0855.25
2009/04/23 09:17:44.7    -100    372     36    386    388 344.9   5.5  34152  289.42 0855.25
2009/04/23 09:17:44.8    -155    362    -20    394    395 336.8  -3.0  34182  289.96 0855.25
2009/04/23 09:17:44.9     -48    394     30    397    399 353.0   4.4  34182  289.93 0855.25
2009/04/23 09:17:45.0     -25    323     50    325    329 355.5   8.8  34176  289.83 0855.25
2009/04/23 09:17:45.1       0    335     65    336    343   0.0  11.0  34178  289.86 0855.25
2009/04/23 09:17:45.2      98    256    131    275    304  21.0  27.3  34180  289.90 0855.25
2009/04/23 09:17:45.3      50    213    143    219    261  13.4  36.0  34192  290.12 0855.25
2009/04/23 09:17:45.4      52    254    116    260    284  11.6  25.7  34204  290.32 0855.25
2009/04/23 09:17:45.5      42    274     65    278    286   8.9  13.2  34212  290.46 0855.25
2009/04/23 09:17:45.6      58    169     19    179    181  19.2   6.1  34216  290.53 0855.25
2009/04/23 09:17:45.7       4    144     47    145    153   1.8  17.9  34216  290.52 0855.25
2009/04/23 09:17:45.8     -21    143     17    145    147 351.5   6.9  34212  290.47 0855.25
2009/04/23 09:17:45.9     -21    125     10    127    128 350.2   4.9  34228  290.74 0855.25
2009/04/23 09:17:46.0     -19     94      4     97     98 348.4   2.9  34232  290.81 0855.25
2009/04/23 09:17:46.1      -2     54    -17     55     58 357.3 -17.6  34238  290.89 0855.25
2009/04/23 09:17:46.2      71     23    -52     75     91  71.8 -42.4  34230  290.75 0855.25
2009/04/23 09:17:46.3      75    -25    -62     80    101 108.6 -46.6  34222  290.64 0855.25
2009/04/23 09:17:46.4      98     59     27    115    119  58.9  13.2  34194  290.16 0855.25
2009/04/23 09:17:46.5     201    142    106    247    268  54.7  24.6  34192  290.10 0855.25
2009/04/23 09:17:46.6     323     97     47    338    342  73.2   8.0  34234  290.84 0855.25
2009/04/23 09:17:46.7     334     58    -46    340    344  80.1  -7.7  34212  290.45 0855.25
2009/04/23 09:17:46.8     315     13    123    316    339  87.6  22.4  34198  290.23 0855.25
2009/04/23 09:17:46.9     365    154    -95    397    409  67.2 -13.6  34154  289.48 0855.25
2009/04/23 09:17:47.0     303    192      5    359    360  57.6   0.8  34138  289.20 0855.25
2009/04/23 09:17:47.1     506    174    -20    536    537  71.0  -2.2  34120  288.89 0855.25
2009/04/23 09:17:47.2     445    238     21    505    506  61.9   2.4  34100  288.54 0855.25
2009/04/23 09:17:47.3     439    231    -10    497    498  62.3  -1.3  34106  288.66 0855.25
2009/04/23 09:17:47.4     420    217    -18    473    474  62.6  -2.2  34124  288.96 0855.25
2009/04/23 09:17:47.5     282    265     73    388    395  46.8  10.7  34098  288.52 0855.25
2009/04/23 09:17:47.6     263    250    118    363    382  46.5  18.0  34096  288.50 0855.25
2009/04/23 09:17:47.7     216    181     55    283    289  50.0  11.0  34090  288.37 0855.25
2009/04/23 09:17:47.8     194     91     89    215    232  64.8  23.6  34094  288.45 0855.25
2009/04/23 09:17:47.9     109    140     39    178    183  38.1  12.4  34092  288.42 0855.25
2009/04/23 09:17:48.0     165    140     23    217    219  49.6   6.1  34096  288.50 0855.25
2009/04/23 09:17:48.1     152    213      7    262    263  35.6   1.7  34094  288.46 0855.25
2009/04/23 09:17:48.2     186    198    -10    272    273  43.2  -2.2  34096  288.49 0855.26
2009/04/23 09:17:48.3     144    215      7    260    261  33.8   1.7  34144  289.31 0855.26
2009/04/23 09:17:48.4     127    171    -43    214    219  36.7 -11.3  34116  288.82 0855.26
2009/04/23 09:17:48.5     116    204    -61    235    243  29.6 -14.7  34164  289.64 0855.26
2009/04/23 09:17:48.6      63    149    -27    162    165  22.9  -9.6  34210  290.41 0855.26
2009/04/23 09:17:48.7     252    147     50    292    297  59.8   9.9  34200  290.26 0855.26
2009/04/23 09:17:48.8     271    193     49    333    337  54.5   8.5  34194  290.15 0855.26
2009/04/23 09:17:48.9     206    225      5    306    307  42.4   1.0  34116  288.81 0855.26
2009/04/23 09:17:49.0     150    195     -2    247    248  37.6  -0.5  34124  288.97 0855.26
2009/04/23 09:17:49.1     190    152     32    244    247  51.3   7.5  34190  290.09 0855.26
2009/04/23 09:17:49.2     184    153    114    240    265  50.2  27.2  34206  290.34 0855.26
2009/04/23 09:17:49.3     255    207    112    329    348  50.9  18.9  34194  290.15 0855.26
2009/04/23 09:17:49.4     244    145     44    285    289  59.3   8.8  34128  289.02 0855.26
2009/04/23 09:17:49.5     354    172     60    394    399  64.1   8.7  34110  288.72 0855.26
2009/04/23 09:17:49.6     406    142    -40    431    434  70.7  -5.3  34104  288.61 0855.26
2009/04/23 09:17:49.7     354     72    -69    362    369  78.5 -10.9  34110  288.71 0855.26
2009/04/23 09:17:49.8     298    100    -80    315    326  71.4 -14.3  34110  288.73 0855.26
2009/04/23 09:17:49.9     215     57     23    223    225  75.0   6.1  34112  288.77 0855.26
2009/04/23 09:17:50.0     213    -46     23    219    221 102.4   6.1  34112  288.75 0855.26
2009/04/23 09:17:50.1     287     26    162    289    331  84.8  31.9  34120  288.90 0855.26
2009/04/23 09:17:50.2     341    -24    126    342    364  94.1  21.0  34132  289.10 0855.26
2009/04/23 09:17:50.3     305     43    108    309    328  82.0  19.3  34122  288.92 0855.26
2009/04/23 09:17:50.4     300    -17    206    301    364  93.4  37.6  34132  289.11 0855.26
2009/04/23 09:17:50.5     331      0    174    332    374  89.9  30.0  34122  288.94 0855.26
2009/04/23 09:17:50.6     328    -13    220    329    395  92.3  37.0  34128  289.04 0855.26
2009/04/23 09:17:50.7     250   -183     68    310    318 126.2  12.5  34118  288.87 0855.26
2009/04/23 09:17:50.8     198   -178    119    267    292 132.0  25.3  34120  288.90 0855.26
2009/04/23 09:17:50.9     168   -122    141    208    251 126.0  37.3  34118  288.85 0855.26
2009/04/23 09:17:51.0     180    -91    161    202    258 116.9  42.7  34126  288.98 0855.26
2009/04/23 09:17:51.1     219   -173    191    280    338 128.2  37.7  34106  288.66 0855.26
2009/04/23 09:17:51.2     179   -159    195    240    309 131.6  43.7  34116  288.83 0855.27
2009/04/23 09:17:51.3     111   -149    210    187    281 143.3  54.0  34122  288.92 0855.27
2009/04/23 09:17:51.4      53     -4    195     54    202  94.4  84.6  34116  288.84 0855.27
2009/04/23 09:17:51.5     108    -26    201    112    230 103.7  68.8  34118  288.87 0855.27
2009/04/23 09:17:51.6     189    -15    219    190    289  94.8  54.6  34118  288.87 0855.27
2009/04/23 09:17:51.7     324    -24    235    325    401  94.4  39.5  34120  288.89 0855.27
2009/04/23 09:17:51.8     268    -40    190    272    331  98.6  38.5  34118  288.87 0855.27
2009/04/23 09:17:52.0     114     -7    231    115    258  93.5  71.9  34114  288.80 0855.27
2009/04/23 09:17:52.0     184     71    182    198    268  68.9  47.7  34114  288.80 0855.27
2009/04/23 09:17:52.2     299    -41    179    302    351  97.9  33.5  34112  288.76 0855.27
2009/04/23 09:17:52.2     325    -12    194    326    379  92.3  33.6  34122  288.94 0855.27
2009/04/23 09:17:52.3     228     26    158    230    279  83.4  37.6  34126  288.98 0855.27
2009/04/23 09:17:52.5     281    -65    -11    289    290 103.0  -2.2  34128  289.02 0855.27
2009/04/23 09:17:52.6     233     81     59    247    255  70.7  13.5  34122  288.92 0855.27
2009/04/23 09:17:52.7     241     12     29    242    244  87.0   6.9  34124  288.95 0855.27
2009/04/23 09:17:52.7     146     76     95    165    190  62.5  32.7  34130  289.08 0855.27
2009/04/23 09:17:52.8     102    262     18    282    283  21.4   3.8  34130  289.07 0855.27
2009/04/23 09:17:52.9     116    356   -116    375    392  18.1 -22.2  34124  288.96 0855.27
2009/04/23 09:17:53.0       8    252   -113    253    277   2.0 -29.7  34126  289.00 0855.27
2009/04/23 09:17:53.1      32    167    -42    171    177  11.1 -13.9  34134  289.13 0855.27
2009/04/23 09:17:53.2    -183     93    -84    206    222 297.1 -27.5  34130  289.06 0855.27
2009/04/23 09:17:53.3    -275     66   -100    283    301 283.5 -19.6  34128  289.03 0855.27
2009/04/23 09:17:53.4    -212    158   -191    265    326 306.8 -43.7  34104  288.61 0855.27
2009/04/23 09:17:53.5    -144    121   -150    189    241 310.2 -47.1  34100  288.57 0855.27
2009/04/23 09:17:53.6     -85    134   -110    159    193 327.5 -42.2  34112  288.75 0855.27
2009/04/23 09:17:53.7      -8    229    -47    230    235 358.0 -11.6  34152  289.42 0855.27
2009/04/23 09:17:53.8      12    208     34    209    212   3.4   9.5  34156  289.52 0855.27
2009/04/23 09:17:53.9     107    236     76    260    271  24.5  16.4  34146  289.34 0855.27
2009/04/23 09:17:54.0      94    238    103    256    275  21.6  23.1  34134  289.14 0855.27
2009/04/23 09:17:54.1     185    189     28    265    267  44.3   6.1  34160  289.56 0855.27
2009/04/23 09:17:54.2     146     88    115    171    206  58.9  37.4  34162  289.62 0855.27
2009/04/23 09:17:54.3      45    171     71    177    190  14.9  23.0  34172  289.79 0855.27
2009/04/23 09:17:54.4     -40    207     32    212    215 348.9   8.8  34192  290.11 0855.27
2009/04/23 09:17:54.5      -3    217     16    218    219 359.0   4.4  34184  289.99 0855.27
2009/04/23 09:17:54.6      18    242    145    243    282   4.4  33.5  34180  289.90 0855.27
2009/04/23 09:17:54.7     -68    177    164    190    250 338.8  45.4  34174  289.81 0855.27
2009/04/23 09:17:54.8    -206    219      8    301    302 316.8   1.6  34182  289.95 0855.27
2009/04/23 09:17:54.9    -122    178    -77    217    231 325.5 -19.6  34170  289.74 0855.27
2009/04/23 09:17:55.0     -99    228    -39    249    253 336.4  -9.0  34192  290.12 0855.27
2009/04/23 09:17:55.1    -143    247    -26    286    288 329.9  -5.2  34186  290.00 0855.27
2009/04/23 09:17:55.2    -163    178    -26    242    244 317.5  -6.2  34180  289.90 0855.26
2009/04/23 09:17:55.3    -173    237    -37    294    297 323.9  -7.3  34200  290.26 0855.26
2009/04/23 09:17:55.4    -138    216    -67    257    266 327.4 -14.7  34198  290.22 0855.26
2009/04/23 09:17:55.5     -30    279     -3    281    282 353.8  -0.7  34184  289.97 0855.26
2009/04/23 09:17:55.6     -77    287     -3    298    299 344.9  -0.7  34182  289.93 0855.26
2009/04/23 09:17:55.7     -67    279    -63    288    295 346.4 -12.4  34188  290.03 0855.26
2009/04/23 09:17:55.8       0    277    -37    278    281   0.0  -7.7  34178  289.86 0855.26
2009/04/23 09:17:55.9      58    176     34    186    190  18.3  10.6  34162  289.62 0855.26
2009/04/23 09:17:56.0      51    156     27    165    168  18.3   9.5  34170  289.74 0855.26
2009/04/23 09:17:56.1      52    210     59    217    226  14.0  15.3  34164  289.65 0855.26
2009/04/23 09:17:56.2      90    169     42    192    197  28.3  12.4  34172  289.79 0855.26
2009/04/23 09:17:56.3      99    151     54    181    190  33.4  16.8  34172  289.77 0855.26
2009/04/23 09:17:56.4     104    194    103    221    243  28.3  27.1  34164  289.64 0855.26
2009/04/23 09:17:56.5      81    195    109    212    238  22.7  29.3  34166  289.67 0855.26
2009/04/23 09:17:56.6       9    230    196    231    302   2.2  44.3  34194  290.15 0855.26
2009/04/23 09:17:56.7    -110    327     74    346    354 341.4  12.1  34206  290.35 0855.26
2009/04/23 09:17:56.8    -117    280    133    304    331 337.3  25.0  34214  290.48 0855.26
2009/04/23 09:17:56.9    -104    270     78    290    301 338.8  15.2  34210  290.42 0855.26
2009/04/23 09:17:57.0     -15    190    107    191    218 355.3  31.4  34166  289.69 0855.26
2009/04/23 09:17:57.1      44    146    166    153    225  17.0  52.5  34156  289.52 0855.26
2009/04/23 09:17:57.2     -37    214    141    218    259 350.2  35.7  34198  290.20 0855.26
2009/04/23 09:17:57.3     -73    202    -17    216    217 340.0  -4.6  34206  290.35 0855.26
2009/04/23 09:17:57.4    -100    196     10    221    222 332.8   2.8  34194  290.16 0855.26
2009/04/23 09:17:57.5     -52    193     18    200    201 344.8   5.2  34222  290.62 0855.26
2009/04/23 09:17:57.6     -33    195     56    198    206 350.4  15.8  34244  290.99 0855.26
2009/04/23 09:17:57.7     -44    211     58    216    224 348.2  15.2  34236  290.87 0855.26
2009/04/23 09:17:57.8     -79    235     53    249    255 341.3  12.0  34216  290.51 0855.26
2009/04/23 09:17:57.9     -59    203     90    212    230 343.7  24.6  34194  290.14 0855.26
2009/04/23 09:17:58.0     -43    142     61    149    161 343.1  23.6  34174  289.82 0855.26
2009/04/23 09:17:58.1      26     98     79    102    129  15.1  41.7  34170  289.74 0855.26
2009/04/23 09:17:58.2       7    200     55    201    209   2.2  15.3  34228  290.72 0855.26
2009/04/23 09:17:58.3     -41    172     54    177    186 346.4  17.1  34230  290.75 0855.26
2009/04/23 09:17:58.4     -28    146     74    149    166 348.9  28.0  34254  291.16 0855.26
2009/04/23 09:17:58.5       5    187     67    188    200   1.8  19.6  34236  290.86 0855.26
2009/04/23 09:17:58.6      17    129    105    131    167   7.6  43.0  34242  290.96 0855.26
2009/04/23 09:17:58.7     179    193    153    264    305  42.8  32.7  34218  290.56 0855.26
2009/04/23 09:17:58.8     194    184    192    268    329  46.4  39.1  34228  290.71 0855.26
2009/04/23 09:17:59.0     138    141    140    198    242  44.5  38.6  34188  290.04 0855.26
2009/04/23 09:17:59.0      74    244     79    256    269  16.9  17.3  34168  289.70 0855.26
2009/04/23 09:17:59.1     239    194      2    309    310  50.9   0.5  34166  289.66 0855.26
2009/04/23 09:17:59.2     263    208    164    336    373  51.6  27.9  34212  290.47 0855.25
2009/04/23 09:17:59.3     295    208     93    362    374  54.8  14.5  34158  289.54 0855.25
2009/04/23 09:17:59.4     283    244     99    375    388  49.2  14.9  34196  290.18 0855.25
2009/04/23 09:17:59.5     280    206    129    348    371  53.6  21.1  34202  290.28 0855.25
2009/04/23 09:17:59.6     342    283     86    445    454  50.4  11.0  34190  290.09 0855.25
2009/04/23 09:17:59.7     371    305    154    481    506  50.5  17.8  34208  290.37 0855.25
2009/04/23 09:17:59.8     397    200    113    445    460  63.2  14.3  34168  289.72 0855.25
2009/04/23 09:17:59.9     354    225     76    420    427  57.6  10.3  34196  290.17 0855.25
2009/04/23 09:18:00.0     217    185    167    286    331  49.5  33.0  34196  290.17 0855.25
2009/04/23 09:18:00.1     319    233     32    396    398  53.8   4.7  34174  289.81 0855.25
2009/04/23 09:18:00.2     392    226    136    453    474  60.0  16.8  34156  289.50 0855.25
2009/04/23 09:18:00.3     560    155    -35    582    584  74.5  -3.5  34152  289.42 0855.25
2009/04/23 09:18:00.4     606    228      2    648    649  69.3   0.2  34154  289.47 0855.25
2009/04/23 09:18:00.5     462    251      6    526    527  61.5   0.7  34158  289.53 0855.25
2009/04/23 09:18:00.6     548    245     -7    601    602  65.9  -0.7  34146  289.34 0855.25
2009/04/23 09:18:00.7     523    183    -39    555    557  70.7  -4.1  34144  289.29 0855.25
2009/04/23 09:18:00.8     501    118    135    515    533  76.7  14.7  34142  289.28 0855.25
2009/04/23 09:18:00.9     547    112    142    559    577  78.4  14.3  34130  289.07 0855.25
2009/04/23 09:18:01.0     568     60     80    572    578  83.9   8.0  34138  289.20 0855.25
2009/04/23 09:18:01.1     579    121     -6    592    593  78.1  -0.6  34144  289.29 0855.25
2009/04/23 09:18:01.2     454   -145    169    477    507 107.8  19.5  34152  289.42 0855.25
2009/04/23 09:18:01.3     457     70     -3    463    464  81.2  -0.5  34148  289.38 0855.25
2009/04/23 09:18:01.4     341   -128    211    365    421 110.7  32.6  34144  289.31 0855.25
2009/04/23 09:18:01.5     387   -206    215    439    488 118.1  28.0  34166  289.66 0855.25
2009/04/23 09:18:01.6     291   -211    136    360    384 126.0  21.6  34160  289.57 0855.25
2009/04/23 09:18:01.7     336    -84    153    347    379 104.2  25.2  34158  289.54 0855.25
2009/04/23 09:18:01.8     230      2    122    231    261  89.4  30.2  34142  289.25 0855.25
2009/04/23 09:18:01.9     310    -39     77    313    323  97.2  13.8  34150  289.39 0855.25
2009/04/23 09:18:02.0     370     84    116    380    398  77.1  17.0  34164  289.65 0855.25
2009/04/23 09:18:02.1     384      6     97    385    398  89.1  14.2  34168  289.72 0855.25
2009/04/23 09:18:02.2     345      0     40    346    349  89.9   6.7  34166  289.69 0855.25
2009/04/23 09:18:02.3     339    -25     17    340    341  94.4   3.0  34170  289.74 0855.25
2009/04/23 09:18:02.4     294      4    -64    295    303  89.1 -12.4  34178  289.86 0855.25
2009/04/23 09:18:02.5     276     80    -11    288    289  73.8  -2.2  34158  289.54 0855.25
2009/04/23 09:18:02.6     175     60    -12    186    187  70.9  -3.9  34166  289.67 0855.25
2009/04/23 09:18:02.7     137    -39     27    143    146 105.9  11.0  34174  289.80 0855.25
2009/04/23 09:18:02.8     167     62     73    179    193  69.4  23.1  34156  289.52 0855.25
2009/04/23 09:18:02.9     119     98      7    155    156  50.4   2.9  34138  289.21 0855.25
2009/04/23 09:18:03.0     159      0      3    160    161  90.0   1.2  34144  289.30 0855.25
2009/04/23 09:18:03.1     113     -1     68    114    132  90.8  34.0  34156  289.50 0855.25
2009/04/23 09:18:03.2      95      8     55     96    110  85.2  32.4  34154  289.46 0855.25
2009/04/23 09:18:03.3      99     13     40    100    107  82.1  23.0  34154  289.46 0855.25
2009/04/23 09:18:03.4     127    -13     27    128    131  96.2  12.2  34158  289.53 0855.25
2009/04/23 09:18:03.5      85    -27     84     90    123 107.7  48.0  34156  289.52 0855.25
2009/04/23 09:18:03.6     137     23    162    139    213  80.4  55.0  34144  289.30 0855.25
2009/04/23 09:18:03.8     100     59    157    117    195  59.3  59.4  34140  289.23 0855.25
2009/04/23 09:18:03.8     199     98    209    222    304  63.8  48.0  34144  289.31 0855.25
2009/04/23 09:18:03.9      72     64    145     97    174  48.2  63.4  34146  289.33 0855.25
2009/04/23 09:18:04.0      56     -4    103     57    117  94.3  68.8  34146  289.33 0855.25
2009/04/23 09:18:04.1     233     35    -17    236    237  81.4  -4.1  34150  289.41 0855.25
2009/04/23 09:18:04.2     212    -97     93    234    251 114.6  22.8  34160  289.56 0855.25
2009/04/23 09:18:04.3     249    -36     49    252    257  98.4  11.1  34164  289.63 0855.25
2009/04/23 09:18:04.4     258     26    108    260    281  84.1  23.8  34136  289.17 0855.25
2009/04/23 09:18:04.5     237     78    100    250    269  71.6  23.0  34132  289.09 0855.25
2009/04/23 09:18:04.6     280    138    140    313    342  63.8  25.9  34140  289.23 0855.25
2009/04/23 09:18:04.7     298     97    226    314    386  71.8  39.5  34136  289.15 0855.25
2009/04/23 09:18:04.8     274     55    239    280    368  78.6  44.8  34152  289.43 0855.25
2009/04/23 09:18:04.9     244     29    166    246    296  83.0  37.4  34160  289.56 0855.25
2009/04/23 09:18:05.0     245    -37    167    248    298  98.8  37.4  34150  289.41 0855.25
2009/04/23 09:18:05.1     312     14    209    313    376  87.4  37.0  34152  289.42 0855.25
2009/04/23 09:18:05.2     174     45    186    180    258  75.2  51.2  34152  289.42 0855.24
2009/04/23 09:18:05.3     297     12    149    298    333  87.5  28.5  34158  289.53 0855.24
2009/04/23 09:18:05.4     195     36    140    199    243  79.4  38.5  34156  289.50 0855.24
2009/04/23 09:18:05.5     267    115    109    291    310  66.7  21.3  34144  289.29 0855.24
2009/04/23 09:18:05.6     280     54     52    286    291  79.0  10.3  34144  289.29 0855.24
2009/04/23 09:18:05.8     269    126     81    298    309  64.8  15.3  34148  289.37 0855.24
2009/04/23 09:18:05.9     301     13     97    302    318  87.5  17.8  34154  289.46 0855.24
2009/04/23 09:18:06.0     251      3     51    252    258  89.2  11.6  34162  289.61 0855.24
2009/04/23 09:18:06.1     197     40      7    201    202  78.5   2.1  34152  289.43 0855.24
2009/04/23 09:18:06.2     141      4      2    142    143  88.3   0.8  34158  289.55 0855.24
2009/04/23 09:18:06.3     100     59     54    117    128  59.3  26.6  34156  289.50 0855.24
2009/04/23 09:18:06.4      46     26     94     53    107  60.2  68.8  34162  289.62 0855.24
2009/04/23 09:18:06.5      -9     27     63     29     69 340.0  73.1  34162  289.62 0855.24
2009/04/23 09:18:06.6     -34    -16     71     38     80 244.6  69.8  34170  289.74 0855.24
2009/04/23 09:18:06.7     -13    -47     71     49     86 196.0  62.1  34172  289.77 0855.24
2009/04/23 09:18:06.8      30    -55     58     63     85 151.0  47.9  34176  289.84 0855.24
2009/04/23 09:18:06.9      71    -90     61    115    130 141.7  30.3  34170  289.75 0855.24
2009/04/23 09:18:07.0      67    -80     93    105    140 139.9  45.9  34162  289.62 0855.24
2009/04/23 09:18:07.1      88    -92     88    128    155 136.3  37.6  34164  289.65 0855.24
2009/04/23 09:18:07.2     104    -67     73    124    143 122.9  33.5  34158  289.53 0855.24
2009/04/23 09:18:07.3      78    -23     62     82    102 106.8  41.2  34156  289.52 0855.24
2009/04/23 09:18:07.4      25    -11     31     28     41 113.5  53.3  34160  289.57 0855.24
2009/04/23 09:18:07.5     -12      8     32     15     35 302.5  72.9  34158  289.55 0855.24
2009/04/23 09:18:07.6     -37     40     57     55     79 316.8  50.7  34162  289.60 0855.24
2009/04/23 09:18:07.7     -11     76     76     77    108 351.1  50.5  34160  289.57 0855.24
2009/04/23 09:18:07.8     -40     40     50     57     75 315.0  45.8  34158  289.55 0855.24
2009/04/23 09:18:07.9     -40     33     49     52     71 309.5  48.0  34158  289.55 0855.24
2009/04/23 09:18:08.0      -6      2     13      7     14 288.2  64.7  34158  289.53 0855.24
2009/04/23 09:18:08.1      -3      3     29      5     29 315.0  90.0  34160  289.57 0855.24
2009/04/23 09:18:08.2      -5     74     55     75     93 355.6  40.1  34160  289.58 0855.24
2009/04/23 09:18:08.3      44     72     66     85    107  31.2  42.2  34156  289.52 0855.24
2009/04/23 09:18:08.4      22    120     48    123    132  10.7  22.0  34156  289.50 0855.24
2009/04/23 09:18:08.5     -59    163     22    174    176 340.0   7.5  34188  290.04 0855.24
2009/04/23 09:18:08.6     -53    134     97    145    174 338.2  36.7  34176  289.85 0855.24
2009/04/23 09:18:08.7     -37    138     99    144    174 344.8  37.6  34190  290.09 0855.24
2009/04/23 09:18:08.8     -15    132    107    133    170 353.3  43.3  34200  290.26 0855.24
2009/04/23 09:18:08.9     -28    168     58    171    181 350.4  18.9  34194  290.16 0855.24
2009/04/23 09:18:09.0      33    105     79    111    136  17.4  39.1  34180  289.91 0855.24
2009/04/23 09:18:09.1      -8    101     96    102    140 355.1  48.0  34190  290.09 0855.24
2009/04/23 09:18:09.2     -76     48     83     91    123 302.4  47.9  34198  290.23 0855.24
2009/04/23 09:18:09.3    -122    125    114    175    208 315.7  36.0  34196  290.18 0855.26
2009/04/23 09:18:09.4     -49     77    116     92    148 327.5  57.5  34194  290.14 0855.26
2009/04/23 09:18:09.5      93     59     86    111    140  57.6  41.7  34196  290.19 0855.26
2009/04/23 09:18:09.6     153      2    133    154    203  89.2  45.6  34186  290.02 0855.26
2009/04/23 09:18:09.7      32     76    152     83    173  23.2  69.1  34242  290.96 0855.26
2009/04/23 09:18:09.8     -16    120    150    122    193 352.0  56.4  34244  290.99 0855.26
2009/04/23 09:18:09.9     124     27    218    127    252  77.6  67.0  34218  290.55 0855.26
2009/04/23 09:18:10.0     -30    225    120    228    257 352.2  30.2  34232  290.78 0855.26
2009/04/23 09:18:10.1      37    321    -97    324    338   6.7 -21.5  34234  290.84 0855.26
2009/04/23 09:18:10.2      69    295    -39    304    307  13.3  -7.3  34154  289.46 0855.26
2009/04/23 09:18:10.3     133    322     44    349    352  22.5   7.2  34172  289.76 0855.26
2009/04/23 09:18:10.4      40    407     78    410    418   5.7  10.8  34102  288.58 0855.26
2009/04/23 09:18:10.5       0    454     88    455    464   0.1  11.0  34098  288.51 0855.26
2009/04/23 09:18:10.6      22    487    169    488    517   2.7  19.2  34104  288.62 0855.26
2009/04/23 09:18:10.7      34    402     87    404    414   4.9  12.2  34104  288.63 0855.26
2009/04/23 09:18:10.8      97    432     80    443    451  12.7  10.3  34220  290.58 0855.26
2009/04/23 09:18:10.9     146    456     72    479    485  17.8   8.6  34150  289.39 0855.26
2009/04/23 09:18:11.0     117    443     89    459    468  14.8  11.0  34110  288.73 0855.26
2009/04/23 09:18:11.1      80    471     70    478    484   9.7   8.3  34120  288.90 0855.26
2009/04/23 09:18:11.2     115    495     20    509    510  13.2   2.3  34176  289.84 0855.26
2009/04/23 09:18:11.3     128    377    -15    399    400  18.8  -2.2  34184  289.98 0855.26
2009/04/23 09:18:11.4     143    279     23    314    315  27.1   4.2  34210  290.42 0855.26
2009/04/23 09:18:11.5     150    229    -35    274    277  33.2  -7.3  34166  289.66 0855.26
2009/04/23 09:18:11.6      51    274    -10    279    280  10.6  -2.2  34166  289.68 0855.26
2009/04/23 09:18:11.7      85    302    -25    314    316  15.8  -4.6  34132  289.10 0855.26
2009/04/23 09:18:11.8     164    326    -89    366    377  26.8 -13.7  34158  289.55 0855.26
2009/04/23 09:18:11.9     230    113    -56    257    264  63.8 -12.4  34224  290.65 0855.26
2009/04/23 09:18:12.0     225     75     56    238    245  71.4  13.2  34254  291.17 0855.26
2009/04/23 09:18:12.1     231    140     43    271    275  58.7   9.0  34242  290.97 0855.26
2009/04/23 09:18:12.2     227     74     86    239    254  71.8  20.4  34242  290.95 0855.26
2009/04/23 09:18:12.3     236     72     88    247    262  72.9  20.2  34210  290.42 0855.24
2009/04/23 09:18:12.4     155    187    143    244    282  39.7  33.4  34224  290.66 0855.24
2009/04/23 09:18:12.5     109    240    138    264    297  24.5  29.8  34236  290.87 0855.24
2009/04/23 09:18:12.6      87    211    128    229    262  22.5  31.6  34240  290.92 0855.24
2009/04/23 09:18:12.7      83    178    101    197    221  24.9  29.3  34238  290.91 0855.24
2009/04/23 09:18:12.8      69    146    101    162    190  25.3  35.2  34234  290.84 0855.24
2009/04/23 09:18:12.9      85    134    116    160    197  32.5  39.7  34202  290.28 0855.24
2009/04/23 09:18:13.0      62     59    108     86    138  46.4  56.9  34204  290.31 0855.24
2009/04/23 09:18:13.1     132     43    137    139    195  71.8  50.0  34226  290.69 0855.24
2009/04/23 09:18:13.2     179    110    161    211    265  58.5  41.4  34228  290.71 0855.24
2009/04/23 09:18:13.3     135      0    130    136    188  90.0  48.7  34216  290.53 0855.24
2009/04/23 09:18:13.4     154     71     50    170    178  65.2  16.6  34204  290.33 0855.24
2009/04/23 09:18:13.5      97     89     67    132    148  47.3  28.7  34196  290.19 0855.24
2009/04/23 09:18:13.6      84     97     13    129    130  41.0   5.9  34194  290.16 0855.24
2009/04/23 09:18:13.7     197     97     86    220    236  63.8  22.5  34200  290.26 0855.24
2009/04/23 09:18:13.8     274    104    123    294    318  69.2  23.9  34184  289.98 0855.24
2009/04/23 09:18:13.9     244     93    125    262    290  69.2  27.3  34190  290.07 0855.24
2009/04/23 09:18:14.0     275     61    112    282    303  77.4  23.0  34218  290.56 0855.24
2009/04/23 09:18:14.1     255     65     99    264    281  75.6  21.3  34234  290.83 0855.24
2009/04/23 09:18:14.2     161    143    120    216    247  48.4  31.4  34242  290.95 0855.24
2009/04/23 09:18:14.3     152     96    107    180    209  57.6  33.5  34236  290.87 0855.25
2009/04/23 09:18:14.4     220    116    112    249    273  62.1  25.9  34226  290.70 0855.25
2009/04/23 09:18:14.5     196    116     89    228    244  59.4  22.1  34224  290.66 0855.25
2009/04/23 09:18:14.6     211     84     96    228    247  68.3  24.2  34202  290.29 0855.25
2009/04/23 09:18:14.7     181     97    102    206    229  61.8  28.0  34216  290.53 0855.25
2009/04/23 09:18:14.8     143     78     91    163    186  61.4  31.4  34210  290.41 0855.25
2009/04/23 09:18:14.9     119     76    131    142    193  57.5  47.9  34176  289.85 0855.25
2009/04/23 09:18:15.0     103    116    113    156    192  41.5  39.5  34178  289.89 0855.25
2009/04/23 09:18:15.1      -9    145     91    146    172 356.4  35.0  34174  289.80 0855.25
2009/04/23 09:18:15.2      59    106     60    122    135  29.0  27.8  34168  289.70 0855.25
2009/04/23 09:18:15.3      -2    150     13    151    152 359.1   5.0  34154  289.46 0855.25
2009/04/23 09:18:15.4     -34    135     -2    140    141 345.7  -1.2  34144  289.30 0855.25
2009/04/23 09:18:15.5     -76    165     10    182    183 335.1   3.3  34164  289.65 0855.25
2009/04/23 09:18:15.6     -89    155     13    179    180 330.1   4.4  34178  289.87 0855.25
2009/04/23 09:18:15.7    -118     81     75    144    162 304.6  29.5  34174  289.80 0855.25
2009/04/23 09:18:15.8      49    104     62    116    131  25.5  30.3  34178  289.87 0855.25
2009/04/23 09:18:15.9      43    161     48    167    174  15.1  16.3  34194  290.16 0855.25
2009/04/23 09:18:16.0     -14    194      7    195    196 355.8   2.1  34184  289.99 0855.25
2009/04/23 09:18:16.1      -9    243    -31    244    247 357.8  -7.3  34204  290.31 0855.25
2009/04/23 09:18:16.2     -30    207    -85    210    226 351.5 -27.5  34188  290.06 0855.25
2009/04/23 09:18:16.3      11    188     -7    189    190   3.4  -2.2  34180  289.92 0855.24
2009/04/23 09:18:16.4      11    204      6    205    206   3.1   1.8  34180  289.92 0855.24
2009/04/23 09:18:16.5      25    222     19    224    225   6.5   4.9  34176  289.84 0855.24
2009/04/23 09:18:16.6      28    192     14    195    196   8.5   4.4  34166  289.67 0855.24
2009/04/23 09:18:16.7      17    179     46    180    186   5.6  14.5  34162  289.60 0855.24
2009/04/23 09:18:16.8      21    174     48    176    183   6.9  15.3  34164  289.63 0855.24
2009/04/23 09:18:16.9      18    243     47    244    249   4.2  11.1  34164  289.64 0855.24
2009/04/23 09:18:17.0      11    259     36    260    263   2.6   8.0  34172  289.78 0855.24
2009/04/23 09:18:17.1      51    252     93    258    275  11.6  19.9  34164  289.63 0855.24
2009/04/23 09:18:17.2      25    251     33    253    256   5.8   7.5  34174  289.81 0855.24
2009/04/23 09:18:17.3     -38    286     59    289    296 352.4  11.6  34182  289.95 0855.24
2009/04/23 09:18:17.4     -61    221    -76    230    242 344.6 -23.8  34186  290.02 0855.24
2009/04/23 09:18:17.5     -36    230   -120    233    262 350.9 -33.7  34142  289.27 0855.24
2009/04/23 09:18:17.6      78    211    -68    225    235  20.3 -21.7  34176  289.85 0855.24
2009/04/23 09:18:17.7     161    222    -25    275    277  36.0  -5.4  34170  289.75 0855.24
2009/04/23 09:18:17.8     154    227    -35    275    278  34.1  -7.3  34166  289.66 0855.24
2009/04/23 09:18:17.9     260    245    -23    358    359  46.7  -3.7  34172  289.76 0855.24
2009/04/23 09:18:18.0     236    181    -88    298    310  52.5 -21.7  34160  289.58 0855.24
2009/04/23 09:18:18.1     239    177    -78    298    309  53.4 -14.7  34156  289.49 0855.24
2009/04/23 09:18:18.2     228    103     65    251    260  65.6  14.5  34180  289.90 0855.24
2009/04/23 09:18:18.3     162     53    116    171    206  71.8  37.4  34168  289.70 0855.24
2009/04/23 09:18:18.4     183     62     85    194    211  71.2  25.1  34166  289.69 0855.24
2009/04/23 09:18:18.5     163     54     88    172    193  71.4  29.3  34166  289.67 0855.24
2009/04/23 09:18:18.6     155     95     64    182    194  58.5  19.4  34182  289.94 0855.24
2009/04/23 09:18:18.7     139     78     92    160    184  60.7  32.7  34178  289.87 0855.24
2009/04/23 09:18:18.8      65     59    104     88    136  47.8  55.8  34166  289.67 0855.24
2009/04/23 09:18:18.9      81     48     88     95    129  59.3  47.9  34170  289.74 0855.24
2009/04/23 09:18:19.0      56     19     63     60     87  71.4  51.2  34178  289.87 0855.24
2009/04/23 09:18:19.1       3     33     52     34     62   6.2  63.6  34186  290.02 0855.24
2009/04/23 09:18:19.2      25     -5     42     26     49 103.3  64.7  34188  290.06 0855.24
2009/04/23 09:18:19.3      -2    -11     -8     12     14 191.6 -44.1  34188  290.06 0855.24
2009/04/23 09:18:19.4      -4     -4    -29      7     29 225.0 -90.0  34186  290.02 0855.24
2009/04/23 09:18:19.5     -10     18    -10     21     23 331.0 -29.5  34190  290.08 0855.24
2009/04/23 09:18:19.6       5     10      0     12     13  29.0  -2.2  34188  290.06 0855.24
2009/04/23 09:18:19.7       0      3     10      4     10 350.3  77.1  34188  290.04 0855.24
2009/04/23 09:18:19.8       2      3      9      4      9  32.5  81.2  34182  289.94 0855.24
2009/04/23 09:18:19.9       3    -30      2     31     32 173.8   4.9  34182  289.94 0855.24
2009/04/23 09:18:20.0       3    -22      3     23     24 170.2   9.0  34186  290.01 0855.24
2009/04/23 09:18:20.1       7     -3      7      8     10 115.3  47.9  34184  289.97 0855.24
2009/04/23 09:18:20.2       2     26      1     27     28   4.5   2.8  34184  289.97 0855.24
2009/04/23 09:18:20.3      -4     39    -11     40     42 352.9 -15.5  34186  290.01 0855.25
2009/04/23 09:18:20.4      10     31     21     33     39  18.3  35.5  34194  290.14 0855.25
2009/04/23 09:18:20.5       4     62     25     63     67   4.5  23.0  34194  290.14 0855.25
2009/04/23 09:18:20.6       5     43     36     44     56   7.1  43.7  34194  290.14 0855.25
2009/04/23 09:18:20.7      -7     44     41     45     60 350.2  47.9  34194  290.16 0855.25
2009/04/23 09:18:20.8      -8     26     35     28     44 341.5  57.5  34198  290.21 0855.25
2009/04/23 09:18:20.9       0     -6     14      7     15 184.5  72.9  34206  290.36 0855.25
2009/04/23 09:18:21.0      -2    -34     -4     35     36 184.4  -7.2  34202  290.28 0855.25
2009/04/23 09:18:21.1     -23    -58    -24     63     67 201.9 -25.4  34202  290.28 0855.25
2009/04/23 09:18:21.2      -8    -70    -13     71     73 187.1 -10.3  34200  290.25 0855.25
2009/04/23 09:18:21.3     -13    -98      6     99    100 188.0   3.8  34198  290.23 0855.25
2009/04/23 09:18:21.4      -8   -103     24    104    107 184.5  13.2  34196  290.18 0855.25
2009/04/23 09:18:21.5       8    -87     27     88     93 174.7  17.3  34194  290.14 0855.25
2009/04/23 09:18:21.6      15    -75     29     77     82 168.5  21.5  34188  290.06 0855.25
2009/04/23 09:18:21.7      35    -64     35     74     81 151.0  26.6  34194  290.16 0855.25
2009/04/23 09:18:21.8       0    -29     49     30     57 179.1  64.7  34196  290.18 0855.25
2009/04/23 09:18:21.9     -24    -38     65     46     79 212.5  61.5  34190  290.08 0855.25
2009/04/23 09:18:22.0       2    -71     65     72     97 178.2  46.9  34196  290.19 0855.25
2009/04/23 09:18:22.1     -26    -69     35     74     81 200.9  26.6  34200  290.25 0855.25
2009/04/23 09:18:22.2     -36    -41     26     55     60 221.4  27.2  34202  290.28 0855.25
2009/04/23 09:18:22.3     -39    -36     -7     54     55 226.9  -7.3  34208  290.38 0855.25
2009/04/23 09:18:22.4     -45    -28     24     54     59 237.6  25.1  34208  290.40 0855.25
2009/04/23 09:18:22.5     -63    -38     30     74     79 238.5  23.6  34206  290.35 0855.25
2009/04/23 09:18:22.6     -70    -56     34     90     96 231.4  21.0  34206  290.36 0855.25
2009/04/23 09:18:22.7     -53    -49     89     73    115 226.9  56.4  34218  290.57 0855.25
2009/04/23 09:18:22.8     -18    -49     96     53    109 200.9  68.8  34190  290.09 0855.25
2009/04/23 09:18:22.9     -30    -26     92     40    100 228.7  75.0  34196  290.18 0855.25
2009/04/23 09:18:23.0     -17    -38     95     42    103 204.5  75.0  34194  290.16 0855.25
2009/04/23 09:18:23.1     -53    -56    112     78    136 223.2  61.5  34190  290.08 0855.25
2009/04/23 09:18:23.2     -76    -78    116    110    159 224.1  51.4  34198  290.21 0855.25
2009/04/23 09:18:23.3     -87    -84    117    121    168 226.0  49.2  34200  290.25 0855.25
2009/04/23 09:18:23.4     -83   -103    100    133    166 218.7  40.7  34182  289.94 0855.25
2009/04/23 09:18:23.5     -71   -105    114    128    171 214.2  46.4  34170  289.75 0855.25
2009/04/23 09:18:23.6     -62   -103    138    121    183 211.2  54.0  34180  289.92 0855.25
2009/04/23 09:18:23.7     -75    -98    145    124    190 217.4  55.4  34190  290.09 0855.25
2009/04/23 09:18:23.8     -63    -82    143    104    176 217.4  60.5  34198  290.21 0855.25
2009/04/23 09:18:23.9     -60   -135    153    148    212 204.1  50.7  34198  290.21 0855.25
2009/04/23 09:18:24.0     -75   -199    151    213    261 200.7  38.8  34152  289.44 0855.25
2009/04/23 09:18:24.1    -105   -222    166    246    296 205.4  37.4  34172  289.76 0855.25
2009/04/23 09:18:24.2    -135   -211    135    251    285 212.7  30.3  34156  289.51 0855.25
2009/04/23 09:18:24.3    -159   -200    137    256    290 218.5  30.3  34172  289.78 0855.24
2009/04/23 09:18:24.4    -113   -176    189    210    282 212.6  46.9  34192  290.12 0855.24
2009/04/23 09:18:24.5     -57   -207    234    215    317 195.6  52.7  34130  289.05 0855.24
2009/04/23 09:18:24.6     -82   -172    225    191    295 205.5  55.4  34130  289.07 0855.24
2009/04/23 09:18:24.7     -73   -229    216    241    323 197.8  46.5  34118  288.85 0855.24
2009/04/23 09:18:24.8     -73   -185    176    200    266 201.6  45.8  34116  288.81 0855.24
2009/04/23 09:18:24.9     -48   -133    203    142    247 200.1  61.7  34132  289.09 0855.24
2009/04/23 09:18:25.0      17    -46    151     50    159 160.0  81.2  34116  288.84 0855.24
2009/04/23 09:18:25.1       4    -63    150     64    163 175.6  75.9  34124  288.97 0855.24
2009/04/23 09:18:25.2     -17     18    135     25    137 316.6  90.0  34136  289.16 0855.24
2009/04/23 09:18:25.3     -12    -37    125     39    130 198.3  82.3  34142  289.28 0855.24
2009/04/23 09:18:25.4      35     16    115     39    121  64.7  81.2  34144  289.30 0855.24
2009/04/23 09:18:25.5     115     90    124    147    192  51.8  44.3  34188  290.04 0855.24
2009/04/23 09:18:25.6     212    167    193    270    331  51.8  39.1  34212  290.46 0855.24
2009/04/23 09:18:25.7       0    -53    181     54    188 180.9  83.1  34154  289.46 0855.24
2009/04/23 09:18:25.8    -100   -128    179    163    242 218.1  53.0  34106  288.65 0855.24
2009/04/23 09:18:25.9     267     43    263    271    377  80.8  49.2  34104  288.64 0855.24
2009/04/23 09:18:26.0     111     22    239    114    264  78.6  72.8  34110  288.72 0855.24
2009/04/23 09:18:26.1       0    113    109    114    157   0.0  48.7  34112  288.75 0855.24
2009/04/23 09:18:26.2    -168   -217    235    275    361 217.9  45.0  34122  288.93 0855.24
2009/04/23 09:18:26.3    -101   -377    255    391    466 195.0  36.0  34094  288.45 0855.24
2009/04/23 09:18:26.4    -202   -428    221    474    522 205.3  26.9  34100  288.56 0855.24
2009/04/23 09:18:26.5    -226   -323    161    395    426 215.0  23.4  34126  289.00 0855.24
2009/04/23 09:18:26.6    -153   -188    193    243    310 219.2  42.7  34118  288.87 0855.24
2009/04/23 09:18:26.7    -144   -110    148    182    234 232.7  43.5  34132  289.11 0855.24
2009/04/23 09:18:26.8    -143   -121     54    188    196 229.6  16.0  34128  289.04 0855.24
2009/04/23 09:18:26.9      -4   -273    131    274    303 181.0  27.3  34100  288.56 0855.24
2009/04/23 09:18:27.0      -9   -195    120    196    229 182.7  34.8  34100  288.57 0855.24
2009/04/23 09:18:27.1      10   -259     63    260    268 177.8  13.7  34106  288.65 0855.24
2009/04/23 09:18:27.2     -87   -128    156    155    219 214.2  50.1  34122  288.92 0855.24
2009/04/23 09:18:27.3    -140   -154     56    209    217 222.3  15.2  34140  289.24 0855.24
2009/04/23 09:18:27.4    -201    -59     73    210    223 253.6  19.2  34138  289.21 0855.24
2009/04/23 09:18:27.5    -141     -9    -24    142    145 266.1  -9.8  34146  289.35 0855.24
2009/04/23 09:18:27.6      -2    -15    -19     16     24 188.0 -58.7  34140  289.24 0855.24
2009/04/23 09:18:27.7      -9    -68     41     69     80 188.0  33.5  34132  289.11 0855.24
2009/04/23 09:18:27.8     -28    -72     17     78     80 201.8  12.6  34128  289.02 0855.24
2009/04/23 09:18:27.9     -10    -67     29     68     73 188.9  23.1  34126  288.99 0855.24
2009/04/23 09:18:28.0      50    -75     65     91    111 146.2  39.5  34130  289.08 0855.24
2009/04/23 09:18:28.1      24   -148    181    151    235 170.7  55.8  34118  288.86 0855.24
2009/04/23 09:18:28.2       7   -225    169    226    282 178.2  40.6  34098  288.51 0855.24
2009/04/23 09:18:28.3       6   -195    190    196    272 178.0  49.2  34100  288.56 0855.24
2009/04/23 09:18:28.4      73   -196    148    210    256 159.5  38.6  34102  288.59 0855.24
2009/04/23 09:18:28.5      52   -218    130    225    259 166.6  32.4  34104  288.61 0855.24
2009/04/23 09:18:28.6      68   -254    160    264    308 164.9  34.2  34106  288.65 0855.24
2009/04/23 09:18:28.7     -22   -230    191    232    300 185.6  43.7  34100  288.56 0855.24
2009/04/23 09:18:28.8     -26   -222    176    224    284 186.9  42.2  34100  288.54 0855.24
2009/04/23 09:18:28.9      13   -167    148    168    223 175.5  45.9  34100  288.57 0855.24
2009/04/23 09:18:29.0      66   -140    145    155    212 154.7  48.0  34106  288.65 0855.24
2009/04/23 09:18:29.1      29   -161    141    164    216 169.8  45.1  34102  288.58 0855.24
2009/04/23 09:18:29.2     -74   -218    117    231    258 198.9  29.1  34100  288.56 0855.24
2009/04/23 09:18:29.3     -94   -198     14    220    221 205.4   3.8  34098  288.53 0855.24
2009/04/23 09:18:29.4      29   -166     94    169    193 169.8  31.4  34104  288.62 0855.24
2009/04/23 09:18:29.5     -17   -242    130    243    275 184.0  30.3  34104  288.63 0855.24
2009/04/23 09:18:29.6     102   -261    104    281    299 158.6  21.0  34110  288.71 0855.24
2009/04/23 09:18:29.7     121   -226     92    257    272 151.7  20.2  34106  288.66 0855.24
2009/04/23 09:18:29.8     215   -293    109    364    380 143.7  16.7  34104  288.64 0855.24
2009/04/23 09:18:29.9     135   -271     93    303    317 153.5  17.1  34106  288.65 0855.24
2009/04/23 09:18:30.0       0   -283    202    284    348 180.0  39.1  34110  288.71 0855.24
2009/04/23 09:18:30.1      40   -197    224    202    301 168.4  53.3  34106  288.66 0855.24
2009/04/23 09:18:30.2      60   -243    187    251    313 166.0  40.6  34108  288.70 0855.24
2009/04/23 09:18:30.3      37   -234    213    238    319 170.9  46.5  34102  288.58 0855.24
2009/04/23 09:18:30.4      -3   -121    203    122    236 181.8  66.4  34102  288.60 0855.24
2009/04/23 09:18:30.5      83   -207    124    224    256 158.2  31.4  34108  288.68 0855.24
2009/04/23 09:18:30.6      11   -223    121    224    254 177.1  30.6  34104  288.61 0855.24
2009/04/23 09:18:30.7      24   -306    175    308    354 175.5  32.1  34106  288.67 0855.24
2009/04/23 09:18:30.8      43   -365    101    368    382 173.2  15.4  34108  288.69 0855.24
2009/04/23 09:18:30.9     -54   -304     95    309    324 190.2  17.2  34106  288.66 0855.24
2009/04/23 09:18:31.0      43   -235     29    239    241 169.5   7.1  34106  288.66 0855.24
2009/04/23 09:18:31.1      66   -321     84    328    339 168.2  14.4  34102  288.60 0855.24
2009/04/23 09:18:31.2      17   -230    159    231    280 175.6  37.6  34102  288.58 0855.24
2009/04/23 09:18:31.3      99   -195    121    219    250 153.0  31.4  34106  288.65 0855.24
2009/04/23 09:18:31.4     120   -187    150    223    268 147.3  37.0  34102  288.58 0855.24
2009/04/23 09:18:31.5     134   -134    131    190    230 135.0  37.8  34102  288.58 0855.24
2009/04/23 09:18:31.6     152    -54    159    162    226 109.5  49.8  34100  288.55 0855.24
2009/04/23 09:18:31.7     135    -31     79    139    159 103.3  32.1  34098  288.52 0855.24
2009/04/23 09:18:31.8      -1    -19    123     20    124 184.5  90.0  34108  288.69 0855.24
2009/04/23 09:18:31.9       7     19    116     21    117  20.0  90.0  34110  288.74 0855.24
2009/04/23 09:18:32.0     -83     53    118     99    154 302.4  56.3  34114  288.79 0855.24
2009/04/23 09:18:32.1    -122     55    104    135    170 294.4  41.7  34130  289.06 0855.24
2009/04/23 09:18:32.2     -79     96    106    125    163 320.3  44.5  34124  288.96 0855.24
2009/04/23 09:18:32.3     -96     11     75     97    122 276.6  41.7  34112  288.75 0855.24
2009/04/23 09:18:32.4     -59      4     17     60     63 274.3  16.3  34106  288.67 0855.24
2009/04/23 09:18:32.5     -23     24     16     34     37 316.6  27.2  34106  288.65 0855.24
2009/04/23 09:18:32.6     -26     40    -33     48     58 326.6 -40.9  34114  288.80 0855.24
2009/04/23 09:18:32.8      48     29    -83     57    100  59.3 -66.5  34116  288.84 0855.24
2009/04/23 09:18:32.9      80     26    -18     85     88  71.6 -12.4  34116  288.84 0855.24
2009/04/23 09:18:33.0       3     12     57     13     58  15.1  86.9  34120  288.91 0855.24
2009/04/23 09:18:33.1      -3    -22     75     23     78 188.0  80.7  34124  288.96 0855.24
2009/04/23 09:18:33.2       0    -59     88     60    106 180.9  62.6  34122  288.94 0855.24
2009/04/23 09:18:33.3      -1    -74     97     75    122 180.9  58.4  34112  288.77 0855.24
2009/04/23 09:18:33.4      -1    -74     65     75     99 180.9  45.4  34116  288.84 0855.23
2009/04/23 09:18:33.5     -11    -80     -3     81     82 188.0  -2.2  34116  288.84 0855.23
2009/04/23 09:18:33.6     -11    -54    -18     56     58 191.6 -23.8  34122  288.92 0855.23
2009/04/23 09:18:33.7     -31    -47      5     57     58 213.4   5.9  34124  288.96 0855.23
2009/04/23 09:18:33.8     -17    -14     16     23     28 230.5  37.6  34126  288.99 0855.23
2009/04/23 09:18:33.9      17     -7     17     19     25 111.7  47.9  34124  288.97 0855.23
2009/04/23 09:18:34.0      30    -27     41     41     57 131.3  50.1  34122  288.92 0855.23
2009/04/23 09:18:34.1      55    -14     33     57     65 105.1  33.5  34122  288.94 0855.23
2009/04/23 09:18:34.2      40      0     33     41     52  90.0  43.7  34120  288.89 0855.23
2009/04/23 09:18:34.3      85      3     24     86     90  87.4  15.8  34118  288.86 0855.23
2009/04/23 09:18:34.4      64     21     29     68     73  71.8  23.1  34118  288.87 0855.23
2009/04/23 09:18:34.5      32      7     31     33     45  76.7  49.0  34118  288.87 0855.23
2009/04/23 09:18:34.6       4     12     34     13     36  18.3  81.2  34122  288.92 0855.23
2009/04/23 09:18:34.7      -8     12     32     15     35 327.5  72.9  34122  288.92 0855.23
2009/04/23 09:18:34.8      -5     10     27     12     29 331.0  77.1  34118  288.86 0855.23
2009/04/23 09:18:34.9      -5     15     30     16     34 341.7  70.8  34118  288.87 0855.23
2009/04/23 09:18:35.0      18     -2     41     19     45  97.9  72.9  34122  288.92 0855.23
2009/04/23 09:18:35.1       0     49     20     50     53 359.1  22.0  34122  288.92 0855.23
2009/04/23 09:18:35.2     -26     78    -41     83     92 341.7 -32.2  34140  289.23 0855.23
2009/04/23 09:18:35.3     -32     58    -38     67     77 331.0 -36.8  34178  289.89 0855.23
2009/04/23 09:18:35.4     -28     23     -4     37     38 309.5  -7.3  34164  289.63 0855.22
2009/04/23 09:18:35.5     -16     16     -3     24     25 315.0  -7.3  34166  289.67 0855.22
2009/04/23 09:18:35.6     -13    -23    -20     27     33 210.7 -46.1  34160  289.58 0855.22
2009/04/23 09:18:35.7      -3    -30      9     31     33 186.2  17.3  34158  289.55 0855.22
2009/04/23 09:18:35.8      48    -43      3     65     66 132.2   2.9  34158  289.53 0855.22
2009/04/23 09:18:35.9      82    -12     19     83     86  98.8  13.2  34160  289.57 0855.22
2009/04/23 09:18:36.0     114     23     99    117    153  78.5  44.3  34150  289.40 0855.22
2009/04/23 09:18:36.1     112     45    106    121    160  67.8  45.8  34146  289.33 0855.22
2009/04/23 09:18:36.2      94     41    103    103    145  66.5  50.1  34152  289.43 0855.22
2009/04/23 09:18:36.3      56     33     97     66    117  59.3  63.2  34144  289.31 0855.22
2009/04/23 09:18:36.4      93     77    144    122    188  50.4  55.8  34204  290.33 0855.22
2009/04/23 09:18:36.5     138     89    122    165    205  57.1  39.9  34202  290.30 0855.22
2009/04/23 09:18:36.6     166     16    110    167    199  84.3  36.5  34168  289.72 0855.22
2009/04/23 09:18:36.7     267     40    104    271    290  81.4  22.0  34222  290.63 0855.22
2009/04/23 09:18:36.8     275     95    106    292    310  70.9  20.9  34220  290.58 0855.22
2009/04/23 09:18:36.9     252     99    203    271    338  68.5  40.6  34180  289.92 0855.22
2009/04/23 09:18:37.0     141    141    180    200    269  44.9  46.9  34186  290.02 0855.22
2009/04/23 09:18:37.1     122    123    115    174    208  44.8  36.5  34194  290.14 0855.22
2009/04/23 09:18:37.2      86    138    121    163    203  32.1  40.1  34202  290.28 0855.22
2009/04/23 09:18:37.3     -12    114     96    115    149 353.8  43.8  34204  290.33 0855.22
2009/04/23 09:18:37.4       0    107     64    108    125 359.6  33.5  34212  290.45 0855.22
2009/04/23 09:18:37.5      29     41      0     51     52  35.2  -0.3  34202  290.30 0855.22
2009/04/23 09:18:37.6     218     44    -84    223    238  78.5 -25.9  34176  289.83 0855.22
2009/04/23 09:18:37.7     207    124     39    242    246  59.1   9.3  34142  289.25 0855.22
2009/04/23 09:18:37.8     102    219    -31    242    244  24.9  -7.3  34152  289.44 0855.22
2009/04/23 09:18:37.9      51    195    -59    202    210  14.9 -21.5  34202  290.28 0855.22
2009/04/23 09:18:38.0    -139    190    -54    236    243 323.9 -12.9  34194  290.15 0855.22
2009/04/23 09:18:38.1    -487     17    -55    488    492 272.0  -6.5  34104  288.62 0855.22
2009/04/23 09:18:38.2    -455     -2   -159    456    482 269.7 -24.4  34076  288.15 0855.22
2009/04/23 09:18:38.3    -457    -78   -292    464    548 260.3 -39.6  34092  288.41 0855.22
2009/04/23 09:18:38.4    -376   -118   -324    395    510 252.5 -48.0  34088  288.34 0855.22
2009/04/23 09:18:38.5    -281   -179   -133    334    359 237.4 -27.3  34116  288.84 0855.22
2009/04/23 09:18:38.6    -215   -136   -162    255    302 237.5 -39.9  34126  288.98 0855.22
2009/04/23 09:18:38.7    -199   -147    -75    248    260 233.6 -17.0  34134  289.14 0855.22
2009/04/23 09:18:38.8    -148    -80     -6    169    170 241.6  -2.2  34142  289.28 0855.22
2009/04/23 09:18:38.9    -101   -201    130    226    260 206.7  32.4  34176  289.85 0855.22
2009/04/23 09:18:39.0    -111   -154     95    191    213 215.8  28.5  34172  289.77 0855.22
2009/04/23 09:18:39.1     -86    -36    -43     94    103 246.9 -30.6  34156  289.50 0855.22
2009/04/23 09:18:39.2      82     77     43    113    120  46.9  22.0  34158  289.53 0855.22
2009/04/23 09:18:39.3     244      2    146    245    285  89.4  33.5  34144  289.31 0855.22
2009/04/23 09:18:39.4     315     63    121    322    343  78.6  21.6  34130  289.08 0855.22
2009/04/23 09:18:39.5     197     40    120    201    234  78.5  33.7  34130  289.08 0855.22
2009/04/23 09:18:39.6     157     61     56    169    179  68.7  18.4  34128  289.04 0855.22
2009/04/23 09:18:39.7     146    104     -9    180    181  54.7  -3.1  34132  289.09 0855.22
2009/04/23 09:18:39.8     182    152    -81    238    251  50.2 -23.3  34150  289.39 0855.22
2009/04/23 09:18:39.9     196    168    -27    259    261  49.5  -6.0  34144  289.31 0855.22
2009/04/23 09:18:40.0     180    148    -28    234    236  50.5  -6.9  34144  289.31 0855.22
2009/04/23 09:18:40.1     279    173     16    329    330  58.2   2.9  34154  289.48 0855.22
2009/04/23 09:18:40.2     281    275      6    394    395  45.6   0.9  34146  289.32 0855.22
2009/04/23 09:18:40.3     238    287     87    374    385  39.7  13.1  34112  288.77 0855.22
2009/04/23 09:18:40.4     252    263     43    365    368  43.7   6.8  34118  288.86 0855.22
2009/04/23 09:18:40.5     243    303     71    389    396  38.7  10.3  34114  288.79 0855.22
2009/04/23 09:18:40.6     312    261    -36    407    409  50.1  -5.1  34156  289.51 0855.22
2009/04/23 09:18:40.7     406    288    -44    498    501  54.6  -5.1  34136  289.18 0855.22
2009/04/23 09:18:40.8     406    258     60    482    486  57.5   7.1  34146  289.35 0855.22
2009/04/23 09:18:40.9     231    315     65    392    398  36.3   9.5  34148  289.38 0855.22
2009/04/23 09:18:41.0     194    284    -12    345    346  34.4  -2.1  34148  289.38 0855.22
2009/04/23 09:18:41.1     248    231     -6    340    341  47.0  -1.2  34142  289.26 0855.22
2009/04/23 09:18:41.2     306    157      5    345    346  62.8   0.9  34128  289.04 0855.22
2009/04/23 09:18:41.3     407    208     72    458    464  62.9   9.0  34128  289.04 0855.22
2009/04/23 09:18:41.4     428    239    126    491    507  60.8  14.4  34118  288.86 0855.23
2009/04/23 09:18:41.5     451    107    219    464    513  76.6  27.1  34112  288.76 0855.23
2009/04/23 09:18:41.6     381     90    222    392    450  76.6  32.0  34118  288.85 0855.23
2009/04/23 09:18:41.7     453     68    244    459    519  81.4  30.2  34104  288.64 0855.23
2009/04/23 09:18:41.8     499     65    253    504    563  82.6  28.7  34078  288.19 0855.23
2009/04/23 09:18:41.9     534     74    184    540    571  82.1  18.8  34084  288.28 0855.23
2009/04/23 09:18:42.0     531     98    180    540    570  79.5  18.5  34088  288.35 0855.23
2009/04/23 09:18:42.1     567    -94    113    575    587  99.5  11.1  34112  288.76 0855.23
2009/04/23 09:18:42.2     476     14     56    477    481  88.3   6.7  34108  288.69 0855.23
2009/04/23 09:18:42.3     370    124     -3    391    392  71.4  -0.5  34126  288.98 0855.23
2009/04/23 09:18:42.4     441    -57     58    445    449  97.4   7.5  34112  288.75 0855.23
2009/04/23 09:18:42.5     297    -25    203    299    361  95.0  37.4  34108  288.69 0855.23
2009/04/23 09:18:42.6     384     29    146    386    412  85.7  21.8  34108  288.68 0855.23
2009/04/23 09:18:42.7     451      7    187    452    489  89.1  23.8  34104  288.61 0855.23
2009/04/23 09:18:42.8     463   -109    194    476    514 103.3  23.5  34116  288.81 0855.23
2009/04/23 09:18:42.9     315     -4    265    316    412  90.8  44.2  34110  288.71 0855.23
2009/04/23 09:18:43.0     411     -8    222    412    468  91.2  30.8  34118  288.85 0855.23
2009/04/23 09:18:43.1     307     33    149    309    343  83.8  27.4  34116  288.84 0855.23
2009/04/23 09:18:43.2     307     90    218    320    387  73.6  37.6  34126  288.99 0855.23
2009/04/23 09:18:43.3     260    192    165    324    363  53.6  29.1  34142  289.26 0855.23
2009/04/23 09:18:43.4     265     71     90    275    290  75.0  18.1  34124  288.95 0855.24
2009/04/23 09:18:43.5     316    208     19    379    380  56.7   2.9  34128  289.03 0855.24
2009/04/23 09:18:43.6     284    250    104    379    394  48.7  15.4  34164  289.64 0855.24
2009/04/23 09:18:43.7     280     76     65    291    299  74.9  12.6  34150  289.39 0855.24
2009/04/23 09:18:43.8     337     88    154    349    381  75.4  25.2  34166  289.67 0855.24
2009/04/23 09:18:43.9     272    272      8    385    386  45.0   1.2  34158  289.55 0855.24
2009/04/23 09:18:44.0     146    224    139    268    301  33.2  29.5  34150  289.41 0855.24
2009/04/23 09:18:44.1     241    169    131    295    322  54.9  25.7  34146  289.34 0855.24
2009/04/23 09:18:44.2     187    178     42    259    263  46.4   9.3  34140  289.22 0855.24
2009/04/23 09:18:44.3      44    290    102    294    312   8.7  19.2  34122  288.93 0855.24
2009/04/23 09:18:44.4      91    277    109    292    311  18.3  21.0  34148  289.36 0855.24
2009/04/23 09:18:44.5      80    203    129    219    254  21.6  33.4  34150  289.39 0855.24
2009/04/23 09:18:44.6     108    258    150    280    317  22.7  30.6  34148  289.37 0855.24
2009/04/23 09:18:44.7      89    279    122    294    318  17.8  23.8  34136  289.17 0855.24
2009/04/23 09:18:44.8      89    222    160    240    288  21.8  36.7  34140  289.24 0855.24
2009/04/23 09:18:44.9      56    235    113    242    267  13.4  27.1  34136  289.15 0855.24
2009/04/23 09:18:45.0      28    106    127    110    168  15.2  54.8  34136  289.16 0855.24
2009/04/23 09:18:45.1     -44    -12    118     46    126 254.1  78.2  34144  289.31 0855.24
2009/04/23 09:18:45.2     -41   -194     46    199    205 192.0  13.2  34140  289.23 0855.24
2009/04/23 09:18:45.3      12   -260    -74    261    272 177.3 -15.8  34138  289.20 0855.24
2009/04/23 09:18:45.4     134   -264    -33    297    299 153.0  -6.5  34142  289.25 0855.23
2009/04/23 09:18:45.5     137   -227    -35    266    269 148.8  -7.7  34144  289.29 0855.23
2009/04/23 09:18:45.6     -32   -302    -59    304    310 186.2 -11.1  34146  289.34 0855.23
2009/04/23 09:18:45.7     -70   -300    -45    309    313 193.3  -8.3  34138  289.19 0855.23
2009/04/23 09:18:45.8     -18   -175    -80    176    193 186.0 -30.8  34140  289.23 0855.23
2009/04/23 09:18:45.9     -35   -356   -113    358    376 185.7 -17.6  34136  289.18 0855.23
2009/04/23 09:18:46.0     -29   -295     56    297    303 185.8  10.8  34122  288.93 0855.23
2009/04/23 09:18:46.1      -3   -249    -13    250    251 180.9  -3.1  34126  289.00 0855.23
2009/04/23 09:18:46.2      -5   -263     43    264    268 181.1   9.3  34118  288.85 0855.23
2009/04/23 09:18:46.3     -30   -281    -75    283    293 186.3 -15.0  34118  288.87 0855.23
2009/04/23 09:18:46.4    -163   -247    -69    297    306 213.4 -13.2  34120  288.90 0855.23
2009/04/23 09:18:46.5    -163   -133    -57    211    219 230.9 -15.2  34114  288.80 0855.23
2009/04/23 09:18:46.6     -86    -97     25    130    133 221.4  11.0  34124  288.96 0855.23
2009/04/23 09:18:46.7     -34    -74     62     82    102 204.9  41.2  34128  289.02 0855.23
2009/04/23 09:18:46.8      48      0     95     49    106  90.0  70.4  34126  288.99 0855.23
2009/04/23 09:18:46.9     149    -13     58    150    160  95.2  22.3  34128  289.02 0855.23
2009/04/23 09:18:47.0      88    -42     39     98    105 115.4  23.0  34126  288.99 0855.23
2009/04/23 09:18:47.1     183    -98    226    208    307 118.4  52.2  34116  288.83 0855.23
2009/04/23 09:18:47.2     -74   -207    178    221    283 199.8  43.0  34106  288.65 0855.23
2009/04/23 09:18:47.3     -91   -231    129    249    280 201.6  29.3  34110  288.73 0855.23
2009/04/23 09:18:47.4     -93   -221     84    240    254 202.9  20.0  34114  288.80 0855.24
2009/04/23 09:18:47.5     -64   -179    127    191    229 199.8  36.7  34110  288.74 0855.24
2009/04/23 09:18:47.6     -99   -187    183    212    280 208.1  45.4  34114  288.80 0855.24
2009/04/23 09:18:47.7     -77   -121    148    144    206 212.6  50.7  34118  288.87 0855.24
2009/04/23 09:18:47.8    -126   -126    161    179    240 225.0  46.9  34122  288.94 0855.24
2009/04/23 09:18:47.9     -73   -107     62    130    144 214.2  27.3  34124  288.97 0855.24
2009/04/23 09:18:48.0     -71    -69     -3    100    101 226.0  -2.2  34124  288.96 0855.24
2009/04/23 09:18:48.1     -18    -82    -74     85    112 192.9 -49.8  34122  288.92 0855.24
2009/04/23 09:18:48.2     -39    -61   -133     73    151 212.5 -73.3  34124  288.97 0855.24
2009/04/23 09:18:48.3      34    -72   -131     80    153 154.7 -69.5  34120  288.91 0855.24
2009/04/23 09:18:48.4     138    -32   -156    142    210 103.3 -57.4  34118  288.87 0855.24
2009/04/23 09:18:48.5     237    111   -129    262    292  64.9 -32.6  34124  288.95 0855.24
2009/04/23 09:18:48.6     211    180    -93    278    293  49.6 -23.6  34110  288.71 0855.24
2009/04/23 09:18:48.7     211     36     30    215    218  80.3   8.0  34122  288.92 0855.24
2009/04/23 09:18:48.8      39     84    -94     93    132  25.4 -54.5  34122  288.92 0855.24
2009/04/23 09:18:48.9      -7     45   -164     46    170 350.2 -88.5  34110  288.74 0855.24
2009/04/23 09:18:49.0      16     22    -84     28     88  36.1 -85.4  34110  288.74 0855.24
2009/04/23 09:18:49.1     146    -15     66    147    161  96.1  25.7  34112  288.77 0855.24
2009/04/23 09:18:49.2     300     65    -17    308    309  77.7  -3.2  34114  288.78 0855.24
2009/04/23 09:18:49.3     272      0     89    273    288  90.0  18.1  34128  289.03 0855.24
2009/04/23 09:18:49.4     283    139    123    316    339  63.8  22.4  34128  289.04 0855.24
2009/04/23 09:18:49.5     320    232     87    396    406  54.1  12.5  34134  289.12 0855.24
2009/04/23 09:18:49.6     165    165     24    234    236  45.1   6.0  34126  288.98 0855.24
2009/04/23 09:18:49.7     128     80   -117    151    191  58.0 -46.4  34118  288.87 0855.24
2009/04/23 09:18:49.8      82    172   -240    191    306  25.6 -61.9  34124  288.95 0855.24
2009/04/23 09:18:49.9     112    112   -216    159    268  45.0 -64.7  34118  288.87 0855.24
2009/04/23 09:18:50.0     129    133   -166    186    249  44.3 -50.8  34118  288.87 0855.24
2009/04/23 09:18:50.1     126    153   -172    199    263  39.6 -49.8  34130  289.05 0855.24
2009/04/23 09:18:50.2     147    180      0    233    234  39.4   0.0  34140  289.24 0855.24
2009/04/23 09:18:50.3     235    232     -6    331    332  45.4  -1.2  34146  289.32 0855.24
2009/04/23 09:18:50.4     249    166     19    300    301  56.3   3.8  34152  289.42 0855.24
2009/04/23 09:18:50.5     256     85     95    270    287  71.6  19.4  34150  289.39 0855.24
2009/04/23 09:18:50.6     280      6     79    281    293  88.7  15.8  34136  289.15 0855.24
2009/04/23 09:18:50.7     222     45    157    227    276  78.6  38.0  34132  289.10 0855.24
2009/04/23 09:18:50.8     178     63    251    189    314  70.5  59.2  34138  289.20 0855.24
2009/04/23 09:18:50.9     143     78    254    163    301  61.4  64.6  34138  289.20 0855.24
2009/04/23 09:18:51.0     -16    148    160    149    218 353.7  52.2  34138  289.19 0855.24
2009/04/23 09:18:51.1     149     80    173    170    242  61.6  50.4  34134  289.13 0855.24
2009/04/23 09:18:51.2      39    148    163    154    224  14.7  52.0  34126  289.01 0855.24
2009/04/23 09:18:51.3      28    105     98    109    146  15.2  46.9  34132  289.11 0855.24
2009/04/23 09:18:51.4     102      7     77    103    128  85.6  40.7  34138  289.21 0855.25
2009/04/23 09:18:51.5     121     99     54    157    167  50.5  18.9  34136  289.16 0855.25
2009/04/23 09:18:51.6      91     54     42    107    114  59.3  22.0  34136  289.16 0855.25
2009/04/23 09:18:51.7     112   -177    148    210    256 147.5  38.6  34124  288.95 0855.25
2009/04/23 09:18:51.8     143   -173    145    225    267 140.3  35.6  34128  289.03 0855.25
2009/04/23 09:18:51.9      67   -204    202    215    295 161.7  48.0  34132  289.10 0855.25
2009/04/23 09:18:52.0     116   -175    173    211    272 146.4  43.7  34130  289.07 0855.25
2009/04/23 09:18:52.1     124   -251    220    280    356 153.7  42.1  34126  288.99 0855.25
2009/04/23 09:18:52.2       8   -217    148    218    263 177.8  37.4  34132  289.09 0855.25
2009/04/23 09:18:52.3      46   -225    161    230    280 168.2  38.4  34126  288.98 0855.25
2009/04/23 09:18:52.4      -4   -329    254    330    416 180.7  41.5  34126  288.98 0855.26
2009/04/23 09:18:52.5     -85   -343    303    354    465 193.9  44.9  34116  288.83 0855.26
2009/04/23 09:18:52.6     -93   -366    253    378    454 194.3  37.0  34112  288.75 0855.26
2009/04/23 09:18:52.7     -37   -261    248    264    362 188.2  48.0  34110  288.74 0855.26
2009/04/23 09:18:52.8       6   -231    255    232    344 178.4  53.2  34118  288.87 0855.26
2009/04/23 09:18:52.9    -136   -220    282    259    382 211.7  52.7  34114  288.79 0855.26
2009/04/23 09:18:53.0    -178   -263    203    318    377 214.2  35.6  34120  288.88 0855.26
2009/04/23 09:18:53.1    -189   -295     63    351    357 212.6  10.2  34124  288.96 0855.26
2009/04/23 09:18:53.2    -213   -292     89    362    373 216.2  13.9  34110  288.71 0855.26
2009/04/23 09:18:53.3    -281   -259    174    383    420 227.3  26.2  34110  288.72 0855.26
2009/04/23 09:18:53.4    -317   -349    166    472    501 222.3  19.4  34100  288.54 0855.26
2009/04/23 09:18:53.5    -165   -181    -11    246    247 222.3  -2.6  34104  288.63 0855.26
2009/04/23 09:18:53.6    -143   -121     65    188    200 229.6  19.2  34104  288.64 0855.26
2009/04/23 09:18:53.7    -269   -324    125    422    441 219.6  16.5  34102  288.58 0855.26
2009/04/23 09:18:53.8    -151   -192    194    245    312 218.1  42.3  34100  288.54 0855.26
2009/04/23 09:18:53.9     -10   -100    144    101    175 185.8  61.8  34100  288.55 0855.26
2009/04/23 09:18:54.0     -19    -94    136     96    166 191.6  61.3  34102  288.58 0855.26
2009/04/23 09:18:54.1      12     45    200     47    205  16.0  87.3  34114  288.80 0855.26
2009/04/23 09:18:54.2     -84    -37    189     92    210 246.0  72.7  34102  288.60 0855.26
2009/04/23 09:18:54.3    -113     57    181    127    221 297.0  61.5  34104  288.64 0855.26
2009/04/23 09:18:54.4      47    -13    138     49    146 105.9  80.2  34100  288.57 0855.26
2009/04/23 09:18:54.5      -7   -176    209    177    273 182.5  55.4  34100  288.54 0855.26
2009/04/23 09:18:54.6    -216   -156    183    267    323 234.0  37.8  34106  288.66 0855.26
2009/04/23 09:18:54.7      -7   -246    237    247    342 181.8  48.7  34096  288.48 0855.26
2009/04/23 09:18:54.8    -231   -242    176    335    378 223.7  30.0  34100  288.54 0855.26
2009/04/23 09:18:54.9    -199   -217    155    295    333 222.4  30.0  34108  288.70 0855.26
2009/04/23 09:18:55.0    -127   -127    151    180    234 225.0  44.3  34112  288.77 0855.26
2009/04/23 09:18:55.1     -99   -134    239    167    291 216.5  61.8  34108  288.70 0855.26
2009/04/23 09:18:55.2      90    -48    164    103    193 118.0  64.7  34100  288.57 0855.26
2009/04/23 09:18:55.3      50      3    113     51    123  85.7  74.0  34100  288.57 0855.26
2009/04/23 09:18:55.4     120     -9    105    121    160  94.4  45.6  34100  288.55 0855.26
2009/04/23 09:18:55.5     -53    -84    108    100    147 212.5  52.2  34104  288.64 0855.26
2009/04/23 09:18:55.6      80    -14    146     82    167 100.1  68.3  34104  288.64 0855.26
2009/04/23 09:18:55.7     190    -23    102    192    217  97.0  30.6  34094  288.47 0855.26
2009/04/23 09:18:55.8     146     22    103    148    180  81.2  38.4  34096  288.48 0855.26
2009/04/23 09:18:55.9      -4    -70    162     71    176 183.6  75.0  34106  288.67 0855.26
2009/04/23 09:18:56.0      60     58    167     84    186  45.6  71.9  34102  288.60 0855.26
2009/04/23 09:18:56.1      90    104    173    138    221  41.0  57.5  34104  288.62 0855.26
2009/04/23 09:18:56.2     187    124    119    225    254  56.5  30.2  34100  288.56 0855.26
2009/04/23 09:18:56.3     319    177    216    365    424  61.0  33.5  34116  288.82 0855.26
2009/04/23 09:18:56.4     340    356    173    493    522  43.7  20.1  34144  289.30 0855.25
2009/04/23 09:18:56.5     377    291    137    477    497  52.3  16.0  34130  289.08 0855.25
2009/04/23 09:18:56.6     436    153    229    463    516  70.6  28.2  34126  288.98 0855.25
2009/04/23 09:18:56.7     408     35    213    410    462  85.0  29.4  34132  289.09 0855.25
2009/04/23 09:18:56.8     448     40    306    450    544  84.8  37.4  34160  289.56 0855.25
2009/04/23 09:18:56.9     624    152    291    643    705  76.3  26.0  34150  289.39 0855.25
2009/04/23 09:18:57.0     425    284    154    512    535  56.3  16.8  34140  289.23 0855.25
2009/04/23 09:18:57.2     523    311    210    609    645  59.2  19.1  34168  289.72 0855.25
2009/04/23 09:18:57.2     474    335    279    581    644  54.8  27.5  34182  289.96 0855.25
2009/04/23 09:18:57.3     539    321    273    628    684  59.3  25.0  34168  289.71 0855.25
2009/04/23 09:18:57.4     539    311    323    623    701  60.0  29.6  34182  289.93 0855.25
2009/04/23 09:18:57.5     537    324    263    628    680  58.9  24.1  34146  289.34 0855.25
2009/04/23 09:18:57.6     551    292    226    624    664  62.0  19.9  34140  289.23 0855.25
2009/04/23 09:18:57.7     582    320    241    665    708  61.2  19.9  34170  289.73 0855.25
2009/04/23 09:18:57.8     533    320    219    622    660  59.0  19.4  34174  289.82 0855.25
2009/04/23 09:18:57.9     453    227    233    507    557  63.4  26.4  34176  289.85 0855.25
2009/04/23 09:18:58.0     579    313    234    659    699  61.6  20.3  34172  289.77 0855.25
2009/04/23 09:18:58.1     595    241    231    643    683  67.9  20.7  34176  289.83 0855.25
2009/04/23 09:18:58.2     377    331    177    502    533  48.7  19.4  34138  289.21 0855.25
2009/04/23 09:18:58.3     460    287    130    543    559  58.0  13.5  34130  289.07 0855.25
2009/04/23 09:18:58.4     535    280     76    604    609  62.4   7.2  34132  289.10 0855.26
2009/04/23 09:18:58.5     567    257     62    623    627  65.6   5.7  34140  289.23 0855.26
2009/04/23 09:18:58.6     507    279     37    579    581  61.1   3.7  34140  289.24 0855.26
2009/04/23 09:18:58.7     470    146    115    493    507  72.7  13.1  34150  289.39 0855.26
2009/04/23 09:18:58.8     472     70    121    478    494  81.5  14.3  34160  289.57 0855.26
2009/04/23 09:18:58.9     465     57    165    469    498  82.9  19.4  34122  288.93 0855.26
2009/04/23 09:18:59.0     411    141    153    435    462  71.0  19.4  34148  289.36 0855.26
2009/04/23 09:18:59.1     491     84     94    499    508  80.2  10.7  34100  288.54 0855.26
2009/04/23 09:18:59.2     443     18    134    444    464  87.6  16.8  34104  288.63 0855.26
2009/04/23 09:18:59.3     428    201    111    473    486  64.8  13.2  34136  289.18 0855.26
2009/04/23 09:18:59.4     463    143    -13    485    486  72.8  -1.6  34104  288.64 0855.26
2009/04/23 09:18:59.5     381    118     44    400    403  72.7   6.4  34102  288.60 0855.26
2009/04/23 09:18:59.6     360   -120    -14    380    381 108.4  -2.1  34106  288.67 0855.26
2009/04/23 09:18:59.7     382   -163     -1    416    417 113.1  -0.3  34108  288.70 0855.26
2009/04/23 09:18:59.8     242    -96     95    261    277 111.8  21.0  34116  288.81 0855.26
2009/04/23 09:18:59.9     261   -143    126    298    323 118.9  24.5  34128  289.03 0855.26
2009/04/23 09:19:00.0     265   -157    198    309    366 120.7  35.6  34118  288.86 0855.26
2009/04/23 09:19:00.1     205    -76    247    219    330 110.4  54.0  34112  288.75 0855.26
2009/04/23 09:19:00.2       7   -365     78    366    375 178.8  12.0  34106  288.66 0855.26
2009/04/23 09:19:00.3     -17   -438    -24    439    440 182.3  -3.1  34110  288.73 0855.26
2009/04/23 09:19:00.4       2   -455   -131    456    475 179.7 -16.0  34116  288.83 0855.25
2009/04/23 09:19:00.6     236   -411    211    475    519 150.1  25.6  34114  288.79 0855.25
2009/04/23 09:19:00.7     101   -409    308    422    522 166.1  39.7  34122  288.93 0855.25
2009/04/23 09:19:00.8     -51   -153    210    162    265 198.7  58.5  34114  288.80 0855.25
2009/04/23 09:19:00.9     110     98     51    148    157  48.2  19.2  34122  288.92 0855.25
2009/04/23 09:19:01.0    -173      7    -57    174    183 272.4 -23.6  34116  288.84 0855.25
2009/04/23 09:19:01.1    -215    -24   -132    217    253 263.4 -38.8  34114  288.78 0855.25
2009/04/23 09:19:01.2    -116     35    -99    122    157 286.8 -47.7  34110  288.72 0855.25
2009/04/23 09:19:01.3    -131     17   -153    133    202 277.5 -58.7  34102  288.60 0855.25
2009/04/23 09:19:01.4    -472    111   -107    485    497 283.3 -12.5  34072  288.08 0855.25
2009/04/23 09:19:01.5    -456     78   -202    463    505 279.7 -29.5  34080  288.22 0855.25
2009/04/23 09:19:01.6    -276    118   -140    301    331 293.1 -31.0  34080  288.22 0855.25
2009/04/23 09:19:01.7    -347    150   -158    379    410 293.4 -28.5  34074  288.13 0855.25
2009/04/23 09:19:01.8    -338    137   -118    365    383 292.1 -23.2  34094  288.47 0855.25
2009/04/23 09:19:01.9    -241    -59    -64    249    258 256.1 -14.5  34122  288.93 0855.25
2009/04/23 09:19:02.0    -136   -126    -63    186    197 227.3 -18.7  34132  289.09 0855.25
2009/04/23 09:19:02.1    -114   -152    -36    191    195 217.0 -10.9  34114  288.79 0855.25
2009/04/23 09:19:02.2    -161   -141    -66    215    224 228.9 -22.1  34126  288.99 0855.25
2009/04/23 09:19:02.3     132   -221    -14    258    259 149.0  -3.2  34116  288.83 0855.25
2009/04/23 09:19:02.4     223   -266     79    348    358 140.1  12.9  34110  288.72 0855.25
2009/04/23 09:19:02.5     106   -242     12    265    266 156.3   2.8  34114  288.80 0855.25
2009/04/23 09:19:02.6      82   -268    139    281    313 163.0  28.4  34120  288.90 0855.25
2009/04/23 09:19:02.7      76   -232    118    245    271 161.7  27.3  34120  288.88 0855.25
2009/04/23 09:19:02.8     116   -168    133    205    244 145.3  36.0  34112  288.77 0855.25
2009/04/23 09:19:02.9      15   -196    157    197    251 175.5  42.7  34114  288.80 0855.25
2009/04/23 09:19:03.0      -1   -159    109    160    193 180.5  37.3  34112  288.77 0855.25
2009/04/23 09:19:03.1       6    -70     76     71    104 174.7  52.1  34106  288.65 0855.25
2009/04/23 09:19:03.2     -36     31     38     48     61 311.3  43.7  34106  288.67 0855.25
2009/04/23 09:19:03.3     -47      3    -19     48     51 274.4 -26.4  34106  288.65 0855.25
2009/04/23 09:19:03.4     -50    -36     12     62     64 234.0  11.1  34102  288.58 0855.25
2009/04/23 09:19:03.5     -60     -8     34     61     69 262.1  31.4  34100  288.57 0855.25
2009/04/23 09:19:03.6     -96     -7      3     97     98 265.7   2.3  34102  288.60 0855.25
2009/04/23 09:19:03.7    -152     41      6    158    159 285.1   2.3  34104  288.64 0855.25
2009/04/23 09:19:03.8    -194    -30    -48    197    203 261.0 -13.9  34136  289.16 0855.25
2009/04/23 09:19:03.9    -138    -14    -38    139    145 263.9 -15.5  34144  289.30 0855.25
2009/04/23 09:19:04.0    -134    -15      6    135    136 263.4   2.9  34128  289.04 0855.25
2009/04/23 09:19:04.1    -115     16     42    117    124 277.9  20.0  34116  288.84 0855.25
2009/04/23 09:19:04.2     -62     15     44     64     77 284.2  37.6  34120  288.91 0855.25
2009/04/23 09:19:04.3     -26    -11     49     29     56 246.5  65.7  34112  288.75 0855.25
2009/04/23 09:19:04.4      -8    -46     72     47     85 190.7  64.1  34108  288.69 0855.25
2009/04/23 09:19:04.5     -74   -116      7    138    139 212.6   2.9  34104  288.62 0855.27
2009/04/23 09:19:04.6    -152   -217     41    265    269 215.0   8.9  34106  288.66 0855.27
2009/04/23 09:19:04.7    -225   -163    -31    279    281 234.1  -6.5  34124  288.95 0855.27
2009/04/23 09:19:04.8    -192   -257     48    322    326 216.8   8.5  34100  288.56 0855.27
2009/04/23 09:19:04.9    -187   -321     48    372    376 210.2   7.5  34084  288.28 0855.27
2009/04/23 09:19:05.0    -157   -273    -43    316    319 209.9  -7.9  34084  288.27 0855.27
2009/04/23 09:19:05.1    -180   -233    -11    295    296 217.8  -2.2  34082  288.26 0855.27
2009/04/23 09:19:05.2    -133   -293    -62    322    329 204.5 -11.0  34086  288.32 0855.27
2009/04/23 09:19:05.3    -102   -281    -16    299    300 200.0  -3.1  34088  288.34 0855.27
2009/04/23 09:19:05.4    -147   -267     16    305    306 208.9   3.1  34092  288.43 0855.27
2009/04/23 09:19:05.5    -179   -246     -1    305    306 216.0  -0.3  34084  288.29 0855.27
2009/04/23 09:19:05.6    -201   -233     32    308    310 220.8   6.0  34098  288.51 0855.27
2009/04/23 09:19:05.7    -271   -196    -73    335    344 234.0 -12.4  34096  288.50 0855.27
2009/04/23 09:19:05.8    -310   -241    -72    393    400 232.2 -10.5  34096  288.50 0855.27
2009/04/23 09:19:05.9    -332   -225    -84    402    411 235.8 -11.9  34094  288.46 0855.27
2009/04/23 09:19:06.0    -232   -235    -97    331    346 224.6 -16.4  34096  288.49 0855.27
2009/04/23 09:19:06.1       8   -421     43    422    425 178.9   5.9  34088  288.34 0855.27
2009/04/23 09:19:06.2    -217   -353     57    415    419 211.6   7.9  34084  288.28 0855.27
2009/04/23 09:19:06.3    -206   -340    -33    398    400 211.3  -4.8  34084  288.30 0855.27
2009/04/23 09:19:06.4    -224   -277    130    357    379 219.0  20.8  34084  288.28 0855.27
2009/04/23 09:19:06.5    -217   -366     83    426    435 210.7  11.1  34080  288.23 0855.27
2009/04/23 09:19:06.6    -190   -391    118    435    451 206.0  15.2  34084  288.28 0855.27
2009/04/23 09:19:06.7    -194   -423     96    466    476 204.6  11.7  34080  288.22 0855.27
2009/04/23 09:19:06.8    -207   -381     33    434    436 208.6   4.4  34080  288.23 0855.27
2009/04/23 09:19:06.9    -209   -345     19    404    405 211.2   2.8  34084  288.28 0855.27
2009/04/23 09:19:07.0    -142   -422     93    446    456 198.6  11.8  34078  288.19 0855.27
2009/04/23 09:19:07.1    -248   -469     25    531    532 207.9   2.8  34078  288.18 0855.27
2009/04/23 09:19:07.2    -140   -550     17    568    569 194.3   1.8  34082  288.26 0855.27
2009/04/23 09:19:07.3    -292   -510    -50    588    591 209.8  -4.9  34076  288.14 0855.27
2009/04/23 09:19:07.4    -331   -352   -109    484    497 223.2 -12.7  34074  288.13 0855.27
2009/04/23 09:19:07.5    -460   -374     66    594    598 230.9   6.4  34082  288.24 0855.27
2009/04/23 09:19:07.6    -454   -440    -46    633    635 225.9  -4.2  34078  288.18 0855.27
2009/04/23 09:19:07.7    -543   -367   -199    656    686 235.9 -16.9  34080  288.22 0855.27
2009/04/23 09:19:07.8    -291   -468   -162    552    576 211.9 -16.4  34084  288.30 0855.27
2009/04/23 09:19:07.9    -301   -317   -155    438    465 223.5 -19.6  34082  288.24 0855.27
2009/04/23 09:19:08.0    -264   -317    -71    413    420 219.8  -9.8  34082  288.24 0855.27
2009/04/23 09:19:08.1    -214   -365     48    424    427 210.4   6.5  34084  288.28 0855.27
2009/04/23 09:19:08.2    -227   -422     64    480    485 208.3   7.6  34084  288.29 0855.27
2009/04/23 09:19:08.3    -337   -359    -65    493    498 223.2  -7.6  34084  288.27 0855.27
2009/04/23 09:19:08.4    -314   -357    -18    476    477 221.3  -2.2  34076  288.15 0855.27
2009/04/23 09:19:08.5    -416    -23   -255    417    488 266.7 -38.8  34084  288.27 0855.28
2009/04/23 09:19:08.6    -427    -82   -259    435    506 259.0 -38.1  34078  288.18 0855.28
2009/04/23 09:19:08.7    -559    -83   -244    566    616 261.5 -29.4  34084  288.27 0855.28
2009/04/23 09:19:08.8    -548     23   -231    549    595 272.5 -28.6  34080  288.22 0855.28
2009/04/23 09:19:08.9    -534   -215   -159    576    598 248.1 -15.5  34078  288.20 0855.28
2009/04/23 09:19:09.0    -568   -293   -175    640    664 242.7 -15.3  34088  288.35 0855.28
2009/04/23 09:19:09.1    -514   -114   -221    527    571 257.5 -28.5  34080  288.21 0855.28
2009/04/23 09:19:09.2    -421   -191   -222    463    513 245.6 -31.7  34084  288.27 0855.28
2009/04/23 09:19:09.3    -356   -213   -249    416    484 239.1 -38.1  34086  288.31 0855.28
2009/04/23 09:19:09.4    -420   -249   -252    489    550 239.4 -33.7  34078  288.18 0855.28
2009/04/23 09:19:09.5    -404   -145   -250    430    497 250.2 -37.3  34074  288.13 0855.28
2009/04/23 09:19:09.6    -513   -107   -257    525    584 258.2 -32.5  34078  288.19 0855.28
2009/04/23 09:19:09.7    -495   -129   -292    512    589 255.4 -36.7  34080  288.23 0855.28
2009/04/23 09:19:09.8    -391   -168   -236    426    487 246.7 -35.8  34080  288.22 0855.28
2009/04/23 09:19:09.9    -342   -150   -237    374    442 246.3 -39.9  34090  288.38 0855.28
2009/04/23 09:19:10.0    -381   -124   -329    401    518 251.9 -48.1  34084  288.30 0855.28
2009/04/23 09:19:10.1    -475   -175   -373    507    629 249.7 -44.5  34078  288.17 0855.28
2009/04/23 09:19:10.2    -357   -311   -266    474    543 228.9 -36.1  34086  288.31 0855.28
2009/04/23 09:19:10.3    -323   -294   -337    438    552 227.7 -45.8  34086  288.32 0855.28
2009/04/23 09:19:10.4    -227   -226   -261    321    413 225.2 -47.8  34078  288.18 0855.28
2009/04/23 09:19:10.5    -185   -294   -177    348    390 212.2 -33.6  34080  288.23 0855.30
2009/04/23 09:19:10.6    -131   -404   -194    425    467 198.1 -30.7  34088  288.34 0855.30
2009/04/23 09:19:10.7     -88   -405   -133    415    435 192.4 -22.9  34088  288.36 0855.30
2009/04/23 09:19:10.8    -141   -422   -141    446    468 198.5 -17.6  34082  288.26 0855.30
2009/04/23 09:19:10.9    -178   -473   -150    506    528 200.7 -16.5  34080  288.23 0855.30
2009/04/23 09:19:11.0    -135   -469    -62    489    494 196.1  -7.3  34080  288.22 0855.30
2009/04/23 09:19:11.1     -80   -489    -42    496    498 189.3  -4.9  34074  288.12 0855.30
2009/04/23 09:19:11.2     -36   -518    -56    520    524 184.0  -6.2  34080  288.21 0855.30
2009/04/23 09:19:11.3      21   -479    -51    480    483 177.4  -6.1  34080  288.22 0855.30
2009/04/23 09:19:11.4       0   -438    -88    439    448 179.9 -11.3  34082  288.24 0855.30
2009/04/23 09:19:11.5    -146   -434    -92    459    469 198.6 -11.3  34084  288.30 0855.30
2009/04/23 09:19:11.6     -80   -444   -124    452    469 190.3 -15.4  34084  288.28 0855.30
2009/04/23 09:19:11.7     -64   -430    -55    435    439 188.6  -7.2  34082  288.24 0855.30
2009/04/23 09:19:11.8      -7   -403    -16    404    405 181.0  -2.3  34082  288.26 0855.30
2009/04/23 09:19:11.9       9   -432      1    433    434 178.8   0.2  34082  288.24 0855.30
2009/04/23 09:19:12.0      75   -465    -26    472    473 170.8  -3.2  34084  288.27 0855.30
2009/04/23 09:19:12.1     118   -494     20    509    510 166.5   2.3  34084  288.30 0855.30
2009/04/23 09:19:12.2      28   -513    -23    514    515 176.9  -2.6  34082  288.25 0855.30
2009/04/23 09:19:12.3      58   -496    -77    500    506 173.3  -8.8  34082  288.24 0855.30
2009/04/23 09:19:12.4     -40   -471    -87    473    482 184.9 -10.5  34084  288.30 0855.30
2009/04/23 09:19:12.5       1   -461    -59    462    466 179.8  -7.3  34082  288.26 0855.29
2009/04/23 09:19:12.6      33   -440    -70    442    448 175.6  -9.0  34084  288.29 0855.29
2009/04/23 09:19:12.7    -174   -434   -160    468    495 201.9 -19.0  34088  288.35 0855.29
2009/04/23 09:19:12.8    -228   -366    -47    432    435 211.9  -6.2  34092  288.41 0855.29
2009/04/23 09:19:12.9    -161   -514    -55    539    542 197.4  -5.9  34090  288.38 0855.29
2009/04/23 09:19:13.0    -251   -418    -82    488    495 211.0  -9.6  34090  288.39 0855.29
2009/04/23 09:19:13.1    -189   -451      6    490    491 202.7   0.7  34084  288.27 0855.29
2009/04/23 09:19:13.2    -387   -497    -24    630    631 217.9  -2.2  34084  288.30 0855.29
2009/04/23 09:19:13.3    -448   -455    121    639    651 224.5  10.7  34084  288.30 0855.29
2009/04/23 09:19:13.4    -596   -273   -168    656    678 245.4 -14.4  34096  288.48 0855.29
2009/04/23 09:19:13.5    -536   -291   -197    610    641 241.5 -23.0  34092  288.42 0855.29
2009/04/23 09:19:13.6    -532   -372   -218    650    685 235.0 -23.5  34098  288.53 0855.29
2009/04/23 09:19:13.7    -453   -328   -339    560    654 234.1 -38.5  34090  288.38 0855.29
2009/04/23 09:19:13.8    -489   -358   -243    607    653 233.8 -27.4  34090  288.37 0855.29
2009/04/23 09:19:13.9    -720   -429    -57    839    841 239.2  -3.9  34098  288.51 0855.29
2009/04/23 09:19:14.0    -624   -191   -103    653    662 252.9  -9.0  34092  288.41 0855.29
2009/04/23 09:19:14.1    -657   -150   -235    674    713 257.1 -24.4  34082  288.25 0855.29
2009/04/23 09:19:14.2    -613   -147   -245    631    676 256.5 -26.8  34090  288.39 0855.29
2009/04/23 09:19:14.3    -465   -204   -180    509    539 246.3 -24.7  34096  288.50 0855.29
2009/04/23 09:19:14.4    -286   -235    -66    371    377 230.5 -10.1  34096  288.49 0855.29
2009/04/23 09:19:14.5    -181   -225    -41    289    293 218.8  -8.2  34090  288.39 0855.29
2009/04/23 09:19:14.6    -165   -195   -174    256    309 220.3 -41.8  34094  288.46 0855.29
2009/04/23 09:19:14.7    -358   -214   -153    418    445 239.1 -25.4  34092  288.41 0855.29
2009/04/23 09:19:14.8    -257   -228   -121    344    365 228.5 -19.5  34074  288.13 0855.29
2009/04/23 09:19:14.9    -292    -59    -87    298    311 258.5 -16.4  34090  288.37 0855.29
2009/04/23 09:19:15.0    -258      7   -179    259    314 271.7 -42.4  34090  288.39 0855.29
2009/04/23 09:19:15.1    -235   -113   -263    261    370 244.2 -54.5  34090  288.40 0855.29
2009/04/23 09:19:15.2    -142   -143   -263    202    331 224.7 -63.3  34088  288.34 0855.29
2009/04/23 09:19:15.3    -356   -235   -225    427    482 236.5 -34.5  34092  288.42 0855.29
2009/04/23 09:19:15.4    -503   -186   -253    537    593 249.7 -31.5  34090  288.39 0855.29
2009/04/23 09:19:15.5    -443   -146   -218    467    515 251.7 -31.3  34090  288.37 0855.28
2009/04/23 09:19:15.6    -377    -42   -198    380    428 263.5 -34.0  34094  288.45 0855.28
2009/04/23 09:19:15.7    -223    -99    -79    245    257 246.0 -22.9  34094  288.44 0855.28
2009/04/23 09:19:15.8    -122   -115   -106    169    199 226.7 -39.6  34088  288.35 0855.28
2009/04/23 09:19:15.9    -135   -202   -129    244    276 213.8 -34.5  34092  288.41 0855.28
2009/04/23 09:19:16.0    -171   -361   -123    400    418 205.3 -22.1  34088  288.34 0855.28
2009/04/23 09:19:16.1    -222   -367    -86    429    438 211.2 -11.3  34086  288.31 0855.28
2009/04/23 09:19:16.2    -301   -358    -50    468    471 220.1  -6.2  34090  288.39 0855.28
2009/04/23 09:19:16.3    -319   -242     32    401    403 232.8   4.6  34088  288.35 0855.28
2009/04/23 09:19:16.4    -153   -247    133    291    319 211.9  26.3  34090  288.39 0855.28
2009/04/23 09:19:16.5     -87   -208    126    226    258 202.7  31.4  34086  288.31 0855.28
2009/04/23 09:19:16.6     -68   -237    163    247    295 196.0  36.5  34088  288.36 0855.28
2009/04/23 09:19:16.7     -80   -392    140    401    425 191.6  19.3  34092  288.41 0855.28
2009/04/23 09:19:16.8      13   -419    154    420    447 178.1  21.0  34088  288.36 0855.28
2009/04/23 09:19:16.9      47   -432    150    435    461 173.7  19.1  34088  288.36 0855.28
2009/04/23 09:19:17.0       0   -280    149    281    318 180.0  30.2  34090  288.39 0855.28
2009/04/23 09:19:17.1     105   -187    163    215    269 150.6  40.9  34088  288.34 0855.28
2009/04/23 09:19:17.2     118   -213    228    244    333 151.0  47.9  34088  288.34 0855.28
2009/04/23 09:19:17.3      95   -193    201    216    295 153.7  47.9  34088  288.34 0855.28
2009/04/23 09:19:17.4      81   -136    148    159    217 149.3  47.9  34092  288.42 0855.28
2009/04/23 09:19:17.5      88    -73    143    115    183 130.0  57.1  34088  288.36 0855.27
2009/04/23 09:19:17.6      46    -58    128     75    148 141.3  66.8  34090  288.40 0855.27
2009/04/23 09:19:17.7      -6   -159    196    160    253 182.5  56.4  34094  288.47 0855.27
2009/04/23 09:19:17.8     -12   -155    182    156    239 184.5  55.0  34092  288.43 0855.27
2009/04/23 09:19:17.9      -2   -157    184    158    242 181.0  54.8  34094  288.47 0855.27
2009/04/23 09:19:18.0     -29   -150    186    153    240 191.1  56.4  34092  288.42 0855.27
2009/04/23 09:19:18.1    -124   -155    246    199    316 218.7  57.0  34098  288.53 0855.27
2009/04/23 09:19:18.2     -31     31    143     44    149 315.0  82.3  34094  288.45 0855.27
2009/04/23 09:19:18.3      99     32    189    105    216  71.8  68.8  34092  288.43 0855.27
2009/04/23 09:19:18.4       3    -67    129     68    145 177.3  69.8  34096  288.50 0855.27
2009/04/23 09:19:18.5      34    -26     71     44     83 127.8  65.7  34092  288.43 0855.27
2009/04/23 09:19:18.6     -34   -155    134    159    207 192.5  44.3  34090  288.40 0855.27
2009/04/23 09:19:18.7     -29   -168    160    171    234 190.0  48.0  34090  288.40 0855.27
2009/04/23 09:19:18.8     -68   -151    165    166    234 204.5  50.0  34090  288.40 0855.27
2009/04/23 09:19:18.9     -41     14    107     44    115 289.1  77.0  34096  288.48 0855.27
2009/04/23 09:19:19.0     -40     79     73     89    115 332.8  43.7  34090  288.40 0855.27
2009/04/23 09:19:19.1     -95    168     59    194    203 330.6  17.1  34090  288.40 0855.27
2009/04/23 09:19:19.2    -117     74     64    139    153 302.4  26.6  34090  288.38 0855.27
2009/04/23 09:19:19.3     -64    -52     61     83    103 230.5  40.1  34094  288.47 0855.27
2009/04/23 09:19:19.4     -84     -5     66     85    107 266.1  42.2  34094  288.45 0855.27
2009/04/23 09:19:19.5     -30      0     90     31     95 269.2  81.2  34094  288.47 0855.26
2009/04/23 09:19:19.6      59     16    116     62    131  74.9  69.8  34092  288.42 0855.26
2009/04/23 09:19:19.7     152    -56    117    163    200 110.4  39.5  34088  288.35 0855.26
2009/04/23 09:19:19.8     196    -63     78    206    220 107.9  21.5  34090  288.40 0855.26
2009/04/23 09:19:19.9     194     35    -10    198    199  79.6  -3.1  34090  288.38 0855.26
2009/04/23 09:19:20.0     285    155     15    325    326  61.5   2.8  34074  288.12 0855.26
2009/04/23 09:19:20.1     208     43     84    213    228  78.1  22.8  34082  288.25 0855.26
2009/04/23 09:19:20.2     138     55    127    149    195  68.3  45.1  34078  288.18 0855.26
2009/04/23 09:19:20.3      21    -47     35     52     62 155.5  37.6  34086  288.31 0855.26
2009/04/23 09:19:20.4     -48   -169     -1    176    177 196.0  -0.5  34084  288.28 0855.26
2009/04/23 09:19:20.5     -26   -179     58    182    192 188.5  17.7  34086  288.31 0855.26
2009/04/23 09:19:20.6     -43   -132     51    140    149 198.3  20.9  34088  288.35 0855.26
2009/04/23 09:19:20.7     -68   -144     62    160    171 205.3  22.3  34088  288.35 0855.26
2009/04/23 09:19:20.8     -24   -171    162    173    237 188.2  47.9  34088  288.36 0855.26
2009/04/23 09:19:20.9    -135   -163     43    212    217 219.6  11.4  34092  288.42 0855.26
2009/04/23 09:19:21.0    -106   -116     98    158    185 222.3  35.2  34098  288.53 0855.26
2009/04/23 09:19:21.1    -225    -95    135    245    279 247.2  31.4  34094  288.44 0855.26
2009/04/23 09:19:21.2    -235   -102     83    257    271 246.4  17.9  34090  288.37 0855.26
2009/04/23 09:19:21.3    -202    -43     87    207    224 257.8  24.1  34092  288.42 0855.26
2009/04/23 09:19:21.4    -198    -37    104    202    227 259.2  29.3  34092  288.42 0855.26
2009/04/23 09:19:21.5    -173    -41    121    178    215 256.5  37.6  34084  288.30 0855.24
2009/04/23 09:19:21.6    -177      3     86    178    197 271.3  27.8  34088  288.35 0855.24
2009/04/23 09:19:21.7    -182     56     81    191    207 287.3  24.6  34094  288.45 0855.24
2009/04/23 09:19:21.8    -184      6     94    185    207 271.9  29.1  34094  288.45 0855.24
2009/04/23 09:19:21.9    -156     -2     74    157    173 269.1  27.1  34092  288.42 0855.24
2009/04/23 09:19:22.0    -106     37     84    113    140 289.5  40.1  34092  288.43 0855.24
2009/04/23 09:19:22.1      56     26     36     62     71  64.8  33.5  34094  288.47 0855.24
2009/04/23 09:19:22.2     100     72     69    124    141  54.1  31.4  34158  289.55 0855.24
2009/04/23 09:19:22.3     120    111     36    164    169  47.3  12.6  34174  289.82 0855.24
2009/04/23 09:19:22.4     160     33     86    164    185  78.1  30.1  34166  289.67 0855.24
2009/04/23 09:19:22.5     153     62     57    166    176  67.8  19.2  34156  289.50 0855.24
2009/04/23 09:19:22.6     225    163     70    278    287  54.1  14.3  34196  290.19 0855.24
2009/04/23 09:19:22.7     352    149     59    383    388  67.0   8.9  34198  290.20 0855.24
2009/04/23 09:19:22.8     357    127    157    380    411  70.4  23.7  34202  290.28 0855.24
2009/04/23 09:19:22.9     289    136    164    320    359  64.8  29.3  34208  290.40 0855.24
2009/04/23 09:19:23.0     306     83    189    318    369  74.9  33.6  34208  290.40 0855.24
2009/04/23 09:19:23.1     352    152    260    384    463  66.6  37.4  34176  289.85 0855.24
2009/04/23 09:19:23.2     378    126    283    399    489  71.6  39.0  34176  289.83 0855.24
2009/04/23 09:19:23.3     255    215    248    334    416  49.8  40.2  34180  289.91 0855.24
2009/04/23 09:19:23.4     291    226    170    369    406  52.1  26.4  34164  289.65 0855.24
2009/04/23 09:19:23.5     159    225      3    276    277  35.2   0.8  34174  289.80 0855.26
2009/04/23 09:19:23.6      90    199    -19    219    220  24.5  -5.2  34168  289.70 0855.26
2009/04/23 09:19:23.7      -4    261     37    262    265 359.0   8.2  34162  289.59 0855.26
2009/04/23 09:19:23.8     -21     55     83     59    101 339.1  60.6  34156  289.50 0855.26
2009/04/23 09:19:23.9      32     20     -1     38     39  57.6  -2.2  34148  289.38 0855.26
2009/04/23 09:19:24.0      26     -8    -28     28     39 108.4 -54.5  34154  289.46 0855.26
2009/04/23 09:19:24.1     -46   -125    -48    134    142 200.1 -24.8  34150  289.40 0855.26
2009/04/23 09:19:24.2      -1   -226   -100    227    248 180.5 -29.6  34156  289.49 0855.26
2009/04/23 09:19:24.3      -1   -277   -100    278    295 180.2 -25.3  34162  289.59 0855.26
2009/04/23 09:19:24.4     -53   -211    -83    218    233 194.3 -25.9  34126  288.99 0855.26
2009/04/23 09:19:24.5      64   -237   -134    246    280 164.9 -35.4  34094  288.46 0855.26
2009/04/23 09:19:24.6      47   -256   -124    261    288 169.5 -31.6  34086  288.31 0855.26
2009/04/23 09:19:24.7     -20   -318   -144    319    349 183.6 -30.4  34082  288.25 0855.26
2009/04/23 09:19:24.8      43   -312   -206    316    377 172.0 -40.6  34080  288.23 0855.26
2009/04/23 09:19:24.9     195   -288   -228    348    416 145.9 -40.8  34090  288.37 0855.26
2009/04/23 09:19:25.0     255   -258   -228    363    428 135.4 -39.7  34112  288.77 0855.26
2009/04/23 09:19:25.1     231   -259   -211    348    406 138.2 -38.6  34160  289.57 0855.26
2009/04/23 09:19:25.2     180   -362   -270    405    486 153.5 -41.1  34142  289.26 0855.26
2009/04/23 09:19:25.3     157   -326   -169    362    399 154.3 -31.3  34152  289.42 0855.26
2009/04/23 09:19:25.4     215   -189      8    287    288 131.3   1.6  34140  289.22 0855.26
2009/04/23 09:19:25.5     279   -138     87    312    325 116.4  15.7  34146  289.34 0855.27
2009/04/23 09:19:25.6     316   -167    140    358    384 117.9  22.7  34136  289.16 0855.27
2009/04/23 09:19:25.7     337    -50    317    341    465  98.5  47.9  34126  289.00 0855.27
2009/04/23 09:19:25.8     324     14    307    325    447  87.4  48.2  34142  289.26 0855.27
2009/04/23 09:19:25.9     261      0    239    262    354  90.0  47.0  34150  289.41 0855.27
2009/04/23 09:19:26.0     350      0    158    351    384  89.9  25.9  34110  288.74 0855.27
2009/04/23 09:19:26.1     384    -29    157    386    416  94.4  23.2  34090  288.39 0855.27
2009/04/23 09:19:26.2     386     27    192    387    432  86.0  28.2  34088  288.34 0855.27
2009/04/23 09:19:26.3     311     32    220    313    382  84.1  38.7  34088  288.35 0855.27
2009/04/23 09:19:26.4     257     25    238    259    351  84.3  47.6  34088  288.34 0855.27
2009/04/23 09:19:26.5     212     56    210    220    304  75.2  48.7  34088  288.36 0855.27
2009/04/23 09:19:26.6     201     57    165    210    267  74.1  42.2  34090  288.37 0855.27
2009/04/23 09:19:26.7     146    -22    218    148    263  98.8  62.7  34090  288.40 0855.27
2009/04/23 09:19:26.8      33     32    164     47    170  46.0  83.9  34096  288.50 0855.27
2009/04/23 09:19:26.9     124      9    178    125    217  85.7  61.5  34092  288.42 0855.27
2009/04/23 09:19:27.0      15     31    119     35    124  25.4  82.8  34096  288.50 0855.27
2009/04/23 09:19:27.1     -16     53     75     56     93 343.1  59.4  34100  288.55 0855.27
2009/04/23 09:19:27.2      11     40     65     42     77  16.0  64.6  34104  288.62 0855.27
2009/04/23 09:19:27.3      91     58    113    108    156  57.5  51.2  34144  289.31 0855.27
2009/04/23 09:19:27.4      59     72    118     94    150  39.2  56.9  34154  289.48 0855.27
2009/04/23 09:19:27.5      50     16    129     53    139  71.4  77.0  34148  289.36 0855.26
2009/04/23 09:19:27.6      38     -2    171     39    175  94.4  87.5  34140  289.23 0855.26
2009/04/23 09:19:27.7      40      8    126     41    132  78.5  80.7  34122  288.92 0855.26
2009/04/23 09:19:27.8      28    -49     74     57     93 150.1  57.9  34112  288.77 0855.26
2009/04/23 09:19:27.9     147    -39    129    153    200 105.0  44.5  34106  288.65 0855.26
2009/04/23 09:19:28.0      44     51    107     68    126  40.5  64.7  34104  288.62 0855.26
2009/04/23 09:19:28.1      32     57    131     66    146  29.9  71.9  34112  288.77 0855.26
2009/04/23 09:19:28.2     -19     23    100     30    104 320.4  82.3  34122  288.92 0855.26
2009/04/23 09:19:28.3     -49     53     77     73    106 316.8  51.6  34116  288.82 0855.26
2009/04/23 09:19:28.5     -42     80     61     91    109 331.9  37.0  34120  288.89 0855.26
2009/04/23 09:19:28.6       4     67     57     68     88   3.6  44.3  34124  288.97 0855.26
2009/04/23 09:19:28.7      99     92     82    136    158  46.9  34.0  34116  288.84 0855.26
2009/04/23 09:19:28.8      73    119    120    140    184  31.6  45.1  34126  288.99 0855.26
2009/04/23 09:19:28.9      59     86    104    105    147  34.7  50.0  34122  288.94 0855.26
2009/04/23 09:19:29.0      49     34     93     60    110  54.9  64.6  34102  288.58 0855.26
2009/04/23 09:19:29.1     -38   -212    185    216    284 190.2  44.8  34100  288.56 0855.26
2009/04/23 09:19:29.2     -54    -91     94    106    141 210.7  46.4  34110  288.74 0855.26
2009/04/23 09:19:29.3     -38      6    145     39    150 279.7  84.9  34134  289.14 0855.26
2009/04/23 09:19:29.4       0    -90    195     91    215 180.4  73.1  34114  288.79 0855.26
2009/04/23 09:19:29.5     107     -3    223    108    247  92.1  72.7  34092  288.43 0855.26
2009/04/23 09:19:29.6     -48   -136    247    145    286 199.6  66.8  34084  288.29 0855.26
2009/04/23 09:19:29.7       8    238    152    239    283   2.0  35.5  34154  289.47 0855.26
2009/04/23 09:19:29.8      42    178    143    183    232  13.4  42.0  34168  289.72 0855.26
2009/04/23 09:19:29.9       2    154     92    155    180   1.0  33.5  34166  289.69 0855.26
2009/04/23 09:19:30.0     -21    164     20    166    168 352.4   6.9  34156  289.52 0855.26
2009/04/23 09:19:30.1     -36    154     -4    159    160 346.6  -1.6  34176  289.85 0855.26
2009/04/23 09:19:30.2     -62    131     82    145    166 334.6  32.1  34186  290.01 0855.26
2009/04/23 09:19:30.3     -64    115     68    132    148 331.0  29.3  34180  289.91 0855.26
2009/04/23 09:19:30.4     -27     40     47     49     67 325.7  50.0  34186  290.02 0855.26
2009/04/23 09:19:30.5     -25     94     61     98    115 344.9  35.5  34188  290.06 0855.26
2009/04/23 09:19:30.6    -100    115     32    153    157 319.0  12.0  34194  290.16 0855.26
2009/04/23 09:19:30.7    -121    109     20    164    166 312.0   7.2  34200  290.26 0855.26
2009/04/23 09:19:30.8     -94     94      4    134    135 314.9   1.8  34196  290.19 0855.26
2009/04/23 09:19:30.9    -139     69     20    156    158 296.6   7.5  34206  290.35 0855.26
2009/04/23 09:19:31.0    -200     72     15    213    214 289.9   4.2  34164  289.63 0855.26
2009/04/23 09:19:31.1    -113    105     -7    155    156 313.1  -2.6  34148  289.38 0855.26
2009/04/23 09:19:31.2    -136    112     -6    177    178 309.3  -2.2  34150  289.41 0855.26
2009/04/23 09:19:31.3    -178     72    -46    193    199 292.2 -13.4  34150  289.40 0855.26
2009/04/23 09:19:31.4    -143     -6    -49    144    153 267.5 -18.7  34142  289.28 0855.26
2009/04/23 09:19:31.5    -152     42    -39    158    163 285.7 -13.9  34150  289.40 0855.26
2009/04/23 09:19:31.6    -144    -48    -45    152    159 251.4 -16.8  34166  289.67 0855.28
2009/04/23 09:19:31.7    -242   -114    -32    268    270 244.6  -6.9  34180  289.92 0855.28
2009/04/23 09:19:31.8    -161   -153     91    223    240 226.4  23.4  34166  289.68 0855.28
2009/04/23 09:19:31.9    -224   -147    145    269    305 236.7  30.8  34176  289.85 0855.28
2009/04/23 09:19:32.0    -167   -140    155    219    268 230.0  38.8  34188  290.03 0855.28
2009/04/23 09:19:32.1    -189   -181    143    262    298 226.2  31.3  34180  289.92 0855.28
2009/04/23 09:19:32.2    -243   -237     82    340    350 225.7  13.7  34210  290.43 0855.28
2009/04/23 09:19:32.3    -177   -275     34    328    330 212.7   6.0  34202  290.28 0855.28
2009/04/23 09:19:32.4    -184   -214     91    283    298 220.8  17.9  34212  290.44 0855.28
2009/04/23 09:19:32.5    -143   -226     85    268    282 212.5  17.7  34200  290.26 0855.28
2009/04/23 09:19:32.6    -236   -258    125    350    371 222.4  20.4  34192  290.10 0855.28
2009/04/23 09:19:32.7       0   -223    234    224    323 180.2  51.3  34126  289.00 0855.28
2009/04/23 09:19:32.8    -148   -288    145    324    354 207.2  25.7  34164  289.64 0855.28
2009/04/23 09:19:32.9     -89   -373    152    384    412 193.5  22.9  34120  288.90 0855.28
2009/04/23 09:19:33.0     -37   -288    100    291    308 187.3  19.1  34166  289.66 0855.28
2009/04/23 09:19:33.1      -4   -261     92    262    278 181.0  19.4  34152  289.42 0855.28
2009/04/23 09:19:33.2    -146   -150     47    210    216 224.1  12.6  34176  289.85 0855.28
2009/04/23 09:19:33.3    -115   -135     48    178    185 220.5  15.3  34186  290.02 0855.28
2009/04/23 09:19:33.4     -60   -132     99    146    176 204.5  37.3  34184  289.97 0855.28
2009/04/23 09:19:33.5    -164   -164     36    232    235 225.0   8.9  34180  289.90 0855.28
2009/04/23 09:19:33.6    -142   -115     -4    183    184 230.9  -1.3  34180  289.92 0855.25
2009/04/23 09:19:33.7     -89   -160     17    184    185 209.0   5.4  34168  289.70 0855.25
2009/04/23 09:19:33.8     -75   -222     46    235    240 198.7  11.1  34150  289.41 0855.25
2009/04/23 09:19:33.9     -46   -305     89    309    322 188.7  16.1  34140  289.24 0855.25
2009/04/23 09:19:34.0      -6   -318    104    319    336 181.2  18.2  34114  288.79 0855.25
2009/04/23 09:19:34.1      20   -309    108    310    329 176.2  19.2  34102  288.58 0855.25
2009/04/23 09:19:34.2     -29   -297    118    299    321 185.6  22.7  34098  288.53 0855.25
2009/04/23 09:19:34.3     -75   -266    104    277    295 195.8  21.5  34098  288.53 0855.25
2009/04/23 09:19:34.4     -56   -270    117    276    299 191.8  24.2  34098  288.51 0855.25
2009/04/23 09:19:34.5     -69   -259    115    269    292 195.1  24.3  34104  288.61 0855.25
2009/04/23 09:19:34.6    -126   -264    150    293    329 205.5  29.2  34102  288.59 0855.26
2009/04/23 09:19:34.7    -159   -224     80    275    287 215.4  16.3  34116  288.81 0855.26
2009/04/23 09:19:34.8    -107   -209    153    236    281 207.2  35.7  34100  288.54 0855.26
2009/04/23 09:19:34.9    -173   -226     44    285    289 217.4   8.8  34094  288.46 0855.26
2009/04/23 09:19:35.0    -207   -183    -40    277    280 228.4  -8.2  34098  288.51 0855.26
2009/04/23 09:19:35.1    -221   -116      7    250    251 242.2   1.8  34100  288.54 0855.26
2009/04/23 09:19:35.2    -153   -173     40    232    236 221.4   9.9  34104  288.61 0855.26
2009/04/23 09:19:35.3    -320   -196    -74    376    384 238.5 -11.2  34132  289.10 0855.26
2009/04/23 09:19:35.4    -300   -248   -145    390    416 230.4 -25.7  34158  289.53 0855.26
2009/04/23 09:19:35.5    -342   -162    -81    379    388 244.7 -12.2  34138  289.21 0855.26
2009/04/23 09:19:35.6    -278   -346     -1    445    446 218.8  -0.2  34108  288.70 0855.26
2009/04/23 09:19:35.7    -286   -324     38    433    435 221.4   5.1  34102  288.60 0855.26
2009/04/23 09:19:35.8    -146   -215     68    260    269 214.2  14.7  34108  288.68 0855.26
2009/04/23 09:19:35.9    -225   -224     30    318    320 225.2   5.5  34122  288.92 0855.26
2009/04/23 09:19:36.0    -183   -193    -33    267    270 223.4  -7.2  34142  289.27 0855.26
2009/04/23 09:19:36.1    -273   -283    -83    394    403 224.0 -11.9  34174  289.82 0855.26
2009/04/23 09:19:36.2    -247   -387    -41    460    462 212.6  -5.2  34148  289.38 0855.26
2009/04/23 09:19:36.3    -272   -204    -50    341    345 233.2  -8.4  34130  289.08 0855.26
2009/04/23 09:19:36.4    -396   -222     88    455    464 240.7  11.0  34128  289.02 0855.26
2009/04/23 09:19:36.5     -85   -235    274    250    370 200.0  53.0  34108  288.69 0855.26
2009/04/23 09:19:36.6    -129   -279    155    308    344 204.9  28.6  34096  288.50 0855.24
2009/04/23 09:19:36.7     -41   -227    221    231    319 190.2  48.8  34102  288.59 0855.24
2009/04/23 09:19:36.8     -58   -211    157    219    269 195.4  39.5  34102  288.58 0855.24
2009/04/23 09:19:36.9     -20   -195    114    197    227 186.0  32.7  34104  288.62 0855.24
2009/04/23 09:19:37.0     -95   -325    282    339    440 196.3  43.8  34096  288.50 0855.24
2009/04/23 09:19:37.1    -206   -266    339    337    478 217.7  50.1  34104  288.63 0855.24
2009/04/23 09:19:37.2    -187   -286    271    343    437 213.2  42.3  34114  288.78 0855.24
2009/04/23 09:19:37.3    -286   -163    -22    330    331 240.2  -3.9  34106  288.67 0855.24
2009/04/23 09:19:37.4    -113   -201    108    231    255 209.4  27.0  34098  288.51 0855.24
2009/04/23 09:19:37.5    -101   -198    126    223    256 207.2  31.9  34106  288.65 0855.24
2009/04/23 09:19:37.6    -193   -164    117    254    279 229.6  26.4  34132  289.10 0855.24
2009/04/23 09:19:37.7    -231   -123    -38    262    265 242.0  -8.3  34122  288.92 0855.24
2009/04/23 09:19:37.8    -234   -110     -8    259    260 244.7  -1.8  34118  288.85 0855.24
2009/04/23 09:19:37.9    -338   -148     80    370    379 246.3  12.3  34122  288.94 0855.24
2009/04/23 09:19:38.0    -455   -193     51    495    498 247.0   5.9  34126  289.01 0855.24
2009/04/23 09:19:38.1    -477   -100     58    488    492 258.1   6.9  34128  289.03 0855.24
2009/04/23 09:19:38.2    -506    -78     48    512    515 261.2   5.4  34118  288.86 0855.24
2009/04/23 09:19:38.3    -388    -58    110    393    409 261.5  15.7  34124  288.95 0855.24
2009/04/23 09:19:38.4    -402    -34    158    404    433 265.1  22.5  34110  288.73 0855.24
2009/04/23 09:19:38.5    -393    -68    -17    399    400 260.1  -2.5  34112  288.77 0855.24
2009/04/23 09:19:38.6    -286    -89     31    300    302 252.7   6.0  34106  288.65 0855.22
2009/04/23 09:19:38.7    -244   -154     78    289    300 237.6  15.2  34120  288.88 0855.22
2009/04/23 09:19:38.8    -323   -218    136    390    413 235.9  20.0  34112  288.77 0855.22
2009/04/23 09:19:38.9    -279   -101     84    297    309 250.1  15.8  34104  288.63 0855.22
2009/04/23 09:19:39.0    -188   -113    115    220    248 239.1  29.8  34106  288.66 0855.22
2009/04/23 09:19:39.1    -263    -84    123    277    303 252.3  25.7  34108  288.68 0855.22
2009/04/23 09:19:39.2    -288   -248    114    381    398 229.3  16.7  34102  288.60 0855.22
2009/04/23 09:19:39.3     -71   -276    206    286    352 194.5  39.5  34100  288.57 0855.22
2009/04/23 09:19:39.4    -166   -170    246    238    342 224.3  51.2  34104  288.63 0855.22
2009/04/23 09:19:39.5    -123   -123    270    175    321 225.1  64.3  34112  288.76 0855.22
2009/04/23 09:19:39.6    -210    -98    135    232    268 244.9  32.9  34110  288.73 0855.22
2009/04/23 09:19:39.7    -155   -164    168    226    281 223.3  40.4  34106  288.65 0855.22
2009/04/23 09:19:39.8     -21   -270     77    271    282 184.5  16.0  34098  288.53 0855.22
2009/04/23 09:19:39.9     -42   -248    115    252    277 189.6  26.2  34094  288.46 0855.22
2009/04/23 09:19:40.0     -45   -180    118    186    220 194.3  35.5  34092  288.43 0855.22
2009/04/23 09:19:40.1      -1   -199    182    200    270 180.5  47.1  34092  288.43 0855.22
2009/04/23 09:19:40.2     -36    -47    181     60    190 217.0  80.7  34096  288.50 0855.22
2009/04/23 09:19:40.3     160   -110    166    195    256 124.6  44.8  34098  288.51 0855.22
2009/04/23 09:19:40.4     153   -103    113    185    216 124.0  34.4  34096  288.50 0855.22
2009/04/23 09:19:40.5     204    -34    187    207    278  99.6  46.9  34096  288.48 0855.22
2009/04/23 09:19:40.6     154    -41    229    160    279 105.1  61.7  34088  288.36 0855.22
2009/04/23 09:19:40.7      41     -7    172     42    177 100.6  86.4  34098  288.52 0855.22
2009/04/23 09:19:40.8    -100    -88    181    134    225 228.6  60.0  34094  288.45 0855.22
2009/04/23 09:19:40.9     -31    -56    153     65    166 208.9  75.5  34094  288.47 0855.22
2009/04/23 09:19:41.0     -18      6     65     19     67 288.6  82.8  34098  288.52 0855.22
2009/04/23 09:19:41.1     -25    -45     70     52     87 209.0  59.4  34096  288.50 0855.22
2009/04/23 09:19:41.2     -37   -129    109    135    173 196.0  43.3  34092  288.42 0855.22
2009/04/23 09:19:41.3     -83   -105     67    134    149 218.3  28.2  34094  288.45 0855.22
2009/04/23 09:19:41.4     -17     -9     53     20     56 241.1  80.2  34090  288.38 0855.22
2009/04/23 09:19:41.5      78     28    103     84    132  70.0  56.4  34096  288.50 0855.22
2009/04/23 09:19:41.6      78      1    117     79    141  89.1  62.6  34094  288.47 0855.22
2009/04/23 09:19:41.7     -13    -94    156     95    182 188.0  65.7  34090  288.38 0855.22
2009/04/23 09:19:41.8       1   -122    138    123    184 179.1  53.7  34084  288.28 0855.22
2009/04/23 09:19:41.9     100   -107     95    147    175 136.8  35.6  34086  288.33 0855.22
2009/04/23 09:19:42.0      24   -150     80    153    172 170.7  29.5  34086  288.31 0855.22
2009/04/23 09:19:42.1       0   -116     33    117    122 180.0  15.8  34090  288.40 0855.22
2009/04/23 09:19:42.2      16   -128     15    130    131 172.9   6.9  34092  288.42 0855.22
2009/04/23 09:19:42.3      19   -133     24    135    138 171.9  10.1  34092  288.43 0855.22
2009/04/23 09:19:42.4      10   -127      6    128    129 175.1   2.9  34094  288.47 0855.22
2009/04/23 09:19:42.5     -18   -166     -5    168    169 186.5  -1.8  34092  288.43 0855.22
2009/04/23 09:19:42.6     -70   -209     10    221    222 198.7   2.8  34080  288.23 0855.20
2009/04/23 09:19:42.7     -61   -226     37    235    238 195.1   9.0  34084  288.29 0855.20
2009/04/23 09:19:42.8    -102   -186    103    213    236 208.7  27.8  34086  288.31 0855.20
2009/04/23 09:19:42.9    -106   -165     97    197    219 212.7  28.0  34088  288.35 0855.20
2009/04/23 09:19:43.0    -105   -147     74    181    195 215.6  23.4  34088  288.36 0855.20
2009/04/23 09:19:43.1     -75   -105    -16    130    132 215.6  -7.3  34088  288.36 0855.20
2009/04/23 09:19:43.2     -16    -71    -37     73     81 193.4 -33.1  34090  288.38 0855.20
2009/04/23 09:19:43.3      56    -30      9     64     65 118.9   8.0  34088  288.35 0855.20
2009/04/23 09:19:43.4      37     17     59     42     72  64.7  60.6  34092  288.42 0855.20
2009/04/23 09:19:43.5     -43     43     31     61     68 315.0  28.2  34092  288.43 0855.20
2009/04/23 09:19:43.6     -71     69     29    100    105 314.0  16.3  34090  288.40 0855.20
2009/04/23 09:19:43.7    -124     37      6    130    131 286.8   2.8  34090  288.38 0855.20
2009/04/23 09:19:43.8     -38     95     14    103    105 338.2   8.0  34088  288.35 0855.20
2009/04/23 09:19:43.9     -92    145     49    172    180 327.5  16.0  34086  288.31 0855.20
2009/04/23 09:19:44.0     -80    135     92    158    182 329.3  33.1  34086  288.33 0855.20
2009/04/23 09:19:44.1    -168    -71    125    183    221 246.9  37.6  34088  288.35 0855.20
2009/04/23 09:19:44.2     -96    -74     99    122    157 232.2  43.3  34086  288.33 0855.20
2009/04/23 09:19:44.3      60    -64    209     89    227 136.8  75.5  34090  288.38 0855.20
2009/04/23 09:19:44.4      -9    -27    217     29    218 198.3  90.0  34094  288.45 0855.20
2009/04/23 09:19:44.5     -56   -161    229    171    285 199.4  59.6  34084  288.29 0855.20
2009/04/23 09:19:44.6     -16    -99    166    101    194 189.3  65.4  34090  288.40 0855.15
2009/04/23 09:19:44.7    -202     15    149    203    251 274.4  39.9  34088  288.34 0855.15
2009/04/23 09:19:44.8    -264   -131    123    295    319 243.6  23.9  34094  288.44 0855.15
2009/04/23 09:19:44.9     -68    -55    156     88    179 230.9  68.3  34088  288.36 0855.15
2009/04/23 09:19:45.0     -46   -116    158    125    201 201.8  57.7  34088  288.35 0855.15
2009/04/23 09:19:45.1     -27   -133    129    136    187 191.6  48.2  34086  288.33 0855.15
2009/04/23 09:19:45.2     -41   -136    129    143    192 196.9  47.1  34084  288.30 0855.15
2009/04/23 09:19:45.3     -27   -135    107    138    174 191.6  41.7  34088  288.36 0855.15
2009/04/23 09:19:45.4     -48   -121     90    131    158 201.8  37.8  34086  288.31 0855.15
2009/04/23 09:19:45.5     -52   -131     83    142    164 201.8  33.1  34086  288.33 0855.15
2009/04/23 09:19:45.6     -41   -125     66    132    147 198.3  28.2  34084  288.30 0855.15
2009/04/23 09:19:45.7     -41   -103     84    112    140 201.8  40.7  34084  288.30 0855.15
2009/04/23 09:19:45.8      -6   -120    108    121    162 183.1  46.6  34084  288.28 0855.15
2009/04/23 09:19:45.9     -25    -95    111     99    148 194.7  53.7  34086  288.33 0855.15
2009/04/23 09:19:46.0     -39    -42     97     58    113 223.2  66.2  34088  288.36 0855.15
2009/04/23 09:19:46.1     -73    -60     79     95    123 230.5  44.3  34084  288.30 0855.15
2009/04/23 09:19:46.2     -76    -96     83    123    148 218.3  37.4  34084  288.30 0855.15
2009/04/23 09:19:46.3     -87   -115     89    145    170 217.0  34.8  34084  288.30 0855.15
2009/04/23 09:19:46.4     -33   -115    113    120    164 196.0  48.5  34082  288.26 0855.15
2009/04/23 09:19:46.5     -50   -123     93    133    162 202.3  38.4  34082  288.26 0855.15
2009/04/23 09:19:46.6     -51   -108    120    120    169 205.3  50.1  34082  288.26 0855.16
2009/04/23 09:19:46.7     -16   -122     98    124    158 187.6  42.4  34082  288.26 0855.16
2009/04/23 09:19:46.8       7   -179     82    180    197 177.5  26.2  34080  288.23 0855.16
2009/04/23 09:19:46.9       3   -179     93    180    202 178.9  29.3  34078  288.20 0855.16
2009/04/23 09:19:47.0       1   -168     89    169    191 179.5  30.1  34084  288.28 0855.16
2009/04/23 09:19:47.1      32    -98    116    104    155 161.7  53.3  34080  288.23 0855.16
2009/04/23 09:19:47.2       0    -52     79     53     95 180.9  63.6  34086  288.31 0855.16
2009/04/23 09:19:47.3     -37    -87     96     95    135 203.2  49.7  34086  288.31 0855.16
2009/04/23 09:19:47.4     -34   -143     83    147    168 193.4  32.1  34082  288.25 0855.16
2009/04/23 09:19:47.5     -47   -141     67    149    163 198.7  25.7  34076  288.14 0855.16
2009/04/23 09:19:47.6    -112   -147     -7    186    187 217.4  -2.2  34076  288.14 0855.16
2009/04/23 09:19:47.7    -160   -177     90    239    255 222.1  21.7  34080  288.22 0855.16
2009/04/23 09:19:47.8    -154   -174     89    233    249 221.4  22.0  34082  288.26 0855.16
2009/04/23 09:19:47.9    -120   -141     93    186    207 220.3  28.5  34080  288.21 0855.16
2009/04/23 09:19:48.0     -91    -91     88    130    156 225.0  37.8  34084  288.28 0855.16
2009/04/23 09:19:48.1     -70    -71     94    100    137 224.5  48.0  34082  288.25 0855.16
2009/04/23 09:19:48.2     -57    -90    109    107    152 212.5  50.1  34084  288.28 0855.16
2009/04/23 09:19:48.3     -89    -95     70    131    148 223.2  30.8  34080  288.23 0855.16
2009/04/23 09:19:48.4     -80    -66    105    104    147 230.5  50.1  34082  288.25 0855.16
2009/04/23 09:19:48.5    -107      3     82    108    135 271.7  41.6  34082  288.26 0855.16
2009/04/23 09:19:48.6    -105     23     30    108    113 282.4  15.8  34082  288.25 0855.15
2009/04/23 09:19:48.7     -17      0     56     18     58 270.0  80.7  34082  288.26 0855.15
2009/04/23 09:19:48.8    -117     22    136    120    181 280.6  54.0  34084  288.30 0855.15
2009/04/23 09:19:48.9     -88     38    103     97    141 293.5  52.1  34086  288.31 0855.15
2009/04/23 09:19:49.0     -91     85     99    125    159 313.2  42.4  34086  288.31 0855.15
2009/04/23 09:19:49.1     -94     22    123     97    156 283.3  57.7  34086  288.33 0855.15
2009/04/23 09:19:49.2     -43      0     80     44     91 270.0  68.8  34086  288.31 0855.15
2009/04/23 09:19:49.3      -3   -102     35    103    109 181.8  18.9  34078  288.20 0855.15
2009/04/23 09:19:49.4     -17   -117     28    119    123 188.5  13.2  34082  288.25 0855.15
2009/04/23 09:19:49.5     -39   -113    -43    120    128 199.2 -19.7  34082  288.25 0855.15
2009/04/23 09:19:49.6      64    -81    -98    104    142 141.7 -52.4  34082  288.25 0855.15
2009/04/23 09:19:49.7     108    -68    -57    128    140 122.4 -29.6  34084  288.30 0855.15
2009/04/23 09:19:49.8      94    -62    -33    113    117 123.7 -21.7  34082  288.26 0855.15
2009/04/23 09:19:49.9      77    -89    -58    118    131 139.0 -32.2  34082  288.26 0855.15
2009/04/23 09:19:50.0     104    -87    -43    136    142 130.0 -22.8  34082  288.25 0855.15
2009/04/23 09:19:50.1     108   -108    -22    153    155 135.0  -8.2  34080  288.21 0855.15
2009/04/23 09:19:50.2      70   -110     54    131    141 147.4  23.1  34078  288.20 0855.15
2009/04/23 09:19:50.3      -7   -129     87    130    156 183.1  36.5  34078  288.18 0855.15
2009/04/23 09:19:50.4      -7    -93     56     94    109 184.4  34.0  34080  288.23 0855.15
2009/04/23 09:19:50.5      20   -104     51    107    118 168.9  27.2  34080  288.21 0855.15
2009/04/23 09:19:50.6       0   -120     29    121    125 180.4  13.7  34080  288.23 0855.14
2009/04/23 09:19:50.7       0   -165     16    166    167 180.0   5.7  34080  288.23 0855.14
2009/04/23 09:19:50.8       8   -165     -6    166    167 177.1  -2.2  34082  288.25 0855.14
2009/04/23 09:19:50.9      -2   -141     -3    142    143 181.0  -1.3  34082  288.25 0855.14
2009/04/23 09:19:51.1     -25   -131     31    134    138 191.1  13.1  34082  288.25 0855.14
2009/04/23 09:19:51.1     -23   -111     22    114    117 192.0  11.1  34080  288.23 0855.14
2009/04/23 09:19:51.2     -14   -107     18    108    110 187.6   9.5  34080  288.23 0855.14
2009/04/23 09:19:51.4      -7    -91     32     92     98 184.9  19.4  34080  288.21 0855.14
2009/04/23 09:19:51.4       7    -85     56     86    102 175.1  36.0  34082  288.25 0855.14
2009/04/23 09:19:51.5      30    -90     70     95    118 161.5  40.1  34078  288.20 0855.14
2009/04/23 09:19:51.6      12    -36     73     38     82 161.5  70.8  34086  288.31 0855.14
2009/04/23 09:19:51.7     -62   -111     76    128    148 209.0  33.5  34080  288.23 0855.14
2009/04/23 09:19:51.8     -30    -78     98     84    129 201.4  55.4  34086  288.31 0855.14
2009/04/23 09:19:51.9     -15    -79     87     81    118 190.7  52.1  34082  288.25 0855.14
2009/04/23 09:19:52.0     -39    -97     70    105    126 201.8  36.5  34082  288.26 0855.14
2009/04/23 09:19:52.1      -5     -6     42      8     42 219.6  90.0  34088  288.35 0855.14
2009/04/23 09:19:52.2       0    -62     88     63    108 180.0  60.5  34084  288.28 0855.14
2009/04/23 09:19:52.3     -52   -120     57    132    143 203.6  24.6  34078  288.20 0855.14
2009/04/23 09:19:52.4     -39   -129     42    135    142 196.9  17.4  34078  288.18 0855.14
2009/04/23 09:19:52.5     -72   -113     42    135    142 212.6  17.3  34080  288.23 0855.14
2009/04/23 09:19:52.6     -69    -90     -6    114    115 217.4  -3.1  34088  288.35 0855.15
2009/04/23 09:19:52.7     -61   -159     38    171    176 200.9  12.6  34082  288.25 0855.15
2009/04/23 09:19:52.8    -102   -214     37    238    242 205.5   9.0  34082  288.26 0855.15
2009/04/23 09:19:52.9     -56   -201     74    209    221 195.6  20.0  34082  288.25 0855.15
2009/04/23 09:19:53.0    -112   -175     41    208    213 212.6  11.1  34082  288.26 0855.15
2009/04/23 09:19:53.1     -90   -148     45    174    180 211.4  14.5  34086  288.31 0855.15
2009/04/23 09:19:53.2    -150   -105    -35    184    188 234.9 -10.9  34088  288.35 0855.15
2009/04/23 09:19:53.3    -143    -91     -6    170    171 237.6  -2.3  34092  288.42 0855.15
2009/04/23 09:19:53.4      -7   -108     82    109    136 184.0  40.7  34082  288.25 0855.15
2009/04/23 09:19:53.5     -67   -201     93    212    231 198.5  25.1  34082  288.25 0855.15
2009/04/23 09:19:53.6     -74   -198     38    212    216 200.5  10.3  34082  288.26 0855.15
2009/04/23 09:19:53.7     -11   -161     53    162    171 184.2  18.1  34080  288.23 0855.15
2009/04/23 09:19:53.8       0   -110     36    111    117 180.4  17.9  34082  288.26 0855.15
2009/04/23 09:19:53.9      36   -149     93    154    179 166.2  34.0  34082  288.25 0855.15
2009/04/23 09:19:54.0     -42   -220    106    225    248 190.9  27.1  34086  288.32 0855.15
2009/04/23 09:19:54.1      28   -223     88    225    241 172.7  22.3  34086  288.31 0855.15
2009/04/23 09:19:54.2      -3   -230     73    231    243 180.9  17.7  34082  288.24 0855.15
2009/04/23 09:19:54.3      14   -223    100    224    245 176.4  25.9  34082  288.26 0855.15
2009/04/23 09:19:54.4     -15   -201     69    202    214 184.4  18.9  34080  288.23 0855.15
2009/04/23 09:19:54.5       2   -237     31    238    241 179.3   7.5  34082  288.24 0855.15
2009/04/23 09:19:54.6       7   -244     47    245    250 178.2  11.0  34078  288.17 0855.17
2009/04/23 09:19:54.7      60   -293     31    300    302 168.4   6.0  34080  288.22 0855.17
2009/04/23 09:19:54.8      30   -303      3    305    306 174.2   0.7  34080  288.22 0855.17
2009/04/23 09:19:54.9      42   -272     53    276    282 171.1  11.0  34080  288.21 0855.17
2009/04/23 09:19:55.1      42   -311     49    314    318 172.2   9.0  34080  288.21 0855.17
2009/04/23 09:19:55.2      44   -335     61    338    344 172.4  10.4  34084  288.27 0855.17
2009/04/23 09:19:55.3      49   -322     98    326    341 171.3  16.8  34082  288.25 0855.17
2009/04/23 09:19:55.4      71   -317     78    325    335 167.3  13.6  34084  288.28 0855.17
2009/04/23 09:19:55.5      33   -296     73    298    307 173.5  13.9  34080  288.21 0855.17
2009/04/23 09:19:55.6      17   -326     45    327    331 176.9   7.9  34082  288.25 0855.17
2009/04/23 09:19:55.7      14   -317     16    318    319 177.4   2.9  34078  288.19 0855.21
2009/04/23 09:19:55.8      39   -308     48    311    315 172.7   8.8  34080  288.21 0855.21
2009/04/23 09:19:55.9      69   -284     86    293    306 166.2  16.4  34080  288.21 0855.21
2009/04/23 09:19:56.0      31   -280    104    282    300 173.5  21.0  34080  288.21 0855.21
2009/04/23 09:19:56.1      33   -263     57    266    273 172.8  12.2  34080  288.22 0855.21
2009/04/23 09:19:56.2      50   -253     50    259    264 168.7  11.0  34082  288.24 0855.21
2009/04/23 09:19:56.3      25   -269     63    271    279 174.7  13.1  34080  288.22 0855.21
2009/04/23 09:19:56.4      21   -278     14    279    280 175.5   2.9  34080  288.22 0855.21
2009/04/23 09:19:56.5      55   -269     43    275    279 168.4   9.0  34082  288.26 0855.21
2009/04/23 09:19:56.6       6   -253     31    254    256 178.6   7.1  34082  288.24 0855.21
2009/04/23 09:19:56.7      20   -251      3    252    253 175.3   0.8  34078  288.19 0855.21
2009/04/23 09:19:56.8     -38   -186     -5    190    191 191.6  -1.8  34080  288.21 0855.21
2009/04/23 09:19:56.9     -17   -257     17    258    259 183.8   3.8  34080  288.21 0855.21
2009/04/23 09:19:57.0      34   -316    -14    318    319 173.8  -2.7  34080  288.22 0855.21
2009/04/23 09:19:57.1      47   -325     38    329    332 171.7   6.7  34078  288.20 0855.21
2009/04/23 09:19:57.2      19   -309    -17    310    311 176.4  -3.2  34080  288.21 0855.21
2009/04/23 09:19:57.3      44   -318    -17    322    323 172.0  -3.1  34084  288.27 0855.21
2009/04/23 09:19:57.4     -17   -300    -71    301    310 183.4 -13.3  34080  288.21 0855.21
2009/04/23 09:19:57.5      18   -340    -44    341    344 176.9  -7.5  34084  288.27 0855.21
2009/04/23 09:19:57.6      67   -321      5    329    330 168.1   1.0  34082  288.25 0855.21
2009/04/23 09:19:57.7      84   -256    -54    270    276 161.7 -11.3  34086  288.31 0855.20
2009/04/23 09:19:57.8      73   -209    -12    222    223 160.6  -3.1  34084  288.30 0855.20
2009/04/23 09:19:57.9     -19   -324     24    325    326 183.4   4.4  34084  288.27 0855.20
2009/04/23 09:19:58.0     -44   -282     91    286    301 188.9  17.7  34084  288.29 0855.20
2009/04/23 09:19:58.1      -7   -250     98    251    269 181.8  22.3  34084  288.27 0855.20
2009/04/23 09:19:58.2      -3   -190     16    191    192 181.0   4.9  34084  288.30 0855.20
2009/04/23 09:19:58.3      20   -143     74    145    162 172.0  29.1  34084  288.30 0855.20
2009/04/23 09:19:58.4      42   -160     75    166    182 165.1  25.9  34082  288.25 0855.20
2009/04/23 09:19:58.5      80   -241     96    255    272 161.5  21.5  34082  288.26 0855.20
2009/04/23 09:19:58.6     119   -186    149    221    266 147.4  37.3  34082  288.24 0855.20
2009/04/23 09:19:58.7      33   -203    168    206    265 170.7  43.7  34082  288.24 0855.20
2009/04/23 09:19:58.8      22   -245    172    247    300 174.7  38.0  34082  288.24 0855.20
2009/04/23 09:19:58.9      53   -285    133    290    319 169.4  26.3  34078  288.19 0855.20
2009/04/23 09:19:59.0      50   -225    143    231    271 167.3  35.2  34078  288.17 0855.20
2009/04/23 09:19:59.1      23   -238    181    240    300 174.4  40.7  34084  288.27 0855.20
2009/04/23 09:19:59.2      -1    -72    131     73    149 180.9  68.8  34086  288.31 0855.20
2009/04/23 09:19:59.3      87   -285    105    299    318 163.0  19.4  34080  288.22 0855.20
2009/04/23 09:19:59.4      29   -270    120    272    297 173.7  25.2  34080  288.22 0855.20
2009/04/23 09:19:59.5      61   -190    146    200    247 162.2  39.7  34080  288.22 0855.20
2009/04/23 09:19:59.6      28   -199    146    202    249 172.0  39.5  34078  288.17 0855.20
2009/04/23 09:19:59.7      24   -220    173    222    281 173.8  41.7  34080  288.22 0855.13
2009/04/23 09:19:59.8     -32   -227    157    230    278 188.1  37.6  34082  288.24 0855.13
2009/04/23 09:19:59.9     -13   -183    162    184    245 184.2  45.8  34078  288.20 0855.13
2009/04/23 09:20:00.0       3   -122    140    123    186 178.2  54.3  34076  288.16 0855.13
2009/04/23 09:20:00.1      28    -11     82     31     87 111.7  79.2  34078  288.18 0855.13
2009/04/23 09:20:00.2      20    -42     71     47     85 153.7  63.6  34082  288.26 0855.13
2009/04/23 09:20:00.3       2    -62     78     63    100 177.3  56.9  34082  288.25 0855.13
2009/04/23 09:20:00.4       9     35     65     37     74  15.1  67.7  34084  288.30 0855.13
2009/04/23 09:20:00.5     -31     -6     63     32     70 258.5  71.9  34086  288.33 0855.13
2009/04/23 09:20:00.6     -19    -95     94     98    135 191.6  49.4  34082  288.26 0855.13
2009/04/23 09:20:00.7     -42   -125    132    132    186 198.7  50.1  34078  288.20 0855.13
2009/04/23 09:20:00.8     -71    -71    168    101    196 225.0  66.4  34084  288.28 0855.13
2009/04/23 09:20:00.9     -36    -43    134     57    145 219.6  76.1  34078  288.18 0855.13
2009/04/23 09:20:01.0     -71     65     79     97    125 312.7  43.7  34084  288.28 0855.13
2009/04/23 09:20:01.1      25    -25    111     36    116 135.0  80.7  34084  288.28 0855.13
2009/04/23 09:20:01.2      17    -67    107     70    127 165.7  64.1  34080  288.23 0855.13
2009/04/23 09:20:01.3      51   -120    126    131    181 156.8  49.0  34080  288.21 0855.13
2009/04/23 09:20:01.4       0   -134    151    135    202 180.0  53.5  34082  288.25 0855.13
2009/04/23 09:20:01.5      26   -139    130    142    192 169.3  47.7  34082  288.25 0855.13
2009/04/23 09:20:01.6     -18   -162     99    164    191 186.5  34.2  34078  288.20 0855.13
2009/04/23 09:20:01.7     -40   -147     96    153    180 195.2  35.2  34078  288.18 0855.14
2009/04/23 09:20:01.8     -55   -171    127    180    220 198.0  38.8  34080  288.23 0855.14
2009/04/23 09:20:01.9     -32   -105    126    110    167 196.9  54.6  34082  288.26 0855.14
2009/04/23 09:20:02.0      14   -109    115    110    159 172.4  51.2  34082  288.26 0855.14
2009/04/23 09:20:02.1       3     -3     88      5     88 136.6  90.0  34088  288.35 0855.14
2009/04/23 09:20:02.2     -73   -107    173    130    216 214.3  59.4  34082  288.26 0855.14
2009/04/23 09:20:02.3     -45    -99    199    109    226 204.5  68.9  34084  288.28 0855.14
2009/04/23 09:20:02.4      15    -80    148     82    169 169.3  68.5  34086  288.31 0855.14
2009/04/23 09:20:02.5     -15    -91    158     93    183 189.8  66.8  34084  288.30 0855.14
2009/04/23 09:20:02.6     -29    -78    188     84    205 200.5  74.5  34086  288.31 0855.14
2009/04/23 09:20:02.7     -53   -105    193    118    226 206.7  65.7  34080  288.23 0855.14
2009/04/23 09:20:02.8     -78   -127    232    150    276 211.6  64.1  34082  288.26 0855.14
2009/04/23 09:20:02.9     -90   -133    189    161    248 214.3  55.4  34082  288.26 0855.14
2009/04/23 09:20:03.0     -34   -245    249    248    351 188.1  50.1  34082  288.24 0855.14
2009/04/23 09:20:03.1      25    -76    148     81    168 161.7  69.1  34084  288.28 0855.14
2009/04/23 09:20:03.2      74    -50     55     90    105 124.2  35.0  34082  288.26 0855.14
2009/04/23 09:20:03.3      35     -7    195     36    198 101.5  90.0  34074  288.11 0855.14
2009/04/23 09:20:03.4       5     47    224     48    229   7.1  88.8  34086  288.31 0855.14
2009/04/23 09:20:03.5      81    -44    171     93    194 118.9  68.9  34086  288.33 0855.14
2009/04/23 09:20:03.6     -49   -103    197    115    228 205.3  67.0  34086  288.33 0855.14
2009/04/23 09:20:03.7      33    -46    183     57    191 143.9  82.0  34084  288.30 0855.17
2009/04/23 09:20:03.8      57   -120    141    133    193 154.5  51.6  34090  288.38 0855.17
2009/04/23 09:20:03.9     127    -65    197    143    243 117.1  60.5  34082  288.26 0855.17
2009/04/23 09:20:04.0       4      7    163      9    163  32.5  90.0  34088  288.36 0855.17
2009/04/23 09:20:04.1     300    -13    261    301    398  92.5  45.5  34084  288.28 0855.17
2009/04/23 09:20:04.2     178    -41    250    183    309 103.0  60.5  34082  288.24 0855.17
2009/04/23 09:20:04.3     175    -39    149    180    233 102.6  43.7  34082  288.25 0855.17
2009/04/23 09:20:04.4     191    -86    198    210    288 114.4  48.2  34082  288.26 0855.17
2009/04/23 09:20:04.5     181   -236    220    298    370 142.4  39.9  34084  288.28 0855.17
2009/04/23 09:20:04.6     169   -279    248    327    410 148.8  40.9  34086  288.32 0855.17
2009/04/23 09:20:04.7     205   -298    176    362    402 145.5  27.9  34082  288.25 0855.17
2009/04/23 09:20:04.8     194   -283    169    344    383 145.5  27.9  34076  288.15 0855.17
2009/04/23 09:20:04.9     250   -187    114    313    333 126.8  20.8  34084  288.27 0855.17
2009/04/23 09:20:05.0     240   -119    109    269    290 116.4  23.1  34084  288.27 0855.17
2009/04/23 09:20:05.1     254    -86     84    269    282 108.8  17.4  34082  288.24 0855.17
2009/04/23 09:20:05.2     252    -57    117    259    284 102.8  26.2  34086  288.31 0855.17
2009/04/23 09:20:05.3     243    -92    104    260    280 110.8  23.0  34086  288.31 0855.17
2009/04/23 09:20:05.4     219    -51    131    226    261 103.3  32.7  34082  288.26 0855.17
2009/04/23 09:20:05.5     231    -76    138    244    280 108.2  32.3  34088  288.36 0855.17
2009/04/23 09:20:05.6     242   -133    130    277    305 118.9  27.1  34086  288.31 0855.17
2009/04/23 09:20:05.7     194   -172     87    260    275 131.4  18.5  34084  288.29 0855.18
2009/04/23 09:20:05.8     120   -159    108    200    227 142.8  31.0  34084  288.28 0855.18
2009/04/23 09:20:05.9     105   -149    135    183    227 144.8  39.9  34086  288.31 0855.18
2009/04/23 09:20:06.0      85   -186    104    205    229 155.5  29.1  34088  288.35 0855.18
2009/04/23 09:20:06.1     -63   -208     77    218    232 197.0  19.4  34090  288.38 0855.18
2009/04/23 09:20:06.2     -68   -169    161    183    243 201.8  45.9  34092  288.43 0855.18
2009/04/23 09:20:06.3     -88   -275    111    289    309 197.8  22.0  34094  288.44 0855.18
2009/04/23 09:20:06.4     -17   -175    104    176    204 185.8  33.5  34088  288.36 0855.18
2009/04/23 09:20:06.5       5    -72     93     73    118 175.6  57.9  34088  288.36 0855.18
2009/04/23 09:20:06.6     106    -35     98    112    148 108.6  45.8  34090  288.38 0855.18
2009/04/23 09:20:06.7     194    -26    139    196    240  97.7  38.8  34088  288.35 0855.18
2009/04/23 09:20:06.8     142    -47    130    150    198 108.6  45.6  34086  288.33 0855.18
2009/04/23 09:20:06.9     168   -109    125    201    236 122.9  34.8  34086  288.31 0855.18
2009/04/23 09:20:07.0     161    -95    182    188    261 120.7  49.0  34088  288.34 0855.18
2009/04/23 09:20:07.1     193   -111    177    223    284 120.0  42.7  34088  288.34 0855.18
2009/04/23 09:20:07.2      48   -105    114    116    162 155.5  50.0  34086  288.33 0855.18
2009/04/23 09:20:07.3      54   -134    143    145    203 158.1  50.0  34090  288.38 0855.18
2009/04/23 09:20:07.4      47     -3    101     48    111  94.4  72.9  34090  288.40 0855.18
2009/04/23 09:20:07.5     -26    -56    157     62    168 205.4  77.6  34092  288.43 0855.18
2009/04/23 09:20:07.6       7     22    110     24    112  18.3  88.5  34100  288.55 0855.18
2009/04/23 09:20:07.7     -25     -8    108     27    111 251.4  86.4  34096  288.50 0855.19
2009/04/23 09:20:07.8       0    -98     91     99    134 180.4  47.9  34092  288.43 0855.19
2009/04/23 09:20:07.9      16    -49     82     52     97 161.7  64.7  34090  288.40 0855.19
2009/04/23 09:20:08.0       0    -20     63     21     66 182.7  81.0  34090  288.38 0855.19
2009/04/23 09:20:08.1      38      9     99     40    106  76.7  77.1  34088  288.35 0855.19
2009/04/23 09:20:08.2       0   -151    133    152    201 180.0  45.8  34086  288.31 0855.19
2009/04/23 09:20:08.3      39   -119    105    126    164 161.7  44.1  34088  288.36 0855.19
2009/04/23 09:20:08.4      55    -96     94    111    145 150.1  44.3  34090  288.38 0855.19
2009/04/23 09:20:08.5      57    -99     89    115    145 150.1  41.7  34084  288.30 0855.19
2009/04/23 09:20:08.6      24   -130    107    133    170 169.3  43.3  34090  288.38 0855.19
2009/04/23 09:20:08.7      60    -81    105    102    146 143.5  50.7  34090  288.38 0855.19
2009/04/23 09:20:08.8      65   -117     86    134    159 151.0  35.7  34088  288.35 0855.19
2009/04/23 09:20:08.9      54    -97     98    112    148 151.0  45.8  34088  288.36 0855.19
2009/04/23 09:20:09.0      80    -68     84    106    135 130.4  42.7  34088  288.36 0855.19
2009/04/23 09:20:09.1      40    -91     83    100    129 156.4  43.8  34088  288.36 0855.19
2009/04/23 09:20:09.2      36   -127     83    133    156 164.0  35.0  34088  288.35 0855.19
2009/04/23 09:20:09.3      35   -123     65    129    144 164.0  29.2  34088  288.36 0855.19
2009/04/23 09:20:09.4      26   -111     67    115    133 166.6  33.5  34090  288.38 0855.19
2009/04/23 09:20:09.5      34    -62     63     71     94 151.1  46.4  34090  288.38 0855.19
2009/04/23 09:20:09.6      26    -55     46     62     77 154.5  39.7  34090  288.38 0855.19
2009/04/23 09:20:09.7      68   -132     52    149    158 152.8  19.4  34088  288.35 0855.18
2009/04/23 09:20:09.8      74   -117     17    139    141 147.5   7.1  34088  288.36 0855.18
2009/04/23 09:20:09.9      74   -105     24    129    132 144.8  10.6  34090  288.40 0855.18
2009/04/23 09:20:10.0     123    -98     51    158    167 128.6  17.9  34090  288.38 0855.18
2009/04/23 09:20:10.1     102   -102     51    145    154 135.0  19.4  34088  288.36 0855.18
2009/04/23 09:20:10.2      78   -118     -7    142    143 146.6  -3.1  34088  288.35 0855.18
2009/04/23 09:20:10.3     159    -80     -3    179    180 116.9  -1.3  34092  288.42 0855.18
2009/04/23 09:20:10.4     170    -81    -10    189    190 115.4  -3.3  34094  288.47 0855.18
2009/04/23 09:20:10.5     176   -104     24    205    207 120.7   6.9  34098  288.53 0855.18
2009/04/23 09:20:10.6     159   -124     99    202    224 128.0  27.4  34094  288.45 0855.18
2009/04/23 09:20:10.7     122   -106     58    162    172 130.9  20.2  34098  288.53 0855.18
2009/04/23 09:20:10.8      98    -62     42    117    124 122.4  20.0  34100  288.55 0855.18
2009/04/23 09:20:10.9      77    -24     14     81     83 107.3  10.1  34096  288.50 0855.18
2009/04/23 09:20:11.0      84    -37      0     92     93 114.0  -0.3  34098  288.52 0855.18
2009/04/23 09:20:11.1     101    -52    -10    114    115 117.5  -5.2  34100  288.55 0855.18
2009/04/23 09:20:11.2      50    -75     17     91     93 146.6  11.1  34096  288.50 0855.18
2009/04/23 09:20:11.3      78   -101     16    128    130 142.2   7.1  34096  288.50 0855.18
2009/04/23 09:20:11.4      49   -150    -14    158    159 161.7  -5.4  34096  288.48 0855.18
2009/04/23 09:20:11.5      82   -131     34    155    159 147.9  12.6  34096  288.48 0855.18
2009/04/23 09:20:11.6      67   -129      7    146    147 152.4   2.9  34096  288.50 0855.18
2009/04/23 09:20:11.7      96   -142    100    172    198 145.7  32.9  34098  288.53 0855.17
2009/04/23 09:20:11.8      44   -155     62    162    173 164.2  21.7  34094  288.47 0855.17
2009/04/23 09:20:11.9      75   -142     96    161    187 151.9  33.7  34094  288.47 0855.17
2009/04/23 09:20:12.0      91    -97    128    134    185 136.8  48.7  34098  288.53 0855.17
2009/04/23 09:20:12.1      -9    -31     74     33     81 196.9  74.5  34104  288.62 0855.17
2009/04/23 09:20:12.2     -25    -74     36     79     86 198.7  25.7  34102  288.58 0855.17
2009/04/23 09:20:12.3     -33    -61     24     70     75 209.0  19.4  34102  288.60 0855.17
2009/04/23 09:20:12.4     -19    -78     28     81     86 193.8  19.2  34104  288.62 0855.17
2009/04/23 09:20:12.5      -4    -78     29     79     84 183.6  20.4  34100  288.57 0855.17
2009/04/23 09:20:12.6      13    -79     19     81     84 170.2  13.7  34100  288.57 0855.17
2009/04/23 09:20:12.7      34    -51     26     62     67 146.6  23.1  34102  288.58 0855.17
2009/04/23 09:20:12.8      17    -39     -1     43     44 156.4  -2.2  34100  288.57 0855.17
2009/04/23 09:20:12.9      10    -31    -22     33     39 161.7 -40.9  34100  288.57 0855.17
2009/04/23 09:20:13.0     -14    -12    -34     19     38 228.7 -73.2  34102  288.58 0855.17
2009/04/23 09:20:13.1      -8    -26    -18     28     33 198.7 -40.0  34100  288.57 0855.17
2009/04/23 09:20:13.2     -33    -50    -18     61     64 213.4 -16.6  34102  288.60 0855.17
2009/04/23 09:20:13.3      15    -64      5     66     67 166.6   4.9  34100  288.55 0855.17
2009/04/23 09:20:13.4     -23    -45     64     51     81 207.2  57.5  34102  288.58 0855.17
2009/04/23 09:20:13.5      81    -84     71    117    136 135.9  34.4  34102  288.58 0855.17
2009/04/23 09:20:13.6      53    -13     59     55     80 104.2  52.2  34102  288.60 0855.17
2009/04/23 09:20:13.7     -52    -57     69     78    104 222.3  46.9  34104  288.64 0855.16
2009/04/23 09:20:13.8      41   -147    163    153    223 164.4  52.1  34106  288.67 0855.16
2009/04/23 09:20:13.9       8   -200    171    201    263 177.5  44.8  34104  288.63 0855.16
2009/04/23 09:20:14.0     197   -224    161    299    339 138.6  30.8  34104  288.61 0855.16
2009/04/23 09:20:14.1     154   -291    127    330    353 152.1  22.2  34100  288.57 0855.16
2009/04/23 09:20:14.2     118   -336     76    357    366 160.6  12.1  34104  288.64 0855.16
2009/04/23 09:20:14.3      71   -336     45    344    347 168.0   7.5  34102  288.60 0855.16
2009/04/23 09:20:14.4      41   -262     36    266    269 171.1   7.8  34104  288.63 0855.16
2009/04/23 09:20:14.5      26   -233    -34    235    238 173.5  -8.3  34104  288.61 0855.16
2009/04/23 09:20:14.6     -45   -124    -85    132    157 200.0 -40.1  34108  288.69 0855.16
2009/04/23 09:20:14.7    -186      0    -74    187    201 270.0 -27.2  34098  288.53 0855.16
2009/04/23 09:20:14.8    -195     45    -98    201    223 283.0 -32.2  34106  288.67 0855.16
2009/04/23 09:20:14.9     -50    -18    -52     54     74 250.0 -55.5  34108  288.69 0855.16
2009/04/23 09:20:15.0      14   -108      4    109    110 172.4   2.3  34108  288.69 0855.16
2009/04/23 09:20:15.1     -19   -108     89    110    141 190.2  43.7  34108  288.69 0855.16
2009/04/23 09:20:15.2      -4   -257     90    258    274 180.9  19.2  34102  288.59 0855.16
2009/04/23 09:20:15.4       7   -192     82    193    209 177.8  24.6  34104  288.62 0855.16
2009/04/23 09:20:15.5       8   -198    109    199    226 177.5  31.3  34104  288.64 0855.16
2009/04/23 09:20:15.5     -47   -200    141    206    249 193.4  37.6  34104  288.63 0855.16
2009/04/23 09:20:15.6     -57   -199    138    208    249 196.0  36.5  34106  288.66 0855.16
2009/04/23 09:20:15.7     -26   -155    110    158    192 189.7  38.0  34104  288.62 0855.17
2009/04/23 09:20:15.8     -57   -179    114    189    220 197.8  33.7  34102  288.60 0855.17
2009/04/23 09:20:15.9      -7   -138    135    139    193 183.1  49.4  34104  288.62 0855.17
2009/04/23 09:20:16.0       0   -174    137    175    222 179.8  42.0  34104  288.62 0855.17
2009/04/23 09:20:16.1       0   -169     75    170    185 180.0  25.1  34102  288.60 0855.17
2009/04/23 09:20:16.2      14   -166    100    167    194 175.1  34.0  34104  288.64 0855.17
2009/04/23 09:20:16.3      18   -212    101    213    235 175.1  27.2  34106  288.65 0855.17
2009/04/23 09:20:16.4      19   -300     73    301    310 176.4  13.7  34102  288.59 0855.17
2009/04/23 09:20:16.6     -42   -234    -21    238    239 190.2  -5.1  34104  288.61 0855.17
2009/04/23 09:20:16.6     -26   -293     25    295    297 185.1   5.0  34102  288.58 0855.17
2009/04/23 09:20:16.8     -38   -208    118    212    242 190.5  31.6  34104  288.61 0855.16
2009/04/23 09:20:16.8     -42   -271     34    275    278 188.9   7.2  34106  288.66 0855.16
2009/04/23 09:20:16.9      24   -142    133    145    196 170.2  47.5  34108  288.69 0855.16
2009/04/23 09:20:17.0      96   -116    186    151    239 140.4  56.9  34102  288.58 0855.16
2009/04/23 09:20:17.1      44   -250    162    254    301 170.0  35.6  34104  288.61 0855.16
2009/04/23 09:20:17.2      11   -129    138    130    189 175.1  52.0  34104  288.64 0855.16
2009/04/23 09:20:17.3     -52   -281    253    286    381 190.5  46.1  34106  288.66 0855.16
2009/04/23 09:20:17.4     -24   -258    227    260    345 185.3  45.6  34108  288.68 0855.16
2009/04/23 09:20:17.5     -40   -287    253    290    384 188.0  45.6  34104  288.64 0855.16
2009/04/23 09:20:17.6    -175   -350    131    392    414 206.6  18.6  34106  288.67 0855.16
2009/04/23 09:20:17.7     -53   -313    169    318    360 189.6  30.3  34104  288.62 0855.16
2009/04/23 09:20:17.9    -122   -236     94    266    283 207.4  19.4  34104  288.61 0855.16
2009/04/23 09:20:17.9     -59   -239    158    247    293 194.0  35.6  34106  288.66 0855.16
2009/04/23 09:20:18.0      60   -209    192    218    290 164.0  45.9  34106  288.65 0855.16
2009/04/23 09:20:18.1      17   -139    266    141    301 172.9  69.8  34106  288.66 0855.16
2009/04/23 09:20:18.2      17   -124    192    126    229 172.0  63.9  34108  288.69 0855.16
2009/04/23 09:20:18.3     -16    -23    119     29    122 214.3  86.4  34108  288.69 0855.16
2009/04/23 09:20:18.4       5   -184    156    185    241 178.2  44.8  34106  288.67 0855.16
2009/04/23 09:20:18.5      16   -213    177    214    277 175.5  43.7  34106  288.65 0855.16
2009/04/23 09:20:18.6     -51   -285    112    290    310 190.2  22.3  34106  288.65 0855.16
2009/04/23 09:20:18.7     -66   -262    100    271    288 194.3  21.0  34106  288.65 0855.16
2009/04/23 09:20:18.8     -64   -297    164    304    345 192.3  30.8  34106  288.67 0855.16
2009/04/23 09:20:18.9      19   -260     96    261    278 175.8  21.0  34108  288.70 0855.16
2009/04/23 09:20:19.0      -5   -189     63    190    201 181.6  18.4  34106  288.67 0855.16
2009/04/23 09:20:19.1      51   -214     33    221    224 166.4   8.5  34106  288.67 0855.16
2009/04/23 09:20:19.2      45   -239    132    244    277 169.3  30.8  34106  288.66 0855.16
2009/04/23 09:20:19.3      65   -178    142    190    237 159.7  40.6  34106  288.67 0855.16
2009/04/23 09:20:19.4     150   -222     84    269    282 145.9  17.4  34106  288.65 0855.16
2009/04/23 09:20:19.5      70   -244     88    254    270 164.0  19.2  34108  288.70 0855.16
2009/04/23 09:20:19.6      73   -168     40    184    189 156.6  12.4  34108  288.69 0855.16
2009/04/23 09:20:19.7      -8   -236    133    237    271 182.0  31.9  34110  288.71 0855.16
2009/04/23 09:20:19.8      58   -230    109    238    261 165.7  26.2  34108  288.70 0855.16
2009/04/23 09:20:19.9     -16   -277    198    278    341 183.4  39.0  34104  288.61 0855.16
2009/04/23 09:20:20.0       4   -304    133    305    332 179.1  25.0  34110  288.71 0855.16
2009/04/23 09:20:20.1      -6   -214    116    215    244 181.6  30.6  34094  288.46 0855.16
2009/04/23 09:20:20.2      10   -227    104    228    250 177.4  26.2  34106  288.66 0855.16
2009/04/23 09:20:20.3     -21   -277     75    278    289 184.4  15.2  34108  288.68 0855.16
2009/04/23 09:20:20.4     -55   -274     80    280    292 191.5  16.0  34106  288.65 0855.16
2009/04/23 09:20:20.5      16   -262    138    263    297 176.5  30.1  34106  288.65 0855.16
2009/04/23 09:20:20.6     -22   -207    110    209    236 186.2  29.8  34104  288.64 0855.16
2009/04/23 09:20:20.7       3   -224    127    225    258 179.1  31.9  34104  288.61 0855.16
2009/04/23 09:20:20.8      38   -179     63    184    195 168.0  18.9  34106  288.67 0855.16
2009/04/23 09:20:20.9       0   -150     53    151    160 180.4  20.0  34106  288.65 0855.16
2009/04/23 09:20:21.0       7   -151    -52    152    161 177.3 -19.1  34104  288.64 0855.16
2009/04/23 09:20:21.1      46   -115    -44    124    131 158.2 -24.4  34106  288.67 0855.16
2009/04/23 09:20:21.2      12    -40     -5     42     43 163.1  -7.3  34106  288.65 0855.16
2009/04/23 09:20:21.3     -36    -57     14     68     70 212.6  12.2  34106  288.65 0855.16
2009/04/23 09:20:21.5     -23    -68     25     73     78 199.2  19.4  34106  288.65 0855.16
2009/04/23 09:20:21.5     -19    -60     48     64     80 197.8  40.7  34104  288.64 0855.16
2009/04/23 09:20:21.6       0    -31     90     32     95 180.9  80.7  34108  288.69 0855.16
2009/04/23 09:20:21.7      -4    -49     69     50     85 185.3  61.1  34108  288.70 0855.16
2009/04/23 09:20:21.9     -21      7     59     23     63 290.0  78.2  34110  288.74 0855.16
2009/04/23 09:20:22.0      22     10     51     25     56  64.7  72.8  34112  288.77 0855.16
2009/04/23 09:20:22.1      50      7     60     51     78  81.2  54.8  34110  288.74 0855.16
2009/04/23 09:20:22.2      39    -11     65     41     76 106.8  64.7  34106  288.67 0855.16
2009/04/23 09:20:22.3     -22    -17     52     29     59 232.2  68.8  34108  288.70 0855.16
2009/04/23 09:20:22.4     -23     16     50     29     57 304.2  66.8  34110  288.74 0855.16
2009/04/23 09:20:22.5     -24     44     28     51     58 331.0  31.4  34114  288.79 0855.16
2009/04/23 09:20:22.6      -7     36     52     37     63 348.4  60.6  34114  288.80 0855.16
2009/04/23 09:20:22.7       6     20     46     22     51  18.5  72.9  34114  288.79 0855.16
2009/04/23 09:20:22.8     -19      2     33     20     38 277.9  64.7  34114  288.80 0855.15
2009/04/23 09:20:22.9      -7    -35     20     36     41 191.6  31.4  34114  288.79 0855.15
2009/04/23 09:20:23.0     -62    -34     -1     71     72 241.2  -1.2  34110  288.72 0855.15
2009/04/23 09:20:23.1     -60    -28     29     67     73 244.8  25.1  34108  288.69 0855.15
2009/04/23 09:20:23.2    -281    -18    -89    282    296 266.3 -17.5  34110  288.73 0855.15
2009/04/23 09:20:23.3    -190   -101    -36    216    220 242.0  -9.6  34114  288.80 0855.15
2009/04/23 09:20:23.4    -129    -33     38    134    140 255.4  15.8  34112  288.77 0855.15
2009/04/23 09:20:23.5     -31    -86    111     92    144 200.0  56.4  34110  288.74 0855.15
2009/04/23 09:20:23.6     -76    -15    125     78    147 258.5  64.7  34114  288.79 0855.15
2009/04/23 09:20:23.7     -61    -39    105     73    127 237.6  62.1  34112  288.77 0855.15
2009/04/23 09:20:23.8     -67    -48     46     83     94 234.1  31.9  34106  288.67 0855.15
2009/04/23 09:20:23.9     -41    -33     61     53     80 231.4  54.3  34110  288.74 0855.15
2009/04/23 09:20:24.0     -37    -59     68     70     97 212.5  50.5  34112  288.75 0855.15
2009/04/23 09:20:24.1     -42    -28     35     51     61 236.7  38.6  34112  288.75 0855.15
2009/04/23 09:20:24.2     -33    -10     59     35     68 251.8  65.7  34108  288.69 0855.15
2009/04/23 09:20:24.3    -135    -32     90    139    165 256.3  35.7  34108  288.70 0855.15
2009/04/23 09:20:24.4    -166    -37     41    171    176 257.2  13.5  34108  288.69 0855.15
2009/04/23 09:20:24.5    -176    -51      9    184    185 253.6   2.8  34112  288.77 0855.15
2009/04/23 09:20:24.6     -92    -28     82     97    127 253.2  44.8  34112  288.75 0855.15
2009/04/23 09:20:24.7      -9     -9     68     14     69 225.0  89.0  34112  288.75 0855.15
2009/04/23 09:20:24.8     -59    -16    116     62    131 255.0  69.8  34114  288.80 0855.14
2009/04/23 09:20:24.9    -201     22     80    203    218 276.4  22.8  34116  288.82 0855.14
2009/04/23 09:20:25.0    -168     81     80    187    203 295.8  24.3  34114  288.80 0855.14
2009/04/23 09:20:25.1    -135    112     92    176    198 309.8  29.8  34108  288.70 0855.14
2009/04/23 09:20:25.2    -122      3     48    123    132 271.7  22.0  34116  288.84 0855.14
2009/04/23 09:20:25.3    -106     50     72    118    138 295.4  34.4  34114  288.79 0855.14
2009/04/23 09:20:25.4    -194     48     38    200    204 283.9  10.8  34118  288.87 0855.14
2009/04/23 09:20:25.5    -205     -4     17    206    207 268.7   4.9  34120  288.89 0855.14
2009/04/23 09:20:25.6    -192    112     89    223    240 300.2  23.0  34110  288.71 0855.14
2009/04/23 09:20:25.7    -172    -14    103    173    201 265.2  33.7  34106  288.65 0855.14
2009/04/23 09:20:25.8    -174     57     90    184    204 288.2  28.0  34104  288.64 0855.14
2009/04/23 09:20:25.9    -213    -34     56    216    224 260.8  14.7  34106  288.65 0855.14
2009/04/23 09:20:26.0    -186    -13     -7    187    188 265.9  -2.2  34114  288.79 0855.14
2009/04/23 09:20:26.1     -88      6     75     89    116 274.4  44.3  34112  288.75 0855.14
2009/04/23 09:20:26.2    -125    -42    -32    132    137 251.4 -13.9  34110  288.72 0855.14
2009/04/23 09:20:26.3    -209    -40   -119    213    243 259.0 -36.3  34118  288.85 0855.14
2009/04/23 09:20:26.4     -47    -70    -39     85     93 214.3 -31.0  34116  288.82 0855.14
2009/04/23 09:20:26.5     -10    132    124    133    181 355.5  47.9  34112  288.77 0855.14
2009/04/23 09:20:26.6     -21    171    119    173    209 352.9  37.8  34114  288.79 0855.14
2009/04/23 09:20:26.7     -33     53     83     63    104 327.5  59.4  34140  289.24 0855.14
2009/04/23 09:20:26.8      82    -42    136     93    164 117.5  62.6  34118  288.87 0855.13
2009/04/23 09:20:26.9     -43   -163    131    169    213 195.1  41.7  34112  288.77 0855.13
2009/04/23 09:20:27.0      14   -103    220    105    243 172.0  72.8  34114  288.80 0855.13
2009/04/23 09:20:27.1    -104   -203    175    229    288 207.1  41.6  34114  288.78 0855.13
2009/04/23 09:20:27.2    -143   -153    144    210    254 223.0  37.8  34112  288.75 0855.13
2009/04/23 09:20:27.3     -58   -172    211    182    278 198.7  54.8  34114  288.78 0855.13
2009/04/23 09:20:27.4       0   -206    209    207    294 180.0  50.2  34114  288.80 0855.13
2009/04/23 09:20:27.5      27   -205    243    207    319 172.4  55.4  34112  288.75 0855.13
2009/04/23 09:20:27.6      29    -95    225    100    246 163.1  74.5  34112  288.77 0855.13
2009/04/23 09:20:27.7     -84   -182    181    201    270 204.9  46.9  34112  288.76 0855.13
2009/04/23 09:20:27.8     -16   -102    242    104    263 188.9  75.5  34120  288.89 0855.13
2009/04/23 09:20:27.9    -120   -120    183    171    250 225.0  52.2  34114  288.80 0855.13
2009/04/23 09:20:28.0       6   -203    253    204    325 178.2  57.0  34110  288.71 0855.13
2009/04/23 09:20:28.1     -81   -244    296    258    392 198.5  54.6  34114  288.79 0855.13
2009/04/23 09:20:28.2     -43   -323    306    326    447 187.6  48.0  34112  288.75 0855.13
2009/04/23 09:20:28.3     -57   -303    219    309    378 190.7  38.8  34114  288.79 0855.13
2009/04/23 09:20:28.4    -133   -323    184    350    395 202.4  30.1  34112  288.76 0855.13
2009/04/23 09:20:28.5     -33   -269    116    272    295 187.1  24.6  34114  288.78 0855.13
2009/04/23 09:20:28.6       9   -219     12    220    221 177.5   3.1  34112  288.75 0855.13
2009/04/23 09:20:28.7     133   -241     66    276    284 151.0  13.5  34102  288.59 0855.13
2009/04/23 09:20:28.8     151   -201    195    252    318 143.1  41.7  34116  288.83 0855.11
2009/04/23 09:20:28.9     129    -88    165    157    227 124.2  51.6  34118  288.87 0855.11
2009/04/23 09:20:29.0      44     -7    184     45    189  99.7  86.7  34134  289.14 0855.11
2009/04/23 09:20:29.1      50     36    145     63    158  54.0  75.3  34138  289.21 0855.11
2009/04/23 09:20:29.2      94     56    160    110    194  58.9  62.4  34158  289.53 0855.11
2009/04/23 09:20:29.3     114     61    153    130    200  61.6  55.4  34136  289.16 0855.11
2009/04/23 09:20:29.4     -22     40    142     46    149 331.0  80.7  34124  288.96 0855.11
2009/04/23 09:20:29.5     -69   -193    154    206    257 199.8  40.6  34120  288.90 0855.11
2009/04/23 09:20:29.6     -66    -91    112    113    159 216.0  50.0  34116  288.82 0855.11
2009/04/23 09:20:29.7    -155   -229     33    277    280 214.1   6.9  34110  288.73 0855.11
2009/04/23 09:20:29.8     -89   -223     79    241    254 201.8  18.1  34112  288.75 0855.11
2009/04/23 09:20:29.9     -85   -190     26    209    211 204.1   7.2  34110  288.72 0855.11
2009/04/23 09:20:30.0     -80    -49     38     95    102 238.5  23.0  34116  288.84 0855.11
2009/04/23 09:20:30.1     -31   -154     42    158    164 191.6  15.0  34116  288.84 0855.11
2009/04/23 09:20:30.2     -87   -178     72    199    211 206.1  20.7  34112  288.77 0855.11
2009/04/23 09:20:30.3    -159   -163     21    228    230 224.3   5.4  34112  288.75 0855.11
2009/04/23 09:20:30.4     -59   -171     58    182    192 199.2  17.7  34110  288.72 0855.11
2009/04/23 09:20:30.5      -7     36    106     37    112 348.4  81.2  34118  288.87 0855.11
2009/04/23 09:20:30.6     -26     65    102     71    124 338.2  62.6  34122  288.92 0855.11
2009/04/23 09:20:30.7      33     40    142     53    151  39.6  79.1  34120  288.91 0855.11
2009/04/23 09:20:30.8      13    -21    119     25    121 147.5  89.0  34120  288.91 0855.12
2009/04/23 09:20:30.9       1   -102    152    103    183 179.1  62.8  34116  288.84 0855.12
2009/04/23 09:20:31.0     -12   -158    187    159    245 184.5  55.4  34114  288.80 0855.12
2009/04/23 09:20:31.1       7    -34    147     35    151 168.4  86.9  34114  288.80 0855.12
2009/04/23 09:20:31.2       2     -3    116      4    116 147.5  90.0  34118  288.87 0855.12
2009/04/23 09:20:31.3     -26    -16     99     31    103 237.6  81.2  34114  288.79 0855.12
2009/04/23 09:20:31.4      36    -36    102     51    114 135.0  71.9  34114  288.79 0855.12
2009/04/23 09:20:31.5     -11     34     85     36     92 341.3  76.1  34116  288.84 0855.12
2009/04/23 09:20:31.6     -63    -38     66     74     99 238.5  46.9  34118  288.86 0855.12
2009/04/23 09:20:31.7     -40     29    -11     50     52 306.0 -12.4  34130  289.06 0855.12
2009/04/23 09:20:31.8      19     38    -12     43     45  26.3 -16.6  34132  289.09 0855.12
2009/04/23 09:20:31.9      74     29     20     80     83  68.3  14.3  34152  289.45 0855.12
2009/04/23 09:20:32.0      75     75    -23    107    110  45.0 -12.4  34152  289.45 0855.12
2009/04/23 09:20:32.1      42     61    -18     75     78  34.3 -13.4  34142  289.28 0855.12
2009/04/23 09:20:32.2      57    105    -31    120    124  28.5 -14.5  34140  289.23 0855.12
2009/04/23 09:20:32.3      -2    114    -68    115    133 358.6 -37.9  34136  289.18 0855.12
2009/04/23 09:20:32.4     -85    134    -55    160    169 327.5 -23.8  34138  289.19 0855.12
2009/04/23 09:20:32.5     -68    141     24    157    159 334.1   8.8  34120  288.91 0855.12
2009/04/23 09:20:32.6     -51    156    -56    165    175 342.0 -18.7  34130  289.08 0855.12
2009/04/23 09:20:32.7     -38    125    -91    131    159 343.1 -42.8  34132  289.09 0855.12
2009/04/23 09:20:32.8      66    112    -11    131    132  30.7  -5.1  34150  289.40 0855.13
2009/04/23 09:20:32.9      67    222     98    233    252  16.9  24.1  34124  288.97 0855.13
2009/04/23 09:20:33.0     178    230    132    291    319  37.8  26.0  34126  289.00 0855.13
2009/04/23 09:20:33.1     149    178    123    233    263  39.9  30.2  34128  289.02 0855.13
2009/04/23 09:20:33.2     160    194     67    252    261  39.6  15.0  34134  289.12 0855.13
2009/04/23 09:20:33.3      63    100     60    119    133  32.5  28.2  34126  289.01 0855.13
2009/04/23 09:20:33.4    -119    -41    -32    126    131 250.9 -14.5  34124  288.97 0855.13
2009/04/23 09:20:33.5    -130    -40     -8    137    138 252.7  -3.7  34124  288.97 0855.13
2009/04/23 09:20:33.6    -117    -39    -26    124    127 251.4 -11.9  34122  288.92 0855.13
2009/04/23 09:20:33.7     -92    -27    -22     96     99 253.6 -13.4  34122  288.92 0855.13
2009/04/23 09:20:33.8     -64    -13     20     66     70 258.5  17.3  34118  288.86 0855.13
2009/04/23 09:20:33.9     -52     49     68     72     99 313.1  48.5  34116  288.82 0855.13
2009/04/23 09:20:34.0     -48     65     55     82     98 323.5  37.0  34116  288.84 0855.13
2009/04/23 09:20:34.1     -64     51     45     82     93 308.6  30.8  34116  288.82 0855.13
2009/04/23 09:20:34.2     -59    -22     77     64    100 249.2  56.3  34116  288.82 0855.13
2009/04/23 09:20:34.3     -27     22     81     36     88 309.6  74.5  34114  288.80 0855.13
2009/04/23 09:20:34.4       7     68     65     69     94   6.2  49.0  34124  288.96 0855.13
2009/04/23 09:20:34.5     -14     42     33     45     55 341.5  39.7  34126  288.99 0855.13
2009/04/23 09:20:34.6     -47     35     27     59     64 306.9  27.1  34118  288.86 0855.13
2009/04/23 09:20:34.7     -71     98     14    122    123 323.9   6.9  34120  288.89 0855.13
2009/04/23 09:20:34.8      -7    151     -5    152    153 357.3  -2.2  34132  289.09 0855.12
2009/04/23 09:20:34.9      21     64      8     68     69  18.3   6.9  34136  289.16 0855.12
2009/04/23 09:20:35.0      88     17     49     90    102  78.5  31.3  34142  289.28 0855.12
2009/04/23 09:20:35.1      67     65     78     94    122  45.6  43.8  34136  289.18 0855.12
2009/04/23 09:20:35.2      22     40     89     46    100  29.0  70.8  34132  289.11 0855.12
2009/04/23 09:20:35.3       6     42     55     43     69   8.9  57.5  34128  289.04 0855.12
2009/04/23 09:20:35.4     -59     38     14     71     73 302.5  11.1  34132  289.09 0855.12
2009/04/23 09:20:35.5    -112    -76    -27    136    139 235.8 -11.3  34122  288.94 0855.12
2009/04/23 09:20:35.6     -26    -87    -67     91    113 196.9 -44.5  34114  288.80 0855.12
2009/04/23 09:20:35.7     -80     -7    -17     81     83 264.8 -11.9  34114  288.79 0855.12
2009/04/23 09:20:35.8     -48     -7    -16     49     51 261.2 -23.8  34110  288.72 0855.12
2009/04/23 09:20:35.9     -64      1     33     65     72 270.9  28.2  34112  288.75 0855.12
2009/04/23 09:20:36.0     -70     -5      3     71     72 265.7   2.8  34112  288.77 0855.12
2009/04/23 09:20:36.1     -49      0    -15     50     53 270.0 -16.6  34112  288.75 0855.12
2009/04/23 09:20:36.2     -43      6    -13     44     46 277.9 -16.6  34110  288.72 0855.12
2009/04/23 09:20:36.3     -35      2     -1     36     37 274.4  -2.2  34112  288.77 0855.12
2009/04/23 09:20:36.4     -45      0      8     46     47 270.0  10.1  34110  288.74 0855.12
2009/04/23 09:20:36.5     -40     16     27     44     51 291.7  35.5  34114  288.79 0855.12
2009/04/23 09:20:36.6     -39     22     49     46     67 299.8  52.1  34120  288.91 0855.12
2009/04/23 09:20:36.7     -48     23      2     54     55 295.3   2.8  34116  288.84 0855.12
2009/04/23 09:20:36.8    -100     -8     52    101    113 265.2  28.7  34126  288.99 0855.11
2009/04/23 09:20:36.9    -114    -12     60    115    129 263.9  29.3  34122  288.92 0855.11
2009/04/23 09:20:37.0    -150    -41     48    156    164 254.5  17.1  34126  288.99 0855.11
2009/04/23 09:20:37.1    -129    -71     60    148    159 241.1  23.4  34122  288.94 0855.11
2009/04/23 09:20:37.2    -129    -46     43    138    145 250.1  17.3  34124  288.97 0855.11
2009/04/23 09:20:37.3    -112    -37     40    119    126 251.6  18.9  34126  288.99 0855.11
2009/04/23 09:20:37.4     -90    -43     16    100    102 244.2   9.5  34128  289.02 0855.11
2009/04/23 09:20:37.5     -57    -21     27     61     66 249.2  25.1  34134  289.14 0855.11
2009/04/23 09:20:37.6     -33      0     24     34     41 270.0  39.7  34142  289.28 0855.11
2009/04/23 09:20:37.7     -20      4     20     21     29 281.5  52.0  34142  289.26 0855.11
2009/04/23 09:20:37.8     -21     -7      3     23     24 251.8   9.0  34140  289.23 0855.11
2009/04/23 09:20:37.9     -14      6     -3     16     17 295.3 -11.3  34142  289.28 0855.11
2009/04/23 09:20:38.0     -28     16    -16     33     36 300.7 -31.6  34148  289.38 0855.11
2009/04/23 09:20:38.1       5     72     -9     73     74   4.5  -7.2  34160  289.57 0855.11
2009/04/23 09:20:38.2      15     58     15     61     63  15.1  14.3  34164  289.63 0855.11
2009/04/23 09:20:38.3      22     41     31     47     56  28.1  35.6  34156  289.52 0855.11
2009/04/23 09:20:38.4      25     25     37     36     51  45.0  50.1  34148  289.38 0855.11
2009/04/23 09:20:38.5     -36    -36     -5     52     53 225.1  -6.2  34138  289.19 0855.11
2009/04/23 09:20:38.6     -79    -18      5     82     83 256.7   3.8  34162  289.60 0855.11
2009/04/23 09:20:38.7     -91    -31     36     97    103 250.9  21.0  34172  289.77 0855.11
2009/04/23 09:20:38.8    -135    -86     64    161    173 237.6  22.5  34158  289.53 0855.11
2009/04/23 09:20:38.9    -172    -97     31    198    201 240.5   8.9  34136  289.16 0855.11
2009/04/23 09:20:39.0    -121   -137     51    183    191 221.4  15.8  34134  289.13 0855.11
2009/04/23 09:20:39.1    -124   -164      2    206    207 217.2   0.7  34130  289.06 0855.11
2009/04/23 09:20:39.2    -155   -143     -8    211    212 227.3  -2.2  34158  289.53 0855.11
2009/04/23 09:20:39.3    -147   -153     37    213    217 223.7   9.9  34188  290.04 0855.11
2009/04/23 09:20:39.4    -125   -138     37    187    191 222.1  11.4  34186  290.01 0855.11
2009/04/23 09:20:39.5     -94   -146    -14    174    175 212.7  -4.9  34124  288.96 0855.11
2009/04/23 09:20:39.6    -114    -93    -13    148    149 230.9  -5.2  34182  289.96 0855.11
2009/04/23 09:20:39.7    -149   -105      5    183    184 234.9   1.8  34168  289.70 0855.11
2009/04/23 09:20:39.8     -63    -99     -1    118    119 212.5  -0.7  34164  289.63 0855.10
2009/04/23 09:20:39.9      54    -46     52     72     88 130.4  39.7  34150  289.41 0855.10
2009/04/23 09:20:40.0     127    -34    121    132    179 105.1  47.7  34132  289.09 0855.10
2009/04/23 09:20:40.1      96    -90    147    132    197 133.1  53.5  34118  288.86 0855.10
2009/04/23 09:20:40.2       9   -137    160    138    211 176.0  54.8  34122  288.94 0855.10
2009/04/23 09:20:40.3      -7   -154    195    155    249 182.7  57.5  34140  289.23 0855.10
2009/04/23 09:20:40.4      22   -201     77    203    217 173.7  22.0  34136  289.18 0855.10
2009/04/23 09:20:40.5     -37   -198    120    202    234 190.7  33.5  34146  289.33 0855.10
2009/04/23 09:20:40.6      -6   -198     98    199    221 181.8  28.0  34150  289.41 0855.10
2009/04/23 09:20:40.7     -86   -262    156    276    317 198.3  32.0  34142  289.25 0855.10
2009/04/23 09:20:40.8     -97   -251    133    270    300 201.2  28.2  34130  289.05 0855.10
2009/04/23 09:20:40.9    -109   -271     40    293    296 201.9   7.8  34122  288.93 0855.10
2009/04/23 09:20:41.0    -134   -173     69    219    230 217.8  17.7  34140  289.23 0855.10
2009/04/23 09:20:41.1    -156   -147    108    215    240 226.7  28.5  34130  289.08 0855.10
2009/04/23 09:20:41.2    -160   -154     89    223    240 226.0  23.0  34124  288.95 0855.10
2009/04/23 09:20:41.3     -59   -125     98    139    170 205.3  38.6  34102  288.58 0855.10
2009/04/23 09:20:41.4     -30    -78    132     84    156 201.4  64.7  34106  288.65 0855.10
2009/04/23 09:20:41.5       9     -5     94     11     94 122.4  90.0  34110  288.74 0855.10
2009/04/23 09:20:41.6      25    -25    108     36    113 134.9  81.0  34110  288.72 0855.10
2009/04/23 09:20:41.7     -76    -73    102    106    147 226.0  49.0  34112  288.75 0855.10
2009/04/23 09:20:41.8     -25    -84     68     88    111 196.5  42.2  34114  288.79 0855.10
2009/04/23 09:20:41.9    -121    -92     25    153    156 232.7   9.5  34116  288.84 0855.10
2009/04/23 09:20:42.0    -157   -155    -34    221    224 225.3  -8.8  34128  289.04 0855.10
2009/04/23 09:20:42.1    -243   -318     -9    401    402 217.4  -1.4  34112  288.77 0855.10
2009/04/23 09:20:42.2    -190   -330    -29    381    382 209.9  -4.4  34112  288.77 0855.10
2009/04/23 09:20:42.3    -155   -292      5    331    332 208.0   1.0  34110  288.71 0855.10
2009/04/23 09:20:42.4     -49   -161    125    169    210 196.9  40.1  34112  288.77 0855.10
2009/04/23 09:20:42.5     -70   -177    161    191    249 201.8  44.5  34106  288.65 0855.10
2009/04/23 09:20:42.6    -136   -219     72    259    269 211.9  15.6  34102  288.58 0855.10
2009/04/23 09:20:42.7    -116   -222    109    251    273 207.6  25.1  34104  288.61 0855.10
2009/04/23 09:20:42.8    -119   -230    137    260    293 207.4  30.1  34102  288.58 0855.10
2009/04/23 09:20:42.9    -144   -232     87    274    288 211.9  17.7  34106  288.66 0855.10
2009/04/23 09:20:43.0    -146   -166     18    222    223 221.4   4.9  34110  288.72 0855.10
2009/04/23 09:20:43.1    -174   -175     25    248    250 224.8   5.9  34112  288.75 0855.10
2009/04/23 09:20:43.2    -209   -265     75    338    347 218.3  12.6  34110  288.74 0855.10
2009/04/23 09:20:43.3    -219   -302     37    374    376 216.0   5.7  34108  288.69 0855.10
2009/04/23 09:20:43.4    -235   -303     -3    384    385 217.9  -0.5  34100  288.55 0855.10
2009/04/23 09:20:43.5    -208   -266     17    338    339 218.0   2.9  34094  288.45 0855.10
2009/04/23 09:20:43.6    -199   -205    -58    286    293 224.1 -11.6  34104  288.63 0855.10
2009/04/23 09:20:43.7    -102   -256     64    276    284 201.9  13.1  34104  288.61 0855.10
2009/04/23 09:20:43.8    -214   -202    -27    295    297 226.7  -5.4  34102  288.59 0855.11
2009/04/23 09:20:43.9    -122   -207    -86    241    257 210.7 -19.7  34118  288.85 0855.11
2009/04/23 09:20:44.0    -183   -237    -81    300    311 217.8 -15.2  34118  288.85 0855.11
2009/04/23 09:20:44.1    -173   -196     17    262    263 221.5   3.8  34104  288.61 0855.11
2009/04/23 09:20:44.2    -140   -132     68    193    205 226.8  19.4  34104  288.64 0855.11
2009/04/23 09:20:44.3    -163   -154     57    225    233 226.8  14.3  34108  288.69 0855.11
2009/04/23 09:20:44.4    -185   -150     55    239    246 230.9  13.1  34112  288.76 0855.11
2009/04/23 09:20:44.5    -197   -124     28    233    235 237.8   6.9  34108  288.70 0855.11
2009/04/23 09:20:44.6    -175    -71    -74    189    202 247.8 -26.7  34110  288.72 0855.11
2009/04/23 09:20:44.7     -47   -200    -35    206    210 193.4  -9.8  34116  288.82 0855.11
2009/04/23 09:20:44.8     -72   -192     53    206    213 200.7  14.7  34110  288.72 0855.11
2009/04/23 09:20:44.9     -71   -131     23    150    152 208.5   8.9  34118  288.86 0855.11
2009/04/23 09:20:45.0    -136   -133      9    191    192 225.8   2.9  34104  288.62 0855.11
2009/04/23 09:20:45.1    -143    -91    -42    170    176 237.6 -13.9  34110  288.74 0855.11
2009/04/23 09:20:45.2    -110   -187    -11    218    219 210.5  -3.1  34104  288.62 0855.11
2009/04/23 09:20:45.3    -136   -214     11    254    255 212.5   2.5  34096  288.48 0855.11
2009/04/23 09:20:45.4    -106   -226     34    250    253 205.2   7.8  34096  288.49 0855.11
2009/04/23 09:20:45.5    -127   -244     28    276    278 207.6   5.9  34102  288.58 0855.11
2009/04/23 09:20:45.6    -133   -279     55    310    315 205.5  10.1  34100  288.54 0855.11
2009/04/23 09:20:45.7    -156   -201     33    255    258 217.8   7.5  34108  288.70 0855.11
2009/04/23 09:20:45.8    -148   -203    -18    252    253 216.1  -4.1  34108  288.68 0855.11
2009/04/23 09:20:45.9    -131   -192     23    233    235 214.3   5.7  34108  288.70 0855.11
2009/04/23 09:20:46.0    -156   -221     53    271    277 215.2  11.1  34106  288.66 0855.11
2009/04/23 09:20:46.1     -84   -162     72    183    196 207.6  22.8  34106  288.65 0855.11
2009/04/23 09:20:46.2    -192    -24     60    194    204 262.8  17.3  34102  288.60 0855.11
2009/04/23 09:20:46.3    -193   -230     -5    301    302 219.9  -1.1  34098  288.53 0855.11
2009/04/23 09:20:46.4    -310   -328    -80    452    460 223.3 -10.1  34094  288.46 0855.11
2009/04/23 09:20:46.5    -250   -218    -29    332    334 228.9  -5.1  34096  288.49 0855.11
2009/04/23 09:20:46.6    -197   -209     -1    288    289 223.2  -0.3  34096  288.48 0855.11
2009/04/23 09:20:46.7    -195   -146    -74    244    254 233.1 -21.7  34088  288.36 0855.11
2009/04/23 09:20:46.8    -153   -277     -7    317    318 208.9  -1.4  34090  288.37 0855.11
2009/04/23 09:20:46.9    -124   -268     28    296    298 204.9   5.4  34090  288.39 0855.11
2009/04/23 09:20:47.0    -117   -225      7    254    255 207.6   1.8  34092  288.43 0855.11
2009/04/23 09:20:47.1    -112   -282     37    304    307 201.8   7.1  34094  288.44 0855.11
2009/04/23 09:20:47.3    -133   -198     -9    239    240 213.8  -2.2  34094  288.44 0855.11
2009/04/23 09:20:47.4     -77   -239     -9    252    253 197.8  -2.2  34094  288.44 0855.11
2009/04/23 09:20:47.4    -148   -255    -37    295    298 210.1  -7.3  34092  288.41 0855.11
2009/04/23 09:20:47.6    -213   -245    -72    326    334 221.0 -12.5  34096  288.49 0855.11
2009/04/23 09:20:47.7    -291   -180    -80    343    353 238.2 -13.2  34094  288.44 0855.11
2009/04/23 09:20:47.8    -252   -250     45    356    359 225.2   7.2  34090  288.38 0855.11
2009/04/23 09:20:47.9    -241   -260     94    355    368 222.8  14.9  34090  288.38 0855.13
2009/04/23 09:20:48.0    -163   -248     95    298    313 213.4  17.7  34090  288.39 0855.13
2009/04/23 09:20:48.1    -138   -216    105    257    277 212.5  23.4  34092  288.43 0855.13
2009/04/23 09:20:48.2     -84   -155    124    177    216 208.5  38.8  34104  288.62 0855.13
2009/04/23 09:20:48.3    -137   -189    103    234    255 216.0  25.2  34100  288.54 0855.13
2009/04/23 09:20:48.4    -133   -188     41    231    235 215.2  10.1  34096  288.49 0855.13
2009/04/23 09:20:48.5     -64   -109    100    127    161 210.3  42.2  34104  288.64 0855.13
2009/04/23 09:20:48.6     -64    -84    128    106    166 217.4  56.3  34108  288.70 0855.13
2009/04/23 09:20:48.7     -54   -101    108    115    157 208.5  48.2  34126  289.01 0855.13
2009/04/23 09:20:48.8     -63    -87     84    108    136 216.1  41.7  34116  288.84 0855.13
2009/04/23 09:20:48.9      16      0     85     17     86  90.0  89.0  34124  288.97 0855.13
2009/04/23 09:20:49.0     -13    -22     69     26     73 210.7  80.2  34114  288.80 0855.13
2009/04/23 09:20:49.1     -30    -37     59     48     76 218.7  56.4  34120  288.91 0855.13
2009/04/23 09:20:49.2     -15    -77     75     79    108 191.6  48.5  34120  288.89 0855.13
2009/04/23 09:20:49.3     -45    -73     57     86    103 211.6  36.5  34116  288.82 0855.13
2009/04/23 09:20:49.4       0    -54     40     55     68 180.9  39.7  34106  288.65 0855.13
2009/04/23 09:20:49.5     -10    -16      9     19     21 212.5  27.2  34104  288.64 0855.13
2009/04/23 09:20:49.6      -6     18     13     20     23 340.0  35.5  34108  288.69 0855.13
2009/04/23 09:20:49.7     -59     20     39     63     74 288.6  35.5  34110  288.72 0855.13
2009/04/23 09:20:49.8     -71      6     53     72     89 275.2  40.1  34108  288.69 0855.13
2009/04/23 09:20:49.9     -59     56     28     82     87 313.6  19.4  34108  288.69 0855.14
2009/04/23 09:20:50.0     -58     58     32     83     88 315.0  21.5  34108  288.70 0855.14
2009/04/23 09:20:50.1     -38     46     24     60     64 320.4  23.0  34104  288.62 0855.14
2009/04/23 09:20:50.2     -27     72     -3     78     79 339.1  -2.6  34106  288.67 0855.14
2009/04/23 09:20:50.3     -51     68    -25     86     89 323.0 -21.2  34108  288.69 0855.14
2009/04/23 09:20:50.4     -42     72    -17     84     86 329.7 -11.9  34108  288.70 0855.14
2009/04/23 09:20:50.5     -24     50     21     56     59 333.7  21.0  34108  288.69 0855.14
2009/04/23 09:20:50.6     -12     11     43     17     46 313.1  78.2  34116  288.82 0855.14
2009/04/23 09:20:50.7      -8     15     51     18     54 331.0  81.2  34116  288.84 0855.14
2009/04/23 09:20:50.8       0     -7     41      8     41 175.5  90.0  34114  288.79 0855.14
2009/04/23 09:20:50.9       3    -38     57     39     69 175.5  62.6  34108  288.69 0855.14
2009/04/23 09:20:51.0       0    -56     62     57     84 179.1  52.2  34110  288.74 0855.14
2009/04/23 09:20:51.1       0    -52     82     53     97 180.9  64.6  34122  288.94 0855.14
2009/04/23 09:20:51.2       0    -33     62     34     70 180.9  68.8  34122  288.92 0855.14
2009/04/23 09:20:51.3       7      7     42     11     43  45.0  84.9  34120  288.89 0855.14
2009/04/23 09:20:51.4       6     14     49     16     51  25.4  80.7  34116  288.82 0855.14
2009/04/23 09:20:51.5       2      8     38      9     39  18.3  86.9  34112  288.77 0855.14
2009/04/23 09:20:51.6      -1     13     19     14     23 355.5  58.5  34112  288.77 0855.14
2009/04/23 09:20:51.7     -12      8     15     15     21 302.5  50.1  34112  288.77 0855.14
2009/04/23 09:20:51.8     -12      4     21     13     24 288.2  64.7  34112  288.77 0855.14
2009/04/23 09:20:51.9     -18     61     34     64     72 343.1  30.3  34116  288.84 0855.13
2009/04/23 09:20:52.0     -19     58    107     62    123 341.7  66.8  34146  289.33 0855.13
2009/04/23 09:20:52.1      37      7     89     38     96  78.6  76.1  34132  289.11 0855.13
2009/04/23 09:20:52.2      36      6     83     37     90  80.3  74.0  34120  288.89 0855.13
2009/04/23 09:20:52.3      30    -14     63     34     71 115.2  68.9  34120  288.89 0855.13
2009/04/23 09:20:52.4      68    -27     49     74     88 111.7  36.5  34124  288.97 0855.13
2009/04/23 09:20:52.5      73     17     43     76     87  76.7  32.4  34118  288.86 0855.13
2009/04/23 09:20:52.6      43     16     29     47     55  69.2  35.5  34118  288.87 0855.13
2009/04/23 09:20:52.7       2      9     48     10     49  15.1  89.0  34126  289.01 0855.13
2009/04/23 09:20:52.8     -43     67     84     80    116 327.4  51.2  34158  289.55 0855.13
2009/04/23 09:20:52.9     -56     46    101     73    124 309.6  60.6  34170  289.75 0855.13
2009/04/23 09:20:53.0     -35     64     77     74    106 331.0  51.2  34168  289.72 0855.13
2009/04/23 09:20:53.1     -95     10     36     96    102 276.1  21.5  34166  289.67 0855.13
2009/04/23 09:20:53.2    -121     15     42    123    131 277.5  18.9  34158  289.53 0855.13
2009/04/23 09:20:53.3    -134     -4      6    135    136 267.9   2.9  34172  289.77 0855.13
2009/04/23 09:20:53.4     -93     29     17     98    100 287.3  10.1  34166  289.69 0855.13
2009/04/23 09:20:53.5    -120     51     42    131    138 293.1  17.9  34166  289.67 0855.13
2009/04/23 09:20:53.6     -95     95     21    135    137 315.0   9.0  34164  289.63 0855.13
2009/04/23 09:20:53.7    -166    126    -63    209    218 307.1 -21.7  34158  289.53 0855.13
2009/04/23 09:20:53.8    -128    160    -57    206    213 321.3 -20.2  34146  289.33 0855.13
2009/04/23 09:20:53.9    -160    -27   -110    163    196 260.3 -42.0  34116  288.84 0855.13
2009/04/23 09:20:54.0     -99    -51    -37    112    117 242.9 -23.8  34116  288.84 0855.13
2009/04/23 09:20:54.1     -51     27    -30     58     65 298.0 -34.7  34108  288.70 0855.13
2009/04/23 09:20:54.2       4     45     -7     46     47   6.2  -9.3  34100  288.55 0855.13
2009/04/23 09:20:54.3     -18     39     22     44     49 334.6  27.3  34102  288.60 0855.13
2009/04/23 09:20:54.4     -21      7      3     23     24 288.2   9.0  34112  288.75 0855.13
2009/04/23 09:20:54.5     -19      3      0     20     21 281.5  -2.2  34122  288.92 0855.13
2009/04/23 09:20:54.6       8     -6     -4     11     11 129.5 -23.6  34124  288.97 0855.13
2009/04/23 09:20:54.7      10    -18     -8     21     22 151.0 -25.4  34128  289.02 0855.13
2009/04/23 09:20:54.8     -82    -56     -7    100    101 235.8  -4.1  34134  289.14 0855.13
2009/04/23 09:20:54.9    -115    -35    -41    121    128 253.1 -18.7  34132  289.09 0855.13
2009/04/23 09:20:55.0    -155    -16      0    156    157 263.9  -0.3  34118  288.87 0855.13
2009/04/23 09:20:55.1    -136     53    -53    146    155 291.3 -24.4  34104  288.62 0855.13
2009/04/23 09:20:55.2    -216     57    -63    224    233 285.0 -15.8  34128  289.02 0855.13
2009/04/23 09:20:55.3    -244    -89    -18    260    261 250.0  -4.1  34124  288.95 0855.13
2009/04/23 09:20:55.4    -315   -125    -68    340    347 248.3 -11.3  34140  289.23 0855.13
2009/04/23 09:20:55.5    -291    -34    -70    294    303 263.2 -13.4  34112  288.75 0855.13
2009/04/23 09:20:55.6    -239   -204     56    315    321 229.6  10.1  34112  288.75 0855.13
2009/04/23 09:20:55.7    -209   -245     24    323    324 220.5   4.4  34104  288.63 0855.13
2009/04/23 09:20:55.8    -251   -125     97    281    298 243.4  19.2  34088  288.34 0855.13
2009/04/23 09:20:55.9    -300   -102     -7    318    319 251.2  -1.3  34098  288.51 0855.13
2009/04/23 09:20:56.0    -248     45     -3    253    254 280.4  -0.7  34104  288.63 0855.13
2009/04/23 09:20:56.1    -240    -40     26    244    246 260.4   6.1  34100  288.54 0855.13
2009/04/23 09:20:56.2    -245    -59    -34    253    256 256.3  -7.7  34126  289.00 0855.13
2009/04/23 09:20:56.3    -120   -138     56    183    192 221.0  17.1  34120  288.91 0855.13
2009/04/23 09:20:56.4    -155   -117     48    195    201 232.9  13.9  34126  289.01 0855.13
2009/04/23 09:20:56.5    -263   -125    -37    292    295 244.6  -7.3  34130  289.07 0855.13
2009/04/23 09:20:56.6    -376     40    -21    379    380 276.1  -3.2  34118  288.86 0855.13
2009/04/23 09:20:56.7    -317     16     64    318    325 273.0  11.5  34112  288.76 0855.13
2009/04/23 09:20:56.8    -264    -59     93    271    287 257.2  18.9  34130  289.07 0855.13
2009/04/23 09:20:56.9    -234    -78     86    247    262 251.6  19.2  34132  289.09 0855.13
2009/04/23 09:20:57.0    -230    -87    -13    247    248 249.2  -3.1  34132  289.09 0855.13
2009/04/23 09:20:57.1     -73   -176     70    191    203 202.7  20.9  34122  288.94 0855.13
2009/04/23 09:20:57.2    -145   -170    -26    224    226 220.5  -6.7  34128  289.04 0855.13
2009/04/23 09:20:57.3    -151   -222     25    269    271 214.2   5.4  34118  288.85 0855.13
2009/04/23 09:20:57.4    -124   -226     90    258    274 208.7  19.2  34108  288.70 0855.13
2009/04/23 09:20:57.5    -150   -227    111    273    294 213.4  23.1  34116  288.81 0855.13
2009/04/23 09:20:57.6    -132   -195     86    236    251 214.2  20.7  34112  288.75 0855.13
2009/04/23 09:20:57.7    -186   -127     88    226    242 235.8  22.3  34116  288.81 0855.13
2009/04/23 09:20:57.8    -136   -155     89    207    225 221.2  25.1  34112  288.75 0855.13
2009/04/23 09:20:57.9    -145   -142     70    203    216 225.6  19.2  34120  288.91 0855.13
2009/04/23 09:20:58.0    -165   -112    -24    200    202 235.6  -6.9  34140  289.24 0855.13
2009/04/23 09:20:58.1    -114   -139      0    180    181 219.4   0.2  34134  289.14 0855.13
2009/04/23 09:20:58.2     -93   -113      0    147    148 219.6  -0.3  34128  289.02 0855.13
2009/04/23 09:20:58.3    -113   -202     21    232    233 209.2   5.2  34108  288.68 0855.13
2009/04/23 09:20:58.4    -132   -202      5    242    243 213.2   1.2  34102  288.58 0855.13
2009/04/23 09:20:58.5     -93   -196      8    218    219 205.4   2.3  34090  288.40 0855.13
2009/04/23 09:20:58.6     -56   -179     54    188    196 197.6  16.0  34098  288.52 0855.13
2009/04/23 09:20:58.7     -85   -232     75    248    260 200.1  16.8  34096  288.49 0855.13
2009/04/23 09:20:58.8     -75   -243     51    255    261 197.2  11.4  34100  288.56 0855.13
2009/04/23 09:20:58.9     -76   -267     54    278    284 196.0  11.0  34100  288.56 0855.14
2009/04/23 09:20:59.0     -70   -297     39    306    309 193.4   7.4  34104  288.63 0855.14
2009/04/23 09:20:59.1    -101   -313     30    329    331 197.9   5.3  34096  288.50 0855.14
2009/04/23 09:20:59.2    -103   -290     -9    308    309 199.6  -1.8  34098  288.53 0855.14
2009/04/23 09:20:59.3     -41   -291    -79    294    305 188.1 -15.2  34100  288.54 0855.14
2009/04/23 09:20:59.4     -31   -289    -75    291    301 186.2 -14.5  34096  288.49 0855.14
2009/04/23 09:20:59.5      82   -270   -143    283    317 163.1 -33.3  34098  288.53 0855.14
2009/04/23 09:20:59.6     103   -246    -85    267    280 157.3 -22.8  34100  288.54 0855.14
2009/04/23 09:20:59.7     125   -225    -91    258    274 151.0 -19.6  34096  288.48 0855.14
2009/04/23 09:20:59.8     140   -193     -2    239    240 144.0  -0.7  34094  288.46 0855.14
2009/04/23 09:20:59.9     149   -160     -2    219    220 137.0  -0.7  34098  288.53 0855.14
2009/04/23 09:21:00.0     199   -126     55    236    243 122.4  13.2  34096  288.49 0855.14
2009/04/23 09:21:00.1     193    -84     59    211    220 113.6  15.6  34094  288.47 0855.14
2009/04/23 09:21:00.2     170    -83     70    190    202 116.2  21.0  34096  288.48 0855.14
2009/04/23 09:21:00.3     170    -84     45    190    196 116.4  13.5  34096  288.48 0855.14
2009/04/23 09:21:00.4     185    -92     48    207    213 116.6  13.2  34096  288.50 0855.14
2009/04/23 09:21:00.5     170   -112     37    204    208 123.5  10.3  34092  288.43 0855.14
2009/04/23 09:21:00.6     147   -126     63    194    205 130.7  18.1  34092  288.43 0855.14
2009/04/23 09:21:00.7     101   -127     84    163    183 141.5  29.5  34092  288.42 0855.14
2009/04/23 09:21:00.8      85   -110     60    140    152 142.2  24.6  34088  288.36 0855.14
2009/04/23 09:21:00.9      77   -159     51    177    185 154.1  16.3  34090  288.38 0855.15
2009/04/23 09:21:01.0      41   -123     45    130    138 161.3  19.4  34090  288.38 0855.15
2009/04/23 09:21:01.1      54    -80     53     97    110 145.7  31.3  34090  288.38 0855.15
2009/04/23 09:21:01.2      53    -56     46     78     90 136.8  33.5  34090  288.40 0855.15
2009/04/23 09:21:01.3      53    -33     55     63     83 122.4  46.4  34090  288.40 0855.15
2009/04/23 09:21:01.4      16     -7     57     18     59 115.3  81.8  34094  288.45 0855.15
2009/04/23 09:21:01.5     -50     -7     51     51     72 261.2  50.1  34096  288.50 0855.15
2009/04/23 09:21:01.6     -35     68     59     77     97 332.8  41.7  34096  288.48 0855.15
2009/04/23 09:21:01.7     -10     73     98     74    122 352.0  59.0  34096  288.48 0855.15
2009/04/23 09:21:01.8     -33    -12    104     36    110 250.0  81.2  34096  288.48 0855.15
2009/04/23 09:21:01.9      -7     38    137     39    142 348.4  83.9  34096  288.50 0855.15
2009/04/23 09:21:02.0      79     31    159     86    180  68.3  69.3  34100  288.55 0855.15
2009/04/23 09:21:02.1      85     17    144     87    168  78.5  66.0  34100  288.55 0855.15
2009/04/23 09:21:02.2      66     12     91     68    113  79.4  60.0  34104  288.64 0855.15
2009/04/23 09:21:02.3      -2      9     78     10     78 344.9  90.0  34106  288.65 0855.15
2009/04/23 09:21:02.4      -2    -79     93     80    122 181.8  54.3  34102  288.60 0855.15
2009/04/23 09:21:02.5     -85   -100    101    132    166 220.5  41.2  34096  288.50 0855.15
2009/04/23 09:21:02.6     -93    -68    116    116    164 234.1  50.1  34100  288.55 0855.15
2009/04/23 09:21:02.7      42   -125    102    133    167 161.3  41.7  34096  288.48 0855.15
2009/04/23 09:21:02.8       5   -109     70    110    130 177.3  35.5  34094  288.47 0855.15
2009/04/23 09:21:02.9     -25    -98     49    102    113 194.7  27.2  34092  288.43 0855.15
2009/04/23 09:21:03.0     -35    -89     -4     96     97 201.4  -2.6  34092  288.42 0855.15
2009/04/23 09:21:03.1     -32    -49     12     59     61 213.4  12.2  34092  288.43 0855.15
2009/04/23 09:21:03.2     -33    -63    -13     72     74 208.1 -10.3  34092  288.42 0855.15
2009/04/23 09:21:03.3     -23    -78     38     82     90 196.9  27.1  34092  288.43 0855.15
2009/04/23 09:21:03.4     -12    -58     -5     60     61 191.6  -5.2  34094  288.47 0855.15
2009/04/23 09:21:03.5     -19     -6      8     20     21 251.8  23.0  34096  288.48 0855.15
2009/04/23 09:21:03.6       0    -10     -5     11     12 175.5 -31.6  34098  288.53 0855.15
2009/04/23 09:21:03.7      12     -6     -7     14     15 118.9 -31.6  34098  288.52 0855.15
2009/04/23 09:21:03.8      61    -12     -8     63     64 101.5  -7.3  34094  288.45 0855.15
2009/04/23 09:21:03.9      26    -16      7     31     32 122.4  13.2  34094  288.45 0855.15
2009/04/23 09:21:04.0     -33      2     14     34     36 274.4  23.0  34092  288.43 0855.15
2009/04/23 09:21:04.1     -48     31    -22     58     62 302.4 -26.4  34096  288.48 0855.15
2009/04/23 09:21:04.2     -65     21    -22     69     72 288.2 -23.8  34096  288.48 0855.15
2009/04/23 09:21:04.3     -89     -6    -38     90     97 265.7 -28.5  34094  288.45 0855.15
2009/04/23 09:21:04.4     -73    -24    -15     78     80 251.4 -11.3  34090  288.38 0855.15
2009/04/23 09:21:04.5    -127    -21     61    129    142 260.3  27.1  34096  288.50 0855.15
2009/04/23 09:21:04.6     -79    -23     53     83     98 253.6  35.6  34096  288.50 0855.15
2009/04/23 09:21:04.7     -62    -39     50     74     89 237.6  37.0  34102  288.58 0855.15
2009/04/23 09:21:04.8      68    -49     32     84     89 125.9  21.5  34098  288.53 0855.15
2009/04/23 09:21:04.9      93    -99     55    136    146 136.8  23.0  34092  288.43 0855.17
2009/04/23 09:21:05.0      81   -128     59    152    163 147.4  22.0  34094  288.45 0855.17
2009/04/23 09:21:05.1      53   -116     57    128    140 155.1  25.2  34092  288.43 0855.17
2009/04/23 09:21:05.2       1   -114     65    115    132 179.1  31.9  34092  288.43 0855.17
2009/04/23 09:21:05.3      15    -73     71     75    103 168.4  48.5  34096  288.48 0855.17
2009/04/23 09:21:05.4       6    -70    102     71    124 174.7  62.6  34096  288.48 0855.17
2009/04/23 09:21:05.5      27      7     86     29     90  74.9  81.0  34100  288.55 0855.17
2009/04/23 09:21:05.6      75     15     89     77    117  78.6  54.3  34094  288.47 0855.17
2009/04/23 09:21:05.7      21     85     95     88    129  14.3  52.2  34096  288.50 0855.17
2009/04/23 09:21:05.8      -1     85     67     86    109 359.1  42.2  34098  288.52 0855.17
2009/04/23 09:21:05.9      49     20     90     54    104  67.4  65.7  34100  288.55 0855.17
2009/04/23 09:21:06.0      17     26     55     32     63  32.6  67.7  34096  288.48 0855.17
2009/04/23 09:21:06.1      80      6     41     81     90  85.6  28.7  34096  288.50 0855.17
2009/04/23 09:21:06.2      55    -64     53     85    100 139.0  35.5  34098  288.52 0855.17
2009/04/23 09:21:06.3     -10    -92     49     93    105 186.2  30.3  34098  288.53 0855.17
2009/04/23 09:21:06.4     -30    -93     41     98    106 198.3  23.6  34098  288.52 0855.17
2009/04/23 09:21:06.5     -36   -111     83    117    143 198.3  39.1  34096  288.48 0855.17
2009/04/23 09:21:06.6     -63   -125     83    141    163 206.7  33.5  34098  288.53 0855.17
2009/04/23 09:21:06.7     -80    -73      5    109    110 227.3   2.8  34100  288.55 0855.17
2009/04/23 09:21:06.8     -84    -28     -3     89     90 251.4  -2.2  34104  288.64 0855.17
2009/04/23 09:21:06.9    -207     28    -24    209    211 277.9  -6.7  34112  288.77 0855.17
2009/04/23 09:21:07.0    -165     62    -20    177    179 290.6  -6.7  34110  288.74 0855.17
2009/04/23 09:21:07.1    -191     74    -33    205    208 291.3  -9.3  34122  288.94 0855.17
2009/04/23 09:21:07.2    -150    103      2    183    184 304.6   0.8  34110  288.74 0855.17
2009/04/23 09:21:07.3     -81    111     48    138    147 323.9  19.4  34106  288.65 0855.17
2009/04/23 09:21:07.4     -46     77     34     90     96 329.3  21.0  34106  288.67 0855.17
2009/04/23 09:21:07.5     -55     69     10     89     90 321.7   6.9  34106  288.65 0855.17
2009/04/23 09:21:07.6     -72     12     -9     74     75 279.7  -7.3  34102  288.58 0855.17
2009/04/23 09:21:07.7     -40   -121     -8    128    129 198.3  -3.7  34098  288.52 0855.17
2009/04/23 09:21:07.8     -32    -59     32     68     75 209.0  27.2  34096  288.48 0855.17
2009/04/23 09:21:07.9     -85    -71     78    111    135 230.0  38.0  34102  288.60 0855.17
2009/04/23 09:21:08.0     -91   -110     35    143    148 219.7  13.7  34110  288.72 0855.17
2009/04/23 09:21:08.1     -40    -64     34     76     83 212.6  25.7  34108  288.69 0855.17
2009/04/23 09:21:08.2     -36      2     42     37     55 274.3  54.3  34112  288.77 0855.17
2009/04/23 09:21:08.3      15     31    -14     35     37  27.2 -25.4  34112  288.77 0855.17
2009/04/23 09:21:08.4     -11     64    -33     65     72 350.2 -32.6  34104  288.64 0855.17
2009/04/23 09:21:08.5     -48     41     -7     64     65 310.4  -6.2  34106  288.67 0855.17
2009/04/23 09:21:08.6     -72     10    -23     73     76 277.9 -23.8  34110  288.74 0855.17
2009/04/23 09:21:08.7    -112    -56    -25    126    129 243.4 -11.3  34112  288.75 0855.17
2009/04/23 09:21:08.8    -155      4    -43    156    162 271.7 -15.4  34104  288.62 0855.17
2009/04/23 09:21:08.9    -305     68    -81    313    324 282.7 -14.5  34106  288.66 0855.19
2009/04/23 09:21:09.0    -297     -8    -82    298    310 268.3 -15.5  34106  288.65 0855.19
2009/04/23 09:21:09.1    -295   -127     42    322    325 246.7   7.6  34106  288.65 0855.19
2009/04/23 09:21:09.2    -223    -83    -53    239    245 249.6 -12.6  34106  288.66 0855.19
2009/04/23 09:21:09.3    -201   -108    -12    229    230 241.8  -3.1  34104  288.64 0855.19
2009/04/23 09:21:09.4    -194   -125      0    231    232 237.1   0.2  34104  288.62 0855.19
2009/04/23 09:21:09.5    -300   -119    -30    323    325 248.3  -5.4  34106  288.66 0855.19
2009/04/23 09:21:09.6    -267   -129    -46    297    301 244.2  -8.8  34102  288.59 0855.19
2009/04/23 09:21:09.7    -216   -130     12    253    254 238.9   2.8  34104  288.61 0855.19
2009/04/23 09:21:09.8    -150   -138     40    205    209 227.3  11.1  34102  288.60 0855.19
2009/04/23 09:21:09.9     -93   -112      7    146    147 219.6   2.9  34100  288.55 0855.19
2009/04/23 09:21:10.0     -55    -52     57     76     95 226.8  40.7  34106  288.65 0855.19
2009/04/23 09:21:10.1     -88      0     49     89    101 270.0  31.4  34104  288.64 0855.19
2009/04/23 09:21:10.2     -73    -25     65     78    101 250.9  43.8  34106  288.67 0855.19
2009/04/23 09:21:10.3    -139    -28     27    142    145 258.6  11.1  34106  288.65 0855.19
2009/04/23 09:21:10.4    -121   -118     -3    170    171 225.6  -1.1  34104  288.62 0855.19
2009/04/23 09:21:10.5     -23    -48    118     54    129 206.3  73.5  34108  288.69 0855.19
2009/04/23 09:21:10.6      29    -64     96     71    119 155.5  60.0  34110  288.74 0855.19
2009/04/23 09:21:10.7      -8    -43     81     44     92 190.7  69.3  34112  288.75 0855.19
2009/04/23 09:21:10.8      14    -22     65     27     70 147.4  76.1  34110  288.74 0855.19
2009/04/23 09:21:10.9     -17    -17     78     25     81 225.0  81.8  34108  288.70 0855.21
2009/04/23 09:21:11.0     -23    -48     39     54     66 206.3  39.5  34106  288.67 0855.21
2009/04/23 09:21:11.1     -73    -29     63     79    101 248.3  43.3  34104  288.62 0855.21
2009/04/23 09:21:11.2    -114    -82     32    141    145 234.0  13.1  34100  288.57 0855.21
2009/04/23 09:21:11.3    -140    -88     57    166    176 237.6  18.9  34100  288.55 0855.21
2009/04/23 09:21:11.4     -59   -124    145    138    200 205.3  51.4  34102  288.58 0855.21
2009/04/23 09:21:11.5     -80   -144    169    165    236 209.2  50.9  34106  288.65 0855.21
2009/04/23 09:21:11.6     -88   -167    106    189    216 207.9  31.4  34104  288.62 0855.21
2009/04/23 09:21:11.7     -59    -62     85     86    120 223.7  50.0  34102  288.60 0855.21
2009/04/23 09:21:11.8     -42   -115    -29    123    127 200.1 -13.3  34102  288.58 0855.21
2009/04/23 09:21:11.9     -77    -44    -46     89    100 240.2 -33.7  34102  288.60 0855.21
2009/04/23 09:21:12.0     -77    -71      5    105    106 227.3   2.8  34098  288.53 0855.21
2009/04/23 09:21:12.1    -105   -136     71    172    186 217.8  23.6  34100  288.55 0855.21
2009/04/23 09:21:12.2    -138   -138     75    196    209 224.9  21.7  34102  288.58 0855.21
2009/04/23 09:21:12.3    -152   -163     16    223    224 223.0   4.2  34094  288.47 0855.21
2009/04/23 09:21:12.4    -138   -244    -25    281    283 209.4  -5.2  34098  288.51 0855.21
2009/04/23 09:21:12.5    -163    -98      0    191    192 238.9   0.0  34100  288.57 0855.21
2009/04/23 09:21:12.6    -218    -36     22    222    224 260.5   5.7  34102  288.58 0855.21
2009/04/23 09:21:12.7    -156    -31     12    160    161 258.5   4.4  34102  288.60 0855.21
2009/04/23 09:21:12.8    -180     40     21    185    187 282.6   6.7  34100  288.57 0855.21
2009/04/23 09:21:12.9    -131     61    -18    145    147 295.2  -7.2  34102  288.58 0855.21
2009/04/23 09:21:13.0     -60    152     -9    164    165 338.4  -3.1  34098  288.53 0855.21
2009/04/23 09:21:13.1      -6    130    -26    131    134 357.3 -11.5  34104  288.62 0855.21
2009/04/23 09:21:13.2      48    180      8    187    188  15.2   2.5  34106  288.67 0855.21
2009/04/23 09:21:13.3     129    190     62    230    239  34.3  15.2  34104  288.63 0855.21
2009/04/23 09:21:13.5     169    162    111    235    259  46.2  27.1  34104  288.63 0855.21
2009/04/23 09:21:13.5      84    132    157    157    222  32.6  50.1  34102  288.58 0855.21
2009/04/23 09:21:13.6     112    119     69    164    177  43.2  23.8  34106  288.65 0855.21
2009/04/23 09:21:13.8      86     78     22    117    120  47.8  10.6  34110  288.72 0855.21
2009/04/23 09:21:13.8      51     88     20    103    105  30.3  11.1  34108  288.70 0855.21
2009/04/23 09:21:14.0      -2     76     40     77     86 358.2  29.8  34106  288.65 0855.21
2009/04/23 09:21:14.0      18     52     46     56     72  19.2  43.8  34106  288.67 0855.21
2009/04/23 09:21:14.1      94     85     55    128    139  47.8  24.6  34108  288.70 0855.21
2009/04/23 09:21:14.3     113     49     76    124    145  66.4  35.0  34112  288.75 0855.21
2009/04/23 09:21:14.4      78     40     70     88    112  62.9  43.7  34112  288.77 0855.21
2009/04/23 09:21:14.5      80     30    102     86    133  69.2  55.8  34112  288.77 0855.21
2009/04/23 09:21:14.6      31     18     93     37    100  59.3  77.1  34110  288.74 0855.21
2009/04/23 09:21:14.7      -2    -25     58     26     63 184.5  75.0  34110  288.74 0855.21
2009/04/23 09:21:14.8      66     32    104     74    127  63.8  60.6  34112  288.77 0855.21
2009/04/23 09:21:14.9      78     32     70     85    110  67.8  43.7  34112  288.75 0855.21
2009/04/23 09:21:15.0      26     38     94     47    105  34.3  71.9  34114  288.80 0855.21
2009/04/23 09:21:15.1      86      3     76     87    115  87.9  45.4  34112  288.75 0855.21
2009/04/23 09:21:15.2      78     42    102     89    135  61.6  54.3  34108  288.70 0855.21
2009/04/23 09:21:15.3     115     47    133    125    182  67.8  52.0  34108  288.70 0855.21
2009/04/23 09:21:15.4     121    -17    145    123    190  98.4  55.6  34110  288.72 0855.21
2009/04/23 09:21:15.5     132     10    134    133    188  85.6  49.9  34108  288.69 0855.21
2009/04/23 09:21:15.6     182     15    154    183    239  85.0  44.5  34110  288.72 0855.21
2009/04/23 09:21:15.7     171     -1    173    172    243  90.4  50.1  34110  288.72 0855.21
2009/04/23 09:21:15.8     142     24    171    145    224  80.3  55.8  34126  288.99 0855.21
2009/04/23 09:21:15.9      83    -12    148     84    170  98.8  68.1  34128  289.02 0855.21
2009/04/23 09:21:16.0     136     44    173    144    225  71.8  56.3  34160  289.57 0855.21
2009/04/23 09:21:16.1      43     35    130     56    141  50.4  75.0  34152  289.43 0855.21
2009/04/23 09:21:16.2      29    -15     78     33     84 117.1  76.6  34146  289.35 0855.21
2009/04/23 09:21:16.3      21     21     99     30    103  45.0  82.8  34136  289.16 0855.21
2009/04/23 09:21:16.4       0    -40     98     41    106 180.0  76.6  34128  289.02 0855.21
2009/04/23 09:21:16.5     -14     27     84     31     89 332.8  79.7  34126  288.99 0855.21
2009/04/23 09:21:16.6       2    -21     71     22     74 173.8  80.7  34116  288.84 0855.21
2009/04/23 09:21:16.7      80     -6    112     81    138  94.4  60.6  34116  288.84 0855.21
2009/04/23 09:21:16.8      34    -53     98     64    117 147.5  64.6  34114  288.79 0855.21
2009/04/23 09:21:16.9      35      0     82     36     89  90.0  74.5  34114  288.79 0855.21
2009/04/23 09:21:17.0      11      9     80     15     81  50.5  90.0  34116  288.84 0855.21
2009/04/23 09:21:17.1      28    -57     67     64     92 153.7  51.2  34116  288.82 0855.21
2009/04/23 09:21:17.2      47     13    100     49    111  74.1  72.8  34112  288.75 0855.21
2009/04/23 09:21:17.3      39    -34     70     53     87 131.3  59.0  34108  288.70 0855.21
2009/04/23 09:21:17.4      31    -55     71     64     95 151.0  53.3  34108  288.70 0855.21
2009/04/23 09:21:17.5       1    -99     84    100    130 179.1  43.8  34108  288.69 0855.21
2009/04/23 09:21:17.6      -7    -84     79     85    116 185.3  48.0  34106  288.67 0855.21
2009/04/23 09:21:17.7       0    -83     78     84    114 180.4  48.0  34108  288.70 0855.21
2009/04/23 09:21:17.8      11    -79     93     80    122 172.0  54.3  34106  288.65 0855.21
2009/04/23 09:21:17.9       1   -102    118    103    156 179.1  54.3  34108  288.69 0855.21
2009/04/23 09:21:18.0     -22   -123     69    126    143 190.2  31.4  34140  289.24 0855.21
2009/04/23 09:21:18.1       1   -108    104    109    150 179.0  48.5  34138  289.21 0855.21
2009/04/23 09:21:18.2     -55   -139    116    150    189 201.8  42.0  34140  289.23 0855.21
2009/04/23 09:21:18.3    -104   -111     54    153    163 223.2  19.6  34130  289.08 0855.21
2009/04/23 09:21:18.4     -87   -105     51    137    146 219.7  21.0  34138  289.21 0855.21
2009/04/23 09:21:18.5     -74   -118     59    140    151 212.1  24.1  34144  289.31 0855.21
2009/04/23 09:21:18.6      -7   -129    125    130    180 183.1  49.0  34102  288.58 0855.21
2009/04/23 09:21:18.7      12   -153    142    154    209 175.5  47.7  34098  288.52 0855.21
2009/04/23 09:21:18.8       2   -151    112    152    188 179.1  39.9  34098  288.53 0855.21
2009/04/23 09:21:18.9     -17   -184    111    185    215 185.6  33.5  34098  288.53 0855.21
2009/04/23 09:21:19.0     -10   -172    129    173    215 183.6  40.4  34104  288.62 0855.21
2009/04/23 09:21:19.1      48   -147    106    155    187 161.7  37.6  34112  288.77 0855.21
2009/04/23 09:21:19.2      62   -146     90    159    182 156.8  32.1  34112  288.75 0855.21
2009/04/23 09:21:19.3     -10   -143     50    144    153 184.0  19.4  34122  288.92 0855.21
2009/04/23 09:21:19.4     -86   -171     55    192    200 206.7  16.0  34154  289.48 0855.21
2009/04/23 09:21:19.5     -74   -170     47    186    192 203.6  14.3  34160  289.58 0855.21
2009/04/23 09:21:19.6     -80   -201     67    217    228 201.9  17.3  34148  289.36 0855.21
2009/04/23 09:21:19.7     -20   -187     74    189    202 186.2  22.3  34116  288.84 0855.21
2009/04/23 09:21:19.8     -13   -158    100    159    187 184.9  35.5  34104  288.62 0855.21
2009/04/23 09:21:19.9     -11   -150     94    151    177 184.5  35.0  34122  288.92 0855.21
2009/04/23 09:21:20.0      -2   -142    142    143    201 181.0  50.0  34108  288.69 0855.21
2009/04/23 09:21:20.1      -3   -147     97    148    176 181.4  36.3  34096  288.48 0855.21
2009/04/23 09:21:20.2     -24   -159    139    161    212 188.7  45.6  34096  288.48 0855.21
2009/04/23 09:21:20.3     -66   -130     92    146    172 207.1  35.5  34108  288.70 0855.21
2009/04/23 09:21:20.4    -108   -133     76    172    188 219.0  25.3  34112  288.75 0855.21
2009/04/23 09:21:20.5    -100   -169     46    197    203 210.5  13.2  34144  289.30 0855.21
2009/04/23 09:21:20.6      42   -171     31    177    180 166.0  10.1  34106  288.65 0855.21
2009/04/23 09:21:20.7      81   -195     38    212    216 157.5  10.3  34100  288.55 0855.21
2009/04/23 09:21:20.8      44   -179     98    185    209 166.2  30.1  34098  288.53 0855.21
2009/04/23 09:21:20.9      23   -197    116    199    230 173.1  32.9  34098  288.52 0855.21
2009/04/23 09:21:21.0     -13   -180    159    181    240 184.2  45.9  34100  288.55 0855.21
2009/04/23 09:21:21.1     -39   -167    145    172    224 193.4  44.1  34100  288.57 0855.21
2009/04/23 09:21:21.2     -80   -144    106    166    196 209.2  35.6  34100  288.57 0855.21
2009/04/23 09:21:21.3     -86   -166      9    187    188 207.4   2.9  34102  288.60 0855.21
2009/04/23 09:21:21.4     -72   -174      9    189    190 202.5   2.9  34100  288.55 0855.21
2009/04/23 09:21:21.5     -66   -189     43    201    206 199.4  12.2  34098  288.53 0855.21
2009/04/23 09:21:21.6     -64   -214     45    224    229 196.7  11.6  34100  288.57 0855.21
2009/04/23 09:21:21.7     -12   -194     68    195    207 183.6  19.2  34100  288.55 0855.21
2009/04/23 09:21:21.8      43   -225    113    230    256 169.1  28.0  34100  288.56 0855.21
2009/04/23 09:21:21.9      72   -224     87    236    251 162.2  21.0  34102  288.58 0855.21
2009/04/23 09:21:22.0      81   -191     82    208    223 157.1  22.8  34098  288.53 0855.21
2009/04/23 09:21:22.1      82   -196     79    213    227 157.3  21.3  34100  288.55 0855.21
2009/04/23 09:21:22.2      36   -203     40    207    211 169.8  11.1  34098  288.53 0855.21
2009/04/23 09:21:22.3      47   -182     22    189    191 165.3   6.7  34098  288.53 0855.21
2009/04/23 09:21:22.4      58   -198     32    207    210 163.7   9.0  34098  288.53 0855.21
2009/04/23 09:21:22.5      59   -181     34    191    195 161.7  10.3  34100  288.55 0855.21
2009/04/23 09:21:22.6      78   -156    -33    175    179 153.5 -10.9  34100  288.57 0855.21
2009/04/23 09:21:22.7      88   -130    -20    158    160 145.7  -7.3  34102  288.60 0855.21
2009/04/23 09:21:22.8      77   -130    -19    152    154 149.3  -7.2  34104  288.62 0855.21
2009/04/23 09:21:22.9      84   -120      1    147    148 144.8   0.7  34100  288.57 0855.21
2009/04/23 09:21:23.0      96   -132     51    164    172 144.0  17.3  34098  288.52 0855.21
2009/04/23 09:21:23.1      92   -107     52    142    151 139.5  21.0  34098  288.53 0855.21
2009/04/23 09:21:23.2      84   -108     63    137    150 142.2  27.1  34096  288.48 0855.21
2009/04/23 09:21:23.3      83    -86     75    120    141 135.8  35.5  34100  288.57 0855.21
2009/04/23 09:21:23.4      78   -165     40    183    188 154.6  12.4  34100  288.55 0855.21
2009/04/23 09:21:23.5      36   -194     31    198    201 169.3   9.0  34098  288.52 0855.21
2009/04/23 09:21:23.6      41   -206     36    211    215 168.7   9.9  34096  288.50 0855.21
2009/04/23 09:21:23.7      45   -205     33    210    213 167.5   9.0  34098  288.53 0855.21
2009/04/23 09:21:23.8      73   -216     48    229    235 161.3  12.0  34102  288.58 0855.21
2009/04/23 09:21:23.9      57   -183    110    192    221 162.6  32.7  34102  288.60 0855.21
2009/04/23 09:21:24.0      92   -189     88    211    228 154.1  23.6  34104  288.64 0855.21
2009/04/23 09:21:24.1      65   -185     42    197    202 160.6  12.2  34102  288.58 0855.21
2009/04/23 09:21:24.2      33   -281     97    284    301 173.1  18.9  34110  288.71 0855.21
2009/04/23 09:21:24.3      21   -302    136    303    332 176.0  25.8  34112  288.75 0855.21
2009/04/23 09:21:24.4      51   -303    138    308    337 170.3  25.9  34112  288.76 0855.21
2009/04/23 09:21:24.5      34   -288    150    291    327 173.1  29.4  34112  288.76 0855.21
2009/04/23 09:21:24.6      15   -282    189    283    340 176.9  36.9  34112  288.75 0855.21
2009/04/23 09:21:24.7       5   -346    154    347    379 179.1  25.3  34106  288.67 0855.21
2009/04/23 09:21:24.8      37   -266    176    269    321 171.9  36.3  34112  288.75 0855.21
2009/04/23 09:21:24.9      76   -300    135    310    338 165.7  24.9  34110  288.71 0855.21
2009/04/23 09:21:25.0      15   -314    125    315    338 177.1  22.9  34110  288.74 0855.21
2009/04/23 09:21:25.1      -3   -231     98    232    251 180.9  24.2  34112  288.75 0855.21
2009/04/23 09:21:25.2     -91   -211     64    230    239 203.4  15.6  34110  288.71 0855.21
2009/04/23 09:21:25.3      53    -96     44    110    118 151.0  23.0  34110  288.74 0855.21
2009/04/23 09:21:25.4      11   -126     43    127    135 174.7  18.9  34110  288.74 0855.21
2009/04/23 09:21:25.5      45    -74     36     87     94 148.8  23.0  34110  288.72 0855.21
2009/04/23 09:21:25.6     110    -36     49    116    125 108.2  24.1  34110  288.74 0855.21
2009/04/23 09:21:25.7     162    -53    102    171    199 108.2  33.5  34108  288.69 0855.21
2009/04/23 09:21:25.8      86   -235    209    251    326 159.9  44.0  34104  288.61 0855.21
2009/04/23 09:21:25.9      89   -292    197    306    363 163.1  35.6  34108  288.69 0855.21
2009/04/23 09:21:26.0     169   -342     85    382    392 153.6  12.6  34110  288.74 0855.23
2009/04/23 09:21:26.1     175   -258     96    313    328 145.8  17.1  34108  288.68 0855.23
2009/04/23 09:21:26.2     139   -271     26    305    307 152.8   4.9  34112  288.76 0855.23
2009/04/23 09:21:26.3      81   -305     46    316    320 165.1   8.3  34110  288.71 0855.23
2009/04/23 09:21:26.4     125   -225     71    258    268 151.0  15.6  34108  288.70 0855.23
2009/04/23 09:21:26.5     263   -217     25    342    343 129.5   4.2  34110  288.71 0855.23
2009/04/23 09:21:26.6     239   -187     71    304    313 128.0  13.2  34110  288.73 0855.23
2009/04/23 09:21:26.7      61   -177     90    188    208 160.8  27.3  34110  288.72 0855.23
2009/04/23 09:21:26.8      94   -195     87    217    233 154.1  23.0  34108  288.70 0855.23
2009/04/23 09:21:26.9     118   -184     -8    219    220 147.3  -2.2  34110  288.74 0855.23
2009/04/23 09:21:27.0      78   -182     92    199    219 156.8  26.6  34106  288.67 0855.23
2009/04/23 09:21:27.1      72   -177     29    192    195 157.9   8.8  34110  288.74 0855.23
2009/04/23 09:21:27.2     110   -117     72    161    176 136.7  25.7  34112  288.75 0855.23
2009/04/23 09:21:27.3     100   -115     44    153    160 139.0  16.3  34110  288.72 0855.23
2009/04/23 09:21:27.4      92   -111     39    145    151 140.3  15.2  34108  288.70 0855.23
2009/04/23 09:21:27.5      36   -107     65    114    131 161.3  32.4  34112  288.75 0855.23
2009/04/23 09:21:27.6       7   -132     68    133    149 176.9  29.2  34112  288.75 0855.23
2009/04/23 09:21:27.7      35   -116     42    122    130 163.1  19.2  34108  288.70 0855.23
2009/04/23 09:21:27.8      16    -86     78     88    117 168.9  46.4  34110  288.72 0855.23
2009/04/23 09:21:27.9     -34    -84     81     91    121 202.3  46.4  34112  288.77 0855.23
2009/04/23 09:21:28.0    -106   -105     72    150    166 225.2  27.3  34108  288.70 0855.24
2009/04/23 09:21:28.1    -117   -125     41    172    177 223.2  13.7  34110  288.72 0855.24
2009/04/23 09:21:28.2    -109   -116     15    160    161 223.2   5.7  34110  288.72 0855.24
2009/04/23 09:21:28.3     -50   -115     -4    126    127 203.7  -2.2  34108  288.70 0855.24
2009/04/23 09:21:28.4       0    -82     43     83     93 180.4  29.3  34110  288.74 0855.24
2009/04/23 09:21:28.5      15    -84    -19     86     89 169.8 -12.4  34110  288.74 0855.24
2009/04/23 09:21:28.6      21    -93    -15     96     98 167.1  -9.3  34110  288.74 0855.24
2009/04/23 09:21:28.7      67    -74     44    101    110 137.7  25.1  34108  288.70 0855.24
2009/04/23 09:21:28.8     113    -67     69    132    148 120.7  29.3  34110  288.74 0855.24
2009/04/23 09:21:28.9      80    -95     29    125    129 139.9  13.2  34110  288.72 0855.24
2009/04/23 09:21:29.0      73    -47     34     88     94 122.9  21.5  34110  288.72 0855.24
2009/04/23 09:21:29.1      58     -3     11     59     61  93.5  11.1  34110  288.74 0855.24
2009/04/23 09:21:29.2      82    -24      3     86     87 106.4   2.3  34110  288.72 0855.24
2009/04/23 09:21:29.3      59    -59    -21     84     87 135.0 -14.5  34110  288.72 0855.24
2009/04/23 09:21:29.4      45    -55    -50     72     87 140.3 -42.4  34114  288.79 0855.24
2009/04/23 09:21:29.5      35    -53    -40     64     75 146.6 -39.9  34112  288.75 0855.24
2009/04/23 09:21:29.6      34    -51    -27     62     67 145.7 -28.5  34110  288.74 0855.24
2009/04/23 09:21:29.7      33    -13     10     36     38 111.7  15.3  34110  288.72 0855.24
2009/04/23 09:21:29.8      14     -3     49     15     51 105.1  81.8  34112  288.75 0855.24
2009/04/23 09:21:29.9      12      0     47     13     48  90.0  82.8  34110  288.74 0855.24
2009/04/23 09:21:30.0       7      2     47      8     47  71.4  90.0  34112  288.77 0855.24
2009/04/23 09:21:30.1      18     -3     40     19     44 101.5  74.0  34118  288.87 0855.24
2009/04/23 09:21:30.2      14     30     40     34     52  25.3  55.4  34114  288.79 0855.24
2009/04/23 09:21:30.3      47     18     47     51     69  68.3  47.9  34114  288.80 0855.24
2009/04/23 09:21:30.4     103     20      8    105    106  79.0   4.9  34112  288.75 0855.24
2009/04/23 09:21:30.5      79     24     40     83     92  72.7  27.2  34114  288.79 0855.24
2009/04/23 09:21:30.6     113    -23     89    116    146 101.5  41.6  34108  288.70 0855.24
2009/04/23 09:21:30.7     117    -12    102    118    155  96.1  45.4  34110  288.74 0855.24
2009/04/23 09:21:30.8     100      0     90    101    135  89.6  45.9  34108  288.69 0855.24
2009/04/23 09:21:30.9      92      0     96     93    133  90.0  50.2  34106  288.67 0855.24
2009/04/23 09:21:31.0     106      0     69    107    127  90.0  35.6  34110  288.74 0855.24
2009/04/23 09:21:31.1      94     -7     60     95    112  94.4  35.5  34108  288.69 0855.24
2009/04/23 09:21:31.2      84      2     49     85     98  88.3  32.9  34108  288.70 0855.24
2009/04/23 09:21:31.3      60     44     64     75     98  54.0  44.8  34104  288.64 0855.24
2009/04/23 09:21:31.4     105     50     45    117    125  64.6  22.0  34108  288.69 0855.24
2009/04/23 09:21:31.5     119     23     62    122    136  79.0  29.2  34104  288.64 0855.24
2009/04/23 09:21:31.6      56    -46     80     73    108 129.6  52.7  34108  288.69 0855.24
2009/04/23 09:21:31.7      19   -129    125    131    181 171.5  48.7  34108  288.69 0855.24
2009/04/23 09:21:31.8      29   -144    112    148    185 168.4  41.2  34106  288.65 0855.24
2009/04/23 09:21:31.9      27    -62     97     68    118 156.4  61.5  34102  288.58 0855.24
2009/04/23 09:21:32.0     -54     55     99     78    126 315.8  57.9  34108  288.70 0855.22
2009/04/23 09:21:32.1      -2   -154    151    155    216 181.0  49.2  34102  288.58 0855.22
2009/04/23 09:21:32.2      12   -192    149    193    243 176.4  41.6  34104  288.64 0855.22
2009/04/23 09:21:32.3      98   -219    139    240    277 155.9  32.7  34102  288.59 0855.22
2009/04/23 09:21:32.4     138   -181     98    228    248 142.6  24.9  34104  288.61 0855.22
2009/04/23 09:21:32.5     215    -92    114    235    261 113.3  27.4  34106  288.66 0855.22
2009/04/23 09:21:32.6     154   -124    128    198    235 128.9  36.0  34104  288.64 0855.22
2009/04/23 09:21:32.7     107    -84    142    137    197 128.2  51.2  34098  288.53 0855.22
2009/04/23 09:21:32.8     149    -55    103    159    189 110.4  35.7  34106  288.65 0855.22
2009/04/23 09:21:32.9     198    -45      7    204    205 102.8   2.1  34102  288.60 0855.22
2009/04/23 09:21:33.0     233      3     70    234    245  89.2  16.6  34106  288.65 0855.22
2009/04/23 09:21:33.1     196     15     72    197    209  85.4  20.9  34104  288.62 0855.22
2009/04/23 09:21:33.2     143      0     84    144    166  90.0  32.9  34104  288.64 0855.22
2009/04/23 09:21:33.3     147    -11     67    148    162  94.4  25.9  34102  288.60 0855.22
2009/04/23 09:21:33.4     133    -60     58    147    158 114.4  22.5  34104  288.62 0855.22
2009/04/23 09:21:33.5      94    -50    -35    107    113 118.4 -18.1  34104  288.64 0855.22
2009/04/23 09:21:33.6     137   -123      1    185    186 132.0   0.5  34104  288.62 0855.22
2009/04/23 09:21:33.7      97   -179     -7    204    205 151.5  -2.1  34104  288.64 0855.22
2009/04/23 09:21:33.8      86   -190    -18    209    210 155.5  -5.1  34104  288.62 0855.22
2009/04/23 09:21:33.9      38   -199    -62    203    213 169.1 -17.0  34102  288.58 0855.22
2009/04/23 09:21:34.0      59   -136     64    149    162 156.4  24.6  34102  288.60 0855.20
2009/04/23 09:21:34.1      52   -201     41    208    213 165.3  11.1  34102  288.58 0855.20
2009/04/23 09:21:34.2      51   -110     89    122    151 155.1  39.7  34106  288.65 0855.20
2009/04/23 09:21:34.3      70   -120    100    140    172 149.7  38.8  34104  288.62 0855.20
2009/04/23 09:21:34.4      80   -144     60    166    176 150.8  20.7  34104  288.64 0855.20
2009/04/23 09:21:34.5      65   -166      0    179    180 158.6   0.0  34104  288.62 0855.20
2009/04/23 09:21:34.6      25   -135     40    138    144 169.3  16.3  34104  288.64 0855.20
2009/04/23 09:21:34.7      56   -114    111    128    169 153.7  45.4  34104  288.62 0855.20
2009/04/23 09:21:34.8     121   -135    109    182    212 138.3  34.0  34102  288.60 0855.20
2009/04/23 09:21:34.9     113   -148    111    187    217 142.6  33.5  34102  288.60 0855.20
2009/04/23 09:21:35.0      82   -173    105    192    218 154.7  31.3  34104  288.64 0855.20
2009/04/23 09:21:35.1      43   -214     20    219    221 168.4   5.4  34102  288.60 0855.20
2009/04/23 09:21:35.2       5   -287     24    288    290 178.9   4.9  34104  288.61 0855.20
2009/04/23 09:21:35.3       0   -214     99    215    236 180.2  26.2  34100  288.57 0855.20
2009/04/23 09:21:35.4     -16   -217     41    218    222 184.4  10.8  34104  288.64 0855.20
2009/04/23 09:21:35.5     -26   -266     32    268    270 185.6   6.9  34104  288.63 0855.20
2009/04/23 09:21:35.6     -18   -247     -1    248    249 184.4  -0.3  34096  288.48 0855.20
2009/04/23 09:21:35.7     -22   -221    -32    223    226 185.8  -8.2  34106  288.65 0855.20
2009/04/23 09:21:35.8     -11   -250      3    251    252 182.7   0.7  34102  288.58 0855.20
2009/04/23 09:21:35.9      12   -229     76    230    243 176.9  18.4  34104  288.63 0855.20
2009/04/23 09:21:36.0       0   -245    100    246    265 180.0  23.4  34102  288.58 0855.20
2009/04/23 09:21:36.1      32   -255     33    258    261 172.7   7.5  34100  288.56 0855.20
2009/04/23 09:21:36.2      30   -241      7    243    244 172.9   1.7  34104  288.63 0855.20
2009/04/23 09:21:36.3      35   -175     -6    179    180 168.4  -2.1  34104  288.64 0855.20
2009/04/23 09:21:36.4     -26   -173     11    175    176 188.7   3.8  34104  288.62 0855.20
2009/04/23 09:21:36.5      25   -211    -55    213    220 173.1 -14.5  34104  288.64 0855.20
2009/04/23 09:21:36.6      31   -230    -33    233    236 172.2  -8.3  34104  288.61 0855.20
2009/04/23 09:21:36.7      21   -273     53    274    280 175.5  11.1  34102  288.59 0855.20
2009/04/23 09:21:36.8     -49   -286     57    291    297 189.8  11.1  34098  288.53 0855.20
2009/04/23 09:21:36.9     -52   -283     -2    288    289 190.6  -0.5  34104  288.61 0855.20
2009/04/23 09:21:37.0    -118   -311    -13    333    334 200.9  -2.2  34100  288.55 0855.20
2009/04/23 09:21:37.1    -139   -282     -9    315    316 206.3  -1.7  34102  288.58 0855.20
2009/04/23 09:21:37.2     -84   -305     57    317    323 195.4  10.2  34098  288.53 0855.20
2009/04/23 09:21:37.3     -61   -284     79    291    302 192.3  15.3  34100  288.54 0855.20
2009/04/23 09:21:37.4     -74   -259     67    270    279 196.0  13.9  34102  288.58 0855.20
2009/04/23 09:21:37.5     -55   -232      9    239    240 193.4   2.3  34104  288.63 0855.20
2009/04/23 09:21:37.6     -12   -259      4    260    261 182.7   1.0  34104  288.61 0855.20
2009/04/23 09:21:37.7     -77   -263    -15    275    276 196.3  -3.1  34096  288.49 0855.20
2009/04/23 09:21:37.8    -196   -250     -7    318    319 218.1  -1.3  34098  288.51 0855.20
2009/04/23 09:21:37.9    -121   -211     62    244    252 209.8  14.3  34100  288.56 0855.20
2009/04/23 09:21:38.0     -89   -232     -9    249    250 201.0  -2.2  34098  288.53 0855.20
2009/04/23 09:21:38.1    -108   -264    -68    286    295 202.3 -13.4  34098  288.51 0855.20
2009/04/23 09:21:38.2     -17   -345    -19    346    347 182.9  -3.3  34096  288.49 0855.20
2009/04/23 09:21:38.3     -52   -347    -17    351    352 188.6  -2.8  34094  288.44 0855.20
2009/04/23 09:21:38.4     -82   -303    -74    314    323 195.2 -13.4  34096  288.48 0855.20
2009/04/23 09:21:38.5     -59   -270    -30    277    279 192.5  -6.2  34098  288.51 0855.20
2009/04/23 09:21:38.6     -79   -292    -38    303    306 195.2  -7.3  34098  288.51 0855.20
2009/04/23 09:21:38.7    -120   -288    -35    313    316 202.7  -6.5  34096  288.49 0855.20
2009/04/23 09:21:38.8     -21   -276    -74    277    287 184.4 -15.0  34098  288.53 0855.20
2009/04/23 09:21:38.9     -17   -218   -141    219    260 184.5 -40.0  34100  288.56 0855.20
2009/04/23 09:21:39.0     -44   -258   -173    262    313 189.8 -41.1  34098  288.51 0855.20
2009/04/23 09:21:39.1     -36   -192   -143    196    242 190.7 -44.1  34098  288.52 0855.20
2009/04/23 09:21:39.2     -50   -323    -88    327    339 188.9 -15.2  34102  288.59 0855.20
2009/04/23 09:21:39.3     -76   -252    -63    264    272 196.9 -13.4  34094  288.44 0855.20
2009/04/23 09:21:39.4    -181   -234    -82    297    309 217.8 -15.5  34102  288.58 0855.20
2009/04/23 09:21:39.5    -205   -220   -128    301    327 223.0 -28.9  34102  288.58 0855.20
2009/04/23 09:21:39.6     -96   -241    -93    260    276 201.8 -24.8  34096  288.49 0855.20
2009/04/23 09:21:39.7     -85   -282   -105    295    314 196.9 -19.7  34096  288.49 0855.20
2009/04/23 09:21:39.8     -51   -270    -98    275    293 190.7 -19.7  34098  288.51 0855.20
2009/04/23 09:21:39.9      11   -329    -73    330    339 178.0 -12.5  34096  288.50 0855.20
2009/04/23 09:21:40.0     -21   -317    -48    318    322 183.8  -8.7  34100  288.54 0855.20
2009/04/23 09:21:40.1     -12   -269   -113    270    292 182.6 -28.2  34100  288.56 0855.20
2009/04/23 09:21:40.2       4   -222   -110    223    248 178.9 -32.6  34102  288.58 0855.20
2009/04/23 09:21:40.3     -13   -239    -66    240    250 183.1 -15.5  34102  288.59 0855.20
2009/04/23 09:21:40.4     -16   -219    -87    220    236 184.4 -27.2  34100  288.57 0855.20
2009/04/23 09:21:40.6     -16   -216    -90    217    234 184.4 -28.5  34100  288.57 0855.20
2009/04/23 09:21:40.7     -38   -222    -24    226    228 189.8  -6.2  34104  288.64 0855.20
2009/04/23 09:21:40.8     -35   -249    -39    252    255 188.0  -8.8  34102  288.59 0855.20
2009/04/23 09:21:40.9     -99   -293    -51    310    315 198.7  -9.4  34102  288.59 0855.20
2009/04/23 09:21:41.0     -90   -272    -56    287    293 198.5 -11.1  34104  288.61 0855.20
2009/04/23 09:21:41.1    -124   -256    -46    285    289 205.9  -9.3  34102  288.59 0855.20
2009/04/23 09:21:41.2    -156   -246    -48    292    296 212.5  -9.3  34102  288.58 0855.20
2009/04/23 09:21:41.3     -95   -292    -50    308    313 198.0  -9.3  34100  288.54 0855.20
2009/04/23 09:21:41.4     -49   -262    -44    267    271 190.6  -9.4  34100  288.54 0855.20
2009/04/23 09:21:41.5     -54   -341    -66    346    353 189.1 -10.8  34102  288.59 0855.20
2009/04/23 09:21:41.6     -63   -326    -60    333    339 191.0 -10.3  34102  288.59 0855.20
2009/04/23 09:21:41.7     -30   -340   -117    342    362 185.2 -19.0  34102  288.59 0855.20
2009/04/23 09:21:41.8      -4   -324   -103    325    342 180.8 -17.7  34100  288.57 0855.20
2009/04/23 09:21:41.9       8   -285   -101    286    304 178.2 -19.6  34102  288.59 0855.20
2009/04/23 09:21:42.0      18   -295    -83    296    307 176.4 -20.2  34102  288.59 0855.20
2009/04/23 09:21:42.1      18   -283    -96    284    300 176.2 -18.7  34098  288.53 0855.20
2009/04/23 09:21:42.2      61   -278    -38    285    288 167.5  -7.7  34102  288.59 0855.20
2009/04/23 09:21:42.3      48   -252    -51    257    263 169.1 -11.3  34100  288.56 0855.20
2009/04/23 09:21:42.4      64   -281    -16    289    290 167.1  -3.2  34096  288.49 0855.20
2009/04/23 09:21:42.5      45   -255    -72    260    270 170.0 -15.5  34102  288.59 0855.20
2009/04/23 09:21:42.6      -3   -245    -85    246    261 180.9 -19.1  34100  288.54 0855.20
2009/04/23 09:21:42.7      37   -269    -44    272    276 172.0  -9.4  34100  288.54 0855.20
2009/04/23 09:21:42.8      25   -247    -32    249    252 174.2  -7.5  34100  288.56 0855.20
2009/04/23 09:21:42.9      16   -260    -10    261    262 176.4  -2.2  34102  288.59 0855.20
2009/04/23 09:21:43.0      -4   -255    -27    256    258 181.1  -6.2  34104  288.63 0855.20
2009/04/23 09:21:43.1     -20   -244      0    245    246 184.7   0.0  34106  288.65 0855.21
2009/04/23 09:21:43.2       0   -254    -21    255    256 180.1  -4.9  34100  288.56 0855.21
2009/04/23 09:21:43.3      50   -252    -23    258    260 168.7  -5.2  34100  288.56 0855.21
2009/04/23 09:21:43.4      11   -246     -9    247    248 177.3  -2.2  34100  288.56 0855.21
2009/04/23 09:21:43.5     -10   -251     25    252    254 182.5   5.7  34100  288.54 0855.21
2009/04/23 09:21:43.6       3   -181     28    182    185 178.9   9.0  34100  288.55 0855.21
2009/04/23 09:21:43.7       7   -177     88    178    198 177.5  28.5  34100  288.55 0855.21
2009/04/23 09:21:43.8       9   -193    125    194    230 177.3  35.6  34102  288.58 0855.21
2009/04/23 09:21:43.9      53   -208     92    215    233 165.5  24.3  34098  288.53 0855.21
2009/04/23 09:21:44.0      48   -220     87    226    242 167.7  22.0  34100  288.56 0855.21
2009/04/23 09:21:44.1      68   -195     82    207    222 160.6  23.0  34096  288.50 0855.21
2009/04/23 09:21:44.2      85   -184    100    203    226 155.1  27.8  34100  288.57 0855.21
2009/04/23 09:21:44.3      77   -179     94    196    217 156.6  27.3  34100  288.55 0855.21
2009/04/23 09:21:44.4      93   -168     96    193    215 151.0  28.2  34100  288.57 0855.21
2009/04/23 09:21:44.5     105   -174     76    204    217 149.0  21.3  34102  288.58 0855.21
2009/04/23 09:21:44.6     107   -178     75    208    221 149.0  20.4  34106  288.65 0855.21
2009/04/23 09:21:44.7      94   -198     57    220    228 154.5  14.5  34104  288.64 0855.21
2009/04/23 09:21:44.8      31   -155     14    159    160 168.4   5.2  34106  288.67 0855.21
2009/04/23 09:21:44.9       0   -132      6    133    134 180.4   2.9  34106  288.65 0855.21
2009/04/23 09:21:45.0       3   -116     -6    117    118 178.2  -3.1  34104  288.62 0855.21
2009/04/23 09:21:45.1       0   -155      0    156    157 180.0  -0.3  34104  288.62 0855.21
2009/04/23 09:21:45.2     -53   -134     12    145    146 201.9   4.9  34102  288.58 0855.21
2009/04/23 09:21:45.3     -93   -175     19    199    200 208.1   5.7  34100  288.57 0855.21
2009/04/23 09:21:45.4     -87   -170     55    192    200 207.2  16.0  34100  288.57 0855.21
2009/04/23 09:21:45.5     -53   -184     49    192    199 196.0  14.3  34102  288.58 0855.21
2009/04/23 09:21:45.6     -49   -165     33    173    177 196.5  11.0  34102  288.58 0855.21
2009/04/23 09:21:45.7    -116   -147     30    188    191 218.1   9.3  34098  288.53 0855.21
2009/04/23 09:21:45.8     -97   -104     52    143    152 223.2  20.4  34100  288.57 0855.21
2009/04/23 09:21:45.9       0   -108    124    109    165 179.5  54.3  34104  288.64 0855.21
2009/04/23 09:21:46.0     -11   -149    100    150    180 184.5  37.0  34104  288.62 0855.21
2009/04/23 09:21:46.1      -2   -165    135    166    213 180.9  43.5  34104  288.62 0855.21
2009/04/23 09:21:46.2       0   -182    107    183    211 180.0  33.4  34106  288.65 0855.21
2009/04/23 09:21:46.3      12   -159    120    160    200 175.5  40.7  34106  288.65 0855.21
2009/04/23 09:21:46.4     -43   -178    141    184    231 193.6  41.6  34104  288.62 0855.21
2009/04/23 09:21:46.5     -68   -182    131    195    234 200.7  37.3  34104  288.62 0855.21
2009/04/23 09:21:46.6    -106   -220    119    245    272 205.9  27.8  34104  288.63 0855.21
2009/04/23 09:21:46.7    -128   -179     85    221    236 215.6  22.1  34102  288.60 0855.21
2009/04/23 09:21:46.8    -118   -185     83    220    235 212.6  21.5  34102  288.60 0855.21
2009/04/23 09:21:46.9     -97   -200     90    223    240 205.9  23.1  34102  288.59 0855.21
2009/04/23 09:21:47.0     -47   -192     86    198    215 194.0  25.1  34104  288.62 0855.21
2009/04/23 09:21:47.1     -57   -171    121    181    217 198.5  37.0  34104  288.64 0855.21
2009/04/23 09:21:47.2    -107   -217     90    242    258 206.3  21.3  34106  288.65 0855.21
2009/04/23 09:21:47.3    -147   -180     50    233    239 219.2  12.2  34102  288.58 0855.21
2009/04/23 09:21:47.4    -151   -190     16    244    245 218.5   3.8  34104  288.61 0855.21
2009/04/23 09:21:47.5    -111   -235     53    261    267 205.3  11.6  34102  288.59 0855.21
2009/04/23 09:21:47.6    -118   -263     92    289    304 204.1  17.8  34106  288.65 0855.21
2009/04/23 09:21:47.7    -120   -243     95    271    287 206.3  20.0  34104  288.61 0855.21
2009/04/23 09:21:47.8    -122   -236     60    266    273 207.4  12.9  34104  288.61 0855.21
2009/04/23 09:21:47.9    -142   -196    -13    243    244 216.0  -3.1  34104  288.63 0855.21
2009/04/23 09:21:48.0    -131   -198     30    238    240 213.6   7.2  34106  288.65 0855.21
2009/04/23 09:21:48.1    -104   -211     11    236    237 206.3   2.8  34106  288.65 0855.21
2009/04/23 09:21:48.2    -107   -224     12    249    250 205.6   2.8  34104  288.61 0855.21
2009/04/23 09:21:48.3    -151   -223    -54    270    276 214.2 -11.3  34110  288.71 0855.21
2009/04/23 09:21:48.4    -180   -247    -14    306    307 216.1  -2.8  34112  288.75 0855.21
2009/04/23 09:21:48.5    -121   -260    -20    287    288 204.9  -4.1  34110  288.73 0855.21
2009/04/23 09:21:48.6    -137   -230    -78    268    279 210.8 -21.2  34118  288.85 0855.21
2009/04/23 09:21:48.7    -116   -276    -84    300    312 202.8 -15.8  34110  288.71 0855.21
2009/04/23 09:21:48.8     -83   -274    -79    287    298 197.0 -15.5  34114  288.80 0855.21
2009/04/23 09:21:48.9     -82   -106   -104    135    170 217.8 -46.1  34112  288.75 0855.21
2009/04/23 09:21:49.0     -53    -96     28    110    114 208.9  14.3  34112  288.77 0855.21
2009/04/23 09:21:49.1       8    -60     70     61     92 171.9  54.3  34110  288.72 0855.20
2009/04/23 09:21:49.2    -126   -128     83    180    198 224.5  26.4  34108  288.70 0855.20
2009/04/23 09:21:49.3    -131   -128     55    184    193 225.6  16.6  34104  288.62 0855.20
2009/04/23 09:21:49.4    -169    -94      9    194    195 240.9   2.9  34106  288.67 0855.20
2009/04/23 09:21:49.5    -216   -119    -18    247    248 241.2  -4.4  34110  288.73 0855.20
2009/04/23 09:21:49.6    -179   -130     -4    222    223 234.1  -1.3  34114  288.80 0855.20
2009/04/23 09:21:49.7    -186   -224     53    292    297 219.6  10.3  34110  288.73 0855.20
2009/04/23 09:21:49.8    -225   -143    -10    267    268 237.6  -2.2  34112  288.76 0855.20
2009/04/23 09:21:49.9    -316   -157     -9    354    355 243.5  -1.6  34116  288.81 0855.20
2009/04/23 09:21:50.0    -292   -170     28    339    341 239.8   4.9  34116  288.82 0855.20
2009/04/23 09:21:50.1    -209   -223     92    306    320 223.2  16.8  34110  288.71 0855.20
2009/04/23 09:21:50.2    -247   -157     51    293    298 237.6  10.0  34114  288.78 0855.20
2009/04/23 09:21:50.3    -325   -133     61    352    358 247.7   9.9  34116  288.82 0855.20
2009/04/23 09:21:50.4    -182   -164    102    246    266 228.0  23.8  34112  288.76 0855.20
2009/04/23 09:21:50.5    -152   -196     90    249    264 217.9  20.4  34110  288.71 0855.20
2009/04/23 09:21:50.6    -243   -137     41    280    284 240.5   8.5  34110  288.73 0855.20
2009/04/23 09:21:50.7    -172   -125     90    213    231 234.0  24.1  34112  288.75 0855.20
2009/04/23 09:21:50.8    -159   -156    101    223    244 225.6  26.2  34114  288.78 0855.20
2009/04/23 09:21:50.9    -230   -124     50    262    267 241.6  11.0  34116  288.83 0855.20
2009/04/23 09:21:51.0    -329    -56    -43    334    337 260.2  -7.4  34116  288.81 0855.20
2009/04/23 09:21:51.1    -323    -11    -39    324    327 268.0  -6.9  34116  288.83 0855.20
2009/04/23 09:21:51.2    -270    -95    -67    287    295 250.5 -13.3  34116  288.83 0855.20
2009/04/23 09:21:51.3    -287    -66    -59    295    301 257.0 -11.3  34122  288.92 0855.20
2009/04/23 09:21:51.4    -218   -103    -41    242    246 244.6  -9.6  34120  288.90 0855.20
2009/04/23 09:21:51.5    -192    -45    -73    198    211 256.7 -25.3  34118  288.87 0855.20
2009/04/23 09:21:51.6    -206   -119    -18    238    239 240.0  -4.4  34122  288.92 0855.20
2009/04/23 09:21:51.7    -249    -98     13    268    269 248.5   2.9  34112  288.76 0855.20
2009/04/23 09:21:51.8    -276   -133    -51    307    312 244.2  -9.5  34116  288.83 0855.20
2009/04/23 09:21:51.9    -201    -98    -61    224    233 244.0 -15.4  34118  288.87 0855.20
2009/04/23 09:21:52.0    -176   -113    -63    210    219 237.4 -21.7  34122  288.94 0855.20
2009/04/23 09:21:52.1    -269    -49    -34    274    277 259.5  -7.2  34126  288.98 0855.20
2009/04/23 09:21:52.2    -213    -16    -46    214    219 265.6 -12.2  34124  288.96 0855.20
2009/04/23 09:21:52.3    -285    -95     12    301    302 251.6   2.3  34130  289.05 0855.20
2009/04/23 09:21:52.4    -229   -142     -1    270    271 238.2  -0.3  34136  289.15 0855.20
2009/04/23 09:21:52.5    -241   -122    -15    271    272 243.1  -3.3  34134  289.12 0855.20
2009/04/23 09:21:52.6    -225    -98    -40    246    250 246.5  -9.3  34130  289.07 0855.20
2009/04/23 09:21:52.7    -255    -44    -84    259    273 260.1 -18.1  34134  289.12 0855.20
2009/04/23 09:21:52.8    -213    -57    -66    221    231 255.0 -16.6  34134  289.13 0855.20
2009/04/23 09:21:52.9    -160    -95    -90    187    207 239.3 -31.7  34134  289.13 0855.20
2009/04/23 09:21:53.0    -116   -109    -72    160    175 226.8 -30.3  34128  289.04 0855.20
2009/04/23 09:21:53.1    -103   -197    -44    223    228 207.6 -11.3  34114  288.80 0855.20
2009/04/23 09:21:53.2     -84   -146    -37    169    174 209.9 -12.4  34118  288.86 0855.20
2009/04/23 09:21:53.3     -53   -189    -15    197    198 195.8  -4.6  34116  288.82 0855.20
2009/04/23 09:21:53.4     -96   -203    -35    225    228 205.5  -9.0  34112  288.77 0855.20
2009/04/23 09:21:53.5    -121   -181    -29    218    220 213.8  -7.7  34118  288.87 0855.20
2009/04/23 09:21:53.6     -80   -177      2    195    196 204.5   0.8  34120  288.89 0855.20
2009/04/23 09:21:53.7     -64   -171    -65    183    195 200.7 -19.7  34114  288.80 0855.20
2009/04/23 09:21:53.8     -24   -207    -44    209    214 186.9 -11.9  34114  288.80 0855.20
2009/04/23 09:21:53.9     -33   -259     -5    262    263 187.3  -1.3  34114  288.80 0855.20
2009/04/23 09:21:54.0     -15   -227    -45    228    233 183.8 -11.3  34112  288.77 0855.20
2009/04/23 09:21:54.1     -80   -255    -56    268    274 197.4 -11.9  34114  288.78 0855.20
2009/04/23 09:21:54.2     -62   -294    -90    301    315 192.0 -16.6  34112  288.76 0855.20
2009/04/23 09:21:54.3     -34   -308    -92    310    324 186.5 -16.6  34112  288.75 0855.20
2009/04/23 09:21:54.4     -51   -303    -38    308    311 189.6  -7.2  34112  288.75 0855.20
2009/04/23 09:21:54.5     -54   -266     -1    272    273 191.5  -0.3  34112  288.76 0855.20
2009/04/23 09:21:54.6     -56   -260     11    267    268 192.3   2.5  34112  288.76 0855.20
2009/04/23 09:21:54.7     -89   -271     34    286    289 198.3   6.9  34110  288.73 0855.20
2009/04/23 09:21:54.8     -16   -247     65    248    257 183.8  14.7  34114  288.78 0855.20
2009/04/23 09:21:54.9      36   -196     15    200    201 169.5   4.4  34112  288.77 0855.20
2009/04/23 09:21:55.0     162   -191     38    251    254 139.7   8.8  34112  288.76 0855.20
2009/04/23 09:21:55.1     215   -183     -1    283    284 130.4  -0.3  34112  288.75 0855.21
2009/04/23 09:21:55.2     108   -194    109    223    248 151.0  28.0  34110  288.73 0855.21
2009/04/23 09:21:55.3     186   -224     91    292    307 140.3  17.4  34112  288.75 0855.21
2009/04/23 09:21:55.4     166   -254    101    304    321 146.8  18.4  34112  288.75 0855.21
2009/04/23 09:21:55.5     143   -224     78    267    279 147.4  16.3  34108  288.70 0855.21
2009/04/23 09:21:55.6     114   -179     91    213    231 147.5  24.6  34108  288.69 0855.21
2009/04/23 09:21:55.7      56   -186    126    195    232 163.1  35.6  34110  288.72 0855.21
2009/04/23 09:21:55.8     131   -101    112    166    200 127.8  37.4  34108  288.70 0855.21
2009/04/23 09:21:55.9     136    -99    163    169    234 125.9  49.0  34110  288.72 0855.21
2009/04/23 09:21:56.0     152   -152    158    215    266 135.0  39.7  34114  288.78 0855.21
2009/04/23 09:21:56.1      68   -203    187    215    284 161.3  45.6  34110  288.71 0855.21
2009/04/23 09:21:56.2       0   -215    218    216    306 180.0  50.1  34110  288.71 0855.21
2009/04/23 09:21:56.3      16   -218    142    219    261 175.8  35.7  34110  288.73 0855.21
2009/04/23 09:21:56.4     -51   -225    -17    231    232 192.9  -4.4  34108  288.69 0855.21
2009/04/23 09:21:56.5     -73   -294    -25    303    305 194.0  -4.9  34110  288.73 0855.21
2009/04/23 09:21:56.6     -74   -302     -1    311    312 193.8  -0.2  34110  288.73 0855.21
2009/04/23 09:21:56.7     -65   -328    108    335    353 191.3  17.9  34108  288.69 0855.21
2009/04/23 09:21:56.8      66   -371     21    377    378 169.9   3.3  34110  288.72 0855.21
2009/04/23 09:21:56.9    -178   -425     90    461    470 202.7  11.1  34096  288.49 0855.21
2009/04/23 09:21:57.0    -119   -379    218    398    453 197.4  31.3  34108  288.70 0855.21
2009/04/23 09:21:57.1     -62   -307    134    314    341 191.6  24.6  34110  288.71 0855.20
2009/04/23 09:21:57.2      -7   -234    141    235    274 181.8  33.7  34108  288.68 0855.20
2009/04/23 09:21:57.3     -29   -328    137    330    357 185.1  23.8  34104  288.64 0855.20
2009/04/23 09:21:57.4      52   -278    113    283    304 169.4  23.0  34110  288.71 0855.20
2009/04/23 09:21:57.5       7   -218    173    219    279 178.0  42.4  34104  288.61 0855.20
2009/04/23 09:21:57.6       6   -145    154    146    212 177.3  51.6  34106  288.67 0855.20
2009/04/23 09:21:57.7      28     33    139     44    145  40.5  81.2  34114  288.80 0855.20
2009/04/23 09:21:57.8      -5     12    122     14    122 338.2  90.0  34112  288.77 0855.20
2009/04/23 09:21:57.9      88    -17    137     90    163 101.5  63.9  34112  288.75 0855.20
2009/04/23 09:21:58.0     -10    -69    104     70    125 188.9  62.7  34108  288.70 0855.20
2009/04/23 09:21:58.1     -25    -63    132     68    148 201.8  70.8  34108  288.69 0855.20
2009/04/23 09:21:58.2     -41      6     46     42     62 278.8  52.2  34106  288.67 0855.20
2009/04/23 09:21:58.3      90    -45     56    101    115 116.6  31.4  34108  288.69 0855.20
2009/04/23 09:21:58.4      63    -85     61    107    123 143.5  32.9  34106  288.65 0855.20
2009/04/23 09:21:58.5     -51   -141    -41    150    156 200.0 -15.5  34102  288.60 0855.20
2009/04/23 09:21:58.6     -34    -62     18     71     74 208.9  14.3  34106  288.67 0855.20
2009/04/23 09:21:58.7     -24    -86     27     90     95 196.0  16.8  34104  288.64 0855.20
2009/04/23 09:21:58.8      13   -215     -8    216    217 176.4  -2.2  34104  288.64 0855.20
2009/04/23 09:21:58.9      18   -222    -15    223    224 175.3  -3.9  34108  288.69 0855.20
2009/04/23 09:21:59.0      45   -205     -4    211    212 167.5  -1.3  34106  288.67 0855.20
2009/04/23 09:21:59.1      81   -223    -62    238    247 159.9 -14.7  34110  288.73 0855.20
2009/04/23 09:21:59.2      -2   -142      7    143    144 180.9   2.8  34106  288.65 0855.20
2009/04/23 09:21:59.3     -15   -106     91    108    141 188.5  44.3  34108  288.69 0855.20
2009/04/23 09:21:59.4     159   -159     61    226    235 135.0  15.3  34108  288.69 0855.20
2009/04/23 09:21:59.5     108   -192     57    221    229 150.6  14.5  34106  288.67 0855.20
2009/04/23 09:21:59.6     135   -144    102    198    222 136.8  29.3  34106  288.65 0855.20
2009/04/23 09:21:59.7     185   -231     92    297    312 141.3  17.3  34102  288.58 0855.20
2009/04/23 09:21:59.8     158   -228     95    278    294 145.3  18.9  34102  288.58 0855.20
2009/04/23 09:21:59.9     136   -176     82    223    237 142.1  21.0  34102  288.58 0855.20
2009/04/23 09:22:00.0     181   -201    103    271    289 137.9  21.7  34092  288.43 0855.20
2009/04/23 09:22:00.1     144   -152     98    210    231 136.7  27.1  34088  288.36 0855.20
2009/04/23 09:22:00.2     170   -234     90    290    304 144.0  17.3  34092  288.43 0855.20
2009/04/23 09:22:00.3      98   -284    133    301    329 160.8  25.6  34096  288.48 0855.20
2009/04/23 09:22:00.4     162   -322    142    361    387 153.3  22.7  34096  288.49 0855.20
2009/04/23 09:22:00.5     223   -322    126    392    412 145.3  17.9  34102  288.58 0855.20
2009/04/23 09:22:00.6      69   -347     19    354    355 168.7   3.1  34100  288.57 0855.20
2009/04/23 09:22:00.7      -6   -328    -14    329    330 181.1  -2.6  34100  288.54 0855.20
2009/04/23 09:22:00.8      42   -248    -34    252    255 170.4  -7.7  34100  288.54 0855.20
2009/04/23 09:22:00.9     214   -214     71    304    313 135.0  13.2  34100  288.54 0855.20
2009/04/23 09:22:01.0     210   -329     66    391    397 147.5   9.7  34096  288.50 0855.20
2009/04/23 09:22:01.1     154   -351     50    384    388 156.3   7.5  34096  288.50 0855.20
2009/04/23 09:22:01.2      66   -356     49    363    367 169.5   7.8  34098  288.52 0855.20
2009/04/23 09:22:01.3      13   -291     10    292    293 177.3   2.1  34094  288.46 0855.20
2009/04/23 09:22:01.4      70   -206    -42    218    223 161.1 -11.1  34098  288.52 0855.20
2009/04/23 09:22:01.5     131   -133    -39    188    193 135.5 -11.9  34098  288.53 0855.20
2009/04/23 09:22:01.6     130    -83    -29    155    158 122.4 -10.9  34100  288.57 0855.20
2009/04/23 09:22:01.7      78    -56    -20     97    100 125.5 -11.9  34100  288.57 0855.20
2009/04/23 09:22:01.8      88      0    -40     89     97  90.0 -30.1  34100  288.55 0855.20
2009/04/23 09:22:01.9      79     50    -12     94     95  57.6  -7.3  34100  288.55 0855.20
2009/04/23 09:22:02.0      72     77     21    106    109  43.3  11.1  34102  288.60 0855.20
2009/04/23 09:22:02.1      70     76     -5    104    105  42.3  -3.1  34102  288.60 0855.19
2009/04/23 09:22:02.2      56     64    -54     86    101  41.4 -39.9  34102  288.58 0855.19
2009/04/23 09:22:02.3      82     31    -28     88     92  69.2 -23.3  34102  288.58 0855.19
2009/04/23 09:22:02.4      99    -10     19    100    102  96.1  11.0  34096  288.48 0855.19
2009/04/23 09:22:02.5      91   -150    155    176    234 148.6  45.8  34098  288.52 0855.19
2009/04/23 09:22:02.6      76   -116    146    139    201 146.6  51.6  34098  288.53 0855.19
2009/04/23 09:22:02.7      44   -135    106    143    178 161.7  40.1  34098  288.53 0855.19
2009/04/23 09:22:02.8      78   -112    102    137    170 145.3  40.4  34096  288.48 0855.19
2009/04/23 09:22:02.9      -6    -45     80     46     92 188.0  67.2  34100  288.57 0855.19
2009/04/23 09:22:03.0     -31    -59     68     67     95 208.1  49.1  34098  288.53 0855.19
2009/04/23 09:22:03.1     -43     13     32     45     55 286.8  38.6  34100  288.57 0855.19
2009/04/23 09:22:03.2      26     29     -1     40     41  41.4  -2.2  34102  288.60 0855.19
2009/04/23 09:22:03.3      71     -6      8     72     73  95.2   6.9  34100  288.55 0855.19
2009/04/23 09:22:03.4      87      1     30     88     94  88.7  18.9  34098  288.53 0855.19
2009/04/23 09:22:03.5     108    -14     38    109    116  97.5  19.2  34100  288.55 0855.19
2009/04/23 09:22:03.6     122    -28     43    126    134 103.3  18.9  34098  288.53 0855.19
2009/04/23 09:22:03.7     147    -34     35    152    157 103.3  13.2  34098  288.52 0855.19
2009/04/23 09:22:03.8     153      6     28    154    157  87.4  10.6  34098  288.52 0855.19
2009/04/23 09:22:03.9     168      4     37    169    174  88.5  12.4  34098  288.52 0855.19
2009/04/23 09:22:04.0     182     -8     46    183    189  92.8  14.3  34098  288.52 0855.19
2009/04/23 09:22:04.1     174     16     61    175    186  84.5  19.4  34100  288.55 0855.19
2009/04/23 09:22:04.2     184      1     75    185    199  89.6  23.4  34098  288.53 0855.19
2009/04/23 09:22:04.3     202     20     62    204    214  84.1  17.1  34098  288.53 0855.19
2009/04/23 09:22:04.4     170     64    -55    182    191  69.2 -17.0  34100  288.55 0855.19
2009/04/23 09:22:04.6     118      2    -83    119    145  88.7 -42.4  34100  288.55 0855.19
2009/04/23 09:22:04.6     113    -40    -61    120    134 109.5 -33.6  34100  288.55 0855.19
2009/04/23 09:22:04.7     112    -30    -39    116    122 105.1 -23.6  34096  288.50 0855.19
2009/04/23 09:22:04.8     149    -25    -33    152    156  99.6 -12.4  34098  288.53 0855.19
2009/04/23 09:22:04.9     135     10    -36    136    141  85.7 -15.0  34098  288.53 0855.19
2009/04/23 09:22:05.0      85     -7    -32     86     91  94.8 -25.4  34100  288.55 0855.19
2009/04/23 09:22:05.1      58      4    -30     59     66  85.6 -33.7  34100  288.55 0855.19
2009/04/23 09:22:05.2     108     -8    -14    109    110  94.4  -7.3  34098  288.53 0855.19
2009/04/23 09:22:05.3     126      0    -28    127    131  90.0 -12.4  34100  288.57 0855.19
2009/04/23 09:22:05.4     180    -60     29    190    193 108.6   8.8  34100  288.57 0855.19
2009/04/23 09:22:05.5     215   -137     75    256    267 122.5  16.4  34100  288.56 0855.19
2009/04/23 09:22:05.6     100   -150    111    181    212 146.4  35.0  34104  288.62 0855.19
2009/04/23 09:22:05.7     152   -152    108    215    240 135.0  28.5  34102  288.58 0855.19
2009/04/23 09:22:05.8     266   -117    117    291    313 113.7  23.2  34104  288.61 0855.19
2009/04/23 09:22:05.9     264    -95    157    281    321 110.0  31.7  34104  288.61 0855.19
2009/04/23 09:22:06.0     229    -14    104    230    252  93.7  26.2  34102  288.58 0855.19
2009/04/23 09:22:06.1     140     33      7    144    145  76.7   2.8  34100  288.55 0855.20
2009/04/23 09:22:06.2     110     22    -33    113    117  78.5 -21.7  34100  288.55 0855.20
2009/04/23 09:22:06.3     129    -40     -9    136    137 107.3  -4.1  34100  288.57 0855.20
2009/04/23 09:22:06.4     149    -37     62    154    166 104.2  23.4  34104  288.64 0855.20
2009/04/23 09:22:06.5     127    -70     65    146    159 118.8  25.7  34102  288.60 0855.20
2009/04/23 09:22:06.6     136    -91     29    164    167 123.7  10.1  34104  288.64 0855.20
2009/04/23 09:22:06.7     123    -72    -38    143    149 120.6 -15.0  34102  288.58 0855.20
2009/04/23 09:22:06.8      74    -52     35     91     97 125.1  21.5  34102  288.60 0855.20
2009/04/23 09:22:06.9     112     -8     30    113    118  94.3  15.2  34100  288.57 0855.20
2009/04/23 09:22:07.0      71    -14     39     73     82 101.5  30.3  34104  288.64 0855.20
2009/04/23 09:22:07.1     -15     -4     51     16     53 254.9  80.7  34104  288.62 0855.20
2009/04/23 09:22:07.2    -102     24     24    105    108 283.7  13.2  34104  288.64 0855.20
2009/04/23 09:22:07.3    -250    -52     17    256    257 258.1   3.8  34112  288.75 0855.20
2009/04/23 09:22:07.4    -291     92    -68    306    314 287.7 -12.7  34112  288.76 0855.20
2009/04/23 09:22:07.5    -144    157     73    214    227 317.5  18.9  34106  288.65 0855.20
2009/04/23 09:22:07.6    -109    -25     38    113    120 256.7  18.9  34106  288.65 0855.20
2009/04/23 09:22:07.7       3    -74    137     75    156 177.3  69.1  34104  288.62 0855.20
2009/04/23 09:22:07.8       8     25    134     27    136  18.7  89.1  34106  288.67 0855.20
2009/04/23 09:22:07.9      76    -84    166    114    201 138.1  62.6  34106  288.65 0855.20
2009/04/23 09:22:08.0      -9   -173    178    174    248 183.1  50.4  34104  288.64 0855.20
2009/04/23 09:22:08.1      34   -135    189    140    235 165.7  59.8  34100  288.57 0855.20
2009/04/23 09:22:08.2      -2   -135    200    136    241 180.9  62.7  34102  288.58 0855.20
2009/04/23 09:22:08.4      63   -114    148    131    197 151.0  54.0  34102  288.58 0855.20
2009/04/23 09:22:08.5     160    -76    164    178    242 115.3  47.7  34102  288.60 0855.20
2009/04/23 09:22:08.6      77   -212    262    226    346 160.0  54.9  34106  288.66 0855.20
2009/04/23 09:22:08.7      65   -342    192    349    398 169.2  31.3  34104  288.64 0855.20
2009/04/23 09:22:08.8      -2   -314    234    315    392 180.5  40.4  34102  288.59 0855.20
2009/04/23 09:22:08.9     -43   -217    233    222    321 191.3  51.5  34106  288.66 0855.20
2009/04/23 09:22:09.0      15   -196    125    197    233 175.6  35.5  34104  288.62 0855.20
2009/04/23 09:22:09.1      42   -321    142    324    353 172.4  25.2  34106  288.67 0855.20
2009/04/23 09:22:09.2     -53   -350    125    355    377 188.7  19.4  34102  288.59 0855.20
2009/04/23 09:22:09.3     -80   -346    107    356    372 193.0  16.8  34106  288.67 0855.20
2009/04/23 09:22:09.4     -98   -403     84    415    424 193.8  11.4  34100  288.55 0855.20
2009/04/23 09:22:09.5    -122   -396     68    415    421 197.2   9.3  34094  288.46 0855.20
2009/04/23 09:22:09.6       0   -354    111    355    373 180.0  17.4  34108  288.69 0855.20
2009/04/23 09:22:09.7     194   -377    137    425    447 152.7  17.9  34102  288.58 0855.20
2009/04/23 09:22:09.8     315   -412     54    519    522 142.6   6.0  34102  288.60 0855.20
2009/04/23 09:22:09.9     316   -325     56    454    458 135.8   7.1  34102  288.60 0855.20
2009/04/23 09:22:10.0      93   -293    -32    308    310 162.4  -6.0  34092  288.43 0855.20
2009/04/23 09:22:10.1     206   -292     10    358    359 144.7   1.6  34106  288.66 0855.20
2009/04/23 09:22:10.2     108   -333    -68    351    358 162.0 -11.0  34100  288.55 0855.20
2009/04/23 09:22:10.3      87   -245    -35    261    264 160.4  -7.7  34102  288.59 0855.20
2009/04/23 09:22:10.4      10   -164     46    165    172 176.2  15.6  34100  288.57 0855.20
2009/04/23 09:22:10.5     -98   -161    149    189    240 211.4  42.4  34104  288.64 0855.20
2009/04/23 09:22:10.6     -74    -52    136     91    163 234.5  63.4  34106  288.67 0855.20
2009/04/23 09:22:10.7    -156    -82    115    177    211 242.2  35.7  34104  288.64 0855.20
2009/04/23 09:22:10.8      63    -63    150     90    174 135.0  66.0  34110  288.74 0855.20
2009/04/23 09:22:10.9      27    -37    158     46    164 143.9  83.1  34106  288.67 0855.20
2009/04/23 09:22:11.0      55     20    142     59    153  69.2  77.0  34112  288.75 0855.20
2009/04/23 09:22:11.1      33     42    161     54    169  38.7  81.0  34108  288.70 0855.20
2009/04/23 09:22:11.2       5     70    145     71    161   4.5  72.1  34116  288.82 0855.20
2009/04/23 09:22:11.3     -75     47    104     89    136 302.4  55.4  34112  288.75 0855.20
2009/04/23 09:22:11.4       9     41    122     42    129  12.5  81.2  34110  288.72 0855.20
2009/04/23 09:22:11.5     -14     85    124     87    151 350.2  61.5  34108  288.70 0855.20
2009/04/23 09:22:11.6     -85    134     95    160    186 327.5  33.7  34102  288.58 0855.20
2009/04/23 09:22:11.7     -55    202      4    210    211 344.8   1.2  34106  288.65 0855.20
2009/04/23 09:22:11.8    -114    227     -1    255    256 333.3  -0.3  34106  288.66 0855.20
2009/04/23 09:22:11.9    -140    109     21    178    180 307.8   6.9  34102  288.58 0855.20
2009/04/23 09:22:12.0    -191    191     86    271    285 315.0  17.7  34106  288.66 0855.20
2009/04/23 09:22:12.1    -164    200     51    259    265 320.6  11.1  34104  288.63 0855.20
2009/04/23 09:22:12.2     -42    158     95    164    189 345.1  32.7  34106  288.65 0855.21
2009/04/23 09:22:12.3      12    167    126    168    210   4.4  40.9  34110  288.72 0855.21
2009/04/23 09:22:12.4      -4    139    111    140    178 358.2  42.4  34114  288.80 0855.21
2009/04/23 09:22:12.5      48    130     89    139    165  20.5  35.6  34116  288.82 0855.21
2009/04/23 09:22:12.6       7    202     36    203    207   2.2  10.1  34120  288.89 0855.21
2009/04/23 09:22:12.7     -28    192     10    195    196 351.5   3.1  34110  288.74 0855.21
2009/04/23 09:22:12.8     -26    236    105    238    260 353.7  25.2  34114  288.78 0855.21
2009/04/23 09:22:12.9       6    168     15    169    170   2.2   5.2  34110  288.74 0855.21
2009/04/23 09:22:13.0     -67    256    -28    265    267 345.3  -6.2  34114  288.78 0855.21
2009/04/23 09:22:13.1     -51    181     14    189    190 344.2   4.4  34122  288.92 0855.21
2009/04/23 09:22:13.2     -44    164    178    170    246 344.9  51.4  34132  289.11 0855.21
2009/04/23 09:22:13.3     -32    177    183    181    257 349.5  50.2  34144  289.29 0855.21
2009/04/23 09:22:13.4       9    147    131    148    197   3.6  46.2  34140  289.23 0855.21
2009/04/23 09:22:13.5     -13    153     68    154    168 355.1  25.3  34134  289.13 0855.21
2009/04/23 09:22:13.6     -63    190    102    201    225 341.5  28.7  34128  289.04 0855.21
2009/04/23 09:22:13.7     -94    167     72    192    205 330.6  21.0  34142  289.26 0855.21
2009/04/23 09:22:13.8      33    123     59    128    140  15.2  26.6  34140  289.24 0855.21
2009/04/23 09:22:13.9      38    112     36    119    125  18.7  16.8  34152  289.45 0855.21
2009/04/23 09:22:14.0     -22    184     77    186    201 353.1  23.6  34158  289.53 0855.21
2009/04/23 09:22:14.1     -65    138     75    153    170 334.7  28.0  34158  289.53 0855.21
2009/04/23 09:22:14.2      -8    131     27    132    135 356.4  11.6  34152  289.43 0855.20
2009/04/23 09:22:14.3    -100    113     20    152    154 318.6   7.8  34164  289.65 0855.20
2009/04/23 09:22:14.4    -168     90      5    191    192 298.2   1.6  34146  289.35 0855.20
2009/04/23 09:22:14.5    -135     80     33    157    161 300.7  12.2  34148  289.36 0855.20
2009/04/23 09:22:14.6    -170     52      5    178    179 287.1   1.8  34152  289.43 0855.20
2009/04/23 09:22:14.7    -161     45     22    168    170 285.7   7.5  34142  289.28 0855.20
2009/04/23 09:22:14.8    -155     -2    -14    156    157 269.1  -5.4  34124  288.97 0855.20
2009/04/23 09:22:14.9    -151    -77     79    170    187 243.0  27.0  34126  289.01 0855.20
2009/04/23 09:22:15.0    -176    -49    103    183    209 254.3  31.9  34126  288.99 0855.20
2009/04/23 09:22:15.1    -190    -40    117    195    227 258.1  34.0  34116  288.82 0855.20
2009/04/23 09:22:15.2    -227    -53     80    234    248 256.8  18.9  34122  288.93 0855.20
2009/04/23 09:22:15.3    -237     -7     67    238    248 268.3  15.8  34120  288.88 0855.20
2009/04/23 09:22:15.4    -219    -23     51    221    227 263.9  13.2  34114  288.80 0855.20
2009/04/23 09:22:15.5    -218     88     81    236    250 292.0  18.9  34116  288.81 0855.20
2009/04/23 09:22:15.6    -114    122     85    168    188 317.0  28.7  34126  289.01 0855.20
2009/04/23 09:22:15.7    -100    121     62    158    169 320.3  22.3  34132  289.09 0855.20
2009/04/23 09:22:15.8    -109     85     74    139    157 307.7  30.1  34130  289.06 0855.20
2009/04/23 09:22:15.9    -116     44     53    125    135 290.8  24.6  34126  288.99 0855.20
2009/04/23 09:22:16.0     -84     53     35    100    107 302.4  19.4  34128  289.02 0855.20
2009/04/23 09:22:16.1    -141    104      0    176    177 306.4   0.2  34124  288.96 0855.20
2009/04/23 09:22:16.2    -104     78    -36    130    135 306.9 -15.5  34120  288.89 0855.20
2009/04/23 09:22:16.3    -110     93    -18    145    147 310.4  -7.3  34118  288.86 0855.20
2009/04/23 09:22:16.4     -97     87    -40    131    136 312.2 -21.8  34114  288.80 0855.20
2009/04/23 09:22:16.5     -83     55    -30    100    105 303.7 -16.6  34122  288.94 0855.20
2009/04/23 09:22:16.6    -132     63    -14    147    148 295.4  -5.6  34124  288.97 0855.20
2009/04/23 09:22:16.7    -132     84     22    157    159 302.4   8.0  34132  289.09 0855.20
2009/04/23 09:22:16.8    -134    111     34    175    179 309.6  11.1  34130  289.08 0855.20
2009/04/23 09:22:16.9     -96    109     95    146    174 318.6  35.7  34132  289.11 0855.20
2009/04/23 09:22:17.0     -66    139     98    154    182 334.5  35.5  34134  289.14 0855.20
2009/04/23 09:22:17.1      13     66     87     68    110  11.5  57.9  34128  289.02 0855.20
2009/04/23 09:22:17.2     -94    -88     94    130    160 226.8  39.7  34122  288.92 0855.20
2009/04/23 09:22:17.3     -66   -183    161    195    252 200.0  43.7  34116  288.83 0855.20
2009/04/23 09:22:17.4    -112   -176    154    209    259 212.6  39.9  34112  288.76 0855.20
2009/04/23 09:22:17.5    -135   -165    129    214    249 219.2  34.0  34114  288.78 0855.20
2009/04/23 09:22:17.6     -99   -209    152    232    277 205.4  36.5  34118  288.85 0855.20
2009/04/23 09:22:17.7     -94   -148    100    176    202 212.3  32.4  34116  288.84 0855.20
2009/04/23 09:22:17.8    -136   -144     98    199    221 223.3  28.0  34114  288.80 0855.20
2009/04/23 09:22:17.9     -68   -143    159    159    224 205.4  50.1  34114  288.80 0855.20
2009/04/23 09:22:18.0     -17    -99    166    101    194 190.2  65.4  34112  288.75 0855.20
2009/04/23 09:22:18.1       2   -138    180    139    227 179.0  58.5  34110  288.74 0855.20
2009/04/23 09:22:18.2     -14   -276     71    277    287 182.9  14.5  34108  288.68 0855.19
2009/04/23 09:22:18.3     -42   -280    108    284    303 188.7  22.0  34108  288.70 0855.19
2009/04/23 09:22:18.4     -52   -227    182    233    295 192.9  41.7  34100  288.54 0855.19
2009/04/23 09:22:18.5      29   -146    161    149    219 168.5  52.2  34100  288.55 0855.19
2009/04/23 09:22:18.6      46   -270    184    275    330 170.2  36.7  34098  288.51 0855.19
2009/04/23 09:22:18.7      17   -242    155    243    288 175.8  35.6  34098  288.53 0855.19
2009/04/23 09:22:18.8      24   -234     81    236    250 174.0  18.9  34098  288.51 0855.19
2009/04/23 09:22:18.9      10   -232     81    233    247 177.3  19.2  34098  288.53 0855.19
2009/04/23 09:22:19.0     -20   -266     73    267    277 184.5  15.3  34104  288.63 0855.19
2009/04/23 09:22:19.1      19   -248     36    249    252 175.5   8.2  34104  288.61 0855.19
2009/04/23 09:22:19.2      36   -219     17    222    223 170.7   4.6  34108  288.69 0855.19
2009/04/23 09:22:19.3      32   -199     -4    202    203 170.7  -1.2  34108  288.70 0855.19
2009/04/23 09:22:19.4       0   -204     -1    205    206 180.2  -0.5  34104  288.62 0855.19
2009/04/23 09:22:19.5      19   -200     -2    201    202 174.4  -0.7  34104  288.64 0855.19
2009/04/23 09:22:19.6     -55   -215     18    223    224 194.5   4.9  34100  288.57 0855.19
2009/04/23 09:22:19.7    -135   -228     20    265    266 210.7   4.4  34102  288.58 0855.19
2009/04/23 09:22:19.8     -96   -220     11    241    242 203.7   2.8  34102  288.58 0855.19
2009/04/23 09:22:19.9     -51   -233      2    239    240 192.5   0.5  34102  288.58 0855.19
2009/04/23 09:22:20.0     -28   -200     -2    203    204 188.0  -0.7  34102  288.58 0855.19
2009/04/23 09:22:20.1      11   -190     60    191    201 176.6  17.4  34100  288.57 0855.19
2009/04/23 09:22:20.2     -24   -145     11    148    149 189.7   4.4  34104  288.64 0855.20
2009/04/23 09:22:20.3      38   -168     95    173    197 167.1  31.4  34098  288.53 0855.20
2009/04/23 09:22:20.4      48   -223    112    229    254 167.7  28.0  34104  288.61 0855.20
2009/04/23 09:22:20.5      67   -185     74    198    211 160.0  21.3  34104  288.62 0855.20
2009/04/23 09:22:20.6      77   -218     60    232    240 160.6  14.7  34104  288.63 0855.20
2009/04/23 09:22:20.7      33   -206     62    209    219 170.9  16.6  34104  288.62 0855.20
2009/04/23 09:22:20.8      37   -178      9    182    183 168.2   2.9  34104  288.62 0855.20
2009/04/23 09:22:20.9      79   -133     24    155    157 149.3   9.0  34104  288.62 0855.20
2009/04/23 09:22:21.0      64   -161      8    174    175 158.2   2.9  34104  288.62 0855.20
2009/04/23 09:22:21.1      46   -141    -35    149    154 161.7 -13.2  34102  288.58 0855.20
2009/04/23 09:22:21.2       3   -127     29    128    132 178.6  13.1  34104  288.62 0855.20
2009/04/23 09:22:21.3      17   -119     39    121    128 171.9  17.9  34100  288.55 0855.20
2009/04/23 09:22:21.4     -81    -86     -4    119    120 223.3  -2.2  34102  288.58 0855.20
2009/04/23 09:22:21.5     -94    -58     11    111    112 238.5   5.9  34102  288.60 0855.20
2009/04/23 09:22:21.6    -101    -33      5    107    108 251.8   2.9  34098  288.53 0855.20
2009/04/23 09:22:21.7     -63    -54     24     84     88 229.6  16.3  34102  288.60 0855.20
2009/04/23 09:22:21.8     -68    -49     79     85    116 234.0  48.0  34104  288.62 0855.20
2009/04/23 09:22:21.9    -120    -39     67    127    143 251.8  30.3  34100  288.57 0855.20
2009/04/23 09:22:22.0     -97     -7     48     98    109 265.7  27.8  34102  288.60 0855.20
2009/04/23 09:22:22.1     -92   -167     34    191    195 209.0  10.1  34098  288.52 0855.20
2009/04/23 09:22:22.2     -77   -135     -7    156    157 209.9  -2.6  34094  288.45 0855.20
2009/04/23 09:22:22.3     -58    -78     -5     98     99 216.5  -3.1  34092  288.43 0855.20
2009/04/23 09:22:22.4     -88    -82     57    121    133 226.8  27.2  34096  288.50 0855.20
2009/04/23 09:22:22.5     -52   -156     -5    165    166 198.7  -1.8  34094  288.47 0855.20
2009/04/23 09:22:22.6      -2    -94    -30     95     99 181.8 -22.8  34096  288.48 0855.20
2009/04/23 09:22:22.7       2    -46    -12     47     49 176.4 -14.5  34094  288.47 0855.20
2009/04/23 09:22:22.8      -3     -7      8      8     11 205.4  50.1  34096  288.48 0855.20
2009/04/23 09:22:22.9     -21     13      3     25     26 302.5   6.9  34096  288.48 0855.20
2009/04/23 09:22:23.0      -3     31     -4     32     33 353.8  -7.3  34096  288.48 0855.20
2009/04/23 09:22:23.1       4     31     17     32     36   8.0  29.3  34096  288.48 0855.20
2009/04/23 09:22:23.2      31      0      5     32     33  90.8   9.0  34096  288.48 0855.18
2009/04/23 09:22:23.3      34     -6      6     35     36 101.5  11.1  34094  288.47 0855.18
2009/04/23 09:22:23.4      -1    -11     31     12     33 188.0  81.2  34094  288.47 0855.18
2009/04/23 09:22:23.5     -63    -85     15    107    109 216.5   8.0  34096  288.48 0855.18
2009/04/23 09:22:23.6    -110   -103     -5    152    153 226.9  -2.2  34096  288.48 0855.18
2009/04/23 09:22:23.7    -187    -63    -65    198    208 251.2 -23.6  34098  288.52 0855.18
2009/04/23 09:22:23.8    -188    -58   -152    197    248 252.7 -46.1  34096  288.48 0855.18
2009/04/23 09:22:23.9    -197   -216   -106    293    311 222.3 -24.8  34096  288.49 0855.18
2009/04/23 09:22:24.0    -215   -222    -99    310    325 224.1 -22.8  34094  288.46 0855.18
2009/04/23 09:22:24.1    -190   -162   -116    250    275 229.6 -31.0  34096  288.49 0855.18
2009/04/23 09:22:24.2    -223    -44    -46    228    233 258.8 -11.6  34098  288.52 0855.18
2009/04/23 09:22:24.3    -108   -145    -99    182    207 216.7 -35.4  34094  288.45 0855.18
2009/04/23 09:22:24.4    -165   -105    -63    196    207 237.6 -17.9  34100  288.55 0855.18
2009/04/23 09:22:24.5    -227   -145    -54    270    276 237.5 -11.3  34104  288.61 0855.18
2009/04/23 09:22:24.6    -102   -159    -27    190    193 212.7  -8.2  34098  288.53 0855.18
2009/04/23 09:22:24.7     -77   -104    -55    130    141 216.5 -28.5  34098  288.53 0855.18
2009/04/23 09:22:24.8    -180   -101    -83    207    223 240.7 -27.4  34102  288.58 0855.18
2009/04/23 09:22:24.9    -158    -27    -47    161    167 260.3 -21.2  34102  288.58 0855.18
2009/04/23 09:22:25.0    -227    -25      3    229    230 263.6   0.8  34102  288.60 0855.18
2009/04/23 09:22:25.1    -307    -78     37    317    320 255.6   6.7  34102  288.59 0855.18
2009/04/23 09:22:25.2    -302   -129     -6    329    330 246.9  -1.1  34100  288.54 0855.18
2009/04/23 09:22:25.3    -342   -114    -45    361    364 251.4  -7.2  34102  288.59 0855.18
2009/04/23 09:22:25.4    -290   -160     75    332    341 241.1  12.8  34094  288.44 0855.18
2009/04/23 09:22:25.5    -122   -106    112    162    196 229.1  38.0  34096  288.48 0855.18
2009/04/23 09:22:25.6    -155    -63     64    168    179 247.8  21.7  34096  288.48 0855.18
2009/04/23 09:22:25.7    -143     63      2    157    158 294.0   1.0  34098  288.53 0855.18
2009/04/23 09:22:25.8     -96     69    -16    119    121 306.0  -7.7  34100  288.55 0855.18
2009/04/23 09:22:25.9     -68    -15     -9     70     71 257.6  -7.3  34098  288.52 0855.18
2009/04/23 09:22:26.0     -75   -114     21    137    139 213.4   9.0  34098  288.53 0855.18
2009/04/23 09:22:26.1    -102   -154     77    185    200 213.6  23.8  34096  288.50 0855.18
2009/04/23 09:22:26.2     -75   -149      8    167    168 206.7   2.9  34098  288.53 0855.18
2009/04/23 09:22:26.3    -121    -62    -99    137    169 242.9 -44.1  34100  288.57 0855.18
2009/04/23 09:22:26.4    -217   -138    -42    258    262 237.6  -9.3  34104  288.61 0855.18
2009/04/23 09:22:26.5    -219    -88   -118    237    264 248.2 -32.6  34100  288.56 0855.18
2009/04/23 09:22:26.6    -229     -1    -76    230    242 269.6 -23.8  34100  288.56 0855.18
2009/04/23 09:22:26.7    -226    -20   -100    227    248 264.8 -29.6  34100  288.54 0855.18
2009/04/23 09:22:26.8    -201      0   -145    202    248 270.0 -43.7  34100  288.56 0855.18
2009/04/23 09:22:26.9     -62     74    -94     97    135 319.9 -54.3  34098  288.53 0855.18
2009/04/23 09:22:27.0     -57    131    -96    144    173 336.4 -40.9  34098  288.52 0855.18
2009/04/23 09:22:27.1     -43    129    -48    137    145 341.3 -23.3  34102  288.58 0855.18
2009/04/23 09:22:27.2     -75     58    -51     95    107 307.8 -34.7  34100  288.55 0855.18
2009/04/23 09:22:27.3       2     86    -24     87     91   1.8 -15.5  34100  288.57 0855.18
2009/04/23 09:22:27.4       7     97     49     98    109   4.5  28.2  34100  288.55 0855.18
2009/04/23 09:22:27.5      36     65     42     75     85  29.0  31.9  34102  288.58 0855.18
2009/04/23 09:22:27.6      33     60      5     69     70  28.9   4.9  34102  288.60 0855.18
2009/04/23 09:22:27.7       6     84     35     85     91   4.5  23.6  34102  288.60 0855.18
2009/04/23 09:22:27.8      -2    120     83    121    146 358.6  38.0  34100  288.57 0855.18
2009/04/23 09:22:27.9      41    105     90    113    144  21.4  42.7  34104  288.62 0855.18
2009/04/23 09:22:28.0      64     56    116     86    144  48.7  60.5  34106  288.65 0855.18
2009/04/23 09:22:28.1      41     43    104     60    120  44.1  67.2  34104  288.64 0855.18
2009/04/23 09:22:28.2     -46     -4     60     47     76 264.8  57.5  34106  288.65 0855.18
2009/04/23 09:22:28.3      26     42     77     50     91  31.6  64.6  34100  288.55 0855.18
2009/04/23 09:22:28.5     132     97    108    164    196  53.6  36.5  34102  288.60 0855.18
2009/04/23 09:22:28.5      90     90    113    128    170  45.0  45.8  34104  288.62 0855.18
2009/04/23 09:22:28.6     107     51    105    119    158  64.6  46.4  34102  288.60 0855.18
2009/04/23 09:22:28.7     113     38     87    120    148  71.4  39.7  34104  288.62 0855.18
2009/04/23 09:22:28.8     111      3    123    112    166  88.3  53.0  34106  288.65 0855.18
2009/04/23 09:22:28.9      37    -33     87     50    100 132.2  67.7  34106  288.65 0855.18
2009/04/23 09:22:29.0     104    -80     91    132    160 127.7  38.0  34104  288.62 0855.18
2009/04/23 09:22:29.1     135    -44    116    143    184 108.2  43.3  34104  288.62 0855.18
2009/04/23 09:22:29.2      91    -91     73    130    149 135.0  31.4  34104  288.62 0855.18
2009/04/23 09:22:29.3      86   -113     63    143    156 142.6  25.2  34102  288.58 0855.18
2009/04/23 09:22:29.4      75   -128     84    149    171 149.7  31.9  34098  288.53 0855.18
2009/04/23 09:22:29.5      59   -169     71    180    193 160.6  22.5  34098  288.53 0855.18
2009/04/23 09:22:29.6      31   -176     64    179    190 170.0  20.0  34100  288.57 0855.18
2009/04/23 09:22:29.7      68   -218    121    229    259 162.6  30.2  34096  288.49 0855.18
2009/04/23 09:22:29.8     129   -203    194    241    309 147.5  43.3  34098  288.53 0855.18
2009/04/23 09:22:29.9     115   -220    230    249    338 152.4  47.7  34104  288.63 0855.18
2009/04/23 09:22:30.0      29   -207    166    210    267 172.0  42.7  34098  288.53 0855.18
2009/04/23 09:22:30.1      24   -175    107    177    206 172.2  34.2  34102  288.58 0855.18
2009/04/23 09:22:30.2      77   -120     69    143    158 147.4  27.8  34098  288.53 0855.18
2009/04/23 09:22:30.3     103    -95     49    141    150 132.7  19.4  34100  288.55 0855.18
2009/04/23 09:22:30.4      72    -64     86     97    129 131.8  45.8  34102  288.58 0855.18
2009/04/23 09:22:30.5      47   -134     66    143    157 160.4  26.4  34102  288.58 0855.18
2009/04/23 09:22:30.6      48   -179     85    186    204 164.8  26.2  34096  288.50 0855.18
2009/04/23 09:22:30.7      24   -221    137    223    261 173.7  34.8  34100  288.56 0855.18
2009/04/23 09:22:30.8     -14   -201    112    202    230 184.2  31.4  34094  288.47 0855.18
2009/04/23 09:22:30.9     -28   -110    135    114    176 194.7  55.6  34100  288.57 0855.18
2009/04/23 09:22:31.0      -2    -93    146     94    173 181.4  64.6  34094  288.47 0855.18
2009/04/23 09:22:31.2       6   -114    173    115    207 176.9  63.4  34104  288.62 0855.18
2009/04/23 09:22:31.2      57   -181    170    190    254 162.4  46.6  34102  288.59 0855.18
2009/04/23 09:22:31.3     -23   -249    146    251    290 185.3  33.1  34102  288.59 0855.18
2009/04/23 09:22:31.4       2   -298    108    299    317 179.5  20.7  34104  288.61 0855.18
2009/04/23 09:22:31.5      26   -308     58    310    316 175.1  10.6  34100  288.56 0855.18
2009/04/23 09:22:31.6       4   -262     67    263    272 179.1  14.3  34102  288.58 0855.18
2009/04/23 09:22:31.7       0   -212     66    213    224 180.2  17.3  34102  288.58 0855.18
2009/04/23 09:22:31.8     -17   -112     74    114    135 188.9  35.6  34102  288.60 0855.18
2009/04/23 09:22:31.9      17    -92     32     94    100 169.3  19.2  34106  288.65 0855.18
2009/04/23 09:22:32.0     -15    -45     18     48     51 198.5  21.0  34102  288.58 0855.18
2009/04/23 09:22:32.1     -62      8    -50     63     80 277.9 -47.1  34108  288.69 0855.18
2009/04/23 09:22:32.2      -5    -37    -53     38     65 188.0 -65.0  34112  288.75 0855.18
2009/04/23 09:22:32.3     -40    -33     66     52     84 230.5  57.9  34112  288.77 0855.18
2009/04/23 09:22:32.4    -117   -182      0    217    218 212.7   0.0  34106  288.67 0855.18
2009/04/23 09:22:32.5    -230   -203     80    307    318 228.6  14.7  34102  288.59 0855.18
2009/04/23 09:22:32.6    -185   -212    -35    282    285 221.0  -7.2  34112  288.75 0855.18
2009/04/23 09:22:32.7    -282   -151    -91    320    332 241.8 -20.4  34116  288.81 0855.18
2009/04/23 09:22:32.8    -295   -207   -129    361    384 234.9 -19.7  34120  288.89 0855.18
2009/04/23 09:22:32.9    -377   -199    -92    427    437 242.1 -12.2  34110  288.72 0855.18
2009/04/23 09:22:33.0    -331   -197     -1    386    387 239.2  -0.2  34112  288.76 0855.18
2009/04/23 09:22:33.1    -345   -148   -107    376    391 246.7 -15.9  34112  288.77 0855.18
2009/04/23 09:22:33.2    -311   -206   -112    374    390 236.4 -21.7  34108  288.69 0855.16
2009/04/23 09:22:33.3    -270   -107   -123    291    315 248.3 -28.7  34110  288.73 0855.16
2009/04/23 09:22:33.4    -201     33   -164    204    261 279.5 -47.2  34114  288.78 0855.16
2009/04/23 09:22:33.5    -225     23    -78    227    241 275.9 -19.1  34108  288.70 0855.16
2009/04/23 09:22:33.6    -105   -176    -24    205    207 210.8  -6.9  34112  288.75 0855.16
2009/04/23 09:22:33.7    -127   -110    -15    169    170 229.1  -5.2  34112  288.75 0855.16
2009/04/23 09:22:33.8     -98   -118     62    154    166 219.6  23.4  34112  288.77 0855.16
2009/04/23 09:22:33.9    -223   -175     55    284    290 231.8  11.0  34120  288.90 0855.16
2009/04/23 09:22:34.0    -287   -128    -10    315    316 246.0  -1.9  34114  288.78 0855.16
2009/04/23 09:22:34.1    -411    -37      6    413    414 264.8   0.9  34108  288.70 0855.16
2009/04/23 09:22:34.2    -388    -12     17    389    390 268.2   2.5  34116  288.81 0855.16
2009/04/23 09:22:34.3    -405     -8    -11    406    407 268.7  -1.6  34120  288.89 0855.16
2009/04/23 09:22:34.4    -422   -142     59    446    450 251.4   7.6  34116  288.83 0855.16
2009/04/23 09:22:34.5    -399   -164    -23    432    433 247.6  -3.1  34110  288.72 0855.16
2009/04/23 09:22:34.6    -276   -184    -70    332    340 236.3 -11.9  34112  288.76 0855.16
2009/04/23 09:22:34.7    -309   -137    -56    339    344 246.0  -9.5  34116  288.82 0855.16
2009/04/23 09:22:34.8    -348   -126    -96    371    384 250.1 -14.5  34116  288.81 0855.16
2009/04/23 09:22:34.9    -345   -171    -95    386    398 243.6 -13.9  34116  288.84 0855.16
2009/04/23 09:22:35.0    -383   -185    -99    426    438 244.1 -13.2  34110  288.72 0855.16
2009/04/23 09:22:35.1    -393    -74     -4    401    402 259.3  -0.6  34118  288.86 0855.16
2009/04/23 09:22:35.2    -390    -43      6    393    394 263.7   1.0  34118  288.86 0855.17
2009/04/23 09:22:35.3    -418    -91    -57    429    433 257.6  -7.7  34122  288.92 0855.17
2009/04/23 09:22:35.4    -358    -39    -10    361    362 263.6  -1.7  34126  288.99 0855.17
2009/04/23 09:22:35.6    -164   -114     69    201    213 235.1  19.2  34112  288.77 0855.17
2009/04/23 09:22:35.6     -65   -134    100    150    180 205.9  37.0  34114  288.80 0855.17
2009/04/23 09:22:35.7     -85    -54     75    101    125 237.5  40.1  34112  288.75 0855.17
2009/04/23 09:22:35.8     -81   -128     11    152    153 212.6   4.4  34114  288.80 0855.17
2009/04/23 09:22:36.0     -58   -123     21    137    139 205.3   9.0  34114  288.79 0855.17
2009/04/23 09:22:36.0     -45    -75     65     88    109 211.2  39.7  34116  288.84 0855.17
2009/04/23 09:22:36.2     -32    -84     45     91    101 200.9  28.2  34118  288.86 0855.17
2009/04/23 09:22:36.3     -12     28     50     31     58 336.4  64.7  34120  288.89 0855.17
2009/04/23 09:22:36.4     -41     79    -10     90     91 332.4  -6.7  34118  288.86 0855.17
2009/04/23 09:22:36.5     -13    114    -27    115    119 353.3 -13.3  34120  288.89 0855.17
2009/04/23 09:22:36.6       3    101    -35    102    108   1.8 -19.1  34118  288.87 0855.17
2009/04/23 09:22:36.7     -17     64    -45     67     80 344.9 -42.0  34118  288.87 0855.17
2009/04/23 09:22:36.8     -80     23    -81     84    116 285.9 -53.8  34114  288.80 0855.17
2009/04/23 09:22:36.9    -299      8   -150    300    335 271.7 -32.9  34114  288.80 0855.17
2009/04/23 09:22:37.0    -391     30   -216    393    448 274.5 -35.7  34112  288.77 0855.17
2009/04/23 09:22:37.1    -292     88    -60    306    312 286.8 -11.1  34112  288.75 0855.17
2009/04/23 09:22:37.2    -351     68     33    358    360 281.0   5.3  34116  288.84 0855.17
2009/04/23 09:22:37.3    -277     45     44    281    285 279.2   8.9  34116  288.81 0855.16
2009/04/23 09:22:37.4    -206      1     -9    207    208 270.4  -2.6  34116  288.84 0855.16
2009/04/23 09:22:37.5    -173     48    -36    180    184 285.5 -11.3  34114  288.79 0855.16
2009/04/23 09:22:37.6    -126     49     42    136    143 291.3  17.4  34112  288.77 0855.16
2009/04/23 09:22:37.7     -65     41     70     78    104 302.4  46.9  34116  288.82 0855.16
2009/04/23 09:22:37.8     -68     25     62     73     95 290.8  44.3  34118  288.86 0855.16
2009/04/23 09:22:37.9     -78    131    -19    153    155 329.2  -7.2  34112  288.75 0855.16
2009/04/23 09:22:38.0    -133     55    -26    145    148 292.6 -10.3  34118  288.86 0855.16
2009/04/23 09:22:38.1    -244     20    -71    245    255 274.8 -20.8  34114  288.80 0855.16
2009/04/23 09:22:38.2    -362    -80   -181    371    412 257.5 -32.4  34116  288.82 0855.16
2009/04/23 09:22:38.3    -245   -153    -58    290    296 238.0 -11.3  34114  288.78 0855.16
2009/04/23 09:22:38.4    -220    -55    -55    227    234 255.8 -13.7  34114  288.80 0855.16
2009/04/23 09:22:38.5    -282    -30    -48    284    289 263.9  -9.6  34118  288.87 0855.16
2009/04/23 09:22:38.6    -202    -30    -55    205    213 261.4 -15.0  34114  288.80 0855.16
2009/04/23 09:22:38.7    -192    -90     -4    213    214 244.9  -1.3  34120  288.89 0855.16
2009/04/23 09:22:38.8    -167    -91      5    191    192 241.4   1.8  34116  288.82 0855.16
2009/04/23 09:22:38.9    -166    -40    -29    171    174 256.3  -9.6  34118  288.87 0855.16
2009/04/23 09:22:39.0    -199    -21    -37    201    205 263.8 -10.5  34120  288.89 0855.16
2009/04/23 09:22:39.1    -258    -31    -33    260    263 263.0  -7.3  34128  289.02 0855.16
2009/04/23 09:22:39.2    -227    -39    -82    231    246 260.1 -19.6  34132  289.10 0855.16
2009/04/23 09:22:39.3    -293   -106   -101    312    327 250.1 -23.2  34116  288.83 0855.16
2009/04/23 09:22:39.4    -252     42    -91    256    272 279.6 -19.7  34134  289.14 0855.16
2009/04/23 09:22:39.5    -310     48    -73    314    323 278.8 -13.2  34136  289.17 0855.16
2009/04/23 09:22:39.6    -353      1    -45    354    357 270.3  -7.3  34128  289.03 0855.16
2009/04/23 09:22:39.7    -322    -72    -12    330    331 257.4  -2.2  34122  288.93 0855.16
2009/04/23 09:22:39.8    -198    -72    -54    211    218 250.0 -14.5  34122  288.92 0855.16
2009/04/23 09:22:39.9     -97    -71    -75    121    142 234.0 -39.9  34122  288.92 0855.16
2009/04/23 09:22:40.0    -119    -32    -37    124    129 254.9 -21.7  34124  288.96 0855.16
2009/04/23 09:22:40.1    -164    -39   -148    169    224 256.3 -50.2  34132  289.11 0855.16
2009/04/23 09:22:40.2    -168    -46   -101    175    202 254.7 -37.3  34128  289.04 0855.16
2009/04/23 09:22:40.3    -152     11    -64    153    165 274.3 -28.2  34124  288.97 0855.16
2009/04/23 09:22:40.4    -131     41    -73    138    156 287.3 -34.7  34124  288.97 0855.16
2009/04/23 09:22:40.5     -94    -30     -4     99    100 251.8  -2.6  34122  288.94 0855.16
2009/04/23 09:22:40.6     -58      4    -30     59     66 274.4 -33.7  34120  288.91 0855.16
2009/04/23 09:22:40.7     -51     -7    -43     52     67 261.2 -48.2  34122  288.94 0855.16
2009/04/23 09:22:40.8    -105     -9    -41    106    113 264.8 -26.4  34124  288.96 0855.16
2009/04/23 09:22:40.9     -78      1    -23     79     82 270.9 -21.2  34126  288.99 0855.16
2009/04/23 09:22:41.0     -86    -55      5    103    104 237.6   2.9  34130  289.08 0855.16
2009/04/23 09:22:41.1    -122    -55    -37    134    140 245.6 -15.4  34130  289.06 0855.16
2009/04/23 09:22:41.2    -133    -58    -63    146    159 246.4 -29.0  34128  289.04 0855.16
2009/04/23 09:22:41.3    -131     -9    -36    132    138 265.7 -15.5  34124  288.97 0855.15
2009/04/23 09:22:41.4    -183     44    -14    189    190 283.7  -4.4  34128  289.02 0855.15
2009/04/23 09:22:41.5    -208     24    -49    210    216 276.6 -13.2  34130  289.08 0855.15
2009/04/23 09:22:41.6    -137     34     41    142    148 284.2  16.3  34132  289.09 0855.15
2009/04/23 09:22:41.7    -101     29     -5    106    107 285.9  -3.1  34130  289.06 0855.15
2009/04/23 09:22:41.8    -102     34    -35    108    113 288.6 -23.8  34130  289.06 0855.15
2009/04/23 09:22:41.9     -51     17    -43     54     69 288.4 -48.1  34130  289.06 0855.15
2009/04/23 09:22:42.0     -52    -53    -45     75     87 224.2 -38.8  34130  289.08 0855.15
2009/04/23 09:22:42.1    -113    -47    -45    123    130 247.4 -25.4  34132  289.09 0855.15
2009/04/23 09:22:42.2    -131    -30    -58    135    146 256.7 -29.0  34128  289.02 0855.15
2009/04/23 09:22:42.3    -149    -59    -49    161    168 248.2 -22.1  34128  289.04 0855.15
2009/04/23 09:22:42.4    -125     30    -53    129    139 283.7 -27.5  34124  288.97 0855.15
2009/04/23 09:22:42.5     -61    -19    -33     65     72 252.3 -32.6  34126  288.99 0855.15
2009/04/23 09:22:42.6     -74    -32    -14     81     83 246.5  -9.8  34124  288.97 0855.15
2009/04/23 09:22:42.7     -62      4    -41     63     75 274.4 -40.0  34130  289.06 0855.15
2009/04/23 09:22:42.8     -86    -22    -39     89     97 255.4 -29.5  34132  289.11 0855.15
2009/04/23 09:22:42.9      12     50     -5     52     53  13.4  -6.2  34132  289.09 0855.15
2009/04/23 09:22:43.0      55     57     -6     80     81  44.1  -4.6  34130  289.06 0855.15
2009/04/23 09:22:43.1       0     46    -13     47     49 359.1 -15.5  34130  289.08 0855.15
2009/04/23 09:22:43.2       0     28    -35     29     45 359.1 -59.8  34128  289.02 0855.15
2009/04/23 09:22:43.3       0    142      2    143    144 359.6   0.8  34126  289.01 0855.16
2009/04/23 09:22:43.4      12    190     19    191    193   3.6   5.9  34124  288.97 0855.16
2009/04/23 09:22:43.5     -22    130     31    132    136 350.3  13.2  34126  288.99 0855.16
2009/04/23 09:22:43.6      -2    137     16    138    140 359.1   6.9  34122  288.92 0855.16
2009/04/23 09:22:43.7      57    168     36    178    182  18.7  11.6  34120  288.91 0855.16
2009/04/23 09:22:43.8      76     76    100    108    147  45.0  47.9  34124  288.97 0855.16
2009/04/23 09:22:43.9      87     63     98    108    145  54.0  47.9  34124  288.97 0855.16
2009/04/23 09:22:44.0      36     12     91     39     99  71.4  76.1  34126  289.01 0855.16
2009/04/23 09:22:44.1     -12     -8     55     15     57 234.0  83.9  34128  289.02 0855.16
2009/04/23 09:22:44.2      45    -28     42     54     68 122.4  43.7  34126  288.99 0855.16
2009/04/23 09:22:44.3      14     -9     34     17     38 122.4  72.8  34126  288.99 0855.17
2009/04/23 09:22:44.4       7     -7     22     11     24 135.0  72.9  34124  288.97 0855.17
2009/04/23 09:22:44.5      -6     61    -33     62     70 353.8 -34.7  34126  288.99 0855.17
2009/04/23 09:22:44.6      47     74    -60     88    106  32.5 -42.0  34120  288.89 0855.17
2009/04/23 09:22:44.7     119      9     19    120    122  85.7   9.0  34118  288.87 0855.17
2009/04/23 09:22:44.8      93      7    128     94    158  85.6  60.0  34122  288.94 0855.17
2009/04/23 09:22:44.9    -109     14    160    110    194 277.5  62.4  34128  289.04 0855.17
2009/04/23 09:22:45.0     -39     17    131     43    137 293.5  80.7  34128  289.02 0855.17
2009/04/23 09:22:45.1     -94      7     60     95    112 274.4  35.5  34124  288.96 0855.17
2009/04/23 09:22:45.2    -215    -43    120    220    250 258.5  31.0  34128  289.02 0855.17
2009/04/23 09:22:45.3    -252   -115     39    278    281 245.4   8.0  34126  289.00 0855.17
2009/04/23 09:22:45.4    -285    -47     63    289    296 260.5  12.4  34120  288.88 0855.17
2009/04/23 09:22:45.5    -355     57    125    360    382 279.1  19.2  34120  288.89 0855.17
2009/04/23 09:22:45.6    -298      4     58    299    305 270.8  11.1  34118  288.87 0855.17
2009/04/23 09:22:45.7    -279    -74     14    289    290 255.0   2.9  34122  288.93 0855.17
2009/04/23 09:22:45.8    -265   -186     10    325    326 234.9   1.9  34134  289.12 0855.17
2009/04/23 09:22:45.9    -320    -42    -15    323    324 262.4  -2.7  34122  288.93 0855.17
2009/04/23 09:22:46.0    -346   -115     18    365    366 251.5   2.9  34120  288.91 0855.17
2009/04/23 09:22:46.1    -347   -118    -14    367    368 251.2  -2.3  34126  288.99 0855.17
2009/04/23 09:22:46.2    -436    -88   -145    445    469 258.5 -18.1  34118  288.87 0855.17
2009/04/23 09:22:46.3    -408   -193    -90    452    461 244.6 -11.3  34120  288.90 0855.18
2009/04/23 09:22:46.4    -290   -184   -101    344    358 237.6 -21.2  34120  288.88 0855.18
2009/04/23 09:22:46.5    -223   -162   -103    276    294 234.0 -25.7  34122  288.92 0855.18
2009/04/23 09:22:46.6    -129   -156    -78    203    217 219.6 -26.7  34120  288.91 0855.18
2009/04/23 09:22:46.7    -158   -178     19    239    240 221.7   4.6  34126  288.98 0855.18
2009/04/23 09:22:46.8    -202   -161    -32    259    262 231.4  -7.2  34124  288.95 0855.18
2009/04/23 09:22:46.9    -153   -217    -19    266    267 215.2  -4.1  34114  288.80 0855.18
2009/04/23 09:22:47.0    -132   -279    147    309    342 205.3  27.3  34120  288.88 0855.18
2009/04/23 09:22:47.1    -152   -296    141    333    361 207.2  24.5  34118  288.86 0855.18
2009/04/23 09:22:47.2    -150   -326     86    359    370 204.7  13.5  34122  288.93 0855.18
2009/04/23 09:22:47.3    -208   -289     69    357    364 215.8  11.0  34120  288.89 0855.18
2009/04/23 09:22:47.4    -168   -295     17    340    341 209.6   2.9  34120  288.91 0855.18
2009/04/23 09:22:47.5    -140   -314    -80    345    355 204.1 -13.1  34122  288.94 0855.18
2009/04/23 09:22:47.6    -105   -312    -67    330    337 198.7 -11.6  34126  288.99 0855.18
2009/04/23 09:22:47.7     -79   -354    -38    363    366 192.7  -6.1  34128  289.04 0855.18
2009/04/23 09:22:47.8     -44   -373      0    376    377 186.9   0.0  34122  288.94 0855.18
2009/04/23 09:22:47.9     -87   -401    107    411    425 192.3  14.7  34124  288.97 0855.18
2009/04/23 09:22:48.0     -96   -368    152    381    410 194.7  23.0  34124  288.96 0855.18
2009/04/23 09:22:48.1    -359   -158    -50    393    397 246.3  -7.3  34124  288.96 0855.18
2009/04/23 09:22:48.2    -373   -436      3    574    575 220.5   0.4  34124  288.95 0855.18
2009/04/23 09:22:48.3    -202   -410     55    458    462 206.3   6.9  34122  288.94 0855.18
2009/04/23 09:22:48.4    -119   -358     76    378    386 198.5  11.4  34120  288.89 0855.18
2009/04/23 09:22:48.5    -132   -356    117    380    398 200.4  17.2  34120  288.89 0855.18
2009/04/23 09:22:48.6    -210   -296     85    364    374 215.4  13.2  34124  288.96 0855.18
2009/04/23 09:22:48.7    -188   -330     29    380    382 209.7   4.5  34122  288.94 0855.18
2009/04/23 09:22:48.8    -100   -336    119    351    371 196.7  18.8  34118  288.86 0855.18
2009/04/23 09:22:48.9    -189   -283      5    341    342 213.8   0.9  34126  288.98 0855.18
2009/04/23 09:22:49.0    -170   -295      4    341    342 209.9   0.7  34124  288.96 0855.18
2009/04/23 09:22:49.1    -164   -256      2    305    306 212.6   0.5  34120  288.90 0855.18
2009/04/23 09:22:49.2    -175   -223     63    284    292 218.1  12.6  34120  288.90 0855.18
2009/04/23 09:22:49.3    -147   -272    114    310    330 208.5  21.0  34118  288.87 0855.18
2009/04/23 09:22:49.4    -131   -312     96    339    353 202.8  15.9  34116  288.84 0855.18
2009/04/23 09:22:49.5    -171   -251     32    304    306 214.3   6.1  34116  288.83 0855.18
2009/04/23 09:22:49.6    -189   -228     -8    297    298 219.6  -1.6  34120  288.90 0855.18
2009/04/23 09:22:49.7    -181   -181     -5    257    258 225.0  -1.2  34116  288.83 0855.18
2009/04/23 09:22:49.8    -132   -212     83    250    264 211.9  18.5  34120  288.88 0855.18
2009/04/23 09:22:49.9    -245    -71    -26    256    258 253.8  -6.0  34114  288.78 0855.18
2009/04/23 09:22:50.0    -299    -17   -117    300    322 266.6 -26.7  34118  288.85 0855.18
2009/04/23 09:22:50.1    -253   -209    -76    329    338 230.4 -13.1  34126  289.01 0855.18
2009/04/23 09:22:50.2    -207   -186    -85    279    292 228.0 -17.0  34122  288.93 0855.18
2009/04/23 09:22:50.3    -232   -170    -67    288    296 233.8 -13.3  34128  289.02 0855.18
2009/04/23 09:22:50.4    -213   -160   -114    267    290 233.1 -29.0  34126  289.00 0855.18
2009/04/23 09:22:50.5     -37   -239    -82    242    255 188.9 -23.6  34122  288.92 0855.18
2009/04/23 09:22:50.6       0   -137     75    138    157 180.4  30.6  34118  288.86 0855.18
2009/04/23 09:22:50.7     -44   -146    -42    153    159 196.9 -15.5  34120  288.89 0855.18
2009/04/23 09:22:50.8     -64   -135     53    150    159 205.3  20.2  34118  288.87 0855.18
2009/04/23 09:22:50.9    -103    -86      6    135    136 230.0   2.8  34118  288.86 0855.18
2009/04/23 09:22:51.0     -99   -150    109    180    210 213.4  34.0  34116  288.84 0855.18
2009/04/23 09:22:51.1     -69   -106    131    127    182 213.4  50.9  34116  288.84 0855.18
2009/04/23 09:22:51.2    -149   -110    138    186    231 233.4  39.9  34124  288.96 0855.18
2009/04/23 09:22:51.3    -263    -15    -53    264    270 266.7 -11.5  34120  288.90 0855.18
2009/04/23 09:22:51.4    -297   -121    -17    321    322 247.8  -3.1  34124  288.97 0855.18
2009/04/23 09:22:51.5    -176   -171    -31    246    248 225.8  -7.2  34122  288.93 0855.18
2009/04/23 09:22:51.6    -233   -153    -66    280    288 236.7 -13.4  34124  288.95 0855.18
2009/04/23 09:22:51.7    -215   -110    -38    242    246 242.9  -9.0  34126  289.00 0855.18
2009/04/23 09:22:51.8    -203    -72    -42    216    221 250.3 -11.1  34124  288.97 0855.18
2009/04/23 09:22:51.9    -198    -72    -20    211    213 250.0  -5.6  34124  288.97 0855.18
2009/04/23 09:22:52.0     -63   -126    -47    142    149 206.7 -23.8  34120  288.91 0855.18
2009/04/23 09:22:52.1     -61   -158    -28    170    173 201.2  -9.6  34120  288.89 0855.18
2009/04/23 09:22:52.2     -86    -80    -32    118    123 227.3 -15.4  34120  288.89 0855.18
2009/04/23 09:22:52.3     -87    -53    -59    103    118 238.5 -36.8  34122  288.94 0855.18
2009/04/23 09:22:52.4     -85    -28    -71     90    114 251.8 -47.1  34124  288.97 0855.18
2009/04/23 09:22:52.5     -91    -55    -69    107    127 238.9 -40.0  34122  288.92 0855.18
2009/04/23 09:22:52.6     -85    -83    -33    120    125 225.6 -15.4  34120  288.89 0855.18
2009/04/23 09:22:52.7       6    -80     -3     81     82 175.5  -2.2  34120  288.91 0855.18
2009/04/23 09:22:52.8      64   -124    -13    140    141 152.4  -5.6  34116  288.82 0855.18
2009/04/23 09:22:52.9     100   -128     16    163    164 142.2   5.7  34118  288.87 0855.18
2009/04/23 09:22:53.0      55   -185    -10    194    195 163.5  -3.2  34118  288.87 0855.18
2009/04/23 09:22:53.1      64   -146    -24    160    162 156.2  -8.8  34116  288.82 0855.18
2009/04/23 09:22:53.2      68   -108    -37    128    133 147.9 -21.2  34118  288.86 0855.18
2009/04/23 09:22:53.3      68    -87    -79    111    136 142.2 -43.5  34118  288.87 0855.18
2009/04/23 09:22:53.4      83   -114    -90    142    168 144.0 -39.9  34120  288.91 0855.18
2009/04/23 09:22:53.5     116   -110    -51    161    168 133.6 -22.8  34116  288.82 0855.18
2009/04/23 09:22:53.6     118   -131    -14    177    178 138.1  -4.6  34116  288.84 0855.18
2009/04/23 09:22:53.7     174   -104     24    203    205 120.9   6.9  34118  288.87 0855.18
2009/04/23 09:22:53.8     108   -122     35    163    167 138.5  12.4  34118  288.86 0855.18
2009/04/23 09:22:53.9       9   -155     91    156    180 176.4  32.9  34120  288.89 0855.18
2009/04/23 09:22:54.0     -38   -222     98    226    246 189.8  25.1  34118  288.85 0855.18
2009/04/23 09:22:54.1     -24   -226     56    228    235 186.2  13.9  34118  288.87 0855.18
2009/04/23 09:22:54.2     -60   -207     11    216    217 196.3   2.9  34118  288.86 0855.18
2009/04/23 09:22:54.3     -32   -139     25    143    146 193.3  10.1  34116  288.82 0855.19
2009/04/23 09:22:54.4      39    -64     72     76    104 148.4  49.0  34120  288.91 0855.19
2009/04/23 09:22:54.5     -84   -117     76    145    163 215.6  30.1  34120  288.89 0855.19
2009/04/23 09:22:54.6     -29   -143     86    146    169 191.5  33.5  34122  288.92 0855.19
2009/04/23 09:22:54.7    -102   -109     30    150    154 223.2  11.6  34116  288.82 0855.19
2009/04/23 09:22:54.8    -130    -56    -53    142    151 246.5 -25.4  34122  288.92 0855.19
2009/04/23 09:22:54.9    -200      7     24    201    203 272.1   6.9  34118  288.86 0855.19
2009/04/23 09:22:55.0    -132    -51     50    142    151 248.7  19.4  34120  288.89 0855.19
2009/04/23 09:22:55.1    -164    -25     12    166    167 261.2   4.2  34118  288.86 0855.19
2009/04/23 09:22:55.2    -123     -4      3    124    125 267.9   1.8  34120  288.91 0855.19
2009/04/23 09:22:55.3    -211     20     -8    212    213 275.5  -2.2  34124  288.96 0855.19
2009/04/23 09:22:55.4    -263    -52    -42    269    273 258.8  -9.0  34126  289.00 0855.19
2009/04/23 09:22:55.5    -231    -17      0    232    233 265.6   0.0  34124  288.97 0855.19
2009/04/23 09:22:55.6    -200     -2     19    201    202 269.4   5.4  34124  288.97 0855.19
2009/04/23 09:22:55.7    -180     28     50    183    190 279.0  15.3  34126  289.01 0855.19
2009/04/23 09:22:55.8    -142     -3     55    143    153 268.7  22.0  34120  288.89 0855.19
2009/04/23 09:22:55.9     -39    -55    140     68    155 216.0  72.8  34122  288.94 0855.19
2009/04/23 09:22:56.0      14    -82    110     84    138 170.2  58.5  34120  288.91 0855.19
2009/04/23 09:22:56.1     -29    -60    103     67    122 206.3  64.6  34124  288.97 0855.19
2009/04/23 09:22:56.2     -14   -129    132    130    185 186.2  49.9  34124  288.96 0855.19
2009/04/23 09:22:56.3     -40    -64     53     76     92 212.5  38.0  34124  288.96 0855.18
2009/04/23 09:22:56.4     -56    -52     44     77     88 226.9  32.4  34122  288.94 0855.18
2009/04/23 09:22:56.5    -119    -80     29    144    148 235.8  11.6  34120  288.91 0855.18
2009/04/23 09:22:56.6    -152   -140      2    207    208 227.3   0.7  34126  288.99 0855.18
2009/04/23 09:22:56.7    -158    -16    -63    159    171 263.9 -27.2  34122  288.94 0855.18
2009/04/23 09:22:56.8    -150    -89    -48    175    182 239.1 -15.4  34120  288.91 0855.18
2009/04/23 09:22:56.9    -153   -108    -64    188    199 234.7 -18.9  34118  288.86 0855.18
2009/04/23 09:22:57.0    -231   -113    -81    258    271 243.8 -17.6  34108  288.70 0855.18
2009/04/23 09:22:57.1    -163   -115     28    200    203 234.7   8.0  34120  288.91 0855.18
2009/04/23 09:22:57.2    -137    -70    -15    154    155 242.9  -5.6  34120  288.89 0855.18
2009/04/23 09:22:57.3    -116    -59    -41    131    137 242.9 -22.3  34122  288.94 0855.18
2009/04/23 09:22:57.4     -86    -54    -78    102    128 237.5 -46.0  34124  288.97 0855.18
2009/04/23 09:22:57.5    -111    -26    -76    115    137 256.7 -40.9  34124  288.96 0855.18
2009/04/23 09:22:57.6    -119     -6    -74    120    140 267.0 -39.4  34124  288.96 0855.18
2009/04/23 09:22:57.7     -83     -7    -40     84     93 264.8 -31.6  34122  288.94 0855.18
2009/04/23 09:22:57.8     -50     10    -19     52     55 281.5 -23.3  34124  288.96 0855.18
2009/04/23 09:22:57.9      34     72    -42     80     90  25.3 -34.2  34122  288.92 0855.18
2009/04/23 09:22:58.0      78    123    -33    147    151  32.5 -12.9  34118  288.87 0855.18
2009/04/23 09:22:58.1      96     78     29    124    128  50.9  13.2  34118  288.87 0855.18
2009/04/23 09:22:58.2      85     26     17     90     92  72.7  11.0  34120  288.91 0855.18
2009/04/23 09:22:58.3      12      4    -30     13     32  71.4 -79.4  34122  288.92 0855.17
2009/04/23 09:22:58.4     -48    -23    -92     54    106 244.6 -71.2  34120  288.91 0855.17
2009/04/23 09:22:58.5       4      0   -103      5    103  90.0 -90.0  34124  288.97 0855.17
2009/04/23 09:22:58.6     -13      0   -133     14    133 270.0 -90.0  34124  288.96 0855.17
2009/04/23 09:22:58.7     -27     -7    -99     29    103 254.9 -87.7  34124  288.97 0855.17
2009/04/23 09:22:58.8     -13     -8    -40     16     43 237.6 -82.6  34122  288.92 0855.17
2009/04/23 09:22:58.9      60    -19    -32     64     71 107.7 -31.7  34122  288.94 0855.17
2009/04/23 09:22:59.0     109     14    -60    110    125  82.5 -35.8  34124  288.96 0855.17
2009/04/23 09:22:59.1     135    -31    -43    139    146 103.3 -17.5  34124  288.97 0855.17
2009/04/23 09:22:59.2     143    -35     -8    148    149 103.7  -3.2  34120  288.89 0855.17
2009/04/23 09:22:59.3     135      6    -43    136    143  87.4 -17.6  34126  289.01 0855.17
2009/04/23 09:22:59.4     136     12    -27    137    140  84.8 -11.3  34124  288.96 0855.17
2009/04/23 09:22:59.5      97      7    -41     98    106  85.7 -28.0  34124  288.96 0855.17
2009/04/23 09:22:59.6     139     69    -55    156    166  63.6 -19.7  34124  288.97 0855.17
2009/04/23 09:22:59.7     151     55    -44    161    168  70.0 -15.5  34124  288.97 0855.17
2009/04/23 09:22:59.8     156     21    -41    158    164  82.1 -14.7  34128  289.02 0855.17
2009/04/23 09:22:59.9     177     28    -13    180    181  81.0  -4.4  34126  289.01 0855.17
2009/04/23 09:23:00.0     178     32    -56    181    190  79.6 -17.3  34128  289.02 0855.17
2009/04/23 09:23:00.1     189     33    -35    192    196  79.9 -10.5  34126  289.01 0855.17
2009/04/23 09:23:00.2     199     34    -21    203    205  80.1  -6.0  34124  288.97 0855.17
2009/04/23 09:23:00.3     244     32     -6    247    248  82.5  -1.6  34130  289.05 0855.16
2009/04/23 09:23:00.4     228     39    110    232    256  80.1  27.2  34120  288.88 0855.16
2009/04/23 09:23:00.5     208     27     10    210    211  82.5   2.8  34120  288.91 0855.16
2009/04/23 09:23:00.6     219     69    120    230    259  72.5  29.8  34116  288.83 0855.16
2009/04/23 09:23:00.7     167     55    140    176    224  71.6  43.0  34116  288.82 0855.16
2009/04/23 09:23:00.8     161     56    151    171    228  70.7  45.9  34118  288.86 0855.16
2009/04/23 09:23:00.9     107     53    143    120    186  63.4  56.1  34122  288.94 0855.16
2009/04/23 09:23:01.0      67     17    141     70    157  75.8  71.9  34120  288.89 0855.16
2009/04/23 09:23:01.1      14     17    135     23    136  39.6  90.0  34124  288.97 0855.16
2009/04/23 09:23:01.2     -32     58     80     67    104 331.0  56.3  34124  288.97 0855.16
2009/04/23 09:23:01.3    -131    137    136    190    233 316.3  39.3  34116  288.82 0855.16
2009/04/23 09:23:01.4    -103    186     96    213    233 331.0  26.2  34118  288.87 0855.16
2009/04/23 09:23:01.5    -124     47     93    133    162 290.8  38.4  34118  288.87 0855.16
2009/04/23 09:23:01.6     -60    -91     90    110    142 213.4  43.7  34122  288.92 0855.16
2009/04/23 09:23:01.7     -71    -68    101     99    141 226.0  50.2  34122  288.92 0855.16
2009/04/23 09:23:01.8     -12     -4    113     13    113 251.8  90.0  34124  288.97 0855.16
2009/04/23 09:23:01.9     -66     66     66     94    114 315.0  38.6  34118  288.87 0855.16
2009/04/23 09:23:02.0    -114     85     82    143    164 306.9  32.7  34116  288.82 0855.16
2009/04/23 09:23:02.1     -60    101    141    118    183 329.3  56.1  34118  288.87 0855.16
2009/04/23 09:23:02.2     -47     57    159     75    175 320.3  73.1  34124  288.97 0855.16
2009/04/23 09:23:02.3     -84   -102    207    133    246 219.6  64.6  34124  288.96 0855.15
2009/04/23 09:23:02.4    -111    -79    148    137    201 234.5  52.2  34122  288.92 0855.15
2009/04/23 09:23:02.5     -80    -88    164    119    202 222.3  60.6  34124  288.96 0855.15
2009/04/23 09:23:02.6     -11    -53    104     55    117 191.6  69.8  34126  289.01 0855.15
2009/04/23 09:23:02.7     -18   -120     44    122    129 188.5  20.4  34128  289.02 0855.15
2009/04/23 09:23:02.8      48     26    103     55    116  61.1  69.3  34126  289.01 0855.15
2009/04/23 09:23:02.9     -47    118     68    128    144 338.1  30.8  34128  289.04 0855.15
2009/04/23 09:23:03.1     -95     33     69    101    122 289.5  37.6  34126  289.01 0855.15
2009/04/23 09:23:03.1     -29     16    107     34    112 298.9  81.2  34132  289.11 0855.15
2009/04/23 09:23:03.2     -81      7    125     82    149 275.2  64.6  34126  289.01 0855.15
2009/04/23 09:23:03.4    -162    -12    146    163    218 265.6  46.6  34126  289.01 0855.15
2009/04/23 09:23:03.5    -108     64    184    126    223 300.6  62.6  34120  288.89 0855.15
2009/04/23 09:23:03.6     -59    -63     48     87     99 223.2  31.4  34124  288.96 0855.15
2009/04/23 09:23:03.7     -24   -142    120    145    188 189.8  43.8  34122  288.92 0855.15
2009/04/23 09:23:03.8     -95   -142    102    172    199 213.8  33.5  34116  288.82 0855.15
2009/04/23 09:23:03.9    -165   -124    123    207    240 232.9  33.5  34120  288.89 0855.15
2009/04/23 09:23:04.0    -187     32    147    190    240 279.9  41.7  34124  288.96 0855.15
2009/04/23 09:23:04.1    -267    -37    124    270    297 262.1  26.4  34128  289.02 0855.15
2009/04/23 09:23:04.2       4   -136    110    137    175 178.2  43.0  34118  288.86 0855.15
2009/04/23 09:23:04.3    -108   -174    175    206    270 211.9  44.5  34122  288.92 0855.15
2009/04/23 09:23:04.4     -69   -238    190    248    312 196.3  41.4  34118  288.87 0855.15
2009/04/23 09:23:04.5    -133   -198     86    239    254 213.8  20.4  34142  289.27 0855.15
2009/04/23 09:23:04.6    -105   -252     99    274    291 202.7  20.4  34142  289.25 0855.15
2009/04/23 09:23:04.7     -88   -265    116    280    303 198.5  23.8  34150  289.41 0855.15
2009/04/23 09:23:04.8    -122   -311    117    335    355 201.4  19.3  34146  289.33 0855.15
2009/04/23 09:23:04.9     -19   -324    200    325    381 183.4  34.8  34130  289.06 0855.15
2009/04/23 09:23:05.0     -84   -305    111    317    337 195.5  19.4  34136  289.18 0855.15
2009/04/23 09:23:05.1    -113   -316    122    336    357 199.7  20.9  34136  289.16 0855.15
2009/04/23 09:23:05.2     -51   -289    159    294    334 190.0  30.7  34122  288.92 0855.15
2009/04/23 09:23:05.3     -28   -263    175    265    317 186.2  36.6  34120  288.88 0855.15
2009/04/23 09:23:05.4    -131   -236     98    271    289 209.0  19.9  34150  289.39 0855.15
2009/04/23 09:23:05.5    -162   -297    127    339    362 208.6  21.5  34138  289.20 0855.15
2009/04/23 09:23:05.6    -120   -285    160    310    348 202.8  29.4  34132  289.10 0855.15
2009/04/23 09:23:05.7     -21   -147    155    149    215 188.1  50.9  34126  289.01 0855.15
2009/04/23 09:23:05.8      39   -264    235    267    355 171.5  45.9  34124  288.96 0855.15
2009/04/23 09:23:05.9     -36   -261    245    264    360 188.0  47.8  34124  288.96 0855.15
2009/04/23 09:23:06.0      15   -289    260    290    389 176.9  46.6  34120  288.89 0855.15
2009/04/23 09:23:06.1      17   -263    218    264    342 176.2  43.7  34118  288.85 0855.15
2009/04/23 09:23:06.2      14   -269    224    270    350 176.9  44.0  34118  288.87 0855.15
2009/04/23 09:23:06.3       0   -261    275    262    379 180.0  51.5  34120  288.88 0855.15
2009/04/23 09:23:06.4     -40   -240    280    244    371 189.6  54.4  34126  288.98 0855.15
2009/04/23 09:23:06.5     -23   -181    235    183    297 187.3  58.4  34126  289.00 0855.15
2009/04/23 09:23:06.6     -21   -278    164    279    323 184.4  33.0  34134  289.12 0855.15
2009/04/23 09:23:06.7     -74   -234    262    246    359 197.6  52.1  34132  289.10 0855.15
2009/04/23 09:23:06.8     -29   -171    178    174    248 189.8  50.4  34130  289.08 0855.15
2009/04/23 09:23:06.9     -47    -80    197     93    217 210.7  72.9  34138  289.21 0855.15
2009/04/23 09:23:07.0     -22    -53    120     58    133 202.7  72.8  34142  289.26 0855.15
2009/04/23 09:23:07.1       2   -165    261    166    309 179.3  64.7  34148  289.37 0855.15
2009/04/23 09:23:07.2      29   -147    247    150    288 168.5  66.0  34142  289.25 0855.15
2009/04/23 09:23:07.3    -137   -343    167    370    405 201.9  26.0  34130  289.06 0855.15
2009/04/23 09:23:07.4    -245   -323    124    406    425 217.2  17.1  34140  289.24 0855.13
2009/04/23 09:23:07.5    -247   -230     49    338    342 227.1   8.3  34136  289.16 0855.13
2009/04/23 09:23:07.6    -198   -297    -37    358    360 213.7  -5.9  34126  288.99 0855.13
2009/04/23 09:23:07.7    -189   -203    188    278    335 223.0  37.4  34128  289.02 0855.13
2009/04/23 09:23:07.8    -210   -218    222    303    375 223.9  39.7  34130  289.06 0855.13
2009/04/23 09:23:07.9     -79   -189    243    206    318 202.7  55.5  34136  289.17 0855.13
2009/04/23 09:23:08.0    -139    -60    221    152    268 246.5  62.4  34136  289.15 0855.13
2009/04/23 09:23:08.1     -55   -232     70    239    250 193.4  16.3  34134  289.12 0855.13
2009/04/23 09:23:08.2    -237   -323    -51    401    405 216.3  -7.3  34154  289.46 0855.13
2009/04/23 09:23:08.3     -91   -334    -19    347    348 195.3  -3.1  34136  289.15 0855.13
2009/04/23 09:23:08.4     -62   -319    -27    326    328 191.1  -4.8  34140  289.24 0855.13
2009/04/23 09:23:08.5     -87   -328     14    340    341 194.9   2.5  34138  289.20 0855.13
2009/04/23 09:23:08.6     -70   -262     64    272    280 195.1  13.2  34136  289.17 0855.13
2009/04/23 09:23:08.7    -127   -167   -101    210    233 217.2 -31.7  34136  289.18 0855.13
2009/04/23 09:23:08.8     -24   -170    -11    172    173 188.2  -3.7  34136  289.16 0855.13
2009/04/23 09:23:08.9      31   -283     72    285    295 173.7  14.3  34128  289.03 0855.13
2009/04/23 09:23:09.0     -17   -250    105    251    272 184.0  24.1  34136  289.15 0855.13
2009/04/23 09:23:09.1      64   -263     55    271    277 166.2  11.6  34126  288.98 0855.13
2009/04/23 09:23:09.2      26   -257    101    259    277 174.2  22.5  34124  288.95 0855.13
2009/04/23 09:23:09.3      35   -209    109    213    239 170.3  29.3  34124  288.96 0855.13
2009/04/23 09:23:09.4       7   -226    120    227    256 178.0  30.2  34126  289.00 0855.14
2009/04/23 09:23:09.5      10   -205    133    206    245 177.1  35.7  34124  288.95 0855.14
2009/04/23 09:23:09.6       9   -209    104    210    234 177.5  28.2  34126  288.99 0855.14
2009/04/23 09:23:09.7     -12   -170     83    171    190 184.2  27.4  34126  289.01 0855.14
2009/04/23 09:23:09.8     -14   -190     66    191    203 184.5  19.2  34126  288.99 0855.14
2009/04/23 09:23:09.9      19   -175     90    177    198 173.8  29.2  34124  288.96 0855.14
2009/04/23 09:23:10.0       8   -173    137    174    221 177.3  42.2  34124  288.96 0855.14
2009/04/23 09:23:10.1      22   -149    140    151    205 171.5  47.7  34124  288.96 0855.14
2009/04/23 09:23:10.2     -47   -168     75    175    190 195.6  24.6  34124  288.97 0855.14
2009/04/23 09:23:10.3     -15   -196    123    197    232 184.5  35.5  34124  288.96 0855.14
2009/04/23 09:23:10.4     -48   -188    140    195    240 194.5  39.3  34124  288.97 0855.14
2009/04/23 09:23:10.5     -43   -110    110    119    162 201.4  47.7  34122  288.94 0855.14
2009/04/23 09:23:10.6     -10    -54     82     55     98 190.7  63.2  34130  289.08 0855.14
2009/04/23 09:23:10.7     -45    -62     64     77    100 216.1  43.8  34126  289.01 0855.14
2009/04/23 09:23:10.8      13      5     65     15     66  68.3  86.9  34128  289.02 0855.14
2009/04/23 09:23:10.9      16     25     57     30     64  32.5  69.8  34126  289.01 0855.14
2009/04/23 09:23:11.0     104     27    142    108    178  75.4  59.0  34126  289.01 0855.14
2009/04/23 09:23:11.1     126     76    141    148    204  58.9  48.7  34126  288.99 0855.14
2009/04/23 09:23:11.2      51     44    152     68    166  49.6  74.2  34130  289.06 0855.14
2009/04/23 09:23:11.3     103     73     74    127    146  54.9  33.4  34124  288.97 0855.14
2009/04/23 09:23:11.4     112     38    136    119    180  70.9  54.3  34124  288.96 0855.14
2009/04/23 09:23:11.5     119     16    129    121    176  82.0  52.1  34126  288.99 0855.14
2009/04/23 09:23:11.6     150     40    135    156    206  74.9  45.4  34128  289.02 0855.14
2009/04/23 09:23:11.7     160     47    143    167    219  73.6  45.1  34124  288.96 0855.14
2009/04/23 09:23:11.8     138     46    128    146    194  71.4  45.8  34130  289.06 0855.14
2009/04/23 09:23:11.9     141     16     74    142    160  83.4  29.8  34134  289.13 0855.14
2009/04/23 09:23:12.0      56     46     81     73    109  50.4  52.7  34136  289.18 0855.14
2009/04/23 09:23:12.1      26     27     59     38     70  43.2  64.6  34138  289.19 0855.14
2009/04/23 09:23:12.2      76     38    102     86    133  63.4  55.8  34140  289.24 0855.14
2009/04/23 09:23:12.3     116     73     26    138    141  57.6  11.0  34138  289.21 0855.14
2009/04/23 09:23:12.4     229     74     95    241    259  72.1  22.8  34148  289.36 0855.14
2009/04/23 09:23:12.5     312    226     70    386    393  54.1  10.3  34172  289.76 0855.14
2009/04/23 09:23:12.6     314    218     19    383    384  55.2   2.9  34212  290.45 0855.14
2009/04/23 09:23:12.7     228    197     26    302    304  49.1   5.0  34202  290.27 0855.14
2009/04/23 09:23:12.8     213    103    -40    237    241  64.2  -9.8  34130  289.07 0855.14
2009/04/23 09:23:12.9     206    146     29    253    255  54.7   6.7  34216  290.51 0855.14
2009/04/23 09:23:13.0     302    110     16    322    323  70.0   2.9  34186  290.00 0855.14
2009/04/23 09:23:13.1     238     95    151    257    298  68.2  33.4  34198  290.22 0855.14
2009/04/23 09:23:13.2     250     55    122    257    284  77.6  27.2  34174  289.81 0855.14
2009/04/23 09:23:13.3     219    135    128    258    288  58.4  28.2  34158  289.54 0855.14
2009/04/23 09:23:13.4     265    115    101    290    308  66.5  19.3  34146  289.34 0855.15
2009/04/23 09:23:13.5     370    129     65    393    399  70.7   9.5  34160  289.57 0855.15
2009/04/23 09:23:13.6     295     64    105    302    320  77.7  19.2  34156  289.51 0855.15
2009/04/23 09:23:13.7     304     99    164    320    359  71.8  29.3  34198  290.23 0855.15
2009/04/23 09:23:13.8     211    107    189    237    303  62.9  42.8  34194  290.15 0855.15
2009/04/23 09:23:13.9     291    132    160    320    357  65.6  28.6  34162  289.59 0855.15
2009/04/23 09:23:14.0     270     73    127    280    307  74.9  26.2  34148  289.36 0855.15
2009/04/23 09:23:14.1     230     63    -50    239    245  74.5 -11.9  34144  289.31 0855.15
2009/04/23 09:23:14.2     249     91    -59    266    273  70.0 -12.6  34136  289.15 0855.15
2009/04/23 09:23:14.3     295    106   -100    314    330  70.1 -17.7  34146  289.34 0855.15
2009/04/23 09:23:14.4     252    133      6    286    287  62.1   1.2  34160  289.56 0855.15
2009/04/23 09:23:14.5     285    145     -6    320    321  63.0  -1.2  34156  289.49 0855.15
2009/04/23 09:23:14.6     343    118     18    363    364  70.9   2.9  34160  289.57 0855.15
2009/04/23 09:23:14.7     280    122     61    306    313  66.4  11.3  34150  289.41 0855.15
2009/04/23 09:23:14.8     278    121     75    304    314  66.5  13.9  34156  289.49 0855.15
2009/04/23 09:23:14.9     294    135     52    324    329  65.3   9.2  34152  289.44 0855.15
2009/04/23 09:23:15.0     298    120     60    322    328  68.0  10.7  34148  289.37 0855.15
2009/04/23 09:23:15.1     309     79     15    320    321  75.6   2.8  34168  289.70 0855.15
2009/04/23 09:23:15.2     249    113    105    274    293  65.6  22.0  34172  289.78 0855.15
2009/04/23 09:23:15.3     282     89    -60    296    302  72.5 -11.5  34140  289.22 0855.15
2009/04/23 09:23:15.4     292     98     60    309    315  71.4  11.1  34194  290.15 0855.15
2009/04/23 09:23:15.5     360    102     73    375    383  74.2  11.0  34172  289.79 0855.15
2009/04/23 09:23:15.6     397     89     79    407    415  77.3  11.1  34160  289.56 0855.15
2009/04/23 09:23:15.7     305     43    -12    309    310  82.0  -2.2  34148  289.36 0855.15
2009/04/23 09:23:15.8     317     82      9    328    329  75.5   1.7  34148  289.37 0855.15
2009/04/23 09:23:15.9     316     74     -5    325    326  76.8  -0.9  34140  289.24 0855.15
2009/04/23 09:23:16.0     352    107     24    369    370  73.1   3.7  34142  289.25 0855.15
2009/04/23 09:23:16.1     306    101     50    323    327  71.7   8.8  34146  289.34 0855.15
2009/04/23 09:23:16.2     343     50     40    347    350  81.7   6.6  34152  289.43 0855.15
2009/04/23 09:23:16.3     331     56    -31    336    338  80.4  -5.4  34152  289.45 0855.15
2009/04/23 09:23:16.4     313     43     23    316    317  82.1   4.3  34162  289.59 0855.15
2009/04/23 09:23:16.5     259     12     89    260    275  87.2  18.9  34146  289.32 0855.15
2009/04/23 09:23:16.6     295     59     19    301    302  78.6   3.8  34162  289.59 0855.15
2009/04/23 09:23:16.7     322     85     71    334    342  75.1  12.0  34168  289.72 0855.15
2009/04/23 09:23:16.8     275    121     78    301    312  66.3  14.6  34164  289.64 0855.15
2009/04/23 09:23:16.9     275    106     36    295    298  68.9   7.1  34170  289.75 0855.15
2009/04/23 09:23:17.0     290     77     36    301    304  75.0   6.9  34170  289.73 0855.15
2009/04/23 09:23:17.1     306     83     49    318    322  74.9   8.9  34164  289.64 0855.15
2009/04/23 09:23:17.2     303    101     69    320    328  71.4  12.2  34160  289.56 0855.15
2009/04/23 09:23:17.3     290    116     61    313    320  68.2  11.1  34158  289.53 0855.15
2009/04/23 09:23:17.4     260    159     65    305    313  58.5  12.1  34156  289.49 0855.16
2009/04/23 09:23:17.5     268    144     66    305    313  61.8  12.3  34150  289.41 0855.16
2009/04/23 09:23:17.6     284    128     63    312    319  65.6  11.5  34154  289.46 0855.16
2009/04/23 09:23:17.7     253     85     73    268    278  71.4  15.3  34154  289.46 0855.16
2009/04/23 09:23:17.8     256     81     98    269    286  72.3  20.9  34164  289.63 0855.16
2009/04/23 09:23:17.9     232    126     80    265    277  61.4  16.8  34148  289.36 0855.16
2009/04/23 09:23:18.0     227    130     91    262    278  60.2  19.2  34146  289.32 0855.16
2009/04/23 09:23:18.1     244    125    108    275    295  62.9  23.0  34160  289.56 0855.16
2009/04/23 09:23:18.2     228    112     99    255    273  63.8  22.1  34156  289.49 0855.16
2009/04/23 09:23:18.3     226    135     85    264    278  59.3  17.9  34122  288.93 0855.16
2009/04/23 09:23:18.4     236    112     82    262    275  64.6  17.4  34146  289.32 0855.16
2009/04/23 09:23:18.5     242    106    139    265    299  66.4  30.1  34140  289.24 0855.16
2009/04/23 09:23:18.6     258     89    126    274    301  70.9  26.4  34196  290.19 0855.16
2009/04/23 09:23:18.7     225    116    114    254    278  62.7  25.9  34196  290.19 0855.16
2009/04/23 09:23:18.8     274     79    170    286    332  73.8  33.5  34202  290.27 0855.16
2009/04/23 09:23:18.9     281    143    172    316    359  63.0  31.0  34216  290.52 0855.16
2009/04/23 09:23:19.0     270    161    201    315    373  59.1  35.6  34188  290.06 0855.16
2009/04/23 09:23:19.1     325    147    129    358    381  65.6  19.9  34158  289.55 0855.16
2009/04/23 09:23:19.2     342    167    149    381    409  63.9  22.5  34158  289.54 0855.16
2009/04/23 09:23:19.3     277    230    125    361    383  50.3  19.1  34164  289.64 0855.16
2009/04/23 09:23:19.4     258    180    120    315    337  55.1  21.8  34168  289.71 0855.16
2009/04/23 09:23:19.5     242    188    108    307    326  52.2  19.4  34164  289.64 0855.16
2009/04/23 09:23:19.6     229    189     85    298    311  50.5  16.0  34164  289.63 0855.16
2009/04/23 09:23:19.7     248    180     59    307    313  54.1  11.0  34154  289.47 0855.16
2009/04/23 09:23:19.8     245    217     66    328    335  48.6  11.5  34162  289.62 0855.16
2009/04/23 09:23:19.9     253    199     97    323    338  51.8  16.7  34194  290.16 0855.16
2009/04/23 09:23:20.0     218    205     94    300    315  46.9  17.4  34214  290.49 0855.16
2009/04/23 09:23:20.1     257    217    109    337    355  49.7  17.9  34228  290.72 0855.16
2009/04/23 09:23:20.2     161    189    119    249    275  40.5  27.3  34238  290.88 0855.16
2009/04/23 09:23:20.3     227    168    104    283    301  53.4  20.9  34228  290.71 0855.16
2009/04/23 09:23:20.4     230    108    105    255    275  64.8  23.8  34228  290.73 0855.16
2009/04/23 09:23:20.5     224    161    113    276    298  54.3  23.1  34266  291.38 0855.16
2009/04/23 09:23:20.6     205    195    111    284    304  46.4  22.5  34250  291.09 0855.16
2009/04/23 09:23:20.7     236    194     85    306    318  50.5  15.6  34264  291.34 0855.16
2009/04/23 09:23:20.8     182    150    107    236    259  50.5  26.2  34228  290.71 0855.16
2009/04/23 09:23:20.9     147    154     47    214    220  43.7  12.4  34200  290.25 0855.16
2009/04/23 09:23:21.0     145    151      2    210    211  43.7   0.8  34182  289.96 0855.16
2009/04/23 09:23:21.1      16    207     74    208    220   4.5  20.2  34190  290.09 0855.16
2009/04/23 09:23:21.2     -74    209     30    222    225 340.4   7.8  34182  289.96 0855.16
2009/04/23 09:23:21.3     -95    291     -6    307    308 342.0  -1.2  34186  290.02 0855.16
2009/04/23 09:23:21.4    -151    248     59    291    298 328.6  11.6  34198  290.20 0855.15
2009/04/23 09:23:21.5    -155    243     67    289    297 327.4  13.2  34196  290.17 0855.15
2009/04/23 09:23:21.6    -164    242     67    293    301 325.8  12.9  34188  290.03 0855.15
2009/04/23 09:23:21.7    -141    232     23    272    274 328.6   5.0  34172  289.76 0855.15
2009/04/23 09:23:21.8    -139    231     30    270    272 329.0   6.5  34170  289.73 0855.15
2009/04/23 09:23:21.9    -105    196     11    223    224 331.9   2.9  34170  289.75 0855.15
2009/04/23 09:23:22.0     -80    177     -8    195    196 335.7  -2.6  34176  289.85 0855.15
2009/04/23 09:23:22.1    -117    172     49    209    215 325.8  13.2  34184  289.97 0855.15
2009/04/23 09:23:22.2     -42    161     88    167    188 345.1  30.1  34196  290.18 0855.15
2009/04/23 09:23:22.3      -6    205     88    206    224 358.2  24.6  34192  290.13 0855.15
2009/04/23 09:23:22.4       0    197     83    198    214 359.8  23.8  34192  290.11 0855.15
2009/04/23 09:23:22.5      40    149     86    155    177  15.1  31.4  34190  290.08 0855.15
2009/04/23 09:23:22.6     -23    157     49    159    167 351.5  17.3  34188  290.06 0855.15
2009/04/23 09:23:22.7     -46    138     50    146    155 341.3  18.9  34194  290.14 0855.15
2009/04/23 09:23:22.8     -12    165     44    166    172 355.5  15.0  34210  290.41 0855.15
2009/04/23 09:23:22.9     -42    139     12    146    147 343.1   4.9  34194  290.14 0855.15
2009/04/23 09:23:23.0     -42    128     10    135    136 341.7   4.4  34190  290.09 0855.15
2009/04/23 09:23:23.1     -37    111     -5    118    119 341.3  -2.6  34180  289.91 0855.15
2009/04/23 09:23:23.2      -7     92    -11     93     94 355.5  -7.3  34178  289.89 0855.15
2009/04/23 09:23:23.3       9     70     -5     71     72   8.0  -4.1  34182  289.96 0855.15
2009/04/23 09:23:23.4      70     76      8    104    105  42.3   4.4  34194  290.14 0855.15
2009/04/23 09:23:23.5      14    102     48    104    114   8.0  27.1  34206  290.36 0855.15
2009/04/23 09:23:23.6      76    106     12    131    132  36.0   5.4  34176  289.85 0855.15
2009/04/23 09:23:23.7      82     52    -17     98    100  57.6 -10.3  34164  289.63 0855.15
2009/04/23 09:23:23.8      29     77     55     83     99  20.5  36.5  34176  289.85 0855.15
2009/04/23 09:23:23.9      24    105     42    108    115  12.9  22.5  34190  290.08 0855.15
2009/04/23 09:23:24.0      19     83     46     86     97  13.4  30.3  34182  289.96 0855.15
2009/04/23 09:23:24.1      38     66     30     77     82  29.9  22.0  34152  289.45 0855.15
2009/04/23 09:23:24.2      17     98     19    100    102  10.2  11.0  34168  289.70 0855.15
2009/04/23 09:23:24.3      24    104      4    107    108  13.4   2.3  34156  289.50 0855.15
2009/04/23 09:23:24.4      67     85     -2    109    110  38.3  -1.3  34158  289.53 0855.15
2009/04/23 09:23:24.5     103    103    -54    147    156  45.0 -25.3  34184  289.97 0855.15
2009/04/23 09:23:24.6      91     95    -57    132    143  43.7 -29.0  34200  290.25 0855.15
2009/04/23 09:23:24.7     106     93    -41    142    147  48.7 -20.7  34208  290.38 0855.15
2009/04/23 09:23:24.8      58    108     -3    123    124  28.5  -1.8  34202  290.30 0855.15
2009/04/23 09:23:24.9      22    101     17    104    106  12.5   9.5  34206  290.35 0855.15
2009/04/23 09:23:25.0     -13    105     41    106    113 352.4  22.0  34206  290.36 0855.15
2009/04/23 09:23:25.1     -25     64     60     69     91 338.2  45.4  34202  290.28 0855.15
2009/04/23 09:23:25.2     -11     64     39     65     75 350.2  35.5  34202  290.28 0855.15
2009/04/23 09:23:25.3       7     36     25     37     44  11.6  36.5  34206  290.36 0855.15
2009/04/23 09:23:25.4      17     53     -6     56     57  17.8  -6.2  34206  290.36 0855.14
2009/04/23 09:23:25.5      24     71      3     76     77  19.2   2.8  34204  290.33 0855.14
2009/04/23 09:23:25.6      19     37     25     42     48  27.2  34.4  34204  290.33 0855.14
2009/04/23 09:23:25.7      23     35     -1     42     43  33.4  -2.2  34204  290.33 0855.14
2009/04/23 09:23:25.8      31     31     18     45     48  45.0  21.0  34202  290.28 0855.14
2009/04/23 09:23:25.9       7     50     23     51     55   8.0  26.2  34198  290.21 0855.14
2009/04/23 09:23:26.0      21     80     47     83     95  14.7  32.4  34188  290.06 0855.14
2009/04/23 09:23:26.1      42    127      8    134    135  18.3   3.8  34162  289.60 0855.14
2009/04/23 09:23:26.2      28    119     23    123    126  13.4  10.6  34162  289.62 0855.14
2009/04/23 09:23:26.3       6    120     50    121    130   3.1  23.6  34166  289.69 0855.14
2009/04/23 09:23:26.4      -2    140     49    141    150 359.1  19.4  34164  289.63 0855.14
2009/04/23 09:23:26.5      -8    133     31    134    138 356.4  13.2  34166  289.67 0855.14
2009/04/23 09:23:26.6     -63    119      6    135    136 331.9   2.9  34172  289.79 0855.14
2009/04/23 09:23:26.7     -87     89     24    125    128 315.9  11.0  34180  289.91 0855.14
2009/04/23 09:23:26.8     -90     97     21    133    135 317.2   9.0  34200  290.26 0855.14
2009/04/23 09:23:26.9     -73     72     49    103    114 314.4  27.3  34194  290.14 0855.14
2009/04/23 09:23:27.0    -100     72    105    124    162 305.9  44.8  34214  290.50 0855.14
2009/04/23 09:23:27.1     -60     96    140    114    180 327.9  56.4  34224  290.65 0855.14
2009/04/23 09:23:27.2     -27    123     86    127    153 347.5  37.0  34238  290.91 0855.14
2009/04/23 09:23:27.3      42     89     97     99    138  25.5  49.9  34232  290.81 0855.14
2009/04/23 09:23:27.4      56     83    112    101    150  33.8  53.3  34254  291.18 0855.14
2009/04/23 09:23:27.5      32    232    156    235    282   8.0  36.5  34214  290.48 0855.14
2009/04/23 09:23:27.6      84    230    175    245    301  20.1  39.3  34232  290.78 0855.14
2009/04/23 09:23:27.7     121    188    184    224    289  32.7  43.7  34230  290.76 0855.14
2009/04/23 09:23:27.8     100    215    177    238    296  24.9  40.1  34262  291.29 0855.14
2009/04/23 09:23:27.9     218    184    218    286    359  49.8  41.2  34258  291.23 0855.14
2009/04/23 09:23:28.0     271    138    262    305    402  62.9  44.9  34308  292.10 0855.14
2009/04/23 09:23:28.1     153    224    173    272    322  34.3  35.5  34290  291.77 0855.14
2009/04/23 09:23:28.2     361    207    115    417    433  60.2  15.4  34258  291.23 0855.14
2009/04/23 09:23:28.3     262    316    131    411    432  39.6  17.7  34148  289.38 0855.14
2009/04/23 09:23:28.4     279    371    115    465    480  37.0  13.9  34136  289.18 0855.16
2009/04/23 09:23:28.6     367    259    105    450    463  54.8  13.2  34226  290.70 0855.16
2009/04/23 09:23:28.6     276     78    130    288    315  74.1  25.9  34232  290.80 0855.16
2009/04/23 09:23:28.8     157    152    150    219    265  45.8  37.8  34230  290.75 0855.16
2009/04/23 09:23:28.8     269    338    201    433    477  38.5  26.6  34226  290.70 0855.16
2009/04/23 09:23:28.9     255    361     64    443    448  35.2   8.3  34186  290.00 0855.16
2009/04/23 09:23:29.0     283    240    158    372    404  49.7  24.5  34212  290.45 0855.16
2009/04/23 09:23:29.1     104    309    184    327    375  18.7  31.7  34166  289.69 0855.16
2009/04/23 09:23:29.2     298    337     47    450    453  41.5   6.0  34128  289.02 0855.16
2009/04/23 09:23:29.4     270    267    -67    380    387  45.3 -10.1  34132  289.10 0855.16
2009/04/23 09:23:29.5     217    307    -50    377    381  35.3  -7.7  34142  289.25 0855.16
2009/04/23 09:23:29.6       6    193    -64    194    205   2.0 -18.3  34140  289.23 0855.16
2009/04/23 09:23:29.7     -17    226    -76    227    240 355.5 -18.6  34152  289.42 0855.16
2009/04/23 09:23:29.8     -58    216   -118    224    253 344.8 -34.7  34142  289.25 0855.16
2009/04/23 09:23:29.9    -173    183     16    253    254 316.6   3.6  34146  289.34 0855.16
2009/04/23 09:23:30.0    -256    210    -10    332    333 309.3  -1.9  34134  289.13 0855.16
2009/04/23 09:23:30.1    -360    284    -25    459    460 308.3  -3.2  34134  289.14 0855.16
2009/04/23 09:23:30.2    -339    267   -167    432    463 308.3 -26.7  34136  289.17 0855.16
2009/04/23 09:23:30.3    -387    190   -178    432    467 296.2 -28.0  34134  289.14 0855.16
2009/04/23 09:23:30.4    -456    183   -152    492    514 291.9 -22.2  34188  290.06 0855.16
2009/04/23 09:23:30.5    -273    249   -145    370    397 312.3 -26.9  34162  289.59 0855.18
2009/04/23 09:23:30.6    -119    350    -24    370    371 341.2  -3.8  34190  290.08 0855.18
2009/04/23 09:23:30.7    -165     84      9    186    187 296.9   2.8  34198  290.23 0855.18
2009/04/23 09:23:30.8    -111    104    -30    153    157 313.2 -11.3  34208  290.38 0855.18
2009/04/23 09:23:30.9    -119    135    -16    181    182 318.6  -5.4  34180  289.92 0855.18
2009/04/23 09:23:31.0    -136      5   -110    137    175 272.1 -47.4  34180  289.92 0855.18
2009/04/23 09:23:31.1     -66   -141     -6    156    157 205.3  -2.2  34172  289.77 0855.18
2009/04/23 09:23:31.2     -54    -55    -17     78     80 224.2 -12.4  34174  289.80 0855.18
2009/04/23 09:23:31.3     -75      0     -9     76     77 270.0  -7.2  34170  289.74 0855.18
2009/04/23 09:23:31.4      -8     23    -16     25     29 341.3 -39.9  34166  289.69 0855.18
2009/04/23 09:23:31.5      73     46    -36     87     94  57.5 -27.4  34176  289.85 0855.18
2009/04/23 09:23:31.6     123     74    -70    144    160  58.9 -32.4  34174  289.80 0855.18
2009/04/23 09:23:31.7     146     97    -55    176    184  56.5 -22.5  34162  289.60 0855.18
2009/04/23 09:23:31.8     148    107    -32    183    186  54.1 -10.1  34162  289.60 0855.18
2009/04/23 09:23:31.9     137    116    -90    180    201  49.6 -33.1  34160  289.58 0855.18
2009/04/23 09:23:32.0      67    155   -109    169    201  23.4 -40.1  34152  289.45 0855.18
2009/04/23 09:23:32.1     152    190    -44    244    249  38.8 -10.4  34148  289.36 0855.18
2009/04/23 09:23:32.2     251    149   -102    293    310  59.3 -24.0  34150  289.41 0855.18
2009/04/23 09:23:32.3     239    117   -137    267    300  63.8 -33.7  34146  289.34 0855.18
2009/04/23 09:23:32.4     122    150   -141    194    239  39.2 -44.1  34154  289.48 0855.18
2009/04/23 09:23:32.5     103     86   -128    135    186  50.4 -52.6  34156  289.52 0855.18
2009/04/23 09:23:32.6     140     71   -114    158    194  62.9 -43.9  34160  289.58 0855.18
2009/04/23 09:23:32.7     133     76   -180    154    236  60.2 -59.4  34166  289.69 0855.18
2009/04/23 09:23:32.8     111     64   -137    129    188  60.2 -56.4  34166  289.69 0855.18
2009/04/23 09:23:32.9     201      3   -113    202    231  89.1 -36.0  34158  289.53 0855.18
2009/04/23 09:23:33.0     210      0     56    211    219  90.1  15.0  34194  290.14 0855.18
2009/04/23 09:23:33.1     222     14    110    223    248  86.3  28.2  34184  289.97 0855.18
2009/04/23 09:23:33.2     202    -35     93    206    226  99.9  26.2  34154  289.46 0855.18
2009/04/23 09:23:33.3     229   -116    -44    257    261 116.9  -9.8  34148  289.37 0855.18
2009/04/23 09:23:33.4     184    -55     55    193    201 106.6  16.0  34144  289.31 0855.18
2009/04/23 09:23:33.5     146    -75     75    165    181 117.1  26.2  34144  289.31 0855.18
2009/04/23 09:23:33.6      62     18    149     65    162  73.2  75.3  34148  289.38 0855.18
2009/04/23 09:23:33.7     -38     26    103     47    113 304.2  73.5  34150  289.40 0855.18
2009/04/23 09:23:33.8     -36    -23    135     43    141 237.6  81.2  34150  289.41 0855.18
2009/04/23 09:23:33.9      85    -28     51     90    103 108.2  31.4  34148  289.38 0855.18
2009/04/23 09:23:34.0     224     53    -47    231    236  76.5 -11.6  34146  289.34 0855.18
2009/04/23 09:23:34.1     276     77     26    287    289  74.3   5.2  34142  289.25 0855.18
2009/04/23 09:23:34.2     248     94     -5    266    267  69.2  -1.3  34134  289.12 0855.18
2009/04/23 09:23:34.3     211     38    -34    215    218  79.6  -9.0  34144  289.31 0855.18
2009/04/23 09:23:34.4     127     41    -54    134    144  71.8 -27.4  34148  289.38 0855.18
2009/04/23 09:23:34.5     103     73     39    127    133  54.5  17.3  34140  289.23 0855.18
2009/04/23 09:23:34.6     120     14      3    121    122  83.0   1.8  34152  289.45 0855.18
2009/04/23 09:23:34.7     103     -3    -33    104    109  92.1 -23.3  34154  289.46 0855.18
2009/04/23 09:23:34.8      50     16     18     53     57  71.8  19.4  34160  289.57 0855.18
2009/04/23 09:23:34.9      18    -57     16     60     63 162.2  15.3  34164  289.63 0855.18
2009/04/23 09:23:35.0       5    -73     -2     74     75 175.5  -2.2  34160  289.57 0855.18
2009/04/23 09:23:35.1      32    -59    -39     68     78 151.0 -36.8  34158  289.55 0855.18
2009/04/23 09:23:35.2      35    -74    -40     82     91 154.6 -32.2  34156  289.50 0855.18
2009/04/23 09:23:35.3      70    -56    -39     90     98 128.6 -29.0  34162  289.60 0855.18
2009/04/23 09:23:35.4     132    -60     28    146    149 114.4  11.1  34156  289.52 0855.18
2009/04/23 09:23:35.5     106     63     61    124    138  59.4  27.3  34162  289.62 0855.18
2009/04/23 09:23:35.6      83     22     48     87     99  74.9  31.4  34162  289.60 0855.18
2009/04/23 09:23:35.7     -17     21     64     28     69 320.4  74.0  34162  289.60 0855.18
2009/04/23 09:23:35.8       0     -3     37      4     37 189.7  90.0  34162  289.62 0855.18
2009/04/23 09:23:35.9      58    -14     43     60     73 104.2  39.7  34162  289.60 0855.18
2009/04/23 09:23:36.0      75    -16     51     77     92 102.4  36.5  34160  289.58 0855.18
2009/04/23 09:23:36.1      51     12    101     53    114  75.8  69.8  34162  289.60 0855.18
2009/04/23 09:23:36.2      34     36     89     50    102  43.2  68.8  34162  289.62 0855.18
2009/04/23 09:23:36.3      36     57     71     68     98  32.5  50.7  34170  289.74 0855.18
2009/04/23 09:23:36.4      21     15     64     26     69  54.0  77.1  34164  289.65 0855.18
2009/04/23 09:23:36.5      -7    -37     59     38     70 191.6  64.6  34164  289.65 0855.19
2009/04/23 09:23:36.6      29    -92     69     97    119 162.2  39.1  34158  289.53 0855.19
2009/04/23 09:23:36.7      28   -119     96    123    156 166.6  41.7  34152  289.45 0855.19
2009/04/23 09:23:36.8      74   -101    122    126    175 143.9  49.2  34160  289.58 0855.19
2009/04/23 09:23:36.9     141    -67     95    157    183 115.3  34.4  34160  289.58 0855.19
2009/04/23 09:23:37.0      25    -80     29     84     90 162.6  19.2  34158  289.53 0855.19
2009/04/23 09:23:37.1     -32   -119     50    124    133 195.2  23.0  34156  289.50 0855.19
2009/04/23 09:23:37.2     -26   -115     76    118    140 192.9  35.6  34172  289.77 0855.19
2009/04/23 09:23:37.3     -45   -138     94    146    173 198.3  35.6  34164  289.65 0855.19
2009/04/23 09:23:37.4       3    -84     86     85    120 177.8  50.1  34166  289.67 0855.19
2009/04/23 09:23:37.5      -6    -79     83     80    115 184.4  50.7  34164  289.63 0855.19
2009/04/23 09:23:37.6      17    -83     61     85    104 168.0  39.5  34164  289.63 0855.19
2009/04/23 09:23:37.7      10    -68     49     69     84 171.1  38.6  34160  289.57 0855.19
2009/04/23 09:23:37.8       8    -77     57     78     96 173.8  39.7  34162  289.60 0855.19
2009/04/23 09:23:37.9       0    -76     49     77     91 180.0  35.5  34162  289.62 0855.19
2009/04/23 09:23:38.0     -23    -93     37     96    102 194.3  22.0  34162  289.62 0855.19
2009/04/23 09:23:38.1     -62    -97     18    116    118 212.5   8.9  34162  289.62 0855.19
2009/04/23 09:23:38.2     -42   -127     34    134    139 198.3  14.3  34162  289.60 0855.19
2009/04/23 09:23:38.3     -29   -122     23    126    129 193.4  10.6  34164  289.65 0855.19
2009/04/23 09:23:38.4     -43   -129      0    137    138 198.7  -0.3  34172  289.79 0855.19
2009/04/23 09:23:38.5     -38   -105    -20    112    114 200.0 -10.3  34170  289.74 0855.19
2009/04/23 09:23:38.6      -4    -98     24     99    102 182.7  13.7  34166  289.67 0855.19
2009/04/23 09:23:38.7      -1    -81     58     82    100 181.4  39.1  34162  289.62 0855.19
2009/04/23 09:23:38.8       8    -93     50     94    106 174.7  30.8  34168  289.72 0855.19
2009/04/23 09:23:38.9     -23    -70    -15     74     76 198.7 -11.5  34170  289.75 0855.19
2009/04/23 09:23:39.0     -33    -96    -22    102    105 199.2 -12.4  34174  289.82 0855.19
2009/04/23 09:23:39.1     -23   -113     -1    116    117 191.6  -0.7  34166  289.69 0855.19
2009/04/23 09:23:39.2       6    -91    -28     92     97 176.0 -17.0  34166  289.67 0855.19
2009/04/23 09:23:39.3      37    -74     33     83     89 153.3  22.5  34162  289.62 0855.19
2009/04/23 09:23:39.4      63    -68     39     93    100 137.2  24.1  34162  289.62 0855.19
2009/04/23 09:23:39.5     -18    -78     99     81    127 193.4  56.4  34160  289.58 0855.19
2009/04/23 09:23:39.6     -39   -109     41    116    124 200.0  19.4  34166  289.67 0855.19
2009/04/23 09:23:39.7     -22   -162      8    164    165 188.0   2.9  34156  289.50 0855.19
2009/04/23 09:23:39.8      61   -139     93    152    178 156.3  34.4  34158  289.55 0855.19
2009/04/23 09:23:39.9     -24    -11    126     27    128 244.7  89.0  34156  289.52 0855.19
2009/04/23 09:23:40.0     -72     10    106     73    128 278.0  62.6  34154  289.48 0855.19
2009/04/23 09:23:40.1    -170     26     61    173    184 278.8  19.4  34154  289.48 0855.19
2009/04/23 09:23:40.2     -71    -33     83     79    114 244.7  51.2  34152  289.45 0855.19
2009/04/23 09:23:40.3    -111     -3    -40    112    119 268.3 -19.7  34154  289.48 0855.19
2009/04/23 09:23:40.4    -104    -35     21    110    113 251.4  11.1  34154  289.46 0855.19
2009/04/23 09:23:40.5     -54    -61     11     82     83 221.4   8.0  34154  289.48 0855.18
2009/04/23 09:23:40.6      -3    -78    -13     79     81 182.2  -9.8  34156  289.50 0855.18
2009/04/23 09:23:40.7      19    -19      0     28     29 135.0   0.8  34154  289.46 0855.18
2009/04/23 09:23:40.8       8    -59    -15     60     63 171.9 -14.5  34156  289.52 0855.18
2009/04/23 09:23:40.9       6    -27      5     28     29 166.6  11.1  34156  289.50 0855.18
2009/04/23 09:23:41.0       8     26     26     28     38  18.7  52.0  34158  289.55 0855.18
2009/04/23 09:23:41.1      51    -12     15     53     56 104.2  16.3  34160  289.57 0855.18
2009/04/23 09:23:41.2      36    -46     56     59     81 142.2  48.5  34160  289.57 0855.18
2009/04/23 09:23:41.3      76     -5     74     77    106  94.3  49.0  34154  289.48 0855.18
2009/04/23 09:23:41.4      40      8     66     41     77  77.6  64.7  34156  289.50 0855.18
2009/04/23 09:23:41.5      40     -2     84     41     93  93.5  72.8  34160  289.58 0855.18
2009/04/23 09:23:41.6      85      3    116     86    144  87.4  60.5  34156  289.52 0855.18
2009/04/23 09:23:41.7      61     50    115     80    140  50.5  62.1  34158  289.55 0855.18
2009/04/23 09:23:41.8     106     61    116    123    169  60.2  48.5  34152  289.43 0855.18
2009/04/23 09:23:41.9     122     68    160    141    213  60.7  54.2  34152  289.45 0855.18
2009/04/23 09:23:42.0      54     37    115     66    132  54.9  67.7  34150  289.41 0855.18
2009/04/23 09:23:42.1      59     71    104     93    139  39.6  53.3  34154  289.46 0855.18
2009/04/23 09:23:42.2      77    210     22    224    226  20.3   5.7  34152  289.45 0855.18
2009/04/23 09:23:42.3     109    159    -47    193    199  34.5 -13.9  34158  289.53 0855.18
2009/04/23 09:23:42.4     102     60    108    119    160  59.3  46.9  34156  289.52 0855.18
2009/04/23 09:23:42.5     225     22    182    227    290  84.3  43.0  34150  289.41 0855.18
2009/04/23 09:23:42.6     182     40    168    187    251  77.6  46.6  34156  289.50 0855.18
2009/04/23 09:23:42.7     133    -64    -89    148    172 115.8 -38.6  34154  289.48 0855.18
2009/04/23 09:23:42.8     131   -109   -152    171    228 129.8 -50.6  34158  289.55 0855.18
2009/04/23 09:23:42.9     314     -3   -206    315    376  90.6 -40.7  34152  289.45 0855.18
2009/04/23 09:23:43.0     510     62    -94    514    523  83.0 -10.4  34148  289.38 0855.18
2009/04/23 09:23:43.1     574    184    -54    603    606  72.2  -5.2  34134  289.12 0855.18
2009/04/23 09:23:43.2     652    185     51    678    680  74.1   4.4  34138  289.19 0855.18
2009/04/23 09:23:43.3     465     64     61    470    474  82.1   7.4  34142  289.27 0855.18
2009/04/23 09:23:43.4     330   -124    -74    353    361 110.7 -11.9  34142  289.28 0855.18
2009/04/23 09:23:43.5     369    -59    122    374    394  99.2  18.2  34140  289.23 0855.18
2009/04/23 09:23:43.6     340   -154    -33    374    376 114.3  -5.1  34152  289.42 0855.18
2009/04/23 09:23:43.7     289   -206    -33    355    357 125.5  -5.4  34156  289.50 0855.18
2009/04/23 09:23:43.8     302    -81    -58    313    319 105.1 -10.5  34158  289.54 0855.18
2009/04/23 09:23:43.9     314    -92    -95    328    342 106.4 -16.2  34158  289.55 0855.18
2009/04/23 09:23:44.0     253   -134   -139    287    318 118.0 -32.2  34158  289.54 0855.18
2009/04/23 09:23:44.1     283    -93    -85    298    311 108.2 -16.0  34158  289.54 0855.18
2009/04/23 09:23:44.2     313   -134     19    341    342 113.3   3.2  34156  289.52 0855.18
2009/04/23 09:23:44.3     244   -195      3    313    314 128.6   0.7  34164  289.64 0855.18
2009/04/23 09:23:44.4     187   -238     20    303    304 141.9   3.9  34154  289.46 0855.18
2009/04/23 09:23:44.5     182   -222     34    288    291 140.6   6.9  34156  289.51 0855.19
2009/04/23 09:23:44.6     198   -274    -18    339    340 144.2  -3.2  34150  289.40 0855.19
2009/04/23 09:23:44.7     235   -241    -13    337    338 135.8  -2.2  34150  289.40 0855.19
2009/04/23 09:23:44.8     231   -197    -55    304    310 130.5 -10.4  34146  289.34 0855.19
2009/04/23 09:23:44.9     253   -101    -25    273    275 111.8  -5.4  34150  289.41 0855.19
2009/04/23 09:23:45.0     262    -87     33    277    280 108.4   6.9  34146  289.34 0855.19
2009/04/23 09:23:45.1     250    -41     33    254    257  99.5   7.5  34150  289.39 0855.19
2009/04/23 09:23:45.2     187    -63     16    198    199 108.6   4.9  34148  289.36 0855.19
2009/04/23 09:23:45.3     162    -24      9    164    165  98.6   3.1  34150  289.40 0855.19
2009/04/23 09:23:45.4      65      0     56     66     86  89.2  45.4  34150  289.41 0855.19
2009/04/23 09:23:45.5      39    -17     26     43     50 114.4  34.4  34152  289.45 0855.19
2009/04/23 09:23:45.6      84     65     74    107    130  52.2  37.6  34150  289.40 0855.19
2009/04/23 09:23:45.7     134    -31     89    138    164 103.2  35.7  34152  289.45 0855.19
2009/04/23 09:23:45.8     131   -125    107    182    211 133.6  33.4  34150  289.41 0855.19
2009/04/23 09:23:45.9     190   -109     87    220    236 119.8  22.8  34148  289.36 0855.19
2009/04/23 09:23:46.0     178   -113     30    211    214 122.4   8.2  34146  289.35 0855.19
2009/04/23 09:23:46.1     184    -82      9    202    203 114.2   2.8  34148  289.38 0855.19
2009/04/23 09:23:46.2     181    -47      9    188    189 104.8   2.9  34146  289.35 0855.19
2009/04/23 09:23:46.3     195    -26     30    197    200  97.7   8.8  34146  289.33 0855.19
2009/04/23 09:23:46.4     182    -23     60    184    194  97.2  18.1  34148  289.36 0855.19
2009/04/23 09:23:46.5     124   -152    112    197    226 140.8  32.1  34144  289.30 0855.19
2009/04/23 09:23:46.6     132    -88    103    159    189 123.7  35.7  34142  289.28 0855.19
2009/04/23 09:23:46.7     210   -133    142    249    286 122.4  32.3  34146  289.34 0855.19
2009/04/23 09:23:46.8     198    -93    171    219    277 115.2  41.7  34144  289.31 0855.19
2009/04/23 09:23:46.9      64    -64    146     91    172 135.0  65.1  34146  289.33 0855.19
2009/04/23 09:23:47.0      44   -206    142    211    254 167.7  37.3  34140  289.24 0855.19
2009/04/23 09:23:47.1     -18   -239    170    240    294 184.5  39.1  34140  289.24 0855.19
2009/04/23 09:23:47.2     -86   -309    202    321    379 195.6  35.5  34136  289.15 0855.19
2009/04/23 09:23:47.3    -152   -297    176    334    377 207.2  30.1  34142  289.28 0855.19
2009/04/23 09:23:47.4    -132   -257    192    289    346 207.2  36.6  34144  289.30 0855.19
2009/04/23 09:23:47.5    -110   -138    245    177    302 218.7  60.6  34146  289.32 0855.20
2009/04/23 09:23:47.6     -47   -234    179    239    298 191.5  40.6  34144  289.29 0855.20
2009/04/23 09:23:47.7      11   -269    154    270    310 177.5  32.4  34146  289.34 0855.20
2009/04/23 09:23:47.8     -80   -275    113    287    308 196.3  23.0  34140  289.24 0855.20
2009/04/23 09:23:47.9     -15   -259    132    260    291 183.4  29.2  34154  289.47 0855.20
2009/04/23 09:23:48.0     -13   -300    146    301    334 182.6  27.7  34152  289.42 0855.20
2009/04/23 09:23:48.1     -42   -301    151    305    340 188.0  28.2  34146  289.35 0855.20
2009/04/23 09:23:48.2     -84   -310    177    322    367 195.2  31.3  34152  289.45 0855.20
2009/04/23 09:23:48.3     -87   -317    201    329    385 195.5  34.4  34152  289.45 0855.20
2009/04/23 09:23:48.4    -113   -221    169    249    300 207.2  37.4  34152  289.42 0855.20
2009/04/23 09:23:48.5     -61   -236    166    244    295 194.7  37.6  34150  289.41 0855.20
2009/04/23 09:23:48.6     -42   -225    183    230    293 190.7  42.7  34154  289.47 0855.20
2009/04/23 09:23:48.7     -54   -208    173    215    275 194.7  43.0  34158  289.54 0855.20
2009/04/23 09:23:48.8     -89   -223    169    241    294 201.8  38.6  34160  289.56 0855.20
2009/04/23 09:23:48.9     -38   -188    156    192    247 191.5  43.5  34148  289.36 0855.20
2009/04/23 09:23:49.0     -21   -193    176    195    262 186.2  46.9  34144  289.31 0855.20
2009/04/23 09:23:49.1     -36   -184    145    188    237 191.1  41.6  34142  289.28 0855.20
2009/04/23 09:23:49.2     -75   -186    195    201    280 202.1  49.4  34148  289.36 0855.20
2009/04/23 09:23:49.3    -146   -147     25    208    210 224.8   7.1  34150  289.41 0855.20
2009/04/23 09:23:49.4    -166    -97     -4    193    194 239.8  -1.3  34156  289.52 0855.20
2009/04/23 09:23:49.5    -113   -111      2    159    160 225.4   1.0  34146  289.35 0855.20
2009/04/23 09:23:49.6     -65   -134     18    150    152 205.9   6.9  34152  289.43 0855.20
2009/04/23 09:23:49.7     -55   -127    118    139    182 203.6  44.8  34146  289.33 0855.20
2009/04/23 09:23:49.8     -15   -186    139    187    233 184.9  40.1  34144  289.30 0855.20
2009/04/23 09:23:49.9     -36   -239    182    242    302 188.7  40.7  34142  289.27 0855.20
2009/04/23 09:23:50.0     -99   -219    212    241    320 204.3  46.1  34146  289.32 0855.20
2009/04/23 09:23:50.1     -37   -172    143    177    227 192.3  43.5  34150  289.40 0855.20
2009/04/23 09:23:50.2    -105   -126    123    165    205 219.9  40.7  34142  289.26 0855.20
2009/04/23 09:23:50.3    -104   -184    145    212    256 209.4  37.6  34148  289.36 0855.20
2009/04/23 09:23:50.4     -46   -212    117    217    246 192.3  30.6  34144  289.31 0855.20
2009/04/23 09:23:50.5     -47   -236    102    241    261 191.3  24.1  34148  289.36 0855.20
2009/04/23 09:23:50.6     -31   -248     73    251    262 187.3  16.3  34150  289.39 0855.20
2009/04/23 09:23:50.7       1   -219    -15    220    221 179.5  -4.1  34148  289.36 0855.20
2009/04/23 09:23:50.8     -29   -277    -57    279    285 186.0 -11.6  34146  289.32 0855.20
2009/04/23 09:23:50.9     -95   -275     56    291    297 199.1  11.0  34142  289.25 0855.20
2009/04/23 09:23:51.0     -49   -339     62    343    349 188.3  10.3  34148  289.37 0855.20
2009/04/23 09:23:51.1     -80   -327    103    337    353 193.8  17.0  34142  289.28 0855.20
2009/04/23 09:23:51.2    -118   -270    102    295    313 203.6  19.2  34146  289.32 0855.20
2009/04/23 09:23:51.3     -78   -235     77    248    260 198.5  17.4  34142  289.27 0855.20
2009/04/23 09:23:51.4     -40   -224     93    228    246 190.2  23.4  34146  289.32 0855.20
2009/04/23 09:23:51.5      53   -218    151    225    270 166.2  36.7  34142  289.27 0855.19
2009/04/23 09:23:51.6     139   -184    181    231    293 143.0  42.0  34134  289.12 0855.19
2009/04/23 09:23:51.7      76   -138    137    158    209 151.0  45.4  34144  289.30 0855.19
2009/04/23 09:23:51.8      72   -156    145    173    225 155.1  43.8  34134  289.14 0855.19
2009/04/23 09:23:51.9      73   -143    157    161    224 152.9  49.8  34142  289.26 0855.19
2009/04/23 09:23:52.0       2      5     87      6     87  25.4  90.0  34148  289.36 0855.19
2009/04/23 09:23:52.1      52    -44     65     69     94 130.4  49.0  34146  289.35 0855.19
2009/04/23 09:23:52.2      -4   -172     61    173    184 181.4  19.4  34140  289.23 0855.19
2009/04/23 09:23:52.3      -4   -340    141    341    369 180.8  23.8  34138  289.21 0855.19
2009/04/23 09:23:52.4      94   -476    177    486    517 168.8  20.9  34136  289.18 0855.19
2009/04/23 09:23:52.5       2   -432    113    433    448 179.7  14.7  34138  289.21 0855.19
2009/04/23 09:23:52.6      49   -447     86    450    459 173.7  10.8  34142  289.26 0855.19
2009/04/23 09:23:52.7      42   -397     78    400    408 173.9  11.1  34142  289.26 0855.19
2009/04/23 09:23:52.8     -38   -501    128    503    520 184.4  14.3  34142  289.25 0855.19
2009/04/23 09:23:52.9     -21   -497     60    498    502 182.5   6.9  34140  289.22 0855.19
2009/04/23 09:23:53.0      -6   -390    122    391    410 180.9  17.4  34130  289.07 0855.19
2009/04/23 09:23:53.1     -35   -340    182    342    387 186.0  30.3  34136  289.18 0855.19
2009/04/23 09:23:53.2      26   -344    162    346    382 175.5  27.1  34132  289.10 0855.19
2009/04/23 09:23:53.3      31   -278    177    280    331 173.5  35.5  34132  289.10 0855.19
2009/04/23 09:23:53.4     121   -329    143    351    379 159.7  23.2  34136  289.16 0855.19
2009/04/23 09:23:53.5      79   -418    171    426    459 169.3  23.0  34136  289.16 0855.20
2009/04/23 09:23:53.6       3   -378    188    379    423 179.4  28.2  34136  289.16 0855.20
2009/04/23 09:23:53.7       2   -388    151    389    417 179.7  22.4  34134  289.14 0855.20
2009/04/23 09:23:53.8     -42   -338    108    341    358 187.2  17.7  34134  289.13 0855.20
2009/04/23 09:23:53.9      70   -364    115    371    389 169.1  17.3  34134  289.13 0855.20
2009/04/23 09:23:54.0      28   -395     79    396    404 175.9  11.3  34132  289.10 0855.20
2009/04/23 09:23:54.1       2   -346     22    347    348 179.5   3.7  34130  289.08 0855.20
2009/04/23 09:23:54.2     -99   -440     45    452    455 192.7   5.8  34138  289.19 0855.20
2009/04/23 09:23:54.3     -30   -418      0    420    421 184.1   0.0  34134  289.14 0855.20
2009/04/23 09:23:54.4       0   -392     43    393    396 180.0   6.4  34126  288.99 0855.20
2009/04/23 09:23:54.6     -21   -411    -92    412    423 183.0 -12.6  34122  288.94 0855.20
2009/04/23 09:23:54.6     -99   -365     -1    379    380 195.3  -0.2  34110  288.72 0855.20
2009/04/23 09:23:54.7    -125   -292    153    318    352 203.2  27.4  34128  289.04 0855.20
2009/04/23 09:23:54.8    -103   -278     91    297    311 200.3  17.2  34124  288.95 0855.20
2009/04/23 09:23:54.9     -68   -236     48    246    251 196.1  11.1  34124  288.95 0855.20
2009/04/23 09:23:55.0      18   -247     97    248    266 175.6  22.5  34126  289.00 0855.20
2009/04/23 09:23:55.1     -84   -197     18    215    216 203.2   4.9  34122  288.92 0855.20
2009/04/23 09:23:55.2     -53   -252     -1    258    259 192.0  -0.3  34124  288.97 0855.20
2009/04/23 09:23:55.4     -55   -271      8    277    278 191.6   1.8  34122  288.93 0855.20
2009/04/23 09:23:55.5     -89   -233    -13    250    251 200.9  -3.1  34120  288.90 0855.20
2009/04/23 09:23:55.6     -50   -249    -66    255    264 191.5 -14.5  34126  289.00 0855.19
2009/04/23 09:23:55.7     -62   -349    -51    355    359 190.1  -8.2  34126  288.98 0855.19
2009/04/23 09:23:55.7     -32   -353    -54    355    360 185.2  -8.7  34118  288.86 0855.19
2009/04/23 09:23:55.9      33   -373    -76    375    383 174.9 -11.5  34124  288.96 0855.19
2009/04/23 09:23:56.0      -6   -372   -110    373    390 181.0 -16.5  34126  288.98 0855.19
2009/04/23 09:23:56.1      74   -432    -78    439    446 170.2 -10.1  34128  289.02 0855.19
2009/04/23 09:23:56.2      58   -430    -80    434    442 172.2 -10.5  34124  288.95 0855.19
2009/04/23 09:23:56.3      87   -409    -32    419    421 167.9  -4.5  34128  289.04 0855.19
2009/04/23 09:23:56.4      49   -388    -15    392    393 172.7  -2.2  34112  288.77 0855.19
2009/04/23 09:23:56.5      67   -293      0    301    302 167.1   0.0  34112  288.75 0855.19
2009/04/23 09:23:56.6       0   -283     -5    284    285 180.0  -1.2  34114  288.80 0855.19
2009/04/23 09:23:56.7     -49   -355     31    359    361 188.0   5.1  34116  288.84 0855.19
2009/04/23 09:23:56.8     -84   -400     28    409    410 191.9   4.0  34120  288.89 0855.19
2009/04/23 09:23:56.9     -69   -354      3    361    362 191.1   0.5  34120  288.91 0855.19
2009/04/23 09:23:57.0    -109   -346      2    363    364 197.5   0.4  34118  288.86 0855.19
2009/04/23 09:23:57.1     -44   -385     71    388    395 186.6  10.4  34116  288.84 0855.19
2009/04/23 09:23:57.2     -58   -417     28    422    423 188.0   3.8  34114  288.78 0855.19
2009/04/23 09:23:57.3     -22   -291     14    292    293 184.4   2.8  34112  288.76 0855.19
2009/04/23 09:23:57.4      51   -228     73    234    246 167.3  17.3  34110  288.71 0855.19
2009/04/23 09:23:57.5      22   -334     18    335    336 176.2   3.1  34106  288.67 0855.19
2009/04/23 09:23:57.6      99   -312    -26    328    330 162.4  -4.6  34110  288.71 0855.20
2009/04/23 09:23:57.7      35   -284     -1    287    288 172.8  -0.3  34104  288.63 0855.20
2009/04/23 09:23:57.8       3   -286      8    287    288 179.3   1.7  34104  288.63 0855.20
2009/04/23 09:23:57.9     -68   -292     76    300    310 193.3  14.3  34098  288.51 0855.20
2009/04/23 09:23:58.0    -111   -295    112    316    336 200.7  19.6  34100  288.57 0855.20
2009/04/23 09:23:58.1    -121   -226     80    257    270 208.1  17.4  34100  288.54 0855.20
2009/04/23 09:23:58.2     -67   -219     67    230    240 197.0  16.3  34108  288.68 0855.20
2009/04/23 09:23:58.3     -25   -265     35    267    270 185.6   7.5  34110  288.71 0855.20
2009/04/23 09:23:58.4      70   -230     -4    241    242 163.1  -1.1  34112  288.76 0855.20
2009/04/23 09:23:58.5     110   -268     74    290    300 157.7  14.3  34112  288.75 0855.20
2009/04/23 09:23:58.6     149   -227    -14    272    273 146.6  -3.1  34114  288.78 0855.20
2009/04/23 09:23:58.7     165   -258     14    307    308 147.4   2.8  34110  288.71 0855.20
2009/04/23 09:23:58.8     183   -290    -61    343    349 147.8 -10.2  34090  288.40 0855.20
2009/04/23 09:23:58.9     203   -263    -35    333    335 142.4  -6.1  34096  288.50 0855.20
2009/04/23 09:23:59.0     220   -227     68    317    325 135.9  12.1  34098  288.51 0855.20
2009/04/23 09:23:59.1     216   -216     91    306    320 134.9  16.6  34096  288.49 0855.20
2009/04/23 09:23:59.2     213   -221    133    308    335 136.1  24.8  34098  288.51 0855.20
2009/04/23 09:23:59.3     221   -312    132    383    406 144.7  19.1  34100  288.54 0855.20
2009/04/23 09:23:59.4     229   -296    112    375    392 142.3  16.7  34100  288.54 0855.20
2009/04/23 09:23:59.5     188   -317    138    369    393 149.3  21.5  34092  288.42 0855.20
2009/04/23 09:23:59.6     174   -313    112    359    377 151.0  17.3  34090  288.40 0855.19
2009/04/23 09:23:59.7     133   -269    115    301    322 153.7  21.8  34092  288.41 0855.19
2009/04/23 09:23:59.8     110   -274    187    296    350 158.1  35.5  34092  288.42 0855.19
2009/04/23 09:23:59.9     124   -263    193    292    350 154.7  36.4  34084  288.30 0855.19
2009/04/23 09:24:00.0     116   -213    202    243    315 151.3  44.1  34088  288.36 0855.19
2009/04/23 09:24:00.1      83   -177    164    196    255 154.7  44.1  34096  288.49 0855.19
2009/04/23 09:24:00.2      95   -249    176    267    319 159.0  36.4  34096  288.48 0855.19
2009/04/23 09:24:00.3      38   -254    240    257    351 171.3  47.9  34098  288.51 0855.19
2009/04/23 09:24:00.4      64   -315    200    322    379 168.4  35.1  34096  288.50 0855.19
2009/04/23 09:24:00.5     128   -265    222    295    369 154.1  40.8  34098  288.52 0855.19
2009/04/23 09:24:00.6      75   -303    195    313    368 166.0  35.2  34102  288.59 0855.19
2009/04/23 09:24:00.7     118   -329    154    350    382 160.2  25.3  34102  288.59 0855.19
2009/04/23 09:24:00.8     150   -289    131    326    351 152.6  23.0  34102  288.59 0855.19
2009/04/23 09:24:00.9     138   -337    126    365    387 157.7  19.1  34104  288.62 0855.19
2009/04/23 09:24:01.0     110   -330    123    349    371 161.5  19.5  34100  288.54 0855.19
2009/04/23 09:24:01.1      95   -281    130    297    324 161.3  25.2  34096  288.49 0855.19
2009/04/23 09:24:01.2      95   -237    119    256    282 158.1  26.6  34098  288.53 0855.19
2009/04/23 09:24:01.3     111   -246    103    270    288 155.7  21.7  34094  288.46 0855.19
2009/04/23 09:24:01.4     145   -227    117    270    294 147.5  25.1  34094  288.46 0855.19
2009/04/23 09:24:01.5     121   -262     78    289    300 155.1  15.2  34098  288.53 0855.19
2009/04/23 09:24:01.6     185   -284    123    340    362 146.9  19.9  34090  288.38 0855.20
2009/04/23 09:24:01.7     191   -256    134    320    346 143.3  24.1  34094  288.44 0855.20
2009/04/23 09:24:01.8     138   -223    123    263    290 148.3  27.1  34092  288.43 0855.20
2009/04/23 09:24:01.9     125   -225    125    258    286 150.8  27.3  34094  288.44 0855.20
2009/04/23 09:24:02.0     150   -228     96    274    290 146.6  20.0  34090  288.39 0855.20
2009/04/23 09:24:02.1     107   -228    111    252    275 154.8  25.2  34094  288.46 0855.20
2009/04/23 09:24:02.2     151   -268     74    308    317 150.6  13.7  34092  288.43 0855.20
2009/04/23 09:24:02.3     162   -278     84    322    333 149.7  14.7  34094  288.47 0855.20
2009/04/23 09:24:02.4     148   -266    111    305    324 150.8  20.8  34094  288.46 0855.20
2009/04/23 09:24:02.5     166   -256     67    306    314 147.0  12.4  34094  288.46 0855.20
2009/04/23 09:24:02.6     138   -206      7    248    249 146.2   1.8  34094  288.44 0855.20
2009/04/23 09:24:02.7     179   -190     57    262    269 136.8  12.4  34094  288.46 0855.20
2009/04/23 09:24:02.8     143   -161     74    216    229 138.5  18.9  34092  288.43 0855.20
2009/04/23 09:24:02.9     162   -157     84    226    241 134.2  21.3  34094  288.44 0855.20
2009/04/23 09:24:03.0     125   -285     85    312    324 156.3  15.3  34098  288.51 0855.20
2009/04/23 09:24:03.1     167   -324     82    365    375 152.7  12.8  34108  288.69 0855.20
2009/04/23 09:24:03.2     172   -249     49    303    308 145.3   9.3  34106  288.66 0855.20
2009/04/23 09:24:03.3     142   -247     83    285    297 150.1  16.3  34114  288.78 0855.20
2009/04/23 09:24:03.4     151   -226    101    273    291 146.2  21.0  34120  288.88 0855.20
2009/04/23 09:24:03.5     124   -148     83    194    211 139.9  24.6  34124  288.97 0855.20
2009/04/23 09:24:03.6      78   -142    112    163    197 151.1  37.6  34122  288.94 0855.19
2009/04/23 09:24:03.7      42   -243     84    247    262 170.0  18.9  34116  288.83 0855.19
2009/04/23 09:24:03.8     105   -266     25    287    289 158.4   5.0  34116  288.83 0855.19
2009/04/23 09:24:03.9      61   -227     18    236    237 164.9   4.4  34116  288.83 0855.19
2009/04/23 09:24:04.0      67   -243     35    253    256 164.6   8.0  34112  288.75 0855.19
2009/04/23 09:24:04.1      23   -215     75    217    230 173.8  19.2  34110  288.72 0855.19
2009/04/23 09:24:04.2      20   -197     85    199    216 174.0  24.6  34110  288.74 0855.19
2009/04/23 09:24:04.3       5   -216     99    217    238 178.6  26.2  34116  288.82 0855.19
2009/04/23 09:24:04.4     -20   -153     98    155    183 187.6  35.5  34120  288.91 0855.19
2009/04/23 09:24:04.5      93   -162     66    187    199 150.1  19.4  34116  288.82 0855.19
2009/04/23 09:24:04.6      96   -186     42    210    215 152.6  11.4  34112  288.75 0855.19
2009/04/23 09:24:04.7     102   -162     37    192    196 147.7  11.1  34116  288.84 0855.19
2009/04/23 09:24:04.8      67   -138     51    154    163 154.1  18.6  34120  288.89 0855.19
2009/04/23 09:24:04.9     101   -101     58    144    155 135.0  23.0  34118  288.86 0855.19
2009/04/23 09:24:05.0     128    -96     30    160    163 126.9  10.8  34116  288.84 0855.19
2009/04/23 09:24:05.1     109   -140    125    178    217 142.2  38.6  34118  288.86 0855.19
2009/04/23 09:24:05.2      44   -179    151    185    238 166.2  43.5  34114  288.80 0855.19
2009/04/23 09:24:05.3      59   -135    154    148    213 156.3  50.9  34116  288.84 0855.19
2009/04/23 09:24:05.4      41   -134    106    141    176 163.1  40.7  34120  288.91 0855.19
2009/04/23 09:24:05.5      54   -136     99    147    177 158.2  37.3  34118  288.86 0855.19
2009/04/23 09:24:05.6      43   -166    137    172    219 165.3  42.7  34116  288.84 0855.18
2009/04/23 09:24:05.7      11   -138    127    139    188 175.1  47.5  34118  288.87 0855.18
2009/04/23 09:24:05.8      29   -164    164    167    234 170.0  49.9  34116  288.84 0855.18
2009/04/23 09:24:05.9      14   -131    136    132    189 173.7  50.7  34120  288.89 0855.18
2009/04/23 09:24:06.0      20   -143    123    145    190 172.0  44.5  34122  288.92 0855.18
2009/04/23 09:24:06.1     -47   -198    125    204    239 193.4  34.4  34120  288.91 0855.18
2009/04/23 09:24:06.2     -60   -229    106    237    259 194.7  25.7  34120  288.90 0855.18
2009/04/23 09:24:06.3     -57   -214     72    222    234 195.1  17.9  34122  288.92 0855.18
2009/04/23 09:24:06.4     -25   -197     77    199    213 187.3  22.0  34120  288.91 0855.18
2009/04/23 09:24:06.5     -42   -171     -9    177    178 193.8  -3.1  34118  288.87 0855.18
2009/04/23 09:24:06.6     -46   -134     65    142    156 199.2  26.6  34124  288.96 0855.18
2009/04/23 09:24:06.7    -126   -119     98    174    199 226.7  31.9  34124  288.97 0855.18
2009/04/23 09:24:06.8    -134   -131    121    188    223 225.8  35.6  34122  288.92 0855.18
2009/04/23 09:24:06.9       0   -130    131    131    185 180.0  50.1  34118  288.86 0855.18
2009/04/23 09:24:07.0     -19    -26     83     33     89 216.1  77.6  34122  288.92 0855.18
2009/04/23 09:24:07.1       8     -8     87     12     87 136.8  90.0  34124  288.96 0855.18
2009/04/23 09:24:07.2     -78     31      1     85     86 291.7   0.8  34128  289.02 0855.18
2009/04/23 09:24:07.3     -76    -57    -23     95     98 233.1 -13.9  34128  289.02 0855.18
2009/04/23 09:24:07.4     -44    -82      8     94     95 208.5   5.4  34124  288.97 0855.18
2009/04/23 09:24:07.5     -30   -128     78    132    153 193.4  33.5  34124  288.97 0855.18
2009/04/23 09:24:07.6     -91   -134     75    163    179 214.2  26.6  34114  288.79 0855.17
2009/04/23 09:24:07.7    -139    -76     12    159    160 241.1   4.4  34122  288.94 0855.17
2009/04/23 09:24:07.8    -174    -13    -56    175    183 265.6 -23.0  34126  288.99 0855.17
2009/04/23 09:24:07.9    -130   -103    -56    167    176 231.6 -23.6  34126  288.99 0855.17
2009/04/23 09:24:08.0    -127   -198    -63    236    245 212.6 -15.0  34114  288.80 0855.17
2009/04/23 09:24:08.1    -111   -153    -10    190    191 216.1  -3.3  34122  288.94 0855.17
2009/04/23 09:24:08.2     -95   -191     35    214    217 206.5   9.3  34116  288.84 0855.17
2009/04/23 09:24:08.3    -147   -140     18    204    205 226.4   5.2  34116  288.84 0855.17
2009/04/23 09:24:08.4    -264   -145    -94    302    317 241.2 -17.3  34122  288.93 0855.17
2009/04/23 09:24:08.5    -292    -79    -69    303    311 254.9 -12.9  34122  288.93 0855.17
2009/04/23 09:24:08.6    -288    -45    -85    292    304 261.0 -21.0  34126  288.98 0855.18
2009/04/23 09:24:08.7    -259   -146    -76    298    308 240.5 -14.4  34128  289.03 0855.18
2009/04/23 09:24:08.8    -270   -189     14    330    331 234.9   2.5  34120  288.88 0855.18
2009/04/23 09:24:08.9    -326   -139    -98    355    369 246.8 -15.4  34128  289.04 0855.18
2009/04/23 09:24:09.0    -270    -86    -36    284    287 252.3  -7.3  34138  289.20 0855.18
2009/04/23 09:24:09.1    -156    -63     28    169    172 248.0   9.5  34130  289.08 0855.18
2009/04/23 09:24:09.2    -133   -201     90    242    258 213.6  21.3  34118  288.87 0855.18
2009/04/23 09:24:09.3     -54   -175     99    184    208 197.2  30.6  34116  288.84 0855.18
2009/04/23 09:24:09.4     -97   -254    138    273    305 201.0  28.7  34118  288.85 0855.18
2009/04/23 09:24:09.5    -165   -279     52    325    330 210.6   9.2  34116  288.83 0855.18
2009/04/23 09:24:09.6    -101   -300     87    317    329 198.7  15.4  34120  288.88 0855.18
2009/04/23 09:24:09.7     -88   -287    152    301    337 197.2  28.9  34118  288.87 0855.18
2009/04/23 09:24:09.8    -221   -270      7    350    351 219.3   1.2  34124  288.96 0855.18
2009/04/23 09:24:09.9    -158   -232     15    281    282 214.3   3.1  34120  288.90 0855.18
2009/04/23 09:24:10.0    -115   -242     57    269    276 205.5  12.1  34126  288.98 0855.18
2009/04/23 09:24:10.1    -120   -198     64    232    241 211.4  15.6  34126  288.98 0855.18
2009/04/23 09:24:10.2     -26   -180    115    182    215 188.2  35.5  34118  288.86 0855.18
2009/04/23 09:24:10.3    -101   -194    132    219    255 207.6  34.0  34120  288.88 0855.18
2009/04/23 09:24:10.4    -132   -167    116    214    243 218.3  31.0  34120  288.88 0855.18
2009/04/23 09:24:10.5    -152   -143    133    209    247 226.7  35.5  34122  288.92 0855.18
2009/04/23 09:24:10.6    -155   -145    148    213    259 226.9  38.4  34118  288.85 0855.19
2009/04/23 09:24:10.7    -190   -127     86    229    244 236.3  21.3  34118  288.87 0855.19
2009/04/23 09:24:10.8    -187    -44     74    193    206 256.7  22.0  34118  288.86 0855.19
2009/04/23 09:24:10.9    -177    -23     31    179    182 262.3  10.1  34116  288.82 0855.19
2009/04/23 09:24:11.0    -131    -16    -27    132    135 263.0 -11.9  34118  288.87 0855.19
2009/04/23 09:24:11.1    -191    -57     31    200    203 253.4   8.9  34116  288.82 0855.19
2009/04/23 09:24:11.2    -298    -91    -12    312    313 252.9  -2.2  34118  288.87 0855.19
2009/04/23 09:24:11.3    -197    -26     -7    199    200 262.3  -2.3  34124  288.97 0855.19
2009/04/23 09:24:11.4    -131    -95      8    162    163 234.1   2.9  34130  289.06 0855.19
2009/04/23 09:24:11.5    -213    -71   -102    225    247 251.6 -30.6  34132  289.10 0855.19
2009/04/23 09:24:11.6    -220     10   -122    221    252 272.8 -35.8  34138  289.19 0855.19
2009/04/23 09:24:11.7    -102    -15   -194    104    220 261.6 -73.7  34128  289.04 0855.19
2009/04/23 09:24:11.8    -173     82    -39    192    197 295.5 -11.6  34132  289.11 0855.19
2009/04/23 09:24:11.9    -155    -21     19    157    159 262.1   6.9  34126  288.99 0855.19
2009/04/23 09:24:12.0    -142    -43     -6    149    150 253.1  -2.6  34124  288.97 0855.19
2009/04/23 09:24:12.1    -197     15    -60    198    206 274.4 -21.7  34120  288.89 0855.19
2009/04/23 09:24:12.2    -288    -22     41    289    293 265.6   8.2  34122  288.92 0855.19
2009/04/23 09:24:12.3    -233   -162    -36    284    287 235.1  -7.3  34122  288.93 0855.19
2009/04/23 09:24:12.4    -263    -66     30    272    274 255.8   6.5  34122  288.93 0855.19
2009/04/23 09:24:12.5    -349   -101    104    364    379 253.9  16.0  34126  288.99 0855.19
2009/04/23 09:24:12.6    -347   -199     15    401    402 240.1   2.2  34136  289.15 0855.19
2009/04/23 09:24:12.7    -332   -171   -131    374    396 242.7 -24.4  34128  289.03 0855.19
2009/04/23 09:24:12.8    -263    -66    -39    272    275 255.8  -8.2  34126  288.98 0855.19
2009/04/23 09:24:12.9    -121   -237    146    267    304 207.1  31.3  34124  288.97 0855.19
2009/04/23 09:24:13.0    -130   -168     10    213    214 217.6   2.9  34132  289.09 0855.19
2009/04/23 09:24:13.1    -136    -69     90    153    177 242.9  33.1  34128  289.02 0855.19
2009/04/23 09:24:13.2     -78    -57    116     97    151 233.6  56.3  34122  288.94 0855.19
2009/04/23 09:24:13.3     -43    -82     53     93    107 208.1  32.4  34118  288.86 0855.19
2009/04/23 09:24:13.4     -75   -131     54    152    162 209.9  19.6  34116  288.84 0855.19
2009/04/23 09:24:13.5    -171   -230     64    287    295 216.7  12.6  34126  288.98 0855.19
2009/04/23 09:24:13.6    -183   -214    106    282    301 220.5  21.5  34128  289.02 0855.19
2009/04/23 09:24:13.7    -207   -207     43    293    297 225.0   8.5  34128  289.03 0855.19
2009/04/23 09:24:13.8    -225   -199     41    301    304 228.6   7.8  34126  288.98 0855.19
2009/04/23 09:24:13.9    -233   -148    109    277    297 237.5  23.0  34122  288.92 0855.19
2009/04/23 09:24:14.0    -245   -111     63    270    278 245.6  13.1  34120  288.88 0855.19
2009/04/23 09:24:14.1    -151   -228    112    274    296 213.6  23.4  34120  288.88 0855.19
2009/04/23 09:24:14.2    -143   -226    136    268    300 212.3  29.2  34122  288.92 0855.19
2009/04/23 09:24:14.3    -225   -115    -13    253    254 242.9  -3.1  34130  289.05 0855.19
2009/04/23 09:24:14.4    -167    -86     51    188    195 242.7  15.3  34136  289.18 0855.19
2009/04/23 09:24:14.5    -152    -69     62    168    179 245.6  21.3  34126  289.01 0855.19
2009/04/23 09:24:14.6     -77    -16     32     79     85 257.6  23.0  34122  288.94 0855.19
2009/04/23 09:24:14.7     -44    -22     56     50     75 243.8  53.3  34128  289.04 0855.19
2009/04/23 09:24:14.8    -121    -53     70    133    150 246.5  29.8  34132  289.09 0855.19
2009/04/23 09:24:14.9    -128     24    -16    131    133 280.6  -7.2  34128  289.04 0855.19
2009/04/23 09:24:15.0    -169    -70    -17    184    185 247.4  -5.4  34130  289.08 0855.19
2009/04/23 09:24:15.1    -161   -105     51    193    200 236.9  15.0  34132  289.11 0855.19
2009/04/23 09:24:15.2    -189    -39    -31    194    197 258.3  -9.3  34132  289.11 0855.19
2009/04/23 09:24:15.3    -238    -33    -92    241    257 262.1 -26.4  34128  289.02 0855.19
2009/04/23 09:24:15.4    -343    -88   -108    355    372 255.5 -17.0  34128  289.03 0855.19
2009/04/23 09:24:15.5    -326   -108   -108    344    361 251.6 -17.5  34130  289.08 0855.19
2009/04/23 09:24:15.6    -236   -236    -98    334    349 225.0 -16.4  34130  289.08 0855.19
2009/04/23 09:24:15.7    -314   -188   -121    366    386 239.1 -18.3  34126  288.98 0855.19
2009/04/23 09:24:15.8    -322   -133    -60    349    355 247.5  -9.9  34120  288.91 0855.19
2009/04/23 09:24:15.9    -182   -213     54    281    287 220.5  11.0  34118  288.87 0855.19
2009/04/23 09:24:16.0    -308   -119    -91    331    344 248.8 -15.5  34122  288.94 0855.19
2009/04/23 09:24:16.1    -302   -126    -47    328    332 247.4  -8.2  34124  288.96 0855.19
2009/04/23 09:24:16.2    -210   -210     -1    298    299 225.0  -0.3  34120  288.90 0855.19
2009/04/23 09:24:16.3    -192   -283    -22    343    344 214.2  -3.7  34116  288.81 0855.19
2009/04/23 09:24:16.4    -252   -208     -3    327    328 230.5  -0.6  34116  288.81 0855.19
2009/04/23 09:24:16.5    -135   -283     30    314    316 205.5   5.5  34114  288.78 0855.19
2009/04/23 09:24:16.6    -100   -244     25    264    266 202.3   5.4  34112  288.76 0855.20
2009/04/23 09:24:16.7     -29   -282     50    284    289 186.0  10.0  34114  288.80 0855.20
2009/04/23 09:24:16.8     -99   -314     55    330    335 197.6   9.5  34110  288.74 0855.20
2009/04/23 09:24:16.9     -10   -298    107    299    317 182.0  20.6  34114  288.80 0855.20
2009/04/23 09:24:17.0      -1   -383     90    384    395 180.2  13.2  34116  288.81 0855.20
2009/04/23 09:24:17.1      -8   -322     50    323    328 181.5   8.9  34108  288.70 0855.20
2009/04/23 09:24:17.2      50   -345     54    349    354 171.7   8.8  34112  288.76 0855.20
2009/04/23 09:24:17.3      54   -358     45    363    366 171.4   7.1  34118  288.86 0855.20
2009/04/23 09:24:17.4      78   -342     57    351    356 167.0   9.2  34116  288.81 0855.20
2009/04/23 09:24:17.5     146   -230    154    273    313 147.5  31.9  34116  288.83 0855.20
2009/04/23 09:24:17.6     176   -259    168    314    356 145.8  30.6  34112  288.77 0855.20
2009/04/23 09:24:17.7     133   -312    173    340    381 156.8  29.1  34114  288.79 0855.20
2009/04/23 09:24:17.8     155   -280    173    321    364 151.0  30.7  34112  288.76 0855.20
2009/04/23 09:24:17.9     268   -202    164    336    373 127.0  27.9  34116  288.81 0855.20
2009/04/23 09:24:18.0     325   -100    114    341    360 107.2  18.6  34112  288.76 0855.20
2009/04/23 09:24:18.1     358   -131    128    382    404 110.2  18.6  34114  288.79 0855.20
2009/04/23 09:24:18.2     293   -139    164    325    364 115.5  28.7  34110  288.72 0855.20
2009/04/23 09:24:18.3     101   -143    232    176    291 144.8  59.2  34114  288.78 0855.20
2009/04/23 09:24:18.4      -6   -350    160    351    385 181.0  26.3  34110  288.72 0855.20
2009/04/23 09:24:18.5       0   -503    233    504    555 180.0  26.5  34106  288.65 0855.20
2009/04/23 09:24:18.6     -37   -479    197    481    519 184.5  23.6  34104  288.64 0855.20
2009/04/23 09:24:18.7     196   -411     89    456    465 154.5  11.1  34106  288.67 0855.20
2009/04/23 09:24:18.8      73   -387     76    394    402 169.2  11.0  34110  288.71 0855.20
2009/04/23 09:24:18.9     -38   -505    138    507    526 184.4  15.3  34108  288.70 0855.20
2009/04/23 09:24:19.0       0   -529     83    530    537 179.9   9.0  34110  288.72 0855.20
2009/04/23 09:24:19.1     -39   -491     68    493    498 184.6   7.9  34100  288.56 0855.20
2009/04/23 09:24:19.2    -246   -589     -5    639    640 202.7  -0.5  34108  288.69 0855.20
2009/04/23 09:24:19.3    -288   -572    -42    641    643 206.7  -3.8  34094  288.45 0855.20
2009/04/23 09:24:19.4    -501   -375   -177    626    651 233.2 -15.8  34128  289.03 0855.20
2009/04/23 09:24:19.5    -320   -572   -134    656    670 209.3 -11.6  34112  288.77 0855.20
2009/04/23 09:24:19.6    -238   -448     -7    508    509 208.0  -0.9  34104  288.64 0855.20
2009/04/23 09:24:19.7    -241   -485     41    542    544 206.5   4.4  34108  288.70 0855.20
2009/04/23 09:24:19.8    -237   -548    -12    598    599 203.4  -1.2  34110  288.73 0855.20
2009/04/23 09:24:19.9     -94   -605     63    613    617 188.9   5.9  34100  288.55 0855.20
2009/04/23 09:24:20.0     -67   -564      3    568    569 186.8   0.4  34108  288.68 0855.20
2009/04/23 09:24:20.1       0   -549     31    550    551 179.9   3.3  34106  288.65 0855.20
2009/04/23 09:24:20.2     -52   -528    -10    531    532 185.7  -1.2  34106  288.65 0855.20
2009/04/23 09:24:20.3     -10   -566    -11    567    568 181.1  -1.1  34104  288.62 0855.20
2009/04/23 09:24:20.4    -260   -626    -60    678    681 202.6  -5.1  34098  288.53 0855.20
2009/04/23 09:24:20.5    -261   -590    -13    646    647 203.9  -1.2  34106  288.65 0855.20
2009/04/23 09:24:20.6    -303   -658    -69    725    729 204.7  -5.5  34110  288.71 0855.20
2009/04/23 09:24:20.7    -267   -433    -55    509    513 211.6  -6.2  34110  288.73 0855.20
2009/04/23 09:24:20.8    -207   -337    -35    396    398 211.5  -5.2  34114  288.79 0855.20
2009/04/23 09:24:20.9    -202   -117    -97    234    253 240.0 -28.2  34120  288.90 0855.20
2009/04/23 09:24:21.0    -186   -211    -44    282    286 221.5  -9.0  34118  288.87 0855.20
2009/04/23 09:24:21.1    -122   -121    -75    173    188 225.3 -29.3  34128  289.02 0855.20
2009/04/23 09:24:21.2    -122   -193    -67    229    238 212.5 -21.2  34114  288.78 0855.20
2009/04/23 09:24:21.3    -310   -309    -39    439    441 225.1  -5.1  34112  288.77 0855.20
2009/04/23 09:24:21.4    -140   -359   -120    386    404 201.3 -22.3  34110  288.74 0855.20
2009/04/23 09:24:21.5     -42   -338   -165    341    378 187.1 -32.1  34110  288.72 0855.20
2009/04/23 09:24:21.6     -79   -396   -173    404    439 191.3 -29.2  34112  288.77 0855.20
2009/04/23 09:24:21.7       0   -492   -141    493    513 179.9 -16.0  34110  288.73 0855.20
2009/04/23 09:24:21.9       9   -400    -21    401    402 178.6  -3.1  34102  288.60 0855.20
2009/04/23 09:24:22.0      75   -594      5    599    600 172.8   0.5  34108  288.68 0855.20
2009/04/23 09:24:22.1       9   -500    -19    501    502 178.9  -2.2  34110  288.71 0855.20
2009/04/23 09:24:22.2      62   -343    121    349    370 169.7  19.2  34112  288.76 0855.20
2009/04/23 09:24:22.3      26   -414     75    415    422 176.4  10.3  34108  288.68 0855.20
2009/04/23 09:24:22.4      18   -325     59    326    332 176.8  10.3  34112  288.77 0855.20
2009/04/23 09:24:22.5     -30   -279    102    281    298 186.2  20.9  34112  288.76 0855.20
2009/04/23 09:24:22.6     -92   -316    125    330    352 196.3  21.7  34112  288.76 0855.20
2009/04/23 09:24:22.7    -190   -329    162    380    413 210.0  24.6  34114  288.78 0855.20
2009/04/23 09:24:22.8    -136   -308    198    337    390 203.8  33.1  34114  288.79 0855.20
2009/04/23 09:24:22.9    -252   -472     70    536    541 208.1   7.5  34114  288.79 0855.20
2009/04/23 09:24:23.0    -286   -421    -98    509    519 214.2 -11.0  34110  288.74 0855.20
2009/04/23 09:24:23.1    -238   -443    -91    504    513 208.3 -10.3  34110  288.71 0855.20
2009/04/23 09:24:23.2    -216   -421    -18    474    475 207.2  -2.2  34110  288.74 0855.20
2009/04/23 09:24:23.3       4   -257    -42    258    262 179.1  -9.3  34114  288.78 0855.20
2009/04/23 09:24:23.4     143   -297    -66    330    337 154.3 -11.3  34116  288.82 0855.20
2009/04/23 09:24:23.5     215   -369    -79    428    436 149.7 -10.5  34112  288.75 0855.20
2009/04/23 09:24:23.6     211   -380    -45    435    438 151.0  -6.0  34110  288.73 0855.20
2009/04/23 09:24:23.7     232   -351     33    422    424 146.5   4.6  34110  288.73 0855.20
2009/04/23 09:24:23.8     236   -306     91    387    398 142.3  13.3  34112  288.76 0855.20
2009/04/23 09:24:23.9     241   -290     68    378    385 140.3  10.2  34112  288.77 0855.20
2009/04/23 09:24:24.0     248   -396     67    468    473 148.0   8.2  34110  288.74 0855.20
2009/04/23 09:24:24.1     281   -348      1    448    449 141.0   0.2  34112  288.77 0855.20
2009/04/23 09:24:24.2     326   -325     72    461    467 134.9   8.9  34114  288.78 0855.20
2009/04/23 09:24:24.3     327   -316     88    456    465 134.0  11.0  34106  288.67 0855.20
2009/04/23 09:24:24.4     179   -317    140    365    390 150.6  22.0  34112  288.77 0855.20
2009/04/23 09:24:24.5     283   -300     47    413    416 136.7   6.6  34112  288.75 0855.20
2009/04/23 09:24:24.6     291   -270     63    398    404 132.9   9.0  34112  288.76 0855.20
2009/04/23 09:24:24.7     287   -191     54    346    351 123.7   8.9  34112  288.76 0855.20
2009/04/23 09:24:24.8     286   -169     55    333    338 120.6   9.5  34112  288.77 0855.20
2009/04/23 09:24:24.9     313   -210    -32    377    379 123.9  -4.9  34116  288.81 0855.20
2009/04/23 09:24:25.0     346   -157     81    381    390 114.4  12.0  34116  288.82 0855.20
2009/04/23 09:24:25.1     356    -94     41    369    372 104.8   6.4  34112  288.76 0855.20
2009/04/23 09:24:25.2     281   -139     -1    314    315 116.4  -0.3  34116  288.81 0855.20
2009/04/23 09:24:25.3     182   -132     80    226    239 126.0  20.2  34116  288.81 0855.20
2009/04/23 09:24:25.4     260   -175    204    314    374 124.0  36.0  34116  288.82 0855.20
2009/04/23 09:24:25.5     201   -352    147    406    432 150.3  19.9  34120  288.89 0855.20
2009/04/23 09:24:25.6     122   -329    274    352    446 159.6  41.7  34114  288.80 0855.20
2009/04/23 09:24:25.7     184   -444    169    481    509 157.4  20.3  34118  288.86 0855.20
2009/04/23 09:24:25.8     191   -418     82    460    468 155.4  10.1  34120  288.88 0855.20
2009/04/23 09:24:25.9     356   -333     58    488    492 133.1   6.8  34120  288.88 0855.20
2009/04/23 09:24:26.0     262   -305      7    403    404 139.4   1.1  34118  288.85 0855.20
2009/04/23 09:24:26.1     227   -263      4    348    349 139.2   0.7  34118  288.86 0855.20
2009/04/23 09:24:26.2     234   -257    -13    348    349 137.7  -2.2  34120  288.91 0855.20
2009/04/23 09:24:26.3      99   -290    -53    307    312 161.1  -9.8  34120  288.88 0855.20
2009/04/23 09:24:26.4      69   -343     13    350    351 168.6   2.2  34116  288.84 0855.20
2009/04/23 09:24:26.5      54   -334     81    339    349 170.7  13.5  34118  288.86 0855.20
2009/04/23 09:24:26.6      58   -362    -47    367    371 170.8  -7.4  34120  288.89 0855.20
2009/04/23 09:24:26.7      81   -378    -84    387    397 167.9 -12.3  34120  288.91 0855.19
2009/04/23 09:24:26.8      -1   -363     -7    364    365 180.2  -1.1  34118  288.86 0855.19
2009/04/23 09:24:26.9     -21   -454    128    455    473 182.7  15.8  34120  288.90 0855.19
2009/04/23 09:24:27.0    -107   -351     28    368    370 197.0   4.5  34116  288.84 0855.19
2009/04/23 09:24:27.1    -284   -201    148    348    378 234.7  24.5  34124  288.96 0855.19
2009/04/23 09:24:27.2    -355   -134    124    380    400 249.2  18.2  34126  288.99 0855.19
2009/04/23 09:24:27.3    -258   -152     78    300    311 239.4  14.7  34128  289.02 0855.19
2009/04/23 09:24:27.4    -222      3    -25    223    225 270.8  -6.5  34128  289.04 0855.19
2009/04/23 09:24:27.5    -261     53    -27    267    269 281.5  -6.0  34132  289.09 0855.19
2009/04/23 09:24:27.6    -214    -70     52    226    233 251.8  13.1  34138  289.21 0855.19
2009/04/23 09:24:27.7    -193    -11    110    194    223 266.5  32.1  34132  289.09 0855.19
2009/04/23 09:24:27.8     -75   -117    148    140    203 212.6  51.6  34128  289.04 0855.19
2009/04/23 09:24:27.9     -52   -195    187    202    275 195.1  47.7  34124  288.95 0855.19
2009/04/23 09:24:28.0     -50   -205    184    212    280 193.8  45.8  34124  288.97 0855.19
2009/04/23 09:24:28.1    -102   -222     34    245    248 204.7   8.0  34124  288.97 0855.19
2009/04/23 09:24:28.2     -92   -195     39    216    220 205.4  10.3  34120  288.89 0855.19
2009/04/23 09:24:28.3    -164   -105     32    195    198 237.4   9.5  34124  288.96 0855.19
2009/04/23 09:24:28.4    -126   -125     31    178    181 225.2  10.1  34118  288.86 0855.19
2009/04/23 09:24:28.5    -104    -79     92    131    160 232.7  38.6  34122  288.92 0855.19
2009/04/23 09:24:28.6       0    -51    120     52    130 179.1  75.0  34126  288.99 0855.19
2009/04/23 09:24:28.7      -4    -28    124     29    127 188.0  86.9  34128  289.02 0855.18
2009/04/23 09:24:28.8      -1    -35    131     36    135 182.7  84.8  34128  289.04 0855.18
2009/04/23 09:24:28.9     -40   -123    123    130    178 198.3  48.2  34126  288.99 0855.18
2009/04/23 09:24:29.0     -43   -108    109    117    159 201.9  47.9  34124  288.96 0855.18
2009/04/23 09:24:29.1     -19   -159    150    161    220 187.1  47.9  34124  288.97 0855.18
2009/04/23 09:24:29.2     -31   -120     24    125    128 194.7  11.0  34126  288.99 0855.18
2009/04/23 09:24:29.3     -38   -114    114    121    166 198.7  48.5  34124  288.97 0855.18
2009/04/23 09:24:29.4     -42   -107     77    116    139 201.4  36.5  34122  288.94 0855.18
2009/04/23 09:24:29.5     -24   -115     83    118    144 192.0  38.6  34126  288.99 0855.18
2009/04/23 09:24:29.6     -45    -96     76    107    131 205.3  39.1  34124  288.96 0855.18
2009/04/23 09:24:29.7     -20    -51     67     56     87 201.8  55.8  34124  288.97 0855.18
2009/04/23 09:24:29.8     -10    -35     59     37     69 196.9  64.7  34124  288.96 0855.18
2009/04/23 09:24:29.9      -8      6     65     11     65 309.5  90.0  34130  289.06 0855.18
2009/04/23 09:24:30.0     -55     -7     61     56     82 262.1  52.2  34128  289.02 0855.18
2009/04/23 09:24:30.1     -58     -4     50     59     77 265.6  43.8  34128  289.04 0855.18
2009/04/23 09:24:30.2     -46      3     73     47     86 274.4  64.6  34126  288.99 0855.18
2009/04/23 09:24:30.3     -21    -25    139     33    142 219.6  86.9  34126  289.01 0855.18
2009/04/23 09:24:30.4    -113     50     92    124    154 294.0  39.7  34126  289.01 0855.18
2009/04/23 09:24:30.5    -137     12     84    138    161 275.2  34.2  34126  288.99 0855.18
2009/04/23 09:24:30.6    -116    -29    105    120    159 255.8  45.6  34126  288.99 0855.18
2009/04/23 09:24:30.7    -159      6    123    160    201 272.5  41.6  34128  289.04 0855.18
2009/04/23 09:24:30.8    -143    -37     99    148    178 255.4  37.0  34124  288.97 0855.18
2009/04/23 09:24:30.9    -138    -10    117    139    181 265.6  44.5  34124  288.97 0855.18
2009/04/23 09:24:31.0    -108    -45    101    118    155 247.4  44.8  34126  288.99 0855.18
2009/04/23 09:24:31.1    -111    -15    113    113    159 262.0  50.1  34126  288.99 0855.18
2009/04/23 09:24:31.2     -64      5    120     65    136 275.2  69.3  34128  289.02 0855.18
2009/04/23 09:24:31.3     -79   -153    158    173    234 207.2  47.5  34122  288.92 0855.18
2009/04/23 09:24:31.4      -8   -187    274    188    332 182.5  62.4  34124  288.95 0855.18
2009/04/23 09:24:31.5     -47   -173    224    180    287 195.4  57.1  34124  288.95 0855.18
2009/04/23 09:24:31.6     -60   -181    153    191    244 198.5  43.0  34124  288.97 0855.18
2009/04/23 09:24:31.7     -63   -196    106    206    231 197.8  29.3  34124  288.96 0855.17
2009/04/23 09:24:31.8       0   -162    165    163    231 180.2  50.1  34124  288.97 0855.17
2009/04/23 09:24:31.9     -37   -195    181    199    269 190.9  47.0  34128  289.02 0855.17
2009/04/23 09:24:32.0     -68   -172     70    185    197 201.6  21.5  34126  288.99 0855.17
2009/04/23 09:24:32.1     -91   -125    132    155    203 216.1  44.8  34126  289.01 0855.17
2009/04/23 09:24:32.2    -101   -137     59    171    182 216.5  19.2  34126  288.99 0855.17
2009/04/23 09:24:32.3      -4    -97    109     98    146 182.7  53.3  34124  288.97 0855.17
2009/04/23 09:24:32.4    -116    -29     41    120    127 255.8  18.9  34122  288.92 0855.17
2009/04/23 09:24:32.5    -223    -17     -1    224    225 265.6  -0.3  34128  289.04 0855.17
2009/04/23 09:24:32.6     -17   -160    128    161    205 186.2  42.7  34120  288.89 0855.17
2009/04/23 09:24:32.7     -36   -171    174    175    246 192.0  50.0  34124  288.97 0855.17
2009/04/23 09:24:32.8     -17   -122    128    124    178 188.1  50.9  34124  288.97 0855.17
2009/04/23 09:24:32.9     -38    -46    112     61    127 219.6  68.9  34126  288.99 0855.17
2009/04/23 09:24:33.0     -89      4     63     90    109 272.6  38.6  34124  288.97 0855.17
2009/04/23 09:24:33.1     -97    -58     13    114    115 238.9   6.9  34126  288.99 0855.17
2009/04/23 09:24:33.2    -127     12    -24    128    131 275.7 -10.9  34126  289.01 0855.17
2009/04/23 09:24:33.3    -110     57     -4    124    125 297.5  -2.2  34128  289.04 0855.17
2009/04/23 09:24:33.4     -52    -28    -25     60     65 241.1 -27.4  34130  289.06 0855.17
2009/04/23 09:24:33.5       5    -46     37     47     59 172.9  42.7  34126  289.01 0855.17
2009/04/23 09:24:33.6    -117   -118     82    167    186 224.9  27.8  34130  289.08 0855.17
2009/04/23 09:24:33.7      -6    -86    145     87    169 184.5  66.2  34128  289.02 0855.18
2009/04/23 09:24:33.8     -25    -63    132     68    148 201.8  70.8  34132  289.11 0855.18
2009/04/23 09:24:33.9     -59    -97    168    114    203 211.2  62.7  34128  289.04 0855.18
2009/04/23 09:24:34.0     -17    -87    156     89    179 191.6  68.1  34130  289.08 0855.18
2009/04/23 09:24:34.1      22   -110    122    113    166 168.4  52.5  34128  289.02 0855.18
2009/04/23 09:24:34.2      25    -85    110     89    141 163.5  56.4  34124  288.96 0855.18
2009/04/23 09:24:34.3      60     -3    100     61    117  93.5  65.1  34130  289.06 0855.18
2009/04/23 09:24:34.4      50     16    121     53    132  71.8  75.0  34128  289.04 0855.18
2009/04/23 09:24:34.5      60   -104    131    121    178 150.1  52.2  34130  289.08 0855.18
2009/04/23 09:24:34.6      93   -200    129    221    255 155.1  32.9  34126  289.00 0855.18
2009/04/23 09:24:34.7     118   -165     93    204    224 144.4  26.2  34126  289.01 0855.18
2009/04/23 09:24:34.8      39   -231    102    235    256 170.4  25.1  34120  288.88 0855.18
2009/04/23 09:24:34.9      46   -292    199    296    356 170.9  37.3  34128  289.04 0855.18
2009/04/23 09:24:35.0     103   -364     49    379    383 164.1   7.5  34126  288.98 0855.18
2009/04/23 09:24:35.1     113   -386    123    403    422 163.6  17.1  34130  289.05 0855.18
2009/04/23 09:24:35.2     150   -425    141    451    473 160.5  17.4  34130  289.05 0855.18
2009/04/23 09:24:35.3     140   -359    165    386    419 158.6  24.5  34130  289.07 0855.18
2009/04/23 09:24:35.4     165   -348    163    386    419 154.7  24.2  34132  289.11 0855.18
2009/04/23 09:24:35.5     122   -385     94    404    415 162.4  13.1  34130  289.07 0855.18
2009/04/23 09:24:35.6      94   -361     68    374    381 165.4  10.3  34126  288.99 0855.18
2009/04/23 09:24:35.7      53   -428      2    432    433 172.9   0.4  34130  289.07 0855.19
2009/04/23 09:24:35.8      96   -306    -73    321    330 162.6 -12.9  34126  288.98 0855.19
2009/04/23 09:24:35.9      90   -285    -37    299    302 162.4  -7.2  34128  289.03 0855.19
2009/04/23 09:24:36.0       0   -260     31    261    263 180.0   6.9  34128  289.03 0855.19
2009/04/23 09:24:36.1      17   -289     36    290    293 176.6   7.2  34130  289.05 0855.19
2009/04/23 09:24:36.2     -15   -280    103    281    299 183.1  21.0  34130  289.07 0855.19
2009/04/23 09:24:36.3       7   -332    120    333    353 178.8  20.8  34132  289.10 0855.19
2009/04/23 09:24:36.4     -55   -270     64    276    284 191.6  13.1  34132  289.09 0855.19
2009/04/23 09:24:36.5     -81   -278     71    290    299 196.3  13.9  34132  289.10 0855.19
2009/04/23 09:24:36.6     -25   -272     27    274    276 185.3   5.7  34130  289.05 0855.19
2009/04/23 09:24:36.7     -63   -242     38    251    254 194.7   8.8  34130  289.05 0855.19
2009/04/23 09:24:36.8     -17   -285     73    286    296 183.5  14.3  34130  289.07 0855.19
2009/04/23 09:24:36.9     -30   -280     44    282    286 186.2   9.0  34134  289.14 0855.19
2009/04/23 09:24:37.0     -45   -244     50    249    255 190.6  11.4  34132  289.10 0855.19
2009/04/23 09:24:37.1      10   -226    -17    227    228 177.3  -4.4  34130  289.08 0855.19
2009/04/23 09:24:37.2      31   -199    -13    202    203 171.1  -3.9  34130  289.06 0855.19
2009/04/23 09:24:37.3      39   -249      7    253    254 171.1   1.6  34128  289.03 0855.19
2009/04/23 09:24:37.4      84   -259     42    273    277 162.1   8.8  34132  289.10 0855.19
2009/04/23 09:24:37.5      85   -263     15    277    278 162.1   3.3  34132  289.09 0855.19
2009/04/23 09:24:37.6      86   -199     55    217    224 156.6  14.3  34132  289.09 0855.19
2009/04/23 09:24:37.7     105   -199     19    226    227 152.1   4.9  34132  289.09 0855.21
2009/04/23 09:24:37.8     152   -188    -47    242    247 141.0 -11.1  34132  289.09 0855.21
2009/04/23 09:24:37.9     155   -193    -56    248    255 141.3 -12.9  34134  289.12 0855.21
2009/04/23 09:24:38.0     169   -218    -43    277    281 142.2  -9.0  34132  289.10 0855.21
2009/04/23 09:24:38.1     193   -248     32    315    317 142.2   5.9  34132  289.10 0855.21
2009/04/23 09:24:38.2     143   -330    -20    360    361 156.6  -3.3  34132  289.10 0855.21
2009/04/23 09:24:38.3      99   -396      5    409    410 166.0   0.8  34134  289.12 0855.21
2009/04/23 09:24:38.4      74   -450    -20    457    458 170.7  -2.6  34132  289.11 0855.21
2009/04/23 09:24:38.5      69   -402      5    409    410 170.2   0.8  34132  289.11 0855.21
2009/04/23 09:24:38.6     136   -405      0    428    429 161.4   0.0  34130  289.07 0855.21
2009/04/23 09:24:38.7     122   -380     29    400    402 162.2   4.2  34130  289.06 0855.21
2009/04/23 09:24:38.8     107   -388     46    403    406 164.6   6.6  34134  289.14 0855.21
2009/04/23 09:24:38.9     177   -442    -37    477    479 158.2  -4.5  34130  289.08 0855.21
2009/04/23 09:24:39.0     237   -360    -39    432    434 146.6  -5.2  34128  289.02 0855.21
2009/04/23 09:24:39.2     215   -321     10    387    388 146.2   1.5  34128  289.04 0855.21
2009/04/23 09:24:39.3     198   -231      5    305    306 139.4   1.0  34130  289.05 0855.21
2009/04/23 09:24:39.3     197   -278     35    341    343 144.6   6.0  34126  289.01 0855.21
2009/04/23 09:24:39.4      99   -257    -65    276    284 158.8 -13.3  34130  289.07 0855.21
2009/04/23 09:24:39.5     108   -279    -50    300    305 158.8  -9.6  34132  289.10 0855.21
2009/04/23 09:24:39.6      36   -319    -42    322    325 173.4  -7.6  34136  289.15 0855.21
2009/04/23 09:24:39.7      47   -209    -74    215    228 167.1 -19.1  34128  289.02 0855.22
2009/04/23 09:24:39.8     129   -156   -111    203    231 140.4 -35.7  34132  289.09 0855.22
2009/04/23 09:24:39.9     165   -127    -26    209    211 127.8  -7.3  34132  289.11 0855.22
2009/04/23 09:24:40.0     142   -161      3    215    216 138.6   0.8  34126  289.01 0855.22
2009/04/23 09:24:40.1     144   -197     42    245    249 143.9   9.9  34120  288.90 0855.22
2009/04/23 09:24:40.2     117   -171     10    208    209 145.7   2.9  34124  288.96 0855.22
2009/04/23 09:24:40.3      88   -112    -18    143    145 141.7  -7.2  34128  289.02 0855.22
2009/04/23 09:24:40.4      68    -97    -29    119    123 144.8 -13.9  34130  289.08 0855.22
2009/04/23 09:24:40.5      93    -67     55    115    127 126.0  27.2  34130  289.06 0855.22
2009/04/23 09:24:40.6      34   -128     80    133    155 164.9  34.4  34126  289.01 0855.22
2009/04/23 09:24:40.7      -7   -158     57    159    168 182.7  20.4  34126  288.99 0855.22
2009/04/23 09:24:40.8      18   -240    -30    241    243 175.6  -7.3  34126  289.00 0855.22
2009/04/23 09:24:40.9      82   -211    -28    227    229 158.8  -7.2  34128  289.04 0855.22
2009/04/23 09:24:41.0      89   -182      6    203    204 153.7   1.8  34128  289.02 0855.22
2009/04/23 09:24:41.1     120   -153      0    195    196 141.7  -0.3  34126  288.99 0855.22
2009/04/23 09:24:41.2     136   -100     26    169    171 126.4   8.8  34124  288.97 0855.22
2009/04/23 09:24:41.3     137    -16     79    139    159  97.0  32.1  34124  288.96 0855.22
2009/04/23 09:24:41.4     122    -28     97    126    159 103.3  41.4  34122  288.94 0855.22
2009/04/23 09:24:41.5     153    -31    107    157    189 101.5  37.6  34122  288.94 0855.22
2009/04/23 09:24:41.7     165     -7     88    166    187  92.6  30.3  34124  288.97 0855.24
2009/04/23 09:24:41.7     106    -26     50    110    120 103.7  26.2  34126  288.99 0855.24
2009/04/23 09:24:41.8      12     -8     60     15     61 122.4  85.9  34124  288.97 0855.24
2009/04/23 09:24:41.9      50    -12     -5     52     53 104.2  -6.2  34126  288.99 0855.24
2009/04/23 09:24:42.0      25    -47      2     54     55 151.9   2.8  34124  288.96 0855.24
2009/04/23 09:24:42.1    -113   -113    -37    161    166 225.0 -12.9  34126  288.99 0855.24
2009/04/23 09:24:42.2     -93    -97    -40    135    141 223.7 -16.6  34126  289.01 0855.24
2009/04/23 09:24:42.3     -56    -82    -20    100    103 214.3 -11.3  34126  289.01 0855.24
2009/04/23 09:24:42.4     -12    -47     -1     49     50 195.1  -2.2  34122  288.94 0855.24
2009/04/23 09:24:42.5      37      0    112     38    118  90.0  80.7  34128  289.04 0855.24
2009/04/23 09:24:42.6     -44   -116    120    125    173 200.9  49.2  34126  288.99 0855.24
2009/04/23 09:24:42.7     -48   -124     61    134    147 201.4  26.6  34126  288.99 0855.24
2009/04/23 09:24:42.8     -29   -132    141    136    195 192.5  51.2  34126  288.99 0855.24
2009/04/23 09:24:42.9      -6   -196     61    197    207 182.0  17.3  34126  289.01 0855.24
2009/04/23 09:24:43.0     -33   -169     21    173    175 191.3   7.2  34126  289.01 0855.24
2009/04/23 09:24:43.1     -19   -171     56    173    182 186.5  17.9  34124  288.97 0855.24
2009/04/23 09:24:43.2      -3   -127    105    128    165 181.4  43.5  34126  288.99 0855.24
2009/04/23 09:24:43.3      36   -107    118    113    163 161.3  51.2  34124  288.96 0855.24
2009/04/23 09:24:43.4      49    -50    100     71    122 135.9  61.1  34126  289.01 0855.24
2009/04/23 09:24:43.5      16    -92     88     94    128 169.8  48.0  34130  289.08 0855.24
2009/04/23 09:24:43.6     -76   -202     72    216    228 200.7  18.4  34126  289.01 0855.24
2009/04/23 09:24:43.7     -78   -269     13    281    282 196.3   2.8  34126  288.98 0855.25
2009/04/23 09:24:43.8     -35   -355     41    357    360 185.7   6.7  34124  288.96 0855.25
2009/04/23 09:24:43.9      21   -271     53    272    278 175.5  11.1  34124  288.97 0855.25
2009/04/23 09:24:44.1      54   -228     59    235    243 166.6  14.2  34122  288.93 0855.25
2009/04/23 09:24:44.1     -87   -316    106    328    345 195.4  17.9  34124  288.96 0855.25
2009/04/23 09:24:44.2    -171   -492    -14    521    522 199.2  -1.6  34126  289.01 0855.25
2009/04/23 09:24:44.3    -202   -527    -15    565    566 201.0  -1.6  34124  288.96 0855.25
2009/04/23 09:24:44.4     -77   -478     24    485    486 189.2   2.9  34124  288.96 0855.25
2009/04/23 09:24:44.5    -146   -317     33    350    352 204.8   5.5  34126  288.99 0855.25
2009/04/23 09:24:44.6    -165   -214     79    271    283 217.8  16.3  34122  288.93 0855.25
2009/04/23 09:24:44.7    -266   -243     38    361    364 227.6   6.1  34124  288.96 0855.25
2009/04/23 09:24:44.8    -364   -279    117    459    474 232.5  14.3  34120  288.88 0855.25
2009/04/23 09:24:44.9    -281   -299     84    411    420 223.3  11.6  34116  288.83 0855.25
2009/04/23 09:24:45.0    -297   -229     38    376    378 232.4   5.9  34118  288.86 0855.25
2009/04/23 09:24:45.1    -185   -317     -8    368    369 210.3  -1.3  34116  288.84 0855.25
2009/04/23 09:24:45.2    -123   -459     92    476    485 195.1  11.0  34120  288.91 0855.25
2009/04/23 09:24:45.3    -151   -362    105    393    407 202.7  15.0  34118  288.86 0855.25
2009/04/23 09:24:45.4     -55   -286    117    292    314 190.9  22.9  34126  288.98 0855.25
2009/04/23 09:24:45.5     -72   -317     76    326    335 192.9  13.2  34124  288.96 0855.25
2009/04/23 09:24:45.6    -101   -264    -26    283    285 200.9  -5.4  34126  289.00 0855.25
2009/04/23 09:24:45.7     -94   -429    -97    440    451 192.4 -12.5  34120  288.89 0855.23
2009/04/23 09:24:45.8     -16   -539   -106    540    551 181.8 -11.1  34122  288.94 0855.23
2009/04/23 09:24:45.9     -39   -605   -176    607    633 183.7 -16.2  34120  288.91 0855.23
2009/04/23 09:24:46.0     -97   -493   -124    503    519 191.2 -13.9  34126  288.98 0855.23
2009/04/23 09:24:46.1     -41   -448    -72    451    457 185.3  -9.1  34120  288.90 0855.23
2009/04/23 09:24:46.2      20   -453     -1    454    455 177.4  -0.2  34126  288.99 0855.23
2009/04/23 09:24:46.3      64   -439    -76    444    451 171.7  -9.8  34122  288.94 0855.23
2009/04/23 09:24:46.4     153   -329    122    363    384 155.1  18.6  34112  288.77 0855.23
2009/04/23 09:24:46.5      41   -341     11    344    345 173.1   1.9  34114  288.79 0855.23
2009/04/23 09:24:46.6      31   -291   -176    293    341 173.8 -38.4  34120  288.88 0855.23
2009/04/23 09:24:46.7     137   -410   -135    433    453 161.4 -22.3  34120  288.89 0855.23
2009/04/23 09:24:46.8      71   -332   -129    340    363 167.9 -26.1  34120  288.91 0855.23
2009/04/23 09:24:46.9     121   -246    -94    275    290 153.9 -23.6  34122  288.92 0855.23
2009/04/23 09:24:47.0      56   -255    -82    262    275 167.5 -17.5  34126  288.98 0855.23
2009/04/23 09:24:47.1      79   -237   -102    250    270 161.5 -27.8  34122  288.93 0855.23
2009/04/23 09:24:47.2     124   -305    -75    330    339 157.8 -12.9  34116  288.84 0855.23
2009/04/23 09:24:47.3     138   -318      6    347    348 156.5   1.1  34122  288.93 0855.23
2009/04/23 09:24:47.4     153   -241     -3    286    287 147.5  -0.7  34118  288.87 0855.23
2009/04/23 09:24:47.5      76   -280    109    291    310 164.9  21.3  34120  288.88 0855.23
2009/04/23 09:24:47.6      97   -267    115    285    307 160.0  23.1  34120  288.88 0855.23
2009/04/23 09:24:47.7     241   -287     82    375    384 140.0  12.4  34122  288.93 0855.21
2009/04/23 09:24:47.8     319   -265     99    415    427 129.7  13.5  34120  288.89 0855.21
2009/04/23 09:24:47.9     270   -317    117    417    434 139.6  15.7  34124  288.95 0855.21
2009/04/23 09:24:48.0     228   -244     46    335    339 137.0   7.9  34120  288.88 0855.21
2009/04/23 09:24:48.2     185   -238     94    302    317 142.1  17.4  34118  288.87 0855.21
2009/04/23 09:24:48.2     184   -214     72    283    293 139.4  14.3  34122  288.92 0855.21
2009/04/23 09:24:48.4     189   -258    -11    321    322 143.7  -2.1  34124  288.95 0855.21
2009/04/23 09:24:48.5     142   -224     17    266    267 147.5   3.8  34122  288.92 0855.21
2009/04/23 09:24:48.6     119   -252     85    279    292 154.6  17.1  34124  288.97 0855.21
2009/04/23 09:24:48.7      80   -247     76    260    272 162.1  16.4  34128  289.02 0855.21
2009/04/23 09:24:48.8      92   -242     61    260    268 159.1  13.2  34128  289.02 0855.21
2009/04/23 09:24:48.9     126   -299     66    325    332 157.1  11.6  34122  288.94 0855.21
2009/04/23 09:24:49.0     139   -250     92    287    302 150.8  17.9  34120  288.88 0855.21
2009/04/23 09:24:49.1     171   -267    138    318    346 147.4  25.0  34126  288.98 0855.21
2009/04/23 09:24:49.2     153   -266    142    308    339 150.1  26.5  34124  288.96 0855.21
2009/04/23 09:24:49.3     153   -287    166    326    365 152.0  29.2  34122  288.94 0855.21
2009/04/23 09:24:49.4     163   -290    189    333    382 150.6  32.0  34122  288.94 0855.21
2009/04/23 09:24:49.5     183   -270    236    327    403 145.9  39.5  34122  288.94 0855.21
2009/04/23 09:24:49.6     191   -255    257    319    409 143.1  43.1  34124  288.96 0855.21
2009/04/23 09:24:49.7     124   -273    211    300    366 155.5  38.6  34122  288.93 0855.21
2009/04/23 09:24:49.8     107   -269    224    290    366 158.2  41.7  34122  288.94 0855.20
2009/04/23 09:24:49.9     111   -283    235    305    385 158.6  41.6  34126  288.98 0855.20
2009/04/23 09:24:50.0     114   -261    205    285    351 156.4  39.3  34126  288.98 0855.20
2009/04/23 09:24:50.1      52   -206    199    213    291 165.7  48.0  34126  288.98 0855.20
2009/04/23 09:24:50.2     -33   -206    218    209    302 189.1  51.2  34126  288.98 0855.20
2009/04/23 09:24:50.3      -7   -203    220    204    300 182.2  52.2  34126  288.98 0855.20
2009/04/23 09:24:50.4       7   -219    236    220    322 178.0  52.3  34126  289.00 0855.20
2009/04/23 09:24:50.5     -45   -221    249    226    336 191.6  53.2  34126  288.98 0855.20
2009/04/23 09:24:50.6      23   -197    277    199    341 173.3  60.8  34126  288.98 0855.20
2009/04/23 09:24:50.7     -13   -186    252    187    313 184.2  59.8  34124  288.97 0855.20
2009/04/23 09:24:50.8       9    -28    232     30    233 161.3  90.0  34122  288.92 0855.19
2009/04/23 09:24:50.9     -15   -143    229    144    270 186.2  64.7  34126  288.98 0855.19
2009/04/23 09:24:51.0      23   -159    216    161    269 171.5  59.8  34128  289.02 0855.19
2009/04/23 09:24:51.1     -23   -183    275    185    331 187.3  63.1  34124  288.95 0855.19
2009/04/23 09:24:51.2       2    -38    180     39    184 175.6  88.5  34124  288.96 0855.19
2009/04/23 09:24:51.3     -57   -113    155    127    200 207.1  56.4  34124  288.97 0855.19
2009/04/23 09:24:51.4      93   -195    127    217    251 154.5  33.4  34122  288.93 0855.19
2009/04/23 09:24:51.5      10   -362    151    363    393 178.3  23.9  34128  289.03 0855.19
2009/04/23 09:24:51.6      34   -328    170    330    371 173.9  29.3  34128  289.04 0855.19
2009/04/23 09:24:51.7     -79   -382    181    391    430 191.7  26.6  34130  289.07 0855.19
2009/04/23 09:24:51.8      38   -307    198    310    367 172.9  35.6  34132  289.10 0855.19
2009/04/23 09:24:51.9     -40   -322    226    325    395 187.1  38.3  34128  289.03 0855.19
2009/04/23 09:24:52.0    -128   -444    185    463    498 196.1  23.0  34126  288.98 0855.19
2009/04/23 09:24:52.1      81   -437    138    445    467 169.4  17.3  34118  288.87 0855.19
2009/04/23 09:24:52.2      86   -358    115    369    387 166.4  17.3  34124  288.96 0855.19
2009/04/23 09:24:52.3      82   -485     95    492    502 170.3  11.0  34126  289.00 0855.19
2009/04/23 09:24:52.4     184   -458    193    494    530 158.1  22.5  34124  288.96 0855.19
2009/04/23 09:24:52.5       0   -499    196    500    537 180.0  22.7  34130  289.07 0855.19
2009/04/23 09:24:52.6     -40   -501    176    503    533 184.6  19.3  34126  289.01 0855.19
2009/04/23 09:24:52.7     111   -402    146    418    442 164.6  20.0  34122  288.94 0855.19
2009/04/23 09:24:52.8     128   -385    143    407    432 161.5  19.4  34122  288.92 0855.20
2009/04/23 09:24:52.9     139   -260    -11    295    296 151.9  -2.3  34118  288.87 0855.20
2009/04/23 09:24:53.0     273   -187     -1    332    333 124.4  -0.2  34126  289.01 0855.20
2009/04/23 09:24:53.1     239   -295    -50    380    384 141.0  -7.6  34130  289.06 0855.20
2009/04/23 09:24:53.2     148   -336    -20    368    369 156.3  -3.2  34126  288.99 0855.20
2009/04/23 09:24:53.3     164   -314     86    355    366 152.4  13.7  34128  289.03 0855.20
2009/04/23 09:24:53.4     168   -370     72    407    414 155.5  10.1  34128  289.04 0855.20
2009/04/23 09:24:53.5     206   -219     84    301    313 136.8  15.6  34126  289.00 0855.20
2009/04/23 09:24:53.6     162   -248    101    297    314 146.8  18.9  34128  289.02 0855.20
2009/04/23 09:24:53.7     110   -223    173    249    303 153.7  38.0  34128  289.02 0855.20
2009/04/23 09:24:53.8      72   -164    178    180    253 156.2  50.0  34128  289.02 0855.20
2009/04/23 09:24:53.9     162   -192    209    252    327 139.7  43.8  34120  288.88 0855.20
2009/04/23 09:24:54.0      98   -281     85    298    311 160.6  16.0  34124  288.97 0855.20
2009/04/23 09:24:54.1      90   -441     70    451    457 168.4   8.9  34128  289.04 0855.20
2009/04/23 09:24:54.2      -5   -515    246    516    571 180.6  27.3  34120  288.91 0855.20
2009/04/23 09:24:54.3     -55   -472    234    476    530 186.7  28.2  34122  288.93 0855.20
2009/04/23 09:24:54.4    -116   -517    207    530    568 192.7  22.5  34124  288.97 0855.20
2009/04/23 09:24:54.5    -122   -509    134    524    542 193.6  14.4  34134  289.13 0855.20
2009/04/23 09:24:54.6    -125   -518    160    533    557 193.6  16.8  34124  288.96 0855.20
2009/04/23 09:24:54.7     -13   -429    181    430    466 181.8  24.2  34128  289.04 0855.20
2009/04/23 09:24:54.8       4   -416    168    417    449 179.4  23.0  34130  289.05 0855.18
2009/04/23 09:24:54.9     -29   -372     68    374    381 184.5  10.4  34132  289.10 0855.18
2009/04/23 09:24:55.0      -8   -274    -25    275    277 181.8  -5.4  34134  289.12 0855.18
2009/04/23 09:24:55.1     131   -205    -43    244    248 147.5 -10.1  34130  289.05 0855.18
2009/04/23 09:24:55.2       7   -142     90    143    168 176.9  35.5  34134  289.13 0855.18
2009/04/23 09:24:55.3    -103     41      0    111    112 291.7  -0.3  34128  289.04 0855.18
2009/04/23 09:24:55.4    -106    165    -65    197    207 327.3 -23.8  34132  289.09 0855.18
2009/04/23 09:24:55.5    -173    106     74    203    216 301.5  20.9  34124  288.96 0855.18
2009/04/23 09:24:55.6    -164    139     18    216    217 310.4   4.9  34126  288.99 0855.18
2009/04/23 09:24:55.7       2    148    -43    149    155   0.9 -21.7  34128  289.04 0855.18
2009/04/23 09:24:55.8     168     16     80    169    186  84.5  27.1  34134  289.13 0855.18
2009/04/23 09:24:55.9      92    -66     98    114    150 126.0  44.8  34134  289.14 0855.18
2009/04/23 09:24:56.0     -84    -75    116    114    162 228.2  50.1  34132  289.09 0855.18
2009/04/23 09:24:56.1    -220   -160    -74    273    283 234.0 -15.2  34142  289.25 0855.18
2009/04/23 09:24:56.2    -161   -158   -189    226    294 225.6 -48.2  34138  289.20 0855.18
2009/04/23 09:24:56.3    -136   -192   -168    236    289 215.2 -43.5  34126  288.98 0855.18
2009/04/23 09:24:56.4    -318   -214   -114    384    401 236.1 -16.6  34130  289.06 0855.18
2009/04/23 09:24:56.5    -201   -315    -11    374    375 212.6  -1.8  34130  289.06 0855.18
2009/04/23 09:24:56.6    -329   -166    -10    369    370 243.2  -1.6  34126  288.98 0855.18
2009/04/23 09:24:56.7    -293    -88    -87    307    319 253.2 -20.7  34130  289.07 0855.18
2009/04/23 09:24:56.8    -199   -152   -110    251    274 232.7 -29.6  34132  289.09 0855.18
2009/04/23 09:24:56.9     -47   -247     41    252    256 190.9   9.3  34132  289.09 0855.18
2009/04/23 09:24:57.0     -66   -222    123    232    262 196.7  30.3  34130  289.07 0855.18
2009/04/23 09:24:57.1    -166   -294    128    338    361 209.5  21.7  34132  289.11 0855.18
2009/04/23 09:24:57.2    -115   -233     91    260    275 206.3  20.0  34134  289.12 0855.18
2009/04/23 09:24:57.3      -1   -119    149    120    191 180.9  56.6  34132  289.11 0855.18
2009/04/23 09:24:57.4     129   -226    137    261    294 150.4  29.8  34134  289.12 0855.18
2009/04/23 09:24:57.5     257   -193    128    322    346 126.9  23.0  34126  288.99 0855.18
2009/04/23 09:24:57.6     189   -196    146    273    309 136.1  30.3  34132  289.09 0855.18
2009/04/23 09:24:57.7      97    -38    147    105    180 111.7  60.8  34130  289.06 0855.18
2009/04/23 09:24:57.8     300      6    158    301    339  88.7  30.0  34128  289.02 0855.18
2009/04/23 09:24:57.9     -28   -132    148    135    200 192.0  53.0  34120  288.91 0855.18
2009/04/23 09:24:58.0      28   -246    121    248    275 173.3  27.8  34130  289.05 0855.18
2009/04/23 09:24:58.1     -49   -202    214    208    298 193.8  50.9  34136  289.17 0855.18
2009/04/23 09:24:58.2    -106   -206    236    232    330 207.2  50.4  34136  289.15 0855.18
2009/04/23 09:24:58.3      16   -165    205    166    263 174.4  56.6  34134  289.12 0855.18
2009/04/23 09:24:58.4      -1   -129    217    130    252 180.8  66.2  34136  289.16 0855.18
2009/04/23 09:24:58.5      75    -51    182     91    203 124.2  71.4  34132  289.11 0855.18
2009/04/23 09:24:58.6      76     11    147     77    165  81.2  70.0  34134  289.13 0855.18
2009/04/23 09:24:58.7      18    -63    214     66    223 164.0  82.3  34132  289.11 0855.18
2009/04/23 09:24:58.8      69   -108    197    129    235 147.5  63.6  34128  289.04 0855.20
2009/04/23 09:24:58.9      21      7    184     23    185  71.8  90.0  34134  289.14 0855.20
2009/04/23 09:24:59.0      34    -51    154     62    166 146.6  76.8  34130  289.08 0855.20
2009/04/23 09:24:59.1     150   -111    221    187    289 126.6  55.6  34122  288.92 0855.20
2009/04/23 09:24:59.2     182    -63    232    193    301 109.1  56.3  34134  289.12 0855.20
2009/04/23 09:24:59.3      66   -208    186    219    287 162.4  44.8  34130  289.07 0855.20
2009/04/23 09:24:59.4      85   -213    182    230    293 158.1  42.4  34128  289.02 0855.20
2009/04/23 09:24:59.5      43   -258    187    262    321 170.4  39.0  34134  289.14 0855.20
2009/04/23 09:24:59.6      12   -280    115    281    303 177.5  23.4  34130  289.05 0855.20
2009/04/23 09:24:59.7     -50   -243    182    249    308 191.8  39.7  34128  289.03 0855.20
2009/04/23 09:24:59.8    -126   -315    104    340    356 201.9  17.0  34138  289.20 0855.20
2009/04/23 09:24:59.9     -68   -266    193    275    335 194.5  38.6  34134  289.12 0855.20
2009/04/23 09:25:00.0    -122   -193    176    229    288 212.3  41.6  34130  289.05 0855.20
2009/04/23 09:25:00.1    -119   -203     28    236    238 210.3   6.9  34138  289.19 0855.20
2009/04/23 09:25:00.2    -129   -410     92    430    440 197.5  12.1  34136  289.17 0855.20
2009/04/23 09:25:00.3    -292   -367      8    470    471 218.5   1.0  34142  289.28 0855.20
2009/04/23 09:25:00.4    -354   -223   -157    419    447 237.8 -25.9  34136  289.17 0855.20
2009/04/23 09:25:00.5    -336   -106   -181    353    396 252.5 -33.7  34130  289.06 0855.20
2009/04/23 09:25:00.6    -418    -31   -141    420    443 265.7 -23.3  34136  289.16 0855.20
2009/04/23 09:25:00.7    -379    -46   -136    382    406 263.0 -19.7  34136  289.16 0855.20
2009/04/23 09:25:00.8    -244   -202    -34    318    320 230.4  -6.2  34140  289.22 0855.22
2009/04/23 09:25:00.9    -234   -160    -34    284    287 235.6  -6.9  34144  289.29 0855.22
2009/04/23 09:25:01.0    -127   -334     59    358    363 200.8   9.4  34132  289.10 0855.22
2009/04/23 09:25:01.1    -140   -331     44    360    363 203.0   7.1  34126  289.01 0855.22
2009/04/23 09:25:01.2    -134   -322    132    349    373 202.6  21.7  34126  288.98 0855.22
2009/04/23 09:25:01.3    -160   -151     97    221    241 226.7  25.1  34134  289.14 0855.22
2009/04/23 09:25:01.4    -127     41    -27    134    137 288.2 -11.5  34138  289.21 0855.22
2009/04/23 09:25:01.5    -110    -74     74    133    152 235.9  31.4  34134  289.13 0855.22
2009/04/23 09:25:01.6    -212     -1    107    213    238 269.6  28.7  34146  289.33 0855.22
2009/04/23 09:25:01.7    -122    -68    134    141    194 240.7  48.7  34136  289.16 0855.22
2009/04/23 09:25:01.8    -231    -80     93    245    262 250.9  22.0  34134  289.12 0855.22
2009/04/23 09:25:01.9    -218    -10    -27    219    221 267.2  -7.2  34128  289.02 0855.22
2009/04/23 09:25:02.0    -141     68    -52    157    166 295.8 -18.3  34128  289.04 0855.22
2009/04/23 09:25:02.1    -117     35    110    123    165 286.8  46.6  34138  289.19 0855.22
2009/04/23 09:25:02.2     -85      3    105     86    135 272.6  56.4  34132  289.09 0855.22
2009/04/23 09:25:02.3     -75    -70    100    103    143 226.8  49.4  34130  289.06 0855.22
2009/04/23 09:25:02.4     -93    -93     79    132    153 225.2  34.0  34130  289.06 0855.22
2009/04/23 09:25:02.5    -134    -17   -112    136    176 262.5 -48.1  34122  288.92 0855.22
2009/04/23 09:25:02.6    -168    168     21    238    239 315.0   5.2  34136  289.15 0855.22
2009/04/23 09:25:02.7     -92      5    103     93    138 273.5  52.7  34132  289.09 0855.22
2009/04/23 09:25:02.8     -86      5     63     87    107 273.5  39.7  34130  289.06 0855.23
2009/04/23 09:25:02.9     -66     19     -7     69     70 286.8  -6.2  34132  289.09 0855.23
2009/04/23 09:25:03.0     -40     19      4     45     46 295.3   5.9  34132  289.11 0855.23
2009/04/23 09:25:03.1     -10     72    -37     73     81 352.0 -33.1  34134  289.13 0855.23
2009/04/23 09:25:03.2     -31     49    -57     59     82 327.5 -53.8  34134  289.14 0855.23
2009/04/23 09:25:03.3     -71    -45   -108     85    137 237.5 -62.3  34110  288.72 0855.23
2009/04/23 09:25:03.4    -135    -34   -126    140    188 255.8 -51.3  34100  288.55 0855.23
2009/04/23 09:25:03.5    -121    -32    -44    126    134 254.9 -19.6  34122  288.92 0855.23
2009/04/23 09:25:03.6     -66    -18     -7     69     70 254.9  -6.2  34116  288.84 0855.23
2009/04/23 09:25:03.7     -30     45     30     55     62 325.7  31.3  34118  288.86 0855.23
2009/04/23 09:25:03.8      65     56     61     87    106  49.1  38.6  34120  288.91 0855.23
2009/04/23 09:25:03.9      40     32     33     52     61  51.4  35.5  34122  288.94 0855.23
2009/04/23 09:25:04.0      15      0     18     16     24  90.0  50.1  34124  288.96 0855.23
2009/04/23 09:25:04.1     -21    -29     16     36     39 216.1  25.1  34122  288.94 0855.23
2009/04/23 09:25:04.2     -43    -39     35     59     68 227.8  34.4  34124  288.96 0855.23
2009/04/23 09:25:04.3     -48     35     66     60     89 306.0  52.7  34118  288.86 0855.23
2009/04/23 09:25:04.4      47     74    102     88    134  32.6  54.8  34112  288.77 0855.23
2009/04/23 09:25:04.5     -41    -69     20     81     84 211.2  14.3  34108  288.69 0855.23
2009/04/23 09:25:04.6     -50   -148     34    157    161 198.7  12.4  34114  288.80 0855.23
2009/04/23 09:25:04.7     -30   -255    -81    257    269 186.9 -22.8  34120  288.90 0855.23
2009/04/23 09:25:04.8      85   -189    -36    208    212 155.7  -9.8  34116  288.82 0855.24
2009/04/23 09:25:04.9     212   -240    101    321    337 138.6  17.5  34120  288.91 0855.24
2009/04/23 09:25:05.0     240   -385     97    454    465 148.0  12.2  34118  288.85 0855.24
2009/04/23 09:25:05.1     310   -155    211    347    406 116.6  34.3  34112  288.76 0855.24
2009/04/23 09:25:05.2     263   -184    167    322    362 125.0  29.4  34124  288.96 0855.24
2009/04/23 09:25:05.3     352    -67    214    359    417 100.8  33.6  34120  288.89 0855.24
2009/04/23 09:25:05.4     322    -51     94    327    341  99.1  16.0  34120  288.88 0855.24
2009/04/23 09:25:05.5     232     27    250    234    342  83.2  52.2  34110  288.71 0855.24
2009/04/23 09:25:05.6     217   -104    149    241    283 115.8  34.8  34124  288.95 0855.24
2009/04/23 09:25:05.7     289   -104    242    308    391 109.9  42.2  34114  288.79 0855.24
2009/04/23 09:25:05.8     158    -90    229    183    293 119.8  57.3  34132  289.10 0855.24
2009/04/23 09:25:05.9     -13    -85    108     87    138 188.9  56.9  34134  289.13 0855.24
2009/04/23 09:25:06.0     182   -234    172    297    343 142.2  32.7  34120  288.89 0855.24
2009/04/23 09:25:06.1     231   -201    128    307    332 131.1  23.8  34112  288.75 0855.24
2009/04/23 09:25:06.2     138   -232    203    270    337 149.3  40.7  34110  288.71 0855.24
2009/04/23 09:25:06.3      -5    111    207    112    235 357.3  69.6  34100  288.55 0855.24
2009/04/23 09:25:06.4       6     84    254     85    267   4.5  81.0  34112  288.77 0855.24
2009/04/23 09:25:06.5     132     84    405    157    434  57.6  77.8  34114  288.79 0855.24
2009/04/23 09:25:06.6     -30     23    270     38    272 307.8  90.0  34116  288.82 0855.24
2009/04/23 09:25:06.7     -55   -233    252    240    348 193.3  51.5  34114  288.78 0855.24
2009/04/23 09:25:06.8    -161   -182    330    244    410 221.4  60.0  34114  288.79 0855.25
2009/04/23 09:25:06.9    -168   -217    169    275    322 217.9  34.6  34108  288.68 0855.25
2009/04/23 09:25:07.0     -78     18     61     81    101 283.3  40.7  34112  288.77 0855.25
2009/04/23 09:25:07.1     152    114    330    191    381  53.1  67.4  34112  288.77 0855.25
2009/04/23 09:25:07.2     170    129    273    214    346  52.7  58.0  34114  288.78 0855.25
2009/04/23 09:25:07.3     103    151    102    183    209  34.3  31.4  34120  288.89 0855.25
2009/04/23 09:25:07.4     -44    132      0    140    141 341.5  -0.3  34116  288.84 0855.25
2009/04/23 09:25:07.5    -108    137     34    175    179 321.7  11.0  34118  288.87 0855.25
2009/04/23 09:25:07.6    -142    149     32    207    210 316.3   9.0  34126  288.99 0855.25
2009/04/23 09:25:07.7    -154     31     57    158    167 281.5  20.4  34104  288.64 0855.25
2009/04/23 09:25:07.8    -260     57    142    267    302 282.4  30.3  34122  288.92 0855.25
2009/04/23 09:25:07.9    -203    -29    136    206    246 261.6  36.5  34118  288.85 0855.25
2009/04/23 09:25:08.0    -215     17    102    216    238 274.6  27.2  34112  288.77 0855.25
2009/04/23 09:25:08.1    -119     33     14    124    125 285.9   6.9  34114  288.79 0855.25
2009/04/23 09:25:08.2     -78     68      0    104    105 311.3  -0.3  34114  288.79 0855.25
2009/04/23 09:25:08.3     -80    -61     18    101    103 232.7  10.6  34116  288.84 0855.25
2009/04/23 09:25:08.4    -181   -165    147    246    286 227.7  33.5  34118  288.87 0855.25
2009/04/23 09:25:08.5    -222   -141    140    264    298 237.5  30.3  34132  289.09 0855.25
2009/04/23 09:25:08.6    -239   -132     42    274    278 241.1   8.8  34128  289.02 0855.25
2009/04/23 09:25:08.7    -258   -137     25    293    295 242.0   4.9  34130  289.05 0855.25
2009/04/23 09:25:08.8    -197    -92   -101    218    240 244.8 -30.8  34122  288.93 0855.25
2009/04/23 09:25:08.9    -224     44    -64    229    237 281.2 -20.2  34124  288.97 0855.25
2009/04/23 09:25:09.0    -178    -49   -103    185    211 254.5 -36.0  34122  288.94 0855.25
2009/04/23 09:25:09.1       0   -195     80    196    211 179.8  23.4  34130  289.06 0855.25
2009/04/23 09:25:09.2    -109   -127    -48    168    175 220.8 -16.0  34118  288.87 0855.25
2009/04/23 09:25:09.3    -240    -38    -32    244    247 261.0  -7.5  34136  289.17 0855.25
2009/04/23 09:25:09.4    -118   -143     -7    186    187 219.7  -2.2  34130  289.06 0855.25
2009/04/23 09:25:09.5     -65   -109     79    128    150 210.8  35.5  34130  289.08 0855.25
2009/04/23 09:25:09.6       3   -149     93    150    176 178.6  35.0  34128  289.02 0855.25
2009/04/23 09:25:09.7    -114   -127     20    172    174 221.9   6.9  34134  289.13 0855.25
2009/04/23 09:25:09.8    -152   -153     42    216    221 224.8  11.1  34132  289.09 0855.25
2009/04/23 09:25:09.9    -135    -55     12    146    147 247.8   5.0  34124  288.97 0855.25
2009/04/23 09:25:10.0    -434    104    -73    447    454 283.5  -9.3  34090  288.38 0855.25
2009/04/23 09:25:10.1    -435    101    -62    447    452 283.2  -8.0  34102  288.58 0855.25
2009/04/23 09:25:10.2    -188   -247    125    311    335 217.2  23.1  34116  288.83 0855.25
2009/04/23 09:25:10.3    -350   -345     32    492    494 225.4   3.8  34134  289.13 0855.25
2009/04/23 09:25:10.4    -303   -229    -35    381    383 232.9  -5.4  34136  289.15 0855.25
2009/04/23 09:25:10.5    -212   -220    -28    306    308 223.9  -5.4  34142  289.25 0855.25
2009/04/23 09:25:10.6    -238   -108   -104    262    281 245.6 -27.4  34120  288.88 0855.25
2009/04/23 09:25:10.7    -309    -23   -123    310    333 265.6 -27.3  34118  288.87 0855.25
2009/04/23 09:25:10.8    -407   -148   -178    434    469 249.9 -28.0  34106  288.67 0855.26
2009/04/23 09:25:10.9    -375   -129   -110    397    412 251.0 -15.5  34106  288.65 0855.26
2009/04/23 09:25:11.0    -409    -68   -150    415    441 260.5 -25.2  34088  288.36 0855.26
2009/04/23 09:25:11.1    -320   -124   -123    344    365 248.7 -24.8  34094  288.45 0855.26
2009/04/23 09:25:11.2    -286   -174   -106    335    351 238.7 -22.5  34104  288.64 0855.26
2009/04/23 09:25:11.3    -413   -135   -150    435    461 251.8 -19.1  34108  288.68 0855.26
2009/04/23 09:25:11.4    -377   -125   -112    398    414 251.7 -15.8  34120  288.89 0855.26
2009/04/23 09:25:11.5    -337   -199   -128    392    413 239.5 -18.2  34132  289.11 0855.26
2009/04/23 09:25:11.6    -317   -130    -77    343    352 247.7 -12.7  34130  289.08 0855.26
2009/04/23 09:25:11.7    -412   -289   -154    504    528 235.0 -17.0  34124  288.96 0855.26
2009/04/23 09:25:11.8    -286   -209    -85    355    366 233.8 -13.6  34128  289.03 0855.26
2009/04/23 09:25:11.9    -274   -227   -143    356    383 230.4 -27.4  34106  288.67 0855.26
2009/04/23 09:25:12.0    -322   -239   -163    402    433 233.4 -27.5  34106  288.67 0855.26
2009/04/23 09:25:12.1    -297   -209   -106    364    379 234.9 -21.1  34098  288.52 0855.26
2009/04/23 09:25:12.2    -403   -167    -47    437    440 247.4  -6.3  34112  288.77 0855.26
2009/04/23 09:25:12.3    -318   -106    -50    336    340 251.6  -8.6  34122  288.93 0855.26
2009/04/23 09:25:12.4    -277   -165    -58    323    329 239.3 -10.2  34104  288.63 0855.26
2009/04/23 09:25:12.5    -297   -105   -113    316    335 250.5 -24.8  34112  288.76 0855.26
2009/04/23 09:25:12.6    -359    -49   -137    363    387 262.1 -26.0  34108  288.69 0855.26
2009/04/23 09:25:12.7    -463     -7   -201    464    505 269.1 -29.3  34084  288.30 0855.26
2009/04/23 09:25:12.8    -363    -66   -117    369    387 259.6 -22.9  34100  288.57 0855.26
2009/04/23 09:25:12.9    -451    -54   -231    455    510 263.1 -33.6  34080  288.22 0855.26
2009/04/23 09:25:13.0    -493    -12   -241    494    549 268.5 -32.4  34076  288.14 0855.26
2009/04/23 09:25:13.1    -561     56   -215    564    603 275.8 -26.4  34090  288.37 0855.26
2009/04/23 09:25:13.2    -518     99   -256    528    586 280.9 -32.2  34076  288.14 0855.26
2009/04/23 09:25:13.3    -513    100   -306    523    605 281.1 -37.4  34082  288.26 0855.26
2009/04/23 09:25:13.4    -601    111   -343    612    701 280.5 -36.1  34086  288.31 0855.26
2009/04/23 09:25:13.5    -515      7   -265    516    580 270.8 -33.7  34082  288.25 0855.26
2009/04/23 09:25:13.6    -474     65   -260    479    545 277.9 -35.3  34094  288.47 0855.26
2009/04/23 09:25:13.7    -399    128   -256    420    491 287.8 -38.7  34082  288.24 0855.26
2009/04/23 09:25:13.8    -446     24   -217    447    496 273.2 -32.2  34096  288.49 0855.26
2009/04/23 09:25:13.9    -433     19   -173    434    467 272.6 -27.4  34092  288.41 0855.26
2009/04/23 09:25:14.0    -267     37   -229    270    354 277.9 -49.1  34092  288.42 0855.26
2009/04/23 09:25:14.1    -299    106   -266    318    414 289.5 -48.6  34084  288.28 0855.26
2009/04/23 09:25:14.2    -288     31   -132    290    318 276.2 -30.6  34092  288.41 0855.26
2009/04/23 09:25:14.3    -295     -5   -100    296    312 269.0 -23.7  34072  288.09 0855.26
2009/04/23 09:25:14.4    -194     15   -142    195    241 274.6 -44.1  34072  288.09 0855.26
2009/04/23 09:25:14.5    -235    -81   -108    249    271 250.9 -29.5  34096  288.49 0855.26
2009/04/23 09:25:14.6    -126   -126    -17    179    180 225.0  -5.6  34102  288.58 0855.26
2009/04/23 09:25:14.7     -74    -80    -12    110    111 222.8  -6.2  34092  288.42 0855.26
2009/04/23 09:25:14.8    -127   -132      0    184    185 223.9  -0.3  34102  288.58 0855.26
2009/04/23 09:25:14.9    -137    103    -89    172    193 307.1 -33.9  34100  288.55 0855.26
2009/04/23 09:25:15.0     -14     41   -102     44    111 340.8 -79.4  34100  288.55 0855.26
2009/04/23 09:25:15.1     -85    134    -60    160    170 327.5 -25.9  34092  288.43 0855.26
2009/04/23 09:25:15.2    -131     71     43    150    157 298.4  16.0  34096  288.48 0855.26
2009/04/23 09:25:15.3    -135     94    -29    165    168 304.9 -10.3  34094  288.47 0855.26
2009/04/23 09:25:15.4    -202     78    -76    217    229 291.1 -24.0  34098  288.53 0855.26
2009/04/23 09:25:15.5    -149     67   -111    164    198 294.4 -41.8  34102  288.60 0855.26
2009/04/23 09:25:15.6    -246     -8    -93    247    263 268.1 -26.1  34104  288.63 0855.26
2009/04/23 09:25:15.7    -264    -42   -182    268    323 260.8 -42.0  34104  288.61 0855.26
2009/04/23 09:25:15.8     -33   -152   -169    156    229 192.5 -56.6  34108  288.69 0855.26
2009/04/23 09:25:15.9      31   -163   -108    167    198 169.1 -40.1  34104  288.64 0855.26
2009/04/23 09:25:16.0      18   -133   -104    135    170 172.0 -46.1  34108  288.70 0855.26
2009/04/23 09:25:16.2      67   -244     -5    254    255 164.6  -1.3  34102  288.58 0855.26
2009/04/23 09:25:16.3     -26   -360      1    361    362 184.2   0.2  34106  288.67 0855.26
2009/04/23 09:25:16.4     -76   -436     25    443    444 189.9   3.3  34098  288.53 0855.26
2009/04/23 09:25:16.5       7   -472    -22    473    474 179.1  -2.7  34100  288.57 0855.26
2009/04/23 09:25:16.6     -41   -461    -10    463    464 185.2  -1.3  34106  288.65 0855.26
2009/04/23 09:25:16.7     -37   -516     35    518    520 184.1   3.9  34102  288.59 0855.26
2009/04/23 09:25:16.8     -96   -391    141    403    428 193.9  19.3  34094  288.45 0855.26
2009/04/23 09:25:16.9    -149   -448     80    473    480 198.5   9.6  34100  288.54 0855.26
2009/04/23 09:25:17.0    -208   -339    105    398    412 211.5  14.9  34100  288.55 0855.26
2009/04/23 09:25:17.1    -165   -297    -67    340    347 209.1 -11.2  34092  288.42 0855.26
2009/04/23 09:25:17.2      12   -204    -33    205    208 176.4  -9.3  34090  288.38 0855.26
2009/04/23 09:25:17.3     165   -411     79    444    452 158.1  10.1  34090  288.39 0855.26
2009/04/23 09:25:17.4      96   -390    130    402    423 166.1  18.0  34088  288.34 0855.26
2009/04/23 09:25:17.5      57   -331    156    337    371 170.1  26.6  34088  288.35 0855.26
2009/04/23 09:25:17.6       0   -236    265    237    355 180.2  53.7  34094  288.46 0855.26
2009/04/23 09:25:17.7    -231   -550    207    597    631 202.8  20.0  34094  288.45 0855.26
2009/04/23 09:25:17.8    -102   -440    214    452    500 193.2  27.2  34088  288.34 0855.26
2009/04/23 09:25:17.9    -135   -531    -10    548    549 194.3  -1.1  34106  288.67 0855.27
2009/04/23 09:25:18.0     100   -262    122    281    306 159.1  25.1  34090  288.37 0855.27
2009/04/23 09:25:18.1      77   -294    107    304    322 165.3  20.0  34090  288.39 0855.27
2009/04/23 09:25:18.2     -21   -279    189    280    337 184.4  37.3  34094  288.46 0855.27
2009/04/23 09:25:18.3      33   -176    166    180    244 169.3  47.5  34094  288.45 0855.27
2009/04/23 09:25:18.4      43   -201    202    206    288 167.7  49.9  34096  288.48 0855.27
2009/04/23 09:25:18.5       5   -107    254    108    276 176.9  75.5  34100  288.56 0855.27
2009/04/23 09:25:18.6     -13    -66    237     68    246 191.6  83.9  34098  288.53 0855.27
2009/04/23 09:25:18.7     -51   -276    293    281    405 190.6  51.3  34094  288.45 0855.27
2009/04/23 09:25:18.8    -109   -308    308    327    449 199.6  48.0  34104  288.63 0855.27
2009/04/23 09:25:18.9    -150   -412    305    439    534 200.1  38.3  34094  288.47 0855.27
2009/04/23 09:25:19.0    -209    -98    174    231    289 244.8  40.7  34098  288.53 0855.27
2009/04/23 09:25:19.1    -290     -4    133    291    319 269.1  26.3  34098  288.51 0855.27
2009/04/23 09:25:19.2    -270    -16     85    271    285 266.5  17.4  34100  288.56 0855.27
2009/04/23 09:25:19.3    -322     -4     99    323    338 269.2  17.1  34100  288.57 0855.27
2009/04/23 09:25:19.4    -303   -133     41    332    335 246.3   7.1  34104  288.64 0855.27
2009/04/23 09:25:19.5    -366    -10    131    367    389 268.3  20.4  34102  288.59 0855.27
2009/04/23 09:25:19.6    -326   -267    159    422    450 230.7  21.6  34100  288.56 0855.27
2009/04/23 09:25:19.7    -303   -309    194    433    474 224.4  25.7  34100  288.55 0855.27
2009/04/23 09:25:19.8    -302   -264      8    402    403 228.8   1.2  34104  288.62 0855.27
2009/04/23 09:25:19.9    -314   -255    154    405    433 230.9  21.8  34102  288.58 0855.26
2009/04/23 09:25:20.0    -280   -330    164    433    463 220.3  21.8  34098  288.51 0855.26
2009/04/23 09:25:20.1    -275   -223    188    355    401 230.9  30.2  34100  288.57 0855.26
2009/04/23 09:25:20.2    -240   -256    191    352    400 223.2  30.9  34104  288.64 0855.26
2009/04/23 09:25:20.3    -230   -227    170    324    365 225.3  30.0  34102  288.60 0855.26
2009/04/23 09:25:20.4    -217   -148    248    263    361 235.6  48.2  34096  288.49 0855.26
2009/04/23 09:25:20.5    -227    -61    121    236    265 254.9  29.2  34106  288.66 0855.26
2009/04/23 09:25:20.6    -142   -151    169    208    268 223.3  43.5  34100  288.56 0855.26
2009/04/23 09:25:20.7    -259     11     99    260    278 272.6  22.0  34098  288.53 0855.26
2009/04/23 09:25:20.8    -309     41    -16    312    313 277.7  -3.0  34102  288.59 0855.26
2009/04/23 09:25:20.9    -311    -65     43    318    321 258.1   7.8  34106  288.65 0855.26
2009/04/23 09:25:21.0    -269    -99     67    287    295 249.8  13.2  34114  288.80 0855.26
2009/04/23 09:25:21.1    -326     -5    114    327    347 269.0  19.2  34112  288.77 0855.26
2009/04/23 09:25:21.2    -319    -30     37    321    324 264.5   6.7  34110  288.73 0855.26
2009/04/23 09:25:21.3    -259   -132    120    291    314 242.9  23.7  34114  288.78 0855.26
2009/04/23 09:25:21.4    -227   -187    250    295    386 230.5  44.5  34126  288.99 0855.26
2009/04/23 09:25:21.5    -324    -65    180    331    376 258.5  31.0  34120  288.91 0855.26
2009/04/23 09:25:21.6    -343     40     -2    346    347 276.8  -0.5  34112  288.76 0855.26
2009/04/23 09:25:21.7    -413     39    -43    415    418 275.5  -6.0  34108  288.70 0855.26
2009/04/23 09:25:21.8    -481     37   -147    483    506 274.5 -17.0  34104  288.64 0855.26
2009/04/23 09:25:21.9    -485     80    -19    492    493 279.4  -2.2  34104  288.61 0855.27
2009/04/23 09:25:22.0    -351     26     48    352    356 274.4   7.9  34104  288.64 0855.27
2009/04/23 09:25:22.1    -372     50     21    376    377 277.7   3.3  34110  288.74 0855.27
2009/04/23 09:25:22.2    -369     63   -132    375    398 279.7 -19.4  34102  288.60 0855.27
2009/04/23 09:25:22.3    -295     22   -153    296    333 274.4 -33.8  34114  288.78 0855.27
2009/04/23 09:25:22.4    -366   -117     47    385    388 252.2   7.1  34116  288.82 0855.27
2009/04/23 09:25:22.5    -574    119     24    587    588 281.8   2.4  34116  288.81 0855.27
2009/04/23 09:25:22.6    -500     27     65    501    506 273.1   7.5  34120  288.88 0855.27
2009/04/23 09:25:22.7    -445    -60   -147    450    473 262.3 -23.2  34120  288.90 0855.27
2009/04/23 09:25:22.8    -420   -119   -130    437    457 254.1 -16.6  34126  288.99 0855.27
2009/04/23 09:25:22.9    -440    -80    -82    448    456 259.7 -10.4  34124  288.97 0855.27
2009/04/23 09:25:23.0    -531     24   -164    532    556 272.6 -22.2  34112  288.75 0855.27
2009/04/23 09:25:23.1    -449    -96   -165    460    488 257.9 -24.8  34124  288.95 0855.27
2009/04/23 09:25:23.2    -397   -221   -138    455    476 240.9 -16.9  34134  289.12 0855.27
2009/04/23 09:25:23.3    -495   -233    -39    548    550 244.8  -4.1  34126  289.01 0855.27
2009/04/23 09:25:23.4    -383   -212    -89    439    449 241.0 -11.6  34116  288.83 0855.27
2009/04/23 09:25:23.5    -509   -241   -113    564    576 244.6 -11.3  34122  288.92 0855.27
2009/04/23 09:25:23.6    -498   -186   -163    532    556 249.5 -21.9  34124  288.96 0855.27
2009/04/23 09:25:23.7    -453   -173   -171    486    515 249.1 -24.6  34124  288.95 0855.27
2009/04/23 09:25:23.8    -378   -172   -205    416    463 245.5 -32.5  34118  288.85 0855.27
2009/04/23 09:25:23.9    -421   -115   -139    437    458 254.7 -22.9  34124  288.95 0855.27
2009/04/23 09:25:24.0    -384    -87   -126    394    413 257.2 -22.8  34116  288.83 0855.27
2009/04/23 09:25:24.1    -489    -50   -146    492    514 264.1 -16.5  34116  288.83 0855.27
2009/04/23 09:25:24.2    -468    -71    -76    474    481 261.3  -9.1  34120  288.91 0855.27
2009/04/23 09:25:24.3    -442   -161   -152    471    495 250.0 -17.9  34124  288.96 0855.27
2009/04/23 09:25:24.4    -231   -111    -42    257    261 244.2  -9.3  34118  288.85 0855.27
2009/04/23 09:25:24.5    -355     44    -72    358    366 277.1 -11.5  34116  288.84 0855.27
2009/04/23 09:25:24.6    -264    321     37    416    418 320.6   5.2  34118  288.87 0855.27
2009/04/23 09:25:24.7    -113    334    -19    353    354 341.2  -3.1  34116  288.81 0855.27
2009/04/23 09:25:24.8     -57    245    -10    252    253 346.7  -2.3  34112  288.75 0855.27
2009/04/23 09:25:24.9    -100     36     35    107    113 290.0  18.4  34118  288.87 0855.27
2009/04/23 09:25:25.0     -51    -17    -43     54     69 251.6 -48.1  34122  288.94 0855.27
2009/04/23 09:25:25.1     -90     18    -11     92     93 281.5  -7.2  34122  288.92 0855.27
2009/04/23 09:25:25.2     -85     40      0     95     96 295.4  -0.3  34120  288.91 0855.27
2009/04/23 09:25:25.3     -48     51      3     71     72 316.8   2.8  34126  288.99 0855.27
2009/04/23 09:25:25.4     -51     25      0     57     58 296.2   0.8  34126  288.99 0855.27
2009/04/23 09:25:25.5     -58     26     24     64     68 294.4  20.0  34122  288.94 0855.27
2009/04/23 09:25:25.6     -32      4     21     33     39 277.9  35.5  34124  288.96 0855.27
2009/04/23 09:25:25.7      -5     27     27     28     38 348.4  52.0  34120  288.91 0855.27
2009/04/23 09:25:25.8       8     26      4     28     29  18.7   9.0  34122  288.94 0855.27
2009/04/23 09:25:25.9      31     75     -4     82     83  22.7  -3.1  34120  288.89 0855.28
2009/04/23 09:25:26.0      18    109     55    111    123   9.8  28.7  34116  288.84 0855.28
2009/04/23 09:25:26.1     -26    128      6    131    132 348.5   2.9  34120  288.91 0855.28
2009/04/23 09:25:26.2     -11    161      6    162    163 356.0   2.3  34120  288.89 0855.28
2009/04/23 09:25:26.3     -12    168      0    169    170 355.6   0.0  34122  288.94 0855.28
2009/04/23 09:25:26.4       9    120    -18    121    123   4.5  -8.8  34122  288.92 0855.28
2009/04/23 09:25:26.5      47     52     -1     71     72  42.3  -1.2  34122  288.92 0855.28
2009/04/23 09:25:26.6      27      0    -18     28     33  90.0 -40.0  34122  288.94 0855.28
2009/04/23 09:25:26.7      20    -44    -20     49     52 155.5 -27.4  34120  288.91 0855.28
2009/04/23 09:25:26.8      49    -96    -34    108    114 152.8 -17.6  34122  288.92 0855.28
2009/04/23 09:25:26.9      64   -101    -45    120    128 147.4 -25.4  34122  288.94 0855.28
2009/04/23 09:25:27.0     160    -12    -84    161    181  94.4 -34.2  34124  288.97 0855.28
2009/04/23 09:25:27.1     -68    107     10    128    129 327.5   4.9  34110  288.74 0855.28
2009/04/23 09:25:27.2    -227     98    -99    248    267 293.3 -27.4  34120  288.90 0855.28
2009/04/23 09:25:27.3    -234     71    -82    245    258 287.1 -23.6  34124  288.95 0855.28
2009/04/23 09:25:27.4    -228     86    -77    244    257 290.8 -17.6  34120  288.90 0855.28
2009/04/23 09:25:27.5    -232    112    -79    258    269 295.8 -22.1  34122  288.92 0855.28
2009/04/23 09:25:27.6    -290    -67   -138    298    328 257.0 -31.0  34128  289.02 0855.28
2009/04/23 09:25:27.7    -313     11    -99    314    330 272.1 -17.5  34128  289.02 0855.28
2009/04/23 09:25:27.8    -293     40   -101    296    312 277.9 -23.8  34128  289.02 0855.28
2009/04/23 09:25:27.9    -296    -22   -137    297    327 265.7 -31.0  34126  289.00 0855.29
2009/04/23 09:25:28.0    -388    -62   -184    394    434 260.9 -31.4  34120  288.89 0855.29
2009/04/23 09:25:28.1    -411    -97   -240    423    486 256.7 -36.5  34118  288.86 0855.29
2009/04/23 09:25:28.2    -366   -103   -175    381    419 254.3 -30.9  34126  289.00 0855.29
2009/04/23 09:25:28.3    -367    -29   -251    369    446 265.4 -42.0  34120  288.90 0855.29
2009/04/23 09:25:28.4    -371   -107   -276    387    475 253.8 -43.5  34138  289.19 0855.29
2009/04/23 09:25:28.5    -439   -260   -154    511    533 239.4 -21.7  34136  289.18 0855.29
2009/04/23 09:25:28.6    -314   -209   -107    378    394 236.4 -15.9  34126  288.98 0855.29
2009/04/23 09:25:28.7    -270   -158   -157    314    351 239.6 -32.9  34120  288.88 0855.29
2009/04/23 09:25:28.8    -151   -197    -67    249    259 217.6 -15.2  34124  288.95 0855.29
2009/04/23 09:25:28.9    -129   -203     40    241    245 212.5   9.5  34126  289.00 0855.29
2009/04/23 09:25:29.0    -274   -170    -78    323    333 238.2 -13.6  34132  289.10 0855.29
2009/04/23 09:25:29.1    -117   -159    -25    198    200 216.5  -7.2  34132  289.09 0855.29
2009/04/23 09:25:29.2    -334    -47    -43    338    341 262.0  -7.3  34124  288.96 0855.29
2009/04/23 09:25:29.3    -359    -21   -116    360    378 266.5 -23.2  34116  288.81 0855.29
2009/04/23 09:25:29.4    -521     13   -212    522    563 271.5 -27.8  34110  288.72 0855.29
2009/04/23 09:25:29.5    -380    -80   -196    389    435 258.1 -33.3  34124  288.97 0855.29
2009/04/23 09:25:29.6    -407   -110   -164    422    452 254.9 -26.9  34124  288.97 0855.29
2009/04/23 09:25:29.7    -431    -71   -201    437    481 260.6 -30.9  34114  288.78 0855.29
2009/04/23 09:25:29.8    -431    -99   -339    443    557 257.0 -45.7  34116  288.84 0855.29
2009/04/23 09:25:29.9    -525    -58   -164    529    553 263.6 -22.2  34130  289.07 0855.31
2009/04/23 09:25:30.0    -450    -50   -177    453    486 263.6 -26.8  34126  288.98 0855.31
2009/04/23 09:25:30.1    -285     54   -132    291    319 280.8 -30.4  34140  289.24 0855.31
2009/04/23 09:25:30.2    -234     78    -78    247    260 288.6 -17.6  34138  289.20 0855.31
2009/04/23 09:25:30.3    -277    110      9    299    300 291.7   1.8  34144  289.31 0855.31
2009/04/23 09:25:30.4    -275     58    -30    282    284 281.9  -6.2  34134  289.12 0855.31
2009/04/23 09:25:30.5    -323      4     16    324    325 270.8   2.9  34120  288.90 0855.31
2009/04/23 09:25:30.6    -300     77     56    310    316 284.4  10.3  34118  288.87 0855.31
2009/04/23 09:25:30.7    -316     14    -54    317    322 272.6  -9.7  34126  288.98 0855.31
2009/04/23 09:25:30.8    -301     40    -90    304    318 277.7 -16.5  34116  288.83 0855.31
2009/04/23 09:25:30.9    -277    -24     -7    279    280 265.0  -1.6  34124  288.95 0855.31
2009/04/23 09:25:31.0    -173    -11     46    174    181 266.3  15.0  34128  289.02 0855.31
2009/04/23 09:25:31.1    -230     39    -17    234    235 279.7  -4.4  34128  289.03 0855.31
2009/04/23 09:25:31.2    -225    -45    -76    230    242 258.6 -23.8  34118  288.87 0855.31
2009/04/23 09:25:31.3    -253    -59    -76    260    272 256.8 -16.4  34120  288.88 0855.31
2009/04/23 09:25:31.4    -228    -39    -78    232    245 260.3 -18.6  34120  288.90 0855.31
2009/04/23 09:25:31.5    -217    -58    -94    225    243 254.9 -28.2  34122  288.92 0855.31
2009/04/23 09:25:31.6    -201    -77    -70    216    228 248.9 -17.9  34128  289.04 0855.31
2009/04/23 09:25:31.7    -321    -69   -124    329    351 257.8 -26.0  34122  288.94 0855.31
2009/04/23 09:25:31.8    -352   -207   -105    409    423 239.5 -14.4  34128  289.02 0855.31
2009/04/23 09:25:31.9    -208   -206    -37    293    296 225.3  -7.3  34126  289.00 0855.31
2009/04/23 09:25:32.0    -264   -130    -53    295    300 243.8 -10.3  34132  289.10 0855.31
2009/04/23 09:25:32.1    -167   -139    -16    218    219 230.2  -4.4  34132  289.11 0855.31
2009/04/23 09:25:32.2    -221    -96    -71    241    252 246.5 -16.5  34126  289.00 0855.31
2009/04/23 09:25:32.3    -242   -106    -63    265    273 246.3 -13.4  34130  289.05 0855.31
2009/04/23 09:25:32.4    -231   -127    -34    264    267 241.1  -7.5  34124  288.95 0855.31
2009/04/23 09:25:32.5    -209   -108    -60    236    244 242.7 -14.4  34118  288.85 0855.31
2009/04/23 09:25:32.6    -202    -63     -1    212    213 252.5  -0.5  34130  289.08 0855.31
2009/04/23 09:25:32.7    -196    -69    -64    208    218 250.5 -17.3  34116  288.82 0855.31
2009/04/23 09:25:32.8    -238    -83    -90    253    268 250.7 -24.4  34114  288.80 0855.31
2009/04/23 09:25:32.9    -265    -62    -98    273    290 256.8 -24.8  34112  288.76 0855.31
2009/04/23 09:25:33.0    -267    -41   -141    271    305 261.2 -33.9  34112  288.75 0855.31
2009/04/23 09:25:33.1    -228      0   -179    229    290 270.0 -46.4  34116  288.81 0855.31
2009/04/23 09:25:33.2    -197    -55    -80    205    220 254.3 -26.9  34116  288.82 0855.31
2009/04/23 09:25:33.3    -164    -80    -82    183    200 244.0 -30.1  34114  288.79 0855.31
2009/04/23 09:25:33.4    -120    -92    -98    152    180 232.7 -40.1  34114  288.79 0855.31
2009/04/23 09:25:33.5    -159    -59    -97    170    195 249.6 -36.8  34112  288.77 0855.31
2009/04/23 09:25:33.6    -154   -115    -88    193    212 233.4 -30.6  34114  288.80 0855.31
2009/04/23 09:25:33.7    -198   -109   -105    227    250 241.2 -31.0  34120  288.90 0855.31
2009/04/23 09:25:33.8    -107   -149   -117    184    218 215.6 -39.9  34116  288.84 0855.31
2009/04/23 09:25:33.9    -130   -118    -72    176    190 227.8 -27.8  34122  288.94 0855.31
2009/04/23 09:25:34.0    -110   -107    -53    154    162 226.0 -23.8  34122  288.92 0855.31
2009/04/23 09:25:34.1    -177   -146   -107    230    253 230.4 -31.4  34120  288.88 0855.31
2009/04/23 09:25:34.2    -162   -167    -89    233    249 224.1 -26.4  34118  288.85 0855.31
2009/04/23 09:25:34.3    -176   -188    -80    258    270 223.2 -22.5  34120  288.88 0855.31
2009/04/23 09:25:34.4    -173   -152   -112    231    256 228.6 -31.8  34120  288.88 0855.31
2009/04/23 09:25:34.5    -204   -147    -98    252    270 234.1 -26.9  34120  288.88 0855.31
2009/04/23 09:25:34.6    -151   -138   -116    205    235 227.6 -36.3  34118  288.86 0855.31
2009/04/23 09:25:34.7    -173    -87   -123    194    229 243.1 -39.9  34118  288.86 0855.31
2009/04/23 09:25:34.8    -116    -96   -114    151    189 230.5 -45.3  34122  288.94 0855.31
2009/04/23 09:25:34.9    -138   -154   -112    207    235 221.9 -35.0  34116  288.84 0855.35
2009/04/23 09:25:35.0     -96   -153    -35    181    185 212.1 -11.1  34118  288.87 0855.35
2009/04/23 09:25:35.1     -92   -160    -64    185    195 209.9 -23.8  34122  288.92 0855.35
2009/04/23 09:25:35.2     -29   -199    -49    202    208 188.5 -13.7  34118  288.87 0855.35
2009/04/23 09:25:35.3      -7   -202    -56    203    211 182.2 -15.4  34120  288.89 0855.35
2009/04/23 09:25:35.4     -50   -149    -28    158    161 198.7 -10.3  34122  288.94 0855.35
2009/04/23 09:25:35.5     -64    -84    -62    106    122 217.4 -37.9  34124  288.97 0855.35
2009/04/23 09:25:35.6     -92   -115    -38    148    153 218.7 -14.5  34120  288.91 0855.35
2009/04/23 09:25:35.7     -78   -214    -36    228    231 200.1  -9.0  34124  288.96 0855.35
2009/04/23 09:25:35.8     -79   -240    -91    253    268 198.3 -24.8  34130  289.07 0855.35
2009/04/23 09:25:35.9     -72   -148   -124    165    206 205.9 -45.3  34130  289.08 0855.35
2009/04/23 09:25:36.0    -226    -63    -69    235    244 254.3 -21.2  34122  288.92 0855.35
2009/04/23 09:25:36.1    -223   -100   -145    245    284 245.8 -37.8  34118  288.85 0855.35
2009/04/23 09:25:36.2    -179    -99   -140    205    248 240.9 -42.0  34120  288.88 0855.35
2009/04/23 09:25:36.3    -206    -87   -102    224    246 246.9 -30.6  34120  288.88 0855.35
2009/04/23 09:25:36.4    -195   -123   -108    231    255 237.6 -31.4  34136  289.17 0855.35
2009/04/23 09:25:36.5    -150   -250    -89    292    305 211.0 -21.8  34132  289.10 0855.35
2009/04/23 09:25:36.6    -119   -215    -94    246    263 209.0 -26.4  34130  289.07 0855.35
2009/04/23 09:25:36.7    -102   -183    -75    210    224 209.2 -19.7  34134  289.13 0855.35
2009/04/23 09:25:36.8     -90   -163    -72    187    200 209.0 -26.1  34126  288.99 0855.35
2009/04/23 09:25:36.9     -56   -158    -61    168    178 199.6 -25.1  34130  289.08 0855.37
2009/04/23 09:25:37.0     -30   -192    -57    195    203 189.1 -21.5  34118  288.87 0855.37
2009/04/23 09:25:37.1     -49   -198    -69    205    216 194.0 -23.3  34118  288.87 0855.37
2009/04/23 09:25:37.2     -52   -180    -78    188    203 196.3 -28.0  34116  288.84 0855.37
2009/04/23 09:25:37.3     -47   -182    -76    189    203 194.5 -27.4  34114  288.80 0855.37
2009/04/23 09:25:37.4     -62   -188    -69    198    210 198.3 -19.4  34118  288.87 0855.37
2009/04/23 09:25:37.5     -59   -235    -55    243    250 194.3 -12.9  34120  288.88 0855.37
2009/04/23 09:25:37.6     -96   -238    -81    257    270 202.1 -17.5  34118  288.87 0855.37
2009/04/23 09:25:37.7     -98   -232    -32    252    255 202.9  -7.3  34122  288.92 0855.37
2009/04/23 09:25:37.8    -110   -226    -41    252    256 205.9  -9.4  34120  288.90 0855.37
2009/04/23 09:25:37.9    -112   -201    -27    231    233 209.2  -6.7  34122  288.92 0855.37
2009/04/23 09:25:38.0     -94   -125    -46    157    164 217.0 -16.6  34132  289.11 0855.37
2009/04/23 09:25:38.1    -120   -100    -38    157    162 230.0 -13.9  34134  289.13 0855.37
2009/04/23 09:25:38.2    -126   -114    -22    171    173 227.8  -7.3  34130  289.08 0855.37
2009/04/23 09:25:38.3     -95   -145    -56    174    183 213.2 -17.9  34128  289.04 0855.37
2009/04/23 09:25:38.4     -59   -196     -4    205    206 197.0  -1.2  34124  288.96 0855.37
2009/04/23 09:25:38.5     -76   -250    -45    262    266 197.0  -9.8  34122  288.93 0855.37
2009/04/23 09:25:38.6     -91   -238    -28    255    257 200.9  -6.5  34122  288.93 0855.37
2009/04/23 09:25:38.7     -63   -255      0    263    264 194.0   0.0  34122  288.92 0855.37
2009/04/23 09:25:38.8     -35   -252    -32    255    258 188.0  -7.2  34126  288.98 0855.37
2009/04/23 09:25:38.9     -51   -219    -32    225    228 193.3  -8.2  34122  288.94 0855.36
2009/04/23 09:25:39.0     -64   -238    -29    247    249 195.1  -6.7  34122  288.93 0855.36
2009/04/23 09:25:39.1     -46   -229    -13    234    235 191.5  -3.3  34122  288.93 0855.36
2009/04/23 09:25:39.2     -46   -230     -9    235    236 191.5  -2.2  34120  288.90 0855.36
2009/04/23 09:25:39.3     -67   -240     -9    250    251 195.6  -2.2  34120  288.88 0855.36
2009/04/23 09:25:39.4     -92   -274    -27    290    292 198.7  -5.4  34120  288.88 0855.36
2009/04/23 09:25:39.5    -105   -228    -34    252    255 204.7  -7.7  34116  288.83 0855.36
2009/04/23 09:25:39.6     -41   -198     -9    203    204 191.8  -2.8  34120  288.89 0855.36
2009/04/23 09:25:39.7     -75   -164     -7    181    182 204.7  -2.2  34122  288.92 0855.36
2009/04/23 09:25:39.8     -63   -168     -8    180    181 200.7  -2.6  34122  288.92 0855.36
2009/04/23 09:25:39.9     -58   -176     29    186    189 198.5   9.0  34120  288.89 0855.36
2009/04/23 09:25:40.0     -73   -161     49    177    184 204.5  15.6  34120  288.89 0855.36
2009/04/23 09:25:40.1     -75   -195    -41    210    215 201.2 -11.1  34116  288.84 0855.36
2009/04/23 09:25:40.2     -92   -201    -61    222    231 204.7 -15.5  34116  288.82 0855.36
2009/04/23 09:25:40.3     -80   -174    -56    192    200 204.9 -21.5  34118  288.86 0855.36
2009/04/23 09:25:40.4     -66   -154    -28    168    171 203.2  -9.6  34118  288.87 0855.36
2009/04/23 09:25:40.5    -101   -114    -36    153    158 221.4 -13.3  34120  288.91 0855.36
2009/04/23 09:25:40.6    -115   -162    -53    199    207 215.4 -15.0  34118  288.87 0855.36
2009/04/23 09:25:40.7     -94   -148    -43    176    182 212.6 -13.7  34118  288.87 0855.36
2009/04/23 09:25:40.8     -88   -165     10    188    189 208.1   3.1  34118  288.86 0855.36
2009/04/23 09:25:40.9    -111   -136     10    176    177 219.4   3.3  34122  288.92 0855.32
2009/04/23 09:25:41.0    -125   -126     85    178    197 224.9  27.2  34118  288.87 0855.32
2009/04/23 09:25:41.1    -134   -128    112    186    217 226.2  34.0  34120  288.91 0855.32
2009/04/23 09:25:41.2     -61   -141     93    154    179 203.6  34.0  34120  288.89 0855.32
2009/04/23 09:25:41.3     -10   -146     69    147    162 184.0  27.0  34122  288.92 0855.32
2009/04/23 09:25:41.4       6   -160     56    161    171 177.8  19.2  34118  288.86 0855.32
2009/04/23 09:25:41.5      35   -180     22    184    186 168.9   7.1  34118  288.87 0855.32
2009/04/23 09:25:41.6      68   -173    -15    187    188 158.4  -4.6  34118  288.86 0855.32
2009/04/23 09:25:41.7      82   -167     -3    187    188 153.9  -1.1  34118  288.87 0855.32
2009/04/23 09:25:41.8      98   -128     13    162    163 142.6   4.9  34118  288.87 0855.32
2009/04/23 09:25:41.9      68   -131     17    148    150 152.4   6.9  34116  288.82 0855.32
2009/04/23 09:25:42.0      34   -146     -5    151    152 166.7  -2.2  34116  288.84 0855.32
2009/04/23 09:25:42.1      62   -176      5    187    188 160.6   1.6  34116  288.82 0855.32
2009/04/23 09:25:42.2      47   -170     20    177    179 164.4   6.7  34116  288.84 0855.32
2009/04/23 09:25:42.3      30   -118     19    122    124 165.7   8.9  34114  288.80 0855.32
2009/04/23 09:25:42.4      24   -113     27    116    120 168.0  13.2  34114  288.79 0855.32
2009/04/23 09:25:42.5     -18   -148     77    150    168 187.1  29.3  34114  288.80 0855.32
2009/04/23 09:25:42.6       0   -117    107    118    159 180.0  47.1  34116  288.82 0855.32
2009/04/23 09:25:42.7      37   -138     54    143    152 164.9  21.0  34114  288.79 0855.32
2009/04/23 09:25:42.8      13   -124    -25    125    128 173.7 -11.3  34116  288.84 0855.32
2009/04/23 09:25:42.9      14   -118    -32    119    124 172.9 -15.0  34116  288.84 0855.28
2009/04/23 09:25:43.0      25   -131    -15    134    135 168.9  -6.7  34118  288.86 0855.28
2009/04/23 09:25:43.1      31   -172    -58    175    184 169.5 -23.8  34118  288.86 0855.28
2009/04/23 09:25:43.2      51   -156    -45    165    172 162.0 -15.5  34118  288.86 0855.28
2009/04/23 09:25:43.3      37   -192     -6    196    197 169.1  -1.8  34110  288.72 0855.28
2009/04/23 09:25:43.4      50   -185      6    192    193 164.6   1.8  34102  288.58 0855.28
2009/04/23 09:25:43.5     -22   -232    -47    234    239 185.6 -11.5  34106  288.65 0855.28
2009/04/23 09:25:43.6      32   -226    -29    229    231 171.8  -7.3  34104  288.62 0855.28
2009/04/23 09:25:43.7     -34   -211    -70    214    225 189.3 -23.8  34112  288.75 0855.28
2009/04/23 09:25:43.8     -33   -158    -92    162    186 191.8 -36.3  34116  288.84 0855.28
2009/04/23 09:25:44.0       7    -97    -89     98    132 175.6 -51.9  34122  288.94 0855.28
2009/04/23 09:25:44.1      31   -152   -103    156    186 168.4 -40.7  34114  288.80 0855.28
2009/04/23 09:25:44.2      41   -125    -70    132    149 161.7 -34.7  34116  288.84 0855.28
2009/04/23 09:25:44.3      59   -147    -14    159    160 158.1  -5.2  34112  288.75 0855.28
2009/04/23 09:25:44.4      49   -181    -33    188    191 164.6 -10.1  34110  288.72 0855.28
2009/04/23 09:25:44.5      48   -180    -21    187    189 164.8  -6.5  34110  288.72 0855.28
2009/04/23 09:25:44.6      34   -176    -36    180    184 169.1 -11.3  34110  288.74 0855.28
2009/04/23 09:25:44.7      40   -197    -56    201    208 168.5 -20.2  34108  288.69 0855.28
2009/04/23 09:25:44.8      37   -147    -56    152    161 165.7 -25.4  34112  288.77 0855.28
2009/04/23 09:25:44.9      81   -143   -108    165    197 150.4 -40.7  34108  288.69 0855.28
2009/04/23 09:25:45.0      85   -161    -54    183    190 152.1 -21.5  34102  288.58 0855.29
2009/04/23 09:25:45.1      46   -141    -42    149    155 161.7 -15.8  34104  288.62 0855.29
2009/04/23 09:25:45.2      22   -128    -48    130    138 170.2 -25.4  34112  288.77 0855.29
2009/04/23 09:25:45.3      47   -162    -63    169    180 163.7 -25.7  34118  288.87 0855.29
2009/04/23 09:25:45.4      74   -169    -56    185    194 156.4 -16.8  34112  288.75 0855.29
2009/04/23 09:25:45.5     128   -207    -79    244    256 148.1 -23.0  34108  288.70 0855.29
2009/04/23 09:25:45.6     115   -187    -46    220    225 148.4 -11.9  34104  288.64 0855.29
2009/04/23 09:25:45.7     105   -171    -55    201    209 148.4 -15.4  34104  288.62 0855.29
2009/04/23 09:25:45.8      85   -160    -37    182    186 152.1 -11.5  34102  288.58 0855.29
2009/04/23 09:25:45.9      82   -129    -49    153    161 147.5 -17.9  34102  288.60 0855.29
2009/04/23 09:25:46.0      66   -154    -22    168    170 156.6  -7.7  34104  288.62 0855.29
2009/04/23 09:25:46.1      64   -175    -12    187    188 160.0  -3.7  34106  288.65 0855.29
2009/04/23 09:25:46.2      73   -165    -31    181    184 155.9  -9.8  34106  288.65 0855.29
2009/04/23 09:25:46.3      80   -141    -19    163    165 150.4  -6.9  34104  288.64 0855.29
2009/04/23 09:25:46.4      54   -137      2    148    149 158.2   0.8  34106  288.67 0855.29
2009/04/23 09:25:46.5      10   -149    -38    150    155 176.0 -14.5  34112  288.77 0855.29
2009/04/23 09:25:46.6      41   -154    -44    160    167 165.1 -15.5  34116  288.82 0855.29
2009/04/23 09:25:46.7      49   -158    -50    166    174 162.8 -16.8  34114  288.80 0855.29
2009/04/23 09:25:46.8      56   -235     -9    242    243 166.6  -2.2  34114  288.78 0855.29
2009/04/23 09:25:46.9      18   -232    -59    233    241 175.5 -14.4  34114  288.78 0855.29
2009/04/23 09:25:47.0      46   -190    -54    196    204 166.2 -15.4  34114  288.80 0855.28
2009/04/23 09:25:47.1      73   -200    -28    214    216 160.0  -7.5  34114  288.80 0855.28
2009/04/23 09:25:47.2      45   -187    -12    193    194 166.4  -3.7  34114  288.80 0855.28
2009/04/23 09:25:47.3      40   -149     52    155    164 164.9  18.6  34110  288.74 0855.28
2009/04/23 09:25:47.4      47   -136     83    145    167 160.8  32.7  34106  288.67 0855.28
2009/04/23 09:25:47.5      18   -132     80    134    156 171.9  34.0  34106  288.65 0855.28
2009/04/23 09:25:47.6      40   -108     67    116    133 159.5  33.4  34108  288.69 0855.28
2009/04/23 09:25:47.7      19   -139     67    141    156 171.9  27.2  34108  288.70 0855.28
2009/04/23 09:25:47.8       4   -162     80    163    181 178.4  27.8  34108  288.70 0855.28
2009/04/23 09:25:47.9      32   -169     77    173    189 169.3  25.9  34110  288.72 0855.28
2009/04/23 09:25:48.0      13   -179     77    180    195 175.8  24.6  34110  288.72 0855.28
2009/04/23 09:25:48.1      19   -187     50    189    196 174.0  15.0  34112  288.77 0855.28
2009/04/23 09:25:48.2      14   -159     53    160    169 174.7  18.4  34108  288.70 0855.28
2009/04/23 09:25:48.3       1   -168     62    169    180 179.5  20.7  34108  288.70 0855.28
2009/04/23 09:25:48.4       0   -164     66    165    177 180.2  23.0  34112  288.75 0855.28
2009/04/23 09:25:48.5      15   -197     53    198    206 175.6  15.2  34116  288.82 0855.28
2009/04/23 09:25:48.6      18   -186     73    187    200 174.2  22.5  34112  288.77 0855.28
2009/04/23 09:25:48.7      18   -190     87    191    209 174.4  26.4  34114  288.79 0855.28
2009/04/23 09:25:48.8      38   -191     90    195    214 168.5  26.6  34106  288.67 0855.28
2009/04/23 09:25:48.9      32   -202    106    205    230 170.9  29.3  34106  288.67 0855.28
2009/04/23 09:25:49.0      88   -201     84    220    235 156.3  22.0  34106  288.65 0855.25
2009/04/23 09:25:49.1      56   -204     95    212    232 164.6  25.7  34104  288.62 0855.25
2009/04/23 09:25:49.2      67   -186    114    198    228 160.2  32.7  34100  288.57 0855.25
2009/04/23 09:25:49.3      58   -190    115    199    229 162.8  32.7  34098  288.53 0855.25
2009/04/23 09:25:49.4      61   -204    107    213    238 163.3  28.7  34102  288.60 0855.25
2009/04/23 09:25:49.5      46   -207    105    213    237 167.5  28.2  34098  288.52 0855.25
2009/04/23 09:25:49.6     120   -179    135    216    254 146.2  35.2  34102  288.58 0855.25
2009/04/23 09:25:49.7     113   -180    131    213    250 147.9  34.5  34106  288.65 0855.25
2009/04/23 09:25:49.8     112   -171    135    205    245 146.6  36.5  34104  288.61 0855.25
2009/04/23 09:25:49.9      80   -186    134    203    243 156.8  36.5  34102  288.58 0855.25
2009/04/23 09:25:50.0      66   -181    125    193    229 160.0  35.6  34100  288.57 0855.25
2009/04/23 09:25:50.1     100   -181    163    207    263 151.0  42.4  34102  288.59 0855.25
2009/04/23 09:25:50.2     113   -205    114    235    261 151.1  27.4  34106  288.65 0855.25
2009/04/23 09:25:50.3     107   -162    157    195    250 146.4  43.3  34104  288.63 0855.25
2009/04/23 09:25:50.4      38   -163    139    168    218 166.6  43.7  34106  288.65 0855.25
2009/04/23 09:25:50.5      12   -226    184    227    292 176.9  43.3  34106  288.65 0855.25
2009/04/23 09:25:50.6      62   -202    195    212    288 163.0  47.7  34108  288.68 0855.25
2009/04/23 09:25:50.7     -67   -245    151    255    296 195.4  33.5  34098  288.53 0855.25
2009/04/23 09:25:50.8     -91   -276     30    291    293 198.3   5.9  34106  288.65 0855.25
2009/04/23 09:25:50.9     -70   -212     44    224    229 198.3  11.1  34104  288.64 0855.25
2009/04/23 09:25:51.0     -67   -234     43    244    248 196.1  10.0  34106  288.66 0855.23
2009/04/23 09:25:51.1    -135   -240    -47    276    281 209.4  -9.8  34106  288.66 0855.23
2009/04/23 09:25:51.2    -140   -237    -99    276    294 210.7 -19.7  34108  288.68 0855.23
2009/04/23 09:25:51.3     -58   -229    -42    237    241 194.3 -10.3  34106  288.65 0855.23
2009/04/23 09:25:51.4     -66   -199    -66    210    221 198.5 -17.6  34104  288.62 0855.23
2009/04/23 09:25:51.5     -16   -198   -104    199    224 184.7 -34.2  34106  288.67 0855.23
2009/04/23 09:25:51.6     -25   -218    -73    220    231 186.7 -23.8  34108  288.69 0855.23
2009/04/23 09:25:51.7     -23   -235   -110    237    261 185.8 -31.0  34108  288.70 0855.23
2009/04/23 09:25:51.8       3   -224    -86    225    240 179.0 -26.4  34104  288.63 0855.23
2009/04/23 09:25:51.9      15   -208    -59    209    217 175.6 -20.2  34106  288.67 0855.23
2009/04/23 09:25:52.0      11   -159    -44    160    165 176.0 -20.2  34104  288.64 0855.23
2009/04/23 09:25:52.1      64   -175    -12    187    188 160.0  -3.7  34106  288.65 0855.23
2009/04/23 09:25:52.2      65   -206     19    217    218 162.4   5.2  34104  288.64 0855.23
2009/04/23 09:25:52.3      51   -215     66    222    232 166.6  16.6  34102  288.60 0855.23
2009/04/23 09:25:52.4       6   -209     88    210    227 178.2  24.1  34104  288.62 0855.23
2009/04/23 09:25:52.5     -32   -200     70    203    216 189.3  19.2  34100  288.57 0855.23
2009/04/23 09:25:52.6     -51   -172     63    180    191 196.5  19.4  34106  288.67 0855.23
2009/04/23 09:25:52.7     -59   -148     36    160    165 201.8  12.9  34106  288.65 0855.23
2009/04/23 09:25:52.8     -10    -74     36     75     83 188.0  27.2  34106  288.65 0855.23
2009/04/23 09:25:52.9      40    -77     34     88     94 152.4  21.5  34106  288.65 0855.23
2009/04/23 09:25:53.0      92    -64     39    113    120 125.1  19.4  34106  288.65 0855.17
2009/04/23 09:25:53.1     141    -56     30    152    156 111.7  11.4  34104  288.62 0855.17
2009/04/23 09:25:53.2     121   -118    107    170    200 134.4  35.2  34102  288.60 0855.17
2009/04/23 09:25:53.3     130   -110    -40    171    176 130.2 -13.2  34104  288.62 0855.17
2009/04/23 09:25:53.4     134   -119    -58    180    190 131.8 -17.9  34106  288.67 0855.17
2009/04/23 09:25:53.5     130   -167    -67    212    223 142.1 -17.6  34106  288.65 0855.17
2009/04/23 09:25:53.6      71   -161    -37    177    181 156.2 -11.9  34106  288.65 0855.17
2009/04/23 09:25:53.7      43   -157    -56    163    173 164.4 -18.9  34106  288.67 0855.17
2009/04/23 09:25:53.8      30    -63    -55     70     89 154.6 -47.1  34108  288.69 0855.17
2009/04/23 09:25:53.9     -15     43    -48     46     66 340.0 -54.5  34110  288.74 0855.17
2009/04/23 09:25:54.0    -117     48   -118    127    173 292.6 -52.3  34108  288.69 0855.16
2009/04/23 09:25:54.1     -93     71   -157    118    196 307.3 -63.6  34108  288.70 0855.16
2009/04/23 09:25:54.2    -169     54   -163    178    241 287.7 -51.5  34106  288.67 0855.16
2009/04/23 09:25:54.3    -187     55   -132    195    235 286.4 -42.0  34108  288.69 0855.16
2009/04/23 09:25:54.4    -172     79   -110    190    219 294.6 -37.1  34102  288.60 0855.16
2009/04/23 09:25:54.5    -147    119    -68    190    201 309.1 -25.1  34106  288.67 0855.16
2009/04/23 09:25:54.6     -92    102    -74    138    156 318.1 -34.7  34108  288.70 0855.16
2009/04/23 09:25:54.7      -6     83    -96     84    127 355.5 -58.7  34108  288.70 0855.16
2009/04/23 09:25:54.8    -122     20    -83    124    149 279.7 -41.4  34108  288.70 0855.16
2009/04/23 09:25:54.9     -13     17    -95     22     97 322.2 -90.0  34114  288.79 0855.16
2009/04/23 09:25:55.0      19     23    -76     30     81  39.6 -82.0  34112  288.75 0855.16
2009/04/23 09:25:55.1      71    -58    -59     92    109 129.1 -40.0  34110  288.72 0855.16
2009/04/23 09:25:55.2     112   -130    -59    172    181 139.2 -23.6  34106  288.65 0855.16
2009/04/23 09:25:55.3     130   -180    -59    223    231 144.2 -15.0  34102  288.60 0855.16
2009/04/23 09:25:55.4     112   -195     29    226    228 150.1   7.5  34100  288.57 0855.16
2009/04/23 09:25:55.5      10   -128    -37    129    135 175.5 -16.0  34102  288.58 0855.16
2009/04/23 09:25:55.6      -9   -141     -1    142    143 184.0  -0.7  34104  288.62 0855.16
2009/04/23 09:25:55.7     -19   -121    -34    123    128 189.3 -15.5  34106  288.65 0855.16
2009/04/23 09:25:55.8       3   -124      6    125    126 178.2   2.9  34108  288.69 0855.16
2009/04/23 09:25:55.9      26    -55    -26     62     67 154.5 -27.5  34110  288.74 0855.16
2009/04/23 09:25:56.0      37    -40    -65     55     85 136.8 -59.8  34106  288.67 0855.15
2009/04/23 09:25:56.1      27   -102    -35    106    111 164.8 -23.8  34106  288.67 0855.15
2009/04/23 09:25:56.2      -8    -81    -69     82    107 185.8 -48.7  34110  288.74 0855.15
2009/04/23 09:25:56.3    -129    -61    -90    143    168 244.6 -39.9  34114  288.79 0855.15
2009/04/23 09:25:56.4    -248    -70   -125    258    286 254.1 -31.7  34116  288.81 0855.15
2009/04/23 09:25:56.5    -182    -97   -181    207    274 242.0 -50.2  34112  288.75 0855.15
2009/04/23 09:25:56.6      77   -171   -148    188    239 155.5 -46.6  34108  288.70 0855.15
2009/04/23 09:25:56.7     -50   -156    -98    164    191 197.8 -38.4  34110  288.74 0855.15
2009/04/23 09:25:56.8     -75   -118    -49    140    149 212.5 -19.6  34114  288.80 0855.15
2009/04/23 09:25:56.9     -64    -52      4     83     84 230.9   3.3  34118  288.87 0855.15
2009/04/23 09:25:57.0       8    -66      3     67     68 172.9   2.8  34114  288.80 0855.15
2009/04/23 09:25:57.1      29   -107     32    111    116 164.8  16.3  34112  288.77 0855.15
2009/04/23 09:25:57.2      66   -115     26    133    136 150.1  11.1  34104  288.62 0855.15
2009/04/23 09:25:57.3     157   -215    -54    267    273 143.9 -11.6  34110  288.71 0855.15
2009/04/23 09:25:57.4      52   -213   -105    220    243 166.2 -31.7  34114  288.80 0855.15
2009/04/23 09:25:57.5      22   -172    -98    174    199 172.4 -36.3  34110  288.74 0855.15
2009/04/23 09:25:57.6     -14   -145   -126    146    192 185.8 -49.8  34114  288.80 0855.15
2009/04/23 09:25:57.7     -58    -55   -139     81    160 226.4 -71.6  34116  288.82 0855.15
2009/04/23 09:25:57.8    -193   -120   -204    228    305 238.2 -50.8  34122  288.93 0855.15
2009/04/23 09:25:57.9    -128   -125   -166    180    244 225.6 -51.9  34120  288.91 0855.15
2009/04/23 09:25:58.0     -74    -58    -92     95    132 231.8 -53.8  34122  288.92 0855.14
2009/04/23 09:25:58.1      44    -44    -91     63    110 135.0 -66.5  34122  288.92 0855.14
2009/04/23 09:25:58.2      63     25    -44     68     80  68.2 -40.4  34120  288.89 0855.14
2009/04/23 09:25:58.3     -15    -45    -54     48     72 199.2 -57.7  34118  288.87 0855.14
2009/04/23 09:25:58.4    -147     32     10    151    152 282.4   3.8  34116  288.82 0855.14
2009/04/23 09:25:58.5    -211     70    -75    223    236 288.4 -18.7  34116  288.82 0855.14
2009/04/23 09:25:58.6     -87    -91   -102    127    162 223.7 -47.4  34114  288.80 0855.14
2009/04/23 09:25:58.7     -89    -67    -98    112    148 233.1 -50.2  34112  288.77 0855.14
2009/04/23 09:25:58.8     -93    -96    -38    135    141 224.1 -16.0  34114  288.79 0855.14
2009/04/23 09:25:58.9    -198    -36    -58    202    210 259.6 -21.2  34114  288.80 0855.14
2009/04/23 09:25:59.0    -165    -73    -50    181    187 246.0 -20.0  34114  288.79 0855.14
2009/04/23 09:25:59.1    -278     23   -120    279    303 274.8 -29.5  34114  288.80 0855.14
2009/04/23 09:25:59.2    -424     19   -138    425    446 272.6 -23.2  34120  288.90 0855.14
2009/04/23 09:25:59.3    -354     61   -151    360    390 279.9 -28.5  34120  288.91 0855.14
2009/04/23 09:25:59.4    -226     79    -62    240    248 289.3 -14.5  34122  288.93 0855.14
2009/04/23 09:25:59.5    -220    -74    -49    233    239 251.4 -11.9  34116  288.81 0855.14
2009/04/23 09:25:59.6    -238    -47    -84    243    258 258.8 -19.1  34114  288.80 0855.14
2009/04/23 09:25:59.7    -244    -61    -70    252    261 255.9 -20.2  34116  288.81 0855.14
2009/04/23 09:25:59.8    -244   -145   -101    284    302 239.3 -19.6  34120  288.88 0855.14
2009/04/23 09:25:59.9    -181    -28   -189    184    263 261.0 -55.1  34124  288.95 0855.14
2009/04/23 09:26:00.0    -168     22   -195    170    258 277.5 -59.0  34126  289.00 0855.12
2009/04/23 09:26:00.1    -228    -26   -188    230    297 263.4 -48.1  34118  288.85 0855.12
2009/04/23 09:26:00.2    -244    -16    -67    245    255 266.1 -15.4  34116  288.81 0855.12
2009/04/23 09:26:00.3    -241   -166    -95    293    309 235.4 -18.1  34116  288.83 0855.12
2009/04/23 09:26:00.4    -317   -252   -103    406    420 231.5 -14.3  34106  288.67 0855.12
2009/04/23 09:26:00.5    -296   -151   -105    333    350 242.9 -17.6  34112  288.76 0855.12
2009/04/23 09:26:00.6    -160   -170    -94    234    252 223.3 -27.4  34116  288.81 0855.12
2009/04/23 09:26:00.7      -2   -293    -65    294    302 180.5 -12.6  34112  288.76 0855.12
2009/04/23 09:26:00.8     -26   -352     80    353    363 184.3  12.8  34114  288.79 0855.12
2009/04/23 09:26:00.9       7   -334    -61    335    341 178.8 -10.4  34108  288.69 0855.12
2009/04/23 09:26:01.0      42   -368   -133    371    395 173.4 -19.8  34116  288.81 0855.12
2009/04/23 09:26:01.1      97   -425    -45    436    439 167.1  -5.9  34112  288.75 0855.12
2009/04/23 09:26:01.2     127   -443    -42    461    464 164.0  -5.3  34106  288.67 0855.12
2009/04/23 09:26:01.3      88   -448    -21    457    458 168.8  -2.7  34108  288.68 0855.12
2009/04/23 09:26:01.4      85   -431    -55    440    444 168.8  -7.2  34106  288.67 0855.12
2009/04/23 09:26:01.5     190   -435     24    475    476 156.4   2.9  34104  288.64 0855.12
2009/04/23 09:26:01.6     177   -441    -18    476    477 158.1  -2.2  34104  288.62 0855.12
2009/04/23 09:26:01.7     243   -417     32    483    485 149.8   3.8  34104  288.61 0855.12
2009/04/23 09:26:01.8     107   -357   -128    373    395 163.2 -19.0  34106  288.67 0855.12
2009/04/23 09:26:01.9     111   -338    -98    356    370 161.7 -15.4  34106  288.67 0855.12
2009/04/23 09:26:02.0     131   -356   -108    380    396 159.7 -15.9  34104  288.64 0855.12
2009/04/23 09:26:02.1     135   -390    -98    413    425 160.8 -13.4  34106  288.65 0855.12
2009/04/23 09:26:02.2     181   -338    -30    384    386 151.7  -4.6  34102  288.59 0855.12
2009/04/23 09:26:02.3     176   -282     22    333    334 148.0   3.8  34104  288.64 0855.12
2009/04/23 09:26:02.4     159   -265     36    310    313 149.0   6.7  34102  288.59 0855.12
2009/04/23 09:26:02.5     136   -276     54    308    313 153.7  10.1  34102  288.59 0855.12
2009/04/23 09:26:02.6     199   -355     72    408    415 150.7  10.0  34102  288.58 0855.12
2009/04/23 09:26:02.7     319   -385     46    501    504 140.4   5.3  34100  288.56 0855.12
2009/04/23 09:26:02.8     310   -322     35    447    449 136.1   4.6  34102  288.58 0855.12
2009/04/23 09:26:02.9     133   -359     32    384    386 159.6   4.9  34102  288.60 0855.12
2009/04/23 09:26:03.0      75   -382    115    390    407 168.9  16.5  34100  288.57 0855.12
2009/04/23 09:26:03.1      37   -362     99    364    378 174.1  15.2  34102  288.59 0855.12
2009/04/23 09:26:03.2      18   -403     63    404    410 177.4   8.9  34100  288.55 0855.12
2009/04/23 09:26:03.3       1   -369     90    370    381 179.8  13.7  34102  288.59 0855.12
2009/04/23 09:26:03.4      -8   -323    127    324    348 181.5  22.5  34100  288.55 0855.12
2009/04/23 09:26:03.5     -15   -249    178    250    306 183.6  39.1  34102  288.58 0855.12
2009/04/23 09:26:03.6     -67   -333    150    340    371 191.5  25.2  34102  288.60 0855.12
2009/04/23 09:26:03.7     -57   -322    167    328    368 190.1  29.2  34102  288.60 0855.12
2009/04/23 09:26:03.8     -64   -377    139    383    407 189.7  20.8  34100  288.55 0855.12
2009/04/23 09:26:03.9     -37   -373    129    375    397 185.8  19.1  34100  288.57 0855.12
2009/04/23 09:26:04.0     -26   -313    131    315    341 184.9  23.8  34100  288.54 0855.08
2009/04/23 09:26:04.1     -18   -286     98    287    304 183.8  18.9  34106  288.66 0855.08
2009/04/23 09:26:04.2     -37   -311    110    314    332 186.9  20.1  34102  288.59 0855.08
2009/04/23 09:26:04.3     -23   -262    149    264    303 185.1  31.9  34100  288.56 0855.08
2009/04/23 09:26:04.4     -38   -191    200    195    279 191.5  50.7  34100  288.56 0855.08
2009/04/23 09:26:04.5      13   -225    204    226    304 176.6  46.9  34102  288.59 0855.08
2009/04/23 09:26:04.6      16   -267    210    268    340 176.5  42.1  34106  288.65 0855.08
2009/04/23 09:26:04.7       0   -281    139    282    314 180.0  28.1  34106  288.65 0855.08
2009/04/23 09:26:04.8      45   -278    148    282    318 170.7  30.0  34106  288.66 0855.08
2009/04/23 09:26:04.9      30    -91    151     96    178 161.7  64.7  34102  288.58 0855.08
2009/04/23 09:26:05.0       0    -89    168     90    190 179.5  69.6  34106  288.67 0855.08
2009/04/23 09:26:05.1       4   -177    115    178    211 178.6  35.6  34106  288.67 0855.08
2009/04/23 09:26:05.2     -18   -130     90    132    159 188.0  37.8  34102  288.60 0855.08
2009/04/23 09:26:05.3     -20   -109    109    111    155 190.7  50.0  34106  288.67 0855.08
2009/04/23 09:26:05.4       0    -88    131     89    158 180.4  62.6  34104  288.64 0855.08
2009/04/23 09:26:05.5     -10   -140    237    141    275 184.5  66.7  34104  288.63 0855.08
2009/04/23 09:26:05.6       8   -121    206    122    239 176.0  66.8  34108  288.70 0855.08
2009/04/23 09:26:05.7       2   -141    172    142    223 179.1  56.4  34108  288.69 0855.08
2009/04/23 09:26:05.8      60   -153    122    165    205 158.4  39.9  34104  288.64 0855.08
2009/04/23 09:26:05.9      68   -232    138    242    278 163.5  32.3  34106  288.65 0855.08
2009/04/23 09:26:06.0      29   -213    178    215    279 172.2  43.8  34102  288.59 0855.08
2009/04/23 09:26:06.1      11   -215    174    216    277 176.9  43.0  34106  288.65 0855.08
2009/04/23 09:26:06.2       2   -144    178    145    229 179.1  56.4  34106  288.65 0855.08
2009/04/23 09:26:06.3      12   -142    167    143    219 175.1  55.0  34112  288.75 0855.08
2009/04/23 09:26:06.4       8   -126    146    127    193 176.0  54.6  34116  288.84 0855.08
2009/04/23 09:26:06.5      15    -58    135     61    148 164.8  74.0  34114  288.80 0855.08
2009/04/23 09:26:06.6      73   -200    193    213    287 159.9  46.9  34120  288.88 0855.08
2009/04/23 09:26:06.7      76    -20    148     79    167 105.1  69.8  34124  288.97 0855.08
2009/04/23 09:26:06.8      10     32    104     34    109  18.3  80.7  34124  288.96 0855.08
2009/04/23 09:26:06.9     -26    -12    114     29    117 244.7  85.9  34120  288.91 0855.08
2009/04/23 09:26:07.0     -43   -143    181    150    235 196.9  56.3  34104  288.62 0855.08
2009/04/23 09:26:07.1     -10   -140    222    141    262 184.5  64.7  34110  288.72 0855.08
2009/04/23 09:26:07.2     -34    -76    176     84    195 204.5  72.8  34110  288.74 0855.08
2009/04/23 09:26:07.3     -59   -125    158    139    210 205.3  54.3  34110  288.72 0855.08
2009/04/23 09:26:07.4      16   -105     66    107    125 171.1  35.0  34108  288.70 0855.08
2009/04/23 09:26:07.5      -9    -93     64     94    113 185.8  37.0  34110  288.72 0855.08
2009/04/23 09:26:07.6       4    -70     50     71     86 176.4  38.6  34108  288.70 0855.08
2009/04/23 09:26:07.7      -1    -65     57     66     87 181.0  45.8  34108  288.70 0855.08
2009/04/23 09:26:07.9       1   -136    130    137    188 179.5  48.5  34108  288.69 0855.08
2009/04/23 09:26:07.9      20   -136    122    138    184 171.5  46.2  34104  288.62 0855.08
2009/04/23 09:26:08.0      55    -53    129     77    150 134.0  66.7  34102  288.58 0855.09
2009/04/23 09:26:08.1      -4     -7     96      9     96 212.5  90.0  34102  288.60 0855.09
2009/04/23 09:26:08.2      30    -64    100     71    122 154.7  61.1  34100  288.57 0855.09
2009/04/23 09:26:08.3      73    -88    124    115    169 140.3  52.2  34108  288.69 0855.09
2009/04/23 09:26:08.4     103    -41    147    111    184 111.7  59.4  34112  288.77 0855.09
2009/04/23 09:26:08.5      39     -5     93     40    101  97.9  75.5  34122  288.94 0855.09
2009/04/23 09:26:08.6      36     -2     97     37    103  94.4  78.6  34124  288.96 0855.09
2009/04/23 09:26:08.7      30    -31     65     44     78 135.9  63.6  34118  288.87 0855.09
2009/04/23 09:26:08.8      58      6    145     59    156  83.9  76.6  34132  289.09 0855.09
2009/04/23 09:26:08.9       3     53     98     54    111   3.6  68.8  34150  289.41 0855.09
2009/04/23 09:26:09.1     -56     11     67     58     88 281.5  54.8  34138  289.21 0855.09
2009/04/23 09:26:09.1     -39     22     40     46     60 299.8  45.8  34138  289.19 0855.09
2009/04/23 09:26:09.2     -57   -113     84    127    152 207.1  36.0  34112  288.77 0855.09
2009/04/23 09:26:09.3      16   -160    131    161    207 174.2  43.7  34100  288.57 0855.09
2009/04/23 09:26:09.4      74    -87    137    115    178 139.5  55.8  34110  288.72 0855.09
2009/04/23 09:26:09.5      77   -121    110    144    181 147.4  41.4  34108  288.69 0855.09
2009/04/23 09:26:09.6     143   -115     64    184    195 128.9  19.2  34146  289.33 0855.09
2009/04/23 09:26:09.7     111    -37     36    118    124 108.6  17.3  34142  289.28 0855.09
2009/04/23 09:26:09.8      95     32     46    101    110  71.4  26.6  34142  289.26 0855.09
2009/04/23 09:26:09.9      53      4     52     54     74  85.6  51.1  34128  289.04 0855.09
2009/04/23 09:26:10.0      -3    -86     81     87    118 182.2  48.0  34120  288.89 0855.10
2009/04/23 09:26:10.1     -33   -125    138    130    189 195.1  52.0  34120  288.91 0855.10
2009/04/23 09:26:10.2     -37    -58     49     69     84 212.5  38.6  34122  288.92 0855.10
2009/04/23 09:26:10.3     -30    -30      7     43     44 225.0  10.1  34120  288.91 0855.10
2009/04/23 09:26:10.4     -23     10    -17     26     31 293.5 -40.0  34124  288.97 0855.10
2009/04/23 09:26:10.5     -30    -25     -4     40     41 230.4  -6.2  34120  288.91 0855.10
2009/04/23 09:26:10.6      23    -49     71     55     89 154.6  57.9  34150  289.41 0855.10
2009/04/23 09:26:10.7      69    -10    101     70    122  98.8  62.1  34180  289.92 0855.10
2009/04/23 09:26:10.8       8    -23     62     25     66 160.0  77.1  34180  289.92 0855.10
2009/04/23 09:26:10.9      60    -17     82     63    103 105.9  58.5  34182  289.94 0855.10
2009/04/23 09:26:11.0      73      3    122     74    142  87.4  65.7  34178  289.87 0855.10
2009/04/23 09:26:11.1     -18     -3    115     19    116 258.5  90.0  34160  289.58 0855.10
2009/04/23 09:26:11.2     -24   -109    104    112    152 192.9  47.9  34148  289.38 0855.10
2009/04/23 09:26:11.3       7    -62     70     63     94 172.9  53.3  34138  289.21 0855.10
2009/04/23 09:26:11.4     -72    -78    128    107    166 222.8  56.1  34142  289.26 0855.10
2009/04/23 09:26:11.5     -82   -105    135    134    190 217.8  49.9  34140  289.24 0855.10
2009/04/23 09:26:11.6     -68   -153     57    168    178 204.1  18.9  34144  289.30 0855.10
2009/04/23 09:26:11.8     -96   -152     98    180    204 212.3  31.3  34138  289.21 0855.10
2009/04/23 09:26:11.9    -123   -149    112    194    224 219.7  32.9  34140  289.24 0855.10
2009/04/23 09:26:12.0    -116   -184    130    218    253 212.3  33.5  34138  289.20 0855.10
2009/04/23 09:26:12.1    -135   -121    135    182    226 228.2  40.1  34154  289.46 0855.11
2009/04/23 09:26:12.2    -188    -97     91    212    230 242.5  24.9  34172  289.79 0855.11
2009/04/23 09:26:12.3    -122    -95     98    155    183 232.2  35.5  34162  289.62 0855.11
2009/04/23 09:26:12.4     -82    -71     90    109    141 229.1  43.7  34158  289.55 0855.11
2009/04/23 09:26:12.5    -139    -82     12    162    163 239.3   4.4  34146  289.35 0855.11
2009/04/23 09:26:12.6     -87   -160    133    183    226 208.7  39.7  34124  288.97 0855.11
2009/04/23 09:26:12.7     -36   -256    111    259    281 188.0  24.6  34118  288.85 0855.11
2009/04/23 09:26:12.8      45   -198    145    204    250 167.1  38.8  34116  288.81 0855.11
2009/04/23 09:26:12.9       9   -194     98    195    218 177.1  28.7  34116  288.82 0855.11
2009/04/23 09:26:13.0      24   -224     88    226    242 173.8  22.3  34114  288.78 0855.11
2009/04/23 09:26:13.1      73   -142    114    160    196 152.8  39.3  34114  288.79 0855.11
2009/04/23 09:26:13.2      28   -119     76    123    144 166.6  35.5  34114  288.80 0855.11
2009/04/23 09:26:13.3      19   -118    101    120    156 170.7  44.5  34112  288.77 0855.11
2009/04/23 09:26:13.4      15   -115    124    117    170 172.4  52.0  34112  288.77 0855.11
2009/04/23 09:26:13.5      22   -158     97    160    187 172.0  34.2  34114  288.80 0855.11
2009/04/23 09:26:13.6      -3   -150    123    151    194 181.4  43.7  34114  288.79 0855.11
2009/04/23 09:26:13.7       1   -174    103    175    203 179.5  33.5  34114  288.80 0855.11
2009/04/23 09:26:13.8      -2   -171     86    172    192 180.7  28.2  34114  288.80 0855.11
2009/04/23 09:26:13.9     -32   -257    128    259    288 187.1  28.2  34116  288.81 0855.11
2009/04/23 09:26:14.0      -4   -236    204    237    312 181.1  45.2  34116  288.83 0855.11
2009/04/23 09:26:14.1      -9   -237    124    238    268 182.2  29.8  34118  288.87 0855.12
2009/04/23 09:26:14.2     -48   -284    103    289    306 189.6  20.2  34118  288.85 0855.12
2009/04/23 09:26:14.3      33   -236     93    239    256 172.0  22.5  34118  288.87 0855.12
2009/04/23 09:26:14.4      82   -227     58    242    249 160.0  13.5  34112  288.76 0855.12
2009/04/23 09:26:14.5     124   -266     60    294    301 155.1  11.6  34114  288.78 0855.12
2009/04/23 09:26:14.6      86   -255     58    270    277 161.3  12.2  34116  288.83 0855.12
2009/04/23 09:26:14.7      51   -272     59    277    284 169.3  12.2  34120  288.88 0855.12
2009/04/23 09:26:14.8      40   -291     41    294    297 172.0   8.0  34118  288.87 0855.12
2009/04/23 09:26:14.9      56   -274     14    280    281 168.4   2.9  34118  288.85 0855.12
2009/04/23 09:26:15.0      82   -244    -20    258    259 161.3  -4.6  34118  288.85 0855.12
2009/04/23 09:26:15.1      95   -220    -39    240    244 156.6  -9.3  34114  288.80 0855.12
2009/04/23 09:26:15.2      84   -231     -9    246    247 160.0  -2.2  34118  288.87 0855.12
2009/04/23 09:26:15.3      66   -261     19    270    271 165.8   4.2  34120  288.88 0855.12
2009/04/23 09:26:15.4      90   -224      8    242    243 157.9   2.1  34118  288.87 0855.12
2009/04/23 09:26:15.5     113   -203    -69    233    243 151.0 -21.7  34122  288.92 0855.12
2009/04/23 09:26:15.6     136   -181    -87    227    243 143.0 -26.4  34120  288.90 0855.12
2009/04/23 09:26:15.7      69   -204   -109    216    241 161.3 -33.1  34120  288.90 0855.12
2009/04/23 09:26:15.8     103   -216    175    240    297 154.4  39.7  34106  288.65 0855.12
2009/04/23 09:26:15.9      67   -331    135    338    363 168.6  23.0  34110  288.71 0855.12
2009/04/23 09:26:16.0      71   -403    137    410    433 169.9  18.5  34110  288.73 0855.12
2009/04/23 09:26:16.1      -5   -378    151    379    407 180.9  22.9  34120  288.89 0855.12
2009/04/23 09:26:16.2     -37   -430    151    432    458 185.0  19.3  34112  288.77 0855.12
2009/04/23 09:26:16.3      61   -299    158    306    344 168.4  29.4  34110  288.72 0855.12
2009/04/23 09:26:16.4      88   -434    138    444    466 168.4  17.3  34110  288.73 0855.12
2009/04/23 09:26:16.5      94   -411    -19    422    423 167.0  -2.6  34100  288.56 0855.12
2009/04/23 09:26:16.6     167   -471    198    500    537 160.4  23.0  34118  288.87 0855.12
2009/04/23 09:26:16.7     274   -603     50    663    665 155.6   4.4  34110  288.73 0855.12
2009/04/23 09:26:16.8     192   -588     33    619    620 161.9   3.1  34112  288.76 0855.12
2009/04/23 09:26:16.9     208   -584    142    621    638 160.4  12.9  34120  288.89 0855.12
2009/04/23 09:26:17.0     261   -483    100    549    559 151.6  10.4  34112  288.75 0855.12
2009/04/23 09:26:17.1     214   -451    134    500    518 154.6  15.0  34110  288.71 0855.13
2009/04/23 09:26:17.2     222   -443    145    496    517 153.4  16.3  34114  288.78 0855.13
2009/04/23 09:26:17.3      91   -449    120    459    475 168.5  14.7  34114  288.79 0855.13
2009/04/23 09:26:17.4      37   -248    -50    251    256 171.5 -11.3  34114  288.80 0855.13
2009/04/23 09:26:17.5      57   -159   -140    170    220 160.2 -48.1  34120  288.89 0855.13
2009/04/23 09:26:17.6      48   -180   -102    187    213 164.8 -35.7  34116  288.82 0855.13
2009/04/23 09:26:17.7      41   -214    -61    218    227 169.1 -15.8  34116  288.84 0855.13
2009/04/23 09:26:17.8      62   -217    -70    226    237 164.0 -17.3  34118  288.87 0855.13
2009/04/23 09:26:17.9     127   -239    -44    271    275 151.9  -9.3  34116  288.81 0855.13
2009/04/23 09:26:18.0     114   -262     34    286    289 156.4   6.9  34116  288.83 0855.13
2009/04/23 09:26:18.1     129   -220     78    256    268 149.5  17.1  34118  288.87 0855.13
2009/04/23 09:26:18.2     107   -204    102    231    252 152.4  25.2  34116  288.81 0855.13
2009/04/23 09:26:18.3      20   -199    130    201    239 174.0  36.0  34118  288.87 0855.13
2009/04/23 09:26:18.4     122   -165     48    206    212 143.5  13.2  34118  288.86 0855.13
2009/04/23 09:26:18.5     126   -209     13    245    246 148.8   3.1  34120  288.88 0855.13
2009/04/23 09:26:18.6      76   -231     61    244    252 161.7  14.2  34126  288.98 0855.13
2009/04/23 09:26:18.7      25   -202     -1    204    205 172.9  -0.5  34124  288.97 0855.13
2009/04/23 09:26:18.8     -31   -242    -31    244    247 187.3  -7.3  34124  288.97 0855.13
2009/04/23 09:26:18.9       3   -284    -48    285    290 179.3  -9.6  34120  288.90 0855.13
2009/04/23 09:26:19.0      46   -234    -71    239    250 168.9 -16.6  34122  288.92 0855.13
2009/04/23 09:26:19.1      94   -198    -68    220    231 154.7 -17.3  34122  288.92 0855.13
2009/04/23 09:26:19.2      84   -238    -22    253    255 160.4  -5.1  34124  288.97 0855.13
2009/04/23 09:26:19.3     104   -228     16    251    252 155.5   3.8  34122  288.93 0855.13
2009/04/23 09:26:19.4     100   -194     65    219    229 152.8  16.6  34122  288.94 0855.13
2009/04/23 09:26:19.5      14   -190     -7    191    192 175.5  -2.1  34124  288.96 0855.13
2009/04/23 09:26:19.6      80   -219    -47    234    239 159.9 -11.5  34124  288.95 0855.13
2009/04/23 09:26:19.7     122   -308     37    332    335 158.3   6.5  34122  288.93 0855.13
2009/04/23 09:26:19.8       0   -257     67    258    267 180.0  14.7  34122  288.92 0855.13
2009/04/23 09:26:19.9     -13   -258    137    259    293 182.9  30.2  34124  288.97 0855.13
2009/04/23 09:26:20.0     102   -333    176    349    390 163.0  28.9  34124  288.96 0855.13
2009/04/23 09:26:20.1     124   -367     34    388    390 161.3   5.1  34124  288.96 0855.13
2009/04/23 09:26:20.2      96   -371    -20    384    385 165.5  -3.0  34122  288.94 0855.13
2009/04/23 09:26:20.3     107   -338    -27    355    356 162.3  -4.4  34126  289.01 0855.13
2009/04/23 09:26:20.4     123   -384    -37    404    406 162.2  -5.3  34128  289.02 0855.13
2009/04/23 09:26:20.5     133   -416    -55    437    441 162.2  -7.2  34124  288.97 0855.13
2009/04/23 09:26:20.6     188   -448    -93    487    496 157.2 -10.8  34124  288.96 0855.13
2009/04/23 09:26:20.7     198   -470    -87    511    519 157.2  -9.7  34124  288.95 0855.13
2009/04/23 09:26:20.8     157   -408   -142    438    461 159.0 -18.0  34122  288.92 0855.13
2009/04/23 09:26:20.9     124   -458   -131    475    493 164.9 -15.5  34114  288.79 0855.13
2009/04/23 09:26:21.0     237   -310    -49    391    395 142.6  -7.2  34116  288.84 0855.13
2009/04/23 09:26:21.1      42   -392     13    395    396 173.8   1.9  34122  288.94 0855.14
2009/04/23 09:26:21.2      52   -376     49    380    384 172.0   7.5  34124  288.96 0855.14
2009/04/23 09:26:21.3      40   -323     80    326    336 172.9  13.8  34118  288.86 0855.14
2009/04/23 09:26:21.4     -31   -337     10    339    340 185.4   1.8  34124  288.96 0855.14
2009/04/23 09:26:21.5      23   -296    -88    297    310 175.5 -16.5  34126  289.00 0855.14
2009/04/23 09:26:21.6      43   -312   -105    316    332 172.0 -23.7  34128  289.02 0855.14
2009/04/23 09:26:21.7      96   -395   -135    407    428 166.3 -23.7  34120  288.89 0855.14
2009/04/23 09:26:21.8     268   -379   -139    465    486 144.7 -16.7  34114  288.78 0855.14
2009/04/23 09:26:21.9     183   -346   -137    392    415 152.1 -24.4  34112  288.75 0855.14
2009/04/23 09:26:22.0     258   -328    -93    418    429 141.8 -12.6  34114  288.78 0855.14
2009/04/23 09:26:22.1     160   -353     36    388    390 155.5   5.3  34114  288.79 0855.14
2009/04/23 09:26:22.2      96   -244    -87    263    277 158.4 -23.8  34120  288.90 0855.14
2009/04/23 09:26:22.3      55   -254    -82    261    274 167.6 -17.6  34120  288.90 0855.14
2009/04/23 09:26:22.4      79   -311      1    321    322 165.7   0.2  34116  288.81 0855.14
2009/04/23 09:26:22.5     123   -389    -70    409    416 162.4  -9.8  34112  288.77 0855.14
2009/04/23 09:26:22.6     151   -447     15    473    474 161.3   1.9  34110  288.74 0855.14
2009/04/23 09:26:22.7     170   -412    -42    446    449 157.6  -5.5  34110  288.72 0855.14
2009/04/23 09:26:22.8     292   -447     21    535    536 146.8   2.3  34092  288.43 0855.14
2009/04/23 09:26:22.9     346   -493     -2    603    604 144.9  -0.3  34094  288.44 0855.14
2009/04/23 09:26:23.0     310   -445    -21    543    544 145.2  -2.2  34096  288.48 0855.14
2009/04/23 09:26:23.1     166   -419    -57    451    455 158.3  -7.3  34114  288.80 0855.14
2009/04/23 09:26:23.2     146   -341      2    372    373 156.8   0.4  34114  288.79 0855.14
2009/04/23 09:26:23.3      99   -410    -28    422    423 166.3  -3.9  34110  288.72 0855.14
2009/04/23 09:26:23.4     120   -381    -17    400    401 162.5  -2.5  34106  288.67 0855.14
2009/04/23 09:26:23.5     148   -304     12    339    340 154.1   2.1  34094  288.45 0855.14
2009/04/23 09:26:23.6     237   -289     65    374    380 140.6   9.9  34106  288.66 0855.14
2009/04/23 09:26:23.7      88   -347     56    359    364 165.7   9.0  34108  288.69 0855.14
2009/04/23 09:26:23.8      53   -335    153    340    372 171.0  25.9  34106  288.67 0855.14
2009/04/23 09:26:23.9      75   -313     24    322    323 166.4   4.4  34110  288.73 0855.14
2009/04/23 09:26:24.0     110   -242     78    267    279 155.5  16.4  34110  288.71 0855.14
2009/04/23 09:26:24.1     184   -217     78    285    296 139.7  15.3  34110  288.73 0855.14
2009/04/23 09:26:24.2     157   -267     75    310    319 149.5  13.7  34110  288.71 0855.14
2009/04/23 09:26:24.3     147   -328     19    360    361 155.9   3.1  34110  288.71 0855.14
2009/04/23 09:26:24.4     177   -316     85    363    373 150.8  13.3  34116  288.81 0855.14
2009/04/23 09:26:24.5     168   -254     24    305    307 146.4   4.6  34118  288.85 0855.14
2009/04/23 09:26:24.6     160   -222     32    275    277 144.2   6.7  34116  288.81 0855.14
2009/04/23 09:26:24.7     157   -239     90    287    301 146.6  17.4  34116  288.81 0855.14
2009/04/23 09:26:24.8     180   -264     69    320    328 145.7  12.3  34106  288.66 0855.14
2009/04/23 09:26:24.9      63   -265     92    273    289 166.6  18.6  34108  288.68 0855.14
2009/04/23 09:26:25.0      15   -263     64    264    272 176.6  13.7  34106  288.66 0855.14
2009/04/23 09:26:25.1      34   -227    112    230    255 171.3  27.8  34104  288.61 0855.15
2009/04/23 09:26:25.2     121   -203     69    237    247 149.3  16.3  34108  288.68 0855.15
2009/04/23 09:26:25.3      75   -233      3    245    246 162.1   0.7  34106  288.66 0855.15
2009/04/23 09:26:25.4      46   -318    -79    322    332 171.8 -13.8  34108  288.68 0855.15
2009/04/23 09:26:25.5     -14   -415    -59    416    421 182.0  -8.1  34106  288.65 0855.15
2009/04/23 09:26:25.6     -19   -347   -109    348    365 183.1 -17.5  34104  288.62 0855.15
2009/04/23 09:26:25.7      42   -364   -124    367    387 173.3 -23.3  34106  288.66 0855.15
2009/04/23 09:26:25.8      36   -419   -119    421    437 175.0 -20.5  34110  288.72 0855.15
2009/04/23 09:26:25.9      50   -477   -141    480    500 173.9 -21.1  34108  288.69 0855.15
2009/04/23 09:26:26.0      62   -400   -128    405    425 171.1 -17.6  34112  288.77 0855.15
2009/04/23 09:26:26.1      48   -356    -81    360    370 172.2 -12.7  34112  288.76 0855.15
2009/04/23 09:26:26.2     -14   -390     -1    391    392 182.1  -0.3  34116  288.82 0855.15
2009/04/23 09:26:26.3     -52   -380    -32    384    386 187.9  -4.9  34110  288.74 0855.15
2009/04/23 09:26:26.4      42   -377    -69    380    387 173.5 -10.4  34112  288.76 0855.15
2009/04/23 09:26:26.5      87   -329    -60    341    347 165.2 -10.1  34120  288.88 0855.15
2009/04/23 09:26:26.6      41   -342    -39    345    348 173.0  -6.5  34114  288.79 0855.15
2009/04/23 09:26:26.7     101   -317    -64    333    340 162.2 -11.0  34112  288.77 0855.15
2009/04/23 09:26:26.8      59   -319    -12    325    326 169.5  -2.2  34118  288.85 0855.15
2009/04/23 09:26:26.9      93   -325    -40    339    342 164.0  -6.8  34118  288.86 0855.15
2009/04/23 09:26:27.0      98   -326    -36    341    343 163.2  -6.1  34126  288.98 0855.15
2009/04/23 09:26:27.1      74   -311    -42    320    323 166.6  -7.6  34122  288.93 0855.15
2009/04/23 09:26:27.2     118   -302     49    325    329 158.6   8.7  34108  288.70 0855.15
2009/04/23 09:26:27.3     188   -269     20    329    330 145.0   3.5  34112  288.77 0855.15
2009/04/23 09:26:27.4     179   -208    -71    275    285 139.2 -14.5  34118  288.87 0855.15
2009/04/23 09:26:27.5     151   -236    -36    281    284 147.3  -7.5  34110  288.73 0855.15
2009/04/23 09:26:27.6     124   -275    -50    302    307 155.7  -9.5  34114  288.80 0855.15
2009/04/23 09:26:27.7     125   -298      2    324    325 157.2   0.5  34108  288.70 0855.15
2009/04/23 09:26:27.8     132   -278    -17    308    309 154.5  -3.3  34114  288.78 0855.15
2009/04/23 09:26:27.9     194   -327     88    381    392 149.4  13.1  34102  288.60 0855.15
2009/04/23 09:26:28.0     222   -326    116    395    412 145.8  16.4  34096  288.50 0855.15
2009/04/23 09:26:28.1     243   -235    121    339    359 134.0  20.4  34098  288.52 0855.15
2009/04/23 09:26:28.2     258   -159     48    304    308 121.6   9.0  34102  288.59 0855.15
2009/04/23 09:26:28.3     235   -176     37    294    297 126.9   7.2  34106  288.65 0855.15
2009/04/23 09:26:28.4     203   -224    -27    303    305 137.7  -5.1  34114  288.78 0855.15
2009/04/23 09:26:28.5     153   -229     22    276    277 146.2   4.6  34112  288.76 0855.15
2009/04/23 09:26:28.6     157   -195    -14    251    252 141.3  -3.3  34116  288.83 0855.15
2009/04/23 09:26:28.7     180   -212      8    279    280 139.7   1.7  34116  288.81 0855.15
2009/04/23 09:26:28.8     195   -260     54    326    331 143.1   9.5  34114  288.79 0855.15
2009/04/23 09:26:28.9     105   -206    121    232    261 153.0  29.8  34110  288.71 0855.15
2009/04/23 09:26:29.0     154   -282    197    322    377 151.3  34.3  34112  288.76 0855.15
2009/04/23 09:26:29.1     246   -175     93    303    318 125.5  17.1  34108  288.70 0855.15
2009/04/23 09:26:29.2     318   -147     22    351    352 114.8   3.6  34116  288.84 0855.15
2009/04/23 09:26:29.3     186   -185     91    263    279 134.9  19.2  34112  288.75 0855.15
2009/04/23 09:26:29.4     160   -220     42    273    277 143.9   8.8  34114  288.78 0855.15
2009/04/23 09:26:29.5     128   -159    -11    205    206 141.3  -3.2  34114  288.79 0855.15
2009/04/23 09:26:29.6      71   -199     69    212    224 160.4  18.1  34112  288.77 0855.15
2009/04/23 09:26:29.7      88   -271     -8    285    286 162.0  -1.8  34110  288.73 0855.15
2009/04/23 09:26:29.8      51   -220     63    226    235 166.9  15.8  34108  288.70 0855.15
2009/04/23 09:26:29.9     -21   -150     89    152    176 188.0  32.9  34108  288.70 0855.15
2009/04/23 09:26:30.0     179   -182     21    256    258 135.5   4.9  34112  288.75 0855.15
2009/04/23 09:26:30.1     162   -171     -1    236    237 136.6  -0.3  34108  288.70 0855.15
2009/04/23 09:26:30.2     181   -101     23    208    210 119.3   6.5  34108  288.70 0855.15
2009/04/23 09:26:30.3     163    -57      8    173    174 109.5   2.8  34112  288.75 0855.15
2009/04/23 09:26:30.4     143   -120     60    187    197 130.0  17.9  34106  288.65 0855.15
2009/04/23 09:26:30.5     176   -220    171    282    329 141.3  34.2  34096  288.49 0855.15
2009/04/23 09:26:30.6      36   -136    198    141    243 164.8  61.3  34094  288.47 0855.15
2009/04/23 09:26:30.7      37    -92    118    100    154 157.7  55.8  34106  288.65 0855.15
2009/04/23 09:26:30.8      38   -186    180    190    261 168.4  48.5  34106  288.66 0855.15
2009/04/23 09:26:30.9      -6   -210    165    211    267 181.8  42.2  34108  288.68 0855.15
2009/04/23 09:26:31.0     -39   -289    208    292    358 187.8  39.1  34110  288.72 0855.15
2009/04/23 09:26:31.1     -49   -359    172    363    401 187.9  27.2  34110  288.72 0855.15
2009/04/23 09:26:31.2     -50   -313    126    318    342 189.1  22.9  34116  288.81 0855.15
2009/04/23 09:26:31.3     -13   -271    185    272    328 182.9  37.4  34112  288.75 0855.15
2009/04/23 09:26:31.4      10   -235    173    236    292 177.5  39.7  34110  288.73 0855.15
2009/04/23 09:26:31.5      41   -110    173    118    209 159.5  62.6  34106  288.65 0855.15
2009/04/23 09:26:31.6     -25   -156    205    159    259 189.3  58.4  34102  288.60 0855.15
2009/04/23 09:26:31.7     -15   -173    220    174    280 185.1  57.7  34108  288.68 0855.15
2009/04/23 09:26:31.8     -20   -246    118    247    273 184.7  27.3  34104  288.63 0855.15
2009/04/23 09:26:31.9      59   -187     74    197    210 162.4  21.0  34110  288.74 0855.15
2009/04/23 09:26:32.0      54   -161     87    171    191 161.3  28.7  34112  288.77 0855.15
2009/04/23 09:26:32.1      34   -110     67    116    133 162.6  33.4  34114  288.80 0855.15
2009/04/23 09:26:32.2      49    -46     66     68     94 133.1  50.5  34112  288.77 0855.15
2009/04/23 09:26:32.3     116     17     71    118    137  81.6  33.5  34112  288.77 0855.15
2009/04/23 09:26:32.4      97     30     58    102    117  72.3  31.9  34110  288.72 0855.15
2009/04/23 09:26:32.5      72    -30     93     79    122 112.6  54.8  34114  288.79 0855.15
2009/04/23 09:26:32.6     147    -39     54    153    162 105.0  20.0  34112  288.77 0855.15
2009/04/23 09:26:32.7      69    -66    111     96    146 134.0  54.8  34114  288.80 0855.15
2009/04/23 09:26:32.8     107    -51     97    119    153 115.4  43.7  34118  288.86 0855.15
2009/04/23 09:26:32.9     108    -54     94    121    153 116.6  41.7  34114  288.80 0855.15
2009/04/23 09:26:33.0      11   -156    133    157    205 175.6  44.5  34112  288.75 0855.15
2009/04/23 09:26:33.1      47   -200    160    206    260 166.6  41.7  34114  288.78 0855.16
2009/04/23 09:26:33.2      18   -128    161    130    206 172.0  56.6  34116  288.82 0855.16
2009/04/23 09:26:33.3      32   -105    136    110    174 163.1  56.6  34112  288.75 0855.16
2009/04/23 09:26:33.4     118    -75    140    141    198 122.5  50.0  34114  288.79 0855.16
2009/04/23 09:26:33.5     173   -103    135    202    242 120.7  36.7  34112  288.77 0855.16
2009/04/23 09:26:33.6     248    -93    181    266    321 110.6  37.4  34116  288.81 0855.16
2009/04/23 09:26:33.7     270    -16     70    271    280  93.5  14.5  34110  288.73 0855.16
2009/04/23 09:26:33.8     132      0    131    133    186  90.0  49.8  34112  288.77 0855.16
2009/04/23 09:26:33.9      91     74     68    118    136  50.9  33.4  34110  288.72 0855.16
2009/04/23 09:26:34.0     108    101    -14    148    149  46.9  -5.6  34114  288.79 0855.16
2009/04/23 09:26:34.1      42     55     46     70     83  37.0  36.0  34112  288.75 0855.16
2009/04/23 09:26:34.2      19     15     50     25     55  50.5  71.9  34110  288.74 0855.16
2009/04/23 09:26:34.3     -45     34    -38     57     68 306.9 -40.0  34112  288.75 0855.16
2009/04/23 09:26:34.4    -148     71    -70    165    179 295.5 -28.5  34110  288.74 0855.16
2009/04/23 09:26:34.5     -45    145    -73    153    169 342.6 -31.7  34110  288.72 0855.16
2009/04/23 09:26:34.6     -30     89    -51     94    106 341.3 -35.7  34114  288.79 0855.16
2009/04/23 09:26:34.7     102    129    -79    165    182  38.3 -31.8  34114  288.80 0855.16
2009/04/23 09:26:34.8     -16     -7   -128     18    129 244.7 -90.0  34118  288.86 0855.16
2009/04/23 09:26:34.9     -20    -20   -106     29    109 225.1 -89.2  34116  288.82 0855.16
2009/04/23 09:26:35.0    -113      2    -19    114    116 271.3  -9.8  34118  288.87 0855.16
2009/04/23 09:26:35.1    -106     71    -23    128    131 303.7 -10.3  34124  288.96 0855.14
2009/04/23 09:26:35.2     -77     91    -17    120    122 319.9  -8.2  34120  288.91 0855.14
2009/04/23 09:26:35.3     -97     11     36     98    104 276.6  20.4  34120  288.91 0855.14
2009/04/23 09:26:35.4    -140     71     87    158    180 297.1  31.3  34116  288.82 0855.14
2009/04/23 09:26:35.5    -120    106    100    161    189 311.3  35.2  34114  288.80 0855.14
2009/04/23 09:26:35.6     -32     30     56     44     71 313.1  56.4  34116  288.82 0855.14
2009/04/23 09:26:35.7     -29     24     79     38     87 309.5  72.9  34120  288.89 0855.14
2009/04/23 09:26:35.8      59     42     28     73     78  54.0  21.0  34118  288.86 0855.14
2009/04/23 09:26:35.9      62    111    -15    128    129  29.0  -6.7  34114  288.80 0855.14
2009/04/23 09:26:36.0     100    111     -5    150    151  41.9  -2.2  34114  288.79 0855.14
2009/04/23 09:26:36.1      12    110    101    111    150   6.7  47.5  34112  288.77 0855.13
2009/04/23 09:26:36.2      60     81     34    102    108  36.5  18.4  34114  288.80 0855.13
2009/04/23 09:26:36.3      67    105     43    125    133  32.6  18.9  34112  288.75 0855.13
2009/04/23 09:26:36.4      78    136     71    158    173  29.9  25.7  34126  288.99 0855.13
2009/04/23 09:26:36.5      16    182    129    183    223   5.3  38.8  34120  288.91 0855.13
2009/04/23 09:26:36.6     -33    142    124    146    191 346.7  44.5  34128  289.02 0855.13
2009/04/23 09:26:36.7     -83     88     95    122    154 316.7  41.7  34124  288.96 0855.13
2009/04/23 09:26:36.8     -70     14     33     72     79 281.5  25.7  34122  288.92 0855.13
2009/04/23 09:26:36.9     -73    -52     12     90     91 234.5   8.0  34130  289.06 0855.13
2009/04/23 09:26:37.0    -107    -28    -14    111    112 255.4  -7.3  34150  289.40 0855.13
2009/04/23 09:26:37.1     -41    -70    -74     82    110 210.3 -51.3  34146  289.33 0855.13
2009/04/23 09:26:37.2      10    -31    -78     33     84 161.3 -81.0  34154  289.48 0855.13
2009/04/23 09:26:37.3       2      0    -47      3     47  90.0 -90.0  34162  289.60 0855.13
2009/04/23 09:26:37.4      73    100      6    125    126  36.1   2.9  34162  289.62 0855.13
2009/04/23 09:26:37.5     121    128     -3    177    178  43.2  -1.3  34188  290.06 0855.13
2009/04/23 09:26:37.7     151     85    -31    174    177  60.7 -10.3  34196  290.18 0855.13
2009/04/23 09:26:37.8     211    136    115    252    277  57.1  26.2  34232  290.78 0855.13
2009/04/23 09:26:37.9     166    268     24    316    318  31.7   4.5  34230  290.76 0855.13
2009/04/23 09:26:38.0     171    182    104    251    271  43.2  23.6  34244  291.00 0855.13
2009/04/23 09:26:38.1     180    130     43    223    228  54.1  11.0  34194  290.14 0855.13
2009/04/23 09:26:38.2      75    103    115    128    172  36.1  46.6  34226  290.70 0855.13
2009/04/23 09:26:38.3      16     95     56     97    112   9.8  32.4  34194  290.16 0855.13
2009/04/23 09:26:38.4    -129     71    -42    148    153 298.8 -20.7  34154  289.48 0855.13
2009/04/23 09:26:38.5     -41     42    -97     59    113 315.9 -69.1  34138  289.19 0855.13
2009/04/23 09:26:38.6      63     38   -117     74    138  58.5 -69.1  34126  289.01 0855.13
2009/04/23 09:26:38.7     210     42   -196    215    290  78.6 -51.4  34120  288.90 0855.13
2009/04/23 09:26:38.8     348     31   -121    350    370  84.8 -23.9  34092  288.42 0855.13
2009/04/23 09:26:38.9     477    161   -144    504    524  71.3 -20.8  34156  289.49 0855.13
2009/04/23 09:26:39.0     435    132   -154    455    481  73.1 -18.7  34142  289.25 0855.13
2009/04/23 09:26:39.1     402     42   -145    405    431  84.0 -19.7  34148  289.38 0855.13
2009/04/23 09:26:39.2     372    -16    -71    373    380  92.6 -10.9  34130  289.08 0855.13
2009/04/23 09:26:39.3     275     74   -127    285    312  74.9 -30.1  34156  289.51 0855.13
2009/04/23 09:26:39.4     304     60    -83    310    321  78.8 -15.0  34160  289.56 0855.13
2009/04/23 09:26:39.5     298     93    -93    313    326  72.7 -21.5  34174  289.81 0855.13
2009/04/23 09:26:39.6     214     95   -111    235    259  66.0 -31.5  34168  289.70 0855.13
2009/04/23 09:26:39.7     184    168    -69    250    260  47.7 -15.4  34160  289.58 0855.13
2009/04/23 09:26:39.8     175    100   -107    202    228  60.2 -34.5  34134  289.13 0855.13
2009/04/23 09:26:39.9     179     85    -58    199    207  64.5 -21.0  34136  289.16 0855.13
2009/04/23 09:26:40.0     246    142    -79    285    296  60.0 -15.5  34146  289.32 0855.13
2009/04/23 09:26:40.1     209    137    -51    251    257  56.7 -11.6  34148  289.36 0855.13
2009/04/23 09:26:40.2     180    114   -103    214    237  57.6 -31.7  34146  289.33 0855.15
2009/04/23 09:26:40.3     150    172    -72    229    240  41.0 -22.5  34152  289.44 0855.15
2009/04/23 09:26:40.4     127    159    -26    204    206  38.7  -7.3  34156  289.50 0855.15
2009/04/23 09:26:40.5     149    285   -111    322    340  27.6 -23.9  34158  289.55 0855.15
2009/04/23 09:26:40.6      78    270    -89    282    295  16.1 -22.5  34166  289.66 0855.15
2009/04/23 09:26:40.7      87    312   -167    324    364  15.6 -33.7  34154  289.48 0855.15
2009/04/23 09:26:40.8      19    154    -74    156    172   7.1 -31.6  34154  289.46 0855.15
2009/04/23 09:26:40.9      91     93    -23    131    134  44.5 -10.3  34156  289.50 0855.15
2009/04/23 09:26:41.0     103    118    -51    157    166  41.2 -18.1  34156  289.50 0855.15
2009/04/23 09:26:41.1      27    142    -86    145    168  11.1 -37.9  34152  289.43 0855.15
2009/04/23 09:26:41.2     115    115    -78    163    180  45.0 -31.7  34144  289.30 0855.15
2009/04/23 09:26:41.3     254     90   -132    270    300  70.3 -32.4  34148  289.36 0855.15
2009/04/23 09:26:41.4     177    173    -82    248    261  45.6 -23.8  34148  289.37 0855.15
2009/04/23 09:26:41.5      54    224   -164    231    283  13.6 -43.0  34142  289.27 0855.15
2009/04/23 09:26:41.6     -13     70   -149     72    165 349.3 -76.8  34150  289.40 0855.15
2009/04/23 09:26:41.7      40    101   -184    109    213  21.8 -71.1  34148  289.38 0855.15
2009/04/23 09:26:41.8     138    119   -136    183    228  49.1 -44.5  34146  289.35 0855.15
2009/04/23 09:26:41.9      92     92   -136    131    188  45.2 -55.6  34152  289.45 0855.15
2009/04/23 09:26:42.0      74     79    -95    109    144  43.2 -50.2  34152  289.43 0855.15
2009/04/23 09:26:42.1     160      0   -123    161    202  90.0 -45.8  34148  289.38 0855.15
2009/04/23 09:26:42.2     114     23   -154    117    193  78.6 -63.6  34156  289.50 0855.16
2009/04/23 09:26:42.3     130     47    -85    139    162  70.0 -39.2  34144  289.30 0855.16
2009/04/23 09:26:42.4     157    103    -35    189    193  56.7 -10.5  34142  289.28 0855.16
2009/04/23 09:26:42.5     128    138      0    189    190  43.0   0.0  34136  289.16 0855.16
2009/04/23 09:26:42.6     117    111     57    162    172  46.4  19.6  34128  289.04 0855.16
2009/04/23 09:26:42.7     130     65     -6    146    147  63.4  -2.6  34134  289.13 0855.16
2009/04/23 09:26:42.8     116     38    -29    123    127  71.8 -13.4  34138  289.19 0855.16
2009/04/23 09:26:42.9     140     66     -6    155    156  64.6  -2.2  34132  289.11 0855.16
2009/04/23 09:26:43.0     174      4    -24    175    177  88.5  -8.0  34132  289.09 0855.16
2009/04/23 09:26:43.1     148     11    -53    149    159  85.6 -19.7  34130  289.08 0855.16
2009/04/23 09:26:43.2     137    108    -57    175    184  51.8 -23.6  34132  289.09 0855.16
2009/04/23 09:26:43.3     173     92    -39    197    201  62.0 -11.3  34128  289.02 0855.16
2009/04/23 09:26:43.4     172     50     17    180    181  73.6   5.4  34128  289.04 0855.16
2009/04/23 09:26:43.5     230    -17     45    231    236  94.3  11.1  34130  289.05 0855.16
2009/04/23 09:26:43.6     176    -40     88    181    201 103.0  27.8  34130  289.08 0855.16
2009/04/23 09:26:43.7     140    -28    131    143    193 101.5  47.7  34128  289.04 0855.16
2009/04/23 09:26:43.8      67    -81    142    106    177 140.3  59.8  34132  289.11 0855.16
2009/04/23 09:26:43.9      96    -77    116    124    169 128.6  47.9  34134  289.14 0855.16
2009/04/23 09:26:44.0      16    -18    104     25    106 138.6  86.4  34134  289.14 0855.16
2009/04/23 09:26:44.1      76    -73    108    106    151 134.0  50.1  34134  289.13 0855.16
2009/04/23 09:26:44.2     137   -140    158    197    252 135.7  42.8  34130  289.07 0855.18
2009/04/23 09:26:44.3      67    -77    140    103    173 139.0  60.3  34130  289.08 0855.18
2009/04/23 09:26:44.4      18    -49    109     53    121 160.0  72.4  34132  289.09 0855.18
2009/04/23 09:26:44.5      13    -42    115     45    123 162.2  77.6  34132  289.11 0855.18
2009/04/23 09:26:44.6      15    -47    143     50    151 161.7  81.2  34130  289.08 0855.18
2009/04/23 09:26:44.7     -13   -125    203    126    238 186.2  65.4  34130  289.08 0855.18
2009/04/23 09:26:44.8      11   -187    230    188    297 176.6  56.4  34128  289.03 0855.18
2009/04/23 09:26:44.9      16   -147    269    148    307 173.7  68.9  34132  289.09 0855.18
2009/04/23 09:26:45.0    -112   -160    257    196    323 215.0  58.9  34138  289.19 0855.18
2009/04/23 09:26:45.1    -118   -353    214    373    430 198.6  32.4  34146  289.34 0855.18
2009/04/23 09:26:45.2    -175   -342    138    385    408 207.2  20.4  34146  289.35 0855.18
2009/04/23 09:26:45.3     -98   -358     76    372    380 195.4  11.6  34146  289.32 0855.18
2009/04/23 09:26:45.4    -170   -367     62    405    410 204.8   8.8  34138  289.21 0855.18
2009/04/23 09:26:45.5    -145   -317     19    349    350 204.6   3.2  34140  289.23 0855.18
2009/04/23 09:26:45.6    -175   -425     76    460    467 202.5   9.4  34140  289.23 0855.18
2009/04/23 09:26:45.7    -207   -354      0    411    412 210.3   0.1  34156  289.49 0855.18
2009/04/23 09:26:45.8     -71   -363     21    371    372 191.1   3.2  34126  288.98 0855.18
2009/04/23 09:26:45.9    -133   -388     26    411    412 199.0   3.6  34120  288.89 0855.18
2009/04/23 09:26:46.0    -175   -370     25    410    411 205.3   3.6  34142  289.27 0855.18
2009/04/23 09:26:46.1    -185   -334    -14    382    383 209.0  -2.2  34144  289.30 0855.18
2009/04/23 09:26:46.2    -166   -323     -1    364    365 207.3  -0.2  34114  288.79 0855.19
2009/04/23 09:26:46.3     -61   -394      7    399    400 188.9   1.1  34114  288.79 0855.19
2009/04/23 09:26:46.4     -50   -308     39    313    316 189.3   7.1  34112  288.76 0855.19
2009/04/23 09:26:46.5     -29   -235     82    237    251 187.2  19.2  34118  288.85 0855.19
2009/04/23 09:26:46.6     -56   -237     37    244    247 193.4   8.8  34116  288.83 0855.19
2009/04/23 09:26:46.7     -22   -295     69    296    305 184.4  13.2  34112  288.75 0855.19
2009/04/23 09:26:46.8       4   -334    100    335    350 179.2  16.6  34114  288.79 0855.19
2009/04/23 09:26:46.9     -15   -311    102    312    329 182.9  18.1  34110  288.71 0855.19
2009/04/23 09:26:47.0     -13   -286    -22    287    288 182.7  -4.6  34110  288.71 0855.19
2009/04/23 09:26:47.1      48   -182    -67    189    200 165.1 -24.6  34114  288.80 0855.19
2009/04/23 09:26:47.2      56    -82     -7    100    101 145.3  -4.1  34114  288.80 0855.19
2009/04/23 09:26:47.3      26    -98     -5    102    103 164.9  -3.1  34112  288.77 0855.19
2009/04/23 09:26:47.4     -50   -151      6    160    161 198.3   2.3  34112  288.75 0855.19
2009/04/23 09:26:47.5     -63   -125     70    141    157 206.7  28.2  34108  288.70 0855.19
2009/04/23 09:26:47.6     -14   -145    178    146    230 185.8  56.4  34106  288.67 0855.19
2009/04/23 09:26:47.7      17   -172    270    173    320 174.2  64.6  34108  288.70 0855.19
2009/04/23 09:26:47.8      27   -141    319    144    349 168.9  74.1  34114  288.78 0855.19
2009/04/23 09:26:47.9    -136    -10    167    137    216 265.7  56.4  34108  288.70 0855.19
2009/04/23 09:26:48.0    -172      7     75    173    188 272.6  24.9  34120  288.89 0855.19
2009/04/23 09:26:48.1    -180     21      1    182    183 276.8   0.5  34120  288.89 0855.19
2009/04/23 09:26:48.2    -177     88    -31    198    201 296.4  -9.0  34120  288.91 0855.20
2009/04/23 09:26:48.3     -69     61    -31     93     99 311.8 -18.7  34120  288.89 0855.20
2009/04/23 09:26:48.4      47     22    -14     53     56  64.8 -15.5  34114  288.79 0855.20
2009/04/23 09:26:48.5      64     74     27     99    103  41.0  15.3  34124  288.96 0855.20
2009/04/23 09:26:48.6      17    138     98    140    170   7.1  38.6  34118  288.86 0855.20
2009/04/23 09:26:48.7     177     53    147    185    236  73.2  42.7  34114  288.79 0855.20
2009/04/23 09:26:48.8     208     42    104    213    237  78.5  28.0  34120  288.89 0855.20
2009/04/23 09:26:48.9     106    120     63    161    172  41.5  22.3  34118  288.86 0855.20
2009/04/23 09:26:49.0     -35     74    101     83    130 334.6  56.4  34120  288.89 0855.20
2009/04/23 09:26:49.1     -17     64     98     67    118 344.9  62.6  34122  288.94 0855.20
2009/04/23 09:26:49.2      17     29    107     34    112  30.7  81.2  34126  288.99 0855.20
2009/04/23 09:26:49.3      66     39     88     77    116  59.3  54.3  34128  289.04 0855.20
2009/04/23 09:26:49.4      88     15     98     90    133  80.3  52.2  34128  289.02 0855.20
2009/04/23 09:26:49.5      60    -49     44     78     89 129.6  32.4  34126  288.99 0855.20
2009/04/23 09:26:49.6     -12    -98     13     99    100 187.1   8.0  34128  289.04 0855.20
2009/04/23 09:26:49.7      -4    -28     43     29     51 188.0  62.6  34132  289.09 0855.20
2009/04/23 09:26:49.8     -14     42     58     45     73 341.3  57.5  34132  289.11 0855.20
2009/04/23 09:26:49.9      43     41     49     60     77  45.9  43.7  34126  289.01 0855.20
2009/04/23 09:26:50.0      55     64     97     85    128  41.0  54.3  34124  288.96 0855.20
2009/04/23 09:26:50.1      83     68    117    108    159  50.4  52.5  34130  289.08 0855.20
2009/04/23 09:26:50.2      96     23     88     99    132  76.3  45.9  34132  289.09 0855.19
2009/04/23 09:26:50.3      76     69     97    103    141  47.8  48.0  34130  289.08 0855.19
2009/04/23 09:26:50.4     113     23     61    116    131  78.6  29.3  34130  289.08 0855.19
2009/04/23 09:26:50.5     119      3     93    120    151  88.3  41.7  34132  289.11 0855.19
2009/04/23 09:26:50.6     129     18    106    131    168  82.1  43.3  34132  289.09 0855.19
2009/04/23 09:26:50.7     195    -14    -70    196    208  94.4 -24.8  34132  289.09 0855.19
2009/04/23 09:26:50.8     193    100    -91    218    236  62.5 -28.5  34160  289.58 0855.19
2009/04/23 09:26:50.9     123    241     -1    271    272  27.0  -0.3  34188  290.03 0855.19
2009/04/23 09:26:51.0      58    256     28    263    265  12.9   6.1  34166  289.68 0855.19
2009/04/23 09:26:51.1      62     80     90    102    136  37.8  45.9  34172  289.77 0855.19
2009/04/23 09:26:51.2      32      6     99     33    104  78.6  81.0  34170  289.75 0855.19
2009/04/23 09:26:51.3      31     49    128     59    140  32.5  73.5  34176  289.84 0855.19
2009/04/23 09:26:51.4      44     44    102     63    119  45.1  65.7  34186  290.02 0855.19
2009/04/23 09:26:51.5     123    148     41    193    198  39.6  12.2  34158  289.53 0855.19
2009/04/23 09:26:51.6     105     81    136    133    190  52.3  50.4  34170  289.75 0855.19
2009/04/23 09:26:51.7     154     -4      7    155    156  91.7   2.8  34168  289.70 0855.19
2009/04/23 09:26:51.8     150     78      0    170    171  62.5  -0.3  34180  289.92 0855.19
2009/04/23 09:26:51.9     228     17    124    229    260  85.6  30.8  34200  290.26 0855.19
2009/04/23 09:26:52.0     214    100     93    237    254  64.9  22.8  34226  290.70 0855.19
2009/04/23 09:26:52.1     207    145    108    253    275  55.0  24.6  34214  290.48 0855.19
2009/04/23 09:26:52.2     143     77    160    163    228  61.6  49.8  34198  290.21 0855.19
2009/04/23 09:26:52.3      76     92    146    120    188  39.7  56.4  34200  290.25 0855.19
2009/04/23 09:26:52.4     108     49    113    119    164  65.2  49.0  34210  290.41 0855.19
2009/04/23 09:26:52.5     142     67    143    158    213  64.6  46.9  34196  290.19 0855.19
2009/04/23 09:26:52.6      83     56     92    101    136  55.8  47.5  34234  290.82 0855.19
2009/04/23 09:26:52.7      24     74     81     78    112  18.3  51.2  34234  290.84 0855.19
2009/04/23 09:26:52.8      -1     73     79     74    108 359.0  52.1  34214  290.50 0855.19
2009/04/23 09:26:52.9      44     61     29     76     81  36.1  21.5  34212  290.47 0855.19
2009/04/23 09:26:53.0       0     62     57     63     84 359.1  47.5  34206  290.35 0855.19
2009/04/23 09:26:53.1     -43     58     73     73    103 323.9  50.1  34208  290.40 0855.19
2009/04/23 09:26:53.2     -87     55    -10    104    105 302.5  -5.6  34196  290.18 0855.19
2009/04/23 09:26:53.3     -41     21    -28     47     54 297.1 -38.8  34192  290.11 0855.19
2009/04/23 09:26:53.4     -27      0     -1     28     29 270.0  -2.2  34184  289.99 0855.19
2009/04/23 09:26:53.5      32      2      5     33     34  85.6   9.0  34182  289.96 0855.19
2009/04/23 09:26:53.6      70      4      3     71     72  86.5   2.9  34188  290.04 0855.19
2009/04/23 09:26:53.7      71    -40     49     82     95 119.8  34.4  34188  290.06 0855.19
2009/04/23 09:26:53.8      55    -72     80     91    121 142.6  45.8  34182  289.94 0855.19
2009/04/23 09:26:53.9      28   -120     89    124    152 166.6  39.5  34152  289.43 0855.19
2009/04/23 09:26:54.0     -39   -122     42    129    136 197.8  18.4  34162  289.60 0855.19
2009/04/23 09:26:54.1     -86    -92     -7    127    128 223.2  -3.1  34182  289.96 0855.19
2009/04/23 09:26:54.2     -98    -23    -22    101    104 256.7 -12.4  34172  289.79 0855.18
2009/04/23 09:26:54.4     -60    -89    -30    108    113 214.3 -15.5  34168  289.72 0855.18
2009/04/23 09:26:54.4     -98   -111    -44    149    156 221.4 -16.6  34170  289.75 0855.18
2009/04/23 09:26:54.5    -135    -55    -72    146    162 247.8 -32.6  34114  288.80 0855.18
2009/04/23 09:26:54.6    -141    -61   -138    154    206 246.5 -50.8  34074  288.11 0855.18
2009/04/23 09:26:54.7     -55    -35    -95     66    115 237.6 -66.5  34088  288.36 0855.18
2009/04/23 09:26:54.8     -94     10     17     95     97 276.6  10.6  34100  288.55 0855.18
2009/04/23 09:26:54.9    -166      8     36    167    172 273.0  12.4  34104  288.64 0855.18
2009/04/23 09:26:55.0     -78    -36     52     87    101 245.2  33.5  34100  288.57 0855.18
2009/04/23 09:26:55.1     -91    -58     66    109    127 237.5  34.0  34104  288.64 0855.18
2009/04/23 09:26:55.2     -48   -102     85    114    142 205.4  40.1  34106  288.65 0855.18
2009/04/23 09:26:55.3     -68   -133     97    150    178 207.2  35.7  34108  288.70 0855.18
2009/04/23 09:26:55.4     -66   -166    129    179    220 201.8  39.5  34114  288.80 0855.18
2009/04/23 09:26:55.5    -104   -155     77    187    202 213.8  23.6  34120  288.91 0855.18
2009/04/23 09:26:55.6     -77   -120     48    143    151 212.6  18.6  34120  288.91 0855.18
2009/04/23 09:26:55.7    -107   -114     35    157    161 223.3  12.6  34122  288.94 0855.18
2009/04/23 09:26:55.8    -122    -91     11    153    154 233.1   4.4  34122  288.92 0855.18
2009/04/23 09:26:55.9    -116    -97     75    152    169 230.0  28.0  34118  288.86 0855.18
2009/04/23 09:26:56.0    -129    -44    147    137    200 250.9  52.2  34118  288.86 0855.18
2009/04/23 09:26:56.1    -205     33     96    208    229 279.2  27.0  34120  288.91 0855.18
2009/04/23 09:26:56.2    -176     -1     96    177    201 269.6  30.8  34120  288.89 0855.18
2009/04/23 09:26:56.3    -183    -54     69    192    204 253.4  20.4  34128  289.04 0855.18
2009/04/23 09:26:56.4    -192     21     22    194    196 276.4   6.5  34172  289.77 0855.18
2009/04/23 09:26:56.5    -236     17     20    237    238 274.3   4.9  34162  289.59 0855.18
2009/04/23 09:26:56.6    -217    -48     62    223    232 257.4  15.6  34148  289.36 0855.18
2009/04/23 09:26:56.7    -236    -52     16    242    243 257.4   3.9  34144  289.31 0855.18
2009/04/23 09:26:56.8    -227    -17     -8    228    229 265.7  -2.1  34162  289.62 0855.18
2009/04/23 09:26:56.9    -161     20    -42    163    169 277.2 -14.5  34136  289.18 0855.18
2009/04/23 09:26:57.0     -39     32    -18     51     55 309.5 -19.7  34118  288.87 0855.18
2009/04/23 09:26:57.1      24    -36     31     44     53 145.7  38.6  34124  288.97 0855.18
2009/04/23 09:26:57.2      15   -111     23    113    116 172.0  11.6  34110  288.72 0855.18
2009/04/23 09:26:57.3      65   -105    -15    124    125 147.9  -7.2  34134  289.13 0855.18
2009/04/23 09:26:57.4      18   -111    -33    113    118 170.7 -16.6  34114  288.79 0855.18
2009/04/23 09:26:57.5     -13   -101    -10    102    103 187.6  -5.6  34100  288.57 0855.18
2009/04/23 09:26:57.6     -38    -80     -3     89     90 205.9  -2.2  34098  288.52 0855.18
2009/04/23 09:26:57.7     -45    -71     14     85     87 212.5   9.5  34096  288.50 0855.18
2009/04/23 09:26:57.8     -92    -22    -28     95    100 256.3 -16.6  34106  288.67 0855.18
2009/04/23 09:26:57.9    -220    -25    -73    222    234 263.4 -18.3  34130  289.08 0855.18
2009/04/23 09:26:58.0    -214    -77    -76    228    241 250.1 -18.6  34110  288.71 0855.18
2009/04/23 09:26:58.1    -141   -160    -27    214    216 221.4  -7.3  34108  288.69 0855.18
2009/04/23 09:26:58.2    -101   -175     33    203    206 209.9   9.5  34106  288.67 0855.18
2009/04/23 09:26:58.3    -144   -151     81    209    224 223.7  22.3  34108  288.69 0855.18
2009/04/23 09:26:58.4     -92   -147     82    174    192 212.3  27.1  34112  288.77 0855.18
2009/04/23 09:26:58.5     -81   -162     92    182    203 206.7  29.2  34110  288.72 0855.18
2009/04/23 09:26:58.6     -95   -239    152    258    299 201.8  33.4  34110  288.71 0855.18
2009/04/23 09:26:58.7    -120   -212    102    244    264 209.6  24.1  34108  288.70 0855.18
2009/04/23 09:26:58.8     -84   -208    108    225    249 202.1  27.3  34108  288.70 0855.18
2009/04/23 09:26:58.9     -43   -149    138    156    208 196.0  46.2  34106  288.67 0855.18
2009/04/23 09:26:59.0     -45   -138    152    146    210 198.3  51.2  34110  288.72 0855.18
2009/04/23 09:26:59.1     -17   -159    197    160    253 186.2  56.6  34108  288.70 0855.18
2009/04/23 09:26:59.2     -52   -131    163    142    216 201.8  54.3  34106  288.67 0855.17
2009/04/23 09:26:59.3     -15   -131    132    132    186 186.7  50.1  34110  288.74 0855.17
2009/04/23 09:26:59.4     -24   -144    148    147    208 189.8  50.1  34108  288.69 0855.17
2009/04/23 09:26:59.5      -7   -131    125    132    181 183.1  48.2  34104  288.62 0855.17
2009/04/23 09:26:59.6      16   -107    121    109    162 171.5  53.3  34104  288.64 0855.17
2009/04/23 09:26:59.7       0    -27    104     28    107 179.1  84.9  34110  288.74 0855.17
2009/04/23 09:26:59.8      22      3     92     23     94  80.3  86.4  34112  288.75 0855.17
2009/04/23 09:26:59.9     120   -138     65    183    194 139.0  20.0  34106  288.65 0855.17
2009/04/23 09:27:00.0     117    -85      2    145    146 126.0   0.8  34102  288.58 0855.17
2009/04/23 09:27:00.1     178   -139    -37    226    230 128.0  -9.3  34110  288.72 0855.17
2009/04/23 09:27:00.2     112   -163     40    199    203 145.5  11.4  34110  288.72 0855.17
2009/04/23 09:27:00.3      83   -116     57    143    153 144.4  23.0  34112  288.75 0855.17
2009/04/23 09:27:00.4      73   -101     56    125    136 144.0  25.7  34116  288.84 0855.17
2009/04/23 09:27:00.5      72    -87     44    114    122 140.3  22.0  34114  288.80 0855.17
2009/04/23 09:27:00.6      78    -74     54    108    120 133.6  28.7  34110  288.74 0855.17
2009/04/23 09:27:00.7      48    -45     81     66    104 133.1  56.4  34112  288.75 0855.17
2009/04/23 09:27:00.8      35    -35     40     50     64 135.0  43.7  34112  288.75 0855.17
2009/04/23 09:27:00.9      28    -35     42     46     62 141.3  47.9  34110  288.72 0855.17
2009/04/23 09:27:01.0      50    -44     15     67     69 131.3  13.2  34104  288.64 0855.17
2009/04/23 09:27:01.1      56    -47     33     74     81 130.4  25.7  34098  288.52 0855.17
2009/04/23 09:27:01.2      51    -32     21     61     65 122.4  19.2  34098  288.53 0855.16
2009/04/23 09:27:01.3      -7    -23     32     25     40 198.5  58.5  34098  288.53 0855.16
2009/04/23 09:27:01.4     -36    -38     50     53     72 223.2  48.0  34100  288.55 0855.16
2009/04/23 09:27:01.5     -31    -99     51    104    115 197.8  27.3  34098  288.53 0855.16
2009/04/23 09:27:01.6     -19   -101     28    103    107 191.1  15.3  34100  288.55 0855.16
2009/04/23 09:27:01.7     -14    -82     38     84     92 190.2  26.2  34098  288.52 0855.16
2009/04/23 09:27:01.8      63    -76      0     99    100 140.4   0.2  34092  288.43 0855.16
2009/04/23 09:27:01.9      50   -106     37    118    124 154.5  17.4  34090  288.38 0855.16
2009/04/23 09:27:02.0      54    -94     21    109    112 149.7  11.0  34090  288.40 0855.16
2009/04/23 09:27:02.1      70    -69     11     99    100 134.6   6.5  34090  288.38 0855.16
2009/04/23 09:27:02.2      69    -67      4     97     98 134.0   2.9  34092  288.43 0855.16
2009/04/23 09:27:02.3      87    -39     20     96     99 114.4  12.2  34094  288.47 0855.16
2009/04/23 09:27:02.4     123    -23     30    126    130 100.6  13.7  34096  288.48 0855.16
2009/04/23 09:27:02.5     124    -37     44    130    138 106.9  18.9  34096  288.48 0855.16
2009/04/23 09:27:02.6     112    -66     57    131    142 120.7  25.1  34090  288.38 0855.16
2009/04/23 09:27:02.7     115    -44     62    124    138 110.8  28.7  34092  288.43 0855.16
2009/04/23 09:27:02.8     125    -37     87    131    157 106.8  36.7  34094  288.45 0855.16
2009/04/23 09:27:02.9     134    -27    106    137    173 101.5  41.7  34094  288.45 0855.16
2009/04/23 09:27:03.0     114    -66    103    132    167 120.2  42.2  34094  288.47 0855.16
2009/04/23 09:27:03.1     146    -48    126    154    198 108.4  43.7  34096  288.50 0855.16
2009/04/23 09:27:03.2      29   -104    110    109    154 164.4  49.7  34096  288.50 0855.16
2009/04/23 09:27:03.3      66    -75    105    101    145 138.6  51.2  34096  288.50 0855.16
2009/04/23 09:27:03.4      23    -97     77    100    126 166.2  41.6  34096  288.50 0855.16
2009/04/23 09:27:03.5      18   -165    113    167    201 173.5  37.4  34096  288.50 0855.16
2009/04/23 09:27:03.6      32    -83    100     90    134 158.6  53.3  34094  288.47 0855.16
2009/04/23 09:27:03.7      55   -137    129    148    196 158.1  45.8  34096  288.50 0855.16
2009/04/23 09:27:03.8     101   -179     97    206    227 150.4  27.1  34094  288.45 0855.16
2009/04/23 09:27:03.9     143   -252     90    290    304 150.4  17.4  34096  288.49 0855.16
2009/04/23 09:27:04.1     137   -221     91    261    277 148.1  19.2  34094  288.44 0855.16
2009/04/23 09:27:04.2     120   -180    101    217    239 146.4  26.6  34096  288.50 0855.16
2009/04/23 09:27:04.3     105   -155     94    188    210 145.7  28.5  34096  288.48 0855.16
2009/04/23 09:27:04.4     119   -142    102    186    212 140.1  31.4  34094  288.47 0855.16
2009/04/23 09:27:04.5     192   -186    115    268    291 134.0  24.9  34092  288.41 0855.16
2009/04/23 09:27:04.6     202   -119    129    235    268 120.6  31.3  34098  288.51 0855.16
2009/04/23 09:27:04.7     193   -120    119    228    257 121.8  29.8  34096  288.49 0855.16
2009/04/23 09:27:04.8     207    -72    115    220    248 109.3  29.8  34096  288.49 0855.16
2009/04/23 09:27:04.9     300     24    136    301    330  85.4  26.0  34096  288.49 0855.16
2009/04/23 09:27:05.0     298     73    112    307    326  76.1  20.7  34096  288.49 0855.16
2009/04/23 09:27:05.1     249     42    144    253    291  80.3  32.4  34098  288.53 0855.16
2009/04/23 09:27:05.2     277     60    130    284    312  77.6  26.4  34100  288.56 0855.16
2009/04/23 09:27:05.3     218     55    156    225    273  75.8  38.0  34100  288.54 0855.16
2009/04/23 09:27:05.4     270     67    102    279    297  76.1  21.0  34098  288.53 0855.16
2009/04/23 09:27:05.5     303     54     48    308    312  79.9   8.9  34096  288.49 0855.16
2009/04/23 09:27:05.6     247     -1     97    248    266  90.4  22.5  34100  288.54 0855.16
2009/04/23 09:27:05.7     120   -147    162    190    249 140.8  44.8  34094  288.45 0855.16
2009/04/23 09:27:05.8     151    -73    192    168    255 115.8  54.3  34098  288.53 0855.16
2009/04/23 09:27:05.9     153    -97     85    182    200 122.4  27.0  34104  288.64 0855.16
2009/04/23 09:27:06.0     117    -92    117    150    190 128.2  42.2  34120  288.89 0855.16
2009/04/23 09:27:06.1     200     16    202    201    284  85.2  50.1  34142  289.25 0855.16
2009/04/23 09:27:06.2     244     29    135    246    280  83.0  31.3  34122  288.92 0855.16
2009/04/23 09:27:06.3     220     64    135    230    266  73.8  33.1  34120  288.90 0855.16
2009/04/23 09:27:06.4     252     66     92    261    277  75.2  19.4  34114  288.80 0855.16
2009/04/23 09:27:06.5     231     34     92    234    251  81.4  22.5  34132  289.09 0855.16
2009/04/23 09:27:06.6     295     38    167    298    341  82.5  31.7  34132  289.10 0855.16
2009/04/23 09:27:06.7     222     74    215    235    318  71.4  47.3  34152  289.42 0855.16
2009/04/23 09:27:06.8     276     91    164    291    334  71.6  31.7  34104  288.61 0855.16
2009/04/23 09:27:06.9     256    111    238    280    367  66.5  44.7  34114  288.79 0855.16
2009/04/23 09:27:07.0     193     91    217    214    304  64.8  50.2  34106  288.65 0855.16
2009/04/23 09:27:07.1     195     77    186    210    280  68.5  45.9  34108  288.68 0855.16
2009/04/23 09:27:07.2     219    116    143    249    287  62.0  32.4  34120  288.88 0855.16
2009/04/23 09:27:07.3     263     63    190    271    330  76.5  38.4  34130  289.07 0855.15
2009/04/23 09:27:07.4     268     52    183    274    329  79.0  36.7  34152  289.42 0855.15
2009/04/23 09:27:07.5     233      7    175    234    292  88.1  40.6  34178  289.86 0855.15
2009/04/23 09:27:07.6     291    -49    113    296    316  99.7  21.8  34132  289.10 0855.15
2009/04/23 09:27:07.7     241    -76     83    253    267 107.7  18.1  34134  289.12 0855.15
2009/04/23 09:27:07.8     137    -78     83    158    178 119.8  30.1  34140  289.24 0855.15
2009/04/23 09:27:07.9      87    -60     96    106    143 124.6  47.9  34138  289.19 0855.15
2009/04/23 09:27:08.0     153      3    106    154    186  88.7  37.8  34174  289.82 0855.15
2009/04/23 09:27:08.1     153    -13    134    154    204  95.2  45.8  34162  289.60 0855.15
2009/04/23 09:27:08.2      51    -64    122     83    147 141.3  62.7  34138  289.19 0855.15
2009/04/23 09:27:08.3      58    -67    108     89    139 139.0  56.4  34134  289.13 0855.15
2009/04/23 09:27:08.4     134    -31    116    138    180 103.2  44.3  34140  289.23 0855.15
2009/04/23 09:27:08.5     151      2    121    152    194  89.1  42.7  34108  288.70 0855.15
2009/04/23 09:27:08.6      36   -111     98    117    152 161.7  43.8  34114  288.80 0855.15
2009/04/23 09:27:08.7      61    -63     44     88     98 135.9  28.2  34104  288.62 0855.15
2009/04/23 09:27:08.8       0    -57     34     58     67 180.9  33.5  34100  288.57 0855.15
2009/04/23 09:27:08.9      23    -49     39     55     67 154.5  39.5  34100  288.55 0855.15
2009/04/23 09:27:09.0      70    -86     53    112    123 140.8  27.1  34098  288.52 0855.15
2009/04/23 09:27:09.1      61   -100     79    118    142 148.8  37.0  34104  288.62 0855.15
2009/04/23 09:27:09.2      68    -87     87    111    141 142.2  42.2  34100  288.55 0855.15
2009/04/23 09:27:09.3      86    -71    123    112    166 129.6  53.0  34100  288.55 0855.17
2009/04/23 09:27:09.4     -14   -130     97    131    163 186.2  40.1  34098  288.52 0855.17
2009/04/23 09:27:09.5      37   -182     63    186    197 168.4  18.9  34094  288.47 0855.17
2009/04/23 09:27:09.6      13   -128     85    129    154 174.2  35.6  34100  288.55 0855.17
2009/04/23 09:27:09.7      37    -99     37    106    113 159.5  19.2  34098  288.53 0855.17
2009/04/23 09:27:09.8      -1   -116     65    117    133 180.5  31.4  34098  288.53 0855.17
2009/04/23 09:27:09.9     -21   -124    101    126    161 189.8  43.0  34100  288.57 0855.17
2009/04/23 09:27:10.0     -15   -110     10    112    113 188.1   5.4  34098  288.52 0855.17
2009/04/23 09:27:10.1      -8   -109     31    110    115 184.5  15.8  34098  288.53 0855.17
2009/04/23 09:27:10.2       8    -92     22     93     96 174.7  13.7  34098  288.53 0855.17
2009/04/23 09:27:10.3      29    -93     27     98    102 162.2  15.8  34098  288.52 0855.17
2009/04/23 09:27:10.4      12   -105     39    106    112 173.3  20.4  34098  288.53 0855.17
2009/04/23 09:27:10.5      19   -124     60    126    139 171.1  27.3  34098  288.52 0855.17
2009/04/23 09:27:10.6       9   -140     49    141    150 176.0  19.4  34100  288.55 0855.17
2009/04/23 09:27:10.7     -22   -112     31    115    120 191.1  15.3  34100  288.55 0855.17
2009/04/23 09:27:10.8     -37   -100     78    107    132 200.5  39.7  34100  288.55 0855.17
2009/04/23 09:27:10.9     -27   -100    103    104    146 195.6  50.0  34100  288.57 0855.17
2009/04/23 09:27:11.0     -52   -131    143    142    201 201.8  50.1  34102  288.58 0855.17
2009/04/23 09:27:11.1     -71   -160    141    176    225 204.1  43.3  34100  288.55 0855.17
2009/04/23 09:27:11.2     -19   -137    168    139    218 188.0  56.4  34098  288.53 0855.17
2009/04/23 09:27:11.3     -85   -152     87    175    195 209.4  28.5  34100  288.55 0855.17
2009/04/23 09:27:11.4     -42   -162    146    168    222 194.5  45.8  34100  288.55 0855.17
2009/04/23 09:27:11.5    -131   -115    168    175    242 228.9  49.0  34106  288.67 0855.17
2009/04/23 09:27:11.6     -79   -100    181    128    221 218.3  61.3  34102  288.58 0855.17
2009/04/23 09:27:11.7     -15    -26    171     31    173 210.7  90.0  34106  288.65 0855.17
2009/04/23 09:27:11.8      20     12    157     24    158  57.6  90.0  34112  288.77 0855.17
2009/04/23 09:27:11.9      21    -25    105     33    110 140.4  81.2  34108  288.70 0855.17
2009/04/23 09:27:12.0    -128    -97     91    161    184 232.7  32.1  34112  288.77 0855.17
2009/04/23 09:27:12.1    -165    -47     73    172    186 254.1  24.3  34120  288.91 0855.17
2009/04/23 09:27:12.2     -88     17     64     90    110 281.5  39.5  34124  288.96 0855.17
2009/04/23 09:27:12.3     -26    -14     54     30     61 241.1  68.8  34112  288.75 0855.17
2009/04/23 09:27:12.4     -37    -74    113     83    140 206.7  60.5  34104  288.62 0855.17
2009/04/23 09:27:12.5      33      7     87     34     93  76.7  78.2  34110  288.74 0855.17
2009/04/23 09:27:12.6       1     21     97     22     99   4.5  88.0  34128  289.04 0855.17
2009/04/23 09:27:12.7     -16     40     90     44    100 338.2  72.4  34130  289.08 0855.17
2009/04/23 09:27:12.8      -1    -16    107     17    108 184.4  90.0  34128  289.04 0855.17
2009/04/23 09:27:12.9      71     58    107     92    141  50.5  54.8  34134  289.14 0855.17
2009/04/23 09:27:13.0      96     46     39    107    113  64.2  20.0  34134  289.14 0855.17
2009/04/23 09:27:13.1     141     -2     23    142    144  90.8   9.5  34116  288.84 0855.17
2009/04/23 09:27:13.2     133     -1     31    134    138  90.8  13.1  34116  288.82 0855.17
2009/04/23 09:27:13.3     101    -84     38    132    138 130.0  16.3  34118  288.87 0855.18
2009/04/23 09:27:13.4      96   -191    129    214    249 153.3  34.0  34112  288.75 0855.18
2009/04/23 09:27:13.5     160   -179    109    241    264 138.3  26.2  34110  288.73 0855.18
2009/04/23 09:27:13.6     116   -195     91    227    244 149.3  23.0  34110  288.73 0855.18
2009/04/23 09:27:13.7      62   -193     63    203    213 162.2  17.3  34112  288.75 0855.18
2009/04/23 09:27:13.8      50   -161    116    169    204 162.6  37.6  34112  288.75 0855.18
2009/04/23 09:27:13.9      41   -300    138    303    332 172.2  26.3  34106  288.66 0855.18
2009/04/23 09:27:14.0     -30   -327     99    329    344 185.3  16.8  34112  288.76 0855.18
2009/04/23 09:27:14.1     -18   -286     -8    287    288 183.6  -1.6  34112  288.76 0855.18
2009/04/23 09:27:14.2       3   -215      6    216    217 179.1   1.8  34110  288.74 0855.18
2009/04/23 09:27:14.3     -15   -194    -60    195    205 184.5 -17.3  34112  288.77 0855.18
2009/04/23 09:27:14.4     -38   -160    -39    165    170 193.6 -13.4  34112  288.77 0855.18
2009/04/23 09:27:14.5      13   -128    -41    129    136 173.8 -17.6  34112  288.77 0855.18
2009/04/23 09:27:14.6      35   -115    -20    121    123 163.1  -9.4  34110  288.74 0855.18
2009/04/23 09:27:14.7      59   -147      6    159    160 158.1   2.5  34110  288.74 0855.18
2009/04/23 09:27:14.8       0   -132      1    133    134 180.4   0.8  34110  288.74 0855.18
2009/04/23 09:27:14.9     -22   -130     33    132    137 189.8  14.3  34110  288.74 0855.18
2009/04/23 09:27:15.0    -111   -132    -26    173    175 220.1  -8.6  34112  288.75 0855.18
2009/04/23 09:27:15.1     -71   -188    -66    201    212 200.7 -18.3  34110  288.74 0855.18
2009/04/23 09:27:15.2     -50   -161      7    169    170 197.4   2.5  34108  288.70 0855.18
2009/04/23 09:27:15.3     -51   -175    -23    183    185 196.3  -7.3  34112  288.75 0855.17
2009/04/23 09:27:15.4     -37   -201      0    205    206 190.5  -0.3  34108  288.70 0855.17
2009/04/23 09:27:15.5     -45   -179    -62    185    196 194.3 -18.7  34110  288.72 0855.17
2009/04/23 09:27:15.6     -89   -155    -59    179    189 209.9 -18.3  34112  288.75 0855.17
2009/04/23 09:27:15.7     -55   -135    -88    146    170 202.3 -38.6  34116  288.82 0855.17
2009/04/23 09:27:15.8    -152   -132    -34    202    205 228.9  -9.6  34108  288.70 0855.17
2009/04/23 09:27:15.9     -91   -149    -73    175    189 211.6 -28.5  34110  288.74 0855.17
2009/04/23 09:27:16.0     -74   -208    -67    221    230 199.6 -22.1  34110  288.74 0855.17
2009/04/23 09:27:16.1     -85   -208    -48    225    231 202.3 -12.2  34110  288.74 0855.17
2009/04/23 09:27:16.2       0   -210    -53    211    218 180.2 -14.3  34110  288.74 0855.17
2009/04/23 09:27:16.3       7   -244     -9    245    246 178.2  -2.2  34112  288.75 0855.17
2009/04/23 09:27:16.4      39   -254    -51    258    264 171.1 -11.3  34112  288.76 0855.17
2009/04/23 09:27:16.5     104   -269    -55    289    295 158.8 -10.9  34110  288.71 0855.17
2009/04/23 09:27:16.6     107   -233    -91    257    273 155.3 -19.6  34112  288.76 0855.17
2009/04/23 09:27:16.7      73   -236    -86    248    262 162.8 -24.3  34114  288.78 0855.17
2009/04/23 09:27:16.8      94   -209   -131    230    264 155.7 -36.5  34110  288.71 0855.17
2009/04/23 09:27:16.9     128   -194    -73    233    245 146.4 -17.5  34110  288.73 0855.17
2009/04/23 09:27:17.0      65   -273    -84    281    294 166.6 -16.8  34112  288.76 0855.17
2009/04/23 09:27:17.1     -32   -278    -82    280    292 186.7 -16.4  34116  288.81 0855.17
2009/04/23 09:27:17.2     -56   -189    -98    198    220 196.7 -32.6  34116  288.82 0855.17
2009/04/23 09:27:17.3     -12   -242   -111    243    267 182.9 -30.6  34118  288.87 0855.16
2009/04/23 09:27:17.4      40   -285    -81    288    299 171.9 -20.4  34118  288.85 0855.16
2009/04/23 09:27:17.5      43   -223    -10    228    229 169.1  -2.6  34112  288.75 0855.16
2009/04/23 09:27:17.6      29   -211     64    214    224 172.0  16.6  34116  288.82 0855.16
2009/04/23 09:27:17.7       4   -261     60    262    269 179.1  12.9  34116  288.81 0855.16
2009/04/23 09:27:17.8     -52   -260     23    266    268 191.5   5.0  34116  288.81 0855.16
2009/04/23 09:27:17.9     -28   -247     90    249    264 186.5  20.4  34114  288.80 0855.16
2009/04/23 09:27:18.0    -137   -374     20    399    400 200.2   2.9  34118  288.86 0855.16
2009/04/23 09:27:18.1    -139   -360     73    387    394 201.2  10.7  34116  288.84 0855.16
2009/04/23 09:27:18.2     -85   -344     15    355    356 193.9   2.5  34116  288.81 0855.16
2009/04/23 09:27:18.3    -196   -276     87    339    351 215.4  14.4  34116  288.82 0855.16
2009/04/23 09:27:18.4    -247   -274     44    370    373 222.0   6.9  34120  288.91 0855.16
2009/04/23 09:27:18.5    -237   -237    -42    336    339 224.9  -7.2  34134  289.13 0855.16
2009/04/23 09:27:18.6    -180   -283    -28    336    338 212.4  -4.8  34122  288.93 0855.16
2009/04/23 09:27:18.7    -110   -351     18    368    369 197.4   2.9  34116  288.81 0855.16
2009/04/23 09:27:18.8    -139   -348     81    375    384 201.9  12.3  34116  288.82 0855.16
2009/04/23 09:27:18.9    -119   -317     26    339    341 200.6   4.5  34116  288.84 0855.16
2009/04/23 09:27:19.0     -94   -285     -1    301    302 198.3  -0.3  34116  288.83 0855.16
2009/04/23 09:27:19.1    -115   -261      3    286    287 203.8   0.7  34116  288.81 0855.16
2009/04/23 09:27:19.2     -42   -233     -9    237    238 190.2  -2.2  34118  288.85 0855.16
2009/04/23 09:27:19.3     -15   -221    -73    222    234 184.0 -18.3  34118  288.86 0855.16
2009/04/23 09:27:19.4     -43   -305    -15    309    310 188.1  -2.8  34116  288.81 0855.16
2009/04/23 09:27:19.5     -20   -257    -23    258    260 184.5  -5.2  34116  288.81 0855.16
2009/04/23 09:27:19.6    -106   -282    -42    302    306 200.7  -8.0  34116  288.81 0855.16
2009/04/23 09:27:19.7     -57   -229      3    237    238 194.0   0.8  34118  288.85 0855.16
2009/04/23 09:27:19.8     -54   -286     10    292    293 190.7   2.1  34118  288.85 0855.16
2009/04/23 09:27:19.9      18   -244   -111    245    268 175.8 -30.6  34114  288.80 0855.16
2009/04/23 09:27:20.0       1   -224   -195    225    297 179.5 -50.0  34122  288.92 0855.16
2009/04/23 09:27:20.1      98   -186   -178    211    276 152.1 -48.9  34118  288.87 0855.16
2009/04/23 09:27:20.2      47   -125    -42    134    141 159.1 -17.5  34114  288.80 0855.16
2009/04/23 09:27:20.3     -18   -236      0    237    238 184.5   0.0  34114  288.80 0855.16
2009/04/23 09:27:20.4     -62   -356     72    362    370 189.9  11.3  34116  288.81 0855.16
2009/04/23 09:27:20.5     -54   -270    -10    276    277 191.5  -2.2  34116  288.83 0855.16
2009/04/23 09:27:20.6     -46   -295   -101    299    316 188.9 -18.7  34118  288.85 0855.16
2009/04/23 09:27:20.7    -179   -263    -97    319    334 214.3 -16.9  34120  288.89 0855.16
2009/04/23 09:27:20.8    -115   -249   -178    275    327 204.7 -40.3  34122  288.92 0855.16
2009/04/23 09:27:20.9     -61   -228    -86    237    252 195.1 -25.1  34118  288.87 0855.16
2009/04/23 09:27:21.0     -39   -271    -77    274    285 188.2 -15.8  34118  288.87 0855.16
2009/04/23 09:27:21.1      61   -303    -65    310    317 168.5 -12.0  34118  288.85 0855.16
2009/04/23 09:27:21.2      45   -352    -84    355    365 172.7 -13.4  34116  288.84 0855.16
2009/04/23 09:27:21.3      46   -375   -132    378    400 172.9 -24.4  34118  288.86 0855.16
2009/04/23 09:27:21.4      70   -376   -109    383    398 169.4 -20.7  34116  288.81 0855.16
2009/04/23 09:27:21.5      59   -361   -128    366    388 170.7 -19.3  34120  288.88 0855.16
2009/04/23 09:27:21.6      58   -341    -46    347    351 170.2  -7.7  34114  288.79 0855.16
2009/04/23 09:27:21.7     157   -290    106    331    348 151.5  17.8  34116  288.84 0855.16
2009/04/23 09:27:21.8     182   -385      9    426    427 154.7   1.2  34120  288.89 0855.16
2009/04/23 09:27:21.9     118   -413    -39    430    432 164.0  -5.2  34118  288.87 0855.16
2009/04/23 09:27:22.0     174   -384    -44    422    425 155.6  -6.0  34114  288.78 0855.16
2009/04/23 09:27:22.1     103   -365    -75    380    388 164.2 -11.2  34116  288.82 0855.16
2009/04/23 09:27:22.2      60   -433   -138    438    459 172.1 -22.6  34122  288.92 0855.16
2009/04/23 09:27:22.3      25   -416   -149    417    444 176.5 -19.7  34122  288.94 0855.18
2009/04/23 09:27:22.4      31   -421   -144    423    446 175.8 -23.7  34124  288.95 0855.18
2009/04/23 09:27:22.5      10   -436   -121    437    453 178.6 -20.1  34124  288.95 0855.18
2009/04/23 09:27:22.6     103   -361    -60    376    381 164.0  -9.1  34122  288.94 0855.18
2009/04/23 09:27:22.7     122   -367      6    387    388 161.6   0.9  34120  288.88 0855.18
2009/04/23 09:27:22.8     188   -337     46    387    390 150.8   6.8  34118  288.86 0855.18
2009/04/23 09:27:22.9     168   -282     29    329    331 149.2   5.1  34120  288.88 0855.18
2009/04/23 09:27:23.0     164   -283     70    328    336 149.9  12.2  34120  288.89 0855.18
2009/04/23 09:27:23.1     254   -368     54    448    452 145.4   6.9  34120  288.90 0855.18
2009/04/23 09:27:23.2     275   -430     90    511    520 147.4  10.0  34118  288.86 0855.18
2009/04/23 09:27:23.3     225   -439     81    494    501 152.8   9.3  34114  288.79 0855.18
2009/04/23 09:27:23.4     144   -344    130    373    396 157.3  19.2  34116  288.84 0855.18
2009/04/23 09:27:23.5     111   -265     56    288    294 157.2  11.0  34120  288.88 0855.18
2009/04/23 09:27:23.6      19   -241    -15    242    243 175.3  -3.7  34124  288.95 0855.18
2009/04/23 09:27:23.7      85   -278    -39    291    294 163.0  -7.7  34126  288.98 0855.18
2009/04/23 09:27:23.8      36   -365     12    367    368 174.3   1.9  34120  288.91 0855.18
2009/04/23 09:27:23.9      -2   -292    -19    293    294 180.5  -3.9  34124  288.95 0855.18
2009/04/23 09:27:24.0     -33   -233     55    236    243 188.2  13.1  34122  288.93 0855.18
2009/04/23 09:27:24.1     -95   -201    122    223    254 205.5  31.3  34120  288.88 0855.18
2009/04/23 09:27:24.2     -83   -208    123    225    256 201.8  31.3  34122  288.93 0855.18
2009/04/23 09:27:24.3     -63   -248     98    256    274 194.3  22.0  34122  288.93 0855.18
2009/04/23 09:27:24.4     -65   -227     76    237    250 196.0  17.9  34122  288.93 0855.18
2009/04/23 09:27:24.5    -101   -254     78    274    286 201.8  16.0  34120  288.90 0855.18
2009/04/23 09:27:24.6    -124   -233     27    265    267 208.1   5.9  34122  288.93 0855.18
2009/04/23 09:27:24.7     -70   -246     30    256    258 196.0   6.9  34122  288.93 0855.18
2009/04/23 09:27:24.8    -111   -255    -15    279    280 203.6  -3.1  34120  288.90 0855.18
2009/04/23 09:27:24.9     -96   -178    -57    203    212 208.5 -15.8  34126  289.01 0855.18
2009/04/23 09:27:25.0     -38   -112    -56    119    131 198.7 -31.5  34132  289.09 0855.18
2009/04/23 09:27:25.1     -58   -130    -48    143    152 204.1 -18.7  34130  289.08 0855.18
2009/04/23 09:27:25.2     -45   -145      7    152    153 197.4   2.8  34126  289.01 0855.18
2009/04/23 09:27:25.3     -27   -164      8    167    168 189.3   2.9  34122  288.94 0855.18
2009/04/23 09:27:25.4     -58   -175     13    185    186 198.3   4.2  34122  288.92 0855.18
2009/04/23 09:27:25.5     -52   -156     -6    165    166 198.5  -2.2  34124  288.97 0855.18
2009/04/23 09:27:25.6    -120   -154    -14    196    197 218.1  -4.1  34120  288.91 0855.18
2009/04/23 09:27:25.7     -74   -163     -3    180    181 204.5  -1.3  34124  288.97 0855.18
2009/04/23 09:27:25.8     -40   -133     16    140    142 197.0   6.9  34122  288.94 0855.18
2009/04/23 09:27:25.9     -41   -124      0    131    132 198.7   0.2  34130  289.06 0855.18
2009/04/23 09:27:26.0     -12   -126      1    127    128 185.8   0.8  34128  289.04 0855.18
2009/04/23 09:27:26.1     -17    -77     -6     80     81 192.9  -4.6  34128  289.02 0855.18
2009/04/23 09:27:26.2      21    -63     21     67     71 161.3  17.3  34124  288.97 0855.18
2009/04/23 09:27:26.3      22    -47     49     53     72 154.6  47.9  34124  288.97 0855.20
2009/04/23 09:27:26.4      13      4     62     14     63  71.4  86.9  34126  289.01 0855.20
2009/04/23 09:27:26.5      17    -17     52     25     57 134.9  72.9  34128  289.04 0855.20
2009/04/23 09:27:26.6      26    -27     50     38     62 136.6  58.5  34128  289.04 0855.20
2009/04/23 09:27:26.7      22    -39     49     45     66 150.1  52.2  34124  288.97 0855.20
2009/04/23 09:27:26.8      19    -59     61     63     87 161.7  50.0  34126  288.99 0855.20
2009/04/23 09:27:26.9       7     -4     44      9     44 122.4  90.0  34124  288.97 0855.20
2009/04/23 09:27:27.0      -3    -46     42     47     63 184.5  47.9  34126  288.99 0855.20
2009/04/23 09:27:27.1       1     12     36     13     38   8.0  81.2  34128  289.02 0855.20
2009/04/23 09:27:27.2       0     43     21     44     48   0.9  26.2  34132  289.09 0855.20
2009/04/23 09:27:27.3      13     13     47     19     50  46.7  77.1  34130  289.08 0855.20
2009/04/23 09:27:27.4      41     23     46     48     66  60.2  50.0  34130  289.06 0855.20
2009/04/23 09:27:27.5       8     15     56     18     58  29.0  80.7  34130  289.06 0855.20
2009/04/23 09:27:27.6      -5     55     61     56     82 354.7  52.2  34126  288.99 0855.20
2009/04/23 09:27:27.7     -13     39     74     42     85 341.5  67.7  34128  289.04 0855.20
2009/04/23 09:27:27.8      -8     56     91     57    107 351.1  64.7  34130  289.06 0855.20
2009/04/23 09:27:27.9     -30     34     44     46     63 317.7  50.0  34128  289.02 0855.20
2009/04/23 09:27:28.0     -16    -12     31     21     37 232.2  64.6  34130  289.08 0855.20
2009/04/23 09:27:28.1     -33     -5     58     34     67 260.3  66.8  34132  289.11 0855.20
2009/04/23 09:27:28.2     -23    -37     52     44     68 211.6  55.4  34132  289.09 0855.20
2009/04/23 09:27:28.3       0    -31     71     32     77 179.1  74.0  34134  289.13 0855.21
2009/04/23 09:27:28.4     -11    -26     70     29     75 203.6  77.0  34132  289.09 0855.21
2009/04/23 09:27:28.5      25    -25     65     36     74 135.0  68.8  34132  289.11 0855.21
2009/04/23 09:27:28.6      24    -21     69     32     76 131.3  73.1  34130  289.06 0855.21
2009/04/23 09:27:28.7      56    -14     86     58    103 104.2  63.2  34126  288.99 0855.21
2009/04/23 09:27:28.8     -43     -8     45     44     62 259.4  50.1  34130  289.08 0855.21
2009/04/23 09:27:28.9     -64      0     57     65     86 270.0  46.4  34132  289.09 0855.21
2009/04/23 09:27:29.0     -65      5     57     66     87 274.4  45.8  34132  289.11 0855.21
2009/04/23 09:27:29.1     -24     10     69     27     74 293.5  78.2  34132  289.11 0855.21
2009/04/23 09:27:29.2     -23    -25     49     35     60 223.2  60.5  34134  289.14 0855.21
2009/04/23 09:27:29.3      11    -95     80     96    124 173.3  43.8  34126  289.01 0855.21
2009/04/23 09:27:29.4       0   -163     80    164    182 180.2  27.8  34124  288.97 0855.21
2009/04/23 09:27:29.5      -3   -122     87    123    150 181.8  39.1  34124  288.97 0855.21
2009/04/23 09:27:29.6       0   -113    123    114    167 180.4  52.5  34128  289.04 0855.21
2009/04/23 09:27:29.7     -16   -147    173    148    227 186.3  55.4  34124  288.97 0855.21
2009/04/23 09:27:29.8     -30   -162    146    165    220 190.7  45.9  34124  288.97 0855.21
2009/04/23 09:27:29.9     -43   -178    151    184    238 193.6  43.7  34124  288.97 0855.21
2009/04/23 09:27:30.0     -66   -198    163    209    265 198.5  42.2  34126  289.00 0855.21
2009/04/23 09:27:30.1     -10   -177    154    178    235 183.4  45.4  34124  288.97 0855.21
2009/04/23 09:27:30.3      -8   -163    116    164    200 182.9  38.8  34122  288.94 0855.21
2009/04/23 09:27:30.4      50   -291    212    296    364 170.2  39.2  34126  288.99 0855.21
2009/04/23 09:27:30.4       2   -277    213    278    350 179.5  41.3  34126  289.00 0855.21
2009/04/23 09:27:30.6      25    -97    201    101    224 165.3  71.7  34126  288.99 0855.21
2009/04/23 09:27:30.7     121   -146    157    190    246 140.3  43.8  34128  289.02 0855.21
2009/04/23 09:27:30.8      13    -25    122     29    125 152.8  86.9  34126  288.99 0855.21
2009/04/23 09:27:30.9      40   -160     80    166    184 165.7  27.4  34124  288.97 0855.21
2009/04/23 09:27:31.0      11   -138     83    139    161 175.1  33.7  34122  288.94 0855.21
2009/04/23 09:27:31.1      -1   -136     87    137    162 180.5  35.5  34122  288.92 0855.21
2009/04/23 09:27:31.2     -31   -131    159    135    208 193.4  55.6  34126  288.99 0855.21
2009/04/23 09:27:31.3     -22   -177    180    179    253 187.3  50.1  34126  288.99 0855.21
2009/04/23 09:27:31.4      31   -203    142    206    250 171.3  37.8  34124  288.95 0855.21
2009/04/23 09:27:31.5      -3   -227    160    228    278 180.9  38.6  34128  289.02 0855.21
2009/04/23 09:27:31.6     -31   -255    186    257    317 187.1  39.5  34124  288.95 0855.21
2009/04/23 09:27:31.7      -3   -250    198    251    319 180.9  42.3  34128  289.02 0855.21
2009/04/23 09:27:31.8     -16   -229    141    230    269 184.2  34.5  34126  289.00 0855.21
2009/04/23 09:27:31.9      16   -210    107    211    236 175.5  29.1  34126  288.99 0855.21
2009/04/23 09:27:32.0      12   -222    121    223    253 176.9  31.3  34124  288.97 0855.21
2009/04/23 09:27:32.1       1   -172    111    173    205 179.5  35.6  34124  288.96 0855.21
2009/04/23 09:27:32.2      -8   -148     29    149    152 183.1  11.1  34126  288.99 0855.21
2009/04/23 09:27:32.3      -4   -119     19    120    122 182.2   9.0  34126  289.01 0855.21
2009/04/23 09:27:32.4      62    -93     44    113    121 146.2  22.5  34124  288.97 0855.20
2009/04/23 09:27:32.5     106    -67     79    126    148 122.5  35.5  34128  289.04 0855.20
2009/04/23 09:27:32.6      90    -65     71    112    132 126.0  35.5  34130  289.08 0855.20
2009/04/23 09:27:32.7     116    -41    102    124    160 109.5  43.7  34132  289.09 0855.20
2009/04/23 09:27:32.8      64    -56    124     86    150 131.3  62.1  34128  289.02 0855.20
2009/04/23 09:27:32.9     -17    -54    111     57    124 198.3  70.8  34128  289.04 0855.20
2009/04/23 09:27:33.0     -15    -77     72     79    106 191.6  47.9  34126  289.01 0855.20
2009/04/23 09:27:33.1      24    -60     58     65     87 158.1  46.9  34128  289.02 0855.20
2009/04/23 09:27:33.2       3    -74     66     75     99 177.3  45.8  34128  289.02 0855.20
2009/04/23 09:27:33.3      -1      8     66      9     66 348.4  90.0  34128  289.04 0855.20
2009/04/23 09:27:33.4      57     60    116     83    142  43.7  60.6  34128  289.02 0855.20
2009/04/23 09:27:33.5      80     68     72    106    128  49.6  37.6  34128  289.02 0855.20
2009/04/23 09:27:33.6      59     56     60     82    101  46.7  39.7  34128  289.04 0855.20
2009/04/23 09:27:33.7      41     65     58     78     97  32.5  40.7  34128  289.04 0855.20
2009/04/23 09:27:33.8     117     47    116    127    172  68.2  47.1  34126  288.99 0855.20
2009/04/23 09:27:33.9     124     36    123    130    178  73.6  48.2  34124  288.96 0855.20
2009/04/23 09:27:34.0      67     55    128     87    154  50.5  62.7  34128  289.04 0855.20
2009/04/23 09:27:34.1     109     34    112    115    160  72.3  49.4  34126  288.99 0855.20
2009/04/23 09:27:34.2      96     10    127     97    159  83.9  58.7  34126  289.01 0855.20
2009/04/23 09:27:34.3      76     -5     97     77    123  94.3  57.9  34124  288.97 0855.20
2009/04/23 09:27:34.4      -2    -21    102     22    104 186.2  88.5  34130  289.08 0855.19
2009/04/23 09:27:34.5      34     23     96     42    104  55.8  75.0  34128  289.02 0855.19
2009/04/23 09:27:34.6     -16     -5     70     17     72 251.8  86.9  34128  289.04 0855.19
2009/04/23 09:27:34.7      10    -54     95     55    109 169.3  67.2  34122  288.92 0855.19
2009/04/23 09:27:34.8      53     29    118     61    132  61.1  70.8  34126  288.99 0855.19
2009/04/23 09:27:34.9      91     -6    133     92    161  94.3  62.1  34128  289.02 0855.19
2009/04/23 09:27:35.0     -50    -82    101     97    140 211.6  51.2  34126  288.99 0855.19
2009/04/23 09:27:35.1     -15    -16     46     22     51 223.2  72.9  34128  289.04 0855.19
2009/04/23 09:27:35.2      13     25    136     29    139  27.2  89.0  34128  289.04 0855.19
2009/04/23 09:27:35.3      -5    -16    117     17    118 198.7  90.0  34126  288.99 0855.19
2009/04/23 09:27:35.4     -41     62     99     75    124 326.6  59.0  34130  289.06 0855.19
2009/04/23 09:27:35.5       1    -22    118     23    120 177.3  89.6  34128  289.04 0855.19
2009/04/23 09:27:35.6     -30    -56    175     64    186 208.9  79.2  34132  289.09 0855.19
2009/04/23 09:27:35.7     -21   -126    224    128    257 189.7  67.8  34128  289.02 0855.19
2009/04/23 09:27:35.8     -16   -207    170    208    268 184.5  43.7  34130  289.05 0855.19
2009/04/23 09:27:35.9      71   -139    192    157    248 152.8  56.4  34128  289.04 0855.19
2009/04/23 09:27:36.0      68    -67    181     96    204 134.6  69.8  34128  289.04 0855.19
2009/04/23 09:27:36.1      60   -178    209    188    281 161.3  53.3  34128  289.02 0855.19
2009/04/23 09:27:36.2      45   -167    184    174    253 164.9  51.4  34128  289.04 0855.19
2009/04/23 09:27:36.3      46    -77    113     90    144 149.3  57.5  34132  289.09 0855.19
2009/04/23 09:27:36.4      77   -247    169    259    309 162.6  35.7  34126  288.98 0855.20
2009/04/23 09:27:36.5     -74   -186    247    201    318 201.9  56.8  34128  289.03 0855.20
2009/04/23 09:27:36.6      22    -29    188     37    191 142.2  89.1  34130  289.06 0855.20
2009/04/23 09:27:36.7      21      9    101     23    103  66.5  87.5  34126  289.01 0855.20
2009/04/23 09:27:36.8     -60    101     97    118    152 329.3  43.7  34148  289.38 0855.20
2009/04/23 09:27:36.9     -85    109     96    139    168 322.2  37.8  34172  289.77 0855.20
2009/04/23 09:27:37.0     -23    114    116    117    164 348.4  50.2  34148  289.36 0855.20
2009/04/23 09:27:37.1    -116    148    122    189    224 321.9  35.6  34150  289.41 0855.20
2009/04/23 09:27:37.2    -172    201    132    265    296 319.5  28.2  34162  289.61 0855.20
2009/04/23 09:27:37.3     -93    247    123    265    292 339.3  27.1  34220  290.58 0855.20
2009/04/23 09:27:37.4     -88    210    140    228    267 337.3  34.5  34226  290.70 0855.20
2009/04/23 09:27:37.5     -88    170    127    192    230 332.6  36.5  34212  290.45 0855.20
2009/04/23 09:27:37.6    -113    130     64    173    184 319.0  21.0  34202  290.28 0855.20
2009/04/23 09:27:37.7    -193    141    100    240    260 306.2  24.1  34246  291.02 0855.20
2009/04/23 09:27:37.8    -157    178    122    238    267 318.6  29.3  34208  290.37 0855.20
2009/04/23 09:27:37.9    -218     81    154    233    279 290.6  36.5  34168  289.70 0855.20
2009/04/23 09:27:38.0    -196   -101    173    221    280 242.7  42.0  34134  289.12 0855.20
2009/04/23 09:27:38.1    -201    -27    160    203    258 262.1  42.2  34146  289.34 0855.20
2009/04/23 09:27:38.2    -204     -1    110    205    232 269.6  30.8  34152  289.45 0855.20
2009/04/23 09:27:38.3    -162      2     40    163    168 270.9  13.9  34178  289.89 0855.20
2009/04/23 09:27:38.4    -145   -156     97    214    234 223.0  26.2  34148  289.36 0855.21
2009/04/23 09:27:38.5      26    -65    186     71    199 158.2  78.4  34144  289.31 0855.21
2009/04/23 09:27:38.6    -119   -115    180    166    244 226.0  52.7  34136  289.18 0855.21
2009/04/23 09:27:38.7     -67   -192    208    204    291 199.2  50.2  34134  289.12 0855.21
2009/04/23 09:27:38.8    -103   -250    280    271    389 202.5  51.1  34136  289.16 0855.21
2009/04/23 09:27:38.9     -27   -135    251    138    286 191.5  68.9  34138  289.19 0855.21
2009/04/23 09:27:39.0     -15     -4    170     16    170 254.9  90.0  34142  289.28 0855.21
2009/04/23 09:27:39.1       0    -76    146     77    165 180.0  70.0  34146  289.33 0855.21
2009/04/23 09:27:39.2     -42    -50    211     66    221 219.6  82.0  34142  289.28 0855.21
2009/04/23 09:27:39.3     -88     -1    151     89    175 269.2  66.4  34152  289.45 0855.21
2009/04/23 09:27:39.4    -202    -37     96    206    227 259.4  27.1  34182  289.96 0855.20
2009/04/23 09:27:39.5    -182   -127    109    223    248 235.1  28.0  34150  289.41 0855.20
2009/04/23 09:27:39.6      62   -110    169    127    211 150.6  59.2  34152  289.43 0855.20
2009/04/23 09:27:39.7      78     -6     76     79    109  94.4  49.0  34160  289.57 0855.20
2009/04/23 09:27:39.8     105      8     70    106    127  85.6  36.5  34150  289.41 0855.20
2009/04/23 09:27:39.9     123      0    107    124    163  90.0  45.6  34142  289.28 0855.20
2009/04/23 09:27:40.0      12   -125    142    126    189 174.2  54.0  34138  289.21 0855.20
2009/04/23 09:27:40.1      19   -112    169    114    203 170.2  62.8  34142  289.28 0855.20
2009/04/23 09:27:40.2       0    -62     75     63     97 180.0  55.8  34150  289.40 0855.20
2009/04/23 09:27:40.3      41    -34    129     54    139 129.5  76.6  34138  289.21 0855.20
2009/04/23 09:27:40.4      20    -49    167     54    175 157.3  81.0  34150  289.40 0855.20
2009/04/23 09:27:40.5      38    -27    118     47    127 126.0  77.6  34144  289.31 0855.20
2009/04/23 09:27:40.6      24     20    106     32    110  50.4  82.8  34146  289.35 0855.20
2009/04/23 09:27:40.7     -64    -46    137     80    158 234.0  67.2  34166  289.69 0855.20
2009/04/23 09:27:40.8     -55    -18    115     59    129 251.4  70.8  34150  289.41 0855.20
2009/04/23 09:27:40.9      12      8     92     15     93  57.5  90.0  34152  289.43 0855.20
2009/04/23 09:27:41.0      54    -29     91     62    110 118.0  62.6  34152  289.43 0855.20
2009/04/23 09:27:41.1     112      4     97    113    148  87.9  44.8  34138  289.21 0855.20
2009/04/23 09:27:41.2     106     23     82    109    136  77.6  40.7  34144  289.31 0855.20
2009/04/23 09:27:41.3     121     -6     89    122    151  93.0  39.7  34152  289.45 0855.20
2009/04/23 09:27:41.4     107     -2    111    108    154  91.3  50.2  34148  289.38 0855.20
2009/04/23 09:27:41.5     215     43    125    220    253  78.6  32.3  34228  290.73 0855.20
2009/04/23 09:27:41.6     155    -14     50    156    164  95.2  17.9  34248  291.08 0855.20
2009/04/23 09:27:41.7      93    -17     93     95    132 100.6  50.0  34242  290.96 0855.20
2009/04/23 09:27:41.8     -48    170    230    177    290 344.2  58.5  34220  290.58 0855.20
2009/04/23 09:27:41.9     -28    169    252    172    305 350.4  62.6  34184  289.98 0855.20
2009/04/23 09:27:42.0       6    113    180    114    213   3.1  64.7  34212  290.45 0855.20
2009/04/23 09:27:42.1     -19    295     30    296    298 356.2   5.9  34260  291.26 0855.20
2009/04/23 09:27:42.2       3    236     -1    237    238   0.9  -0.3  34216  290.53 0855.20
2009/04/23 09:27:42.3      57    200     70    209    221  16.0  18.6  34240  290.92 0855.20
2009/04/23 09:27:42.4      87     71     84    113    140  50.5  40.1  34260  291.28 0855.20
2009/04/23 09:27:42.5     224     82     66    239    249  69.8  15.6  34288  291.75 0855.20
2009/04/23 09:27:42.6     234    124    -48    266    271  62.0 -10.3  34284  291.68 0855.20
2009/04/23 09:27:42.7     163    144    -16    218    219  48.4  -4.4  34270  291.43 0855.20
2009/04/23 09:27:42.8     135    174    140    221    261  37.9  35.5  34286  291.70 0855.20
2009/04/23 09:27:42.9      82    253     95    267    283  18.0  20.2  34234  290.82 0855.20
2009/04/23 09:27:43.0     237    298    -60    382    387  38.5  -9.0  34218  290.55 0855.20
2009/04/23 09:27:43.1     270    279    -26    389    390  44.1  -3.9  34220  290.59 0855.20
2009/04/23 09:27:43.2     218    282    107    357    373  37.7  16.8  34264  291.35 0855.20
2009/04/23 09:27:43.3     338    161    129    375    397  64.5  19.1  34242  290.96 0855.20
2009/04/23 09:27:43.4     465    146     46    488    491  72.6   5.4  34238  290.88 0855.21
2009/04/23 09:27:43.5     403    218     15    459    460  61.6   1.9  34226  290.70 0855.21
2009/04/23 09:27:43.6     479    159    -36    505    507  71.6  -4.1  34216  290.51 0855.21
2009/04/23 09:27:43.7     638    218     51    675    677  71.1   4.3  34230  290.77 0855.21
2009/04/23 09:27:43.8     296    206    111    361    378  55.2  17.1  34232  290.81 0855.21
2009/04/23 09:27:43.9     287    256     77    385    393  48.3  11.3  34164  289.65 0855.21
2009/04/23 09:27:44.0     161    368     75    402    409  23.6  10.6  34144  289.29 0855.21
2009/04/23 09:27:44.1     141    357     45    385    388  21.6   6.7  34128  289.03 0855.21
2009/04/23 09:27:44.2     128    345     22    369    370  20.4   3.5  34122  288.94 0855.21
2009/04/23 09:27:44.3     126    347    -11    370    371  20.0  -1.8  34128  289.03 0855.21
2009/04/23 09:27:44.4     210    309     11    374    375  34.3   1.8  34152  289.45 0855.21
2009/04/23 09:27:44.5     215    293     71    364    372  36.2  11.1  34250  291.11 0855.21
2009/04/23 09:27:44.6     229    276     41    359    362  39.6   6.6  34208  290.40 0855.21
2009/04/23 09:27:44.7     186    232     -6    298    299  38.7  -1.3  34174  289.81 0855.21
2009/04/23 09:27:44.8     120    201    -33    235    238  30.8  -8.0  34136  289.15 0855.21
2009/04/23 09:27:44.9     175    169    -30    244    246  46.0  -7.2  34138  289.19 0855.21
2009/04/23 09:27:45.0     185    137    -71    231    242  53.6 -17.3  34138  289.19 0855.21
2009/04/23 09:27:45.1     210    162    -45    266    270  52.3  -9.6  34126  289.00 0855.21
2009/04/23 09:27:45.2     266    181      1    323    324  55.7   0.2  34156  289.49 0855.21
2009/04/23 09:27:45.3     277    147     55    314    319  62.0  10.1  34178  289.86 0855.21
2009/04/23 09:27:45.4     292    137    -53    323    328  64.8  -9.3  34136  289.17 0855.20
2009/04/23 09:27:45.5     257     83    -10    271    272  72.1  -2.2  34138  289.20 0855.20
2009/04/23 09:27:45.6     280    102    -13    299    300  70.0  -2.6  34134  289.14 0855.20
2009/04/23 09:27:45.7     308     61      2    314    315  78.8   0.4  34148  289.36 0855.20
2009/04/23 09:27:45.8     300     90      9    314    315  73.2   1.8  34132  289.10 0855.20
2009/04/23 09:27:45.9     269     68     13    278    279  75.8   2.8  34138  289.20 0855.20
2009/04/23 09:27:46.0     266     53     31    272    274  78.6   6.7  34132  289.09 0855.20
2009/04/23 09:27:46.1     336     19     74    337    346  86.7  12.4  34130  289.06 0855.20
2009/04/23 09:27:46.2     321     -8     93    322    336  91.5  16.1  34126  288.98 0855.20
2009/04/23 09:27:46.3     288     53     34    293    296  79.4   6.7  34124  288.97 0855.20
2009/04/23 09:27:46.4     323    -54    -27    328    330  99.5  -4.8  34126  289.01 0855.20
2009/04/23 09:27:46.5     256    -81    -95    269    286 107.7 -19.6  34126  288.98 0855.20
2009/04/23 09:27:46.6     277    -72    -26    287    289 104.6  -5.2  34124  288.95 0855.20
2009/04/23 09:27:46.7     406    -36    -88    408    418  95.1 -12.3  34126  289.00 0855.20
2009/04/23 09:27:46.8     477    -56    -54    481    485  96.8  -6.5  34132  289.10 0855.20
2009/04/23 09:27:46.9     427   -144    -86    451    460 108.7 -10.9  34134  289.12 0855.20
2009/04/23 09:27:47.0     524    -49    -32    527    528  95.4  -3.5  34128  289.04 0855.20
2009/04/23 09:27:47.1     436    -54    -59    440    444  97.1  -7.7  34130  289.05 0855.20
2009/04/23 09:27:47.2     527    -25    -47    528    531  92.8  -5.1  34138  289.19 0855.20
2009/04/23 09:27:47.3     453   -129    105    471    483 105.9  12.6  34150  289.39 0855.20
2009/04/23 09:27:47.4     489    -74     50    495    498  98.7   5.8  34136  289.18 0855.20
2009/04/23 09:27:47.5     267    -71    173    277    326 105.0  35.1  34162  289.61 0855.20
2009/04/23 09:27:47.6     367   -172    138    406    429 115.2  18.8  34150  289.41 0855.20
2009/04/23 09:27:47.7     413    -99     31    425    427 103.6   4.2  34150  289.41 0855.20
2009/04/23 09:27:47.8     194   -244    127    313    337 141.5  23.2  34158  289.54 0855.20
2009/04/23 09:27:47.9     236   -202     99    311    327 130.5  17.7  34154  289.47 0855.20
2009/04/23 09:27:48.0     267   -158     63    311    318 120.7  11.4  34142  289.25 0855.20
2009/04/23 09:27:48.1     165   -126    150    208    256 127.5  39.5  34148  289.37 0855.20
2009/04/23 09:27:48.2     141   -180    149    229    273 141.9  36.3  34154  289.47 0855.20
2009/04/23 09:27:48.3      52   -256     41    262    266 168.4   9.0  34150  289.39 0855.20
2009/04/23 09:27:48.4      74   -228    152    240    284 162.0  35.5  34154  289.46 0855.20
2009/04/23 09:27:48.5       2   -260    128    261    290 179.5  28.0  34154  289.47 0855.20
2009/04/23 09:27:48.6      59   -289    160    296    336 168.4  30.8  34146  289.32 0855.20
2009/04/23 09:27:48.7       0   -328    101    329    345 180.1  17.0  34146  289.33 0855.20
2009/04/23 09:27:48.8     144   -342     91    372    384 157.1  13.8  34142  289.25 0855.20
2009/04/23 09:27:48.9      73   -357    126    365    387 168.4  19.1  34138  289.21 0855.20
2009/04/23 09:27:49.0     124   -309     82    334    344 158.1  13.8  34148  289.38 0855.20
2009/04/23 09:27:49.1     251   -180     96    310    325 125.7  17.3  34144  289.29 0855.20
2009/04/23 09:27:49.2     281   -205     65    349    355 126.1  10.6  34152  289.43 0855.20
2009/04/23 09:27:49.3     207   -200     45    288    292 134.0   9.0  34150  289.39 0855.20
2009/04/23 09:27:49.4     151   -183     17    238    239 140.3   4.2  34156  289.49 0855.20
2009/04/23 09:27:49.5     110   -151     69    188    200 143.9  20.9  34148  289.38 0855.20
2009/04/23 09:27:49.6      18   -230    -30    231    233 175.5  -7.5  34158  289.54 0855.20
2009/04/23 09:27:49.7      93   -222    -13    241    242 157.3  -3.3  34158  289.54 0855.20
2009/04/23 09:27:49.8      87   -254    -54    269    275 161.1 -11.5  34158  289.53 0855.20
2009/04/23 09:27:49.9     109   -192    -74    221    234 150.4 -18.7  34158  289.55 0855.20
2009/04/23 09:27:50.0     140   -254     22    291    292 151.1   4.4  34160  289.56 0855.20
2009/04/23 09:27:50.1      82   -248    -35    262    265 161.7  -7.7  34154  289.47 0855.20
2009/04/23 09:27:50.2     173   -193      8    260    261 138.1   1.8  34154  289.47 0855.20
2009/04/23 09:27:50.3     253    -57     12    260    261 102.8   2.8  34144  289.31 0855.20
2009/04/23 09:27:50.4     232    -77    102    245    265 108.4  24.1  34144  289.31 0855.20
2009/04/23 09:27:50.5     171    -64     98    183    207 110.8  30.6  34146  289.33 0855.20
2009/04/23 09:27:50.6     250    -67     51    259    265 105.0  11.1  34152  289.44 0855.20
2009/04/23 09:27:50.7     259    -43    126    263    291  99.5  27.3  34150  289.41 0855.20
2009/04/23 09:27:50.8     240    -20    160    241    289  95.0  36.5  34152  289.42 0855.20
2009/04/23 09:27:50.9     282     98    143    299    331  70.7  27.3  34150  289.39 0855.20
2009/04/23 09:27:51.0     155     21     88    157    179  82.0  31.6  34152  289.45 0855.20
2009/04/23 09:27:51.1      37    -20     99     43    107 118.9  75.0  34152  289.45 0855.20
2009/04/23 09:27:51.2     -29    -55    145     63    158 208.1  75.3  34154  289.48 0855.20
2009/04/23 09:27:51.3      78   -146    113    166    200 151.7  37.6  34154  289.46 0855.20
2009/04/23 09:27:51.4      52   -120     65    132    147 156.4  27.3  34152  289.43 0855.20
2009/04/23 09:27:51.5      -8    -87     96     88    130 185.3  52.7  34152  289.43 0855.20
2009/04/23 09:27:51.6     -23    -58     69     63     93 201.9  52.2  34150  289.41 0855.20
2009/04/23 09:27:51.7      -6     18     60     20     63 340.0  81.0  34154  289.48 0855.20
2009/04/23 09:27:51.8      25     30     53     40     66  39.6  59.4  34156  289.50 0855.20
2009/04/23 09:27:51.9      37    -76     65     85    107 153.7  41.2  34152  289.45 0855.20
2009/04/23 09:27:52.0     115    -73     77    137    157 122.4  31.6  34154  289.48 0855.20
2009/04/23 09:27:52.1     187   -145     82    237    252 127.8  19.2  34146  289.32 0855.20
2009/04/23 09:27:52.2     209   -132     76    248    260 122.4  17.1  34148  289.36 0855.20
2009/04/23 09:27:52.3     216    -94     78    236    249 113.6  18.4  34146  289.34 0855.20
2009/04/23 09:27:52.4     200   -126     93    237    254 122.2  22.8  34148  289.36 0855.20
2009/04/23 09:27:52.5     194   -113     14    225    226 120.2   3.8  34150  289.41 0855.20
2009/04/23 09:27:52.6     187    -58      4    196    197 107.3   1.2  34150  289.40 0855.20
2009/04/23 09:27:52.7     223    -31    -62    226    235  98.0 -15.4  34154  289.46 0855.20
2009/04/23 09:27:52.8     139    -42    -24    146    148 106.8  -9.3  34152  289.43 0855.20
2009/04/23 09:27:52.9     178    -19     -7    180    181  96.1  -2.2  34150  289.41 0855.20
2009/04/23 09:27:53.0     201    -22      9    203    204  96.4   2.8  34148  289.36 0855.20
2009/04/23 09:27:53.1     133     40    -30    139    143  73.2 -12.4  34150  289.41 0855.20
2009/04/23 09:27:53.2     119     76    -18    142    144  57.6  -7.2  34152  289.45 0855.20
2009/04/23 09:27:53.3     125     80    -19    149    151  57.5  -7.3  34152  289.45 0855.20
2009/04/23 09:27:53.4     159    -72     82    175    193 114.4  27.1  34146  289.33 0855.18
2009/04/23 09:27:53.5     152    -40    120    158    198 105.0  41.2  34150  289.40 0855.18
2009/04/23 09:27:53.6     154     32     84    158    178  78.1  30.6  34146  289.33 0855.18
2009/04/23 09:27:53.7     119     63     31    135    139  62.0  13.2  34148  289.38 0855.18
2009/04/23 09:27:53.8      65    119      9    136    137  28.9   3.8  34148  289.36 0855.18
2009/04/23 09:27:53.9     110     43     87    119    147  68.7  39.7  34146  289.33 0855.18
2009/04/23 09:27:54.0     116     96     64    151    164  50.5  24.1  34148  289.38 0855.18
2009/04/23 09:27:54.1      92    119     11    151    152  37.9   4.4  34146  289.35 0855.18
2009/04/23 09:27:54.2      81     75    -37    111    117  46.9 -23.6  34150  289.40 0855.18
2009/04/23 09:27:54.3      43     59     21     74     78  36.1  16.3  34150  289.40 0855.18
2009/04/23 09:27:54.4      18     43     40     47     61  22.7  44.8  34146  289.35 0855.18
2009/04/23 09:27:54.5     -10     46     37     48     60 347.5  41.7  34150  289.41 0855.18
2009/04/23 09:27:54.6      39    -13     32     42     52 108.4  42.7  34148  289.38 0855.18
2009/04/23 09:27:54.7      71     -6     57     72     91  95.2  42.7  34152  289.43 0855.18
2009/04/23 09:27:54.8      52    -32     34     62     70 121.5  31.4  34150  289.41 0855.18
2009/04/23 09:27:54.9       2    -36     37     37     52 175.6  50.1  34152  289.45 0855.18
2009/04/23 09:27:55.0     -22    -25     45     34     56 221.4  59.4  34156  289.50 0855.18
2009/04/23 09:27:55.1     -31    -28     35     43     55 227.8  43.7  34154  289.46 0855.18
2009/04/23 09:27:55.2     -37    -48     28     61     67 217.8  26.2  34156  289.50 0855.18
2009/04/23 09:27:55.3     -33    -33     12     48     50 225.0  14.3  34158  289.55 0855.18
2009/04/23 09:27:55.4     -19    -19     13     27     29 225.1  27.3  34156  289.50 0855.19
2009/04/23 09:27:55.5      -8     -6     18     11     21 230.5  66.8  34154  289.46 0855.19
2009/04/23 09:27:55.6      -8     -6     18     11     21 230.5  66.8  34154  289.46 0855.19
2009/04/23 09:27:55.7     -14     -9      5     17     18 237.6  18.9  34154  289.46 0855.19
2009/04/23 09:27:55.8      -5    -18      7     19     20 198.3  21.0  34154  289.48 0855.19
2009/04/23 09:27:55.9     -11    -42    -15     44     47 195.1 -18.7  34154  289.48 0855.19
2009/04/23 09:27:56.0      -3    -30     -5     31     32 186.2  -9.3  34152  289.45 0855.19
2009/04/23 09:27:56.1       2    -35    -11     36     37 175.6 -23.8  34154  289.48 0855.19
2009/04/23 09:27:56.2      -5    -41     -7     42     43 188.0 -10.3  34152  289.43 0855.19
2009/04/23 09:27:56.4     -22    -34     -1     41     42 213.4  -2.2  34156  289.50 0855.19
2009/04/23 09:27:56.4     -32    -39     -4     51     52 219.6  -5.2  34156  289.52 0855.19
2009/04/23 09:27:56.5     -29    -46     -7     55     56 212.5  -7.3  34154  289.48 0855.19
2009/04/23 09:27:56.6     -12    -31    -13     34     36 201.8 -23.3  34152  289.45 0855.19
2009/04/23 09:27:56.8     -19    -30    -13     36     39 212.5 -19.7  34152  289.45 0855.19
2009/04/23 09:27:56.9     -14    -16    -21     22     30 219.6 -54.4  34160  289.58 0855.19
2009/04/23 09:27:57.0       5    -23    -30     24     38 166.6 -60.8  34160  289.58 0855.19
2009/04/23 09:27:57.0       5    -18    -33     19     38 161.7 -69.1  34164  289.63 0855.19
2009/04/23 09:27:57.2       8    -22    -31     24     39 160.0 -60.8  34164  289.65 0855.19
2009/04/23 09:27:57.3      11    -35    -29     37     47 161.3 -47.1  34160  289.58 0855.19
2009/04/23 09:27:57.4       5    -31    -29     32     43 170.2 -52.3  34160  289.58 0855.19
2009/04/23 09:27:57.5       0    -20    -36     21     41 177.3 -72.1  34156  289.52 0855.17
2009/04/23 09:27:57.6      12    -40    -13     42     43 163.1 -22.8  34152  289.45 0855.17
2009/04/23 09:27:57.7       1    -48      0     49     50 178.2   0.8  34152  289.43 0855.17
2009/04/23 09:27:57.8       0    -45      3     46     47 180.0   4.9  34150  289.41 0855.17
2009/04/23 09:27:57.9      -5    -53      7     54     55 186.2   8.0  34152  289.43 0855.17
2009/04/23 09:27:58.0      -3    -45      6     46     47 184.5   8.0  34152  289.45 0855.17
2009/04/23 09:27:58.1      -4    -14      8     15     17 198.5  31.4  34154  289.46 0855.17
2009/04/23 09:27:58.2      -3    -21     -5     22     23 189.8 -13.4  34156  289.50 0855.17
2009/04/23 09:27:58.3     -19    -23    -11     30     31 219.6 -23.3  34160  289.58 0855.17
2009/04/23 09:27:58.4     -19    -19    -27     27     38 225.1 -54.5  34162  289.62 0855.17
2009/04/23 09:27:58.5     -18     -6    -43     19     47 251.6 -79.4  34164  289.65 0855.17
2009/04/23 09:27:58.6     -10     -9    -51     14     52 226.7 -89.3  34164  289.63 0855.17
2009/04/23 09:27:58.7       4      2    -39      5     39  57.6 -90.0  34168  289.72 0855.17
2009/04/23 09:27:58.8      20    -32    -35     38     51 147.5 -52.3  34172  289.77 0855.17
2009/04/23 09:27:58.9      49    -38    -48     63     79 127.8 -45.6  34164  289.63 0855.17
2009/04/23 09:27:59.0      59    -22    -57     64     85 110.8 -50.8  34160  289.58 0855.17
2009/04/23 09:27:59.1      81    -46    -34     94     99 119.8 -24.8  34158  289.53 0855.17
2009/04/23 09:27:59.2      64    -34    -29     73     78 118.0 -26.9  34158  289.53 0855.17
2009/04/23 09:27:59.3      58    -21    -39     62     73 110.0 -39.9  34164  289.63 0855.17
2009/04/23 09:27:59.4      65    -19    -34     68     76 106.8 -32.6  34160  289.58 0855.17
2009/04/23 09:27:59.5      73    -19    -31     76     82 105.1 -27.4  34160  289.57 0855.16
2009/04/23 09:27:59.6      71    -47    -24     86     89 123.3 -20.7  34158  289.55 0855.16
2009/04/23 09:27:59.7      38    -38     25     55     60 134.9  27.1  34158  289.55 0855.16
2009/04/23 09:27:59.8      -2    -25     32     26     41 184.5  56.4  34156  289.52 0855.16
2009/04/23 09:27:59.9       2    -48     31     49     57 177.3  35.5  34156  289.50 0855.16
2009/04/23 09:28:00.0     -14    -91    106     93    141 188.9  54.3  34144  289.30 0855.16
2009/04/23 09:28:00.1      11    -79    121     80    145 171.9  64.1  34144  289.30 0855.16
2009/04/23 09:28:00.2      -7    -84    108     85    137 184.9  57.9  34146  289.35 0855.16
2009/04/23 09:28:00.3      -5    -49     82     50     96 186.2  65.1  34146  289.35 0855.16
2009/04/23 09:28:00.4     -32    -50     98     60    114 212.5  64.7  34148  289.38 0855.16
2009/04/23 09:28:00.5      -6    -74    121     75    142 185.3  64.7  34146  289.35 0855.15
2009/04/23 09:28:00.6     -60    -97     99    115    151 211.6  45.4  34146  289.35 0855.15
2009/04/23 09:28:00.7     -67    -67     64     95    114 225.1  36.5  34146  289.33 0855.15
2009/04/23 09:28:00.8     -84   -112     88    141    166 217.0  35.2  34146  289.33 0855.15
2009/04/23 09:28:00.9     -77    -76     79    109    134 225.4  39.7  34146  289.35 0855.15
2009/04/23 09:28:01.0     -66    -87     85    110    139 217.0  41.7  34144  289.30 0855.15
2009/04/23 09:28:01.1     -77    -93     92    122    152 219.6  40.7  34146  289.35 0855.15
2009/04/23 09:28:01.2    -111    -37     90    118    148 251.4  41.6  34152  289.43 0855.15
2009/04/23 09:28:01.3    -143    -47     74    151    168 251.8  27.8  34162  289.62 0855.15
2009/04/23 09:28:01.4    -167    -36     70    171    184 257.8  23.1  34168  289.70 0855.15
2009/04/23 09:28:01.5    -169    -93     70    194    206 241.1  20.9  34162  289.62 0855.15
2009/04/23 09:28:01.6    -147    -92     56    174    183 237.8  17.9  34162  289.60 0855.15
2009/04/23 09:28:01.7    -161    -55     51    171    179 250.9  16.8  34162  289.60 0855.15
2009/04/23 09:28:01.8    -166    -51     47    174    181 252.9  15.3  34154  289.46 0855.15
2009/04/23 09:28:01.9    -159    -45     61    166    176 254.1  21.3  34158  289.55 0855.15
2009/04/23 09:28:02.0    -152   -101     49    183    190 236.3  15.2  34164  289.63 0855.15
2009/04/23 09:28:02.1    -125   -115     52    171    179 227.3  17.1  34156  289.50 0855.15
2009/04/23 09:28:02.2    -176   -144     38    228    232 230.7   9.5  34228  290.74 0855.15
2009/04/23 09:28:02.3    -173   -110     73    206    218 237.6  20.2  34222  290.62 0855.15
2009/04/23 09:28:02.4     -94    -74     57    120    132 231.8  27.1  34174  289.82 0855.15
2009/04/23 09:28:02.5     -68    -94     56    117    129 216.1  27.3  34180  289.91 0855.14
2009/04/23 09:28:02.6     -77   -119    111    143    181 213.0  42.0  34158  289.53 0855.14
2009/04/23 09:28:02.7     -74   -116    132    138    190 212.6  48.7  34154  289.48 0855.14
2009/04/23 09:28:02.8     -33   -124    147    129    195 195.2  54.3  34152  289.45 0855.14
2009/04/23 09:28:02.9    -101    -89     35    135    140 228.7  14.7  34172  289.77 0855.14
2009/04/23 09:28:03.0      23    -45     71     51     87 152.8  61.1  34166  289.69 0855.14
2009/04/23 09:28:03.1      32      9    102     34    107  73.2  81.0  34160  289.57 0855.14
2009/04/23 09:28:03.2     -49     21     65     54     84 293.5  56.4  34156  289.52 0855.14
2009/04/23 09:28:03.3      46     -3     73     47     86  94.4  64.6  34154  289.46 0855.14
2009/04/23 09:28:03.4      87      0     91     88    126  90.0  50.7  34158  289.53 0855.14
2009/04/23 09:28:03.5      77     13    111     79    136  80.3  61.1  34158  289.55 0855.14
2009/04/23 09:28:03.6      71    -33     66     79    102 115.2  44.3  34152  289.45 0855.14
2009/04/23 09:28:03.7      60    -45     42     76     86 126.9  31.9  34152  289.45 0855.14
2009/04/23 09:28:03.8      99    -46     38    110    117 114.8  19.4  34154  289.48 0855.14
2009/04/23 09:28:03.9     124    -80    -40    148    154 122.9 -15.4  34156  289.52 0855.14
2009/04/23 09:28:04.0     182    -78    -14    199    200 113.3  -4.1  34152  289.43 0855.14
2009/04/23 09:28:04.1     194    -73     65    208    219 110.6  17.4  34152  289.45 0855.14
2009/04/23 09:28:04.2     224   -141     31    265    267 122.2   6.7  34154  289.46 0855.14
2009/04/23 09:28:04.3     134    -18     21    136    138  97.9   9.0  34182  289.94 0855.14
2009/04/23 09:28:04.4     191     79    122    207    240  67.4  33.4  34202  290.28 0855.14
2009/04/23 09:28:04.5     250    120     96    278    295  64.2  19.2  34168  289.71 0855.14
2009/04/23 09:28:04.6     238    126     98    270    287  62.0  20.9  34174  289.80 0855.14
2009/04/23 09:28:04.7     223    181     98    288    305  50.9  18.9  34198  290.20 0855.14
2009/04/23 09:28:04.8     183    118    163    218    272  57.1  40.4  34174  289.81 0855.14
2009/04/23 09:28:04.9     278     12    177    279    330  87.4  35.5  34170  289.75 0855.14
2009/04/23 09:28:05.0     272     89    167    287    332  71.8  32.9  34164  289.64 0855.14
2009/04/23 09:28:05.1     135     73    126    154    198  61.6  43.7  34176  289.84 0855.14
2009/04/23 09:28:05.2      83    -22    163     86    184 105.1  69.8  34174  289.80 0855.14
2009/04/23 09:28:05.3      50      0    124     51    134  89.2  77.0  34176  289.85 0855.14
2009/04/23 09:28:05.4     119    -88     90    149    174 126.4  34.2  34166  289.67 0855.14
2009/04/23 09:28:05.5     147   -182    123    235    265 141.0  29.8  34158  289.53 0855.14
2009/04/23 09:28:05.6     106   -246     64    269    277 156.6  13.5  34160  289.58 0855.14
2009/04/23 09:28:05.7      93   -228    147    247    287 157.7  33.5  34146  289.34 0855.14
2009/04/23 09:28:05.8      80   -174    145    192    240 155.1  40.7  34150  289.41 0855.14
2009/04/23 09:28:05.9      88   -150    139    175    223 149.5  42.4  34164  289.65 0855.14
2009/04/23 09:28:06.0      32   -174    120    177    213 169.5  37.3  34168  289.70 0855.14
2009/04/23 09:28:06.1      21   -163    130    165    210 172.7  42.2  34170  289.74 0855.14
2009/04/23 09:28:06.2     -77    -64    123    101    159 230.5  56.4  34170  289.75 0855.14
2009/04/23 09:28:06.3      63   -177    137    189    233 160.2  39.5  34162  289.60 0855.14
2009/04/23 09:28:06.4      56   -255    133    262    293 167.5  29.2  34158  289.53 0855.14
2009/04/23 09:28:06.5     100   -218    190    240    306 155.3  42.7  34156  289.51 0855.13
2009/04/23 09:28:06.6      22   -100    138    103    172 167.5  59.4  34160  289.58 0855.13
2009/04/23 09:28:06.7      -1    -68    129     69    146 180.9  69.3  34166  289.69 0855.13
2009/04/23 09:28:06.8      12   -104    101    105    145 173.3  49.0  34164  289.65 0855.13
2009/04/23 09:28:06.9     -79    -16     62     81    102 258.5  41.2  34160  289.57 0855.13
2009/04/23 09:28:07.0      57    -65    -58     87    104 139.0 -40.9  34162  289.62 0855.13
2009/04/23 09:28:07.1     140    -47     57    148    158 108.6  22.0  34156  289.52 0855.13
2009/04/23 09:28:07.2     -69    -26    118     74    139 249.2  64.7  34164  289.63 0855.13
2009/04/23 09:28:07.3    -123    -57     36    136    141 244.8  15.2  34158  289.55 0855.13
2009/04/23 09:28:07.4     -57   -122     36    135    140 205.3  15.3  34164  289.65 0855.13
2009/04/23 09:28:07.5     -87   -148     80    172    189 210.5  27.1  34154  289.48 0855.13
2009/04/23 09:28:07.6    -105     25     95    109    144 283.7  45.8  34156  289.50 0855.13
2009/04/23 09:28:07.7    -160     56     27    170    173 289.3   9.0  34158  289.53 0855.13
2009/04/23 09:28:07.8    -177    126    -66    218    227 305.5 -21.8  34170  289.75 0855.13
2009/04/23 09:28:07.9    -190     51   -114    197    227 285.1 -37.1  34166  289.69 0855.13
2009/04/23 09:28:08.0    -200   -102    -75    225    237 242.9 -23.6  34164  289.64 0855.13
2009/04/23 09:28:08.1    -110   -151    -56    188    197 216.1 -16.6  34166  289.69 0855.13
2009/04/23 09:28:08.2     112   -128    144    171    223 138.8  44.1  34164  289.63 0855.13
2009/04/23 09:28:08.3      31   -116    135    121    181 164.9  53.3  34164  289.63 0855.13
2009/04/23 09:28:08.4     -57   -106    197    121    231 208.5  65.1  34168  289.70 0855.13
2009/04/23 09:28:08.5    -183     31     87    186    205 279.9  27.1  34166  289.69 0855.13
2009/04/23 09:28:08.6    -104    -13     96    105    142 262.5  47.9  34166  289.67 0855.13
2009/04/23 09:28:08.7     -56   -114    135    128    186 206.3  52.0  34162  289.62 0855.13
2009/04/23 09:28:08.8     -82   -121    118    147    188 214.3  43.3  34162  289.62 0855.13
2009/04/23 09:28:08.9     -86    -54    -51    102    114 237.5 -32.6  34170  289.75 0855.13
2009/04/23 09:28:09.0      -7   -131     67    132    148 183.1  28.7  34164  289.63 0855.13
2009/04/23 09:28:09.1     -55   -165    137    174    221 198.5  42.2  34162  289.60 0855.13
2009/04/23 09:28:09.2     -23   -178    103    180    207 187.6  32.4  34166  289.69 0855.13
2009/04/23 09:28:09.3     -66   -130    185    146    235 207.1  57.7  34172  289.77 0855.13
2009/04/23 09:28:09.4     -43    -73    210     86    226 210.7  76.8  34166  289.67 0855.13
2009/04/23 09:28:09.5    -200   -181     93    270    286 227.8  19.2  34170  289.73 0855.13
2009/04/23 09:28:09.6    -223   -247    199    333    387 222.1  33.8  34178  289.89 0855.13
2009/04/23 09:28:09.7    -233   -102    159    255    300 246.3  35.5  34182  289.93 0855.13
2009/04/23 09:28:09.8    -153   -221    156    269    310 214.7  32.9  34172  289.76 0855.13
2009/04/23 09:28:09.9    -356   -249    247    435    500 235.0  32.0  34186  290.00 0855.13
2009/04/23 09:28:10.0    -294   -380    182    481    514 217.7  21.6  34148  289.37 0855.13
2009/04/23 09:28:10.1    -181   -346    320    391    505 207.6  43.6  34140  289.22 0855.13
2009/04/23 09:28:10.2    -102   -306    331    323    462 198.5  50.8  34136  289.17 0855.13
2009/04/23 09:28:10.3    -128   -438    297    457    545 196.3  36.0  34142  289.25 0855.13
2009/04/23 09:28:10.4    -113   -437    306    452    545 194.5  37.4  34148  289.37 0855.13
2009/04/23 09:28:10.5    -149   -416    225    443    496 199.8  29.1  34134  289.12 0855.13
2009/04/23 09:28:10.6    -228   -194     -6    300    301 229.5  -1.3  34140  289.24 0855.13
2009/04/23 09:28:10.7    -190   -463     98    501    511 202.3  11.1  34114  288.79 0855.13
2009/04/23 09:28:10.8    -142   -460     80    482    489 197.2   9.4  34126  289.00 0855.13
2009/04/23 09:28:10.9    -169   -443     27    475    476 200.9   3.3  34110  288.74 0855.13
2009/04/23 09:28:11.0    -156   -363     58    396    401 203.2   8.3  34114  288.79 0855.13
2009/04/23 09:28:11.1    -129   -312     81    338    348 202.6  13.5  34120  288.91 0855.13
2009/04/23 09:28:11.2    -185   -168    263    251    363 227.7  51.5  34132  289.10 0855.13
2009/04/23 09:28:11.3     -42    -23     21     49     53 241.1  24.1  34152  289.45 0855.13
2009/04/23 09:28:11.4     147    -19    214    149    260  97.5  61.8  34128  289.02 0855.13
2009/04/23 09:28:11.5       0   -138    234    139    272 180.0  66.7  34120  288.90 0855.13
2009/04/23 09:28:11.6       0    -14    133     15    133 182.7  90.0  34124  288.96 0855.13
2009/04/23 09:28:11.7      30     49    151     58    161  31.6  78.2  34122  288.94 0855.13
2009/04/23 09:28:11.8     179    128    147    221    265  54.5  36.5  34116  288.83 0855.13
2009/04/23 09:28:11.9     254    234    253    346    428  47.3  39.7  34134  289.14 0855.13
2009/04/23 09:28:12.0     390    339    206    517    556  49.0  23.0  34122  288.94 0855.13
2009/04/23 09:28:12.1     311    331    231    455    510  43.2  29.2  34118  288.86 0855.13
2009/04/23 09:28:12.2     345    375    115    510    523  42.6  12.8  34130  289.05 0855.13
2009/04/23 09:28:12.3     252    307    200    398    445  39.3  28.7  34134  289.12 0855.13
2009/04/23 09:28:12.4     208    300    163    366    400  34.7  25.7  34124  288.96 0855.13
2009/04/23 09:28:12.5     332    353    141    485    506  43.2  16.3  34130  289.08 0855.14
2009/04/23 09:28:12.6      44    262     54    266    272   9.6  11.6  34166  289.66 0855.14
2009/04/23 09:28:12.7     -52    251     69    257    267 348.2  15.2  34204  290.31 0855.14
2009/04/23 09:28:12.8     -95    252     13    270    271 339.3   2.9  34220  290.59 0855.14
2009/04/23 09:28:12.9      47    288    -48    292    296   9.3  -9.4  34234  290.82 0855.14
2009/04/23 09:28:13.0     178     90   -198    200    281  63.1 -54.4  34176  289.85 0855.14
2009/04/23 09:28:13.1     197    -76   -279    212    350 111.1 -63.6  34118  288.85 0855.14
2009/04/23 09:28:13.2     581    215   -142    620    637  69.7 -12.9  34114  288.79 0855.14
2009/04/23 09:28:13.3     623    342     64    711    714  61.2   5.2  34152  289.45 0855.14
2009/04/23 09:28:13.4     562    339     94    657    664  58.9   8.2  34166  289.66 0855.14
2009/04/23 09:28:13.5     423    328    205    536    573  52.2  22.0  34126  289.01 0855.14
2009/04/23 09:28:13.6     418    313    414    523    667  53.2  42.3  34172  289.79 0855.14
2009/04/23 09:28:13.7     464    246    359    526    636  62.1  37.7  34140  289.24 0855.14
2009/04/23 09:28:13.8     378    263    370    461    591  55.2  42.8  34148  289.38 0855.14
2009/04/23 09:28:13.9     355    175    294    397    494  63.7  40.1  34144  289.31 0855.14
2009/04/23 09:28:14.0     487    184    352    521    628  69.3  37.3  34158  289.54 0855.14
2009/04/23 09:28:14.1     434    276    430    515    670  57.5  44.1  34172  289.76 0855.14
2009/04/23 09:28:14.2     661    336    144    742    756  63.0  11.0  34138  289.19 0855.14
2009/04/23 09:28:14.3     641    280    242    700    741  66.4  19.1  34132  289.11 0855.14
2009/04/23 09:28:14.4     461    269    235    535    584  59.7  25.2  34130  289.06 0855.14
2009/04/23 09:28:14.5     621    466    167    777    795  53.1  12.2  34150  289.41 0855.14
2009/04/23 09:28:14.6     381    457    -23    596    597  39.8  -2.2  34142  289.25 0855.14
2009/04/23 09:28:14.7     485    310    197    576    610  57.4  18.9  34154  289.46 0855.14
2009/04/23 09:28:14.8     616    421    293    747    802  55.6  22.7  34198  290.20 0855.14
2009/04/23 09:28:14.9     534    377    252    654    700  54.8  22.2  34180  289.90 0855.14
2009/04/23 09:28:15.0     355    334    222    488    536  46.8  26.3  34194  290.16 0855.14
2009/04/23 09:28:15.1     299    181    350    350    494  58.8  50.1  34188  290.05 0855.14
2009/04/23 09:28:15.2     232     97    266    252    366  67.2  51.9  34218  290.54 0855.14
2009/04/23 09:28:15.3      -9    191    224    192    295 357.3  55.3  34206  290.36 0855.14
2009/04/23 09:28:15.4      59    332    179    338    382  10.2  30.1  34188  290.04 0855.14
2009/04/23 09:28:15.5    -205    396    191    447    486 332.6  24.6  34170  289.74 0855.14
2009/04/23 09:28:15.6    -198    466    103    507    518 336.9  11.5  34186  290.01 0855.14
2009/04/23 09:28:15.7    -141    419    152    443    469 341.4  18.9  34206  290.34 0855.14
2009/04/23 09:28:15.8     -45    334     54    338    343 352.2   9.2  34200  290.25 0855.14
2009/04/23 09:28:15.9     203    211     82    294    306  43.9  15.6  34208  290.37 0855.14
2009/04/23 09:28:16.0     198    129     36    237    240  56.9   8.8  34206  290.36 0855.14
2009/04/23 09:28:16.1     255    172     58    308    314  56.0  10.7  34186  290.00 0855.14
2009/04/23 09:28:16.2     162    348     25    384    385  25.0   3.8  34192  290.10 0855.14
2009/04/23 09:28:16.3     150    413    -24    440    441  20.0  -3.2  34170  289.75 0855.14
2009/04/23 09:28:16.4    -119    283     96    308    323 337.2  17.3  34170  289.75 0855.14
2009/04/23 09:28:16.5     -62    241    183    249    309 345.5  39.7  34200  290.26 0855.15
2009/04/23 09:28:16.6     -15    178    136    179    224 354.9  40.9  34196  290.18 0855.15
2009/04/23 09:28:16.7     423    184    148    462    486  66.5  17.8  34162  289.62 0855.15
2009/04/23 09:28:16.8     516    251    179    575    603  64.0  17.3  34178  289.86 0855.15
2009/04/23 09:28:16.9     478    304    154    567    588  57.5  15.2  34178  289.86 0855.15
2009/04/23 09:28:17.0     546    357     58    653    656  56.8   5.1  34166  289.69 0855.15
2009/04/23 09:28:17.1     532    228    208    579    615  66.8  20.6  34156  289.52 0855.15
2009/04/23 09:28:17.2     596     92    148    604    622  81.2  13.8  34144  289.30 0855.15
2009/04/23 09:28:17.3     553   -130    235    569    615 103.3  23.8  34150  289.39 0855.15
2009/04/23 09:28:17.4     599   -170    218    623    661 105.9  19.3  34158  289.53 0855.15
2009/04/23 09:28:17.5     328    132   -101    354    369  68.1 -16.0  34166  289.67 0855.15
2009/04/23 09:28:17.6     334     72     43    342    345  77.7   7.2  34172  289.79 0855.15
2009/04/23 09:28:17.7     445    148    129    470    488  71.5  15.4  34166  289.69 0855.15
2009/04/23 09:28:17.8     350    365     96    506    516  43.8  10.8  34176  289.83 0855.15
2009/04/23 09:28:17.9     377    405     17    554    555  43.0   1.8  34152  289.43 0855.15
2009/04/23 09:28:18.0     230    459     90    514    523  26.6  10.0  34162  289.62 0855.15
2009/04/23 09:28:18.1     335    293     14    446    447  48.9   1.9  34136  289.16 0855.15
2009/04/23 09:28:18.2     343    341     88    484    492  45.2  10.3  34130  289.08 0855.15
2009/04/23 09:28:18.3     322    234    141    399    423  54.0  20.2  34154  289.48 0855.15
2009/04/23 09:28:18.4     301    297    151    424    450  45.4  20.4  34210  290.41 0855.15
2009/04/23 09:28:18.5     219    293     52    367    371  36.8   8.1  34194  290.16 0855.16
2009/04/23 09:28:18.6     155    232    163    280    323  33.8  32.8  34204  290.31 0855.16
2009/04/23 09:28:18.7     275    225    287    356    457  50.7  43.0  34238  290.89 0855.16
2009/04/23 09:28:18.8     297    284    325    412    524  46.3  42.2  34232  290.79 0855.16
2009/04/23 09:28:18.9     328    287    179    436    471  48.8  23.6  34222  290.61 0855.16
2009/04/23 09:28:19.0     365    265    164    452    480  54.0  20.8  34198  290.22 0855.16
2009/04/23 09:28:19.1     415    228    110    474    487  61.2  13.1  34192  290.13 0855.16
2009/04/23 09:28:19.2     646    184    327    672    747  74.1  27.9  34208  290.40 0855.16
2009/04/23 09:28:19.3     873    190     85    894    899  77.7   5.5  34196  290.18 0855.16
2009/04/23 09:28:19.4     836    307    186    891    911  69.8  11.8  34172  289.77 0855.16
2009/04/23 09:28:19.5     737    304    231    798    831  67.6  16.1  34172  289.77 0855.16
2009/04/23 09:28:19.7     437    552    152    705    722  38.4  12.2  34118  288.86 0855.16
2009/04/23 09:28:19.7     335    490     12    594    595  34.4   1.2  34118  288.86 0855.16
2009/04/23 09:28:19.8     459    281     28    539    540  58.5   3.0  34120  288.91 0855.16
2009/04/23 09:28:19.9     401    306     89    505    513  52.6  10.0  34116  288.83 0855.16
2009/04/23 09:28:20.0     493    318     51    587    590  57.1   5.0  34130  289.08 0855.16
2009/04/23 09:28:20.1     544    187     60    576    580  71.0   6.0  34128  289.03 0855.16
2009/04/23 09:28:20.2     442    337    108    556    567  52.7  11.0  34138  289.21 0855.16
2009/04/23 09:28:20.3     542    246      1    596    597  65.6   0.1  34130  289.05 0855.16
2009/04/23 09:28:20.4     353    241     94    428    439  55.7  12.4  34152  289.43 0855.16
2009/04/23 09:28:20.5     317    267    166    415    446  49.8  23.0  34152  289.43 0855.15
2009/04/23 09:28:20.6     399    123    309    418    519  72.8  40.1  34132  289.10 0855.15
2009/04/23 09:28:20.7     409   -144     16    434    435 109.4   2.1  34136  289.17 0855.15
2009/04/23 09:28:20.8     364     51    230    368    433  82.0  35.1  34150  289.39 0855.15
2009/04/23 09:28:20.9     230    141    222    270    349  58.5  43.7  34140  289.24 0855.15
2009/04/23 09:28:21.0     402    189    235    445    503  64.8  30.2  34126  289.00 0855.15
2009/04/23 09:28:21.1     197    268    149    333    364  36.4  25.8  34158  289.55 0855.15
2009/04/23 09:28:21.2     235    232    367    331    494  45.4  53.4  34136  289.17 0855.15
2009/04/23 09:28:21.3     259    207    297    332    445  51.4  46.4  34138  289.21 0855.15
2009/04/23 09:28:21.4     315    309    178    442    476  45.6  23.1  34162  289.61 0855.15
2009/04/23 09:28:21.5     177    377    155    417    444  25.2  21.3  34194  290.16 0855.15
2009/04/23 09:28:21.6     109    373    137    389    412  16.3  20.1  34172  289.77 0855.15
2009/04/23 09:28:21.7      77    375    -17    384    385  11.7  -2.6  34148  289.38 0855.15
2009/04/23 09:28:21.8    -137    255    -27    290    292 331.7  -5.4  34148  289.37 0855.15
2009/04/23 09:28:21.9    -159     99    -39    188    193 302.0 -11.9  34144  289.31 0855.15
2009/04/23 09:28:22.0    -194    188     98    271    289 314.0  19.9  34156  289.49 0855.15
2009/04/23 09:28:22.1    -132    303     69    331    339 336.4  11.8  34158  289.55 0855.15
2009/04/23 09:28:22.2     -18    201    159    202    257 354.7  42.2  34172  289.76 0855.15
2009/04/23 09:28:22.3     -71     86     46    112    121 320.3  23.6  34150  289.41 0855.15
2009/04/23 09:28:22.4     -41    199     78    204    218 348.2  22.0  34150  289.40 0855.15
2009/04/23 09:28:22.5     -70    193     61    206    216 340.0  16.6  34150  289.41 0855.15
2009/04/23 09:28:22.6      24    351     50    352    356   4.0   8.1  34152  289.43 0855.15
2009/04/23 09:28:22.7    -121    303     91    327    340 338.2  15.6  34158  289.54 0855.15
2009/04/23 09:28:22.8      36    440    256    442    510   4.8  32.8  34166  289.66 0855.15
2009/04/23 09:28:22.9      75    342    260    351    436  12.4  40.1  34172  289.78 0855.15
2009/04/23 09:28:23.0     -11    252    178    253    309 357.5  38.6  34166  289.66 0855.15
2009/04/23 09:28:23.1     -27    387    271    388    473 355.9  38.4  34186  290.00 0855.15
2009/04/23 09:28:23.2      75    421    152    428    454  10.1  20.4  34160  289.58 0855.15
2009/04/23 09:28:23.3      90    559    214    567    606   9.2  21.6  34140  289.22 0855.15
2009/04/23 09:28:23.4     120    566    253    579    631  12.1  25.2  34136  289.18 0855.15
2009/04/23 09:28:23.5     209    618     95    653    661  18.7   8.3  34160  289.58 0855.14
2009/04/23 09:28:23.6     191    590     69    621    625  17.9   6.4  34122  288.93 0855.14
2009/04/23 09:28:23.7     151    543    110    564    575  15.6  11.1  34146  289.32 0855.14
2009/04/23 09:28:23.8     227    363    -23    429    430  32.0  -3.1  34226  290.70 0855.14
2009/04/23 09:28:24.0     233    512    137    563    580  24.5  13.7  34146  289.34 0855.14
2009/04/23 09:28:24.1     290    545    103    618    627  28.0   9.5  34210  290.43 0855.14
2009/04/23 09:28:24.2     372    480     30    608    609  37.8   2.9  34200  290.25 0855.14
2009/04/23 09:28:24.3     354    241    152    429    455  55.8  20.3  34212  290.46 0855.14
2009/04/23 09:28:24.4     331    185     89    380    391  60.8  13.2  34224  290.67 0855.14
2009/04/23 09:28:24.5     505    210    273    547    611  67.4  28.5  34206  290.36 0855.14
2009/04/23 09:28:24.6     567    249    156    620    640  66.3  14.2  34180  289.91 0855.14
2009/04/23 09:28:24.7     336    214   -110    399    413  57.5 -20.0  34174  289.80 0855.14
2009/04/23 09:28:24.8     558    225    129    602    616  68.0  12.1  34176  289.83 0855.14
2009/04/23 09:28:24.9     726    288     74    782    786  68.3   5.5  34152  289.44 0855.14
2009/04/23 09:28:25.0     475    541     30    721    722  41.3   2.4  34140  289.22 0855.14
2009/04/23 09:28:25.1     513    233      8    564    565  65.6   0.9  34138  289.19 0855.14
2009/04/23 09:28:25.2     513    213    193    556    589  67.4  19.2  34128  289.03 0855.14
2009/04/23 09:28:25.3     358    330    299    488    572  47.3  34.4  34130  289.06 0855.14
2009/04/23 09:28:25.4     273    361    136    453    474  37.1  16.8  34148  289.37 0855.14
2009/04/23 09:28:25.5     388    285     58    482    486  53.7   6.9  34150  289.40 0855.14
2009/04/23 09:28:25.6     396     93   -117    407    424  76.7 -16.0  34154  289.46 0855.14
2009/04/23 09:28:25.7     378     -3   -160    379    411  90.6 -28.6  34166  289.67 0855.14
2009/04/23 09:28:25.8     336    218    -72    401    408  57.0 -10.3  34158  289.53 0855.14
2009/04/23 09:28:25.9     301    197     29    360    362  56.8   4.7  34156  289.52 0855.14
2009/04/23 09:28:26.0     348     87    205    359    413  75.8  32.3  34158  289.54 0855.14
2009/04/23 09:28:26.1     541     61    161    545    569  83.5  16.5  34142  289.26 0855.14
2009/04/23 09:28:26.2     412   -109     45    427    430 104.8   6.1  34162  289.61 0855.14
2009/04/23 09:28:26.3     246     49    -79    251    264  78.5 -17.5  34156  289.49 0855.14
2009/04/23 09:28:26.4     222      4     53    223    230  88.7  13.5  34166  289.67 0855.14
2009/04/23 09:28:26.5      82   -163    -43    183    189 153.3 -13.4  34166  289.69 0855.14
2009/04/23 09:28:26.6     120   -139    -96    184    207 139.2 -33.9  34148  289.36 0855.14
2009/04/23 09:28:26.7     -61   -130   -141    144    201 205.4 -54.2  34156  289.50 0855.14
2009/04/23 09:28:26.8     -34   -317   -120    319    340 186.3 -25.9  34154  289.48 0855.14
2009/04/23 09:28:26.9     199   -292    -99    354    368 145.7 -15.7  34148  289.38 0855.14
2009/04/23 09:28:27.0     220   -507     61    553    557 156.5   6.4  34146  289.35 0855.14
2009/04/23 09:28:27.1     186    -44   -276    192    336 103.3 -66.2  34142  289.27 0855.14
2009/04/23 09:28:27.2     301    -22    -98    302    317  94.3 -23.2  34140  289.22 0855.14
2009/04/23 09:28:27.3     391   -321    166    506    533 129.4  18.2  34148  289.38 0855.14
2009/04/23 09:28:27.4     428   -381    242    574    622 131.7  24.3  34144  289.30 0855.14
2009/04/23 09:28:27.5     385   -133    144    408    432 109.1  20.2  34152  289.43 0855.14
2009/04/23 09:28:27.6     200   -257     85    326    337 142.2  14.7  34152  289.43 0855.15
2009/04/23 09:28:27.7     -13   -206     -8    207    208 183.8  -2.2  34146  289.35 0855.15
2009/04/23 09:28:27.8    -116   -251    189    277    335 204.9  37.7  34148  289.37 0855.15
2009/04/23 09:28:27.9    -220   -356    256    419    491 211.7  34.2  34152  289.42 0855.15
2009/04/23 09:28:28.0    -136   -407    200    430    474 198.6  26.6  34156  289.51 0855.15
2009/04/23 09:28:28.1    -345   -369    179    506    536 223.1  20.2  34154  289.46 0855.15
2009/04/23 09:28:28.2    -273   -393    206    479    521 214.8  24.8  34160  289.57 0855.15
2009/04/23 09:28:28.3    -342   -310    216    462    510 227.8  27.0  34156  289.49 0855.15
2009/04/23 09:28:28.4    -294   -416    219    510    555 215.3  24.6  34158  289.55 0855.15
2009/04/23 09:28:28.5    -262   -486    194    553    586 208.4  20.1  34164  289.64 0855.15
2009/04/23 09:28:28.6    -349   -432    141    556    574 219.0  14.3  34152  289.43 0855.15
2009/04/23 09:28:28.7    -394   -306     53    499    502 232.2   6.1  34176  289.83 0855.15
2009/04/23 09:28:28.8    -396   -132     13    418    419 251.5   1.8  34172  289.77 0855.15
2009/04/23 09:28:28.9    -387   -107    107    402    417 254.5  15.0  34166  289.66 0855.15
2009/04/23 09:28:29.0    -416     97    -81    428    436 283.2 -10.8  34146  289.33 0855.15
2009/04/23 09:28:29.1    -514    104    -30    525    526 281.5  -3.3  34138  289.19 0855.15
2009/04/23 09:28:29.2    -409    264      6    487    488 302.9   0.8  34142  289.25 0855.15
2009/04/23 09:28:29.3    -321    158    -14    358    359 296.2  -2.2  34148  289.37 0855.15
2009/04/23 09:28:29.4    -421    199    -54    466    470 295.4  -6.7  34156  289.49 0855.15
2009/04/23 09:28:29.5    -363    -40     -8    366    367 263.6  -1.4  34160  289.57 0855.15
2009/04/23 09:28:29.6    -352   -194    -99    402    415 241.1 -13.9  34166  289.68 0855.16
2009/04/23 09:28:29.7    -361   -177   -124    403    422 243.9 -17.2  34166  289.68 0855.16
2009/04/23 09:28:29.8    -321   -236     -3    399    400 233.7  -0.5  34168  289.71 0855.16
2009/04/23 09:28:29.9    -312    -98   -127    328    351 252.5 -26.7  34164  289.65 0855.16
2009/04/23 09:28:30.0    -384    -73   -148    391    418 259.2 -26.1  34166  289.68 0855.16
2009/04/23 09:28:30.1    -262   -178    -13    317    318 235.8  -2.5  34170  289.73 0855.16
2009/04/23 09:28:30.2    -194   -219     31    293    295 221.5   6.1  34158  289.53 0855.16
2009/04/23 09:28:30.3     -82   -150     34    172    176 208.7  11.4  34158  289.53 0855.16
2009/04/23 09:28:30.4     -42   -179     67    185    196 193.4  21.0  34158  289.53 0855.16
2009/04/23 09:28:30.5     -27   -198     57    200    209 188.0  16.0  34158  289.55 0855.16
2009/04/23 09:28:30.6       1   -206     47    207    213 179.5  12.9  34158  289.55 0855.16
2009/04/23 09:28:30.7     -24   -255     36    257    260 185.6   8.0  34156  289.51 0855.16
2009/04/23 09:28:30.8       0   -215     11    216    217 180.2   3.1  34154  289.48 0855.16
2009/04/23 09:28:30.9     -27   -263    -33    265    268 186.0  -7.2  34158  289.53 0855.16
2009/04/23 09:28:31.0      17   -273    -15    274    275 176.4  -3.1  34156  289.49 0855.16
2009/04/23 09:28:31.1      38   -273    -30    276    278 171.9  -6.2  34154  289.47 0855.16
2009/04/23 09:28:31.2     -13   -281     24    282    284 182.7   4.9  34156  289.49 0855.16
2009/04/23 09:28:31.3       3   -254     -4    255    256 179.3  -1.1  34152  289.44 0855.16
2009/04/23 09:28:31.4     -24   -230     14    232    233 186.0   3.6  34148  289.38 0855.16
2009/04/23 09:28:31.5       2   -147     40    148    154 179.1  15.3  34152  289.43 0855.16
2009/04/23 09:28:31.6     -20   -247      0    248    249 184.7   0.0  34152  289.44 0855.18
2009/04/23 09:28:31.7     -51   -261     32    267    269 191.1   6.9  34152  289.44 0855.18
2009/04/23 09:28:31.8     -42   -268     55    272    278 188.9  11.4  34150  289.41 0855.18
2009/04/23 09:28:31.9     -38   -276     71    279    288 188.0  14.3  34154  289.47 0855.18
2009/04/23 09:28:32.0     -19   -269     62    270    278 184.2  12.9  34150  289.39 0855.18
2009/04/23 09:28:32.1     -32   -273     56    275    281 186.9  11.6  34152  289.42 0855.18
2009/04/23 09:28:32.2     -71   -239     53    250    256 196.5  12.2  34148  289.36 0855.18
2009/04/23 09:28:32.3     -88   -202     56    221    229 203.6  14.3  34146  289.35 0855.18
2009/04/23 09:28:32.4     -86   -215     81    232    246 201.8  19.4  34150  289.39 0855.18
2009/04/23 09:28:32.5     -90   -250     95    266    282 200.0  20.4  34152  289.42 0855.18
2009/04/23 09:28:32.6     -72   -305     89    314    327 193.3  15.9  34144  289.29 0855.18
2009/04/23 09:28:32.7     -23   -354    188    355    401 183.7  30.2  34146  289.35 0855.18
2009/04/23 09:28:32.8       0   -368    223    369    431 179.9  33.8  34146  289.34 0855.18
2009/04/23 09:28:32.9      50   -493    156    496    521 174.2  17.5  34146  289.34 0855.18
2009/04/23 09:28:33.0      65   -467    166    472    501 172.0  19.4  34146  289.34 0855.18
2009/04/23 09:28:33.1      95   -466    209    476    519 168.4  25.2  34144  289.30 0855.18
2009/04/23 09:28:33.2      82   -438    202    446    489 169.3  26.2  34142  289.28 0855.18
2009/04/23 09:28:33.3      77   -378    183    387    428 168.4  27.1  34142  289.27 0855.18
2009/04/23 09:28:33.4     101   -318    188    334    383 162.3  31.7  34136  289.18 0855.18
2009/04/23 09:28:33.5      87   -357    122    368    388 166.2  18.4  34142  289.26 0855.18
2009/04/23 09:28:33.6    -197   -450     71    492    498 203.7   8.2  34142  289.27 0855.20
2009/04/23 09:28:33.7     -69   -407    123    413    431 189.7  16.6  34136  289.16 0855.20
2009/04/23 09:28:33.8      55   -381     88    386    396 171.7  12.9  34136  289.18 0855.20
2009/04/23 09:28:33.9      92   -252     69    269    278 160.0  14.5  34142  289.25 0855.20
2009/04/23 09:28:34.0     -14   -336    142    337    365 182.5  24.2  34128  289.04 0855.20
2009/04/23 09:28:34.1      -4   -318     90    319    332 180.9  15.9  34132  289.09 0855.20
2009/04/23 09:28:34.2      -6   -392     -8    393    394 180.9  -1.3  34128  289.04 0855.20
2009/04/23 09:28:34.3      27   -356    107    357    373 175.6  16.8  34122  288.94 0855.20
2009/04/23 09:28:34.4     -62   -353    164    359    394 190.0  26.2  34128  289.04 0855.20
2009/04/23 09:28:34.5       0   -483    180    484    516 180.0  21.3  34116  288.84 0855.20
2009/04/23 09:28:34.6      44   -382    160    385    416 173.4  23.8  34110  288.73 0855.20
2009/04/23 09:28:34.7      23   -471    141    472    493 177.1  16.7  34116  288.81 0855.20
2009/04/23 09:28:34.8     -52   -453    101    457    469 186.6  12.5  34126  289.00 0855.20
2009/04/23 09:28:34.9     -14   -566    102    567    577 181.5  10.2  34130  289.07 0855.20
2009/04/23 09:28:35.0     -41   -536     85    538    545 184.5   9.0  34114  288.79 0855.20
2009/04/23 09:28:35.1     -38   -462     13    464    465 184.8   1.7  34126  289.00 0855.20
2009/04/23 09:28:35.2       8   -485     19    486    487 179.0   2.3  34126  288.98 0855.20
2009/04/23 09:28:35.3      76   -537    117    543    556 171.9  12.2  34118  288.85 0855.20
2009/04/23 09:28:35.4      12   -535    100    536    546 178.6  10.6  34126  289.01 0855.20
2009/04/23 09:28:35.5     -50   -503     34    506    508 185.7   3.9  34126  288.98 0855.20
2009/04/23 09:28:35.6     -47   -482    108    485    498 185.6  12.6  34130  289.08 0855.21
2009/04/23 09:28:35.7     -39   -503     38    505    507 184.5   4.3  34126  289.01 0855.21
2009/04/23 09:28:35.8     -26   -430    120    431    448 183.5  15.6  34126  288.99 0855.21
2009/04/23 09:28:35.9      29   -379     40    380    383 175.6   6.1  34128  289.03 0855.21
2009/04/23 09:28:36.0     135   -440      7    461    462 163.0   0.9  34120  288.90 0855.21
2009/04/23 09:28:36.1     147   -438      5    463    464 161.4   0.7  34116  288.83 0855.21
2009/04/23 09:28:36.2     152   -522    -20    544    545 163.7  -2.1  34116  288.82 0855.21
2009/04/23 09:28:36.3     187   -461    -58    498    502 157.9  -6.7  34124  288.95 0855.21
2009/04/23 09:28:36.4     211   -493    -47    537    540 156.8  -5.1  34128  289.02 0855.21
2009/04/23 09:28:36.5     141   -481      7    502    503 163.6   0.8  34126  289.00 0855.21
2009/04/23 09:28:36.6     163   -499    -54    526    529 161.9  -5.9  34126  289.01 0855.21
2009/04/23 09:28:36.7     118   -474    -98    489    499 166.0 -11.3  34122  288.93 0855.21
2009/04/23 09:28:36.8      47   -543     41    546    548 175.0   4.3  34124  288.96 0855.21
2009/04/23 09:28:36.9     102   -487     10    498    499 168.1   1.2  34114  288.79 0855.21
2009/04/23 09:28:37.0     129   -438     13    457    458 163.5   1.7  34118  288.87 0855.21
2009/04/23 09:28:37.1     134   -395     27    418    419 161.2   3.7  34120  288.89 0855.21
2009/04/23 09:28:37.2     168   -354     37    392    394 154.6   5.5  34116  288.84 0855.21
2009/04/23 09:28:37.3     119   -297    136    321    348 158.1  24.2  34108  288.69 0855.21
2009/04/23 09:28:37.4      80   -358    209    367    422 167.4  32.3  34104  288.61 0855.21
2009/04/23 09:28:37.5     121   -419    217    437    487 163.9  28.2  34110  288.73 0855.21
2009/04/23 09:28:37.6     -23   -518    183    519    551 182.6  19.4  34106  288.67 0855.20
2009/04/23 09:28:37.7     -95   -454    237    464    521 191.9  29.2  34114  288.78 0855.20
2009/04/23 09:28:37.8     -37   -374    225    376    438 185.8  33.6  34114  288.78 0855.20
2009/04/23 09:28:37.9      31   -370    215    372    429 175.1  32.7  34108  288.68 0855.20
2009/04/23 09:28:38.0     114   -173    173    208    270 146.6  43.8  34108  288.70 0855.20
2009/04/23 09:28:38.1     110   -282     94    303    318 158.6  17.3  34106  288.66 0855.20
2009/04/23 09:28:38.2      39   -191    144    196    243 168.4  39.9  34104  288.64 0855.20
2009/04/23 09:28:38.3       6   -176    102    177    204 177.8  32.7  34106  288.67 0855.20
2009/04/23 09:28:38.4      50   -131    105    141    175 159.1  40.4  34106  288.65 0855.20
2009/04/23 09:28:38.5     -21    -13    115     25    117 237.6  88.0  34112  288.77 0855.20
2009/04/23 09:28:38.6       0    -54    100     55    114 180.0  68.8  34112  288.75 0855.20
2009/04/23 09:28:38.7     -30     -9    122     32    126 251.8  84.9  34112  288.75 0855.20
2009/04/23 09:28:38.8      28     73     89     79    119  20.9  53.7  34116  288.82 0855.20
2009/04/23 09:28:38.9     -32    -51     74     61     95 211.6  56.4  34112  288.75 0855.20
2009/04/23 09:28:39.0     -68      0     48     69     84 270.0  38.0  34110  288.72 0855.20
2009/04/23 09:28:39.1      34     65     63     74     97  28.1  44.8  34112  288.75 0855.20
2009/04/23 09:28:39.2     -49     37    160     62    171 306.9  77.8  34116  288.82 0855.20
2009/04/23 09:28:39.3     133    114    121    176    213  49.3  37.6  34114  288.79 0855.20
2009/04/23 09:28:39.4      71     42    121     83    146  58.9  62.1  34108  288.70 0855.20
2009/04/23 09:28:39.5     -32     67    162     75    178 334.6  73.8  34118  288.86 0855.20
2009/04/23 09:28:39.6     -23   -111    136    114    177 192.0  55.8  34112  288.75 0855.21
2009/04/23 09:28:39.7    -102   -177    182    205    274 209.9  45.9  34112  288.75 0855.21
2009/04/23 09:28:39.8     -87   -184    223    204    302 205.3  52.7  34112  288.75 0855.21
2009/04/23 09:28:39.9    -178   -272    127    326    349 213.2  22.3  34112  288.77 0855.21
2009/04/23 09:28:40.0    -100   -328     10    344    345 197.0   1.7  34112  288.76 0855.21
2009/04/23 09:28:40.1      -8   -173     44    174    180 182.7  14.3  34110  288.72 0855.21
2009/04/23 09:28:40.2      50    -41     25     66     70 129.5  22.0  34112  288.77 0855.21
2009/04/23 09:28:40.3      55    -57     63     80    101 135.8  42.7  34110  288.74 0855.21
2009/04/23 09:28:40.4     106    -99    127    146    193 133.1  45.6  34104  288.64 0855.21
2009/04/23 09:28:40.5      93    -62     58    112    126 123.7  29.3  34112  288.75 0855.21
2009/04/23 09:28:40.6      31    -65     80     73    108 154.6  52.7  34110  288.74 0855.21
2009/04/23 09:28:40.7      77     10     99     78    126  82.1  57.9  34112  288.77 0855.21
2009/04/23 09:28:40.8     114     38    100    121    156  71.4  44.1  34118  288.87 0855.21
2009/04/23 09:28:40.9      98    115    128    152    198  40.5  44.3  34120  288.89 0855.21
2009/04/23 09:28:41.0     116    156     14    195    196  36.7   4.2  34118  288.87 0855.21
2009/04/23 09:28:41.1      10    142     36    143    148   4.0  14.3  34120  288.91 0855.21
2009/04/23 09:28:41.2     -52     39     68     65     94 306.9  50.7  34128  289.04 0855.21
2009/04/23 09:28:41.3     -79     15    113     81    139 281.0  60.6  34132  289.11 0855.21
2009/04/23 09:28:41.4      32     59    148     68    162  29.0  74.0  34128  289.04 0855.21
2009/04/23 09:28:41.5      68    -49    186     84    204 125.9  74.2  34114  288.80 0855.21
2009/04/23 09:28:41.6     163     73    207    179    273  65.8  54.8  34120  288.90 0855.20
2009/04/23 09:28:41.7     138     56    179    150    233  67.8  56.3  34190  290.08 0855.20
2009/04/23 09:28:41.8     116    108    175    159    236  46.9  53.2  34272  291.47 0855.20
2009/04/23 09:28:41.9      92     60    142    111    180  56.7  58.2  34252  291.15 0855.20
2009/04/23 09:28:42.0      66     44    116     80    140  55.8  62.1  34190  290.09 0855.20
2009/04/23 09:28:42.1      33     -6    108     34    113 101.5  81.2  34172  289.79 0855.20
2009/04/23 09:28:42.2      -6     72     89     73    115 354.7  56.4  34266  291.37 0855.20
2009/04/23 09:28:42.3     -10    136    114    137    178 355.5  44.1  34262  291.30 0855.20
2009/04/23 09:28:42.4     -95    186    120    209    241 332.9  32.4  34188  290.06 0855.20
2009/04/23 09:28:42.5     -97    153     90    182    203 327.5  28.5  34192  290.13 0855.20
2009/04/23 09:28:42.6     -62    126    165    141    217 333.7  55.0  34236  290.87 0855.21
2009/04/23 09:28:42.7     -66     90    107    112    154 323.5  49.0  34284  291.69 0855.21
2009/04/23 09:28:42.8     -51     68     42     86     95 323.0  27.8  34234  290.84 0855.21
2009/04/23 09:28:42.9    -115     50     24    126    129 293.6  11.0  34244  290.99 0855.21
2009/04/23 09:28:43.0     -99     68      3    121    122 304.6   1.8  34208  290.40 0855.21
2009/04/23 09:28:43.1    -119     48     47    129    137 292.2  21.0  34214  290.50 0855.21
2009/04/23 09:28:43.2    -116     -8      6    117    118 265.6   3.3  34228  290.72 0855.21
2009/04/23 09:28:43.3    -132    -94     31    163    166 234.5  10.8  34156  289.52 0855.21
2009/04/23 09:28:43.4     -83    -84     49    119    128 224.7  23.6  34164  289.63 0855.21
2009/04/23 09:28:43.5    -140   -115     83    182    200 230.5  26.2  34208  290.38 0855.21
2009/04/23 09:28:43.6    -214    -42     80    219    233 258.8  20.7  34216  290.53 0855.21
2009/04/23 09:28:43.7    -188    113     75    220    233 300.9  18.9  34212  290.45 0855.21
2009/04/23 09:28:43.8     -84    133     83    158    178 327.5  30.1  34204  290.33 0855.21
2009/04/23 09:28:43.9      -6    143     53    144    153 357.3  20.9  34208  290.38 0855.21
2009/04/23 09:28:44.0      31    107     77    112    135  16.5  37.6  34212  290.47 0855.21
2009/04/23 09:28:44.1     106     65    104    125    162  58.5  44.3  34198  290.21 0855.21
2009/04/23 09:28:44.2     129     46     84    138    161  70.1  34.2  34176  289.84 0855.21
2009/04/23 09:28:44.3      67     82     54    107    119  39.2  29.2  34192  290.13 0855.21
2009/04/23 09:28:44.4     125     91     42    155    161  54.0  15.3  34248  291.06 0855.21
2009/04/23 09:28:44.5     101     63     83    120    145  58.0  37.6  34156  289.50 0855.21
2009/04/23 09:28:44.6      96     69     89    119    148  54.5  40.7  34126  288.99 0855.24
2009/04/23 09:28:44.7      26     79    158     84    178  18.3  69.6  34128  289.04 0855.24
2009/04/23 09:28:44.8      -3    -44    162     45    168 184.5  84.4  34148  289.36 0855.24
2009/04/23 09:28:44.9      12      0    177     13    177  94.4  90.0  34152  289.45 0855.24
2009/04/23 09:28:45.0       9    -41    214     42    218 167.5  89.4  34150  289.41 0855.24
2009/04/23 09:28:45.1    -136     92    231    165    283 304.0  60.8  34162  289.61 0855.24
2009/04/23 09:28:45.2    -110   -138    185    177    256 218.7  51.4  34156  289.51 0855.24
2009/04/23 09:28:45.3    -117   -197      9    230    231 210.8   2.3  34164  289.63 0855.24
2009/04/23 09:28:45.4    -260    270     51    375    379 316.1   7.8  34144  289.30 0855.24
2009/04/23 09:28:45.5    -296    216     19    367    368 306.2   3.0  34138  289.20 0855.24
2009/04/23 09:28:45.6    -307    257   -103    401    415 309.9 -14.4  34104  288.63 0855.24
2009/04/23 09:28:45.7    -256    204   -116    328    348 308.5 -19.5  34084  288.28 0855.24
2009/04/23 09:28:45.8    -294    213   -128    364    386 306.0 -19.4  34094  288.47 0855.24
2009/04/23 09:28:45.9    -223    196    -82    298    309 311.3 -20.0  34090  288.39 0855.24
2009/04/23 09:28:46.0    -212    195    -66    289    297 312.7 -12.9  34090  288.39 0855.24
2009/04/23 09:28:46.1    -202    214    -69    295    304 316.7 -13.3  34072  288.09 0855.24
2009/04/23 09:28:46.2    -214    231    -63    316    323 317.2 -11.3  34080  288.21 0855.24
2009/04/23 09:28:46.3    -220    233    -37    321    324 316.6  -6.7  34096  288.49 0855.24
2009/04/23 09:28:46.4    -287     63   -169    294    339 282.4 -36.8  34100  288.56 0855.24
2009/04/23 09:28:46.5    -232      6   -158    233    281 271.7 -41.8  34108  288.68 0855.24
2009/04/23 09:28:46.6    -167    -10    -83    168    187 266.3 -32.2  34104  288.62 0855.21
2009/04/23 09:28:46.7     -86     28    -36     91     97 288.4 -26.4  34102  288.58 0855.21
2009/04/23 09:28:46.8    -101     32    -12    107    108 287.7  -6.7  34110  288.72 0855.21
2009/04/23 09:28:46.9     -74     47     -3     88     89 302.4  -2.2  34118  288.87 0855.21
2009/04/23 09:28:47.0       6     97     19     98    100   4.0  11.1  34114  288.79 0855.21
2009/04/23 09:28:47.1      60    117     20    132    134  27.1   8.9  34112  288.75 0855.21
2009/04/23 09:28:47.2     129    232     56    266    273  29.0  12.0  34124  288.97 0855.21
2009/04/23 09:28:47.3     253    291     70    386    393  41.0  10.3  34132  289.10 0855.21
2009/04/23 09:28:47.4     158    306     98    345    359  27.3  15.9  34126  288.98 0855.21
2009/04/23 09:28:47.5     -72    284    -42    294    298 345.7  -8.3  34110  288.73 0855.21
2009/04/23 09:28:47.6    -111     53   -187    124    224 295.8 -68.0  34122  288.94 0855.21
2009/04/23 09:28:47.7    -339     92   -169    352    390 285.3 -31.7  34082  288.25 0855.21
2009/04/23 09:28:47.8    -272    -50   -179    277    329 259.5 -40.1  34100  288.54 0855.21
2009/04/23 09:28:47.9    -343    -84   -193    354    403 256.2 -35.3  34078  288.18 0855.21
2009/04/23 09:28:48.0    -326    -49   -292    330    440 261.3 -50.3  34070  288.06 0855.21
2009/04/23 09:28:48.1    -275   -105   -359    295    464 249.1 -60.8  34088  288.36 0855.21
2009/04/23 09:28:48.2    -173   -331   -274    374    463 207.7 -44.1  34114  288.78 0855.21
2009/04/23 09:28:48.3    -167   -326   -327    367    491 207.1 -50.8  34118  288.85 0855.21
2009/04/23 09:28:48.4     -83   -430   -169    439    470 191.0 -26.6  34128  289.02 0855.21
2009/04/23 09:28:48.5     -89   -575   -207    582    618 188.8 -19.6  34130  289.07 0855.21
2009/04/23 09:28:48.6     -71   -442   -260    448    517 189.2 -37.3  34140  289.22 0855.21
2009/04/23 09:28:48.7      59   -315   -313    321    448 169.3 -53.7  34128  289.04 0855.21
2009/04/23 09:28:48.8      12   -320   -155    321    356 177.8 -32.2  34110  288.72 0855.21
2009/04/23 09:28:48.9     236   -356   -133    428    448 146.5 -22.4  34114  288.80 0855.21
2009/04/23 09:28:49.0     102   -488   -302    499    583 168.1 -38.5  34118  288.85 0855.21
2009/04/23 09:28:49.1     315   -380   -150    494    516 140.4 -21.8  34116  288.83 0855.21
2009/04/23 09:28:49.2     316    -97   -113    331    349 107.1 -23.7  34122  288.94 0855.21
2009/04/23 09:28:49.3      17   -132    -98    134    166 172.4 -44.5  34126  289.01 0855.21
2009/04/23 09:28:49.4     304     74    -53    313    318  76.3  -9.7  34126  289.00 0855.21
2009/04/23 09:28:49.5     251    250   -186    355    400  45.1 -34.2  34126  289.01 0855.21
2009/04/23 09:28:49.6     -32    233    -73    236    247 352.2 -22.1  34126  288.98 0855.21
2009/04/23 09:28:49.7    -118    173   -352    210    409 325.7 -70.9  34130  289.06 0855.21
2009/04/23 09:28:49.8     211   -175   -205    275    343 129.6 -45.0  34132  289.09 0855.21
2009/04/23 09:28:49.9     394     55    -31    398    400  82.0  -4.6  34126  288.99 0855.21
2009/04/23 09:28:50.0     490    108    -44    502    505  77.5  -5.1  34116  288.81 0855.21
2009/04/23 09:28:50.1     439    163    213    469    515  69.6  26.2  34096  288.49 0855.21
2009/04/23 09:28:50.2     384     29    231    386    449  85.7  33.6  34094  288.46 0855.21
2009/04/23 09:28:50.3     558     42    397    560    686  85.7  39.0  34100  288.55 0855.21
2009/04/23 09:28:50.4     513     43    250    515    572  85.2  27.8  34080  288.23 0855.21
2009/04/23 09:28:50.5     291     54    455    296    542  79.4  64.1  34104  288.61 0855.21
2009/04/23 09:28:50.6     339   -141    330    368    494 112.6  46.5  34112  288.77 0855.18
2009/04/23 09:28:50.7     229   -348    293    417    509 146.6  38.6  34120  288.88 0855.18
2009/04/23 09:28:50.8      89   -389    190    400    442 167.1  27.3  34118  288.85 0855.18
2009/04/23 09:28:50.9     167   -352    214    390    444 154.5  31.3  34110  288.72 0855.18
2009/04/23 09:28:51.0       0   -169     81    170    188 180.0  27.3  34108  288.69 0855.18
2009/04/23 09:28:51.1      -5   -368      4    369    370 180.9   0.7  34102  288.59 0855.18
2009/04/23 09:28:51.2     181    -72   -105    196    222 111.8 -35.2  34106  288.65 0855.18
2009/04/23 09:28:51.3     155     51     39    164    169  71.6  13.7  34090  288.40 0855.18
2009/04/23 09:28:51.4     252    -24    235    254    346  95.5  47.7  34102  288.59 0855.18
2009/04/23 09:28:51.5     162   -105    223    194    295 123.1  54.3  34108  288.68 0855.18
2009/04/23 09:28:51.6     -21   -278    171    279    327 184.4  34.4  34102  288.59 0855.18
2009/04/23 09:28:51.8     156   -214     57    266    273 143.9  12.1  34100  288.56 0855.18
2009/04/23 09:28:51.9      13    -16    175     21    176 140.4  90.0  34102  288.58 0855.18
2009/04/23 09:28:52.0     -15   -117     96    119    152 187.6  43.7  34108  288.70 0855.18
2009/04/23 09:28:52.1    -184   -208    148    278    314 221.5  30.3  34108  288.68 0855.18
2009/04/23 09:28:52.2    -131   -286     78    315    325 204.7  13.9  34106  288.66 0855.18
2009/04/23 09:28:52.3     -48   -342      9    346    347 188.0   1.6  34106  288.66 0855.18
2009/04/23 09:28:52.4      97   -292    119    308    330 161.5  22.0  34096  288.48 0855.18
2009/04/23 09:28:52.5     221   -282    125    359    381 141.9  19.2  34100  288.57 0855.18
2009/04/23 09:28:52.6     240   -417     51    482    485 150.1   6.1  34096  288.49 0855.18
2009/04/23 09:28:52.7     313   -231    106    390    405 126.4  15.2  34104  288.62 0855.18
2009/04/23 09:28:52.8     260   -354    122    440    457 143.7  15.6  34090  288.39 0855.18
2009/04/23 09:28:52.9     284   -240    215    373    430 130.2  32.6  34096  288.48 0855.18
2009/04/23 09:28:53.0     373     39     49    376    380  83.9   7.4  34094  288.47 0855.18
2009/04/23 09:28:53.1     517     55     10    520    521  83.9   1.1  34100  288.55 0855.18
2009/04/23 09:28:53.2     514     33     38    516    518  86.3   4.2  34094  288.46 0855.18
2009/04/23 09:28:53.3     453     50    109    456    469  83.6  13.5  34094  288.46 0855.18
2009/04/23 09:28:53.4     392     32    184    394    434  85.2  27.0  34088  288.34 0855.18
2009/04/23 09:28:53.5     314     -4    294    315    430  90.8  47.9  34084  288.30 0855.18
2009/04/23 09:28:53.6     263      8    333    264    424  88.1  57.6  34084  288.30 0855.18
2009/04/23 09:28:53.7     142     -3    255    143    292  91.3  68.5  34090  288.37 0855.18
2009/04/23 09:28:53.8     580    100    437    589    733  80.2  40.2  34094  288.46 0855.18
2009/04/23 09:28:53.9     230     22    370    232    436  84.3  64.9  34098  288.52 0855.18
2009/04/23 09:28:54.0     -15   -133    206    134    245 186.7  64.1  34104  288.62 0855.18
2009/04/23 09:28:54.1     300   -187    223    354    418 121.9  35.5  34100  288.57 0855.18
2009/04/23 09:28:54.2     382   -112    211    399    451 106.4  30.2  34102  288.60 0855.18
2009/04/23 09:28:54.3     390    -47    180    393    432  96.9  26.3  34100  288.55 0855.18
2009/04/23 09:28:54.4     410     17    194    411    454  87.6  27.1  34096  288.50 0855.18
2009/04/23 09:28:54.5     297    -70    191    306    360 103.3  35.1  34102  288.59 0855.18
2009/04/23 09:28:54.6     367    -27    168    368    404  94.3  26.2  34098  288.52 0855.18
2009/04/23 09:28:54.7     374     68     68    381    388  79.7  10.1  34100  288.55 0855.19
2009/04/23 09:28:54.8     369     45    219    372    431  83.0  33.3  34100  288.55 0855.19
2009/04/23 09:28:54.9     238    151    138    282    313  57.6  28.0  34106  288.65 0855.19
2009/04/23 09:28:55.0     272     82    114    285    306  73.2  23.0  34108  288.68 0855.19
2009/04/23 09:28:55.1     200     96    120    223    253  64.2  30.6  34108  288.68 0855.19
2009/04/23 09:28:55.2     278    110    206    300    363  68.3  37.7  34100  288.54 0855.19
2009/04/23 09:28:55.3     396     19    163    397    429  87.2  23.6  34102  288.58 0855.19
2009/04/23 09:28:55.4     443     30    224    444    497  86.1  28.7  34108  288.69 0855.19
2009/04/23 09:28:55.5     380     55    269    385    469  81.7  38.5  34114  288.78 0855.19
2009/04/23 09:28:55.6     242     38    291    246    381  81.0  55.7  34116  288.84 0855.19
2009/04/23 09:28:55.7     359    170    345    398    526  64.7  45.4  34136  289.17 0855.19
2009/04/23 09:28:55.8     301     81    358    312    474  74.9  54.6  34112  288.75 0855.19
2009/04/23 09:28:55.9     201   -128    209    239    317 122.6  45.8  34112  288.75 0855.19
2009/04/23 09:28:56.0     304    136    167    334    373  65.9  28.5  34110  288.74 0855.19
2009/04/23 09:28:56.1     314    128    216    340    402  67.8  35.5  34120  288.91 0855.19
2009/04/23 09:28:56.2     361   -177    273    403    486 116.1  37.3  34106  288.65 0855.19
2009/04/23 09:28:56.3     196   -186    238    271    360 133.6  45.8  34110  288.74 0855.19
2009/04/23 09:28:56.4     191   -316    216    370    428 148.9  33.1  34108  288.68 0855.19
2009/04/23 09:28:56.5     101   -329    279    345    443 163.0  43.3  34108  288.70 0855.19
2009/04/23 09:28:56.6     183   -373    263    416    492 153.8  35.5  34114  288.79 0855.19
2009/04/23 09:28:56.7     254   -348    288    431    518 143.9  37.0  34112  288.76 0855.17
2009/04/23 09:28:56.8     178   -214    220    279    355 140.3  42.2  34112  288.77 0855.17
2009/04/23 09:28:56.9       5   -171    245    172    299 178.2  61.5  34106  288.66 0855.17
2009/04/23 09:28:57.0     -87   -287    305    301    428 196.9  50.2  34112  288.76 0855.17
2009/04/23 09:28:57.1     -26   -433    398    434    588 183.5  47.3  34114  288.80 0855.17
2009/04/23 09:28:57.2    -136   -349    277    375    466 201.3  40.0  34120  288.89 0855.17
2009/04/23 09:28:57.3    -144   -380    285    407    496 200.8  38.5  34118  288.86 0855.17
2009/04/23 09:28:57.4    -284   -389    267    482    551 216.1  31.4  34120  288.91 0855.17
2009/04/23 09:28:57.5    -219   -419    288    473    553 207.6  34.2  34120  288.91 0855.17
2009/04/23 09:28:57.6    -232   -305    346    384    516 217.2  46.8  34116  288.84 0855.17
2009/04/23 09:28:57.7     -72    -42    212     84    228 239.3  77.1  34128  289.04 0855.17
2009/04/23 09:28:57.8      55     62    227     84    242  41.4  79.1  34122  288.94 0855.17
2009/04/23 09:28:57.9     134   -136    207    192    282 135.5  52.2  34116  288.83 0855.17
2009/04/23 09:28:58.0      58     -6    165     59    175  96.1  80.2  34116  288.84 0855.17
2009/04/23 09:28:58.1      83   -186    124    204    238 155.9  34.2  34114  288.80 0855.17
2009/04/23 09:28:58.2     363     85    235    373    440  76.8  35.5  34132  289.11 0855.17
2009/04/23 09:28:58.3     164    -46    289    171    335 105.7  66.8  34122  288.92 0855.17
2009/04/23 09:28:58.4      93     73    282    119    306  51.8  76.0  34124  288.97 0855.17
2009/04/23 09:28:58.5      55     11    228     57    235  78.5  86.2  34130  289.08 0855.17
2009/04/23 09:28:58.6     261   -118    260    287    387 114.4  46.9  34120  288.88 0855.17
2009/04/23 09:28:58.7     336   -159    361    372    518 115.3  49.2  34130  289.06 0855.19
2009/04/23 09:28:58.8     308    -82    304    319    440 105.1  48.5  34142  289.27 0855.19
2009/04/23 09:28:58.9     350    -61    336    356    489 100.0  48.2  34156  289.49 0855.19
2009/04/23 09:28:59.0     452    -83    290    460    543 100.5  35.5  34182  289.95 0855.19
2009/04/23 09:28:59.1     413     33    333    415    532  85.3  42.9  34180  289.91 0855.19
2009/04/23 09:28:59.2     400    102    401    413    575  75.6  49.1  34202  290.30 0855.19
2009/04/23 09:28:59.3     226    117    278    255    377  62.5  52.7  34162  289.62 0855.19
2009/04/23 09:28:59.4     326     80    261    336    425  76.2  41.7  34190  290.08 0855.19
2009/04/23 09:28:59.5     192    104    346    219    409  61.4  64.7  34202  290.28 0855.19
2009/04/23 09:28:59.6     192     69    392    205    442  70.1  70.5  34188  290.06 0855.19
2009/04/23 09:28:59.7     251     33    347    254    430  82.3  60.5  34178  289.89 0855.19
2009/04/23 09:28:59.8     323     43    385    326    504  82.3  55.7  34144  289.31 0855.19
2009/04/23 09:28:59.9     268     78    375    280    468  73.8  59.8  34168  289.70 0855.19
2009/04/23 09:29:00.0     148     94    317    176    362  57.4  68.8  34194  290.14 0855.19
2009/04/23 09:29:00.1      36      0    241     37    243  90.0  90.0  34192  290.13 0855.19
2009/04/23 09:29:00.2     110    -89    252    142    289 129.1  68.3  34184  289.97 0855.19
2009/04/23 09:29:00.3     165   -358    294    395    492 155.3  40.4  34140  289.22 0855.19
2009/04/23 09:29:00.4      41   -300    255    303    396 172.2  44.5  34146  289.33 0855.19
2009/04/23 09:29:00.5     162   -368    158    403    432 156.2  22.7  34108  288.68 0855.19
2009/04/23 09:29:00.6      41   -287    261    291    390 171.8  46.6  34102  288.60 0855.19
2009/04/23 09:29:00.7     116   -151    239    191    305 142.6  57.1  34110  288.73 0855.19
2009/04/23 09:29:00.8     215    -55    181    223    287 104.4  43.5  34118  288.87 0855.19
2009/04/23 09:29:00.9     347   -129    294    371    473 110.5  42.4  34116  288.82 0855.19
2009/04/23 09:29:01.0     422   -189    319    463    562 114.2  37.9  34104  288.62 0855.19
2009/04/23 09:29:01.1     238   -150    363    282    459 122.2  58.4  34108  288.68 0855.19
2009/04/23 09:29:01.2     295   -151    379    332    503 117.1  54.4  34106  288.65 0855.19
2009/04/23 09:29:01.3     208   -200    292    289    410 133.8  50.2  34116  288.81 0855.19
2009/04/23 09:29:01.4     149   -244    264    287    389 148.6  47.5  34112  288.77 0855.19
2009/04/23 09:29:01.5      94   -370    277    382    471 165.7  39.7  34114  288.78 0855.19
2009/04/23 09:29:01.6     -38   -418    227    420    477 185.3  30.8  34108  288.70 0855.19
2009/04/23 09:29:01.7     -35   -352    189    354    401 185.8  30.3  34106  288.66 0855.19
2009/04/23 09:29:01.8     -51   -379    161    383    415 187.7  24.2  34104  288.61 0855.19
2009/04/23 09:29:01.9     -90   -406    189    417    457 192.6  26.2  34108  288.68 0855.19
2009/04/23 09:29:02.0    -105   -383    156    398    427 195.4  22.7  34104  288.63 0855.19
2009/04/23 09:29:02.1     -64   -419     66    424    430 188.8   8.9  34104  288.61 0855.19
2009/04/23 09:29:02.2     -34   -334    198    336    390 185.9  33.4  34106  288.66 0855.19
2009/04/23 09:29:02.3     -98   -569    210    578    614 189.8  20.9  34100  288.54 0855.19
2009/04/23 09:29:02.4    -147   -590     30    609    610 194.0   2.9  34110  288.71 0855.19
2009/04/23 09:29:02.5    -150   -520    189    542    574 196.1  20.0  34104  288.63 0855.19
2009/04/23 09:29:02.6    -167   -596     49    620    623 195.7   4.6  34112  288.77 0855.19
2009/04/23 09:29:02.7    -239   -480     94    537    546 206.5  10.0  34108  288.70 0855.19
2009/04/23 09:29:02.8    -247   -446     -2    511    512 209.0  -0.3  34114  288.78 0855.19
2009/04/23 09:29:02.9    -164   -409    -76    441    448 201.9  -9.8  34118  288.85 0855.19
2009/04/23 09:29:03.0    -114   -375     30    393    395 196.9   4.4  34106  288.67 0855.19
2009/04/23 09:29:03.1    -158   -538    106    561    571 196.4  10.7  34108  288.69 0855.19
2009/04/23 09:29:03.2    -133   -558    239    574    621 193.4  23.9  34110  288.71 0855.19
2009/04/23 09:29:03.3     -55   -441    223    445    497 187.1  28.6  34110  288.74 0855.19
2009/04/23 09:29:03.4    -111   -461    106    475    487 193.5  12.6  34108  288.68 0855.19
2009/04/23 09:29:03.5     -73   -375    152    383    412 191.1  23.0  34106  288.67 0855.19
2009/04/23 09:29:03.6    -163   -339    228    377    440 205.7  34.1  34108  288.70 0855.19
2009/04/23 09:29:03.7    -174   -341    269    383    468 207.1  38.5  34108  288.68 0855.17
2009/04/23 09:29:03.8     -81   -162    153    182    237 206.5  44.5  34112  288.75 0855.17
2009/04/23 09:29:03.9    -106   -153     53    187    195 214.7  15.8  34110  288.74 0855.17
2009/04/23 09:29:04.0    -228   -101     53    250    256 246.0  12.0  34114  288.80 0855.17
2009/04/23 09:29:04.1     -86   -143     19    168    170 211.0   6.7  34114  288.80 0855.17
2009/04/23 09:29:04.2      23   -136     38    139    145 170.2  15.3  34112  288.77 0855.17
2009/04/23 09:29:04.3      31   -155    105    159    190 168.4  36.5  34112  288.77 0855.17
2009/04/23 09:29:04.4       0   -453    -74    454    461 180.0  -9.3  34116  288.83 0855.17
2009/04/23 09:29:04.5     -81   -284   -135    296    325 196.0 -30.7  34104  288.63 0855.17
2009/04/23 09:29:04.6    -223   -178   -127    286    312 231.4 -29.7  34116  288.81 0855.17
2009/04/23 09:29:04.7     -10   -281    -83    282    293 182.2 -21.2  34108  288.70 0855.17
2009/04/23 09:29:04.8     -53   -312    -82    317    328 189.8 -14.6  34114  288.78 0855.17
2009/04/23 09:29:04.9     -30   -359   -108    361    376 184.8 -21.6  34110  288.71 0855.17
2009/04/23 09:29:05.0    -122   -242    -79    272    283 206.7 -21.0  34114  288.78 0855.17
2009/04/23 09:29:05.1     -68   -255   -107    265    285 195.1 -27.5  34116  288.81 0855.17
2009/04/23 09:29:05.2       5   -287   -102    288    305 179.0 -24.6  34116  288.81 0855.17
2009/04/23 09:29:05.3      22   -372    -98    373    386 176.5 -14.8  34116  288.84 0855.17
2009/04/23 09:29:05.4     -20   -444   -129    445    464 182.7 -16.2  34116  288.82 0855.17
2009/04/23 09:29:05.5       7   -448    -98    449    460 179.0 -12.4  34118  288.85 0855.17
2009/04/23 09:29:05.6      69   -399    -67    406    412 170.1  -9.5  34118  288.87 0855.17
2009/04/23 09:29:05.7     114   -421    -76    437    444 164.9  -9.9  34118  288.87 0855.14
2009/04/23 09:29:05.8      44   -464   -167    467    497 174.6 -19.7  34116  288.81 0855.14
2009/04/23 09:29:05.9      64   -426   -189    431    470 171.4 -29.6  34122  288.94 0855.14
2009/04/23 09:29:06.0     -11   -363   -130    364    386 181.8 -24.8  34120  288.89 0855.14
2009/04/23 09:29:06.1      77   -517   -177    523    552 171.5 -23.8  34122  288.92 0855.14
2009/04/23 09:29:06.2      39   -543   -152    545    565 175.9 -20.2  34116  288.82 0855.14
2009/04/23 09:29:06.3    -183   -559   -166    589    613 198.2 -15.8  34120  288.88 0855.14
2009/04/23 09:29:06.4    -103   -572   -239    582    629 190.3 -28.0  34118  288.85 0855.14
2009/04/23 09:29:06.5     -86   -455   -217    464    512 190.7 -31.3  34120  288.90 0855.14
2009/04/23 09:29:06.6      -2   -188   -214    189    285 180.9 -58.6  34118  288.87 0855.14
2009/04/23 09:29:06.7    -221     -9    -86    222    238 267.6 -26.5  34118  288.87 0855.14
2009/04/23 09:29:06.8    -273      9   -121    274    299 271.9 -29.6  34120  288.90 0855.14
2009/04/23 09:29:06.9    -160   -464   -127    492    509 199.1 -14.5  34122  288.93 0855.14
2009/04/23 09:29:07.0    -138   -481   -112    501    514 196.1 -12.6  34118  288.86 0855.14
2009/04/23 09:29:07.1     -29   -355   -129    357    379 184.8 -25.1  34118  288.86 0855.14
2009/04/23 09:29:07.2       8   -336   -123    337    358 178.6 -25.4  34120  288.89 0855.14
2009/04/23 09:29:07.3     132   -347   -115    372    390 159.2 -17.2  34116  288.82 0855.14
2009/04/23 09:29:07.4     107   -323    -23    341    342 161.5  -4.0  34114  288.79 0855.14
2009/04/23 09:29:07.5     -57   -456   -163    460    489 187.2 -19.5  34116  288.84 0855.14
2009/04/23 09:29:07.6    -215   -260   -148    338    368 219.6 -29.6  34112  288.77 0855.14
2009/04/23 09:29:07.7    -234   -212   -109    317    336 227.8 -19.1  34120  288.88 0855.14
2009/04/23 09:29:07.8    -405   -373    -33    551    552 227.3  -3.5  34118  288.87 0855.14
2009/04/23 09:29:07.9    -381   -460   -161    598    620 219.7 -15.1  34112  288.75 0855.14
2009/04/23 09:29:08.0    -288   -287   -199    407    453 225.1 -32.4  34114  288.80 0855.14
2009/04/23 09:29:08.1    -300    -31    171    302    347 263.9  32.0  34112  288.76 0855.14
2009/04/23 09:29:08.2    -145   -126     85    193    210 229.1  25.2  34118  288.86 0855.14
2009/04/23 09:29:08.3    -196    -31     10    199    200 260.8   3.1  34116  288.84 0855.14
2009/04/23 09:29:08.4    -143   -121   -126    188    226 229.6 -41.4  34122  288.92 0855.14
2009/04/23 09:29:08.5    -214    -85    -55    231    238 248.2 -13.4  34118  288.87 0855.14
2009/04/23 09:29:08.6    -179      1     98    180    204 270.6  31.3  34122  288.92 0855.14
2009/04/23 09:29:08.7     -27    -82    172     87    192 198.7  71.4  34122  288.94 0855.14
2009/04/23 09:29:08.8       0   -108    169    109    201 180.5  64.4  34122  288.94 0855.14
2009/04/23 09:29:08.9     -11   -146    137    147    200 184.5  47.9  34116  288.82 0855.14
2009/04/23 09:29:09.0     -69   -109     96    130    161 212.5  40.4  34114  288.79 0855.14
2009/04/23 09:29:09.1     141    -67    204    157    257 115.3  58.7  34122  288.94 0855.14
2009/04/23 09:29:09.2     216    -75    168    229    284 109.3  39.9  34120  288.90 0855.14
2009/04/23 09:29:09.3     142   -117    103    185    211 129.5  31.6  34118  288.86 0855.14
2009/04/23 09:29:09.4      84   -181    198    200    281 155.1  50.0  34118  288.87 0855.14
2009/04/23 09:29:09.5     104   -150    186    183    260 145.3  50.2  34118  288.85 0855.14
2009/04/23 09:29:09.6      89   -187    209    208    294 154.4  50.1  34122  288.93 0855.14
2009/04/23 09:29:09.7     160   -246    235    294    376 147.0  42.7  34118  288.86 0855.15
2009/04/23 09:29:09.8      96   -237    201    256    325 157.9  42.2  34124  288.95 0855.15
2009/04/23 09:29:09.9      38   -189    105    193    219 168.5  31.3  34120  288.91 0855.15
2009/04/23 09:29:10.0      -3   -209     41    210    215 180.9  11.1  34120  288.91 0855.15
2009/04/23 09:29:10.1      16   -266     -1    267    268 176.4  -0.3  34122  288.92 0855.15
2009/04/23 09:29:10.2      -7   -254      7    255    256 181.8   1.6  34120  288.88 0855.15
2009/04/23 09:29:10.3      10   -259     22    260    262 177.8   5.0  34118  288.87 0855.15
2009/04/23 09:29:10.4      33   -254     13    257    258 172.4   2.9  34124  288.95 0855.15
2009/04/23 09:29:10.5      41   -319    103    322    339 172.7  17.8  34118  288.86 0855.15
2009/04/23 09:29:10.6      76   -238     91    250    266 162.2  20.7  34120  288.88 0855.15
2009/04/23 09:29:10.7      63   -192     52    203    210 161.7  14.5  34118  288.87 0855.15
2009/04/23 09:29:10.8      67   -126     81    143    164 151.9  32.4  34118  288.86 0855.15
2009/04/23 09:29:10.9      60   -161    137    172    219 159.5  42.7  34118  288.87 0855.15
2009/04/23 09:29:11.0     124   -201    189    237    303 148.4  42.8  34118  288.87 0855.15
2009/04/23 09:29:11.1     149   -208    186    257    317 144.4  39.5  34122  288.93 0855.15
2009/04/23 09:29:11.2     323   -198    138    380    404 121.5  20.9  34122  288.93 0855.15
2009/04/23 09:29:11.3     327   -176    106    372    387 118.4  15.9  34126  288.98 0855.15
2009/04/23 09:29:11.4     264   -199    173    331    373 127.1  29.8  34122  288.94 0855.15
2009/04/23 09:29:11.5     204   -207     57    291    297 135.5  11.1  34126  288.98 0855.15
2009/04/23 09:29:11.6     144   -186    111    236    260 142.1  27.1  34122  288.93 0855.15
2009/04/23 09:29:11.7      73   -254    122    265    291 163.9  26.4  34124  288.95 0855.12
2009/04/23 09:29:11.8     109   -221    133    247    280 153.7  30.8  34124  288.95 0855.12
2009/04/23 09:29:11.9      81   -233    119    247    274 160.8  27.4  34124  288.95 0855.12
2009/04/23 09:29:12.0       4   -208     46    209    215 178.9  12.6  34122  288.94 0855.12
2009/04/23 09:29:12.1      20   -164      9    166    167 172.9   3.3  34126  288.99 0855.12
2009/04/23 09:29:12.2     -94   -174    -62    199    209 208.5 -17.3  34124  288.96 0855.12
2009/04/23 09:29:12.3    -128   -209    -88    246    262 211.4 -19.7  34122  288.93 0855.12
2009/04/23 09:29:12.4    -206   -133      3    246    247 237.1   0.8  34128  289.02 0855.12
2009/04/23 09:29:12.5    -189    -99    -24    214    216 242.2  -6.5  34126  288.99 0855.12
2009/04/23 09:29:12.6    -176    -62    -38    187    191 250.3 -11.5  34126  288.99 0855.12
2009/04/23 09:29:12.7    -173     -1     -9    174    175 269.4  -3.2  34124  288.96 0855.12
2009/04/23 09:29:12.8    -131     -3    -31    132    136 268.3 -13.4  34122  288.94 0855.12
2009/04/23 09:29:12.9    -165   -175    182    241    302 223.3  40.7  34116  288.83 0855.12
2009/04/23 09:29:13.0    -254   -183    165    314    354 234.3  29.8  34122  288.93 0855.12
2009/04/23 09:29:13.1    -192   -157     12    249    250 230.7   2.9  34122  288.93 0855.12
2009/04/23 09:29:13.2    -136    -81     59    159    169 239.3  21.0  34122  288.94 0855.12
2009/04/23 09:29:13.3    -120    -43    -30    128    132 250.0 -13.4  34118  288.86 0855.12
2009/04/23 09:29:13.4    -163    -66    -23    177    179 247.8  -7.7  34126  289.01 0855.12
2009/04/23 09:29:13.5    -253   -172   -138    306    335 235.8 -30.3  34124  288.97 0855.12
2009/04/23 09:29:13.6    -257   -147   -125    297    322 240.3 -28.6  34122  288.93 0855.12
2009/04/23 09:29:13.7    -201    -43    -74    206    218 257.8 -25.1  34122  288.94 0855.11
2009/04/23 09:29:13.8    -210    -37   -179    214    278 259.9 -48.5  34126  289.00 0855.11
2009/04/23 09:29:13.9    -182    -15   -185    183    260 265.0 -54.5  34132  289.09 0855.11
2009/04/23 09:29:14.0    -125    -63   -145    141    202 243.0 -55.1  34134  289.13 0855.11
2009/04/23 09:29:14.1    -106    -35   -152    112    188 251.4 -64.7  34136  289.16 0855.11
2009/04/23 09:29:14.2    -136     -8   -117    137    180 266.5 -49.2  34148  289.38 0855.11
2009/04/23 09:29:14.3     -75    -10   -114     76    137 262.1 -67.6  34154  289.46 0855.11
2009/04/23 09:29:14.4     -56    -11    -83     58    101 258.5 -65.9  34150  289.40 0855.11
2009/04/23 09:29:14.5     107    -71   -144    129    193 123.7 -57.9  34136  289.18 0855.11
2009/04/23 09:29:14.6      25    -25   -111     36    116 135.0 -85.1  34124  288.97 0855.11
2009/04/23 09:29:14.7    -130    -83   -132    155    203 237.6 -49.2  34142  289.26 0855.11
2009/04/23 09:29:14.8     -76     25    -99     81    127 288.6 -60.8  34136  289.16 0855.11
2009/04/23 09:29:14.9      14     18    -63     24     67  37.8 -83.6  34142  289.28 0855.11
2009/04/23 09:29:15.0      90    -57   -115    107    157 122.4 -56.6  34134  289.14 0855.11
2009/04/23 09:29:15.1     159   -139   -123    212    245 131.3 -37.1  34120  288.90 0855.11
2009/04/23 09:29:15.2     101     36    -51    108    119  70.5 -31.6  34124  288.96 0855.11
2009/04/23 09:29:15.3      52     17    -12     55     57  71.8 -12.4  34126  289.01 0855.11
2009/04/23 09:29:15.4      42    -16      5     46     47 111.7   6.9  34128  289.04 0855.11
2009/04/23 09:29:15.5     -15   -106    -46    108    117 188.0 -28.5  34126  289.01 0855.11
2009/04/23 09:29:15.6    -111    -97    -54    148    157 228.7 -25.4  34130  289.06 0855.11
2009/04/23 09:29:15.7     -52   -134    -70    144    160 201.4 -32.4  34128  289.02 0855.11
2009/04/23 09:29:15.8     -37   -190   -123    194    229 191.1 -39.9  34124  288.97 0855.11
2009/04/23 09:29:15.9      64   -239   -162    248    296 164.9 -40.7  34122  288.93 0855.11
2009/04/23 09:29:16.0      93   -360   -135    372    395 165.4 -25.2  34122  288.93 0855.11
2009/04/23 09:29:16.1      58   -337   -135    343    368 170.1 -27.1  34122  288.94 0855.11
2009/04/23 09:29:16.2     -59   -277    -62    284    291 192.0 -12.4  34122  288.93 0855.11
2009/04/23 09:29:16.3    -160   -339   -124    375    395 205.3 -18.3  34120  288.91 0855.11
2009/04/23 09:29:16.4    -108   -388      0    403    404 195.7   0.0  34122  288.92 0855.11
2009/04/23 09:29:16.5     -67   -300    -26    308    310 192.7  -4.9  34122  288.93 0855.11
2009/04/23 09:29:16.6    -137   -155    -84    208    224 221.4 -27.4  34118  288.87 0855.11
2009/04/23 09:29:16.7    -203   -111   -116    232    259 241.4 -32.9  34124  288.95 0855.11
2009/04/23 09:29:16.8    -129   -161   -165    207    264 218.7 -47.2  34122  288.92 0855.11
2009/04/23 09:29:16.9    -134   -176   -143    222    264 217.4 -40.0  34120  288.90 0855.11
2009/04/23 09:29:17.0     -71   -113    -10    134    135 212.5  -4.6  34112  288.77 0855.11
2009/04/23 09:29:17.1    -121   -148    -54    192    200 219.2 -15.8  34124  288.96 0855.11
2009/04/23 09:29:17.2     -76   -160    -64    178    189 205.3 -24.8  34124  288.97 0855.11
2009/04/23 09:29:17.3      24   -203    -73    205    218 173.1 -19.6  34118  288.87 0855.11
2009/04/23 09:29:17.4      -9   -175   -122    176    214 183.1 -42.2  34120  288.91 0855.11
2009/04/23 09:29:17.5       4   -237   -156    238    284 179.0 -40.9  34124  288.97 0855.11
2009/04/23 09:29:17.6      10   -209    -90    210    228 177.1 -29.0  34118  288.87 0855.11
2009/04/23 09:29:17.7       8   -168    -19    169    171 177.1  -6.5  34124  288.96 0855.15
2009/04/23 09:29:17.8      25   -146    -52    149    159 170.2 -19.4  34122  288.94 0855.15
2009/04/23 09:29:17.9      37   -177    -58    181    191 168.0 -17.9  34122  288.92 0855.15
2009/04/23 09:29:18.0      55   -193    -44    201    206 164.0 -12.6  34122  288.92 0855.15
2009/04/23 09:29:18.1      99   -190    -31    215    218 152.4  -8.2  34118  288.87 0855.15
2009/04/23 09:29:18.2     105   -204     14    230    231 152.6   3.6  34120  288.91 0855.15
2009/04/23 09:29:18.3      42   -249      2    253    254 170.2   0.5  34120  288.90 0855.15
2009/04/23 09:29:18.4      17   -222     17    223    224 175.5   4.6  34122  288.94 0855.15
2009/04/23 09:29:18.5      27   -221      3    223    224 172.9   0.8  34120  288.91 0855.15
2009/04/23 09:29:18.6      16   -182     21    183    185 174.9   6.7  34118  288.87 0855.15
2009/04/23 09:29:18.7      45   -204     59    209    218 167.5  15.8  34120  288.89 0855.15
2009/04/23 09:29:18.8      85   -255     57    269    276 161.5  12.0  34120  288.88 0855.15
2009/04/23 09:29:18.9      16   -234     90    235    251 176.0  22.0  34120  288.88 0855.15
2009/04/23 09:29:19.0      38   -264     89    267    282 171.8  18.5  34120  288.88 0855.15
2009/04/23 09:29:19.2      56   -270    116    276    299 168.2  24.1  34122  288.92 0855.15
2009/04/23 09:29:19.2      51   -173    119    181    216 163.3  36.5  34122  288.92 0855.15
2009/04/23 09:29:19.3     -10   -213    182    214    280 182.7  44.8  34122  288.92 0855.15
2009/04/23 09:29:19.4      59   -289     46    296    300 168.4   9.0  34122  288.92 0855.15
2009/04/23 09:29:19.6     156   -274     10    316    317 150.4   1.9  34118  288.87 0855.15
2009/04/23 09:29:19.7     216   -258     40    337    340 140.1   6.9  34120  288.89 0855.15
2009/04/23 09:29:19.8     151   -183     60    238    246 140.6  14.3  34120  288.90 0855.18
2009/04/23 09:29:19.9     135   -184     19    229    230 143.7   5.0  34118  288.87 0855.18
2009/04/23 09:29:20.0      96   -184     36    208    212 152.4   9.9  34120  288.89 0855.18
2009/04/23 09:29:20.1       0   -202      9    203    204 180.2   2.8  34122  288.92 0855.18
2009/04/23 09:29:20.2      67   -196     69    208    220 161.1  18.4  34120  288.89 0855.18
2009/04/23 09:29:20.3      95   -174     18    199    200 151.3   5.4  34120  288.89 0855.18
2009/04/23 09:29:20.4      59   -192    -33    202    205 162.8  -9.4  34120  288.91 0855.18
2009/04/23 09:29:20.5      53   -197     59    205    214 164.9  16.0  34120  288.89 0855.18
2009/04/23 09:29:20.6      19   -174     39    176    181 173.5  12.6  34120  288.89 0855.18
2009/04/23 09:29:20.7     -16   -211     18    212    213 184.4   5.0  34120  288.91 0855.18
2009/04/23 09:29:20.8     -59   -249     68    256    265 193.4  15.0  34122  288.92 0855.18
2009/04/23 09:29:20.9     -32   -260     61    263    271 187.1  13.1  34122  288.93 0855.18
2009/04/23 09:29:21.0      28   -234     57    236    243 173.1  13.7  34120  288.90 0855.18
2009/04/23 09:29:21.1      28   -323     75    325    334 175.0  13.1  34122  288.93 0855.18
2009/04/23 09:29:21.2      45   -263     87    267    281 170.3  18.1  34124  288.95 0855.18
2009/04/23 09:29:21.3     -38   -274     98    277    295 188.0  19.6  34122  288.92 0855.18
2009/04/23 09:29:21.4     -57   -239     -1    246    247 193.6  -0.3  34124  288.95 0855.18
2009/04/23 09:29:21.5     -19   -200    198    201    282 185.6  49.9  34122  288.93 0855.18
2009/04/23 09:29:21.6     -64   -291    217    299    369 192.5  39.5  34122  288.93 0855.18
2009/04/23 09:29:21.7     -47   -234    105    239    261 191.5  25.2  34120  288.90 0855.18
2009/04/23 09:29:21.8     -48   -233     -2    239    240 191.8  -0.7  34126  288.98 0855.25
2009/04/23 09:29:21.9    -108   -196      9    224    225 208.9   2.3  34122  288.94 0855.25
2009/04/23 09:29:22.0     -70   -190     26    203    205 200.5   7.5  34120  288.89 0855.25
2009/04/23 09:29:22.1     -83   -193      1    211    212 203.4   0.5  34124  288.96 0855.25
2009/04/23 09:29:22.2     -92   -160     43    185    190 209.9  13.1  34122  288.92 0855.25
2009/04/23 09:29:22.3    -102   -127     29    164    167 218.7  10.3  34126  289.01 0855.25
2009/04/23 09:29:22.4     -61    -96     23    115    118 212.5  11.6  34124  288.97 0855.25
2009/04/23 09:29:22.5    -105   -102     44    147    154 225.6  16.6  34128  289.04 0855.25
2009/04/23 09:29:22.6    -130   -135     18    188    189 223.9   5.7  34126  289.01 0855.25
2009/04/23 09:29:22.7     -62   -110     65    127    142 209.4  29.3  34126  288.99 0855.25
2009/04/23 09:29:22.8     -88   -121     81    150    170 216.1  30.6  34126  289.01 0855.25
2009/04/23 09:29:22.9    -198   -146     52    247    253 233.6  12.0  34128  289.03 0855.25
2009/04/23 09:29:23.0    -161    -84      3    182    183 242.2   1.2  34124  288.97 0855.25
2009/04/23 09:29:23.1     -99     -7    118    100    154 265.7  55.8  34130  289.08 0855.25
2009/04/23 09:29:23.2    -154    -79     95    174    198 242.9  31.0  34132  289.11 0855.25
2009/04/23 09:29:23.3    -220   -121    -59    252    259 241.1 -13.2  34134  289.12 0855.25
2009/04/23 09:29:23.4    -185   -103     76    212    225 240.9  20.4  34128  289.04 0855.25
2009/04/23 09:29:23.5    -136   -164    100    214    236 219.7  27.0  34128  289.04 0855.25
2009/04/23 09:29:23.6    -196   -196     49    278    283 225.0  10.1  34130  289.07 0855.25
2009/04/23 09:29:23.7    -195   -221     -6    295    296 221.4  -1.3  34130  289.05 0855.25
2009/04/23 09:29:23.8     -55   -172      9    181    182 197.8   2.9  34128  289.04 0855.28
2009/04/23 09:29:23.9     -48   -152     49    160    168 197.8  17.1  34130  289.08 0855.28
2009/04/23 09:29:24.0     -57   -193    100    202    225 196.5  28.0  34134  289.14 0855.28
2009/04/23 09:29:24.1      15   -182      8    183    184 175.1   2.8  34124  288.97 0855.28
2009/04/23 09:29:24.2      10   -138    -49    139    147 175.6 -24.4  34132  289.11 0855.28
2009/04/23 09:29:24.3     -99   -168    -26    196    198 210.7  -7.7  34122  288.92 0855.28
2009/04/23 09:29:24.4    -180   -168    -13    247    248 226.9  -3.1  34128  289.03 0855.28
2009/04/23 09:29:24.5    -182   -220    -37    286    289 219.7  -7.5  34132  289.10 0855.28
2009/04/23 09:29:24.6    -198   -103    103    224    246 242.5  26.4  34122  288.92 0855.28
2009/04/23 09:29:24.7    -223   -129    124    258    286 240.0  27.3  34132  289.10 0855.28
2009/04/23 09:29:24.8    -159   -225    157    276    317 215.2  32.1  34128  289.03 0855.20
2009/04/23 09:29:24.9    -122   -207    133    241    275 210.7  31.3  34134  289.14 0855.20
2009/04/23 09:29:25.0     -99   -187    129    212    248 208.1  34.4  34138  289.20 0855.20
2009/04/23 09:29:25.1     -98   -159     68    187    198 211.6  20.9  34134  289.13 0855.20
2009/04/23 09:29:25.2    -109   -145     41    182    187 217.0  12.9  34138  289.21 0855.20
2009/04/23 09:29:25.3     -91    -87      0    127    128 226.4   0.2  34146  289.35 0855.20
2009/04/23 09:29:25.4     -84    -29    -24     89     93 250.9 -15.0  34150  289.40 0855.20
2009/04/23 09:29:25.5     -51    -46     24     69     74 227.8  19.4  34146  289.35 0855.20
2009/04/23 09:29:25.6    -120     43     -5    128    129 290.0  -2.2  34138  289.21 0855.20
2009/04/23 09:29:25.7     -89     33    -34     96    101 290.4 -24.4  34122  288.92 0855.20
2009/04/23 09:29:25.8      60     60      8     86     87  45.0   5.9  34118  288.86 0855.20
2009/04/23 09:29:25.9      65    -88     69    110    129 143.5  35.5  34126  288.99 0855.20
2009/04/23 09:29:26.0     -15   -128     52    129    139 187.1  23.0  34132  289.11 0855.20
2009/04/23 09:29:26.1     -18   -151      7    153    154 187.1   2.9  34134  289.13 0855.20
2009/04/23 09:29:26.2      12   -125     24    126    129 174.2  11.0  34128  289.04 0855.20
2009/04/23 09:29:26.3      90   -124     66    154    167 144.0  24.6  34128  289.02 0855.20
2009/04/23 09:29:26.4      59   -124     68    138    153 154.5  27.8  34128  289.04 0855.20
2009/04/23 09:29:26.5       8   -153     37    154    159 176.9  13.5  34124  288.97 0855.20
2009/04/23 09:29:26.6     -85   -212     71    229    240 201.8  17.3  34134  289.12 0855.20
2009/04/23 09:29:26.7     -63   -192    109    203    230 198.3  30.8  34140  289.23 0855.20
2009/04/23 09:29:26.8    -109   -135    139    174    222 219.0  42.7  34140  289.23 0855.14
2009/04/23 09:29:26.9    -168    -47     74    175    190 254.1  24.3  34150  289.41 0855.14
2009/04/23 09:29:27.0    -164    -23     30    166    169 261.9  10.3  34156  289.52 0855.14
2009/04/23 09:29:27.1    -180      7     12    181    182 272.4   3.8  34156  289.52 0855.14
2009/04/23 09:29:27.2    -151     35     -6    156    157 283.3  -2.2  34144  289.31 0855.14
2009/04/23 09:29:27.3    -144    -65     32    159    163 245.6  11.6  34144  289.31 0855.14
2009/04/23 09:29:27.4    -120    -87     14    149    150 234.0   5.4  34154  289.46 0855.14
2009/04/23 09:29:27.5    -191   -165     44    253    257 229.1   9.9  34136  289.17 0855.14
2009/04/23 09:29:27.6    -196   -150      6    248    249 232.5   1.6  34134  289.12 0855.14
2009/04/23 09:29:27.7    -238   -166    -68    291    299 235.1 -13.3  34130  289.07 0855.14
2009/04/23 09:29:27.8    -149   -212      8    260    261 215.2   1.8  34128  289.03 0855.14
2009/04/23 09:29:27.9    -148   -233    -43    277    281 212.5  -8.8  34132  289.10 0855.14
2009/04/23 09:29:28.0    -165   -199    -10    259    260 219.7  -2.3  34132  289.10 0855.14
2009/04/23 09:29:28.1    -189   -228     -6    297    298 219.7  -1.2  34140  289.22 0855.14
2009/04/23 09:29:28.2    -195   -176     -5    263    264 228.0  -1.3  34138  289.20 0855.14
2009/04/23 09:29:28.3    -204   -217     -9    298    299 223.2  -1.8  34128  289.03 0855.14
2009/04/23 09:29:28.4    -212   -226     -6    311    312 223.2  -1.3  34130  289.05 0855.14
2009/04/23 09:29:28.5    -278   -210    -15    349    350 232.9  -2.6  34128  289.03 0855.14
2009/04/23 09:29:28.6    -246   -222      4    332    333 227.9   0.7  34128  289.04 0855.14
2009/04/23 09:29:28.7    -277   -242     72    369    377 228.9  11.1  34126  288.98 0855.11
2009/04/23 09:29:28.8    -199   -240     40    312    315 219.6   7.4  34126  288.98 0855.11
2009/04/23 09:29:28.9    -256   -251     -2    359    360 225.6  -0.4  34128  289.04 0855.11
2009/04/23 09:29:29.0    -338   -280    -51    439    443 230.4  -6.7  34124  288.97 0855.11
2009/04/23 09:29:29.1    -264   -215   -140    341    368 230.8 -27.9  34128  289.04 0855.11
2009/04/23 09:29:29.2    -156   -189   -134    246    280 219.6 -35.4  34124  288.95 0855.11
2009/04/23 09:29:29.3    -105   -229    -88    253    267 204.7 -24.3  34126  289.00 0855.11
2009/04/23 09:29:29.4    -140   -209     -1    252    253 213.8  -0.3  34130  289.05 0855.11
2009/04/23 09:29:29.5    -233   -192    108    303    321 230.5  20.2  34136  289.17 0855.11
2009/04/23 09:29:29.6    -252   -184     31    313    315 233.8   5.7  34132  289.10 0855.11
2009/04/23 09:29:29.7    -312   -231     59    389    394 233.4   8.7  34124  288.96 0855.11
2009/04/23 09:29:29.8    -282   -179     67    334    341 237.6  11.4  34128  289.04 0855.11
2009/04/23 09:29:29.9    -249   -229     36    339    341 227.4   6.1  34126  288.98 0855.11
2009/04/23 09:29:30.0    -201   -181     85    271    285 228.0  17.4  34128  289.02 0855.11
2009/04/23 09:29:30.1    -154   -126     35    200    204 230.7  10.1  34128  289.02 0855.11
2009/04/23 09:29:30.2    -191   -121     -8    227    228 237.6  -2.1  34136  289.16 0855.11
2009/04/23 09:29:30.3    -198    -95     -6    220    221 244.2  -1.8  34136  289.16 0855.11
2009/04/23 09:29:30.4    -182   -124     -1    221    222 235.6  -0.5  34132  289.09 0855.11
2009/04/23 09:29:30.5    -207   -150     29    256    258 234.0   6.5  34138  289.20 0855.11
2009/04/23 09:29:30.6    -144   -159     73    215    228 222.1  18.9  34130  289.08 0855.11
2009/04/23 09:29:30.7    -189   -233    -20    301    302 219.0  -3.9  34130  289.05 0855.11
2009/04/23 09:29:30.8    -180   -174    -27    251    253 226.0  -6.2  34128  289.02 0855.12
2009/04/23 09:29:30.9    -169   -213    -90    273    287 218.5 -23.8  34126  288.98 0855.12
2009/04/23 09:29:31.0    -223   -190    -37    294    297 229.6  -7.3  34130  289.05 0855.12
2009/04/23 09:29:31.1    -184   -215    -41    284    287 220.5  -8.2  34132  289.09 0855.12
2009/04/23 09:29:31.2    -162   -162    -34    230    233 225.1  -8.6  34126  289.01 0855.12
2009/04/23 09:29:31.3     -75   -187    -34    202    205 201.9  -9.6  34124  288.97 0855.12
2009/04/23 09:29:31.4     -24   -172     45    174    180 188.0  14.7  34134  289.13 0855.12
2009/04/23 09:29:31.5     -95   -146     -3    175    176 213.2  -1.3  34138  289.21 0855.12
2009/04/23 09:29:31.6    -107   -135     77    173    189 218.5  25.9  34134  289.13 0855.12
2009/04/23 09:29:31.7     -57   -124     40    137    143 204.9  16.3  34132  289.09 0855.12
2009/04/23 09:29:31.8     -56    -87     94    104    140 213.0  47.5  34132  289.09 0855.12
2009/04/23 09:29:31.9      -1     -8     85      9     85 189.7  90.0  34134  289.14 0855.12
2009/04/23 09:29:32.0      33    -98    126    104    163 161.3  56.4  34130  289.08 0855.12
2009/04/23 09:29:32.1      47   -136    144    145    204 160.8  50.0  34128  289.04 0855.12
2009/04/23 09:29:32.2      43   -111    111    120    163 158.6  47.9  34132  289.09 0855.12
2009/04/23 09:29:32.3       4   -123    121    124    173 177.8  49.8  34128  289.02 0855.12
2009/04/23 09:29:32.4      -8     -8    105     12    105 226.9  90.0  34136  289.16 0855.12
2009/04/23 09:29:32.5     -96     35    111    103    151 290.4  52.2  34140  289.24 0855.12
2009/04/23 09:29:32.6     -46     22    110     52    121 295.4  72.9  34140  289.24 0855.12
2009/04/23 09:29:32.7     -31    -49     70     59     91 212.6  55.8  34134  289.13 0855.12
2009/04/23 09:29:32.8     -88     -3     83     89    121 267.9  48.0  34132  289.11 0855.14
2009/04/23 09:29:32.9    -152     30     91    156    180 281.4  32.9  34134  289.13 0855.14
2009/04/23 09:29:33.0    -153     26    115    156    193 279.7  39.9  34132  289.11 0855.14
2009/04/23 09:29:33.1    -167     17     91    168    191 275.9  30.8  34134  289.13 0855.14
2009/04/23 09:29:33.2    -217    -39    117    221    250 259.6  30.2  34132  289.10 0855.14
2009/04/23 09:29:33.3    -194    -92     94    215    234 244.5  25.1  34130  289.08 0855.14
2009/04/23 09:29:33.4    -209    -99     63    232    241 244.6  15.2  34132  289.10 0855.14
2009/04/23 09:29:33.5    -129   -136    106    188    215 223.4  31.6  34126  289.01 0855.14
2009/04/23 09:29:33.6     -91   -138    126    166    208 213.6  41.2  34128  289.04 0855.14
2009/04/23 09:29:33.7    -101   -147     92    179    201 214.5  29.3  34138  289.19 0855.14
2009/04/23 09:29:33.8     -88   -171    155    193    247 207.4  43.0  34150  289.41 0855.14
2009/04/23 09:29:33.9    -110   -172    167    205    264 212.5  43.7  34150  289.41 0855.14
2009/04/23 09:29:34.0    -145   -144    110    205    232 225.1  30.8  34174  289.80 0855.14
2009/04/23 09:29:34.1     -78   -160    105    179    207 206.1  33.4  34178  289.87 0855.14
2009/04/23 09:29:34.2     -30   -177    151    180    234 189.6  44.3  34152  289.45 0855.14
2009/04/23 09:29:34.3     -63   -185    128    196    234 198.9  35.7  34178  289.87 0855.14
2009/04/23 09:29:34.4     -89   -183    160    204    259 206.1  42.2  34150  289.41 0855.14
2009/04/23 09:29:34.5     -85   -167    157    188    244 207.2  43.8  34148  289.38 0855.14
2009/04/23 09:29:34.6     -97   -150    105    180    208 213.0  33.1  34150  289.41 0855.14
2009/04/23 09:29:34.7    -113   -158    156    195    249 215.6  42.8  34138  289.19 0855.14
2009/04/23 09:29:34.8     -91   -125    159    155    222 216.1  50.7  34134  289.13 0855.16
2009/04/23 09:29:34.9    -101   -138    167    172    239 216.3  49.2  34146  289.35 0855.16
2009/04/23 09:29:35.0    -130   -138    133    190    231 223.2  38.4  34156  289.50 0855.16
2009/04/23 09:29:35.1    -148   -169    116    225    253 221.2  29.3  34164  289.63 0855.16
2009/04/23 09:29:35.2    -153   -198    103    251    271 217.8  23.4  34148  289.36 0855.16
2009/04/23 09:29:35.3     -73   -220    107    233    256 198.5  26.4  34128  289.03 0855.16
2009/04/23 09:29:35.4     -60   -218     98    227    247 195.4  24.9  34128  289.03 0855.16
2009/04/23 09:29:35.5    -155   -193    115    248    273 218.7  26.6  34188  290.03 0855.16
2009/04/23 09:29:35.6    -166   -137    102    216    238 230.5  27.2  34202  290.30 0855.16
2009/04/23 09:29:35.7    -156   -123     82    199    215 231.8  23.4  34184  289.97 0855.16
2009/04/23 09:29:35.8     -87   -101    100    134    167 220.5  40.9  34170  289.75 0855.16
2009/04/23 09:29:35.9    -220    -76     45    233    238 250.9  11.1  34204  290.31 0855.16
2009/04/23 09:29:36.0    -209    -70     10    221    222 251.4   2.8  34180  289.92 0855.16
2009/04/23 09:29:36.1    -144    -37      7    149    150 255.4   2.9  34178  289.87 0855.16
2009/04/23 09:29:36.2    -128   -142     83    192    209 222.1  25.1  34176  289.84 0855.16
2009/04/23 09:29:36.3     -63   -203     79    213    227 197.4  21.3  34172  289.79 0855.16
2009/04/23 09:29:36.4     -79   -136     13    158    159 210.3   4.9  34178  289.89 0855.16
2009/04/23 09:29:36.5       4   -116     86    117    145 177.8  39.7  34160  289.57 0855.16
2009/04/23 09:29:36.6      26    -87     74     92    118 163.1  43.7  34136  289.16 0855.16
2009/04/23 09:29:36.7     102    -78     69    129    146 127.3  30.8  34122  288.92 0855.16
2009/04/23 09:29:36.8     125    -59    121    139    184 115.3  45.6  34122  288.94 0855.18
2009/04/23 09:29:36.9     191    -52    113    199    228 105.3  32.1  34146  289.33 0855.18
2009/04/23 09:29:37.0     158    -66     98    172    197 112.8  32.4  34146  289.35 0855.18
2009/04/23 09:29:37.1     159     -2    126    160    203  90.8  42.2  34142  289.26 0855.18
2009/04/23 09:29:37.2     207     28    195    209    285  82.1  47.9  34154  289.47 0855.18
2009/04/23 09:29:37.3     202    -71    138    215    255 109.3  35.6  34160  289.56 0855.18
2009/04/23 09:29:37.4     182     34    103    186    212  79.2  31.4  34204  290.33 0855.18
2009/04/23 09:29:37.5     132    120     86    179    198  47.8  27.4  34216  290.53 0855.18
2009/04/23 09:29:37.6     142    100     59    174    184  54.9  18.9  34222  290.62 0855.18
2009/04/23 09:29:37.7      99     13     35    100    107  82.1  19.4  34212  290.47 0855.18
2009/04/23 09:29:37.8      33     -6     26     34     42 101.5  41.7  34210  290.43 0855.18
2009/04/23 09:29:37.9      -1    -34     29     35     45 182.6  44.8  34214  290.50 0855.18
2009/04/23 09:29:38.0      -3    -46     28     47     54 184.5  34.4  34224  290.67 0855.18
2009/04/23 09:29:38.1      61    -39     44     73     85 122.5  34.4  34220  290.60 0855.18
2009/04/23 09:29:38.2     100    -97      8    140    141 134.4   3.3  34204  290.33 0855.18
2009/04/23 09:29:38.3      77   -176     46    193    199 156.2  13.5  34172  289.79 0855.18
2009/04/23 09:29:38.4      -4   -182     64    183    195 181.4  19.4  34178  289.89 0855.18
2009/04/23 09:29:38.5       2   -180     42    181    186 179.3  13.2  34190  290.08 0855.18
2009/04/23 09:29:38.6      32    -78     52     85     99 157.3  34.4  34192  290.13 0855.18
2009/04/23 09:29:38.7      47     -3     26     48     54  94.4  31.4  34194  290.16 0855.18
2009/04/23 09:29:38.8     108     51    -19    120    122  64.8  -9.3  34198  290.21 0855.18
2009/04/23 09:29:38.9      70    153     22    169    171  24.5   7.5  34184  289.97 0855.18
2009/04/23 09:29:39.0     113     37    144    119    186  71.8  56.3  34150  289.40 0855.18
2009/04/23 09:29:39.1      37    -44    111     58    125 140.4  70.4  34162  289.60 0855.18
2009/04/23 09:29:39.2      73    -69    108    101    147 133.1  52.2  34158  289.55 0855.18
2009/04/23 09:29:39.3      77    -58     57     97    112 127.3  33.5  34138  289.21 0855.18
2009/04/23 09:29:39.4      57    -58     82     82    115 135.9  50.1  34130  289.06 0855.18
2009/04/23 09:29:39.5      25    -40     63     48     79 148.4  59.0  34130  289.06 0855.18
2009/04/23 09:29:39.6      -1    -53     80     54     96 181.8  63.2  34130  289.06 0855.18
2009/04/23 09:29:39.7       1    -33     77     34     84 177.3  75.5  34134  289.14 0855.18
2009/04/23 09:29:39.8      -9    -24     79     26     83 201.8  81.2  34134  289.14 0855.18
2009/04/23 09:29:39.9      20   -126    133    128    184 170.7  50.9  34132  289.11 0855.18
2009/04/23 09:29:40.0     107   -155    161    189    248 145.5  44.8  34136  289.18 0855.18
2009/04/23 09:29:40.1      80   -139     81    161    180 150.1  28.7  34134  289.14 0855.18
2009/04/23 09:29:40.2     109   -128     95    169    193 139.7  31.9  34126  288.99 0855.18
2009/04/23 09:29:40.3     173    -97    136    199    241 119.3  37.6  34124  288.97 0855.18
2009/04/23 09:29:40.4     175    -48    133    182    225 105.3  39.7  34152  289.45 0855.18
2009/04/23 09:29:40.5      94    -60    107    112    154 122.9  49.0  34158  289.53 0855.18
2009/04/23 09:29:40.6     -44    -87    106     98    144 207.2  52.2  34152  289.45 0855.18
2009/04/23 09:29:40.7     -74   -185     94    200    220 201.9  27.1  34236  290.87 0855.18
2009/04/23 09:29:40.8      16   -181    161    182    242 174.9  46.2  34220  290.58 0855.16
2009/04/23 09:29:40.9     226   -140     27    267    269 121.8   6.0  34144  289.29 0855.16
2009/04/23 09:29:41.0     172   -180    109    249    271 136.3  25.1  34140  289.24 0855.16
2009/04/23 09:29:41.1     228    -82    165    243    293 109.9  37.6  34196  290.17 0855.16
2009/04/23 09:29:41.2     240      8    148    241    282  87.9  34.5  34198  290.22 0855.16
2009/04/23 09:29:41.3     133     84     71    158    173  57.5  25.7  34182  289.94 0855.16
2009/04/23 09:29:41.4      15    -70     54     72     90 167.5  41.2  34170  289.75 0855.16
2009/04/23 09:29:41.5      -5   -193    143    194    241 181.6  40.1  34128  289.04 0855.16
2009/04/23 09:29:41.6      -3   -228    163    229    281 180.9  38.8  34144  289.31 0855.16
2009/04/23 09:29:41.7     -64   -101    115    120    166 212.5  49.0  34180  289.92 0855.16
2009/04/23 09:29:41.8    -113   -112     18    160    162 225.2   6.5  34202  290.30 0855.16
2009/04/23 09:29:41.9    -101   -139    -12    173    174 216.1  -4.1  34190  290.09 0855.16
2009/04/23 09:29:42.0     -91   -185     -9    207    208 206.1  -2.6  34192  290.11 0855.16
2009/04/23 09:29:42.1     -80   -131    -42    154    160 211.6 -15.4  34212  290.47 0855.16
2009/04/23 09:29:42.2    -118   -111    -48    163    169 226.9 -21.5  34204  290.33 0855.16
2009/04/23 09:29:42.3    -107   -127     -9    167    168 220.3  -3.1  34218  290.55 0855.16
2009/04/23 09:29:42.4    -130   -159     -4    206    207 219.2  -1.2  34210  290.43 0855.16
2009/04/23 09:29:42.5    -168   -140    -50    219    225 230.2 -12.9  34182  289.94 0855.16
2009/04/23 09:29:42.6    -264     -1   -156    265    307 269.6 -37.8  34156  289.49 0855.16
2009/04/23 09:29:42.7     -85     15   -181     87    200 280.1 -77.1  34184  289.97 0855.16
2009/04/23 09:29:42.8     -21     64   -211     68    221 341.5 -85.6  34174  289.80 0855.14
2009/04/23 09:29:42.9     -68     61   -232     92    249 311.8 -81.8  34140  289.24 0855.14
2009/04/23 09:29:43.0    -103     21   -215    106    239 281.9 -76.3  34148  289.36 0855.14
2009/04/23 09:29:43.1    -132     18   -171    134    217 277.9 -62.3  34176  289.84 0855.14
2009/04/23 09:29:43.2    -239     57   -256    246    355 283.5 -55.6  34144  289.29 0855.14
2009/04/23 09:29:43.3    -275     17   -186    276    332 273.7 -41.7  34188  290.03 0855.14
2009/04/23 09:29:43.4    -170    -87   -133    191    232 242.9 -42.4  34182  289.94 0855.14
2009/04/23 09:29:43.5    -179   -165    -91    244    260 227.3 -25.7  34178  289.88 0855.14
2009/04/23 09:29:43.6    -153   -224    -85    272    284 214.3 -22.3  34178  289.86 0855.14
2009/04/23 09:29:43.7    -306   -182      4    357    358 239.3   0.7  34176  289.84 0855.14
2009/04/23 09:29:43.8    -315   -169     45    358    361 241.8   7.2  34170  289.74 0855.14
2009/04/23 09:29:43.9    -260   -209    114    334    354 231.2  18.9  34174  289.81 0855.14
2009/04/23 09:29:44.0    -202   -137    188    245    308 235.9  41.6  34172  289.76 0855.14
2009/04/23 09:29:44.1    -180   -146    115    233    259 230.9  28.2  34158  289.53 0855.14
2009/04/23 09:29:44.2     271   -162    298    316    434 120.9  48.2  34204  290.32 0855.14
2009/04/23 09:29:44.3       8    -57    256     58    262 172.0  87.5  34192  290.11 0855.14
2009/04/23 09:29:44.4     290   -108    385    310    494 110.6  57.3  34192  290.11 0855.14
2009/04/23 09:29:44.5     293   -109    400    313    507 110.4  58.2  34168  289.70 0855.14
2009/04/23 09:29:44.6     136    -36    321    141    350 105.0  74.9  34170  289.75 0855.14
2009/04/23 09:29:44.7     119     12    200    120    233  83.9  66.2  34160  289.57 0855.14
2009/04/23 09:29:44.8     -83    -79    229    115    256 226.4  71.7  34160  289.57 0855.12
2009/04/23 09:29:44.9    -142    -60    197    155    250 246.9  57.7  34172  289.79 0855.12
2009/04/23 09:29:45.0    -116     -1    150    117    190 269.1  57.9  34176  289.85 0855.12
2009/04/23 09:29:45.1    -192    -68    169    204    264 250.3  43.8  34168  289.70 0855.12
2009/04/23 09:29:45.2    -269    -90     24    284    286 251.4   4.9  34162  289.59 0855.12
2009/04/23 09:29:45.4    -234   -224     59    325    331 226.3  10.3  34156  289.51 0855.12
2009/04/23 09:29:45.4    -292   -203     97    356    370 235.2  15.3  34168  289.72 0855.12
2009/04/23 09:29:45.6    -298   -213      6    367    368 234.4   1.0  34132  289.10 0855.12
2009/04/23 09:29:45.7    -377    -55    -62    382    388 261.7  -9.3  34144  289.30 0855.12
2009/04/23 09:29:45.7    -515   -210    -36    557    559 247.8  -3.7  34150  289.40 0855.12
2009/04/23 09:29:45.9    -558   -171    -77    584    590 253.0  -7.6  34142  289.27 0855.15
2009/04/23 09:29:46.0    -544   -160   -160    567    590 253.6 -15.8  34134  289.12 0855.15
2009/04/23 09:29:46.1    -520    -47   -104    523    534 264.8 -11.3  34138  289.19 0855.15
2009/04/23 09:29:46.2    -496    -67    113    501    514 262.3  12.8  34170  289.74 0855.15
2009/04/23 09:29:46.3    -206   -283    101    351    366 216.1  16.0  34144  289.30 0855.15
2009/04/23 09:29:46.4    -163   -316     36    356    358 207.3   5.8  34142  289.25 0855.15
2009/04/23 09:29:46.5    -151   -288    -35    326    328 207.6  -6.3  34126  289.00 0855.15
2009/04/23 09:29:46.6    -293   -303    -53    422    426 224.1  -7.2  34124  288.97 0855.15
2009/04/23 09:29:46.7    -430   -397    -69    586    591 227.3  -6.8  34130  289.07 0855.15
2009/04/23 09:29:46.8    -438   -385   -165    584    607 228.7 -15.8  34122  288.92 0855.15
2009/04/23 09:29:46.9    -415   -383   -148    565    585 227.3 -14.7  34122  288.93 0855.15
2009/04/23 09:29:47.0    -396   -348   -125    528    543 228.7 -13.4  34124  288.97 0855.15
2009/04/23 09:29:47.1    -400   -308   -167    506    533 232.4 -18.3  34128  289.04 0855.15
2009/04/23 09:29:47.2    -348   -256   -184    433    470 233.6 -28.9  34128  289.04 0855.15
2009/04/23 09:29:47.3    -367   -443   -105    576    586 219.6 -10.4  34126  289.00 0855.15
2009/04/23 09:29:47.4    -538   -283   -129    608    622 242.2 -12.0  34138  289.21 0855.15
2009/04/23 09:29:47.5    -395   -317    -48    507    510 231.3  -5.5  34126  289.01 0855.15
2009/04/23 09:29:47.6    -485   -460   -139    669    684 226.5 -11.8  34130  289.05 0855.15
2009/04/23 09:29:47.7    -405   -374   -153    552    573 227.3 -15.5  34128  289.04 0855.15
2009/04/23 09:29:47.8    -441   -281    -73    524    530 237.5  -8.0  34138  289.21 0855.15
2009/04/23 09:29:47.9    -338   -296    -77    450    457 228.7  -9.7  34132  289.09 0855.16
2009/04/23 09:29:48.0    -479    -99    -53    490    493 258.3  -6.2  34132  289.10 0855.16
2009/04/23 09:29:48.1    -582   -122   -113    595    606 258.1 -10.8  34138  289.19 0855.16
2009/04/23 09:29:48.2    -473    -80    -66    480    485 260.4  -7.9  34136  289.18 0855.16
2009/04/23 09:29:48.3    -530    -23   -171    531    557 267.5 -22.9  34136  289.18 0855.16
2009/04/23 09:29:48.4    -466   -165   -151    495    518 250.5 -17.0  34130  289.08 0855.16
2009/04/23 09:29:48.5    -524   -310   -233    609    652 239.4 -26.5  34142  289.25 0855.16
2009/04/23 09:29:48.6    -434   -221   -167    488    517 243.0 -19.0  34136  289.17 0855.16
2009/04/23 09:29:48.7    -501    -80   -176    508    537 260.9 -24.3  34136  289.18 0855.16
2009/04/23 09:29:48.8    -425   -121   -132    442    462 254.1 -16.7  34140  289.24 0855.16
2009/04/23 09:29:48.9    -473   -139   -155    494    517 253.6 -22.4  34146  289.35 0855.16
2009/04/23 09:29:49.0    -574    -44   -171    576    600 265.6 -21.5  34144  289.29 0855.16
2009/04/23 09:29:49.1    -537   -101   -298    547    622 259.3 -35.4  34134  289.14 0855.16
2009/04/23 09:29:49.2    -311   -426    -11    528    529 216.1  -1.3  34142  289.28 0855.16
2009/04/23 09:29:49.3    -319   -441   -143    545    564 215.9 -14.8  34142  289.28 0855.16
2009/04/23 09:29:49.4    -144   -345    -12    375    376 202.7  -1.9  34136  289.16 0855.16
2009/04/23 09:29:49.5    -351   -173    147    392    418 243.8  21.5  34122  288.92 0855.16
2009/04/23 09:29:49.6    -335    -47    -94    339    351 261.9 -20.1  34146  289.33 0855.16
2009/04/23 09:29:49.7    -403   -141    -89    428    438 250.7 -11.8  34150  289.41 0855.16
2009/04/23 09:29:49.8    -266    -82   -145    279    314 252.7 -34.0  34148  289.36 0855.16
2009/04/23 09:29:49.9    -165    -61    -97    177    201 249.6 -35.8  34132  289.11 0855.16
2009/04/23 09:29:50.0     121   -362    -60    383    388 161.4  -9.0  34136  289.15 0855.16
2009/04/23 09:29:50.1     132   -476      1    495    496 164.4   0.2  34136  289.15 0855.16
2009/04/23 09:29:50.2     241   -478     -8    536    537 153.3  -0.9  34128  289.02 0855.16
2009/04/23 09:29:50.3     251   -552     25    607    608 155.5   2.4  34134  289.12 0855.16
2009/04/23 09:29:50.4     276   -468   -129    544    560 149.5 -13.4  34130  289.07 0855.16
2009/04/23 09:29:50.5     220   -484   -147    532    553 155.5 -15.5  34128  289.04 0855.16
2009/04/23 09:29:50.6     167   -423   -129    456    474 158.4 -15.8  34130  289.06 0855.16
2009/04/23 09:29:50.7     199   -455    -54    497    501 156.3  -6.3  34130  289.08 0855.16
2009/04/23 09:29:50.8     188   -482      3    518    519 158.7   0.4  34132  289.10 0855.16
2009/04/23 09:29:50.9     138   -564     81    581    587 166.2   8.0  34134  289.12 0855.16
2009/04/23 09:29:51.0      79   -472     23    479    480 170.4   2.8  34130  289.08 0855.16
2009/04/23 09:29:51.1     154   -459     60    485    489 161.4   7.1  34130  289.08 0855.16
2009/04/23 09:29:51.2     189   -385     33    430    432 153.8   4.5  34128  289.04 0855.16
2009/04/23 09:29:51.3     295   -468     62    554    558 147.8   6.5  34128  289.04 0855.16
2009/04/23 09:29:51.4     206   -613    131    647    661 161.4  11.4  34120  288.91 0855.16
2009/04/23 09:29:51.5     194   -547    183    581    610 160.5  17.5  34132  289.10 0855.16
2009/04/23 09:29:51.6     281   -484    131    560    576 149.9  13.2  34128  289.02 0855.16
2009/04/23 09:29:51.7     247   -472    217    533    575 152.4  23.4  34134  289.13 0855.16
2009/04/23 09:29:51.8     256   -523    332    583    670 153.9  32.2  34128  289.04 0855.16
2009/04/23 09:29:51.9     134   -437    359    458    581 163.0  42.2  34134  289.14 0855.14
2009/04/23 09:29:52.0     165   -367    307    403    506 155.7  41.2  34134  289.13 0855.14
2009/04/23 09:29:52.1     236   -356    275    428    508 146.4  35.7  34136  289.17 0855.14
2009/04/23 09:29:52.2     249   -353    281    433    516 144.8  36.0  34136  289.17 0855.14
2009/04/23 09:29:52.3     219   -374    182    434    470 149.6  24.2  34134  289.14 0855.14
2009/04/23 09:29:52.4     174   -383    176    421    456 155.5  24.1  34132  289.11 0855.14
2009/04/23 09:29:52.5     233   -288     96    371    384 141.0  14.6  34130  289.08 0855.14
2009/04/23 09:29:52.6      62   -339     95    345    358 169.5  15.4  34130  289.06 0855.14
2009/04/23 09:29:52.7     162   -313    161    353    387 152.6  26.4  34132  289.10 0855.14
2009/04/23 09:29:52.8      94   -146    178    174    248 147.3  50.4  34132  289.11 0855.14
2009/04/23 09:29:52.9      46      1    147     47    154  88.3  80.7  34132  289.11 0855.14
2009/04/23 09:29:53.0     119    -98    175    155    233 129.5  54.2  34128  289.04 0855.14
2009/04/23 09:29:53.1      62      1    115     63    131  88.3  68.9  34134  289.13 0855.14
2009/04/23 09:29:53.2      84   -131    170    156    230 147.4  52.5  34126  289.01 0855.14
2009/04/23 09:29:53.3     220   -227    140    317    346 135.9  25.3  34132  289.11 0855.14
2009/04/23 09:29:53.4     218   -169    155    276    316 127.8  31.9  34130  289.07 0855.14
2009/04/23 09:29:53.5     316   -273     15    418    419 130.8   2.1  34138  289.19 0855.14
2009/04/23 09:29:53.6     193   -199    150    278    315 135.9  30.7  34134  289.12 0855.14
2009/04/23 09:29:53.7     105   -220    123    244    273 154.5  28.7  34134  289.14 0855.14
2009/04/23 09:29:53.8      64    -95    -32    115    119 145.7 -20.2  34136  289.16 0855.14
2009/04/23 09:29:53.9     -10    -73      3     74     75 188.0   2.9  34136  289.16 0855.12
2009/04/23 09:29:54.0     -44   -100     85    110    139 204.1  41.7  34130  289.06 0855.12
2009/04/23 09:29:54.1      -2   -137    124    138    185 180.9  46.6  34132  289.11 0855.12
2009/04/23 09:29:54.2      79   -274    196    286    346 163.9  37.8  34132  289.09 0855.12
2009/04/23 09:29:54.3     166   -196     46    258    263 139.7  10.1  34132  289.10 0855.12
2009/04/23 09:29:54.4      74   -307     20    316    317 166.4   3.8  34130  289.05 0855.12
2009/04/23 09:29:54.5     -23   -215    273    217    348 186.2  57.5  34132  289.10 0855.12
2009/04/23 09:29:54.6     -91   -401    212    412    463 192.8  29.3  34138  289.19 0855.12
2009/04/23 09:29:54.7    -178   -412    228    450    504 203.4  28.9  34136  289.17 0855.12
2009/04/23 09:29:54.8    -190   -357     90    405    416 208.0  12.6  34136  289.17 0855.12
2009/04/23 09:29:54.9     -61   -436    200    441    484 188.0  26.2  34134  289.13 0855.12
2009/04/23 09:29:55.0     -85   -372    173    382    419 192.9  26.2  34130  289.05 0855.12
2009/04/23 09:29:55.1     131   -326    153    352    383 158.1  25.1  34132  289.11 0855.12
2009/04/23 09:29:55.2     129   -333    176    358    398 158.8  28.2  34132  289.10 0855.12
2009/04/23 09:29:55.3     215   -270    112    346    364 141.5  18.0  34138  289.20 0855.12
2009/04/23 09:29:55.4     181   -261     16    318    319 145.3   2.9  34136  289.15 0855.12
2009/04/23 09:29:55.5     101   -314     73    331    340 162.1  12.5  34126  289.01 0855.12
2009/04/23 09:29:55.6     109   -331     68    349    356 161.7  11.1  34124  288.96 0855.12
2009/04/23 09:29:55.7      95   -387    122    399    418 166.1  17.1  34116  288.82 0855.12
2009/04/23 09:29:55.8     136   -409    166    431    461 161.6  22.2  34116  288.82 0855.12
2009/04/23 09:29:55.9      63   -404    218    410    464 171.1  30.3  34124  288.97 0855.12
2009/04/23 09:29:56.0      15   -370    190    371    416 177.7  29.3  34126  288.98 0855.12
2009/04/23 09:29:56.1     -12   -323    119    324    345 182.3  21.0  34128  289.04 0855.12
2009/04/23 09:29:56.2    -104   -368     90    383    394 195.8  13.3  34128  289.03 0855.12
2009/04/23 09:29:56.3    -107   -341    197    358    408 197.4  31.4  34130  289.08 0855.12
2009/04/23 09:29:56.4     -59   -371     98    376    389 189.1  14.7  34130  289.06 0855.12
2009/04/23 09:29:56.5     -52   -292     88    297    310 190.2  16.5  34130  289.05 0855.12
2009/04/23 09:29:56.6     -54   -311    103    316    333 190.0  18.2  34130  289.07 0855.12
2009/04/23 09:29:56.7     -76   -340     54    349    354 192.6   8.8  34132  289.10 0855.12
2009/04/23 09:29:56.8     146   -377     45    405    408 158.8   6.4  34128  289.04 0855.12
2009/04/23 09:29:56.9     164   -475    126    503    519 160.9  14.2  34126  289.00 0855.12
2009/04/23 09:29:57.0     179   -527    173    557    584 161.2  17.3  34126  289.00 0855.12
2009/04/23 09:29:57.1     104   -457    187    469    504 167.1  23.0  34130  289.05 0855.12
2009/04/23 09:29:57.2     132   -436    173    456    487 163.1  21.8  34130  289.05 0855.12
2009/04/23 09:29:57.3      98   -330    181    345    389 163.4  30.0  34126  288.99 0855.12
2009/04/23 09:29:57.4     -18   -285    134    286    315 183.6  26.9  34130  289.07 0855.12
2009/04/23 09:29:57.5     -56   -256    118    263    288 192.5  25.9  34132  289.09 0855.12
2009/04/23 09:29:57.6     -17   -253     79    254    267 184.0  17.3  34134  289.12 0855.12
2009/04/23 09:29:57.7     103   -168     38    198    202 148.6  11.1  34128  289.04 0855.12
2009/04/23 09:29:57.8     261   -144    154    299    336 118.9  29.4  34126  289.00 0855.12
2009/04/23 09:29:57.9      -7   -293    197    294    353 181.4  37.2  34132  289.11 0855.14
2009/04/23 09:29:58.0     -51   -300     91    305    319 189.8  16.6  34134  289.14 0855.14
2009/04/23 09:29:58.1      -9   -195     15    196    197 182.9   4.6  34132  289.11 0855.14
2009/04/23 09:29:58.2      57   -305    109    311    330 169.4  19.3  34134  289.12 0855.14
2009/04/23 09:29:58.3    -100   -361    107    375    391 195.5  16.0  34134  289.13 0855.14
2009/04/23 09:29:58.4    -170   -414     79    448    456 202.4  10.0  34130  289.05 0855.14
2009/04/23 09:29:58.5     -49   -337     73    341    349 188.3  12.1  34132  289.11 0855.14
2009/04/23 09:29:58.6     -21   -269    272    270    383 184.5  50.1  34122  288.94 0855.14
2009/04/23 09:29:58.7     -89   -328     63    341    347 195.3  10.6  34132  289.10 0855.14
2009/04/23 09:29:58.8    -113   -275     90    298    312 202.3  16.8  34132  289.10 0855.14
2009/04/23 09:29:58.9    -174   -240     91    297    311 216.0  17.1  34134  289.12 0855.14
2009/04/23 09:29:59.0     -45   -263     28    267    269 189.8   6.1  34132  289.09 0855.14
2009/04/23 09:29:59.1     -16   -113     50    115    125 188.5  25.1  34136  289.16 0855.14
2009/04/23 09:29:59.2     110   -130     92    171    194 139.7  30.8  34132  289.09 0855.14
2009/04/23 09:29:59.3     137   -146    107    201    227 136.8  30.6  34128  289.04 0855.14
2009/04/23 09:29:59.4      76   -242     79    254    267 162.6  17.3  34134  289.12 0855.14
2009/04/23 09:29:59.5       0   -331    -18    332    333 180.1  -3.1  34136  289.16 0855.14
2009/04/23 09:29:59.6      30   -293     60    295    302 174.0  11.6  34138  289.20 0855.14
2009/04/23 09:29:59.7       0   -262     55    263    269 179.9  12.0  34136  289.17 0855.14
2009/04/23 09:29:59.8     -22   -244     14    246    247 185.3   3.3  34138  289.19 0855.14
2009/04/23 09:29:59.9       7   -200     55    201    209 177.8  15.3  34136  289.16 0855.15
2009/04/23 09:30:00.0      30   -163     60    166    176 169.5  20.7  34136  289.16 0855.15
2009/04/23 09:30:00.1       6   -148     85    149    171 177.3  32.4  34136  289.16 0855.15
2009/04/23 09:30:00.2      -6   -146     94    147    174 182.7  35.6  34138  289.19 0855.15
2009/04/23 09:30:00.3      -3   -117     70    118    137 181.8  33.5  34134  289.14 0855.15
2009/04/23 09:30:00.4     -34   -106    126    112    168 197.8  53.7  34136  289.18 0855.15
2009/04/23 09:30:00.5     -50    -42     89     66    110 230.4  60.0  34138  289.19 0855.15
2009/04/23 09:30:00.6     -12    -81     82     82    115 188.5  50.1  34138  289.21 0855.15
2009/04/23 09:30:00.7     -18   -161     57    163    173 186.5  19.4  34136  289.18 0855.15
2009/04/23 09:30:00.8      14    -99    116    101    153 171.5  54.3  34136  289.18 0855.15
2009/04/23 09:30:00.9       3   -128    173    129    215 178.6  59.8  34134  289.14 0855.15
2009/04/23 09:30:01.0     -53   -223    186    230    295 193.6  43.5  34134  289.12 0855.15
2009/04/23 09:30:01.1    -139   -344    122    372    392 202.1  18.2  34134  289.13 0855.15
2009/04/23 09:30:01.2    -113   -334     73    353    361 198.7  11.8  34136  289.16 0855.15
2009/04/23 09:30:01.3    -246   -169    -26    299    301 235.4  -5.1  34138  289.19 0855.15
2009/04/23 09:30:01.4    -201    -68     30    213    216 251.2   8.2  34138  289.19 0855.15
2009/04/23 09:30:01.5     -70   -149    -48    165    171 205.2 -21.0  34138  289.21 0855.15
2009/04/23 09:30:01.6      85   -181     -7    201    202 154.7  -2.1  34130  289.06 0855.15
2009/04/23 09:30:01.7     148   -279    -83    316    327 152.0 -14.8  34132  289.10 0855.15
2009/04/23 09:30:01.8      96   -235    -79    254    266 157.7 -22.5  34136  289.17 0855.15
2009/04/23 09:30:01.9     121   -257    -86    285    298 154.8 -16.8  34140  289.22 0855.18
2009/04/23 09:30:02.0     146   -222    -86    266    279 146.6 -23.0  34130  289.05 0855.18
2009/04/23 09:30:02.1     156   -202    -32    256    259 142.4  -7.2  34136  289.15 0855.18
2009/04/23 09:30:02.2     167   -132     38    214    218 128.4  10.1  34136  289.16 0855.18
2009/04/23 09:30:02.3      93   -110     22    145    147 139.9   8.9  34134  289.14 0855.18
2009/04/23 09:30:02.4      92      0    156     93    181  90.0  66.8  34136  289.16 0855.18
2009/04/23 09:30:02.5       9     48    159     49    166  10.7  82.3  34140  289.24 0855.18
2009/04/23 09:30:02.6       0     -3    123      4    123 189.7  90.0  34142  289.26 0855.18
2009/04/23 09:30:02.7     -20    -32    145     38    149 212.6  84.9  34134  289.14 0855.18
2009/04/23 09:30:02.8      15    -45    117     48    126 160.8  77.0  34132  289.11 0855.18
2009/04/23 09:30:02.9      37   -263      0    266    267 171.9   0.0  34132  289.10 0855.18
2009/04/23 09:30:03.0     -60   -301    -17    308    309 191.3  -3.2  34136  289.17 0855.18
2009/04/23 09:30:03.1     -85   -186     84    205    221 204.7  23.1  34126  288.99 0855.18
2009/04/23 09:30:03.2     -85   -346     61    357    363 193.9   9.7  34128  289.03 0855.18
2009/04/23 09:30:03.3      56   -334    149    339    370 170.4  25.2  34130  289.06 0855.18
2009/04/23 09:30:03.4     151   -328    214    362    420 155.3  33.5  34120  288.88 0855.18
2009/04/23 09:30:03.5     189   -295    167    351    388 147.4  27.3  34124  288.96 0855.18
2009/04/23 09:30:03.6     208   -221    191    304    359 136.7  35.3  34120  288.89 0855.18
2009/04/23 09:30:03.7     177   -284    134    335    360 148.1  23.0  34116  288.81 0855.18
2009/04/23 09:30:03.8     316   -286     36    427    429 132.1   4.9  34126  289.00 0855.18
2009/04/23 09:30:03.9     242   -260    -19    356    357 137.0  -3.2  34128  289.04 0855.18
2009/04/23 09:30:04.0     173   -190     55    257    263 137.7  12.2  34126  288.98 0855.18
2009/04/23 09:30:04.1      92   -145      6    173    174 147.5   2.1  34130  289.08 0855.18
2009/04/23 09:30:04.2      60   -182     -7    192    193 161.5  -2.2  34130  289.06 0855.18
2009/04/23 09:30:04.3     -36   -214    -16    218    219 189.7  -4.4  34134  289.13 0855.18
2009/04/23 09:30:04.4      -7   -208    -28    209    211 182.0  -7.7  34132  289.11 0855.18
2009/04/23 09:30:04.5      11   -169    -38    170    175 176.0 -12.6  34132  289.11 0855.18
2009/04/23 09:30:04.6      30   -195      8    198    199 171.1   2.3  34132  289.09 0855.18
2009/04/23 09:30:04.7      32   -190     39    193    198 170.4  11.6  34126  288.99 0855.18
2009/04/23 09:30:04.8      24   -224     11    226    227 173.8   2.9  34128  289.02 0855.18
2009/04/23 09:30:04.9      71   -274    -11    284    285 165.3  -2.2  34124  288.97 0855.18
2009/04/23 09:30:05.0     153   -384    117    414    431 158.2  15.8  34112  288.77 0855.18
2009/04/23 09:30:05.1     174   -409    155    445    472 157.0  19.2  34110  288.73 0855.18
2009/04/23 09:30:05.2     131   -433     42    453    456 163.1   5.3  34110  288.72 0855.18
2009/04/23 09:30:05.3     146   -448     77    472    479 162.0   9.3  34116  288.84 0855.18
2009/04/23 09:30:05.4       0   -475    104    476    488 180.1  12.4  34120  288.88 0855.18
2009/04/23 09:30:05.5     -19   -389    137    390    413 182.9  20.0  34122  288.94 0855.18
2009/04/23 09:30:05.6     120   -469     57    485    489 165.6   6.7  34116  288.83 0855.18
2009/04/23 09:30:05.7     224   -496     16    545    546 155.7   1.7  34116  288.82 0855.18
2009/04/23 09:30:05.8     240   -402    -21    469    470 149.2  -2.6  34110  288.73 0855.18
2009/04/23 09:30:05.9       9   -277    -76    278    289 178.0 -15.4  34122  288.92 0855.19
2009/04/23 09:30:06.0      15   -238   -102    239    259 176.4 -28.7  34120  288.90 0855.19
2009/04/23 09:30:06.1     114   -328    -23    348    349 160.8  -3.8  34122  288.93 0855.19
2009/04/23 09:30:06.2      66   -300     11    308    309 167.5   2.1  34118  288.87 0855.19
2009/04/23 09:30:06.3      87   -279    102    293    311 162.6  19.2  34116  288.81 0855.19
2009/04/23 09:30:06.4     -13   -288    125    289    314 182.7  24.9  34118  288.85 0855.19
2009/04/23 09:30:06.5      58   -266     34    273    276 167.7   7.1  34120  288.90 0855.19
2009/04/23 09:30:06.6      34   -285    -79    288    299 173.1 -15.4  34122  288.93 0855.19
2009/04/23 09:30:06.7      83   -242    -42    257    261 160.9  -9.3  34122  288.93 0855.19
2009/04/23 09:30:06.8     159   -263     -8    308    309 148.8  -1.6  34120  288.90 0855.19
2009/04/23 09:30:06.9      87   -263    -15    278    279 161.7  -3.1  34118  288.87 0855.20
2009/04/23 09:30:07.0      59   -264    -19    271    272 167.3  -4.1  34122  288.92 0855.20
2009/04/23 09:30:07.1      40   -175    -48    180    187 166.9 -15.2  34122  288.92 0855.20
2009/04/23 09:30:07.2      11   -144     -7    145    146 175.5  -3.1  34122  288.94 0855.20
2009/04/23 09:30:07.3     114   -116     30    163    166 135.5  10.6  34118  288.87 0855.20
2009/04/23 09:30:07.4     204   -126     13    240    241 121.8   3.3  34122  288.92 0855.20
2009/04/23 09:30:07.5     143   -296    -23    329    330 154.1  -4.1  34120  288.88 0855.20
2009/04/23 09:30:07.6     158   -233    -15    282    283 145.8  -3.2  34114  288.80 0855.20
2009/04/23 09:30:07.7     291   -151    162    329    366 117.5  28.1  34128  289.03 0855.20
2009/04/23 09:30:07.8     122   -234    217    265    342 152.4  43.7  34114  288.78 0855.20
2009/04/23 09:30:07.9     169   -306    148    350    380 151.0  24.3  34108  288.69 0855.20
2009/04/23 09:30:08.0     213   -359    197    418    462 149.3  27.1  34116  288.83 0855.20
2009/04/23 09:30:08.1      93   -470    170    480    510 168.8  19.5  34114  288.79 0855.20
2009/04/23 09:30:08.2      23   -265    194    267    330 174.9  39.5  34112  288.76 0855.20
2009/04/23 09:30:08.3     -89   -193    217    213    304 204.7  50.4  34112  288.75 0855.20
2009/04/23 09:30:08.4    -254   -178    192    311    365 235.0  34.8  34120  288.89 0855.20
2009/04/23 09:30:08.5    -225   -175    148    286    322 232.2  29.6  34122  288.92 0855.20
2009/04/23 09:30:08.6    -213   -174    112    276    297 230.7  23.1  34116  288.83 0855.20
2009/04/23 09:30:08.7    -237   -203    126    313    337 229.5  23.0  34116  288.84 0855.20
2009/04/23 09:30:08.8    -253   -228    117    341    361 228.0  18.9  34110  288.74 0855.20
2009/04/23 09:30:08.9    -297   -198    141    358    384 236.3  22.8  34110  288.72 0855.21
2009/04/23 09:30:09.0    -399     12     24    400    401 271.8   3.5  34122  288.93 0855.21
2009/04/23 09:30:09.1    -356    181    -13    400    401 297.0  -1.9  34118  288.86 0855.21
2009/04/23 09:30:09.2    -435     25    -74    436    443 273.4  -9.7  34116  288.83 0855.21
2009/04/23 09:30:09.3    -369     86    -49    379    383 283.2  -7.4  34112  288.77 0855.21
2009/04/23 09:30:09.4    -361      7     10    362    363 271.2   1.7  34120  288.88 0855.21
2009/04/23 09:30:09.5    -330     34     66    332    339 275.9  11.3  34120  288.91 0855.21
2009/04/23 09:30:09.6    -310    -18    179    311    358 266.6  32.7  34120  288.88 0855.21
2009/04/23 09:30:09.7    -310   -200    126    370    391 237.1  18.8  34120  288.91 0855.21
2009/04/23 09:30:09.8    -322   -281     44    428    431 228.9   5.9  34126  288.99 0855.21
2009/04/23 09:30:09.9    -290   -267     24    395    396 227.4   3.5  34126  288.99 0855.21
2009/04/23 09:30:10.0    -150   -301    173    337    378 206.5  29.3  34118  288.86 0855.21
2009/04/23 09:30:10.1     -53   -331    133    336    361 189.1  22.8  34116  288.82 0855.21
2009/04/23 09:30:10.2     210   -217    241    303    387 135.9  42.7  34122  288.94 0855.21
2009/04/23 09:30:10.3      40     -8    246     41    249 102.4  90.0  34126  288.99 0855.21
2009/04/23 09:30:10.4     172   -129    329    215    393 126.9  63.7  34126  288.98 0855.21
2009/04/23 09:30:10.5     209   -141    257    253    360 124.0  50.2  34120  288.91 0855.21
2009/04/23 09:30:10.6     182   -150    119    236    264 129.5  28.5  34122  288.93 0855.21
2009/04/23 09:30:10.7     119   -242     81    270    283 153.7  16.8  34122  288.92 0855.21
2009/04/23 09:30:10.8      72   -131    130    150    198 151.0  45.6  34124  288.96 0855.21
2009/04/23 09:30:10.9      92   -144    116    172    207 147.3  37.3  34120  288.89 0855.21
2009/04/23 09:30:11.0     130      5    123    131    179  87.5  48.2  34120  288.89 0855.21
2009/04/23 09:30:11.1     138      1     85    139    162  89.2  34.8  34120  288.91 0855.21
2009/04/23 09:30:11.2      84    -66     77    108    132 128.2  39.1  34120  288.91 0855.21
2009/04/23 09:30:11.3      43    -89     36    100    106 154.1  20.0  34122  288.94 0855.21
2009/04/23 09:30:11.4      89    -86     70    125    143 134.0  31.4  34126  288.99 0855.21
2009/04/23 09:30:11.5      43    -86     45     97    106 153.3  26.6  34122  288.94 0855.21
2009/04/23 09:30:11.6      89   -109     73    141    158 140.8  29.5  34122  288.92 0855.21
2009/04/23 09:30:11.7     105   -153     36    186    190 145.5  11.1  34120  288.91 0855.21
2009/04/23 09:30:11.8     136    -20     43    138    145  98.4  17.3  34120  288.89 0855.21
2009/04/23 09:30:11.9     141     73     48    159    167  62.5  16.8  34116  288.82 0855.21
2009/04/23 09:30:12.1     177     84     30    196    199  64.6   8.9  34118  288.86 0855.21
2009/04/23 09:30:12.2     183      8     53    184    192  87.2  16.0  34118  288.86 0855.21
2009/04/23 09:30:12.3     207     82     96    223    242  68.3  24.6  34114  288.80 0855.21
2009/04/23 09:30:12.4     140     65    244    155    289  65.2  64.7  34122  288.92 0855.21
2009/04/23 09:30:12.5     117     72    234    138    271  58.5  66.8  34120  288.90 0855.21
2009/04/23 09:30:12.5       0    -81    237     82    250 179.5  80.7  34120  288.91 0855.21
2009/04/23 09:30:12.7      23   -192    262    194    326 173.1  59.9  34122  288.92 0855.21
2009/04/23 09:30:12.8     103   -132    207    168    266 142.2  56.4  34118  288.87 0855.21
2009/04/23 09:30:12.9     217    -78    232    231    327 110.0  50.0  34124  288.97 0855.21
2009/04/23 09:30:13.0     220    -36    251    224    336  99.5  53.7  34122  288.92 0855.22
2009/04/23 09:30:13.1      28     -6    188     29    190 103.3  90.0  34126  288.99 0855.22
2009/04/23 09:30:13.2     161     11    165    162    231  86.1  50.4  34122  288.92 0855.22
2009/04/23 09:30:13.3       4     20    151     21    152  11.6  90.0  34128  289.02 0855.22
2009/04/23 09:30:13.4       5     52    115     53    126   6.2  73.5  34122  288.94 0855.22
2009/04/23 09:30:13.5       0    226     62    227    236   0.0  15.3  34128  289.04 0855.22
2009/04/23 09:30:13.6     -33    118    147    123    191 344.4  56.1  34128  289.02 0855.22
2009/04/23 09:30:13.7     -31    175    146    178    230 349.8  43.7  34130  289.06 0855.22
2009/04/23 09:30:13.8      50    292    177    297    345   9.8  33.7  34136  289.15 0855.22
2009/04/23 09:30:13.9     188    227    126    295    320  39.6  24.5  34148  289.36 0855.22
2009/04/23 09:30:14.0     168    178    122    246    274  43.3  28.2  34150  289.41 0855.22
2009/04/23 09:30:14.1     107    139    109    176    207  37.8  35.0  34138  289.21 0855.22
2009/04/23 09:30:14.2      48    188    146    195    243  14.3  40.6  34150  289.41 0855.22
2009/04/23 09:30:14.3     -62    203    150    213    260 343.1  38.6  34192  290.12 0855.22
2009/04/23 09:30:14.4     -83    207    177    224    285 338.2  42.4  34208  290.37 0855.22
2009/04/23 09:30:14.5     -40    142     90    148    173 344.0  34.8  34218  290.55 0855.22
2009/04/23 09:30:14.6      40    144    100    150    180  15.6  37.0  34212  290.45 0855.22
2009/04/23 09:30:14.7     178     70    102    192    217  68.5  30.6  34186  290.01 0855.22
2009/04/23 09:30:14.8     191    132    101    233    253  55.4  25.1  34184  289.98 0855.22
2009/04/23 09:30:14.9     249     70    164    259    306  74.1  35.5  34184  289.98 0855.22
2009/04/23 09:30:15.0     253    172    153    307    343  55.8  28.4  34198  290.21 0855.24
2009/04/23 09:30:15.1     187     90    154    208    258  64.2  40.1  34212  290.46 0855.24
2009/04/23 09:30:15.2     279     92    115    294    315  71.6  22.5  34236  290.85 0855.24
2009/04/23 09:30:15.3     433    144    200    457    498  71.6  25.2  34266  291.36 0855.24
2009/04/23 09:30:15.4     489    173     26    519    520  70.5   2.9  34220  290.60 0855.24
2009/04/23 09:30:15.5     477    234    144    532    552  63.8  15.2  34210  290.41 0855.24
2009/04/23 09:30:15.6     370    283     73    466    472  52.6   9.0  34178  289.86 0855.24
2009/04/23 09:30:15.7     497    305     61    584    588  58.5   6.0  34166  289.66 0855.24
2009/04/23 09:30:15.8     470    335   -163    578    601  54.5 -15.8  34148  289.36 0855.24
2009/04/23 09:30:15.9     520    272    -86    587    594  62.4  -8.4  34134  289.14 0855.24
2009/04/23 09:30:16.0     307     96    116    322    343  72.6  19.9  34170  289.74 0855.24
2009/04/23 09:30:16.1     488    219    183    535    566  65.8  18.9  34170  289.75 0855.24
2009/04/23 09:30:16.2     519    152    257    541    598  73.6  27.3  34182  289.93 0855.24
2009/04/23 09:30:16.3     543    -17    219    544    586  91.9  23.1  34172  289.78 0855.24
2009/04/23 09:30:16.4     580     22    299    581    653  87.8  29.4  34160  289.57 0855.24
2009/04/23 09:30:16.5     554    -81    350    560    660  98.4  35.1  34154  289.47 0855.24
2009/04/23 09:30:16.6     510   -114    174    523    552 102.6  18.4  34158  289.55 0855.24
2009/04/23 09:30:16.7     317   -202   -122    377    396 122.5 -22.9  34146  289.32 0855.24
2009/04/23 09:30:16.8     379    -94      3    391    392 104.1   0.5  34152  289.43 0855.24
2009/04/23 09:30:16.9     251    -34     20    254    255  97.9   4.6  34156  289.51 0855.24
2009/04/23 09:30:17.0     175    -55    121    184    220 107.7  36.3  34158  289.55 0855.25
2009/04/23 09:30:17.1     331    -64    131    338    362 101.0  22.3  34162  289.60 0855.25
2009/04/23 09:30:17.2     269    -73    177    279    330 105.3  35.5  34158  289.53 0855.25
2009/04/23 09:30:17.3     146     61    203    159    257  67.4  58.2  34146  289.33 0855.25
2009/04/23 09:30:17.4     253    -21    139    254    289  95.0  31.3  34150  289.39 0855.25
2009/04/23 09:30:17.5     190    -71     55    203    211 110.6  15.3  34144  289.30 0855.25
2009/04/23 09:30:17.6     211    -64    -15    221    222 106.9  -4.1  34154  289.48 0855.25
2009/04/23 09:30:17.7     190      2     34    191    195  89.1  10.1  34152  289.43 0855.25
2009/04/23 09:30:17.8     198     66     10    209    210  71.6   2.8  34152  289.45 0855.25
2009/04/23 09:30:17.9     101     81     24    130    133  51.4  10.6  34150  289.40 0855.25
2009/04/23 09:30:18.0     106     82     42    135    142  52.2  17.4  34150  289.41 0855.25
2009/04/23 09:30:18.1      95    109    129    145    194  41.0  46.4  34144  289.30 0855.25
2009/04/23 09:30:18.2     161    207     74    263    274  37.9  15.8  34142  289.27 0855.25
2009/04/23 09:30:18.3     201    193     97    279    296  46.2  19.2  34144  289.29 0855.25
2009/04/23 09:30:18.4      89    234    106    251    272  20.9  24.1  34138  289.19 0855.25
2009/04/23 09:30:18.5      91    270     45    286    290  18.7   9.0  34142  289.25 0855.25
2009/04/23 09:30:18.6     -65    370    -41    376    379 349.9  -6.3  34120  288.89 0855.25
2009/04/23 09:30:18.7    -141    345    -47    373    376 337.7  -7.2  34122  288.94 0855.25
2009/04/23 09:30:18.8      52    431     75    435    442   7.0   9.9  34140  289.22 0855.25
2009/04/23 09:30:18.9      78    293    -34    304    306  14.9  -6.5  34124  288.95 0855.25
2009/04/23 09:30:19.0      13    356     -4    357    358   2.2  -0.7  34130  289.06 0855.28
2009/04/23 09:30:19.1    -180     -7     73    181    195 267.6  23.0  34134  289.13 0855.28
2009/04/23 09:30:19.2    -137   -333    -15    361    362 202.4  -2.5  34138  289.21 0855.28
2009/04/23 09:30:19.3    -147   -308    300    342    454 205.6  45.8  34138  289.21 0855.28
2009/04/23 09:30:19.4    -313   -258    201    406    453 230.5  28.2  34140  289.24 0855.28
2009/04/23 09:30:19.5    -163   -272     95    318    332 210.9  16.6  34140  289.24 0855.28
2009/04/23 09:30:19.6     -70   -217   -138    229    267 198.0 -38.4  34140  289.24 0855.28
2009/04/23 09:30:19.7    -103   -216   -127    240    271 205.6 -34.7  34140  289.22 0855.28
2009/04/23 09:30:19.8    -251   -275   -103    373    386 222.3 -20.0  34112  288.76 0855.28
2009/04/23 09:30:19.9    -215    -19    -88    216    233 264.8 -27.5  34136  289.16 0855.28
2009/04/23 09:30:20.0     -72     -8     -2     73     74 263.0  -2.2  34132  289.11 0855.28
2009/04/23 09:30:20.1     -65   -153     71    167    181 203.2  24.3  34136  289.16 0855.28
2009/04/23 09:30:20.2     -92    -92    141    131    192 225.1  52.2  34140  289.23 0855.28
2009/04/23 09:30:20.3    -107   -139    234    176    292 217.6  59.4  34134  289.12 0855.28
2009/04/23 09:30:20.4    -134   -158    153    208    258 220.3  39.7  34136  289.15 0855.28
2009/04/23 09:30:20.5    -299    -91      9    313    314 253.1   1.7  34144  289.31 0855.28
2009/04/23 09:30:20.6    -327   -178     53    373    377 241.5   8.1  34138  289.21 0855.28
2009/04/23 09:30:20.7    -321   -202    126    380    401 237.9  18.5  34140  289.23 0855.28
2009/04/23 09:30:20.8    -232   -190    195    300    357 230.7  36.2  34128  289.03 0855.28
2009/04/23 09:30:20.9    -208   -190    142    283    316 227.6  28.7  34142  289.27 0855.28
2009/04/23 09:30:21.0    -194   -205    123    283    308 223.4  25.1  34144  289.29 0855.28
2009/04/23 09:30:21.1    -171   -188     12    255    256 222.3   2.9  34140  289.24 0855.28
2009/04/23 09:30:21.2    -157   -219    -34    270    273 215.6  -7.3  34140  289.24 0855.28
2009/04/23 09:30:21.3    -109    -26     92    113    145 256.3  43.7  34142  289.28 0855.28
2009/04/23 09:30:21.4     -92    178     16    201    202 332.6   4.6  34140  289.24 0855.28
2009/04/23 09:30:21.5    -140    182      9    230    231 322.4   2.3  34140  289.23 0855.28
2009/04/23 09:30:21.6    -126     34    -94    131    161 285.1 -43.7  34142  289.28 0855.28
2009/04/23 09:30:21.7     -26     -8     13     28     30 253.2  27.1  34132  289.11 0855.28
2009/04/23 09:30:21.8     -32     21    116     39    122 304.2  81.0  34138  289.19 0855.28
2009/04/23 09:30:21.9      94     64    108    114    157  55.8  48.5  34132  289.09 0855.28
2009/04/23 09:30:22.0     145     87    149    170    226  58.9  45.8  34138  289.19 0855.28
2009/04/23 09:30:22.1     -80     30    132     86    157 290.8  63.9  34136  289.18 0855.28
2009/04/23 09:30:22.2    -179   -158    121    239    267 228.6  29.1  34140  289.22 0855.28
2009/04/23 09:30:22.3    -133   -190    116    233    260 215.0  28.2  34138  289.19 0855.28
2009/04/23 09:30:22.4    -129   -172    125    216    249 217.0  32.7  34136  289.17 0855.28
2009/04/23 09:30:22.5    -124   -194    110    231    255 212.7  27.2  34132  289.10 0855.28
2009/04/23 09:30:22.6     -60   -137    238    150    281 203.6  64.7  34126  289.00 0855.28
2009/04/23 09:30:22.7    -214     50    226    220    315 283.3  50.8  34134  289.12 0855.28
2009/04/23 09:30:22.8    -235   -126    104    267    286 241.8  22.3  34132  289.10 0855.28
2009/04/23 09:30:22.9    -126   -266    124    295    320 205.5  24.1  34138  289.20 0855.28
2009/04/23 09:30:23.0     293    -53    296    298    420 100.4  50.0  34124  288.96 0855.28
2009/04/23 09:30:23.1     454    106    458    467    654  76.8  49.4  34112  288.75 0855.28
2009/04/23 09:30:23.2     228    128    422    262    496  60.7  65.3  34128  289.04 0855.28
2009/04/23 09:30:23.3      65      0    353     66    359  90.0  90.0  34132  289.09 0855.28
2009/04/23 09:30:23.4      10    -77    280     78    290 172.0  84.4  34138  289.19 0855.28
2009/04/23 09:30:23.5      27     44    237     52    242  31.6  88.0  34126  289.01 0855.28
2009/04/23 09:30:23.6     -85   -134    275    159    317 212.5  67.5  34130  289.07 0855.28
2009/04/23 09:30:23.7     -15      5    157     16    157 288.6  90.0  34132  289.09 0855.28
2009/04/23 09:30:23.8       0    -23    154     24    155 179.1  90.0  34132  289.11 0855.28
2009/04/23 09:30:23.9       6   -392    361    393    533 179.0  47.5  34126  289.01 0855.28
2009/04/23 09:30:24.0      28   -507    357    508    620 176.8  38.5  34128  289.02 0855.28
2009/04/23 09:30:24.1      55    -50    226     75    238 132.2  81.0  34122  288.92 0855.28
2009/04/23 09:30:24.2    -122   -125    131    175    218 224.3  40.4  34124  288.97 0855.28
2009/04/23 09:30:24.3     -65   -140     67    155    168 204.9  24.9  34128  289.02 0855.28
2009/04/23 09:30:24.4    -306   -199     66    366    373 237.0  10.3  34126  289.01 0855.28
2009/04/23 09:30:24.5    -162   -253    122    301    324 212.6  23.4  34138  289.19 0855.28
2009/04/23 09:30:24.6     -99   -120    -24    156    158 219.6  -9.0  34130  289.06 0855.28
2009/04/23 09:30:24.7    -425    -19     75    426    433 267.4  10.1  34130  289.05 0855.28
2009/04/23 09:30:24.8    -321   -317     80    452    460 225.3  10.1  34130  289.05 0855.28
2009/04/23 09:30:24.9    -700   -400     84    807    812 240.2   6.0  34128  289.03 0855.28
2009/04/23 09:30:25.0    -300   -247    240    389    457 230.5  34.8  34132  289.09 0855.28
2009/04/23 09:30:25.1    -263   -235    -40    354    357 228.2  -6.6  34120  288.89 0855.28
2009/04/23 09:30:25.2    -368   -336     25    499    500 227.6   2.9  34126  289.00 0855.28
2009/04/23 09:30:25.3    -450   -343    128    566    581 232.7  12.8  34128  289.03 0855.28
2009/04/23 09:30:25.4    -384   -336    125    511    527 228.8  13.8  34112  288.75 0855.28
2009/04/23 09:30:25.5    -376   -298     40    480    482 231.6   4.9  34118  288.86 0855.28
2009/04/23 09:30:25.6    -201   -333    217    390    446 211.1  31.4  34124  288.97 0855.28
2009/04/23 09:30:25.7    -233   -411    243    473    531 209.5  29.3  34128  289.03 0855.28
2009/04/23 09:30:25.8    -278   -344    142    443    466 219.0  17.8  34124  288.95 0855.28
2009/04/23 09:30:25.9    -224   -470    107    521    533 205.5  11.7  34130  289.06 0855.28
2009/04/23 09:30:26.0    -258   -493    112    557    569 207.6  11.4  34128  289.04 0855.28
2009/04/23 09:30:26.1    -294   -590    117    660    671 206.5  10.1  34112  288.75 0855.28
2009/04/23 09:30:26.2    -454   -295    285    542    612 236.9  30.1  34120  288.88 0855.28
2009/04/23 09:30:26.3    -667   -235     -7    708    709 250.6  -0.6  34138  289.20 0855.28
2009/04/23 09:30:26.4    -732   -222     13    766    767 253.1   1.0  34116  288.82 0855.28
2009/04/23 09:30:26.5    -310   -206    195    373    420 236.4  29.8  34124  288.97 0855.28
2009/04/23 09:30:26.6    -403   -110     23    418    419 254.7   3.2  34140  289.22 0855.28
2009/04/23 09:30:26.7    -389   -334    174    513    542 229.3  18.8  34124  288.96 0855.28
2009/04/23 09:30:26.8    -516   -238    -75    569    574 245.2  -7.6  34128  289.03 0855.28
2009/04/23 09:30:26.9    -617   -281    -29    678    679 245.5  -2.5  34136  289.17 0855.28
2009/04/23 09:30:27.0    -406   -355   -109    540    551 228.9 -11.5  34128  289.02 0855.25
2009/04/23 09:30:27.1    -188   -324    255    375    453 210.1  37.6  34128  289.02 0855.25
2009/04/23 09:30:27.2    -228   -195    179    301    350 229.5  33.7  34130  289.08 0855.25
2009/04/23 09:30:27.3    -180   -135    156    226    274 233.1  38.0  34134  289.14 0855.25
2009/04/23 09:30:27.4    -196   -111    163    226    278 240.5  39.5  34132  289.09 0855.25
2009/04/23 09:30:27.5    -212   -225    197    310    367 223.3  35.5  34132  289.11 0855.25
2009/04/23 09:30:27.6    -156   -300    252    339    422 207.5  40.4  34134  289.13 0855.25
2009/04/23 09:30:27.7    -400   -230    210    462    507 240.1  26.2  34138  289.20 0855.25
2009/04/23 09:30:27.8    -334   -261    193    424    465 232.0  26.2  34134  289.12 0855.25
2009/04/23 09:30:27.9    -364   -291     35    467    469 231.4   4.4  34124  288.95 0855.25
2009/04/23 09:30:28.0    -152   -310    -61    346    352 206.2 -10.1  34132  289.11 0855.25
2009/04/23 09:30:28.1    -115   -388    104    405    419 196.5  14.4  34128  289.02 0855.25
2009/04/23 09:30:28.2    -266   -326    114    421    437 219.2  15.2  34122  288.92 0855.25
2009/04/23 09:30:28.3    -181   -327    161    374    407 209.0  24.8  34128  289.04 0855.25
2009/04/23 09:30:28.4    -205   -364     79    418    426 209.4  10.8  34128  289.04 0855.25
2009/04/23 09:30:28.5    -364   -291    105    467    479 231.4  12.8  34126  289.00 0855.25
2009/04/23 09:30:28.6    -223   -343    197    410    454 213.1  27.3  34130  289.07 0855.25
2009/04/23 09:30:28.7    -344   -199    140    398    422 239.9  19.4  34108  288.68 0855.25
2009/04/23 09:30:28.8    -331   -142    104    361    376 246.8  16.1  34138  289.20 0855.25
2009/04/23 09:30:28.9    -190    -51     15    197    198 254.9   4.6  34130  289.08 0855.25
2009/04/23 09:30:29.0     -26   -221   -132    223    259 186.7 -37.8  34134  289.14 0855.25
2009/04/23 09:30:29.1    -287   -182   -150    341    372 237.6 -29.6  34120  288.91 0855.25
2009/04/23 09:30:29.2    -189   -228   -186    297    350 219.6 -39.7  34122  288.93 0855.25
2009/04/23 09:30:29.3     -86   -182     92    202    221 205.2  26.2  34114  288.79 0855.25
2009/04/23 09:30:29.4      -3   -187     84    188    205 181.0  25.7  34130  289.08 0855.25
2009/04/23 09:30:29.5    -149   -142    -63    206    215 226.4 -22.1  34130  289.08 0855.25
2009/04/23 09:30:29.6    -302   -100    -57    319    325 251.6 -10.2  34130  289.05 0855.25
2009/04/23 09:30:29.7    -430   -101      6    442    443 256.8   0.8  34138  289.21 0855.25
2009/04/23 09:30:29.8    -339   -126      0    362    363 249.5   0.0  34136  289.15 0855.25
2009/04/23 09:30:29.9    -266     66     79    275    287 283.9  16.0  34134  289.12 0855.25
2009/04/23 09:30:30.0    -262    107    140    284    316 292.2  28.2  34138  289.20 0855.26
2009/04/23 09:30:30.1    -311    -58    205    317    377 259.4  35.9  34146  289.32 0855.26
2009/04/23 09:30:30.2    -413    -18    146    414    438 267.4  20.2  34142  289.26 0855.26
2009/04/23 09:30:30.3    -390    214     -6    445    446 298.8  -0.9  34110  288.73 0855.26
2009/04/23 09:30:30.4    -453    237     16    512    513 297.7   1.9  34120  288.91 0855.26
2009/04/23 09:30:30.5    -307    307     -9    435    436 315.0  -1.3  34130  289.07 0855.26
2009/04/23 09:30:30.6    -220    132    147    257    296 300.9  32.4  34134  289.12 0855.26
2009/04/23 09:30:30.7    -172    134     97    219    239 308.0  25.3  34130  289.05 0855.26
2009/04/23 09:30:30.8    -178    208    104    274    293 319.5  22.0  34128  289.02 0855.26
2009/04/23 09:30:30.9    -131    139     16    192    193 316.8   4.9  34130  289.08 0855.26
2009/04/23 09:30:31.0    -101    156     58    187    196 327.0  17.4  34134  289.13 0855.26
2009/04/23 09:30:31.1    -189    211    -70    284    293 318.1 -13.9  34126  288.98 0855.26
2009/04/23 09:30:31.2    -254    205    -46    327    331 309.0  -8.0  34146  289.35 0855.26
2009/04/23 09:30:31.3    -358    119   -116    378    395 288.4 -22.1  34136  289.15 0855.26
2009/04/23 09:30:31.4    -442    -27   -247    443    507 266.5 -36.0  34120  288.91 0855.26
2009/04/23 09:30:31.5    -320    145    -33    352    354 294.4  -5.5  34120  288.91 0855.26
2009/04/23 09:30:31.6    -282    258     53    383    387 312.4   8.0  34120  288.89 0855.26
2009/04/23 09:30:31.7    -256    137     18    291    292 298.2   3.6  34128  289.02 0855.26
2009/04/23 09:30:31.8    -201    161      3    258    259 308.6   0.8  34126  289.00 0855.26
2009/04/23 09:30:31.9    -369    106    -90    385    396 286.1 -13.2  34130  289.06 0855.26
2009/04/23 09:30:32.0    -573   -164   -175    597    622 254.0 -21.1  34126  288.98 0855.27
2009/04/23 09:30:32.1    -508    -58   -102    512    523 263.4 -11.3  34124  288.96 0855.27
2009/04/23 09:30:32.2    -431   -134     28    452    453 252.7   3.6  34128  289.04 0855.27
2009/04/23 09:30:32.3    -361    -69     76    368    376 259.2  11.8  34126  288.98 0855.27
2009/04/23 09:30:32.4    -418     -6    -76    419    426 269.1 -10.4  34122  288.92 0855.27
2009/04/23 09:30:32.5    -505    114   -179    518    549 282.8 -19.1  34126  289.01 0855.27
2009/04/23 09:30:32.6    -502    125    -93    518    527 284.1 -10.3  34130  289.07 0855.27
2009/04/23 09:30:32.7    -459    110   -154    473    497 283.5 -23.2  34124  288.96 0855.27
2009/04/23 09:30:32.8    -401      6    -97    402    414 270.9 -13.7  34126  289.00 0855.27
2009/04/23 09:30:32.9    -375    -62    -98    381    394 260.5 -14.5  34126  288.99 0855.27
2009/04/23 09:30:33.0    -526    -53   -189    529    562 264.2 -19.7  34134  289.13 0855.27
2009/04/23 09:30:33.1    -587   -138   -226    604    644 256.7 -26.0  34128  289.04 0855.27
2009/04/23 09:30:33.2    -762   -101    -58    769    772 262.4  -4.4  34130  289.08 0855.27
2009/04/23 09:30:33.3    -657     81   -251    663    708 277.1 -26.2  34126  288.99 0855.27
2009/04/23 09:30:33.4    -526   -118   -218    540    582 257.3 -27.5  34128  289.02 0855.27
2009/04/23 09:30:33.5    -618   -113   -152    629    648 259.6 -13.6  34130  289.06 0855.27
2009/04/23 09:30:33.6    -604   -306   -201    678    708 243.1 -16.5  34128  289.03 0855.27
2009/04/23 09:30:33.7    -551   -210   -125    591    605 249.1 -12.0  34136  289.15 0855.27
2009/04/23 09:30:33.8    -661   -178     19    685    686 254.9   1.6  34140  289.24 0855.27
2009/04/23 09:30:33.9    -572     59     13    575    576 275.9   1.4  34146  289.34 0855.27
2009/04/23 09:30:34.0    -599     28     32    600    601 272.7   3.1  34146  289.34 0855.29
2009/04/23 09:30:34.1    -415     42    198    418    462 275.9  27.2  34130  289.05 0855.29
2009/04/23 09:30:34.2    -223    351    192    417    459 327.5  26.5  34134  289.12 0855.29
2009/04/23 09:30:34.3    -263    256    112    368    385 314.2  17.0  34136  289.16 0855.29
2009/04/23 09:30:34.4    -431      2   -103    432    445 270.4 -13.4  34112  288.77 0855.29
2009/04/23 09:30:34.5    -362    239     66    435    441 303.5   8.7  34118  288.85 0855.29
2009/04/23 09:30:34.6    -601    161   -138    623    639 285.1 -12.5  34116  288.81 0855.29
2009/04/23 09:30:34.7    -471    245   -131    532    549 297.5 -13.9  34104  288.62 0855.29
2009/04/23 09:30:34.8    -301    406    -72    506    512 323.4  -8.1  34116  288.81 0855.29
2009/04/23 09:30:34.9    -306    326   -144    448    471 316.8 -17.9  34118  288.85 0855.29
2009/04/23 09:30:35.0    -357    380   -154    522    545 316.8 -16.5  34118  288.85 0855.29
2009/04/23 09:30:35.1    -295    464    -18    551    552 327.5  -1.9  34120  288.89 0855.29
2009/04/23 09:30:35.2    -276    549     -2    615    616 333.3  -0.3  34122  288.94 0855.29
2009/04/23 09:30:35.3    -298    607    -97    677    685 333.8  -8.2  34124  288.95 0855.29
2009/04/23 09:30:35.4    -318    563   -228    647    687 330.5 -19.4  34116  288.82 0855.29
2009/04/23 09:30:35.5    -148    418   -147    444    467 340.4 -23.8  34110  288.73 0855.29
2009/04/23 09:30:35.6    -115    463   -110    478    491 346.0 -13.0  34120  288.90 0855.29
2009/04/23 09:30:35.7    -187    412    -80    453    461 335.6 -10.1  34120  288.89 0855.29
2009/04/23 09:30:35.8    -102    330     -6    346    347 342.7  -1.1  34126  288.99 0855.29
2009/04/23 09:30:35.9    -113    449     60    463    467 345.8   7.4  34116  288.81 0855.29
2009/04/23 09:30:36.0      -2    346     81    347    357 359.5  13.2  34122  288.93 0855.30
2009/04/23 09:30:36.1    -354    181   -134    398    421 297.1 -18.6  34080  288.21 0855.30
2009/04/23 09:30:36.2    -386    221   -128    445    463 299.8 -20.7  34072  288.09 0855.30
2009/04/23 09:30:36.3    -460    171   -164    491    517 290.4 -23.6  34072  288.07 0855.30
2009/04/23 09:30:36.4    -528    196   -167    564    589 290.4 -16.5  34078  288.17 0855.30
2009/04/23 09:30:36.5     -44    286    294    290    412 351.1  50.4  34116  288.84 0855.30
2009/04/23 09:30:36.6     -24     75    195     79    210 342.2  77.0  34114  288.80 0855.30
2009/04/23 09:30:36.7     156    107    134    190    232  55.6  38.6  34098  288.53 0855.30
2009/04/23 09:30:36.8       6    243    205    244    318   1.6  44.3  34108  288.68 0855.30
2009/04/23 09:30:36.9    -207    266    -18    338    339 322.2  -3.2  34094  288.44 0855.30
2009/04/23 09:30:37.0     -40    235     50    239    245 350.3  12.0  34100  288.56 0855.30
2009/04/23 09:30:37.1     113    231     32    258    261  26.1   7.2  34104  288.61 0855.30
2009/04/23 09:30:37.2     111    174    -57    207    215  32.5 -15.5  34104  288.62 0855.30
2009/04/23 09:30:37.4      89    148     91    173    195  31.0  29.8  34102  288.58 0855.30
2009/04/23 09:30:37.4      61    185     37    195    199  18.3  10.8  34106  288.65 0855.30
2009/04/23 09:30:37.5     114    117    140    164    215  44.1  44.8  34100  288.57 0855.30
2009/04/23 09:30:37.6     -56     64     -3     86     87 318.6  -2.6  34104  288.62 0855.30
2009/04/23 09:30:37.7     -60     49   -142     78    162 309.5 -73.5  34098  288.53 0855.30
2009/04/23 09:30:37.8     -86     50   -179    100    205 300.2 -72.9  34108  288.70 0855.30
2009/04/23 09:30:37.9     -84    132    -43    157    162 327.5 -20.2  34106  288.67 0855.30
2009/04/23 09:30:38.0     -48    121   -129    131    183 338.2 -54.4  34112  288.75 0855.30
2009/04/23 09:30:38.1    -243     66    -70    252    261 285.3 -20.2  34102  288.59 0855.30
2009/04/23 09:30:38.2    -321     23   -195    322    376 274.1 -38.4  34110  288.71 0855.30
2009/04/23 09:30:38.3    -207    -32   -226    210    308 261.0 -56.6  34110  288.71 0855.30
2009/04/23 09:30:38.5     -32     26   -184     42    188 309.5 -90.0  34110  288.74 0855.30
2009/04/23 09:30:38.5     -76     40   -151     87    174 298.0 -71.6  34108  288.69 0855.30
2009/04/23 09:30:38.6     -82    -24    -72     86    112 253.6 -48.2  34110  288.72 0855.30
2009/04/23 09:30:38.8    -238    -31    -13    240    241 262.5  -3.3  34108  288.68 0855.30
2009/04/23 09:30:38.9    -338     44    -68    341    348 277.5 -11.3  34102  288.60 0855.30
2009/04/23 09:30:39.0    -357     77   -148    366    394 282.3 -27.8  34108  288.69 0855.30
2009/04/23 09:30:39.1    -369    -35   -169    371    407 264.6 -30.6  34106  288.66 0855.30
2009/04/23 09:30:39.2    -378   -118   -153    397    425 252.6 -26.5  34108  288.70 0855.30
2009/04/23 09:30:39.3    -362   -121   -161    382    414 251.4 -28.6  34112  288.77 0855.30
2009/04/23 09:30:39.4    -313    -13   -215    314    380 267.5 -42.0  34104  288.64 0855.30
2009/04/23 09:30:39.5    -228    -26   -233    230    327 263.4 -54.8  34098  288.53 0855.30
2009/04/23 09:30:39.6    -310     -4   -248    311    397 269.1 -47.1  34094  288.47 0855.30
2009/04/23 09:30:39.7    -170    -47   -201    177    267 254.5 -58.6  34100  288.54 0855.30
2009/04/23 09:30:39.8     -84    -81   -267    117    291 226.0 -79.3  34112  288.75 0855.30
2009/04/23 09:30:39.9     -90    -63   -209    110    236 234.9 -74.8  34108  288.69 0855.30
2009/04/23 09:30:40.0    -118    -72   -144    139    200 238.5 -55.3  34098  288.53 0855.30
2009/04/23 09:30:40.1    -171     -9   -150    172    228 267.0 -50.2  34106  288.67 0855.30
2009/04/23 09:30:40.2    -253     66   -161    262    307 284.8 -38.9  34104  288.63 0855.30
2009/04/23 09:30:40.3    -203     47   -156    209    260 283.2 -45.0  34106  288.66 0855.30
2009/04/23 09:30:40.4    -215     45    -77    220    233 281.9 -23.8  34104  288.62 0855.30
2009/04/23 09:30:40.5    -216    155    -35    266    269 305.7  -7.7  34102  288.58 0855.30
2009/04/23 09:30:40.6    -129    142    -34    193    197 317.7 -10.1  34102  288.58 0855.30
2009/04/23 09:30:40.7    -195    124    -93    232    249 302.4 -27.4  34102  288.59 0855.30
2009/04/23 09:30:40.8    -208     70    -75    220    233 288.8 -18.9  34106  288.65 0855.30
2009/04/23 09:30:40.9    -163    -72     19    179    181 246.0   6.1  34094  288.47 0855.30
2009/04/23 09:30:41.0     -75     15     55     77     94 281.5  39.1  34106  288.67 0855.30
2009/04/23 09:30:41.1    -180      2    -28    181    184 270.8  -9.0  34104  288.64 0855.30
2009/04/23 09:30:41.2    -351    -30   -132    353    376 265.0 -25.9  34090  288.40 0855.30
2009/04/23 09:30:41.3    -435     91   -210    445    492 281.9 -31.5  34100  288.56 0855.30
2009/04/23 09:30:41.4    -341    117   -116    361    379 289.0 -22.9  34084  288.30 0855.30
2009/04/23 09:30:41.5    -285    159      0    327    328 299.1   0.1  34104  288.61 0855.30
2009/04/23 09:30:41.6    -190    112    -97    221    241 300.7 -29.5  34104  288.61 0855.30
2009/04/23 09:30:41.7    -175     89   -124    197    232 296.9 -39.9  34102  288.60 0855.30
2009/04/23 09:30:41.8    -200     54    -77    208    221 285.3 -25.4  34106  288.65 0855.30
2009/04/23 09:30:41.9    -201     15   -137    202    244 274.4 -41.8  34100  288.57 0855.30
2009/04/23 09:30:42.0    -164     36   -165    168    235 282.4 -54.2  34102  288.60 0855.30
2009/04/23 09:30:42.1    -133     72   -132    152    201 298.4 -50.2  34102  288.60 0855.31
2009/04/23 09:30:42.2     -93     93   -131    132    185 314.8 -54.9  34100  288.57 0855.31
2009/04/23 09:30:42.3     -75     75   -140    107    176 315.0 -63.1  34106  288.65 0855.31
2009/04/23 09:30:42.4    -113     80    -76    139    158 305.5 -35.4  34108  288.69 0855.31
2009/04/23 09:30:42.5     -80     50    -65     95    115 302.4 -42.0  34108  288.70 0855.31
2009/04/23 09:30:42.6     -99     64    -42    119    127 302.9 -19.7  34106  288.65 0855.31
2009/04/23 09:30:42.7    -160     73    -58    177    186 294.6 -23.8  34110  288.72 0855.31
2009/04/23 09:30:42.8    -140     30    -94    144    171 282.4 -40.4  34110  288.72 0855.31
2009/04/23 09:30:42.9    -109     90    -44    142    148 309.6 -22.3  34108  288.69 0855.31
2009/04/23 09:30:43.0     -71    108    -55    130    141 326.6 -28.5  34104  288.62 0855.31
2009/04/23 09:30:43.1    -147    134    -63    200    210 312.4 -17.6  34102  288.58 0855.31
2009/04/23 09:30:43.2     -97    117    -55    153    162 320.3 -24.8  34106  288.65 0855.31
2009/04/23 09:30:43.3     -89     73    -50    116    126 309.5 -29.5  34106  288.67 0855.31
2009/04/23 09:30:43.4     -51     27    -44     58     72 298.0 -46.1  34108  288.70 0855.31
2009/04/23 09:30:43.5     -46     12    -17     48     51 285.1 -19.7  34106  288.65 0855.31
2009/04/23 09:30:43.6     -40    -35     -8     54     55 228.7  -9.3  34106  288.67 0855.31
2009/04/23 09:30:43.7     -73    -50     19     89     92 235.8  12.2  34106  288.67 0855.31
2009/04/23 09:30:43.8     -98    -23     27    101    105 256.7  15.3  34108  288.70 0855.31
2009/04/23 09:30:43.9     -82    -52     30     98    103 237.6  17.3  34106  288.67 0855.31
2009/04/23 09:30:44.0     -50    -65     25     83     87 217.8  16.8  34108  288.69 0855.31
2009/04/23 09:30:44.1     -24    -90     21     94     97 195.1  12.6  34108  288.69 0855.29
2009/04/23 09:30:44.2     -71    -97      0    121    122 216.1   0.2  34106  288.67 0855.29
2009/04/23 09:30:44.3     -78    -86      9    117    118 222.3   4.4  34106  288.67 0855.29
2009/04/23 09:30:44.4     -37    -88     38     96    103 202.7  23.0  34106  288.65 0855.29
2009/04/23 09:30:44.5     -14    -86     34     88     94 189.8  21.5  34106  288.67 0855.29
2009/04/23 09:30:44.6      -2    -77     35     78     85 181.8  25.7  34106  288.65 0855.29
2009/04/23 09:30:44.7      -9    -89     30     90     95 185.8  18.4  34104  288.62 0855.29
2009/04/23 09:30:44.8      10    -72     39     73     82 172.0  30.3  34104  288.62 0855.29
2009/04/23 09:30:44.9       8   -104     55    105    118 175.5  29.8  34108  288.69 0855.29
2009/04/23 09:30:45.0       1   -126      6    127    128 179.1   2.8  34112  288.75 0855.29
2009/04/23 09:30:45.1     -21   -154     17    156    158 188.1   6.5  34112  288.77 0855.29
2009/04/23 09:30:45.2     -35   -150     14    155    156 193.4   5.4  34114  288.80 0855.29
2009/04/23 09:30:45.3     -10    -99     41    100    108 186.2  23.0  34110  288.72 0855.29
2009/04/23 09:30:45.4       6   -120     54    121    132 176.9  25.2  34108  288.69 0855.29
2009/04/23 09:30:45.5      -6   -146     67    147    161 182.7  26.2  34108  288.70 0855.29
2009/04/23 09:30:45.6       3   -178     49    179    186 178.9  15.3  34108  288.70 0855.29
2009/04/23 09:30:45.7     -25   -235     35    237    240 186.2   8.5  34110  288.73 0855.29
2009/04/23 09:30:45.8     -27   -214     12    216    217 187.3   3.3  34114  288.79 0855.29
2009/04/23 09:30:45.9      15   -255     93    256    272 176.6  20.7  34110  288.71 0855.29
2009/04/23 09:30:46.0       6   -248    124    249    278 178.4  28.5  34112  288.75 0855.29
2009/04/23 09:30:46.1      55   -275    141    281    314 168.5  28.6  34108  288.70 0855.27
2009/04/23 09:30:46.2     101   -229    131    251    283 156.2  29.8  34106  288.66 0855.27
2009/04/23 09:30:46.3      87   -269    121    283    307 162.0  24.6  34110  288.73 0855.27
2009/04/23 09:30:46.4     125   -252    159    282    323 153.5  31.9  34112  288.75 0855.27
2009/04/23 09:30:46.5     141   -246    183    284    337 150.2  35.7  34108  288.68 0855.27
2009/04/23 09:30:46.6     134   -196    173    238    294 145.5  39.7  34110  288.73 0855.27
2009/04/23 09:30:46.7      68   -195    147    207    253 160.8  38.8  34110  288.71 0855.27
2009/04/23 09:30:46.8      48   -144    131    152    200 161.5  45.4  34112  288.77 0855.27
2009/04/23 09:30:46.9      71   -215    149    227    271 161.7  36.3  34114  288.80 0855.27
2009/04/23 09:30:47.0      46   -234    207    239    316 168.9  45.5  34114  288.80 0855.27
2009/04/23 09:30:47.1      -3   -215    201    216    295 181.0  47.9  34116  288.81 0855.27
2009/04/23 09:30:47.2      50   -168    170    176    244 163.3  49.0  34112  288.77 0855.27
2009/04/23 09:30:47.3     100   -110    126    149    195 137.7  44.3  34114  288.79 0855.27
2009/04/23 09:30:47.4      74   -144    146    162    218 152.8  46.9  34116  288.84 0855.27
2009/04/23 09:30:47.5      94   -188    157    211    263 153.3  40.4  34120  288.88 0855.27
2009/04/23 09:30:47.6      49   -163    126    171    212 163.1  39.9  34116  288.82 0855.27
2009/04/23 09:30:47.7     131   -167    139    213    254 141.7  36.3  34118  288.85 0855.27
2009/04/23 09:30:47.8     157   -168    193    231    301 137.0  44.1  34118  288.87 0855.27
2009/04/23 09:30:47.9      46   -108    148    118    189 156.8  57.1  34110  288.74 0855.27
2009/04/23 09:30:48.0      10   -198    101    199    223 177.1  29.2  34116  288.84 0855.27
2009/04/23 09:30:48.1       2   -190     98    191    214 179.3  29.3  34116  288.82 0855.25
2009/04/23 09:30:48.2      -3   -148     28    149    152 181.4  11.0  34116  288.84 0855.25
2009/04/23 09:30:48.3      -6   -221     69    222    233 181.6  17.3  34116  288.82 0855.25
2009/04/23 09:30:48.4      -3   -206     70    207    219 181.0  18.9  34112  288.77 0855.25
2009/04/23 09:30:48.5     -47   -263     57    268    275 190.2  12.2  34116  288.83 0855.25
2009/04/23 09:30:48.6    -112   -331     68    350    357 198.7  11.1  34116  288.84 0855.25
2009/04/23 09:30:48.7    -101   -215     37    238    242 205.2   9.0  34116  288.83 0855.25
2009/04/23 09:30:48.8     -20   -258    107    259    280 184.5  23.8  34120  288.88 0855.25
2009/04/23 09:30:48.9      -4   -309     72    310    319 180.9  13.2  34120  288.88 0855.25
2009/04/23 09:30:49.0     152   -361     91    392    403 157.2  13.1  34120  288.89 0855.25
2009/04/23 09:30:49.1     149   -313    164    347    383 154.5  27.1  34120  288.88 0855.25
2009/04/23 09:30:49.2     -74   -402    132    409    430 190.5  17.9  34120  288.90 0855.25
2009/04/23 09:30:49.3    -107   -389     14    404    405 195.4   2.1  34120  288.89 0855.25
2009/04/23 09:30:49.4     -76   -409     44    417    420 190.6   6.1  34114  288.80 0855.25
2009/04/23 09:30:49.5    -101   -476    138    487    507 192.0  15.8  34126  288.98 0855.25
2009/04/23 09:30:49.6    -106   -508    145    520    540 191.8  15.6  34122  288.92 0855.25
2009/04/23 09:30:49.7     -46   -491     99    494    504 185.4  11.3  34118  288.86 0855.25
2009/04/23 09:30:49.8    -105   -482     61    494    498 192.4   7.1  34120  288.88 0855.25
2009/04/23 09:30:49.9    -186   -478      1    513    514 201.3   0.2  34126  289.00 0855.25
2009/04/23 09:30:50.0    -152   -465     39    490    492 198.2   4.6  34120  288.91 0855.25
2009/04/23 09:30:50.1    -140   -376     42    402    405 200.5   6.1  34124  288.95 0855.25
2009/04/23 09:30:50.2    -209   -351    -40    409    412 210.8  -5.6  34128  289.04 0855.25
2009/04/23 09:30:50.3    -103   -363    -90    378    389 195.9 -13.4  34126  289.01 0855.25
2009/04/23 09:30:50.4      16   -327     20    328    329 177.1   3.6  34122  288.93 0855.25
2009/04/23 09:30:50.5      -4   -281    -89    282    295 180.9 -22.5  34128  289.02 0855.25
2009/04/23 09:30:50.6      70   -433    -72    439    445 170.8  -9.3  34110  288.73 0855.25
2009/04/23 09:30:50.7      60   -328     -8    334    335 169.5  -1.4  34120  288.89 0855.25
2009/04/23 09:30:50.8     125   -383    -73    404    411 161.9 -10.3  34122  288.92 0855.25
2009/04/23 09:30:50.9     158   -339   -110    375    390 155.0 -21.2  34128  289.03 0855.25
2009/04/23 09:30:51.0      82   -343    -98    353    367 166.4 -15.5  34124  288.96 0855.25
2009/04/23 09:30:51.1      70   -406      1    413    414 170.2   0.2  34130  289.05 0855.27
2009/04/23 09:30:51.2      60   -486    -77    490    497 172.9  -9.0  34126  289.00 0855.27
2009/04/23 09:30:51.3      68   -497   -124    502    518 172.2 -13.9  34116  288.81 0855.27
2009/04/23 09:30:51.4      41   -415   -115    418    433 174.3 -20.0  34112  288.77 0855.27
2009/04/23 09:30:51.5     143   -378    -26    405    406 159.2  -3.8  34110  288.73 0855.27
2009/04/23 09:30:51.6     143   -276     26    311    313 152.6   4.9  34110  288.71 0855.27
2009/04/23 09:30:51.7      83   -290   -100    302    319 164.0 -18.3  34110  288.71 0855.27
2009/04/23 09:30:51.8     307   -424   -188    524    556 144.0 -24.8  34110  288.74 0855.27
2009/04/23 09:30:51.9     439   -318    -17    543    544 126.0  -1.9  34106  288.67 0855.27
2009/04/23 09:30:52.0    -116   -454    146    469    492 194.4  17.3  34104  288.62 0855.27
2009/04/23 09:30:52.1    -123   -529    142    544    563 193.1  14.7  34106  288.65 0855.27
2009/04/23 09:30:52.2    -110   -503    215    516    559 192.4  24.1  34098  288.53 0855.27
2009/04/23 09:30:52.3    -159   -449    139    477    497 199.5  16.3  34098  288.51 0855.27
2009/04/23 09:30:52.4    -207   -473     54    517    520 203.6   6.0  34096  288.49 0855.27
2009/04/23 09:30:52.5     -62   -511    -28    515    516 187.0  -3.2  34094  288.47 0855.27
2009/04/23 09:30:52.6    -161   -355   -149    390    417 204.4 -26.4  34098  288.51 0855.27
2009/04/23 09:30:52.7    -119   -477     15    492    493 194.1   1.8  34100  288.54 0855.27
2009/04/23 09:30:52.8     -67   -443     42    449    452 188.6   5.4  34100  288.56 0855.27
2009/04/23 09:30:52.9    -118   -568   -203    581    616 191.8 -19.3  34090  288.37 0855.27
2009/04/23 09:30:53.0    -383   -691   -105    791    798 209.0  -7.6  34090  288.39 0855.27
2009/04/23 09:30:53.1    -328   -689   -201    764    790 205.5 -14.8  34100  288.56 0855.28
2009/04/23 09:30:53.2    -207   -727   -224    756    789 195.9 -16.5  34098  288.51 0855.28
2009/04/23 09:30:53.3    -368   -731   -174    819    838 206.7 -12.0  34096  288.50 0855.28
2009/04/23 09:30:53.4    -166   -699    -76    719    724 193.4  -6.1  34096  288.49 0855.28
2009/04/23 09:30:53.5    -204   -796    -32    822    823 194.4  -2.2  34096  288.48 0855.28
2009/04/23 09:30:53.6    -136   -944     35    954    955 188.2   2.1  34098  288.51 0855.28
2009/04/23 09:30:53.7    -205   -764    -30    792    793 195.1  -2.2  34104  288.64 0855.28
2009/04/23 09:30:53.8    -172   -567   -205    593    627 196.9 -24.3  34108  288.69 0855.28
2009/04/23 09:30:53.9    -295   -666   -232    729    766 203.9 -17.7  34100  288.57 0855.28
2009/04/23 09:30:54.0    -215   -645   -207    681    712 198.5 -16.9  34098  288.51 0855.28
2009/04/23 09:30:54.1    -180   -603   -191    630    659 196.7 -16.9  34104  288.62 0855.28
2009/04/23 09:30:54.2     -18   -599   -165    600    623 181.8 -15.4  34100  288.54 0855.28
2009/04/23 09:30:54.3     -31   -560    -87    561    568 183.2  -8.8  34094  288.47 0855.28
2009/04/23 09:30:54.4     -19   -490   -150    491    514 182.2 -17.0  34094  288.46 0855.28
2009/04/23 09:30:54.5    -199   -394    -72    442    449 206.8  -9.3  34100  288.55 0855.28
2009/04/23 09:30:54.6    -101   -437    -66    449    454 193.1  -8.4  34094  288.45 0855.28
2009/04/23 09:30:54.7    -166   -586    -43    610    612 195.8  -4.1  34098  288.53 0855.28
2009/04/23 09:30:54.8     -51   -465     -9    468    469 186.3  -1.1  34098  288.51 0855.28
2009/04/23 09:30:54.9     -78   -512    -99    518    528 188.7 -10.8  34108  288.70 0855.28
2009/04/23 09:30:55.0      -2   -459    -88    460    469 180.3 -10.8  34104  288.62 0855.28
2009/04/23 09:30:55.1     -90   -481    -23    490    491 190.6  -2.7  34100  288.57 0855.28
2009/04/23 09:30:55.2     -69   -446      5    452    453 188.9   0.7  34100  288.56 0855.28
2009/04/23 09:30:55.3     -31   -415     35    417    419 184.4   4.9  34092  288.41 0855.28
2009/04/23 09:30:55.4     193   -405     55    449    453 154.5   7.1  34100  288.55 0855.28
2009/04/23 09:30:55.5     173   -313    130    358    380 151.0  20.8  34102  288.59 0855.28
2009/04/23 09:30:55.6     123   -158    -52    201    208 142.2 -14.7  34104  288.64 0855.28
2009/04/23 09:30:55.7     -16   -284     35    285    288 183.4   7.1  34098  288.51 0855.28
2009/04/23 09:30:55.8    -124   -409    -26    428    429 197.0  -3.5  34104  288.61 0855.28
2009/04/23 09:30:55.9     -28   -273    -38    275    278 186.0  -8.0  34104  288.61 0855.28
2009/04/23 09:30:56.0      34   -255    -24    258    260 172.4  -5.4  34096  288.49 0855.28
2009/04/23 09:30:56.1      41   -101    -27    110    114 157.7 -13.9  34104  288.62 0855.28
2009/04/23 09:30:56.2     -60   -116    -97    131    163 207.6 -44.5  34104  288.64 0855.28
2009/04/23 09:30:56.3      41   -102    -95    110    145 158.1 -49.8  34112  288.77 0855.28
2009/04/23 09:30:56.4      21    -47    -16     52     54 155.5 -23.8  34110  288.72 0855.28
2009/04/23 09:30:56.5     -60    -32     24     69     74 242.0  19.4  34112  288.75 0855.28
2009/04/23 09:30:56.6    -163   -104     -8    194    195 237.5  -2.6  34114  288.79 0855.28
2009/04/23 09:30:56.7    -163   -141    -41    216    221 229.1 -10.9  34110  288.72 0855.28
2009/04/23 09:30:56.8     -19   -167    -37    169    174 186.7 -12.4  34108  288.69 0855.28
2009/04/23 09:30:56.9      36   -179     -8    183    184 168.4  -2.6  34104  288.62 0855.28
2009/04/23 09:30:57.0      83   -198     58    215    223 157.3  15.3  34108  288.69 0855.28
2009/04/23 09:30:57.1       2   -234    -24    235    237 179.5  -6.0  34102  288.59 0855.30
2009/04/23 09:30:57.2      46   -309    -54    313    318 171.5  -9.8  34104  288.61 0855.30
2009/04/23 09:30:57.3      66   -214   -134    225    261 162.8 -37.9  34098  288.53 0855.30
2009/04/23 09:30:57.4      65   -221   -131    231    265 163.5 -36.5  34108  288.70 0855.30
2009/04/23 09:30:57.5     -16   -205   -167    206    265 184.7 -47.9  34116  288.81 0855.30
2009/04/23 09:30:57.6     263   -167   -115    312    332 122.4 -25.5  34108  288.68 0855.30
2009/04/23 09:30:57.7     569     55    -12    572    573  84.4  -1.3  34110  288.73 0855.30
2009/04/23 09:30:57.8     499     11     24    500    501  88.7   2.8  34094  288.47 0855.30
2009/04/23 09:30:57.9     282   -246     94    375    387 131.1  14.2  34106  288.67 0855.30
2009/04/23 09:30:58.0     253   -249     76    356    365 134.6  12.2  34102  288.59 0855.30
2009/04/23 09:30:58.1     348   -359     98    500    510 135.9  11.1  34098  288.52 0855.30
2009/04/23 09:30:58.2     328   -436    134    546    563 143.0  13.8  34098  288.52 0855.30
2009/04/23 09:30:58.3     251   -450    118    516    530 150.8  12.9  34102  288.58 0855.30
2009/04/23 09:30:58.4     278   -356    143    453    476 142.0  17.5  34094  288.46 0855.30
2009/04/23 09:30:58.5     256   -329    237    417    479 142.1  32.1  34096  288.50 0855.30
2009/04/23 09:30:58.6     321    -92    201    335    390 106.1  33.8  34094  288.44 0855.30
2009/04/23 09:30:58.7     222     51    285    228    364  77.0  57.3  34100  288.56 0855.30
2009/04/23 09:30:58.8      -9     89    207     90    225 354.2  75.0  34098  288.53 0855.30
2009/04/23 09:30:58.9     -11    111    203    112    231 354.2  68.8  34106  288.65 0855.30
2009/04/23 09:30:59.0    -264   -198    332    330    468 233.1  50.1  34090  288.39 0855.30
2009/04/23 09:30:59.1    -197   -140     42    242    246 234.5  10.0  34102  288.58 0855.25
2009/04/23 09:30:59.2    -127   -175     42    217    222 216.0  11.0  34102  288.58 0855.25
2009/04/23 09:30:59.3     -25     21    202     33    204 309.6  90.0  34104  288.64 0855.25
2009/04/23 09:30:59.4      -1   -120     90    121    150 180.9  40.1  34102  288.60 0855.25
2009/04/23 09:30:59.5    -174   -353    116    394    411 206.3  16.5  34102  288.58 0855.25
2009/04/23 09:30:59.6    -383   -408     22    560    561 223.2   2.3  34106  288.67 0855.25
2009/04/23 09:30:59.7    -566   -422    -83    707    712 233.3  -6.7  34110  288.71 0855.25
2009/04/23 09:30:59.8    -563   -492   -105    748    756 228.8  -8.0  34108  288.70 0855.25
2009/04/23 09:30:59.9    -579   -411    -56    711    714 234.6  -4.6  34110  288.73 0855.25
2009/04/23 09:31:00.0    -505   -179    -77    537    543 250.4  -8.2  34118  288.85 0855.25
2009/04/23 09:31:00.1    -602   -226    -54    644    647 249.4  -4.9  34096  288.50 0855.25
2009/04/23 09:31:00.2    -476   -164     25    504    505 251.0   2.9  34112  288.76 0855.25
2009/04/23 09:31:00.3    -559    -25   -113    560    572 267.4 -11.5  34112  288.75 0855.25
2009/04/23 09:31:00.4    -700    -82    -97    705    712 263.3  -7.9  34104  288.62 0855.25
2009/04/23 09:31:00.5    -817   -246   -287    854    902 253.2 -18.6  34104  288.61 0855.25
2009/04/23 09:31:00.6    -761   -236   -243    797    834 252.7 -17.0  34104  288.62 0855.25
2009/04/23 09:31:00.7    -816   -297   -309    869    923 250.0 -19.6  34100  288.55 0855.25
2009/04/23 09:31:00.8    -711   -339   -275    788    835 244.5 -19.3  34110  288.72 0855.25
2009/04/23 09:31:00.9    -870   -235   -233    902    932 254.9 -14.5  34100  288.57 0855.25
2009/04/23 09:31:01.0    -963   -100   -280    969   1008 264.0 -20.9  34120  288.88 0855.25
2009/04/23 09:31:01.1    -776    -88    191    781    805 263.5  13.8  34086  288.32 0855.17
2009/04/23 09:31:01.2    -418   -128    202    438    482 253.0  26.6  34110  288.74 0855.17
2009/04/23 09:31:01.3    -325   -314    118    452    468 226.0  14.7  34118  288.87 0855.17
2009/04/23 09:31:01.4    -529   -426   -121    680    691 231.2 -10.1  34116  288.83 0855.17
2009/04/23 09:31:01.5    -500   -460   -201    680    710 227.4 -16.5  34100  288.56 0855.17
2009/04/23 09:31:01.6    -186   -409   -142    450    471 204.4 -22.5  34108  288.69 0855.17
2009/04/23 09:31:01.7    -218   -242      9    326    327 222.0   1.7  34106  288.66 0855.17
2009/04/23 09:31:01.8    -162    -49     89    170    191 253.2  29.8  34098  288.53 0855.17
2009/04/23 09:31:01.9    -272   -129     42    302    306 244.6   8.0  34120  288.88 0855.17
2009/04/23 09:31:02.0    -391   -207    -88    443    452 242.1 -11.3  34110  288.72 0855.17
2009/04/23 09:31:02.1    -595   -181    -21    623    624 253.1  -2.0  34110  288.72 0855.17
2009/04/23 09:31:02.2    -298   -297    130    422    442 225.1  17.2  34112  288.75 0855.17
2009/04/23 09:31:02.3    -288   -304      2    419    420 223.4   0.4  34112  288.77 0855.17
2009/04/23 09:31:02.4    -257   -254   -190    362    408 225.3 -34.5  34120  288.91 0855.17
2009/04/23 09:31:02.5     -95    -58    -83    112    139 238.5 -44.1  34104  288.62 0855.17
2009/04/23 09:31:02.6    -107    -78     26    133    136 234.0  11.1  34108  288.69 0855.17
2009/04/23 09:31:02.7    -174   -160     50    237    243 227.3  12.0  34110  288.73 0855.17
2009/04/23 09:31:02.8    -344    -91   -145    356    384 255.1 -27.6  34114  288.79 0855.17
2009/04/23 09:31:02.9      27   -277    -68    279    288 174.4 -13.7  34122  288.92 0855.17
2009/04/23 09:31:03.0     117   -162     28    200    203 144.2   8.0  34122  288.92 0855.17
2009/04/23 09:31:03.1      15   -169    -47    170    176 174.7 -20.0  34118  288.87 0855.09
2009/04/23 09:31:03.2      26   -217     43    219    224 173.1  11.1  34118  288.86 0855.09
2009/04/23 09:31:03.3     -51   -273     60    278    285 190.6  12.2  34108  288.70 0855.09
2009/04/23 09:31:03.4     -74   -225      2    237    238 198.3   0.7  34104  288.63 0855.09
2009/04/23 09:31:03.5    -125   -137    -51    186    194 222.5 -15.5  34112  288.75 0855.09
2009/04/23 09:31:03.6      19   -199    -37    200    204 174.4 -10.5  34108  288.69 0855.09
2009/04/23 09:31:03.7      16   -216     88    217    234 175.6  23.0  34108  288.69 0855.09
2009/04/23 09:31:03.8     -39   -503    181    505    536 184.5  20.4  34102  288.58 0855.09
2009/04/23 09:31:03.9     -35   -464     66    466    471 184.4   8.1  34098  288.52 0855.09
2009/04/23 09:31:04.0    -176   -448     -5    482    483 201.5  -0.7  34104  288.64 0855.09
2009/04/23 09:31:04.2       0   -253     87    254    269 179.9  18.9  34102  288.58 0855.09
2009/04/23 09:31:04.2      32   -369     46    371    374 174.9   7.1  34110  288.72 0855.09
2009/04/23 09:31:04.3      -6   -396     93    397    408 181.0  13.2  34094  288.46 0855.09
2009/04/23 09:31:04.5     -57   -328    -16    334    335 189.9  -2.8  34102  288.60 0855.09
2009/04/23 09:31:04.6     -69   -283    -23    292    293 193.8  -4.6  34104  288.61 0855.09
2009/04/23 09:31:04.7     -16   -219    -52    220    227 184.4 -13.4  34108  288.69 0855.09
2009/04/23 09:31:04.8      83   -224    -57    240    247 159.5 -13.4  34110  288.73 0855.09
2009/04/23 09:31:04.9     137   -314   -137    343    369 156.3 -27.4  34110  288.71 0855.09
2009/04/23 09:31:05.0     282   -351    -49    451    454 141.3  -6.2  34106  288.65 0855.09
2009/04/23 09:31:05.1      98   -314   -118    330    351 162.6 -19.7  34100  288.57 0855.09
2009/04/23 09:31:05.2      30   -277    -96    279    296 173.8 -19.1  34108  288.70 0855.11
2009/04/23 09:31:05.3     -62   -359     85    365    375 189.9  13.1  34108  288.69 0855.11
2009/04/23 09:31:05.4     -87   -368     81    379    388 193.4  12.1  34110  288.71 0855.11
2009/04/23 09:31:05.5     -41   -259     73    263    274 189.1  15.6  34110  288.73 0855.11
2009/04/23 09:31:05.6     -53   -194     81    202    217 195.4  23.0  34112  288.77 0855.11
2009/04/23 09:31:05.7    -169    -67     74    182    196 248.3  23.4  34110  288.74 0855.11
2009/04/23 09:31:05.8    -149   -227    -41    272    276 213.4  -8.6  34108  288.70 0855.11
2009/04/23 09:31:05.9     -41   -289     95    292    308 188.1  18.0  34112  288.75 0855.11
2009/04/23 09:31:06.0    -140   -446    287    468    548 197.5  34.4  34112  288.77 0855.11
2009/04/23 09:31:06.1    -333   -402    155    523    546 219.7  16.5  34112  288.77 0855.11
2009/04/23 09:31:06.2    -444   -514    -31    680    681 220.8  -2.7  34114  288.78 0855.11
2009/04/23 09:31:06.3    -185   -530    117    562    575 199.3  11.8  34106  288.66 0855.11
2009/04/23 09:31:06.4    -311   -429    135    530    547 216.0  14.3  34108  288.69 0855.11
2009/04/23 09:31:06.5     -35   -207    396    210    448 189.7  69.8  34094  288.47 0855.11
2009/04/23 09:31:06.6    -134     14    224    135    261 276.1  66.0  34098  288.53 0855.11
2009/04/23 09:31:06.7    -141    106     86    177    196 307.1  27.4  34112  288.77 0855.11
2009/04/23 09:31:06.8      54     87    138    103    172  31.6  59.4  34112  288.75 0855.11
2009/04/23 09:31:06.9     -31   -177    130    180    222 190.0  39.5  34112  288.77 0855.11
2009/04/23 09:31:07.0     -23   -261     92    263    278 185.1  20.0  34110  288.71 0855.11
2009/04/23 09:31:07.1     -47   -232     59    237    245 191.6  14.2  34112  288.76 0855.11
2009/04/23 09:31:07.2     -58   -176    -44    186    192 198.5 -13.4  34110  288.74 0855.18
2009/04/23 09:31:07.3    -166   -175      8    242    243 223.4   2.1  34122  288.92 0855.18
2009/04/23 09:31:07.4    -371     13   -112    372    388 272.0 -21.7  34104  288.64 0855.18
2009/04/23 09:31:07.5    -229    -25      6    231    232 263.6   1.6  34106  288.65 0855.18
2009/04/23 09:31:07.6    -267    224    -99    349    362 310.1 -20.5  34102  288.59 0855.18
2009/04/23 09:31:07.7    -250    368   -140    445    467 325.8 -17.5  34088  288.34 0855.18
2009/04/23 09:31:07.8    -418    209    -92    468    478 296.6 -11.1  34100  288.54 0855.18
2009/04/23 09:31:07.9    -302   -235     16    383    384 232.1   2.5  34108  288.69 0855.18
2009/04/23 09:31:08.0    -219   -138    113    260    283 237.8  25.1  34096  288.48 0855.18
2009/04/23 09:31:08.1    -496    -46    -35    499    501 264.7  -4.1  34108  288.68 0855.18
2009/04/23 09:31:08.2    -432   -410   -122    596    609 226.5 -11.6  34096  288.48 0855.18
2009/04/23 09:31:08.3    -278   -328     45    431    434 220.3   6.1  34084  288.29 0855.18
2009/04/23 09:31:08.4    -471   -493    -52    683    685 223.7  -4.4  34104  288.63 0855.18
2009/04/23 09:31:08.5    -498   -543     19    737    738 222.5   1.5  34110  288.72 0855.18
2009/04/23 09:31:08.6    -377   -455   -136    592    608 219.6 -13.0  34094  288.44 0855.18
2009/04/23 09:31:08.7    -259   -405   -202    481    521 212.6 -28.6  34094  288.44 0855.18
2009/04/23 09:31:08.8    -411   -304   -146    512    532 233.5 -20.7  34092  288.43 0855.18
2009/04/23 09:31:08.9    -360   -193   -133    409    430 241.7 -23.2  34096  288.48 0855.18
2009/04/23 09:31:09.0    -340   -243   -176    419    454 234.4 -28.5  34100  288.56 0855.18
2009/04/23 09:31:09.1    -167   -230   -120    285    309 216.1 -28.6  34096  288.49 0855.18
2009/04/23 09:31:09.2    -185   -360   -113    405    420 207.2 -20.2  34096  288.50 0855.17
2009/04/23 09:31:09.3    -192   -366   -145    414    439 207.7 -19.3  34096  288.48 0855.17
2009/04/23 09:31:09.4    -194   -340   -102    392    406 209.7 -14.6  34094  288.47 0855.17
2009/04/23 09:31:09.5    -149   -379    -81    408    417 201.5 -11.3  34092  288.41 0855.17
2009/04/23 09:31:09.6    -150   -218   -275    265    381 214.5 -55.7  34100  288.57 0855.17
2009/04/23 09:31:09.7    -120   -360   -353    380    518 198.5 -52.2  34106  288.66 0855.17
2009/04/23 09:31:09.8    -148   -231   -313    275    416 212.6 -58.6  34100  288.57 0855.17
2009/04/23 09:31:09.9    -281   -198   -403    345    530 234.8 -59.7  34110  288.73 0855.17
2009/04/23 09:31:10.0    -327   -199   -410    383    561 238.7 -56.6  34110  288.74 0855.17
2009/04/23 09:31:10.1    -409   -147   -360    435    564 250.2 -48.1  34106  288.67 0855.17
2009/04/23 09:31:10.2    -238   -390    -17    458    459 211.4  -2.2  34112  288.77 0855.15
2009/04/23 09:31:10.3    -159   -772     45    789    791 191.7   3.3  34108  288.68 0855.15
2009/04/23 09:31:10.4     183   -683   -176    708    730 165.0 -14.0  34116  288.81 0855.15
2009/04/23 09:31:10.5     131   -604   -175    619    644 167.7 -15.8  34110  288.72 0855.15
2009/04/23 09:31:10.6     149   -633   -183    651    676 166.7 -20.4  34106  288.65 0855.15
2009/04/23 09:31:10.7     294   -447    -92    536    545 146.6  -9.8  34108  288.70 0855.15
2009/04/23 09:31:10.8      58   -380     11    385    386 171.2   1.7  34100  288.57 0855.15
2009/04/23 09:31:10.9      -9   -649    -60    650    654 180.8  -5.3  34118  288.86 0855.15
2009/04/23 09:31:11.0     -57   -680     43    683    685 184.8   3.6  34104  288.63 0855.15
2009/04/23 09:31:11.1      35   -442    106    444    457 175.4  13.5  34104  288.61 0855.15
2009/04/23 09:31:11.2    -142   -570    114    588    599 194.0  11.0  34108  288.68 0855.15
2009/04/23 09:31:11.3    -125   -611    223    624    663 191.6  19.7  34104  288.64 0855.15
2009/04/23 09:31:11.4    -133   -584    226    600    641 192.9  21.6  34100  288.57 0855.15
2009/04/23 09:31:11.5    -180   -509    240    541    591 199.5  25.6  34104  288.61 0855.15
2009/04/23 09:31:11.6    -276   -449    261    528    588 211.6  28.2  34108  288.68 0855.15
2009/04/23 09:31:11.7    -406   -348    135    535    552 229.4  14.2  34102  288.58 0855.15
2009/04/23 09:31:11.8    -355   -309    163    471    499 229.0  19.1  34100  288.57 0855.15
2009/04/23 09:31:11.9    -307   -359    155    473    498 220.5  18.2  34104  288.62 0855.15
2009/04/23 09:31:12.0    -364   -355    247    509    565 225.7  27.8  34102  288.60 0855.15
2009/04/23 09:31:12.1    -371   -305    -15    481    482 230.5  -1.8  34106  288.66 0855.15
2009/04/23 09:31:12.2    -331   -386     39    509    511 220.6   4.5  34098  288.52 0855.17
2009/04/23 09:31:12.3    -193   -333     40    385    388 210.1   6.0  34102  288.60 0855.17
2009/04/23 09:31:12.4     -83   -573     25    580    581 188.3   2.5  34102  288.58 0855.17
2009/04/23 09:31:12.5      98   -439    -24    451    452 167.3  -3.1  34102  288.58 0855.17
2009/04/23 09:31:12.6      28   -354     -7    356    357 175.4  -1.3  34096  288.49 0855.17
2009/04/23 09:31:12.7     152   -317      9    352    353 154.3   1.5  34108  288.69 0855.17
2009/04/23 09:31:12.8     107   -273     36    294    297 158.6   7.1  34102  288.58 0855.17
2009/04/23 09:31:12.9     184   -215    -62    284    291 139.4 -12.4  34102  288.58 0855.17
2009/04/23 09:31:13.0      67   -255    -92    264    279 165.1 -24.4  34108  288.68 0855.17
2009/04/23 09:31:13.1     137   -243    -47    280    284 150.6  -9.6  34106  288.66 0855.17
2009/04/23 09:31:13.2     290   -351     32    456    458 140.4   4.0  34100  288.56 0855.17
2009/04/23 09:31:13.3     230   -357     70    425    431 147.2   9.4  34104  288.63 0855.17
2009/04/23 09:31:13.4     284   -229    118    365    384 128.9  18.0  34108  288.69 0855.17
2009/04/23 09:31:13.5     250   -305    105    395    409 140.6  14.9  34108  288.70 0855.17
2009/04/23 09:31:13.6     150   -380    -22    409    410 158.4  -3.2  34104  288.61 0855.17
2009/04/23 09:31:13.7     156   -488      7    513    514 162.2   0.8  34106  288.66 0855.17
2009/04/23 09:31:13.8     166   -506     64    533    537 161.8   6.9  34102  288.60 0855.17
2009/04/23 09:31:13.9     128   -430    162    449    478 163.4  19.9  34106  288.66 0855.17
2009/04/23 09:31:14.0     141   -307     64    339    346 155.3  10.7  34100  288.57 0855.17
2009/04/23 09:31:14.1     188   -200    104    275    294 136.8  21.7  34100  288.54 0855.17
2009/04/23 09:31:14.2     104   -166    139    197    241 147.9  38.6  34104  288.62 0855.19
2009/04/23 09:31:14.3      19   -153    118    155    194 172.9  41.2  34102  288.60 0855.19
2009/04/23 09:31:14.4    -170   -268    163    318    357 212.5  29.3  34104  288.62 0855.19
2009/04/23 09:31:14.5    -198   -436    220    479    527 204.4  26.4  34102  288.59 0855.19
2009/04/23 09:31:14.6    -145   -620    245    637    682 193.2  22.2  34106  288.65 0855.19
2009/04/23 09:31:14.7    -123   -579    123    593    606 192.0  11.8  34104  288.63 0855.19
2009/04/23 09:31:14.8    -110   -482    215    495    539 192.9  25.1  34100  288.55 0855.19
2009/04/23 09:31:14.9     -12   -332    197    333    386 182.2  33.5  34100  288.55 0855.19
2009/04/23 09:31:15.0     -22   -496    248    497    555 182.6  28.5  34098  288.52 0855.19
2009/04/23 09:31:15.1     -76   -395    387    403    558 190.9  49.0  34102  288.59 0855.19
2009/04/23 09:31:15.2      63   -364    385    370    533 170.1  51.3  34100  288.56 0855.19
2009/04/23 09:31:15.3     220   -220    329    312    453 135.0  52.0  34100  288.55 0855.19
2009/04/23 09:31:15.4      55    -71    251     91    266 142.2  79.2  34104  288.62 0855.19
2009/04/23 09:31:15.5     180   -380    293    421    512 154.7  38.3  34104  288.64 0855.19
2009/04/23 09:31:15.6      82   -412    237    421    483 168.7  32.0  34100  288.56 0855.19
2009/04/23 09:31:15.7     137   -502    294    521    598 164.7  31.9  34104  288.63 0855.19
2009/04/23 09:31:15.8     254   -514    157    574    596 153.7  15.3  34100  288.56 0855.19
2009/04/23 09:31:15.9     185   -497     84    531    538 159.6   9.0  34106  288.65 0855.19
2009/04/23 09:31:16.0     228   -546    131    592    607 157.3  12.5  34104  288.61 0855.19
2009/04/23 09:31:16.1     354   -620    113    715    724 150.3   9.0  34098  288.51 0855.19
2009/04/23 09:31:16.2     269   -565    186    627    655 154.5  16.5  34100  288.55 0855.17
2009/04/23 09:31:16.3     289   -506    173    583    609 150.3  16.5  34102  288.59 0855.17
2009/04/23 09:31:16.4     216   -447    191    497    532 154.1  22.2  34100  288.55 0855.17
2009/04/23 09:31:16.5     149   -447    147    472    495 161.5  17.3  34104  288.64 0855.17
2009/04/23 09:31:16.6      47   -556    245    559    610 175.1  25.2  34108  288.70 0855.17
2009/04/23 09:31:16.7     -61   -455    255    460    525 187.7  31.4  34098  288.52 0855.17
2009/04/23 09:31:16.8    -401   -354     45    535    538 228.6   4.9  34096  288.48 0855.17
2009/04/23 09:31:16.9    -318   -365   -124    485    501 221.0 -14.4  34098  288.51 0855.17
2009/04/23 09:31:17.0    -194   -581    -29    613    614 198.5  -2.8  34094  288.46 0855.17
2009/04/23 09:31:17.1    -270   -582     52    642    645 204.9   4.7  34100  288.54 0855.17
2009/04/23 09:31:17.2    -284   -437    -94    522    531 213.0 -10.3  34092  288.41 0855.17
2009/04/23 09:31:17.3    -397   -347   -165    528    553 228.8 -22.3  34094  288.45 0855.17
2009/04/23 09:31:17.4    -468   -272   -206    542    579 239.8 -26.4  34092  288.41 0855.17
2009/04/23 09:31:17.5    -517   -348   -211    624    658 236.0 -23.7  34094  288.45 0855.17
2009/04/23 09:31:17.6    -451   -207   -245    497    554 245.3 -32.6  34088  288.35 0855.17
2009/04/23 09:31:17.7    -494   -163   -201    521    558 251.7 -26.6  34094  288.45 0855.17
2009/04/23 09:31:17.8    -441   -156   -161    468    494 250.5 -23.9  34098  288.51 0855.17
2009/04/23 09:31:17.9    -266   -209    -59    339    345 231.9  -9.9  34094  288.47 0855.17
2009/04/23 09:31:18.0    -180   -173   -208    250    325 226.2 -48.5  34096  288.48 0855.17
2009/04/23 09:31:18.1    -119   -139   -186    184    261 220.5 -54.5  34094  288.46 0855.17
2009/04/23 09:31:18.2     -45   -289   -214    293    362 188.9 -44.2  34098  288.52 0855.18
2009/04/23 09:31:18.3       9   -209   -107    210    235 177.5 -33.5  34092  288.42 0855.18
2009/04/23 09:31:18.4      14   -310    -45    311    315 177.4  -8.4  34088  288.36 0855.18
2009/04/23 09:31:18.5     -44   -260   -120    264    289 189.6 -30.6  34088  288.36 0855.18
2009/04/23 09:31:18.6     -74   -314   -134    323    349 193.4 -28.2  34090  288.38 0855.18
2009/04/23 09:31:18.7    -171   -259   -197    311    368 213.4 -39.9  34088  288.35 0855.18
2009/04/23 09:31:18.8    -141   -152   -136    208    248 223.0 -40.7  34088  288.34 0855.18
2009/04/23 09:31:18.9    -221    -77   -180    235    296 250.7 -45.8  34094  288.44 0855.18
2009/04/23 09:31:19.0    -244   -189    -73    309    318 232.2 -13.3  34090  288.37 0855.18
2009/04/23 09:31:19.1     -62      6    -53     63     82 276.1 -49.2  34084  288.28 0855.18
2009/04/23 09:31:19.2    -339   -124   -122    362    382 249.9 -23.3  34096  288.49 0855.18
2009/04/23 09:31:19.3    -335    -65    -15    342    343 258.9  -2.6  34098  288.52 0855.18
2009/04/23 09:31:19.4    -274   -226      5    356    357 230.5   0.8  34100  288.57 0855.18
2009/04/23 09:31:19.5    -223   -250     14    336    337 221.7   2.5  34094  288.45 0855.18
2009/04/23 09:31:19.6     -87   -249    227    264    348 199.4  45.0  34094  288.44 0855.18
2009/04/23 09:31:19.7    -183   -302    230    354    422 211.2  36.0  34090  288.37 0855.18
2009/04/23 09:31:19.8    -170   -374    134    411    433 204.5  18.0  34086  288.31 0855.18
2009/04/23 09:31:19.9    -139   -348     62    375    381 201.8   9.4  34092  288.42 0855.18
2009/04/23 09:31:20.0      50   -269    106    274    293 169.3  22.3  34092  288.43 0855.18
2009/04/23 09:31:20.1      54   -306     53    311    316 170.0   9.7  34090  288.37 0855.18
2009/04/23 09:31:20.2     147   -131    148    198    247 131.8  40.7  34090  288.38 0855.18
2009/04/23 09:31:20.3      18    -92    191     94    212 168.5  72.1  34096  288.50 0855.18
2009/04/23 09:31:20.4     -12   -155    197    156    251 184.5  57.5  34094  288.47 0855.18
2009/04/23 09:31:20.5      43   -205    263    210    336 168.0  57.5  34096  288.48 0855.18
2009/04/23 09:31:20.6     -26   -216    232    218    318 186.9  52.0  34096  288.49 0855.18
2009/04/23 09:31:20.7    -132   -246    223    280    357 208.3  42.6  34098  288.52 0855.18
2009/04/23 09:31:20.8      62   -177    210    188    281 160.6  53.5  34096  288.49 0855.18
2009/04/23 09:31:20.9      40   -198    169    203    264 168.4  43.8  34094  288.44 0855.18
2009/04/23 09:31:21.0       0   -167    171    168    239 179.8  50.4  34094  288.47 0855.18
2009/04/23 09:31:21.1    -129   -241     87    274    288 208.1  17.7  34094  288.44 0855.18
2009/04/23 09:31:21.2     -74   -384     45    392    395 190.9   6.6  34088  288.35 0855.18
2009/04/23 09:31:21.3      54   -257    176    263    316 168.0  37.0  34078  288.17 0855.18
2009/04/23 09:31:21.4     -35   -325    242    327    406 186.3  40.2  34090  288.40 0855.18
2009/04/23 09:31:21.5     -87   -269    192    283    341 197.9  37.3  34086  288.32 0855.18
2009/04/23 09:31:21.6    -190   -313    258    367    448 211.2  38.6  34088  288.34 0855.18
2009/04/23 09:31:21.7    -289   -212     92    359    371 233.8  14.5  34090  288.37 0855.18
2009/04/23 09:31:21.8    -243   -271     70    365    372 221.9  11.0  34090  288.38 0855.18
2009/04/23 09:31:21.9    -142   -141     33    201    204 225.2   9.3  34088  288.36 0855.18
2009/04/23 09:31:22.0    -254   -195    -42    321    324 232.5  -7.5  34090  288.37 0855.18
2009/04/23 09:31:22.2    -258   -101     -6    278    279 248.5  -1.3  34090  288.39 0855.20
2009/04/23 09:31:22.2    -332   -190     10    383    384 240.2   1.6  34094  288.44 0855.20
2009/04/23 09:31:22.3    -370   -102     15    385    386 254.5   2.2  34098  288.52 0855.20
2009/04/23 09:31:22.4    -578    -62      2    582    583 263.8   0.2  34100  288.56 0855.20
2009/04/23 09:31:22.5    -443   -171    159    476    503 248.8  18.5  34094  288.44 0855.20
2009/04/23 09:31:22.6    -560   -162   -211    583    620 253.9 -25.3  34084  288.29 0855.20
2009/04/23 09:31:22.7    -430   -195    -44    473    476 245.6  -5.3  34074  288.13 0855.20
2009/04/23 09:31:22.8    -318    -60    -41    324    327 259.3  -7.3  34108  288.68 0855.20
2009/04/23 09:31:22.9    -406    -75    -87    413    423 259.5 -12.0  34088  288.36 0855.20
2009/04/23 09:31:23.0    -350   -304     -9    464    465 229.0  -1.2  34084  288.29 0855.20
2009/04/23 09:31:23.1    -236   -285    -64    371    377 219.6  -9.9  34090  288.37 0855.20
2009/04/23 09:31:23.2    -238   -381    154    450    476 212.0  18.9  34082  288.25 0855.20
2009/04/23 09:31:23.3    -358   -385     25    526    527 222.9   2.8  34090  288.38 0855.20
2009/04/23 09:31:23.4    -248   -447     85    512    520 209.0   9.4  34088  288.34 0855.20
2009/04/23 09:31:23.5    -222   -246    204    332    389 222.0  34.4  34084  288.28 0855.20
2009/04/23 09:31:23.6    -561     93   -122    569    583 279.5 -12.2  34092  288.41 0855.20
2009/04/23 09:31:23.7    -503   -173     71    533    538 251.0   7.6  34090  288.40 0855.20
2009/04/23 09:31:23.8    -529   -239    155    581    602 245.7  15.0  34088  288.34 0855.20
2009/04/23 09:31:23.9    -844   -112   -121    852    861 262.4  -8.1  34086  288.31 0855.20
2009/04/23 09:31:24.0    -838   -173    -37    856    857 258.3  -2.5  34090  288.39 0855.20
2009/04/23 09:31:24.1    -683    106   -247    692    736 278.9 -19.7  34080  288.23 0855.20
2009/04/23 09:31:24.2    -615     52    -67    618    622 274.9  -6.2  34092  288.42 0855.22
2009/04/23 09:31:24.3    -648   -102   -235    657    698 261.0 -19.7  34086  288.31 0855.22
2009/04/23 09:31:24.4    -672    -95   -238    679    719 261.9 -24.4  34098  288.51 0855.22
2009/04/23 09:31:24.6    -722   -123   -238    733    771 260.3 -18.0  34090  288.38 0855.22
2009/04/23 09:31:24.6    -706   -232   -162    744    762 251.8 -12.3  34082  288.26 0855.22
2009/04/23 09:31:24.7    -637   -298   -275    704    755 244.9 -26.9  34094  288.46 0855.22
2009/04/23 09:31:24.8    -728   -161   -218    746    777 257.5 -21.1  34096  288.48 0855.22
2009/04/23 09:31:24.9    -620   -218   -182    658    683 250.6 -15.5  34098  288.51 0855.22
2009/04/23 09:31:25.0    -747   -198   -259    773    816 255.1 -18.6  34102  288.59 0855.22
2009/04/23 09:31:25.1    -716   -238   -180    755    777 251.6 -13.4  34094  288.46 0855.22
2009/04/23 09:31:25.2    -858   -236   -262    891    928 254.6 -21.1  34094  288.46 0855.22
2009/04/23 09:31:25.3    -567    -78     25    573    574 262.1   2.5  34090  288.37 0855.22
2009/04/23 09:31:25.4    -682    -15    -70    683    687 268.7  -5.9  34098  288.51 0855.22
2009/04/23 09:31:25.5    -627   -117     19    638    639 259.4   1.7  34096  288.50 0855.22
2009/04/23 09:31:25.6    -597   -116     -2    609    610 259.0  -0.3  34084  288.27 0855.22
2009/04/23 09:31:25.7    -699   -368    -35    790    791 242.2  -2.6  34088  288.34 0855.22
2009/04/23 09:31:25.8    -497   -420   -198    651    681 229.8 -16.9  34090  288.39 0855.22
2009/04/23 09:31:25.9    -450   -313   -111    549    561 235.1 -11.5  34086  288.33 0855.22
2009/04/23 09:31:26.0    -446   -245   -127    510    526 241.2 -14.0  34098  288.53 0855.22
2009/04/23 09:31:26.1    -206   -403    -27    453    454 207.1  -3.5  34094  288.46 0855.22
2009/04/23 09:31:26.2    -247   -197      0    317    318 231.4   0.1  34090  288.37 0855.27
2009/04/23 09:31:26.3    -366    -67   -129    373    395 259.6 -19.1  34094  288.44 0855.27
2009/04/23 09:31:26.4    -348   -246    -34    427    429 234.8  -4.6  34098  288.51 0855.27
2009/04/23 09:31:26.5    -570   -320   -253    654    701 240.7 -26.7  34086  288.31 0855.27
2009/04/23 09:31:26.6    -492   -140   -254    512    571 254.1 -32.6  34068  288.01 0855.27
2009/04/23 09:31:26.7    -584   -359   -139    686    700 238.4 -11.5  34084  288.28 0855.27
2009/04/23 09:31:26.8    -407   -184   -227    447    501 245.6 -33.3  34090  288.39 0855.27
2009/04/23 09:31:26.9    -311   -254   -135    402    425 230.8 -18.6  34102  288.58 0855.27
2009/04/23 09:31:27.0    -641    -78   -293    646    709 263.0 -30.6  34078  288.17 0855.27
2009/04/23 09:31:27.1    -493   -540   -188    732    756 222.4 -14.4  34090  288.40 0855.27
2009/04/23 09:31:27.2    -554   -402   -193    685    712 234.0 -15.8  34092  288.42 0855.27
2009/04/23 09:31:27.3    -456    -32   -313    458    554 265.9 -42.0  34088  288.35 0855.27
2009/04/23 09:31:27.4    -392   -192   -223    437    490 243.9 -33.6  34094  288.47 0855.27
2009/04/23 09:31:27.5    -500   -317   -364    593    695 237.6 -38.9  34088  288.36 0855.27
2009/04/23 09:31:27.6    -520   -342   -320    623    700 236.7 -33.7  34098  288.53 0855.27
2009/04/23 09:31:27.7    -416   -197   -232    461    516 244.6 -33.2  34100  288.57 0855.27
2009/04/23 09:31:27.8    -333   -321   -239    463    521 226.1 -33.7  34090  288.39 0855.27
2009/04/23 09:31:27.9    -253   -400   -282    474    551 212.3 -37.9  34092  288.41 0855.27
2009/04/23 09:31:28.0    -421   -383   -349    570    668 227.7 -38.7  34080  288.21 0855.27
2009/04/23 09:31:28.1    -202   -276   -190    343    392 216.3 -35.8  34098  288.52 0855.27
2009/04/23 09:31:28.2     136   -378   -145    402    427 160.2 -25.0  34092  288.41 0855.32
2009/04/23 09:31:28.3     151   -333    -60    366    371 155.5  -9.4  34074  288.13 0855.32
2009/04/23 09:31:28.4     144   -231    239    273    362 148.1  45.7  34094  288.47 0855.32
2009/04/23 09:31:28.5      77    -64    144    101    175 130.0  61.8  34100  288.55 0855.32
2009/04/23 09:31:28.6    -107   -350    205    367    420 197.0  31.5  34096  288.50 0855.32
2009/04/23 09:31:28.7    -129   -389    120    410    428 198.4  16.3  34092  288.43 0855.32
2009/04/23 09:31:28.8    -116   -487    264    501    566 193.4  30.1  34094  288.45 0855.32
2009/04/23 09:31:28.9      72   -421    155    428    456 170.2  19.9  34094  288.46 0855.32
2009/04/23 09:31:29.0      36   -480    164    482    510 175.6  18.8  34096  288.49 0855.32
2009/04/23 09:31:29.1       0   -458    158    459    486 180.0  19.1  34094  288.46 0855.32
2009/04/23 09:31:29.2     -84   -566    101    573    582 188.5  10.0  34092  288.41 0855.32
2009/04/23 09:31:29.3    -102   -446     85    458    466 192.9  10.6  34098  288.51 0855.32
2009/04/23 09:31:29.4      36   -552     90    554    562 176.3   9.2  34092  288.43 0855.32
2009/04/23 09:31:29.5    -308   -437     28    535    536 215.2   3.0  34100  288.55 0855.32
2009/04/23 09:31:29.6    -290   -482    -81    563    569 211.0  -8.3  34094  288.45 0855.32
2009/04/23 09:31:29.7     -94   -608    -34    616    617 188.8  -3.2  34086  288.33 0855.32
2009/04/23 09:31:29.8    -110   -542    -64    553    557 191.5  -6.7  34084  288.30 0855.32
2009/04/23 09:31:29.9    -167   -549    -61    575    579 196.9  -6.1  34098  288.51 0855.32
2009/04/23 09:31:30.0      19   -636    -24    637    638 178.2  -2.2  34100  288.57 0855.32
2009/04/23 09:31:30.1      92   -647    -78    654    659 171.9  -6.8  34102  288.60 0855.32
2009/04/23 09:31:30.2     122   -647     32    659    660 169.3   2.8  34104  288.63 0855.30
2009/04/23 09:31:30.3     111   -649    187    659    686 170.2  15.9  34102  288.58 0855.30
2009/04/23 09:31:30.4      42   -568    326    570    656 175.8  32.3  34104  288.64 0855.30
2009/04/23 09:31:30.5      62   -606    115    610    621 174.1  10.7  34100  288.55 0855.30
2009/04/23 09:31:30.6      80   -564     97    570    579 171.9   9.7  34106  288.66 0855.30
2009/04/23 09:31:30.7      46   -370     65    373    379 172.9   9.9  34102  288.60 0855.30
2009/04/23 09:31:30.8      52   -347     84    351    361 171.4  13.5  34094  288.45 0855.30
2009/04/23 09:31:30.9     -38   -366    153    369    399 186.0  23.9  34102  288.60 0855.30
2009/04/23 09:31:31.0    -173   -273     74    324    333 212.3  12.9  34100  288.55 0855.30
2009/04/23 09:31:31.1    -161   -347     10    383    384 204.9   1.6  34094  288.44 0855.30
2009/04/23 09:31:31.2    -233   -363   -153    432    459 212.8 -19.6  34084  288.29 0855.27
2009/04/23 09:31:31.3    -266   -344   -130    435    455 217.7 -16.7  34090  288.39 0855.27
2009/04/23 09:31:31.4    -326   -233     26    401    402 234.4   3.8  34100  288.55 0855.27
2009/04/23 09:31:31.5    -234   -383    -71    449    455 211.4  -9.0  34098  288.53 0855.27
2009/04/23 09:31:31.7      67   -337   -140    344    371 168.7 -27.8  34096  288.49 0855.27
2009/04/23 09:31:31.8       1   -220    -65    221    230 179.5 -21.7  34096  288.50 0855.27
2009/04/23 09:31:31.9      10   -168    -54    169    177 176.4 -22.8  34092  288.42 0855.27
2009/04/23 09:31:32.0     -49   -147      8    156    157 198.7   3.3  34104  288.62 0855.27
2009/04/23 09:31:32.1    -104   -209     43    234    239 206.5  10.6  34100  288.56 0855.27
2009/04/23 09:31:32.2     -36   -181     17    185    186 191.3   5.4  34098  288.52 0855.27
2009/04/23 09:31:32.3      38    -96     61    104    120 158.2  33.4  34106  288.67 0855.27
2009/04/23 09:31:32.4      35   -239     13    242    243 171.5   3.1  34106  288.65 0855.27
2009/04/23 09:31:32.5     -13   -426     -1    427    428 181.8  -0.3  34114  288.78 0855.27
2009/04/23 09:31:32.6     -10   -557     49    558    561 181.1   5.1  34110  288.72 0855.27
2009/04/23 09:31:32.7     -20   -430    175    431    465 182.7  23.2  34106  288.67 0855.27
2009/04/23 09:31:32.8     -63   -342     97    348    362 190.6  15.7  34112  288.76 0855.27
2009/04/23 09:31:32.9     -81   -244     90    258    274 198.3  19.2  34112  288.75 0855.27
2009/04/23 09:31:33.0     -10   -228     50    229    235 182.7  12.4  34110  288.73 0855.27
2009/04/23 09:31:33.1      20   -231     47    232    237 174.9  11.6  34110  288.71 0855.27
2009/04/23 09:31:33.2     -51   -257    216    263    340 191.3  43.7  34108  288.70 0855.27
2009/04/23 09:31:33.3     -85   -200    222    218    311 203.2  50.2  34104  288.61 0855.24
2009/04/23 09:31:33.4     -54   -218    148    225    269 194.0  36.5  34104  288.61 0855.24
2009/04/23 09:31:33.5     -98   -266     68    284    293 200.3  13.5  34102  288.59 0855.24
2009/04/23 09:31:33.6      32   -291    107    293    311 173.7  20.9  34102  288.59 0855.24
2009/04/23 09:31:33.7     -19   -302    -49    303    308 183.6  -9.3  34106  288.65 0855.24
2009/04/23 09:31:33.8      74   -228    -83    240    253 162.0 -24.0  34106  288.65 0855.24
2009/04/23 09:31:33.9     113   -156    -75    193    207 144.0 -26.9  34106  288.67 0855.24
2009/04/23 09:31:34.0      57   -106   -115    121    166 151.5 -53.1  34102  288.60 0855.24
2009/04/23 09:31:34.1     127     23     21    130    132  79.4   9.5  34102  288.58 0855.24
2009/04/23 09:31:34.2     136     87     20    162    164  57.1   7.2  34104  288.64 0855.24
2009/04/23 09:31:34.3     100    107     82    147    168  43.2  31.6  34094  288.47 0855.24
2009/04/23 09:31:34.4     -54    -93    196    108    223 210.3  68.8  34106  288.65 0855.24
2009/04/23 09:31:34.5     -40   -135     44    141    148 196.5  17.4  34104  288.64 0855.24
2009/04/23 09:31:34.6     -65   -124     41    141    147 207.6  16.3  34106  288.65 0855.24
2009/04/23 09:31:34.7    -102   -147     23    180    182 214.7   7.5  34104  288.64 0855.24
2009/04/23 09:31:34.8    -171   -221    -10    280    281 217.8  -2.2  34102  288.58 0855.24
2009/04/23 09:31:34.9    -175   -257     10    312    313 214.3   1.9  34104  288.63 0855.24
2009/04/23 09:31:35.0    -137   -107     20    175    177 232.0   6.7  34102  288.58 0855.24
2009/04/23 09:31:35.1    -144    -79     59    165    175 241.2  20.0  34102  288.60 0855.24
2009/04/23 09:31:35.2    -207    -13     10    208    209 266.3   2.9  34102  288.60 0855.24
2009/04/23 09:31:35.3    -228    -49     22    234    236 257.8   5.4  34096  288.49 0855.23
2009/04/23 09:31:35.4    -306   -114    -84    327    338 249.4 -14.5  34100  288.55 0855.23
2009/04/23 09:31:35.5    -320    -41   -194    323    376 262.5 -38.1  34084  288.27 0855.23
2009/04/23 09:31:35.6    -147     90     -9    173    174 301.5  -3.1  34096  288.50 0855.23
2009/04/23 09:31:35.7    -423     -3    -58    424    428 269.5  -7.9  34108  288.70 0855.23
2009/04/23 09:31:35.8    -468    -35    -94    470    480 265.6 -11.3  34110  288.74 0855.23
2009/04/23 09:31:35.9    -382    -93     52    394    398 256.3   7.6  34106  288.67 0855.23
2009/04/23 09:31:36.0    -179   -145     -5    231    232 230.9  -1.3  34106  288.67 0855.23
2009/04/23 09:31:36.1      29   -343   -171    345    385 175.1 -32.8  34100  288.57 0855.23
2009/04/23 09:31:36.2      11   -245   -175    246    301 177.4 -43.2  34102  288.59 0855.23
2009/04/23 09:31:36.3      33   -150   -172    154    230 167.5 -57.9  34096  288.50 0855.23
2009/04/23 09:31:36.4     -53    -83    -49     99    110 213.0 -32.2  34100  288.57 0855.23
2009/04/23 09:31:36.5      66    -91    -38    113    119 143.9 -23.6  34102  288.60 0855.23
2009/04/23 09:31:36.6     192   -232    -14    302    303 140.4  -2.8  34100  288.54 0855.23
2009/04/23 09:31:36.7     170   -235     47    291    295 144.0   9.3  34102  288.58 0855.23
2009/04/23 09:31:36.8      34   -180    -56    184    192 169.3 -22.3  34098  288.52 0855.23
2009/04/23 09:31:36.9       1    -77    -65     78    101 179.0 -48.2  34104  288.64 0855.23
2009/04/23 09:31:37.0     -86    -72     22    113    116 230.0  11.1  34104  288.64 0855.23
2009/04/23 09:31:37.1    -294    -28    103    296    314 264.5  19.2  34098  288.51 0855.23
2009/04/23 09:31:37.2    -384     65   -117    390    408 279.7 -16.8  34092  288.42 0855.23
2009/04/23 09:31:37.3    -569     60   -321    573    656 276.1 -36.1  34068  288.03 0855.23
2009/04/23 09:31:37.4    -694   -221   -170    729    749 252.3 -13.2  34104  288.63 0855.23
2009/04/23 09:31:37.5    -425   -256     27    497    498 239.0   3.1  34104  288.61 0855.23
2009/04/23 09:31:37.6    -461   -522    158    697    715 221.4  12.8  34076  288.15 0855.23
2009/04/23 09:31:37.7    -327   -446    -33    554    556 216.2  -3.5  34102  288.58 0855.23
2009/04/23 09:31:37.8     -16   -241    105    242    263 183.8  25.1  34104  288.63 0855.23
2009/04/23 09:31:37.9     -87   -337     67    349    356 194.5  11.0  34106  288.66 0855.23
2009/04/23 09:31:38.0     -95   -556      9    565    566 189.8   1.0  34102  288.58 0855.23
2009/04/23 09:31:38.1     -84   -476    -10    484    485 190.1  -1.3  34100  288.56 0855.23
2009/04/23 09:31:38.2    -203   -326    -68    385    392 211.9 -10.1  34096  288.50 0855.23
2009/04/23 09:31:38.3    -194   -219    -27    293    295 221.5  -5.4  34086  288.32 0855.23
2009/04/23 09:31:38.4    -141   -162    -50    216    222 221.0 -13.2  34094  288.47 0855.23
2009/04/23 09:31:38.5    -182   -358   -173    402    437 207.0 -29.2  34084  288.29 0855.23
2009/04/23 09:31:38.6    -129   -342   -206    366    419 200.8 -36.3  34088  288.34 0855.23
2009/04/23 09:31:38.7      -8   -351   -199    352    404 181.4 -36.5  34084  288.30 0855.23
2009/04/23 09:31:38.8      53   -322   -135    327    353 170.6 -28.1  34088  288.35 0855.23
2009/04/23 09:31:38.9      75   -321   -111    330    348 166.8 -23.3  34090  288.40 0855.23
2009/04/23 09:31:39.0      32   -296   -210    298    364 173.8 -43.0  34098  288.52 0855.23
2009/04/23 09:31:39.1     -75   -223   -187    236    301 198.7 -47.1  34098  288.53 0855.23
2009/04/23 09:31:39.2     -81   -283   -131    295    322 196.0 -30.1  34100  288.54 0855.23
2009/04/23 09:31:39.3     -28   -393   -111    394    409 184.1 -20.4  34090  288.39 0855.17
2009/04/23 09:31:39.4      90   -332    -44    345    348 164.9  -7.3  34094  288.44 0855.17
2009/04/23 09:31:39.5      90   -360   -103    372    387 166.0 -15.5  34094  288.45 0855.17
2009/04/23 09:31:39.6     104   -502    -41    513    515 168.2  -4.6  34090  288.39 0855.17
2009/04/23 09:31:39.7     199   -492   -114    531    544 157.9 -12.2  34094  288.47 0855.17
2009/04/23 09:31:39.8     231   -419    -18    479    480 151.2  -2.2  34084  288.29 0855.17
2009/04/23 09:31:39.9     219   -378     58    437    441 149.9   7.6  34086  288.33 0855.17
2009/04/23 09:31:40.0     221   -442    135    495    514 153.4  15.3  34088  288.35 0855.17
2009/04/23 09:31:40.1     181   -383    192    424    465 154.7  26.2  34086  288.33 0855.17
2009/04/23 09:31:40.2     166   -400    109    434    448 157.4  14.2  34090  288.39 0855.17
2009/04/23 09:31:40.3      40   -432     68    435    441 174.7   8.9  34084  288.28 0855.17
2009/04/23 09:31:40.4     -90   -396    141    407    431 192.9  19.2  34086  288.33 0855.17
2009/04/23 09:31:40.5     -24   -372    132    373    395 183.8  20.2  34086  288.33 0855.17
2009/04/23 09:31:40.6      -7   -373    130    374    397 181.2  19.2  34080  288.23 0855.17
2009/04/23 09:31:40.7       0   -326     25    327    328 180.0   4.4  34092  288.43 0855.17
2009/04/23 09:31:40.8      14   -277     54    278    284 177.1  11.0  34078  288.19 0855.17
2009/04/23 09:31:40.9     132   -338    139    364    389 158.6  21.8  34090  288.40 0855.17
2009/04/23 09:31:41.0     145   -307    118    340    361 154.6  19.2  34094  288.47 0855.17
2009/04/23 09:31:41.1     -87   -356    155    367    398 193.8  24.2  34084  288.30 0855.17
2009/04/23 09:31:41.2    -153   -325     56    360    365 205.2   8.9  34094  288.45 0855.17
2009/04/23 09:31:41.3    -166   -348    109    386    402 205.5  15.8  34094  288.44 0855.13
2009/04/23 09:31:41.4      -8   -550    121    551    565 180.9  12.4  34096  288.48 0855.13
2009/04/23 09:31:41.5      -1   -597     94    598    606 180.1   9.0  34098  288.53 0855.13
2009/04/23 09:31:41.6     -75   -483     92    489    498 188.9  10.7  34082  288.24 0855.13
2009/04/23 09:31:41.7    -126   -292    209    319    381 203.4  36.3  34088  288.35 0855.13
2009/04/23 09:31:41.8    -112   -161    165    197    256 214.7  44.3  34094  288.46 0855.13
2009/04/23 09:31:41.9      43    -75     89     87    124 149.7  50.1  34096  288.48 0855.13
2009/04/23 09:31:42.0      55    -42     66     70     96 127.8  49.0  34094  288.47 0855.13
2009/04/23 09:31:42.1     -82    -22    -16     85     87 254.9 -10.9  34094  288.47 0855.13
2009/04/23 09:31:42.2     -82     32     -3     89     90 291.7  -2.2  34086  288.33 0855.13
2009/04/23 09:31:42.3      40     24     54     47     71  59.3  55.4  34096  288.48 0855.13
2009/04/23 09:31:42.4      85     77      1    116    117  47.8   0.8  34088  288.36 0855.13
2009/04/23 09:31:42.5     271    -78     -6    283    284 106.0  -1.3  34098  288.53 0855.13
2009/04/23 09:31:42.6     215   -208    169    300    344 134.0  31.7  34090  288.37 0855.13
2009/04/23 09:31:42.7     283   -295    -48    409    412 136.2  -6.8  34102  288.60 0855.13
2009/04/23 09:31:42.8     253   -305    210    397    449 140.4  30.2  34096  288.50 0855.13
2009/04/23 09:31:42.9      -4   -233    115    234    260 181.0  28.0  34088  288.36 0855.13
2009/04/23 09:31:43.0     136    -71    -11    154    155 117.5  -4.1  34094  288.47 0855.13
2009/04/23 09:31:43.1     142   -161    -33    215    218 138.6  -8.8  34096  288.50 0855.13
2009/04/23 09:31:43.2     121   -286     73    311    320 157.1  13.3  34098  288.53 0855.13
2009/04/23 09:31:43.3     -42   -436     82    439    447 185.6  10.6  34096  288.48 0855.14
2009/04/23 09:31:43.4    -208   -422     78    471    478 206.3   9.5  34090  288.40 0855.14
2009/04/23 09:31:43.5    -110   -537    111    549    561 191.6  11.5  34092  288.43 0855.14
2009/04/23 09:31:43.6    -144   -554     95    573    581 194.6   9.5  34090  288.39 0855.14
2009/04/23 09:31:43.7     -24   -656     59    657    660 182.1   5.2  34092  288.43 0855.14
2009/04/23 09:31:43.8      19   -533    114    534    547 177.9  12.1  34096  288.50 0855.14
2009/04/23 09:31:43.9       7   -442     38    443    445 179.0   5.0  34092  288.43 0855.14
2009/04/23 09:31:44.0     200   -405     22    452    453 153.7   2.9  34094  288.45 0855.14
2009/04/23 09:31:44.1     151   -350   -108    382    398 156.7 -15.8  34094  288.47 0855.14
2009/04/23 09:31:44.2     223   -497    -25    545    546 155.8  -2.7  34090  288.38 0855.14
2009/04/23 09:31:44.3     204   -415    -49    463    466 153.8  -6.1  34088  288.35 0855.14
2009/04/23 09:31:44.4       0   -359     32    360    362 179.9   5.1  34090  288.38 0855.14
2009/04/23 09:31:44.5      41   -228    110    232    256 169.8  27.2  34090  288.39 0855.14
2009/04/23 09:31:44.6      44   -112    178    121    215 158.6  62.6  34094  288.47 0855.14
2009/04/23 09:31:44.7     119    -60     26    134    137 117.0  11.1  34090  288.40 0855.14
2009/04/23 09:31:44.8    -160    -69     90    175    196 246.5  29.3  34094  288.47 0855.14
2009/04/23 09:31:44.9    -182   -116     38    217    221 237.5  10.1  34090  288.40 0855.14
2009/04/23 09:31:45.0    -142     94    120    171    208 303.7  38.4  34094  288.47 0855.14
2009/04/23 09:31:45.1      31     41    154     52    162  37.8  81.0  34100  288.57 0855.14
2009/04/23 09:31:45.2       5     -8    149     10    149 147.5  90.0  34098  288.53 0855.14
2009/04/23 09:31:45.3     -58   -146    193    158    249 201.8  56.4  34096  288.48 0855.18
2009/04/23 09:31:45.4    -182    -60    155    192    246 251.6  43.3  34090  288.38 0855.18
2009/04/23 09:31:45.5    -128     99     92    162    186 307.8  31.9  34088  288.36 0855.18
2009/04/23 09:31:45.6     101    -13    110    102    150  97.5  52.2  34094  288.47 0855.18
2009/04/23 09:31:45.7     129    -78    147    151    210 121.1  49.4  34094  288.45 0855.18
2009/04/23 09:31:45.8      17   -161    239    162    288 173.8  62.7  34094  288.44 0855.18
2009/04/23 09:31:45.9     291   -160    226    333    402 118.8  37.4  34096  288.49 0855.18
2009/04/23 09:31:46.0      84   -218    230    234    328 158.8  49.8  34088  288.34 0855.18
2009/04/23 09:31:46.1     152   -274     97    314    329 151.0  17.3  34092  288.41 0855.18
2009/04/23 09:31:46.2      20   -238     83    239    254 175.1  19.2  34096  288.48 0855.18
2009/04/23 09:31:46.3       4   -178     86    179    198 178.6  27.4  34096  288.48 0855.18
2009/04/23 09:31:46.4      21   -233    121    235    264 174.7  29.3  34094  288.46 0855.18
2009/04/23 09:31:46.5      14   -190    125    191    228 175.5  36.0  34094  288.47 0855.18
2009/04/23 09:31:46.6      42   -308    117    311    332 172.2  21.6  34094  288.44 0855.18
2009/04/23 09:31:46.7     -23   -257    109    259    281 185.3  24.2  34094  288.46 0855.18
2009/04/23 09:31:46.8      35   -324    151    327    360 173.7  26.5  34090  288.40 0855.18
2009/04/23 09:31:46.9     -41   -379     98    382    395 186.2  14.4  34092  288.42 0855.18
2009/04/23 09:31:47.0     -57   -360    181    365    407 189.1  28.2  34090  288.37 0855.18
2009/04/23 09:31:47.1     -41   -355    124    358    380 186.7  19.2  34094  288.44 0855.18
2009/04/23 09:31:47.2     -58   -458    121    462    478 187.3  14.7  34098  288.51 0855.18
2009/04/23 09:31:47.3     -26   -439    202    440    484 183.5  26.4  34094  288.44 0855.14
2009/04/23 09:31:47.4     -34   -531    114    533    546 183.7  12.1  34096  288.48 0855.14
2009/04/23 09:31:47.5      11   -538    141    539    558 178.8  14.7  34092  288.43 0855.14
2009/04/23 09:31:47.6     -72   -465     78    471    478 188.9   9.4  34094  288.46 0855.14
2009/04/23 09:31:47.7     -17   -571    145    572    591 181.8  14.3  34090  288.37 0855.14
2009/04/23 09:31:47.8       8   -402    150    403    430 178.8  21.3  34090  288.39 0855.14
2009/04/23 09:31:47.9      26   -491    206    492    533 176.9  24.1  34092  288.41 0855.14
2009/04/23 09:31:48.0     123   -560    239    574    621 167.6  23.9  34094  288.44 0855.14
2009/04/23 09:31:48.1     134   -576    300    592    663 166.9  29.1  34090  288.38 0855.14
2009/04/23 09:31:48.2      52   -479    329    482    583 173.8  37.6  34090  288.38 0855.14
2009/04/23 09:31:48.3     109   -551    216    562    602 168.8  22.1  34086  288.31 0855.14
2009/04/23 09:31:48.4     -33   -599    226    600    641 183.2  21.6  34084  288.28 0855.14
2009/04/23 09:31:48.5    -207   -650    308    683    749 197.7  25.9  34088  288.35 0855.14
2009/04/23 09:31:48.6     112   -603    274    614    672 169.4  25.7  34086  288.33 0855.14
2009/04/23 09:31:48.7      76   -549    228    555    600 172.1  23.6  34092  288.41 0855.14
2009/04/23 09:31:48.8      16   -415    250    416    485 177.7  34.0  34090  288.39 0855.14
2009/04/23 09:31:48.9     -83   -311    195    322    376 195.1  34.0  34090  288.38 0855.14
2009/04/23 09:31:49.0      29    -79    142     85    165 159.5  66.2  34084  288.30 0855.14
2009/04/23 09:31:49.1     246    -82    243    260    355 108.4  47.9  34096  288.48 0855.14
2009/04/23 09:31:49.2     258   -107    236    280    366 112.6  44.4  34092  288.42 0855.14
2009/04/23 09:31:49.3      95    -58    207    112    235 121.5  69.6  34092  288.42 0855.13
2009/04/23 09:31:49.4      34     -6    206     35    208 101.5  90.0  34092  288.42 0855.13
2009/04/23 09:31:49.5     -36   -155    221    160    272 193.3  60.6  34082  288.26 0855.13
2009/04/23 09:31:49.6     -68   -320    304    328    447 192.1  47.8  34094  288.45 0855.13
2009/04/23 09:31:49.7    -256   -537    155    595    615 205.5  14.7  34080  288.22 0855.13
2009/04/23 09:31:49.8     -32   -466    247    468    529 184.0  30.1  34086  288.32 0855.13
2009/04/23 09:31:49.9      18   -403    180    404    442 177.4  25.7  34088  288.34 0855.13
2009/04/23 09:31:50.0    -104   -398    150    412    438 194.7  20.9  34088  288.36 0855.13
2009/04/23 09:31:50.1    -163   -483    114    510    523 198.7  12.6  34084  288.27 0855.13
2009/04/23 09:31:50.2    -100   -423    -71    435    441 193.4  -9.4  34092  288.41 0855.13
2009/04/23 09:31:50.3       6   -354      9    355    356 179.0   1.5  34090  288.37 0855.13
2009/04/23 09:31:50.4    -119   -470     -2    486    487 194.3  -0.3  34090  288.37 0855.13
2009/04/23 09:31:50.5    -118   -417    -21    434    435 195.9  -2.8  34092  288.43 0855.13
2009/04/23 09:31:50.6     -33   -415     87    417    427 184.6  11.8  34088  288.34 0855.13
2009/04/23 09:31:50.7     -29   -333    146    335    365 185.1  25.1  34088  288.35 0855.13
2009/04/23 09:31:50.8       8   -258    130    259    289 178.2  28.5  34094  288.44 0855.13
2009/04/23 09:31:50.9      63   -288     35    295    298 167.6   6.9  34090  288.39 0855.13
2009/04/23 09:31:51.0      35   -417    -98    419    431 175.1 -13.3  34086  288.33 0855.13
2009/04/23 09:31:51.1      20   -472   -100    473    484 177.5 -12.0  34090  288.37 0855.13
2009/04/23 09:31:51.2      -9   -447   -151    448    472 181.2 -23.8  34084  288.30 0855.13
2009/04/23 09:31:51.3     -71   -533    -50    538    541 187.6  -5.3  34078  288.18 0855.15
2009/04/23 09:31:51.4     -16   -508    -18    509    510 181.9  -2.1  34088  288.34 0855.15
2009/04/23 09:31:51.5      21   -473    115    474    488 177.4  13.7  34084  288.27 0855.15
2009/04/23 09:31:51.6      91   -390    146    401    426 166.8  20.8  34080  288.23 0855.15
2009/04/23 09:31:51.7      80   -297    128    308    333 164.9  23.8  34086  288.32 0855.15
2009/04/23 09:31:51.8      19   -253   -102    254    273 175.5 -27.4  34088  288.36 0855.15
2009/04/23 09:31:51.9    -110   -364    -97    381    394 196.9 -14.3  34084  288.30 0855.15
2009/04/23 09:31:52.0     -58   -657    -91    660    667 185.1  -7.9  34078  288.19 0855.15
2009/04/23 09:31:52.1     129   -554   -103    569    579 166.9 -10.3  34086  288.32 0855.15
2009/04/23 09:31:52.2      93   -539      2    548    549 170.2   0.2  34080  288.23 0855.15
2009/04/23 09:31:52.3      60   -475    -48    479    482 172.8  -5.8  34082  288.24 0855.21
2009/04/23 09:31:52.4     -90   -496     28    505    506 190.3   3.3  34084  288.29 0855.21
2009/04/23 09:31:52.5     -93   -427    164    438    467 192.3  21.5  34078  288.19 0855.21
2009/04/23 09:31:52.6    -247   -324   -128    408    428 217.3 -17.5  34086  288.33 0855.21
2009/04/23 09:31:52.7    -129   -517    -61    533    537 194.0  -6.6  34084  288.30 0855.21
2009/04/23 09:31:52.8    -168   -474    -27    503    504 199.5  -3.2  34078  288.20 0855.21
2009/04/23 09:31:52.9    -194   -562   -184    595    622 199.1 -22.2  34074  288.12 0855.21
2009/04/23 09:31:53.0      16   -534   -169    535    562 178.2 -17.5  34078  288.19 0855.21
2009/04/23 09:31:53.1     166   -499   -180    526    557 161.6 -18.9  34086  288.31 0855.21
2009/04/23 09:31:53.2     200   -523   -158    561    582 159.1 -20.4  34078  288.17 0855.21
2009/04/23 09:31:53.3     215   -416   -119    469    485 152.7 -14.3  34082  288.25 0855.21
2009/04/23 09:31:53.4     183   -383   -138    425    447 154.4 -18.1  34080  288.21 0855.21
2009/04/23 09:31:53.5     165   -416   -123    448    465 158.3 -15.4  34076  288.16 0855.21
2009/04/23 09:31:53.6     197   -492    124    531    546 158.2  13.2  34076  288.16 0855.21
2009/04/23 09:31:53.7     121   -493     64    508    513 166.2   7.2  34074  288.10 0855.21
2009/04/23 09:31:53.8     133   -506    -94    524    533 165.2 -10.2  34080  288.23 0855.21
2009/04/23 09:31:53.9     188   -481    -37    517    519 158.6  -4.1  34072  288.08 0855.21
2009/04/23 09:31:54.0     145   -425     29    450    451 161.2   3.8  34074  288.11 0855.21
2009/04/23 09:31:54.1     169   -369    138    406    430 155.4  18.8  34072  288.07 0855.21
2009/04/23 09:31:54.2     154   -368    150    400    427 157.3  21.6  34068  288.02 0855.21
2009/04/23 09:31:54.3      77   -378     85    387    397 168.4  12.5  34074  288.11 0855.21
2009/04/23 09:31:54.4      87   -302     67    315    323 163.9  12.1  34070  288.05 0855.21
2009/04/23 09:31:54.5     126   -290     46    317    321 156.4   8.3  34074  288.12 0855.21
2009/04/23 09:31:54.6      77   -291    -83    302    313 165.1 -20.0  34074  288.10 0855.21
2009/04/23 09:31:54.7     250   -206    -14    324    325 129.5  -2.5  34076  288.15 0855.21
2009/04/23 09:31:54.8     306   -208     28    371    372 124.3   4.4  34074  288.13 0855.21
2009/04/23 09:31:54.9     283   -339    -10    442    443 140.1  -1.4  34068  288.01 0855.21
2009/04/23 09:31:55.0     304   -196     84    362    372 122.9  13.1  34078  288.20 0855.21
2009/04/23 09:31:55.1     142   -111    197    181    267 128.0  52.5  34078  288.19 0855.21
2009/04/23 09:31:55.2     188   -148    189    240    305 128.2  42.4  34078  288.19 0855.21
2009/04/23 09:31:55.3     158   -192    192    249    314 140.6  41.5  34078  288.19 0855.21
2009/04/23 09:31:55.4     174   -258    153    312    347 145.9  27.9  34078  288.20 0855.21
2009/04/23 09:31:55.5     156   -282    201    323    380 151.0  35.1  34074  288.11 0855.21
2009/04/23 09:31:55.6     168   -197    156    260    303 139.5  33.7  34080  288.21 0855.21
2009/04/23 09:31:55.7     112   -338    164    357    392 161.6  26.3  34078  288.20 0855.21
2009/04/23 09:31:55.8      37   -298    237    301    383 172.9  42.3  34078  288.18 0855.21
2009/04/23 09:31:55.9      65   -276    197    284    345 166.7  38.0  34074  288.10 0855.21
2009/04/23 09:31:56.0      46   -305    151    309    343 171.3  27.9  34078  288.18 0855.21
2009/04/23 09:31:56.1       6   -344    163    345    381 179.0  27.2  34076  288.15 0855.21
2009/04/23 09:31:56.2      35   -394    178    396    434 174.8  25.9  34070  288.06 0855.21
2009/04/23 09:31:56.3     -31   -498    207    499    540 183.6  23.8  34078  288.18 0855.23
2009/04/23 09:31:56.4     -30   -411    210    413    463 184.2  29.1  34078  288.19 0855.23
2009/04/23 09:31:56.5     -23   -303    212    305    371 184.5  38.3  34076  288.16 0855.23
2009/04/23 09:31:56.6     -33   -331    198    333    387 185.8  33.5  34076  288.16 0855.23
2009/04/23 09:31:56.7     -67   -328    148    335    366 191.6  25.2  34080  288.22 0855.23
2009/04/23 09:31:56.8    -137   -298    152    329    362 204.7  26.6  34074  288.10 0855.23
2009/04/23 09:31:56.9    -134   -303    174    332    374 203.8  30.0  34074  288.10 0855.23
2009/04/23 09:31:57.0    -166   -313    126    355    377 207.9  19.6  34074  288.11 0855.23
2009/04/23 09:31:57.1    -101   -304    169    321    362 198.5  30.0  34074  288.13 0855.23
2009/04/23 09:31:57.2     -65   -384    279    390    479 189.7  39.1  34076  288.14 0855.23
2009/04/23 09:31:57.3    -160   -418    298    448    538 201.0  36.7  34078  288.20 0855.23
2009/04/23 09:31:57.4     -87   -396    252    406    477 192.4  34.9  34080  288.23 0855.23
2009/04/23 09:31:57.5    -112   -218    227    246    334 207.2  47.6  34082  288.24 0855.23
2009/04/23 09:31:57.6    -186   -204    171    277    325 222.3  34.8  34078  288.19 0855.23
2009/04/23 09:31:57.7    -238   -235    188    335    384 225.3  31.6  34084  288.30 0855.23
2009/04/23 09:31:57.8    -288   -237    199    374    423 230.5  30.2  34078  288.17 0855.23
2009/04/23 09:31:57.9    -338    -89    100    350    365 255.2  16.0  34086  288.32 0855.23
2009/04/23 09:31:58.0    -344   -162     19    381    382 244.8   2.9  34086  288.32 0855.23
2009/04/23 09:31:58.1    -419   -137     18    442    443 251.8   2.3  34082  288.24 0855.23
2009/04/23 09:31:58.2    -236   -159     87    285    299 235.9  17.1  34084  288.29 0855.23
2009/04/23 09:31:58.3    -171   -260    340    312    461 213.4  52.7  34096  288.50 0855.21
2009/04/23 09:31:58.4    -239   -337    195    414    457 215.4  27.1  34084  288.28 0855.21
2009/04/23 09:31:58.5    -216   -328    266    394    475 213.4  37.3  34082  288.24 0855.21
2009/04/23 09:31:58.6    -217   -339    190    403    445 212.6  27.1  34076  288.16 0855.21
2009/04/23 09:31:58.7    -242   -133     56    277    283 241.1  11.6  34098  288.51 0855.21
2009/04/23 09:31:58.8    -366   -196    146    416    442 241.9  19.4  34098  288.51 0855.21
2009/04/23 09:31:58.9    -158   -374    227    407    466 203.0  31.4  34084  288.28 0855.21
2009/04/23 09:31:59.0     -18   -326    238    327    404 183.2  39.7  34086  288.32 0855.21
2009/04/23 09:31:59.1      58   -283    244    290    378 168.4  44.3  34090  288.40 0855.21
2009/04/23 09:31:59.2     158   -271    270    315    414 149.7  45.0  34086  288.33 0855.21
2009/04/23 09:31:59.3      78   -219    160    233    282 160.2  37.6  34086  288.32 0855.21
2009/04/23 09:31:59.5      39    -40    148     56    158 135.8  78.4  34084  288.30 0855.21
2009/04/23 09:31:59.6      93   -105    155    141    209 138.5  53.0  34084  288.30 0855.21
2009/04/23 09:31:59.7      19   -348    182    349    393 176.8  29.6  34090  288.37 0855.21
2009/04/23 09:31:59.8     -26   -394    151    395    422 183.8  22.0  34084  288.29 0855.21
2009/04/23 09:31:59.9     -30   -391     79    393    401 184.4  11.4  34078  288.20 0855.21
2009/04/23 09:32:00.0      10   -104    156    105    188 174.2  63.2  34086  288.31 0855.21
2009/04/23 09:32:00.1      74   -142    170    161    234 152.4  51.4  34090  288.40 0855.21
2009/04/23 09:32:00.2      77   -152    149    171    226 153.0  45.8  34086  288.33 0855.21
2009/04/23 09:32:00.3      30   -208    111    211    238 171.8  30.1  34086  288.33 0855.21
2009/04/23 09:32:00.4      59   -153    135    165    213 158.8  43.7  34086  288.33 0855.15
2009/04/23 09:32:00.5      29   -146    127    149    195 168.5  45.1  34088  288.36 0855.15
2009/04/23 09:32:00.6      57   -246    115    253    277 166.9  26.2  34088  288.36 0855.15
2009/04/23 09:32:00.7      71   -232    121    243    271 162.8  28.2  34088  288.36 0855.15
2009/04/23 09:32:00.8     106   -211    132    237    271 153.3  31.4  34088  288.34 0855.15
2009/04/23 09:32:00.9     -35   -142     95    147    175 193.8  35.6  34088  288.35 0855.15
2009/04/23 09:32:01.0     -66   -146     27    161    164 204.5   9.5  34088  288.35 0855.15
2009/04/23 09:32:01.1     -87   -143    -10    168    169 211.4  -3.7  34086  288.33 0855.15
2009/04/23 09:32:01.2    -121   -128   -127    177    217 223.4 -43.9  34090  288.40 0855.15
2009/04/23 09:32:01.3    -218    -97    -96    239    257 246.0 -27.4  34090  288.39 0855.15
2009/04/23 09:32:01.4    -119   -134     -7    180    181 221.4  -2.2  34094  288.45 0855.15
2009/04/23 09:32:01.5       0    -98    -49     99    110 180.5 -32.2  34092  288.42 0855.15
2009/04/23 09:32:01.6     107    -14    -24    109    112  97.9 -12.9  34092  288.43 0855.15
2009/04/23 09:32:01.7     147    -26    -55    150    159 100.1 -25.1  34094  288.47 0855.15
2009/04/23 09:32:01.8     197     -3     15    198    199  90.9   4.6  34090  288.38 0855.15
2009/04/23 09:32:01.9     165     -3     30    166    169  91.3  10.3  34092  288.42 0855.15
2009/04/23 09:32:02.0     177    -26    -11    179    180  98.4  -3.7  34090  288.40 0855.15
2009/04/23 09:32:02.1      52    -73     50     90    102 144.4  31.4  34090  288.38 0855.15
2009/04/23 09:32:02.2      36    -52     92     64    112 144.8  61.5  34094  288.45 0855.15
2009/04/23 09:32:02.3     -19    -20     47     28     54 223.4  65.7  34094  288.47 0855.15
2009/04/23 09:32:02.4     -20   -117     10    119    120 189.8   4.9  34092  288.43 0855.16
2009/04/23 09:32:02.5     -38   -112    -39    119    125 198.7 -23.8  34088  288.35 0855.16
2009/04/23 09:32:02.6     -50    -82    -65     97    116 211.6 -40.9  34094  288.45 0855.16
2009/04/23 09:32:02.7     -79    -52    -72     95    119 236.7 -45.6  34098  288.52 0855.16
2009/04/23 09:32:02.8     -39   -133    -85    139    162 196.5 -39.2  34094  288.45 0855.16
2009/04/23 09:32:02.9      -8   -111   -124    112    167 184.4 -57.7  34096  288.48 0855.16
2009/04/23 09:32:03.0       3    -22    -90     23     92 170.2 -90.0  34096  288.48 0855.16
2009/04/23 09:32:03.1     -40    -40    -80     57     98 225.0 -65.0  34100  288.55 0855.16
2009/04/23 09:32:03.2     -53    -73   -106     91    139 216.1 -59.8  34094  288.45 0855.16
2009/04/23 09:32:03.3    -146    -49    -84    155    176 251.4 -35.2  34092  288.42 0855.16
2009/04/23 09:32:03.4    -140    -83    -48    164    170 239.3 -21.2  34094  288.47 0855.16
2009/04/23 09:32:03.5     -16   -114    -61    116    131 188.0 -33.7  34090  288.40 0855.16
2009/04/23 09:32:03.6     101   -119    -50    157    165 139.7 -17.9  34092  288.42 0855.16
2009/04/23 09:32:03.7      70    -48    -52     86    100 124.6 -38.8  34088  288.36 0855.16
2009/04/23 09:32:03.8      80    -92    -29    123    127 139.0 -13.3  34090  288.38 0855.16
2009/04/23 09:32:03.9      75   -126     17    147    149 149.3   6.9  34088  288.36 0855.16
2009/04/23 09:32:04.0     126     42      6    134    135  71.4   2.8  34086  288.31 0855.16
2009/04/23 09:32:04.1     135    125    -66    185    197  47.1 -19.7  34092  288.42 0855.16
2009/04/23 09:32:04.2      95     51      2    108    109  61.6   1.2  34092  288.42 0855.16
2009/04/23 09:32:04.3     122     -6    -65    123    139  93.0 -34.7  34092  288.42 0855.16
2009/04/23 09:32:04.4     158    -71     10    174    175 114.2   3.3  34086  288.31 0855.06
2009/04/23 09:32:04.5      61   -129     51    143    151 154.7  20.0  34080  288.23 0855.06
2009/04/23 09:32:04.6      71   -107     96    129    160 146.2  40.4  34086  288.33 0855.06
2009/04/23 09:32:04.7      33   -130    156    135    206 165.7  54.8  34090  288.38 0855.06
2009/04/23 09:32:04.8     -51   -173    127    181    221 196.7  38.6  34088  288.36 0855.06
2009/04/23 09:32:04.9     -35   -165    130    169    213 192.3  41.6  34086  288.33 0855.06
2009/04/23 09:32:05.0    -105   -179     59    208    217 210.5  16.0  34088  288.35 0855.06
2009/04/23 09:32:05.1    -179   -158    -34    239    242 228.6  -8.3  34090  288.39 0855.06
2009/04/23 09:32:05.2     -86   -322    -65    334    341 195.1 -11.1  34088  288.35 0855.06
2009/04/23 09:32:05.3     -71   -304     -6    313    314 193.3  -1.1  34086  288.32 0855.06
2009/04/23 09:32:05.4     -93   -271     32    287    289 198.9   6.5  34086  288.31 0855.06
2009/04/23 09:32:05.5      23   -275    213    277    349 175.1  41.5  34084  288.27 0855.06
2009/04/23 09:32:05.6     132   -419      6    440    441 162.5   0.8  34078  288.17 0855.06
2009/04/23 09:32:05.7     188   -324     24    375    376 149.8   3.7  34084  288.30 0855.06
2009/04/23 09:32:05.8      42   -414    226    417    474 174.1  30.8  34090  288.38 0855.06
2009/04/23 09:32:05.9     144   -400    288    426    514 160.2  37.4  34082  288.25 0855.06
2009/04/23 09:32:06.0     370   -352    180    511    542 133.6  19.4  34086  288.33 0855.06
2009/04/23 09:32:06.1     288   -193    272    348    441 123.9  42.0  34088  288.36 0855.06
2009/04/23 09:32:06.2     222   -410    230    467    520 151.6  28.2  34084  288.27 0855.06
2009/04/23 09:32:06.3      31   -562    241    563    612 176.8  24.6  34088  288.36 0855.06
2009/04/23 09:32:06.4      45   -562    267    564    624 175.4  27.2  34084  288.29 0855.10
2009/04/23 09:32:06.5      30   -500    168    501    529 176.5  18.6  34084  288.30 0855.10
2009/04/23 09:32:06.6      -2   -537    173    538    566 180.3  17.8  34088  288.36 0855.10
2009/04/23 09:32:06.7      94   -550    202    559    595 170.2  19.9  34082  288.26 0855.10
2009/04/23 09:32:06.8      53   -543     26    546    547 174.4   2.8  34076  288.14 0855.10
2009/04/23 09:32:06.9      97   -499     63    509    513 169.0   7.1  34092  288.42 0855.10
2009/04/23 09:32:07.0      10   -490     71    491    497 178.7   8.3  34094  288.44 0855.10
2009/04/23 09:32:07.1      49   -497    -67    500    505 174.3  -7.7  34088  288.34 0855.10
2009/04/23 09:32:07.2      63   -452   -150    457    481 172.0 -18.2  34090  288.37 0855.10
2009/04/23 09:32:07.3    -125   -491     -1    507    508 194.3  -0.2  34090  288.37 0855.10
2009/04/23 09:32:07.4     -49   -476    149    479    502 186.0  17.3  34090  288.37 0855.10
2009/04/23 09:32:07.5     -77   -549    209    555    593 188.0  21.6  34094  288.46 0855.10
2009/04/23 09:32:07.6     150   -428    270    454    528 160.6  33.5  34090  288.39 0855.10
2009/04/23 09:32:07.7     124   -568    378    582    693 167.6  36.0  34094  288.46 0855.10
2009/04/23 09:32:07.8      63   -530    365    534    646 173.1  37.8  34092  288.41 0855.10
2009/04/23 09:32:07.9      27   -525    242    526    578 177.0  26.5  34094  288.45 0855.10
2009/04/23 09:32:08.0      85   -678    313    684    752 172.8  26.3  34098  288.51 0855.10
2009/04/23 09:32:08.1     202   -601    323    635    712 161.4  29.1  34094  288.46 0855.10
2009/04/23 09:32:08.2     241   -656    332    700    774 159.8  27.2  34090  288.40 0855.10
2009/04/23 09:32:08.3     314   -698    360    766    846 155.8  27.1  34090  288.38 0855.10
2009/04/23 09:32:08.4     210   -732    404    762    862 164.0  30.2  34088  288.35 0855.15
2009/04/23 09:32:08.5     196   -610    325    641    718 162.2  28.9  34088  288.34 0855.15
2009/04/23 09:32:08.6     155   -464    240    490    545 161.5  28.2  34088  288.36 0855.15
2009/04/23 09:32:08.7     214   -471    310    518    603 155.5  33.6  34088  288.36 0855.15
2009/04/23 09:32:08.8     332   -470    292    576    645 144.8  28.9  34090  288.38 0855.15
2009/04/23 09:32:08.9     322   -505    128    600    614 147.5  12.1  34086  288.32 0855.15
2009/04/23 09:32:09.0     243   -541      8    594    595 155.8   0.8  34092  288.41 0855.15
2009/04/23 09:32:09.1     259   -507    -22    570    571 152.9  -2.2  34094  288.46 0855.15
2009/04/23 09:32:09.2     255   -402     24    477    478 147.6   2.9  34088  288.34 0855.15
2009/04/23 09:32:09.3     -38   -440    104    442    455 185.0  13.2  34092  288.41 0855.15
2009/04/23 09:32:09.4     -23   -296     25    297    299 184.5   4.9  34088  288.34 0855.15
2009/04/23 09:32:09.5      20   -282     34    283    286 175.8   6.9  34094  288.46 0855.15
2009/04/23 09:32:09.6      14   -401    130    402    423 178.0  18.0  34090  288.39 0855.15
2009/04/23 09:32:09.7     268   -205     56    338    343 127.5   9.4  34078  288.20 0855.15
2009/04/23 09:32:09.8     200     71     27    213    215  70.5   7.5  34092  288.43 0855.15
2009/04/23 09:32:09.9      72     87   -175    114    208  39.6 -68.5  34100  288.57 0855.15
2009/04/23 09:32:10.0     159   -409    -72    439    445 158.7  -9.4  34096  288.50 0855.15
2009/04/23 09:32:10.1      -8   -495   -178    496    528 181.0 -19.8  34098  288.52 0855.15
2009/04/23 09:32:10.2       8   -478      9    479    480 179.0   1.1  34100  288.56 0855.15
2009/04/23 09:32:10.3      47   -470     83    473    481 174.2  10.0  34096  288.49 0855.15
2009/04/23 09:32:10.4     -21   -415     81    416    425 182.9  11.1  34094  288.45 0855.16
2009/04/23 09:32:10.5      49   -565    -12    568    569 175.0  -1.3  34092  288.41 0855.16
2009/04/23 09:32:10.6      38   -541    -39    543    545 175.9  -4.1  34096  288.48 0855.16
2009/04/23 09:32:10.7     168   -472     24    502    503 160.4   2.8  34082  288.24 0855.16
2009/04/23 09:32:10.8      51   -469    176    472    503 173.8  21.5  34094  288.47 0855.16
2009/04/23 09:32:10.9     -44   -721     74    723    727 183.5   5.9  34104  288.61 0855.16
2009/04/23 09:32:11.0      55   -562    -24    565    566 174.3  -2.5  34096  288.48 0855.16
2009/04/23 09:32:11.1      65   -551    -12    555    556 173.2  -1.3  34090  288.38 0855.16
2009/04/23 09:32:11.2      33   -438    -20    440    441 175.6  -2.6  34094  288.46 0855.16
2009/04/23 09:32:11.3     127   -515    -47    531    534 166.1  -5.1  34094  288.47 0855.16
2009/04/23 09:32:11.4     134   -608    -21    623    624 167.5  -2.0  34096  288.49 0855.16
2009/04/23 09:32:11.5     137   -402    -54    425    429 161.1  -7.3  34098  288.51 0855.16
2009/04/23 09:32:11.6      57   -152    -56    163    172 159.5 -23.6  34092  288.42 0855.16
2009/04/23 09:32:11.7     -24   -159    -12    161    162 188.7  -4.6  34100  288.55 0855.16
2009/04/23 09:32:11.8     105   -106    107    150    184 135.5  39.1  34102  288.60 0855.16
2009/04/23 09:32:11.9     121   -170    149    209    256 144.6  39.1  34098  288.51 0855.16
2009/04/23 09:32:12.0      68    -64     96     94    134 133.6  50.1  34096  288.48 0855.16
2009/04/23 09:32:12.1      24   -142    170    145    223 170.2  55.4  34096  288.50 0855.16
2009/04/23 09:32:12.2       5    -49    105     50    116 173.8  72.9  34098  288.52 0855.16
2009/04/23 09:32:12.3      -8   -135    186    136    230 183.6  60.5  34098  288.53 0855.16
2009/04/23 09:32:12.4      26   -237    250    239    345 173.7  51.5  34104  288.61 0855.18
2009/04/23 09:32:12.5     -57   -399    254    404    477 188.2  35.2  34094  288.46 0855.18
2009/04/23 09:32:12.6    -137   -538    -12    556    557 194.3  -1.3  34100  288.57 0855.18
2009/04/23 09:32:12.7     -89   -580    103    587    597 188.8  10.0  34098  288.51 0855.18
2009/04/23 09:32:12.8     -53   -575    170    578    603 185.3  16.4  34100  288.54 0855.18
2009/04/23 09:32:12.9    -130   -552     37    568    570 193.3   3.7  34088  288.36 0855.18
2009/04/23 09:32:13.0     -95   -511    101    520    530 190.6  11.0  34098  288.52 0855.18
2009/04/23 09:32:13.1     -46   -551    163    554    578 184.9  16.4  34092  288.42 0855.18
2009/04/23 09:32:13.2     -67   -483    151    488    511 188.0  17.2  34094  288.47 0855.18
2009/04/23 09:32:13.3    -137   -509    124    528    543 195.1  13.3  34100  288.57 0855.18
2009/04/23 09:32:13.4    -120   -531    121    545    559 192.8  12.6  34094  288.47 0855.16
2009/04/23 09:32:13.5    -137   -534     98    552    561 194.4  10.1  34098  288.52 0855.16
2009/04/23 09:32:13.6    -195   -534     86    569    576 200.1   8.6  34100  288.54 0855.16
2009/04/23 09:32:13.7    -234   -495     26    548    549 205.3   2.8  34096  288.50 0855.16
2009/04/23 09:32:13.8    -196   -480     73    519    525 202.2   8.0  34096  288.50 0855.16
2009/04/23 09:32:13.9    -208   -557    -47    595    597 200.5  -4.6  34092  288.42 0855.16
2009/04/23 09:32:14.0    -160   -589    -93    611    619 195.2  -8.7  34094  288.45 0855.16
2009/04/23 09:32:14.1    -142   -483    151    504    527 196.4  16.7  34094  288.46 0855.16
2009/04/23 09:32:14.2    -136   -361    154    386    415 200.7  23.0  34094  288.45 0855.16
2009/04/23 09:32:14.3     -78   -405    168    413    445 191.0  23.4  34100  288.55 0855.16
2009/04/23 09:32:14.4     -67   -394    268    400    481 189.7  37.0  34094  288.46 0855.16
2009/04/23 09:32:14.5       3   -301    233    302    381 179.3  41.6  34100  288.57 0855.16
2009/04/23 09:32:14.6      84   -529    199    536    571 170.9  21.4  34102  288.58 0855.16
2009/04/23 09:32:14.7     147   -617    202    635    667 166.6  17.7  34096  288.49 0855.16
2009/04/23 09:32:14.8      61   -497    280    501    573 172.9  31.6  34088  288.36 0855.16
2009/04/23 09:32:14.9     116   -388    313    406    512 163.3  41.6  34084  288.27 0855.16
2009/04/23 09:32:15.0     207   -357    291    413    505 149.9  38.6  34094  288.46 0855.16
2009/04/23 09:32:15.1     273   -310    237    414    477 138.6  32.4  34098  288.51 0855.16
2009/04/23 09:32:15.2     419   -291    203    511    549 124.8  23.0  34090  288.38 0855.16
2009/04/23 09:32:15.3     452   -289    162    537    561 122.6  16.8  34092  288.41 0855.16
2009/04/23 09:32:15.4     335   -285    225    441    495 130.4  29.2  34092  288.42 0855.14
2009/04/23 09:32:15.5     225   -265    235    348    419 139.6  37.3  34094  288.47 0855.14
2009/04/23 09:32:15.6      26   -283    164    285    328 174.6  32.6  34092  288.41 0855.14
2009/04/23 09:32:15.7      22   -300    201    301    361 175.8  36.9  34090  288.37 0855.14
2009/04/23 09:32:15.8       5   -341    313    342    463 179.1  47.3  34090  288.38 0855.14
2009/04/23 09:32:15.9      -9   -360    329    361    488 181.5  47.0  34096  288.48 0855.14
2009/04/23 09:32:16.0      98   -181    230    206    308 151.5  53.7  34084  288.29 0855.14
2009/04/23 09:32:16.1     155   -275    171    316    359 150.6  30.8  34092  288.42 0855.14
2009/04/23 09:32:16.2       8   -340     89    341    353 178.6  14.7  34092  288.42 0855.14
2009/04/23 09:32:16.3     -10   -223    141    224    264 182.7  35.5  34092  288.43 0855.14
2009/04/23 09:32:16.4      13   -296    235    297    378 177.3  42.4  34096  288.49 0855.14
2009/04/23 09:32:16.5     -49   -451    164    454    483 186.2  19.9  34098  288.51 0855.14
2009/04/23 09:32:16.6     -39   -326    206    329    388 186.9  35.3  34094  288.45 0855.14
2009/04/23 09:32:16.7      82   -247    202    261    330 161.5  41.7  34100  288.56 0855.14
2009/04/23 09:32:16.8      37   -427     96    429    440 175.0  12.6  34096  288.48 0855.14
2009/04/23 09:32:16.9      19   -402     29    403    405 177.2   4.2  34100  288.56 0855.14
2009/04/23 09:32:17.0      59   -327     44    333    336 169.7   7.6  34094  288.45 0855.14
2009/04/23 09:32:17.1     165   -258    137    307    336 147.4  25.7  34094  288.46 0855.14
2009/04/23 09:32:17.2     150   -138    233    205    310 132.7  54.3  34098  288.53 0855.14
2009/04/23 09:32:17.3     153    -40    125    159    202 104.6  42.0  34096  288.48 0855.14
2009/04/23 09:32:17.4      59   -220    202    228    304 164.9  45.9  34098  288.51 0855.16
2009/04/23 09:32:17.5      95   -373    213    385    439 165.7  31.4  34094  288.46 0855.16
2009/04/23 09:32:17.6     156   -465    249    491    550 161.4  29.1  34094  288.47 0855.16
2009/04/23 09:32:17.7     193   -479    248    517    573 158.1  27.3  34094  288.45 0855.16
2009/04/23 09:32:17.8     297   -416    208    512    552 144.5  23.4  34094  288.47 0855.16
2009/04/23 09:32:17.9     286   -247    244    379    450 130.8  35.6  34092  288.41 0855.16
2009/04/23 09:32:18.0     241   -291    280    379    471 140.4  40.1  34096  288.48 0855.16
2009/04/23 09:32:18.1     210   -242    303    321    441 139.0  48.0  34096  288.50 0855.16
2009/04/23 09:32:18.2      22   -110    234    113    259 168.4  72.7  34096  288.50 0855.16
2009/04/23 09:32:18.3     180   -220    233    285    368 140.8  43.6  34090  288.40 0855.16
2009/04/23 09:32:18.4     112   -293    274    314    416 159.1  45.7  34096  288.49 0855.16
2009/04/23 09:32:18.5      90   -442    230    452    507 168.4  29.2  34092  288.42 0855.16
2009/04/23 09:32:18.6      59   -255    263    262    371 166.9  50.1  34096  288.49 0855.16
2009/04/23 09:32:18.7      63   -391    285    397    488 170.8  39.3  34094  288.46 0855.16
2009/04/23 09:32:18.8     226   -355    277    422    504 147.5  36.4  34090  288.39 0855.16
2009/04/23 09:32:18.9     120   -490    278    505    576 166.2  31.3  34094  288.47 0855.16
2009/04/23 09:32:19.0      88   -530    295    538    613 170.6  31.3  34092  288.42 0855.16
2009/04/23 09:32:19.1      15   -495    196    496    533 178.2  22.9  34092  288.41 0855.16
2009/04/23 09:32:19.2       8   -550    171    551    578 179.1  17.3  34092  288.43 0855.16
2009/04/23 09:32:19.3      82   -658    229    664    703 172.9  19.1  34088  288.36 0855.16
2009/04/23 09:32:19.4     155   -715    201    732    760 167.7  15.4  34090  288.40 0855.14
2009/04/23 09:32:19.5     111   -584     14    595    596 169.2   1.4  34092  288.41 0855.14
2009/04/23 09:32:19.6      86   -616   -194    623    653 172.0 -17.3  34084  288.28 0855.14
2009/04/23 09:32:19.7    -100   -365   -311    379    490 195.4 -48.0  34092  288.41 0855.14
2009/04/23 09:32:19.8    -166   -469   -214    498    542 199.5 -29.3  34080  288.23 0855.14
2009/04/23 09:32:19.9    -131   -515    -24    532    533 194.3  -2.7  34092  288.41 0855.14
2009/04/23 09:32:20.0      47    -10    179     49    185 102.4  84.8  34094  288.45 0855.14
2009/04/23 09:32:20.1       1    -86     89     87    124 179.1  50.1  34088  288.36 0855.14
2009/04/23 09:32:20.2      -8     96     79     97    125 354.7  43.7  34096  288.50 0855.14
2009/04/23 09:32:20.3     -93     84     87    126    153 312.2  37.6  34094  288.47 0855.14
2009/04/23 09:32:20.4     -92     44     64    103    121 295.8  35.0  34098  288.52 0855.14
2009/04/23 09:32:20.5      65     31    -23     73     76  64.6 -23.8  34096  288.48 0855.14
2009/04/23 09:32:20.6     237     13    -33    238    241  86.7  -8.0  34092  288.43 0855.14
2009/04/23 09:32:20.7     132    -35    128    137    187 105.1  47.9  34090  288.40 0855.14
2009/04/23 09:32:20.8      44   -228      6    233    234 168.9   1.7  34096  288.48 0855.14
2009/04/23 09:32:20.9       8   -155    -22    156    158 176.9  -8.2  34094  288.45 0855.14
2009/04/23 09:32:21.0      69   -235     12    246    247 163.5   2.8  34086  288.32 0855.14
2009/04/23 09:32:21.1      66   -127     20    144    146 152.4   8.0  34094  288.45 0855.14
2009/04/23 09:32:21.2    -124    -93     34    155    159 233.1  12.4  34094  288.47 0855.14
2009/04/23 09:32:21.3    -162    -56    -61    172    183 250.9 -19.7  34098  288.53 0855.14
2009/04/23 09:32:21.4     -95      8    -65     96    115 274.8 -40.9  34096  288.50 0855.15
2009/04/23 09:32:21.5     -98     35     22    105    108 290.0  12.2  34096  288.50 0855.15
2009/04/23 09:32:21.6     -34      0     59     35     68 269.1  65.7  34096  288.50 0855.15
2009/04/23 09:32:21.7     -23      0     58     24     62 270.0  77.0  34098  288.53 0855.15
2009/04/23 09:32:21.8       8      4     36     10     37  61.1  82.8  34098  288.53 0855.15
2009/04/23 09:32:21.9      35     28     18     46     49  51.4  22.0  34096  288.50 0855.15
2009/04/23 09:32:22.0      59      0    -35     60     69  90.0 -37.9  34098  288.52 0855.15
2009/04/23 09:32:22.1      72     -7    -62     73     95  96.1 -48.7  34102  288.58 0855.15
2009/04/23 09:32:22.2      79    -39   -117     89    147 116.6 -62.9  34102  288.58 0855.15
2009/04/23 09:32:22.3      99    -78   -106    127    165 128.2 -48.7  34098  288.52 0855.15
2009/04/23 09:32:22.4      49    -96      5    108    109 152.8   2.9  34096  288.48 0855.15
2009/04/23 09:32:22.5      19    -76    -94     79    122 165.7 -60.2  34094  288.47 0855.15
2009/04/23 09:32:22.6      26      8    -81     28     85  73.2 -85.6  34106  288.65 0855.15
2009/04/23 09:32:22.7       6     49    -97     50    109   8.0 -75.2  34104  288.62 0855.15
2009/04/23 09:32:22.8      14     69    -98     71    121  11.6 -64.9  34102  288.58 0855.15
2009/04/23 09:32:22.9      19     74    -44     77     88  14.3 -36.8  34102  288.60 0855.15
2009/04/23 09:32:23.0     -40     10     27     42     49 285.1  35.5  34102  288.60 0855.15
2009/04/23 09:32:23.1    -111    -28     22    115    118 255.8  11.0  34122  288.92 0855.15
2009/04/23 09:32:23.2      -8     41    -41     42     58 348.4 -56.4  34114  288.80 0855.15
2009/04/23 09:32:23.3      75     21     20     78     81  74.1  14.7  34108  288.69 0855.15
2009/04/23 09:32:23.4      84    -79     39    116    123 133.2  18.9  34104  288.62 0855.14
2009/04/23 09:32:23.5      42    -90    163    100    191 155.1  65.4  34098  288.52 0855.14
2009/04/23 09:32:23.6     194   -105    107    221    245 118.6  27.4  34098  288.53 0855.14
2009/04/23 09:32:23.7     140    -74    154    159    221 118.0  49.2  34100  288.55 0855.14
2009/04/23 09:32:23.8     126   -129    158    181    240 135.7  45.8  34100  288.55 0855.14
2009/04/23 09:32:23.9     143   -261     73    298    307 151.1  13.9  34096  288.49 0855.14
2009/04/23 09:32:24.0     267   -284    -21    391    392 136.8  -3.1  34098  288.52 0855.14
2009/04/23 09:32:24.1     303   -359     46    471    474 139.8   5.7  34094  288.47 0855.14
2009/04/23 09:32:24.2     265   -283    121    388    407 136.9  17.3  34100  288.54 0855.14
2009/04/23 09:32:24.4     246   -278    107    372    388 138.6  16.1  34100  288.55 0855.14
2009/04/23 09:32:24.4     177   -183    -70    255    265 135.9 -15.5  34088  288.36 0855.14
2009/04/23 09:32:24.5     223   -178     96    286    302 128.6  18.6  34092  288.43 0855.14
2009/04/23 09:32:24.6     219   -163    210    274    345 126.6  41.3  34098  288.53 0855.14
2009/04/23 09:32:24.7      21   -275    237    276    363 175.6  45.0  34090  288.40 0855.14
2009/04/23 09:32:24.8     -52   -190    229    198    302 195.4  54.8  34096  288.48 0855.14
2009/04/23 09:32:24.9     -14   -168    219    169    276 184.9  58.5  34102  288.59 0855.14
2009/04/23 09:32:25.0     -26   -160    191    163    251 189.3  55.4  34100  288.55 0855.14
2009/04/23 09:32:25.1      48    -86    106     99    145 151.0  52.1  34098  288.53 0855.14
2009/04/23 09:32:25.2      52   -143     99    153    182 159.9  35.7  34096  288.50 0855.14
2009/04/23 09:32:25.3      29    -90    157     95    183 161.7  65.7  34102  288.58 0855.14
2009/04/23 09:32:25.4       7   -152    157    153    219 177.3  50.7  34100  288.57 0855.18
2009/04/23 09:32:25.5       6   -190    170    191    255 178.0  46.4  34098  288.51 0855.18
2009/04/23 09:32:25.6     139   -185    147    232    274 143.0  35.5  34100  288.56 0855.18
2009/04/23 09:32:25.7     104   -142    165    177    241 143.7  47.9  34096  288.50 0855.18
2009/04/23 09:32:25.8      31   -185    165    188    250 170.4  45.8  34100  288.55 0855.18
2009/04/23 09:32:25.9      42   -156    177    162    239 164.8  53.0  34100  288.57 0855.18
2009/04/23 09:32:26.0       9   -115    177    116    211 175.5  64.1  34098  288.53 0855.18
2009/04/23 09:32:26.1      28   -124    140    128    189 167.1  52.7  34100  288.57 0855.18
2009/04/23 09:32:26.2       5    -16    101     17    102 161.3  90.0  34106  288.67 0855.18
2009/04/23 09:32:26.3      -6     -7    118     10    118 219.6  90.0  34104  288.62 0855.18
2009/04/23 09:32:26.4      -9    -28    146     30    149 198.7  89.0  34102  288.60 0855.18
2009/04/23 09:32:26.5      -5   -199    198    200    281 181.6  50.0  34102  288.58 0855.18
2009/04/23 09:32:26.7      32   -297    239    299    382 173.7  42.9  34102  288.60 0855.18
2009/04/23 09:32:26.8      35   -353    171    355    394 174.2  27.7  34100  288.57 0855.18
2009/04/23 09:32:26.8      50   -360    219    364    424 172.0  34.0  34100  288.55 0855.18
2009/04/23 09:32:26.9       0   -283    231    284    366 179.9  43.4  34100  288.57 0855.18
2009/04/23 09:32:27.0      -3   -253    243    254    351 180.9  48.7  34100  288.56 0855.18
2009/04/23 09:32:27.1       1   -291    207    292    357 179.8  38.8  34100  288.57 0855.18
2009/04/23 09:32:27.2      48   -236    228    241    331 168.4  48.4  34102  288.58 0855.18
2009/04/23 09:32:27.4      67   -264    230    273    356 165.7  44.3  34100  288.55 0855.18
2009/04/23 09:32:27.5      83   -202    141    219    260 157.7  35.6  34100  288.56 0855.17
2009/04/23 09:32:27.6      66   -186     95    198    219 160.4  27.3  34100  288.57 0855.17
2009/04/23 09:32:27.7      39   -143     79    149    168 164.8  30.3  34098  288.53 0855.17
2009/04/23 09:32:27.8     -27   -233    203    235    310 186.7  45.4  34096  288.49 0855.17
2009/04/23 09:32:27.9      26   -167    150    170    226 171.1  45.9  34102  288.60 0855.17
2009/04/23 09:32:28.0      45   -159    165    166    234 164.2  50.0  34102  288.58 0855.17
2009/04/23 09:32:28.1     119   -165     73    204    216 144.2  20.4  34098  288.52 0855.17
2009/04/23 09:32:28.2      18   -253    -21    254    255 175.8  -4.9  34098  288.53 0855.17
2009/04/23 09:32:28.3     -66   -259    -34    268    271 194.3  -7.3  34102  288.59 0855.17
2009/04/23 09:32:28.4     -51   -191    -26    198    200 195.1  -7.5  34098  288.53 0855.17
2009/04/23 09:32:28.5     -24   -225      9    227    228 186.2   2.3  34100  288.55 0855.17
2009/04/23 09:32:28.6     -39   -185      9    190    191 192.0   2.8  34102  288.58 0855.17
2009/04/23 09:32:28.7      38   -122     20    128    130 162.6   9.0  34098  288.53 0855.17
2009/04/23 09:32:28.8      48    -75     40     90     98 147.4  25.7  34102  288.58 0855.17
2009/04/23 09:32:28.9       2   -143    -23    144    146 179.1  -9.4  34102  288.58 0855.17
2009/04/23 09:32:29.0      52   -194    -54    202    210 164.8 -15.0  34102  288.60 0855.17
2009/04/23 09:32:29.1      43   -195    -83    200    216 167.5 -28.0  34102  288.58 0855.17
2009/04/23 09:32:29.2     111   -201    -32    230    233 151.0  -8.0  34098  288.52 0855.17
2009/04/23 09:32:29.3     170   -130    -59    215    224 127.5 -15.5  34100  288.55 0855.17
2009/04/23 09:32:29.4      96   -237    -76    256    267 157.9 -21.5  34104  288.61 0855.17
2009/04/23 09:32:29.5      78   -175    -45    192    198 155.9 -13.2  34102  288.60 0855.18
2009/04/23 09:32:29.6      38   -161     -9    166    167 166.6  -3.1  34100  288.57 0855.18
2009/04/23 09:32:29.7      74   -133    125    153    197 151.0  43.7  34100  288.55 0855.18
2009/04/23 09:32:29.8      80    -88    156    119    196 137.7  58.7  34102  288.60 0855.18
2009/04/23 09:32:29.9     113    -40    175    120    212 109.5  62.6  34098  288.53 0855.18
2009/04/23 09:32:30.0      64    -98    157    118    196 146.6  59.2  34098  288.52 0855.18
2009/04/23 09:32:30.1      -5    114     59    115    129 357.3  29.3  34102  288.60 0855.18
2009/04/23 09:32:30.2     -24     38     42     46     62 327.5  47.9  34106  288.65 0855.18
2009/04/23 09:32:30.3      17     26     34     32     46  32.6  50.1  34100  288.55 0855.18
2009/04/23 09:32:30.4      77      5     -2     78     79  85.6  -1.8  34102  288.60 0855.18
2009/04/23 09:32:30.5      38    -38    -18     55     57 135.0 -23.8  34104  288.64 0855.18
2009/04/23 09:32:30.6      37    -67    -33     77     83 151.0 -28.5  34106  288.65 0855.18
2009/04/23 09:32:30.7     125    -25    -69    128    145 101.4 -35.7  34106  288.65 0855.18
2009/04/23 09:32:30.8     100     51    -58    113    127  62.9 -33.7  34106  288.67 0855.18
2009/04/23 09:32:30.9      75     63    -76     99    124  50.0 -46.0  34106  288.65 0855.18
2009/04/23 09:32:31.0     -25    -30    -84     40     93 219.6 -77.3  34106  288.65 0855.18
2009/04/23 09:32:31.1     -15    -81   -114     83    141 191.1 -64.9  34104  288.64 0855.18
2009/04/23 09:32:31.2       1   -224   -120    225    255 179.5 -34.7  34112  288.76 0855.18
2009/04/23 09:32:31.3     -32   -232    -54    235    242 188.0 -12.9  34108  288.68 0855.18
2009/04/23 09:32:31.4     -60   -289    -54    296    302 191.8 -10.5  34108  288.70 0855.18
2009/04/23 09:32:31.5    -161   -251    -64    299    306 212.7 -12.2  34118  288.85 0855.18
2009/04/23 09:32:31.6    -161   -252    -81    300    311 212.5 -15.2  34124  288.95 0855.18
2009/04/23 09:32:31.7    -104   -245   -110    267    288 202.9 -28.0  34134  289.12 0855.18
2009/04/23 09:32:31.8     -67   -248     30    257    259 195.2   6.9  34120  288.88 0855.18
2009/04/23 09:32:31.9    -107   -165     44    197    202 213.0  12.6  34132  289.09 0855.18
2009/04/23 09:32:32.0    -114   -204     71    234    245 209.2  17.1  34116  288.83 0855.18
2009/04/23 09:32:32.1     -77   -160     98    178    203 205.9  31.4  34108  288.69 0855.18
2009/04/23 09:32:32.2     -25   -105     97    108    145 193.4  46.9  34102  288.60 0855.18
2009/04/23 09:32:32.3      10   -118     94    119    151 175.1  42.7  34102  288.60 0855.18
2009/04/23 09:32:32.4      25   -185     66    187    198 172.2  20.2  34104  288.64 0855.18
2009/04/23 09:32:32.5      62   -183     37    194    198 161.3  11.0  34102  288.60 0855.18
2009/04/23 09:32:32.6     151   -203     54    254    260 143.3  12.1  34100  288.56 0855.18
2009/04/23 09:32:32.7     104   -264    101    284    302 158.4  19.6  34100  288.54 0855.18
2009/04/23 09:32:32.8      16   -322    129    323    347 177.1  23.0  34106  288.66 0855.18
2009/04/23 09:32:32.9      29   -315    115    317    337 174.7  20.8  34102  288.60 0855.18
2009/04/23 09:32:33.0      68   -298     43    306    310 167.1   8.0  34096  288.49 0855.18
2009/04/23 09:32:33.1     -11   -320     83    321    332 182.1  14.6  34102  288.59 0855.18
2009/04/23 09:32:33.2      43   -275     57    279    285 171.1  11.6  34100  288.56 0855.18
2009/04/23 09:32:33.3      71   -276    -20    286    287 165.5  -4.1  34102  288.58 0855.18
2009/04/23 09:32:33.4      34   -211     -1    214    215 170.7  -0.5  34100  288.55 0855.18
2009/04/23 09:32:33.5      37   -157     13    162    163 166.6   4.9  34100  288.55 0855.17
2009/04/23 09:32:33.6      45    -93     12    104    105 154.1   7.1  34100  288.55 0855.17
2009/04/23 09:32:33.7      81   -112     71    139    156 144.0  29.1  34100  288.57 0855.17
2009/04/23 09:32:33.8     153    -21     98    155    183  97.9  35.5  34104  288.64 0855.17
2009/04/23 09:32:33.9     136    -32    111    140    178 103.3  42.4  34106  288.67 0855.17
2009/04/23 09:32:34.0      76    -73    151    106    184 133.6  61.5  34106  288.67 0855.17
2009/04/23 09:32:34.1      51   -148    119    157    197 160.8  41.2  34106  288.65 0855.17
2009/04/23 09:32:34.2       9   -152    142    153    208 176.4  47.9  34104  288.64 0855.17
2009/04/23 09:32:34.3     -53   -146     58    156    166 200.0  21.5  34104  288.64 0855.17
2009/04/23 09:32:34.4     -47   -199     17    205    206 193.4   4.9  34102  288.58 0855.17
2009/04/23 09:32:34.5     -32   -231    -51    234    240 188.0 -12.4  34104  288.63 0855.16
2009/04/23 09:32:34.6     -33   -184    -36    187    191 190.2 -10.9  34104  288.62 0855.16
2009/04/23 09:32:34.7     -69   -154    -29    169    172 204.3  -9.8  34104  288.62 0855.16
2009/04/23 09:32:34.8     -60   -137     23    150    152 203.6   9.0  34102  288.60 0855.16
2009/04/23 09:32:34.9       7   -135     26    136    139 176.9  11.0  34102  288.58 0855.16
2009/04/23 09:32:35.0       2   -140     27    141    144 179.0  11.0  34104  288.64 0855.16
2009/04/23 09:32:35.1      42   -155     30    161    164 164.8  10.8  34104  288.62 0855.16
2009/04/23 09:32:35.2       3   -196     12    197    198 179.0   3.6  34108  288.70 0855.16
2009/04/23 09:32:35.3     -28   -140    -42    143    149 191.6 -21.2  34110  288.72 0855.16
2009/04/23 09:32:35.4      15   -193    -54    194    202 175.3 -15.5  34112  288.77 0855.16
2009/04/23 09:32:35.5     -31   -152    -41    156    162 191.6 -15.0  34110  288.74 0855.16
2009/04/23 09:32:35.6    -104    -75    -16    129    131 234.1  -7.3  34110  288.72 0855.16
2009/04/23 09:32:35.7    -103    -57    -59    118    131 241.1 -32.6  34112  288.77 0855.16
2009/04/23 09:32:35.8     -76   -103    -40    129    135 216.5 -22.8  34106  288.65 0855.16
2009/04/23 09:32:35.9     -43   -123    -21    131    133 199.6  -9.4  34106  288.67 0855.16
2009/04/23 09:32:36.0     -37   -113      2    120    121 198.3   1.2  34106  288.67 0855.16
2009/04/23 09:32:36.1     -66    -42    -36     79     86 237.6 -30.1  34110  288.72 0855.16
2009/04/23 09:32:36.2    -118      0    -15    119    120 270.4  -7.3  34112  288.75 0855.16
2009/04/23 09:32:36.3    -131      0      4    132    133 269.6   1.8  34126  288.99 0855.16
2009/04/23 09:32:36.4     -88    -10     -8     89     90 263.0  -5.6  34122  288.94 0855.16
2009/04/23 09:32:36.5     -99    -72    -84    123    148 234.0 -42.0  34112  288.77 0855.16
2009/04/23 09:32:36.6     -85     -3    -55     86    102 267.4 -39.9  34114  288.80 0855.16
2009/04/23 09:32:36.7     -62     12     33     64     72 281.5  28.2  34120  288.89 0855.16
2009/04/23 09:32:36.8       0     11     24     12     26 355.5  70.8  34116  288.82 0855.16
2009/04/23 09:32:36.9      65    -33     19     73     76 117.1  15.2  34114  288.80 0855.16
2009/04/23 09:32:37.0      99    -51     81    112    138 117.1  39.5  34104  288.64 0855.16
2009/04/23 09:32:37.1      18   -100    107    102    147 169.3  51.6  34108  288.69 0855.16
2009/04/23 09:32:37.2      15   -139    101    140    172 173.8  39.1  34106  288.67 0855.16
2009/04/23 09:32:37.3      54   -119     39    131    137 155.5  16.8  34104  288.64 0855.16
2009/04/23 09:32:37.4      32    -74     70     81    107 156.4  45.4  34106  288.67 0855.16
2009/04/23 09:32:37.5       4   -114     87    115    144 177.8  40.7  34106  288.67 0855.16
2009/04/23 09:32:37.6      27    -95     66     99    118 164.0  37.0  34108  288.69 0855.16
2009/04/23 09:32:37.7      54   -119     79    131    152 155.5  34.4  34100  288.57 0855.16
2009/04/23 09:32:37.8      37   -139     91    145    171 164.8  35.5  34106  288.67 0855.16
2009/04/23 09:32:37.9      65   -115     91    133    161 150.6  37.8  34104  288.62 0855.16
2009/04/23 09:32:38.0      52   -120    104    131    167 156.4  42.7  34106  288.65 0855.16
2009/04/23 09:32:38.1      69   -168    135    182    226 157.5  40.1  34106  288.65 0855.16
2009/04/23 09:32:38.2     105   -262    180    283    335 158.2  35.5  34104  288.63 0855.16
2009/04/23 09:32:38.3      66   -289    136    297    326 167.1  26.3  34104  288.63 0855.16
2009/04/23 09:32:38.4      54   -265    113    271    293 168.4  24.1  34104  288.63 0855.16
2009/04/23 09:32:38.5      58   -217    158    225    274 164.8  38.6  34104  288.63 0855.14
2009/04/23 09:32:38.6      69   -168    163    182    244 157.7  46.4  34106  288.67 0855.14
2009/04/23 09:32:38.7      94   -210    108    231    255 155.9  27.0  34104  288.63 0855.14
2009/04/23 09:32:38.8     104   -309    211    327    389 161.3  35.6  34102  288.60 0855.14
2009/04/23 09:32:38.9      97   -251    134    270    301 158.8  28.2  34100  288.56 0855.14
2009/04/23 09:32:39.0     159   -198     85    255    270 141.3  18.6  34106  288.65 0855.14
2009/04/23 09:32:39.1     149   -226    101    271    289 146.6  21.0  34102  288.58 0855.14
2009/04/23 09:32:39.2     111   -210    127    238    269 152.1  30.3  34104  288.63 0855.14
2009/04/23 09:32:39.3      57   -213     89    221    238 164.9  23.0  34106  288.66 0855.14
2009/04/23 09:32:39.4       1   -197     76    198    212 179.5  22.0  34100  288.57 0855.14
2009/04/23 09:32:39.5      53   -190     85    198    215 164.4  24.9  34104  288.64 0855.14
2009/04/23 09:32:39.6      78   -156    110    175    206 153.3  35.5  34102  288.58 0855.14
2009/04/23 09:32:39.7      95   -193    157    216    267 153.7  39.7  34102  288.58 0855.14
2009/04/23 09:32:39.8      74   -259    153    270    310 164.0  32.1  34100  288.56 0855.14
2009/04/23 09:32:39.9     -23   -275    147    277    313 184.9  30.2  34104  288.63 0855.14
2009/04/23 09:32:40.0     -36   -259    128    262    291 188.0  28.0  34104  288.63 0855.14
2009/04/23 09:32:40.1      34   -242    122    245    273 172.0  28.2  34104  288.63 0855.14
2009/04/23 09:32:40.2      55   -158    107    168    199 160.6  35.5  34106  288.65 0855.14
2009/04/23 09:32:40.3      43   -127    107    135    172 161.3  42.7  34108  288.69 0855.14
2009/04/23 09:32:40.4      22   -133    104    135    170 170.2  41.7  34106  288.67 0855.14
2009/04/23 09:32:40.5     102    -64    103    121    158 122.0  44.8  34104  288.64 0855.12
2009/04/23 09:32:40.6     107   -100    177    147    230 133.2  56.3  34104  288.62 0855.12
2009/04/23 09:32:40.7     -22    -27    106     36    111 219.6  81.2  34112  288.75 0855.12
2009/04/23 09:32:40.8      89    -86     90    125    154 134.0  39.5  34104  288.64 0855.12
2009/04/23 09:32:40.9      30    -76     69     82    107 158.2  44.3  34106  288.67 0855.12
2009/04/23 09:32:41.0      28    -81     74     86    113 160.4  45.4  34106  288.65 0855.12
2009/04/23 09:32:41.1      12   -123     65    124    140 174.2  29.8  34106  288.67 0855.12
2009/04/23 09:32:41.2      38   -163     45    168    174 166.6  15.0  34106  288.65 0855.12
2009/04/23 09:32:41.3      62   -158    100    170    197 158.6  33.4  34104  288.62 0855.12
2009/04/23 09:32:41.4      44   -135     92    143    170 161.7  35.6  34106  288.67 0855.12
2009/04/23 09:32:41.5      25   -177    117    179    213 171.8  36.0  34106  288.67 0855.12
2009/04/23 09:32:41.6      -9   -126     98    127    160 184.5  41.7  34104  288.64 0855.12
2009/04/23 09:32:41.7      -8   -108    126    109    166 184.5  54.8  34106  288.67 0855.12
2009/04/23 09:32:41.8     -28   -148    111    151    187 190.7  39.9  34106  288.65 0855.12
2009/04/23 09:32:41.9    -128   -149     86    197    214 220.8  25.1  34108  288.69 0855.12
2009/04/23 09:32:42.0     -96    -79     71    125    143 230.5  32.4  34110  288.72 0855.12
2009/04/23 09:32:42.1     -32    -76     86     83    119 203.2  50.7  34106  288.67 0855.12
2009/04/23 09:32:42.2      30    -29     80     43     90 134.0  69.8  34108  288.70 0855.12
2009/04/23 09:32:42.3     109    -37    102    116    154 109.1  45.8  34106  288.67 0855.12
2009/04/23 09:32:42.4      68    -69     82     98    127 135.3  43.8  34106  288.67 0855.12
2009/04/23 09:32:42.5      57    -99    116    115    163 150.1  49.9  34106  288.65 0855.13
2009/04/23 09:32:42.6      57   -139     97    151    179 157.7  35.7  34104  288.62 0855.13
2009/04/23 09:32:42.7      38   -157    105    162    193 166.2  35.6  34108  288.69 0855.13
2009/04/23 09:32:42.8      85   -158     69    180    192 151.7  21.7  34106  288.67 0855.13
2009/04/23 09:32:42.9     100   -120     75    157    173 140.3  27.3  34104  288.62 0855.13
2009/04/23 09:32:43.0     118    -78     23    142    144 123.7   9.5  34104  288.62 0855.13
2009/04/23 09:32:43.1      92    -92     41    131    138 135.0  17.4  34104  288.62 0855.13
2009/04/23 09:32:43.2     136    -92     79    165    182 124.2  27.4  34102  288.60 0855.13
2009/04/23 09:32:43.3     105   -101    140    146    202 134.0  49.0  34102  288.60 0855.13
2009/04/23 09:32:43.4     118   -162    152    201    252 144.0  40.7  34104  288.63 0855.13
2009/04/23 09:32:43.5      77   -151    142    170    221 153.0  44.1  34102  288.58 0855.13
2009/04/23 09:32:43.6     107   -222    164    247    296 154.1  36.5  34104  288.63 0855.13
2009/04/23 09:32:43.7     104   -188    189    216    287 151.0  45.8  34104  288.63 0855.13
2009/04/23 09:32:43.8     130   -157    200    205    286 140.4  49.4  34100  288.54 0855.13
2009/04/23 09:32:43.9     191   -184    166    266    313 134.0  35.0  34100  288.56 0855.13
2009/04/23 09:32:44.0     140   -131    167    193    255 133.1  45.4  34104  288.61 0855.13
2009/04/23 09:32:44.1     220   -144    153    264    305 123.3  32.7  34106  288.65 0855.13
2009/04/23 09:32:44.2     264   -105    123    285    310 111.8  25.1  34104  288.63 0855.13
2009/04/23 09:32:44.3     184   -133    152    228    274 126.0  37.0  34104  288.61 0855.13
2009/04/23 09:32:44.4     188   -187    155    266    307 134.8  32.9  34100  288.56 0855.13
2009/04/23 09:32:44.5     133   -242    160    277    319 151.1  32.8  34102  288.59 0855.12
2009/04/23 09:32:44.6     126   -199    126    236    267 147.5  30.3  34104  288.63 0855.12
2009/04/23 09:32:44.7     117   -190     80    224    237 148.4  20.4  34108  288.68 0855.12
2009/04/23 09:32:44.8     177   -146    -52    230    236 129.6 -12.9  34096  288.49 0855.12
2009/04/23 09:32:44.9     173   -132    -45    218    223 127.3 -11.9  34104  288.64 0855.12
2009/04/23 09:32:45.0     160   -176     -5    238    239 137.7  -1.3  34104  288.63 0855.12
2009/04/23 09:32:45.1     170   -129     84    214    229 127.1  22.8  34106  288.65 0855.12
2009/04/23 09:32:45.2     186   -175     65    256    265 133.1  14.3  34104  288.63 0855.12
2009/04/23 09:32:45.3     174   -191     47    259    264 137.7  10.3  34104  288.61 0855.12
2009/04/23 09:32:45.4     148   -204     49    253    258 144.0  11.0  34104  288.63 0855.12
2009/04/23 09:32:45.5      86   -262     70    276    285 161.7  14.3  34106  288.66 0855.12
2009/04/23 09:32:45.6     -21   -243     82    245    259 185.1  18.5  34106  288.65 0855.12
2009/04/23 09:32:45.7     -59   -220     71    228    240 195.2  17.4  34106  288.66 0855.12
2009/04/23 09:32:45.8      25   -184    120    186    221 172.2  35.6  34106  288.65 0855.12
2009/04/23 09:32:45.9     -11   -136    126    137    186 184.9  47.5  34102  288.60 0855.12
2009/04/23 09:32:46.0      58    -54     97     80    125 133.1  56.4  34104  288.64 0855.12
2009/04/23 09:32:46.1      53   -100     82    114    140 151.9  39.5  34102  288.58 0855.12
2009/04/23 09:32:46.2      89   -140     59    167    178 147.5  19.4  34106  288.65 0855.12
2009/04/23 09:32:46.3     115   -113     19    162    164 134.4   6.7  34102  288.60 0855.12
2009/04/23 09:32:46.4      76   -120     41    143    149 147.5  16.3  34106  288.67 0855.12
2009/04/23 09:32:46.5      69   -179     35    192    196 158.8  10.3  34106  288.65 0855.13
2009/04/23 09:32:46.6      19   -201     66    202    213 174.4  18.1  34108  288.70 0855.13
2009/04/23 09:32:46.7       0   -169     82    170    188 180.0  27.3  34106  288.67 0855.13
2009/04/23 09:32:46.8     -12   -157    101    158    187 184.5  35.6  34110  288.72 0855.13
2009/04/23 09:32:46.9     -16   -122     79    124    147 187.6  35.5  34106  288.67 0855.13
2009/04/23 09:32:47.0       0   -126    105    127    164 180.0  44.1  34108  288.69 0855.13
2009/04/23 09:32:47.1      10   -132     74    133    152 175.6  31.4  34106  288.65 0855.13
2009/04/23 09:32:47.2     -29   -124     44    128    136 193.4  19.2  34104  288.64 0855.13
2009/04/23 09:32:47.3     -20   -117      6    119    120 189.8   2.9  34106  288.67 0855.13
2009/04/23 09:32:47.4      -8   -114     40    115    122 184.0  19.2  34104  288.64 0855.13
2009/04/23 09:32:47.5       5    -98     73     99    123 176.9  39.7  34106  288.67 0855.13
2009/04/23 09:32:47.6     -18   -115     46    117    125 188.9  22.5  34106  288.67 0855.13
2009/04/23 09:32:47.7     -57   -111     48    125    133 207.2  21.5  34104  288.64 0855.13
2009/04/23 09:32:47.8     -14    -78      3     80     81 190.7   2.3  34108  288.70 0855.13
2009/04/23 09:32:47.9     -32    -69     13     77     79 205.3  10.1  34106  288.67 0855.13
2009/04/23 09:32:48.0     -42    -58      8     72     73 216.1   6.9  34106  288.67 0855.13
2009/04/23 09:32:48.1      -9    -47     17     49     53 191.6  19.4  34106  288.67 0855.13
2009/04/23 09:32:48.2      12    -38     14     41     44 161.7  19.2  34108  288.69 0855.13
2009/04/23 09:32:48.3      42     -3     15     43     46  94.4  19.2  34106  288.67 0855.13
2009/04/23 09:32:48.4      32     17     -1     37     38  61.1  -2.2  34108  288.69 0855.13
2009/04/23 09:32:48.5      38     12     45     40     60  72.3  53.3  34106  288.67 0855.13
2009/04/23 09:32:48.6      60     -2    127     61    140  92.6  72.8  34108  288.70 0855.13
2009/04/23 09:32:48.7      89     56     65    106    124  57.5  35.0  34110  288.72 0855.13
2009/04/23 09:32:48.8      -5     -4     87      7     87 226.7  90.0  34108  288.69 0855.13
2009/04/23 09:32:48.9     -28    -72    117     78    140 201.8  63.2  34110  288.72 0855.13
2009/04/23 09:32:49.0     -37   -113    112    119    163 198.3  48.5  34108  288.69 0855.13
2009/04/23 09:32:49.1      -8   -109    114    110    158 184.4  50.9  34108  288.70 0855.13
2009/04/23 09:32:49.2      25   -125     95    128    159 168.5  40.4  34108  288.69 0855.13
2009/04/23 09:32:49.3     109    -78     87    135    160 125.5  36.0  34108  288.69 0855.13
2009/04/23 09:32:49.4      45    -88    118     99    154 152.8  56.3  34104  288.64 0855.13
2009/04/23 09:32:49.5      22   -157    150    159    218 172.0  48.0  34104  288.62 0855.13
2009/04/23 09:32:49.6      44   -151    127    158    202 163.5  43.0  34104  288.64 0855.13
2009/04/23 09:32:49.7      59   -177    144    187    236 161.3  41.6  34102  288.60 0855.13
2009/04/23 09:32:49.8     117   -182    134    217    255 147.3  34.5  34104  288.61 0855.13
2009/04/23 09:32:49.9      75   -209    137    223    261 160.2  34.8  34104  288.63 0855.13
2009/04/23 09:32:50.0     109   -228    166    253    302 154.4  36.3  34104  288.63 0855.13
2009/04/23 09:32:50.1     136   -215    137    255    289 147.5  30.6  34104  288.63 0855.13
2009/04/23 09:32:50.2     111   -242    120    267    292 155.3  25.7  34108  288.70 0855.13
2009/04/23 09:32:50.3     116   -263    119    288    311 156.2  23.6  34108  288.68 0855.13
2009/04/23 09:32:50.4      60   -244    146    252    291 166.2  33.1  34112  288.75 0855.13
2009/04/23 09:32:50.5      39   -281    189    284    341 172.0  36.6  34108  288.70 0855.13
2009/04/23 09:32:50.6      32   -234    195    237    306 172.0  43.7  34110  288.71 0855.13
2009/04/23 09:32:50.7      67   -330    201    337    392 168.4  33.5  34110  288.74 0855.13
2009/04/23 09:32:50.8       0   -297    163    298    339 180.0  31.0  34112  288.75 0855.13
2009/04/23 09:32:50.9      22   -292     64    293    301 175.6  12.4  34108  288.68 0855.13
2009/04/23 09:32:51.0       9   -295    102    296    314 178.2  19.1  34114  288.78 0855.13
2009/04/23 09:32:51.1       5   -316    134    317    344 179.0  24.3  34114  288.79 0855.13
2009/04/23 09:32:51.2     -61   -318    105    324    341 190.9  18.0  34110  288.71 0855.13
2009/04/23 09:32:51.3    -121   -245     34    274    277 206.3   7.1  34110  288.73 0855.13
2009/04/23 09:32:51.4     -91   -276     35    291    294 198.3   6.9  34112  288.75 0855.13
2009/04/23 09:32:51.5     -87   -263      3    277    278 198.3   0.8  34110  288.71 0855.13
2009/04/23 09:32:51.6     -69   -269    113    278    300 194.5  23.1  34106  288.66 0855.13
2009/04/23 09:32:51.7     -61   -239     45    247    252 194.5  10.3  34106  288.65 0855.13
2009/04/23 09:32:51.8     -43   -203     73    208    221 192.0  19.4  34106  288.65 0855.13
2009/04/23 09:32:51.9      31   -162     90    165    187 169.1  31.0  34106  288.65 0855.13
2009/04/23 09:32:52.0      65   -138     89    153    177 154.7  32.9  34104  288.64 0855.13
2009/04/23 09:32:52.1      91   -110     88    143    167 140.3  34.8  34104  288.64 0855.13
2009/04/23 09:32:52.2     113    -94     70    148    163 129.6  27.2  34106  288.67 0855.13
2009/04/23 09:32:52.3      69   -114    106    134    170 148.8  42.7  34106  288.67 0855.13
2009/04/23 09:32:52.4      44   -104    152    114    190 156.8  59.4  34110  288.72 0855.13
2009/04/23 09:32:52.5      43    -54    106     70    127 141.3  63.6  34108  288.70 0855.15
2009/04/23 09:32:52.6      35    -32     89     48    101 132.2  69.3  34108  288.70 0855.15
2009/04/23 09:32:52.7      64      1     59     65     87  88.3  47.5  34112  288.77 0855.15
2009/04/23 09:32:52.8      80      2     44     81     92  88.3  30.8  34108  288.70 0855.15
2009/04/23 09:32:52.9      95     25     39     99    106  74.9  22.5  34106  288.67 0855.15
2009/04/23 09:32:53.0     125     25     40    128    135  78.5  17.3  34108  288.70 0855.15
2009/04/23 09:32:53.1     145     -7     17    146    148  93.0   6.9  34108  288.70 0855.15
2009/04/23 09:32:53.2     102    -52      1    115    116 117.1   0.8  34110  288.72 0855.15
2009/04/23 09:32:53.3      93    -59     -6    111    112 122.4  -3.1  34110  288.74 0855.15
2009/04/23 09:32:53.4      98     -4     18     99    101  92.6  10.6  34110  288.74 0855.15
2009/04/23 09:32:53.5     101     23      5    104    105  76.7   2.9  34116  288.84 0855.15
2009/04/23 09:32:53.6      71     -4     -6     72     73  93.5  -5.2  34112  288.75 0855.15
2009/04/23 09:32:53.7      52      8     -2     53     54  80.3  -2.2  34116  288.82 0855.15
2009/04/23 09:32:53.8      47      3      4     48     49  85.6   4.9  34116  288.84 0855.15
2009/04/23 09:32:53.9      82    -27     29     87     92 108.2  18.9  34116  288.84 0855.15
2009/04/23 09:32:54.0      65      1      9     66     67  89.1   8.0  34116  288.82 0855.15
2009/04/23 09:32:54.2      92     12     14     93     95  82.1   8.5  34114  288.79 0855.15
2009/04/23 09:32:54.3      71    -23     19     75     78 108.6  14.7  34108  288.70 0855.15
2009/04/23 09:32:54.4      75    -68     87    102    134 132.2  44.8  34110  288.74 0855.15
2009/04/23 09:32:54.4     114    -23    107    117    158 101.5  47.5  34108  288.70 0855.15
2009/04/23 09:32:54.6     116    -52     61    128    141 114.0  27.2  34110  288.72 0855.14
2009/04/23 09:32:54.7     112    -15     65    114    131  97.9  32.4  34110  288.72 0855.14
2009/04/23 09:32:54.8      82    -14     33     84     90 100.1  22.0  34112  288.77 0855.14
2009/04/23 09:32:54.9      82     19      7     85     86  76.7   4.9  34110  288.72 0855.14
2009/04/23 09:32:55.0      42     30     -6     52     53  54.0  -7.3  34136  289.16 0855.14
2009/04/23 09:32:55.1     -22     39      0     46     47 330.1  -0.3  34162  289.62 0855.14
2009/04/23 09:32:55.2     -49     59     54     77     94 320.3  38.0  34152  289.45 0855.14
2009/04/23 09:32:55.3     -81     59     49    101    112 305.9  27.3  34128  289.02 0855.14
2009/04/23 09:32:55.4     -87     40     28     96    101 294.8  16.3  34116  288.82 0855.14
2009/04/23 09:32:55.5     -64     85     51    107    118 322.6  27.2  34114  288.80 0855.14
2009/04/23 09:32:55.6    -124     37      6    130    131 286.8   2.8  34136  289.16 0855.14
2009/04/23 09:32:55.7    -144     17     26    146    149 277.0  10.1  34136  289.18 0855.14
2009/04/23 09:32:55.8    -108     64     49    126    135 300.6  21.5  34124  288.96 0855.14
2009/04/23 09:32:55.9     -24     61    104     66    123 338.2  64.7  34120  288.89 0855.14
2009/04/23 09:32:56.0     -20     63     82     67    105 342.2  56.4  34118  288.87 0855.14
2009/04/23 09:32:56.1     -12     46     69     48     84 344.9  62.1  34120  288.91 0855.14
2009/04/23 09:32:56.2      21     31     55     38     66  34.3  62.6  34116  288.82 0855.14
2009/04/23 09:32:56.3      43    -27     46     51     68 122.5  47.9  34114  288.80 0855.14
2009/04/23 09:32:56.4      46     36     67     59     89  52.2  53.7  34112  288.75 0855.14
2009/04/23 09:32:56.5      60     38     64     72     96  57.5  46.4  34116  288.82 0855.14
2009/04/23 09:32:56.6      74     43     73     86    112  59.8  44.3  34114  288.79 0855.14
2009/04/23 09:32:56.7      36     93     66    100    119  21.4  37.0  34120  288.91 0855.14
2009/04/23 09:32:56.8      51     54     82     75    111  43.3  52.7  34118  288.87 0855.14
2009/04/23 09:32:56.9      59      3    105     60    120  86.5  67.7  34114  288.79 0855.14
2009/04/23 09:32:57.0      99      7    100    100    141  85.6  50.1  34116  288.82 0855.14
2009/04/23 09:32:57.1     109      3    105    110    152  88.3  48.5  34110  288.72 0855.14
2009/04/23 09:32:57.2      21    -37     74     43     85 150.1  67.2  34120  288.89 0855.14
2009/04/23 09:32:57.3      15    -17     69     24     73 138.6  81.2  34116  288.84 0855.14
2009/04/23 09:32:57.4       0      3     67      4     67 350.3  90.0  34116  288.84 0855.14
2009/04/23 09:32:57.5       9    -28     54     30     61 161.3  68.8  34114  288.80 0855.14
2009/04/23 09:32:57.6      -2   -109     75    110    133 181.4  37.4  34114  288.80 0855.13
2009/04/23 09:32:57.7     -20   -102    130    104    166 191.1  56.9  34114  288.80 0855.13
2009/04/23 09:32:57.8     -58   -101     93    117    149 209.9  43.3  34114  288.79 0855.13
2009/04/23 09:32:57.9     -61    -44     99     76    124 234.0  58.5  34116  288.82 0855.13
2009/04/23 09:32:58.0      83     17    135     85    159  78.1  64.9  34116  288.82 0855.13
2009/04/23 09:32:58.1      19    -61     98     65    117 162.2  63.2  34116  288.84 0855.13
2009/04/23 09:32:58.2      70   -118    101    138    171 149.3  39.9  34112  288.77 0855.13
2009/04/23 09:32:58.3      17   -121     92    123    153 171.9  40.1  34114  288.79 0855.13
2009/04/23 09:32:58.4       6    -91     81     92    122 176.0  45.9  34114  288.80 0855.13
2009/04/23 09:32:58.5     -10   -100     57    101    115 185.8  31.9  34116  288.82 0855.13
2009/04/23 09:32:58.6     -16   -147     85    148    170 186.3  32.4  34114  288.80 0855.13
2009/04/23 09:32:58.7     -76   -152    107    171    201 206.7  35.5  34118  288.86 0855.13
2009/04/23 09:32:58.8     -39   -118     67    125    141 198.5  30.8  34116  288.84 0855.13
2009/04/23 09:32:58.9      -6   -117     61    118    132 183.1  29.3  34118  288.86 0855.13
2009/04/23 09:32:59.0     -17   -114     42    116    123 188.9  20.9  34120  288.91 0855.13
2009/04/23 09:32:59.1    -118    -56     33    131    136 244.7  14.3  34120  288.91 0855.13
2009/04/23 09:32:59.2     -97    -46     59    108    123 244.8  31.3  34124  288.97 0855.13
2009/04/23 09:32:59.3     -99    -36     36    106    113 249.6  18.9  34130  289.06 0855.13
2009/04/23 09:32:59.4     -95    -72     41    120    127 232.7  18.9  34134  289.13 0855.13
2009/04/23 09:32:59.5     -94    -66     57    116    129 234.9  27.8  34138  289.21 0855.13
2009/04/23 09:32:59.6     -87    -66     74    110    132 232.7  37.0  34136  289.16 0855.15
2009/04/23 09:32:59.7    -106    -53     65    119    135 243.4  31.4  34142  289.28 0855.15
2009/04/23 09:32:59.8     -78    -73     79    108    133 226.9  39.7  34144  289.31 0855.15
2009/04/23 09:32:59.9    -102    -97     69    141    156 226.4  28.0  34132  289.11 0855.15
2009/04/23 09:33:00.0    -106   -106     74    150    167 225.0  28.0  34128  289.04 0855.15
2009/04/23 09:33:00.1     -70    -83     81    109    135 220.1  40.1  34124  288.96 0855.15
2009/04/23 09:33:00.2     -56    -87     94    104    140 213.0  47.5  34124  288.97 0855.15
2009/04/23 09:33:00.3     -38   -106     77    113    136 200.0  37.4  34124  288.96 0855.15
2009/04/23 09:33:00.4     -47    -95     76    107    131 206.3  39.1  34124  288.97 0855.15
2009/04/23 09:33:00.5     -17   -105     53    107    119 189.3  28.7  34126  289.01 0855.15
2009/04/23 09:33:00.6     -66   -108     44    127    135 211.6  19.2  34138  289.19 0855.15
2009/04/23 09:33:00.7     -58   -101     66    117    134 209.9  31.9  34134  289.13 0855.15
2009/04/23 09:33:00.8     -75   -138     19    158    160 208.5   6.9  34118  288.87 0855.15
2009/04/23 09:33:00.9     -52   -130      3    141    142 201.8   1.2  34114  288.80 0855.15
2009/04/23 09:33:01.0     -68   -133     24    150    153 207.2   9.3  34118  288.86 0855.15
2009/04/23 09:33:01.1     -48   -142     -8    150    151 198.7  -3.2  34118  288.86 0855.15
2009/04/23 09:33:01.2     -36   -133    -20    138    140 195.2  -8.2  34116  288.84 0855.15
2009/04/23 09:33:01.3     -32   -159      9    163    164 191.6   3.3  34116  288.84 0855.15
2009/04/23 09:33:01.4     -42   -169     21    175    177 194.0   7.1  34116  288.84 0855.15
2009/04/23 09:33:01.5     -60   -170     49    181    188 199.6  15.3  34112  288.77 0855.15
2009/04/23 09:33:01.6     -55   -171     90    180    201 197.8  28.7  34122  288.92 0855.17
2009/04/23 09:33:01.7    -106   -208      9    234    235 207.0   2.3  34132  289.10 0855.17
2009/04/23 09:33:01.8     -66   -140    -26    155    158 205.4  -9.8  34130  289.08 0855.17
2009/04/23 09:33:01.9     -45    -70    -24     84     87 212.5 -21.2  34130  289.08 0855.17
2009/04/23 09:33:02.0     -20   -111    -13    113    114 190.2  -6.7  34124  288.97 0855.17
2009/04/23 09:33:02.1     -15   -140     10    141    142 186.3   4.4  34122  288.94 0855.17
2009/04/23 09:33:02.2      27   -195     97    197    219 172.0  28.0  34112  288.77 0855.17
2009/04/23 09:33:02.3      -4   -180    111    181    212 181.4  35.0  34112  288.77 0855.17
2009/04/23 09:33:02.4     -63   -191     93    202    222 198.5  26.4  34112  288.77 0855.17
2009/04/23 09:33:02.5      -5   -177    140    178    226 181.8  42.4  34112  288.77 0855.17
2009/04/23 09:33:02.6     -35   -167    118    171    207 192.0  37.8  34114  288.80 0855.17
2009/04/23 09:33:02.7     -14   -182    114    183    215 184.5  35.2  34112  288.77 0855.17
2009/04/23 09:33:02.8     -42   -147     67    153    167 196.0  25.3  34114  288.79 0855.17
2009/04/23 09:33:02.9     -18   -131     86    133    158 188.1  36.0  34116  288.82 0855.17
2009/04/23 09:33:03.0     -10   -142     85    143    166 184.4  33.5  34118  288.86 0855.17
2009/04/23 09:33:03.1      10   -155    119    156    196 176.0  41.4  34116  288.84 0855.17
2009/04/23 09:33:03.2      -6   -123    128    124    178 183.1  50.9  34116  288.82 0855.17
2009/04/23 09:33:03.3       8   -116    123    117    169 175.6  51.2  34116  288.82 0855.17
2009/04/23 09:33:03.4      -8   -106    112    107    154 184.5  51.2  34114  288.79 0855.17
2009/04/23 09:33:03.5       2    -85     98     86    130 178.6  54.3  34118  288.87 0855.17
2009/04/23 09:33:03.6      18    -85     96     87    129 168.0  52.7  34118  288.87 0855.20
2009/04/23 09:33:03.7      20    -73     85     76    114 164.0  53.3  34114  288.80 0855.20
2009/04/23 09:33:03.8      10    -75     65     76    100 172.0  44.8  34116  288.84 0855.20
2009/04/23 09:33:03.9      49    -53     65     73     97 136.8  46.9  34118  288.87 0855.20
2009/04/23 09:33:04.0      40    -40     53     57     77 135.0  48.0  34114  288.79 0855.20
2009/04/23 09:33:04.1      -8     -6     38     11     39 230.5  80.7  34120  288.89 0855.20
2009/04/23 09:33:04.2     -19     10     13     22     25 298.9  35.5  34120  288.89 0855.20
2009/04/23 09:33:04.3      -1     -8    -15      9     17 189.7 -69.1  34118  288.87 0855.20
2009/04/23 09:33:04.4      -9    -27     29     29     41 200.0  50.1  34120  288.89 0855.20
2009/04/23 09:33:04.5     -29    -40      9     50     51 216.1  11.1  34118  288.87 0855.20
2009/04/23 09:33:04.6     -25    -20    -11     33     34 230.5 -23.6  34120  288.89 0855.20
2009/04/23 09:33:04.7     -24    -15    -10     29     31 237.5 -19.7  34118  288.86 0855.20
2009/04/23 09:33:04.8     -26    -13     -1     30     31 242.9  -2.2  34116  288.84 0855.20
2009/04/23 09:33:04.9       3    -38     18     39     42 175.5  26.2  34116  288.84 0855.20
2009/04/23 09:33:05.0     -14    -65     18     67     70 192.5  15.2  34116  288.84 0855.20
2009/04/23 09:33:05.1      -3    -76     30     77     82 182.7  22.0  34114  288.79 0855.20
2009/04/23 09:33:05.2       3    -95     58     96    112 177.8  34.4  34114  288.80 0855.20
2009/04/23 09:33:05.3      -1    -90     44     91    101 180.9  27.3  34114  288.80 0855.20
2009/04/23 09:33:05.4       0    -76     54     77     94 180.0  38.0  34118  288.86 0855.20
2009/04/23 09:33:05.5       4    -78     38     79     87 176.4  27.2  34116  288.82 0855.20
2009/04/23 09:33:05.6       5   -100     58    101    116 176.9  32.4  34118  288.86 0855.21
2009/04/23 09:33:05.7       0   -130     70    131    148 180.0  30.8  34120  288.91 0855.21
2009/04/23 09:33:05.8     -15   -134     88    135    161 186.7  36.3  34118  288.87 0855.21
2009/04/23 09:33:05.9     -10   -134     72    135    153 184.4  30.8  34118  288.86 0855.21
2009/04/23 09:33:06.0     -17   -118     65    120    136 188.5  30.8  34116  288.84 0855.21
2009/04/23 09:33:06.1      14    -94     48     96    107 171.5  27.8  34118  288.87 0855.21
2009/04/23 09:33:06.2     -16    -98     85    100    131 189.8  44.3  34120  288.89 0855.21
2009/04/23 09:33:06.3     -34   -126     81    131    154 195.1  35.5  34120  288.89 0855.21
2009/04/23 09:33:06.4      13   -125     57    126    138 173.8  25.7  34118  288.86 0855.21
2009/04/23 09:33:06.5     155   -121     24    197    199 128.0   7.2  34116  288.82 0855.21
2009/04/23 09:33:06.6     210   -132    103    249    269 122.2  23.8  34118  288.87 0855.21
2009/04/23 09:33:06.7     240   -164     43    292    296 124.4   8.5  34116  288.83 0855.21
2009/04/23 09:33:06.8     141   -296     77    328    337 154.5  13.2  34120  288.89 0855.21
2009/04/23 09:33:06.9     169   -324     78    366    375 152.4  12.2  34120  288.89 0855.21
2009/04/23 09:33:07.0     168   -375     80    412    420 155.8  11.0  34120  288.90 0855.21
2009/04/23 09:33:07.1     221   -348     97    413    425 147.5  13.3  34120  288.90 0855.21
2009/04/23 09:33:07.2     170   -241    108    295    314 144.8  21.0  34120  288.88 0855.21
2009/04/23 09:33:07.3     266   -247     15    364    365 132.9   2.5  34122  288.93 0855.21
2009/04/23 09:33:07.4     269   -186     53    328    333 124.6   9.2  34116  288.81 0855.21
2009/04/23 09:33:07.5     109   -143    126    181    220 142.6  38.4  34118  288.86 0855.21
2009/04/23 09:33:07.6      10   -215    153    216    264 177.3  38.8  34122  288.93 0855.21
2009/04/23 09:33:07.7      61   -232     30    241    243 165.1   7.2  34122  288.92 0855.21
2009/04/23 09:33:07.8     106   -292     -9    311    312 160.0  -1.8  34124  288.95 0855.21
2009/04/23 09:33:07.9     105   -331    137    348    373 162.4  22.8  34122  288.93 0855.21
2009/04/23 09:33:08.0      44   -372    169    375    411 173.2  26.0  34128  289.03 0855.21
2009/04/23 09:33:08.1     103   -348    158    364    396 163.5  25.0  34122  288.94 0855.21
2009/04/23 09:33:08.2      72   -346    179    354    396 168.1  28.9  34122  288.93 0855.21
2009/04/23 09:33:08.3     106   -298    136    317    344 160.4  24.8  34120  288.89 0855.21
2009/04/23 09:33:08.4      89   -275     78    290    301 162.1  15.2  34124  288.97 0855.21
2009/04/23 09:33:08.5      91   -219     19    238    239 157.5   4.6  34124  288.95 0855.21
2009/04/23 09:33:08.6      94   -206     -6    227    228 155.3  -1.6  34124  288.97 0855.21
2009/04/23 09:33:08.7     134   -178    -72    223    235 143.0 -17.9  34124  288.96 0855.21
2009/04/23 09:33:08.8     136   -150    -73    203    215 137.9 -25.1  34124  288.97 0855.21
2009/04/23 09:33:08.9     101   -120     12    158    159 139.9   4.4  34122  288.94 0855.21
2009/04/23 09:33:09.0      96    -96     26    136    139 135.0  11.1  34122  288.94 0855.21
2009/04/23 09:33:09.1      58   -206     92    215    233 164.2  24.3  34120  288.89 0855.21
2009/04/23 09:33:09.2      49   -159     85    167    187 162.8  29.1  34120  288.91 0855.21
2009/04/23 09:33:09.3     115   -170    -34    206    209 145.7  -9.4  34120  288.91 0855.21
2009/04/23 09:33:09.4      85   -158    -56    180    189 151.5 -17.3  34122  288.94 0855.21
2009/04/23 09:33:09.5     170   -132    -32    216    219 128.0  -8.6  34122  288.92 0855.21
2009/04/23 09:33:09.6     185   -143    -20    235    236 127.8  -4.9  34122  288.92 0855.22
2009/04/23 09:33:09.7     166   -164    -38    234    238 134.7  -9.3  34120  288.90 0855.22
2009/04/23 09:33:09.8     172   -160     -5    236    237 132.9  -1.3  34122  288.92 0855.22
2009/04/23 09:33:09.9     104   -164    -12    195    196 147.5  -3.7  34120  288.89 0855.22
2009/04/23 09:33:10.0     105   -165      2    196    197 147.5   0.8  34124  288.97 0855.22
2009/04/23 09:33:10.1     117   -204    -21    236    237 150.1  -5.2  34126  289.00 0855.22
2009/04/23 09:33:10.2      86   -215     27    232    234 158.1   6.9  34124  288.95 0855.22
2009/04/23 09:33:10.3      59   -120     91    134    161 153.7  37.6  34120  288.89 0855.22
2009/04/23 09:33:10.4      23    -59     71     64     95 158.2  53.3  34124  288.97 0855.22
2009/04/23 09:33:10.5       0    -82     61     83    103 180.4  40.1  34124  288.96 0855.22
2009/04/23 09:33:10.6     -32   -141     57    145    155 192.9  22.5  34126  288.99 0855.22
2009/04/23 09:33:10.7      -8   -173     77    174    190 182.7  25.7  34122  288.94 0855.22
2009/04/23 09:33:10.8     -40   -163    103    169    197 194.0  34.2  34124  288.96 0855.22
2009/04/23 09:33:10.9     -15   -188    116    189    221 184.7  34.8  34128  289.02 0855.22
2009/04/23 09:33:11.0      25   -165     85    168    188 171.1  28.7  34130  289.06 0855.22
2009/04/23 09:33:11.1      88   -152     84    176    195 149.9  27.3  34126  289.01 0855.22
2009/04/23 09:33:11.2     119   -137     70    182    195 139.0  21.7  34128  289.02 0855.22
2009/04/23 09:33:11.3     105   -158     72    190    203 146.4  21.5  34124  288.97 0855.22
2009/04/23 09:33:11.4     106   -200     11    227    228 151.9   2.9  34126  289.01 0855.22
2009/04/23 09:33:11.5     160   -260     20    306    307 148.4   3.9  34128  289.02 0855.22
2009/04/23 09:33:11.6     222   -381    -16    442    443 149.7  -2.1  34128  289.04 0855.22
2009/04/23 09:33:11.7     176   -372     41    412    415 154.7   5.7  34128  289.04 0855.22
2009/04/23 09:33:11.8     194   -411     81    455    463 154.7  10.1  34130  289.05 0855.22
2009/04/23 09:33:11.9     226   -418     49    476    479 151.6   5.9  34126  289.01 0855.22
2009/04/23 09:33:12.0     244   -415     44    482    485 149.5   5.3  34130  289.05 0855.22
2009/04/23 09:33:12.1     204   -384     61    435    440 152.0   8.0  34128  289.04 0855.22
2009/04/23 09:33:12.2     157   -341    108    376    392 155.2  16.1  34128  289.04 0855.22
2009/04/23 09:33:12.3     212   -432    117    482    497 153.9  13.7  34130  289.06 0855.22
2009/04/23 09:33:12.4     194   -398    155    443    469 154.0  20.1  34124  288.95 0855.22
2009/04/23 09:33:12.5     176   -379    165    419    450 155.1  23.0  34130  289.05 0855.22
2009/04/23 09:33:12.6     176   -288    155    338    371 148.6  26.3  34130  289.08 0855.22
2009/04/23 09:33:12.7     131   -316    169    343    382 157.5  28.1  34128  289.03 0855.22
2009/04/23 09:33:12.8      95   -295    158    311    348 162.1  28.9  34132  289.10 0855.22
2009/04/23 09:33:12.9     139   -283    167    316    357 153.7  30.1  34128  289.03 0855.22
2009/04/23 09:33:13.0     205   -198    103    286    305 134.0  19.9  34128  289.03 0855.22
2009/04/23 09:33:13.1     273    -94     67    289    297 109.1  13.1  34124  288.95 0855.22
2009/04/23 09:33:13.2     289    -50      8    294    295  99.9   1.6  34126  289.00 0855.22
2009/04/23 09:33:13.3     179   -147    120    232    261 129.5  29.5  34130  289.05 0855.22
2009/04/23 09:33:13.4     107   -228    140    252    288 154.8  31.4  34126  288.98 0855.22
2009/04/23 09:33:13.5     210   -340    134    400    423 148.3  18.6  34124  288.95 0855.22
2009/04/23 09:33:13.6     226   -234    122    326    348 135.9  21.5  34126  289.01 0855.21
2009/04/23 09:33:13.7     155   -281    143    321    351 151.1  25.6  34128  289.04 0855.21
2009/04/23 09:33:13.8     190   -190     52    270    276 135.0  11.0  34128  289.03 0855.21
2009/04/23 09:33:13.9     188   -113     27    220    222 120.9   7.1  34128  289.04 0855.21
2009/04/23 09:33:14.0     222    -74     25    235    237 108.6   6.1  34132  289.09 0855.21
2009/04/23 09:33:14.1     268    -77     75    279    290 106.0  15.2  34128  289.03 0855.21
2009/04/23 09:33:14.2     271    -11     53    272    278  92.4  11.1  34130  289.07 0855.21
2009/04/23 09:33:14.3     189    -13    -54    190    198  94.1 -16.0  34132  289.09 0855.21
2009/04/23 09:33:14.4     129    -22    -38    131    136  99.7 -21.2  34130  289.06 0855.21
2009/04/23 09:33:14.5     118     -5     77    119    141  92.6  35.6  34128  289.02 0855.21
2009/04/23 09:33:14.6     -14   -119    131    120    177 187.1  52.7  34128  289.02 0855.21
2009/04/23 09:33:14.7      18     -3   -143     19    144 101.5 -90.0  34130  289.08 0855.21
2009/04/23 09:33:14.8      77     75    -30    108    113  46.0 -15.5  34132  289.11 0855.21
2009/04/23 09:33:14.9      40     38     15     56     59  46.9  15.3  34130  289.06 0855.21
2009/04/23 09:33:15.0      62     86     17    107    109  36.0   9.5  34128  289.04 0855.21
2009/04/23 09:33:15.1      72     45     29     85     91  58.0  19.2  34128  289.02 0855.21
2009/04/23 09:33:15.2     106     16     90    108    140  81.2  43.8  34128  289.04 0855.21
2009/04/23 09:33:15.3     125    -91    122    155    197 126.0  42.2  34128  289.04 0855.21
2009/04/23 09:33:15.4     120    -99    142    156    210 129.5  47.1  34130  289.08 0855.21
2009/04/23 09:33:15.5     110   -167    156    201    254 146.6  41.7  34132  289.10 0855.21
2009/04/23 09:33:15.6      60   -298    223    304    377 168.5  39.8  34132  289.11 0855.22
2009/04/23 09:33:15.7     -44   -306    255    310    401 188.2  43.7  34130  289.08 0855.22
2009/04/23 09:33:15.8     169   -142    201    221    298 130.0  47.1  34126  289.00 0855.22
2009/04/23 09:33:15.9     189    -88    131    209    246 115.1  35.5  34130  289.07 0855.22
2009/04/23 09:33:16.0      31   -107    135    112    175 163.5  56.3  34132  289.09 0855.22
2009/04/23 09:33:16.1     209    -18     78    210    224  95.2  21.0  34128  289.04 0855.22
2009/04/23 09:33:16.2     172    -22    -24    174    176  97.5  -8.0  34130  289.06 0855.22
2009/04/23 09:33:16.3      84    -69    -41    110    117 129.5 -25.4  34130  289.08 0855.22
2009/04/23 09:33:16.4      66   -130    -16    147    148 152.9  -6.2  34130  289.06 0855.22
2009/04/23 09:33:16.5       6    -85      4     86     87 175.5   2.9  34130  289.08 0855.22
2009/04/23 09:33:16.6      35    -37     -2     52     53 136.8  -3.1  34132  289.09 0855.23
2009/04/23 09:33:16.7      33    -47    -16     58     61 144.8 -15.5  34134  289.13 0855.23
2009/04/23 09:33:16.8      -9    -27     -8     29     31 200.0 -15.4  34134  289.14 0855.23
2009/04/23 09:33:16.9       7      3     26      8     27  64.7  80.7  34132  289.11 0855.23
2009/04/23 09:33:17.0      30     64      2     71     72  25.5   1.8  34130  289.08 0855.23
2009/04/23 09:33:17.1      62     20     23     66     70  71.8  19.4  34130  289.06 0855.23
2009/04/23 09:33:17.2      98      7     47     99    109  85.6  27.2  34132  289.09 0855.23
2009/04/23 09:33:17.3     129     -9     43    130    138  94.4  18.4  34134  289.13 0855.23
2009/04/23 09:33:17.4     130    -61     28    144    147 115.4  11.1  34130  289.08 0855.23
2009/04/23 09:33:17.5      75    -77     52    108    119 135.9  27.3  34128  289.04 0855.23
2009/04/23 09:33:17.6      77   -161     76    179    194 154.5  24.3  34130  289.08 0855.23
2009/04/23 09:33:17.7     114   -113     48    161    169 134.9  16.8  34130  289.08 0855.23
2009/04/23 09:33:17.8     155    -51     50    164    172 108.4  17.1  34130  289.06 0855.23
2009/04/23 09:33:17.9     141    -56     30    152    156 111.7  11.4  34132  289.11 0855.23
2009/04/23 09:33:18.0     168   -113     39    203    207 124.0  11.0  34130  289.08 0855.23
2009/04/23 09:33:18.1     162    -92     28    187    190 119.8   8.5  34130  289.08 0855.23
2009/04/23 09:33:18.2     143    -49      3    152    153 109.1   1.2  34134  289.13 0855.23
2009/04/23 09:33:18.3     152    -34     10    156    157 102.8   3.8  34134  289.14 0855.23
2009/04/23 09:33:18.4     184    -89     -8    205    206 116.0  -2.2  34130  289.06 0855.23
2009/04/23 09:33:18.5     176   -147     26    230    232 129.8   6.5  34130  289.06 0855.23
2009/04/23 09:33:18.6     155   -122     33    198    201 128.2   9.5  34130  289.06 0855.23
2009/04/23 09:33:18.7      53   -160     81    169    187 161.7  27.3  34130  289.08 0855.23
2009/04/23 09:33:18.8      54   -168     74    177    191 162.2  23.8  34132  289.09 0855.23
2009/04/23 09:33:18.9      28   -203     83    206    222 172.0  23.0  34132  289.09 0855.23
2009/04/23 09:33:19.0      59   -186     61    196    206 162.2  17.3  34128  289.04 0855.23
2009/04/23 09:33:19.1     -17   -246     95    247    264 184.0  22.1  34128  289.03 0855.23
2009/04/23 09:33:19.2       4   -307    113    308    328 179.1  21.0  34120  288.90 0855.23
2009/04/23 09:33:19.3     -13   -237    127    238    269 183.1  30.3  34122  288.93 0855.23
2009/04/23 09:33:19.4     -34   -256    137    259    293 187.6  30.2  34126  289.00 0855.23
2009/04/23 09:33:19.5      16   -228    134    229    265 176.0  32.9  34128  289.02 0855.23
2009/04/23 09:33:19.6      27   -195     84    197    214 172.0  24.3  34128  289.04 0855.23
2009/04/23 09:33:19.7       4   -309     75    310    320 179.1  13.7  34140  289.24 0855.23
2009/04/23 09:33:19.8     -38   -245    124    249    278 188.9  28.5  34140  289.22 0855.23
2009/04/23 09:33:19.9     -13   -175    148    176    229 184.5  44.1  34138  289.19 0855.23
2009/04/23 09:33:20.0     -60   -182    141    192    238 198.3  39.9  34134  289.14 0855.23
2009/04/23 09:33:20.1     -36   -184    141    188    235 191.1  40.7  34140  289.23 0855.23
2009/04/23 09:33:20.2     -63   -215    138    225    263 196.3  34.5  34134  289.14 0855.23
2009/04/23 09:33:20.3     -24   -159    153    161    222 188.7  48.5  34132  289.11 0855.23
2009/04/23 09:33:20.5     -82   -268    143    281    315 197.0  29.1  34134  289.12 0855.23
2009/04/23 09:33:20.6    -103   -348    155    364    395 196.5  24.5  34134  289.13 0855.23
2009/04/23 09:33:20.7     -75   -369    164    377    411 191.6  25.1  34136  289.15 0855.24
2009/04/23 09:33:20.8     -59   -347    126    352    373 189.7  20.7  34136  289.15 0855.24
2009/04/23 09:33:20.9     -17   -297    114    298    319 183.4  21.8  34134  289.14 0855.24
2009/04/23 09:33:21.0      -7   -241     85    242    257 181.8  19.4  34136  289.17 0855.24
2009/04/23 09:33:21.1     -17   -228     53    229    236 184.5  13.2  34136  289.15 0855.24
2009/04/23 09:33:21.2      -2   -212     47    213    219 180.7  12.6  34136  289.18 0855.24
2009/04/23 09:33:21.3      -4   -205     89    206    224 181.4  24.9  34130  289.08 0855.24
2009/04/23 09:33:21.4      17   -247     91    248    264 176.0  20.9  34136  289.15 0855.24
2009/04/23 09:33:21.5      61   -262     13    269    270 166.9   2.9  34134  289.14 0855.24
2009/04/23 09:33:21.6      92   -196    -49    217    223 154.7 -12.9  34132  289.09 0855.24
2009/04/23 09:33:21.7     181   -169    -38    248    251 133.1  -8.8  34128  289.03 0855.24
2009/04/23 09:33:21.8     208   -127     11    244    245 121.5   2.8  34132  289.09 0855.24
2009/04/23 09:33:21.9     197   -125     87    234    249 122.5  21.0  34130  289.07 0855.24
2009/04/23 09:33:22.0     208   -122     86    242    256 120.4  20.4  34130  289.05 0855.24
2009/04/23 09:33:22.1     145   -104    118    179    214 125.7  36.3  34126  288.99 0855.24
2009/04/23 09:33:22.2      51   -120    116    131    174 156.8  46.2  34126  289.01 0855.24
2009/04/23 09:33:22.3     -49   -157    116    165    201 197.4  38.6  34126  289.01 0855.24
2009/04/23 09:33:22.4     -18   -123     83    125    150 188.5  36.5  34126  289.01 0855.24
2009/04/23 09:33:22.5      15    -27     82     31     87 151.0  79.2  34130  289.06 0855.24
2009/04/23 09:33:22.6      86    -33     63     93    112 110.8  37.6  34124  288.96 0855.24
2009/04/23 09:33:22.7      97    -32    115    103    154 108.2  53.7  34116  288.82 0855.25
2009/04/23 09:33:22.8      87     44     99     98    139  62.9  50.1  34124  288.96 0855.25
2009/04/23 09:33:22.9     108     36     64    114    130  71.6  31.9  34126  288.99 0855.25
2009/04/23 09:33:23.0      86     67     84    110    138  52.2  41.6  34138  289.21 0855.25
2009/04/23 09:33:23.1      61     53     80     81    113  49.1  50.5  34132  289.11 0855.25
2009/04/23 09:33:23.2      31     93     64     99    117  18.7  35.6  34130  289.08 0855.25
2009/04/23 09:33:23.3      31     70     46     77     89  24.5  34.0  34124  288.97 0855.25
2009/04/23 09:33:23.4      53      4     65     54     84  85.6  56.4  34128  289.02 0855.25
2009/04/23 09:33:23.5      88    -55     35    104    111 122.0  18.9  34124  288.96 0855.25
2009/04/23 09:33:23.6      50    -71    -28     87     92 144.8 -18.1  34134  289.13 0855.25
2009/04/23 09:33:23.7      40    -83    -45     93    103 154.5 -31.7  34134  289.13 0855.25
2009/04/23 09:33:23.8      77    -37    -30     86     92 116.2 -19.7  34134  289.14 0855.25
2009/04/23 09:33:23.9     116    -73    -13    138    139 122.4  -5.6  34132  289.09 0855.25
2009/04/23 09:33:24.0      61   -148     19    161    163 157.7   6.9  34124  288.97 0855.25
2009/04/23 09:33:24.1      30   -171     16    174    175 170.0   5.4  34126  289.01 0855.25
2009/04/23 09:33:24.2      78   -169     68    187    198 155.3  20.9  34124  288.96 0855.25
2009/04/23 09:33:24.3      42   -125     20    133    135 161.3   8.9  34122  288.92 0855.25
2009/04/23 09:33:24.4      42    -61     48     75     89 145.7  35.5  34124  288.96 0855.25
2009/04/23 09:33:24.5      73     -5     44     74     86  94.4  34.0  34120  288.91 0855.25
2009/04/23 09:33:24.6      28     31     54     42     68  42.3  56.4  34124  288.96 0855.25
2009/04/23 09:33:24.7      63      0     51     64     81  89.2  42.7  34126  288.99 0855.25
2009/04/23 09:33:24.8      80    -15      8     82     83 100.6   5.9  34126  289.01 0855.25
2009/04/23 09:33:24.9     106    -11    -35    107    112  96.1 -23.8  34126  288.99 0855.25
2009/04/23 09:33:25.0      59    -69    -50     91    103 139.5 -35.8  34126  289.01 0855.25
2009/04/23 09:33:25.1     114    -80    -18    140    142 125.1  -7.3  34126  289.01 0855.25
2009/04/23 09:33:25.2     110    -92    -15    144    145 130.0  -6.2  34124  288.97 0855.25
2009/04/23 09:33:25.3     119    -86     18    147    149 125.9   7.1  34124  288.96 0855.25
2009/04/23 09:33:25.4     111    -75      9    135    136 124.1   3.8  34124  288.96 0855.25
2009/04/23 09:33:25.5     104    -75     45    129    137 126.0  19.4  34120  288.91 0855.25
2009/04/23 09:33:25.6      45    -63     35     78     85 143.9  25.7  34124  288.97 0855.25
2009/04/23 09:33:25.7       9    -75     39     76     85 172.9  29.3  34126  288.99 0855.25
2009/04/23 09:33:25.8     -25    -53     50     59     77 205.3  43.8  34126  288.99 0855.25
2009/04/23 09:33:25.9     -67     15     29     69     74 283.3  24.1  34128  289.02 0855.25
2009/04/23 09:33:26.0    -115     16     27    117    121 277.9  13.2  34126  288.99 0855.25
2009/04/23 09:33:26.1    -190     52     23    198    200 285.3   6.9  34124  288.97 0855.25
2009/04/23 09:33:26.2    -139    114     75    180    195 309.3  23.8  34124  288.97 0855.25
2009/04/23 09:33:26.3    -135    167     35    215    218 321.0   9.5  34130  289.06 0855.25
2009/04/23 09:33:26.4    -116    117     -6    166    167 315.2  -2.1  34128  289.02 0855.25
2009/04/23 09:33:26.5    -156     47    -11    163    164 286.8  -4.1  34128  289.04 0855.25
2009/04/23 09:33:26.6    -202      0     25    203    205 269.9   7.2  34130  289.06 0855.25
2009/04/23 09:33:26.7    -271    -31     13    273    274 263.4   2.9  34126  289.00 0855.25
2009/04/23 09:33:26.8    -270    -29    -25    272    274 263.8  -5.4  34128  289.03 0855.25
2009/04/23 09:33:26.9    -222     22    -21    224    226 275.7  -5.6  34130  289.06 0855.25
2009/04/23 09:33:27.0    -225     66     56    235    242 286.4  13.5  34132  289.10 0855.25
2009/04/23 09:33:27.1    -200     80     -9    216    217 292.0  -2.6  34132  289.09 0855.25
2009/04/23 09:33:27.2    -148     74     62    166    177 296.6  21.5  34128  289.02 0855.25
2009/04/23 09:33:27.3    -114    139     46    181    187 320.6  14.5  34126  288.99 0855.25
2009/04/23 09:33:27.4     -84    166     19    187    188 333.0   5.9  34128  289.02 0855.25
2009/04/23 09:33:27.5     -53    267     32    273    275 348.7   6.7  34126  289.00 0855.25
2009/04/23 09:33:27.6    -159    204    145    259    296 322.1  31.4  34120  288.90 0855.25
2009/04/23 09:33:27.7    -198    109    110    227    252 298.9  27.4  34124  288.97 0855.25
2009/04/23 09:33:27.8    -156     72    110    172    204 294.8  35.6  34120  288.91 0855.25
2009/04/23 09:33:27.9    -101    -20    133    104    168 258.5  57.9  34128  289.04 0855.25
2009/04/23 09:33:28.0     -50     77    114     93    147 327.0  56.4  34126  288.99 0855.25
2009/04/23 09:33:28.1     -96     77     76    124    145 308.6  35.0  34124  288.97 0855.25
2009/04/23 09:33:28.2    -118    128     52    175    183 317.5  16.8  34120  288.91 0855.25
2009/04/23 09:33:28.3     -89    139    122    166    206 327.5  40.1  34122  288.94 0855.25
2009/04/23 09:33:28.4    -119    108    156    161    224 312.2  49.4  34120  288.89 0855.25
2009/04/23 09:33:28.5    -144     57    111    156    191 291.7  39.1  34122  288.94 0855.25
2009/04/23 09:33:28.6    -181     67     66    194    206 290.4  18.9  34122  288.92 0855.25
2009/04/23 09:33:28.7    -168     81     61    187    197 296.0  18.1  34124  288.96 0855.26
2009/04/23 09:33:28.8    -153     81     66    174    186 298.0  22.0  34120  288.91 0855.26
2009/04/23 09:33:28.9     -86     73     77    113    136 310.4  37.4  34124  288.97 0855.26
2009/04/23 09:33:29.0    -142     90     82    169    187 302.5  27.3  34122  288.94 0855.26
2009/04/23 09:33:29.1    -154     58     74    165    180 290.8  25.7  34124  288.96 0855.26
2009/04/23 09:33:29.2    -148     84     64    171    182 299.5  21.3  34126  288.99 0855.26
2009/04/23 09:33:29.3    -117     93     55    150    159 308.6  20.7  34126  289.01 0855.26
2009/04/23 09:33:29.4     -90     87     43    126    134 314.0  18.9  34126  289.01 0855.26
2009/04/23 09:33:29.5    -123    148    102    193    218 320.4  30.1  34126  288.99 0855.26
2009/04/23 09:33:29.6    -115    170     37    206    210 325.7  10.3  34124  288.96 0855.26
2009/04/23 09:33:29.7    -165    108     69    198    210 303.1  19.2  34118  288.86 0855.26
2009/04/23 09:33:29.8    -163    135    104    212    236 309.6  28.2  34122  288.92 0855.26
2009/04/23 09:33:29.9    -150    150     19    213    214 315.1   5.2  34126  289.01 0855.26
2009/04/23 09:33:30.0     -23    158    -41    160    166 351.5 -14.5  34124  288.97 0855.26
2009/04/23 09:33:30.1      15    202    -48    203    209   4.5 -13.4  34130  289.06 0855.26
2009/04/23 09:33:30.2      57    268     75    275    286  12.0  15.3  34128  289.02 0855.26
2009/04/23 09:33:30.3      42    307    103    310    327   7.8  18.5  34128  289.02 0855.26
2009/04/23 09:33:30.4       6    310     47    311    315   1.1   8.7  34126  288.98 0855.26
2009/04/23 09:33:30.5     151    224    187    271    329  34.1  37.8  34128  289.02 0855.26
2009/04/23 09:33:30.6      90    341     64    353    359  14.8  10.3  34148  289.37 0855.26
2009/04/23 09:33:30.7     -17    259     24    260    262 356.2   5.4  34138  289.20 0855.27
2009/04/23 09:33:30.8      26    179    -52    182    190   8.5 -16.0  34132  289.09 0855.27
2009/04/23 09:33:30.9     189    182    -74    263    273  46.0 -20.4  34136  289.15 0855.27
2009/04/23 09:33:31.0     165    101     45    194    200  58.5  13.1  34134  289.14 0855.27
2009/04/23 09:33:31.1     212     56     64    220    230  75.0  16.3  34132  289.11 0855.27
2009/04/23 09:33:31.2     419     72     83    426    435  80.2  11.1  34140  289.22 0855.27
2009/04/23 09:33:31.3     332    150    118    365    384  65.7  18.0  34146  289.33 0855.27
2009/04/23 09:33:31.4     235    150    122    279    304  57.4  25.2  34136  289.15 0855.27
2009/04/23 09:33:31.5     336    303     46    453    456  47.9   5.8  34138  289.19 0855.27
2009/04/23 09:33:31.6     211    214    185    301    353  44.5  34.3  34134  289.13 0855.27
2009/04/23 09:33:31.7     109     14     75    110    133  82.5  37.4  34136  289.18 0855.27
2009/04/23 09:33:31.8      72      8    140     73    157  83.0  70.6  34140  289.23 0855.27
2009/04/23 09:33:31.9      41    -51     87     66    109 141.3  59.0  34142  289.28 0855.27
2009/04/23 09:33:32.0      48    -48    115     69    134 135.0  65.7  34138  289.19 0855.27
2009/04/23 09:33:32.1      94    -62    157    113    193 123.3  60.8  34142  289.26 0855.27
2009/04/23 09:33:32.2     161    -61    247    173    301 110.8  61.7  34156  289.49 0855.27
2009/04/23 09:33:32.3      51      7    207     52    213  81.2  85.9  34164  289.63 0855.27
2009/04/23 09:33:32.4     166    -84    244    187    307 116.9  58.5  34156  289.51 0855.27
2009/04/23 09:33:32.5     232    -76    141    245    282 108.2  32.7  34144  289.31 0855.27
2009/04/23 09:33:32.6     306   -105    201    324    381 109.1  35.0  34134  289.13 0855.27
2009/04/23 09:33:32.7     333    -67    187    340    388 101.4  31.3  34142  289.25 0855.27
2009/04/23 09:33:32.8     250    -50    166    255    304 101.4  35.7  34142  289.27 0855.27
2009/04/23 09:33:32.9     192    -74    124    206    240 111.1  34.0  34140  289.23 0855.27
2009/04/23 09:33:33.0     162    -74     52    179    187 114.6  16.3  34138  289.19 0855.27
2009/04/23 09:33:33.2     270   -104      6    290    291 111.1   1.2  34130  289.07 0855.27
2009/04/23 09:33:33.2     277   -100    -21    295    296 110.0  -4.1  34130  289.07 0855.27
2009/04/23 09:33:33.3     262    -45    -14    266    267  99.9  -3.1  34130  289.05 0855.27
2009/04/23 09:33:33.4     283   -216     87    357    368 127.4  13.8  34126  289.01 0855.27
2009/04/23 09:33:33.5     204   -129    126    242    272 122.5  29.8  34126  288.98 0855.27
2009/04/23 09:33:33.6     211    -89     82    230    244 112.8  20.2  34136  289.15 0855.27
2009/04/23 09:33:33.7     184   -271     77    328    337 145.8  13.2  34130  289.06 0855.27
2009/04/23 09:33:33.8     227    -94    124    246    275 112.6  29.1  34134  289.14 0855.27
2009/04/23 09:33:33.9     198   -266     85    332    343 143.3  14.4  34132  289.11 0855.27
2009/04/23 09:33:34.0     177   -236     45    295    299 143.1   8.8  34134  289.12 0855.27
2009/04/23 09:33:34.1     212   -215     36    303    306 135.5   6.9  34130  289.07 0855.27
2009/04/23 09:33:34.2     250    -93    123    267    293 110.4  26.6  34132  289.09 0855.27
2009/04/23 09:33:34.3     190   -157    116    247    272 129.6  27.1  34136  289.17 0855.27
2009/04/23 09:33:34.4     220   -174     88    281    295 128.4  17.4  34128  289.03 0855.27
2009/04/23 09:33:34.5     163   -340    189    378    422 154.4  28.4  34132  289.09 0855.27
2009/04/23 09:33:34.6     185   -284    123    340    362 146.9  19.9  34132  289.10 0855.27
2009/04/23 09:33:34.7      76   -340     71    349    357 167.3  11.5  34132  289.11 0855.28
2009/04/23 09:33:34.8     113   -382    -15    399    400 163.5  -2.2  34132  289.11 0855.28
2009/04/23 09:33:34.9     301   -318     94    438    449 136.6  12.2  34144  289.29 0855.28
2009/04/23 09:33:35.0     243   -303     82    389    398 141.2  12.0  34142  289.26 0855.28
2009/04/23 09:33:35.1     357   -323    132    482    500 132.2  15.4  34138  289.20 0855.28
2009/04/23 09:33:35.2     -26   -360     82    361    371 184.2  12.9  34120  288.89 0855.28
2009/04/23 09:33:35.3      26   -440     57    441    445 176.6   7.4  34138  289.21 0855.28
2009/04/23 09:33:35.4     117   -307    259    329    418 159.1  42.3  34138  289.20 0855.28
2009/04/23 09:33:35.5     204   -288    174    353    393 144.7  28.2  34140  289.23 0855.28
2009/04/23 09:33:35.6     270   -373    206    461    504 144.1  25.7  34124  288.95 0855.28
2009/04/23 09:33:35.7     302   -461    195    552    586 146.8  19.5  34110  288.73 0855.28
2009/04/23 09:33:35.8     441   -379    136    582    598 130.7  13.2  34118  288.86 0855.28
2009/04/23 09:33:35.9     405   -250    169    477    506 121.7  20.3  34116  288.83 0855.28
2009/04/23 09:33:36.0     312   -329    173    454    485 136.6  21.8  34118  288.86 0855.28
2009/04/23 09:33:36.1     408   -382    247    560    612 133.1  25.2  34114  288.78 0855.28
2009/04/23 09:33:36.2     338   -147    339    369    501 113.5  47.5  34124  288.97 0855.28
2009/04/23 09:33:36.3     149    -63    331    163    368 113.1  72.0  34130  289.07 0855.28
2009/04/23 09:33:36.4     310   -110    320    330    459 109.6  49.1  34128  289.02 0855.28
2009/04/23 09:33:36.5     218    -36    225    222    316  99.5  50.4  34124  288.95 0855.28
2009/04/23 09:33:36.6     171     86    286    192    344  63.1  63.2  34126  289.00 0855.28
2009/04/23 09:33:36.7     261    143    268    298    400  61.2  46.6  34122  288.94 0855.28
2009/04/23 09:33:36.8     344    167    127    383    404  64.1  18.4  34102  288.59 0855.28
2009/04/23 09:33:36.9     269    148    283    307    417  61.2  47.7  34116  288.84 0855.28
2009/04/23 09:33:37.0     302    168    151    346    377  60.9  25.1  34120  288.88 0855.28
2009/04/23 09:33:37.1     256    312    140    404    428  39.3  19.2  34132  289.11 0855.28
2009/04/23 09:33:37.2     156    333    113    368    386  25.2  17.1  34152  289.45 0855.28
2009/04/23 09:33:37.3      93    194    123    216    248  25.6  32.3  34142  289.25 0855.28
2009/04/23 09:33:37.4     216    143    134    260    292  56.5  29.3  34134  289.14 0855.28
2009/04/23 09:33:37.5     160    265     79    310    320  31.2  14.3  34176  289.83 0855.28
2009/04/23 09:33:37.6      60    295     52    302    307  11.6   9.9  34194  290.15 0855.28
2009/04/23 09:33:37.7      92    339    139    352    378  15.3  22.8  34152  289.42 0855.28
2009/04/23 09:33:37.8     160    168    170    233    288  43.7  39.7  34148  289.37 0855.28
2009/04/23 09:33:38.0     162    328    149    366    395  26.3  23.5  34162  289.59 0855.28
2009/04/23 09:33:38.0      61    291    168    298    342  12.0  32.0  34138  289.20 0855.28
2009/04/23 09:33:38.1      24    306    239    308    389   4.5  41.6  34146  289.35 0855.28
2009/04/23 09:33:38.2     -28    419    208    420    468 356.1  28.2  34190  290.07 0855.28
2009/04/23 09:33:38.3     -74    516     16    522    523 351.8   1.8  34234  290.84 0855.28
2009/04/23 09:33:38.4     -19    531    134    532    549 357.9  14.2  34228  290.74 0855.28
2009/04/23 09:33:38.6     127    599    124    613    626  12.0  11.5  34208  290.38 0855.28
2009/04/23 09:33:38.7     231    496    155    548    570  24.9  15.8  34214  290.48 0855.28
2009/04/23 09:33:38.7     217    478    165    526    552  24.4  17.4  34196  290.18 0855.28
2009/04/23 09:33:38.8     185    568     94    598    606  18.1   9.0  34222  290.63 0855.28
2009/04/23 09:33:38.9      92    560    127    568    583   9.3  12.6  34238  290.90 0855.28
2009/04/23 09:33:39.0     -61    565     90    569    577 353.8   9.0  34200  290.25 0855.28
2009/04/23 09:33:39.1     126    515    101    531    541  13.8  10.8  34274  291.52 0855.28
2009/04/23 09:33:39.2      80    471    156    478    503   9.7  18.1  34242  290.98 0855.28
2009/04/23 09:33:39.3     280    472    104    549    559  30.7  10.8  34234  290.84 0855.28
2009/04/23 09:33:39.4     190    546     18    579    580  19.2   1.8  34164  289.64 0855.28
2009/04/23 09:33:39.5     212    477     34    523    525  24.0   3.8  34252  291.14 0855.28
2009/04/23 09:33:39.6     133    443    118    463    478  16.8  14.3  34262  291.32 0855.28
2009/04/23 09:33:39.7     382    370     30    532    533  45.9   3.2  34272  291.47 0855.28
2009/04/23 09:33:39.8     457    273    113    533    545  59.2  12.0  34286  291.71 0855.28
2009/04/23 09:33:39.9     449    243     72    511    517  61.5   8.1  34250  291.10 0855.28
2009/04/23 09:33:40.0     457    355     28    579    580  52.1   2.8  34180  289.90 0855.28
2009/04/23 09:33:40.1     360    399   -107    538    549  42.1 -11.3  34118  288.87 0855.28
2009/04/23 09:33:40.2     528    357     44    638    640  55.9   4.0  34088  288.35 0855.28
2009/04/23 09:33:40.3     644    428     50    774    776  56.4   3.7  34138  289.20 0855.28
2009/04/23 09:33:40.4     638    395    137    751    764  58.3  10.4  34102  288.60 0855.28
2009/04/23 09:33:40.5     408    437    217    599    638  43.0  19.9  34118  288.87 0855.28
2009/04/23 09:33:40.6     406    567    161    698    717  35.6  13.0  34124  288.96 0855.28
2009/04/23 09:33:40.7     376    553     79    669    674  34.2   6.8  34128  289.02 0855.28
2009/04/23 09:33:40.8     275    491     51    563    566  29.3   5.2  34124  288.97 0855.28
2009/04/23 09:33:40.9     159    477     53    504    507  18.5   6.1  34116  288.81 0855.28
2009/04/23 09:33:41.0      93    438      2    448    449  12.0   0.4  34108  288.68 0855.28
2009/04/23 09:33:41.1      55    370    -34    375    377   8.5  -5.3  34116  288.84 0855.28
2009/04/23 09:33:41.2     219    342   -259    407    482  32.6 -39.9  34106  288.67 0855.28
2009/04/23 09:33:41.3     392    532   -385    661    764  36.4 -37.2  34092  288.42 0855.28
2009/04/23 09:33:41.4      87    229   -218    246    328  20.9 -50.6  34108  288.68 0855.28
2009/04/23 09:33:41.5    -173    314    -84    359    369 331.2 -13.3  34104  288.64 0855.28
2009/04/23 09:33:41.6     -46    157    156    164    226 343.7  48.2  34102  288.60 0855.28
2009/04/23 09:33:41.7     212    113    303    241    387  62.0  57.5  34100  288.57 0855.28
2009/04/23 09:33:41.8     210    503    -43    546    548  22.7  -4.6  34104  288.63 0855.28
2009/04/23 09:33:41.9     196    370     -1    419    420  28.0  -0.3  34094  288.45 0855.28
2009/04/23 09:33:42.0     276    466     53    542    545  30.7   5.7  34102  288.58 0855.28
2009/04/23 09:33:42.1     292    583    -98    653    661  26.6  -8.6  34100  288.55 0855.28
2009/04/23 09:33:42.2     423    465    -24    629    630  42.3  -2.2  34092  288.43 0855.28
2009/04/23 09:33:42.3     459    344     69    574    579  53.1   6.9  34092  288.42 0855.28
2009/04/23 09:33:42.4     373    360      9    519    520  46.0   1.0  34088  288.36 0855.28
2009/04/23 09:33:42.5     317    321     80    452    460  44.6  10.1  34088  288.36 0855.28
2009/04/23 09:33:42.6     288    271    137    396    420  46.7  19.1  34094  288.45 0855.28
2009/04/23 09:33:42.7     295    295    148    418    444  45.0  19.6  34094  288.45 0855.28
2009/04/23 09:33:42.8     280    309     66    418    424  42.2   9.0  34094  288.45 0855.28
2009/04/23 09:33:42.9     296    295     64    419    424  45.1   8.7  34100  288.55 0855.28
2009/04/23 09:33:43.0     318    247    127    403    423  52.2  17.5  34106  288.65 0855.28
2009/04/23 09:33:43.1     359    270     84    450    458  53.0  10.6  34102  288.58 0855.28
2009/04/23 09:33:43.2     322    271     81    421    429  49.9  11.0  34112  288.75 0855.28
2009/04/23 09:33:43.3     457    294     64    544    548  57.2   6.8  34110  288.72 0855.28
2009/04/23 09:33:43.4     385    196     68    432    438  63.0   9.0  34110  288.73 0855.28
2009/04/23 09:33:43.5     300    257    173    396    432  49.4  25.1  34120  288.89 0855.28
2009/04/23 09:33:43.6     268    210    180    341    385  51.9  30.1  34122  288.94 0855.28
2009/04/23 09:33:43.7     289    271    194    397    441  46.8  27.9  34124  288.97 0855.28
2009/04/23 09:33:43.8     218    301    134    372    396  36.0  19.9  34110  288.74 0855.28
2009/04/23 09:33:43.9     351    313     -5    471    472  48.2  -0.7  34100  288.57 0855.28
2009/04/23 09:33:44.0     460    328    -76    566    572  54.5  -7.7  34100  288.56 0855.28
2009/04/23 09:33:44.1     507    380    -95    634    642  53.2  -8.6  34102  288.59 0855.28
2009/04/23 09:33:44.2     617    409      9    741    742  56.4   0.7  34188  290.06 0855.28
2009/04/23 09:33:44.3     279    333    192    435    475  40.0  25.2  34196  290.19 0855.28
2009/04/23 09:33:44.4     432    234    309    492    580  61.5  35.2  34214  290.50 0855.28
2009/04/23 09:33:44.5     443    282    323    526    617  57.5  34.5  34236  290.85 0855.28
2009/04/23 09:33:44.6     542    324    233    632    673  59.1  21.1  34158  289.53 0855.28
2009/04/23 09:33:44.7     524    385    218    651    687  53.7  18.6  34112  288.77 0855.28
2009/04/23 09:33:44.8     515    405     41    656    658  51.8   3.6  34122  288.94 0855.28
2009/04/23 09:33:44.9     575    382    162    691    710  56.4  13.2  34162  289.59 0855.28
2009/04/23 09:33:45.0     550    320    113    637    648  59.8  10.1  34148  289.38 0855.28
2009/04/23 09:33:45.1     522    354    210    631    665  55.8  18.4  34142  289.26 0855.28
2009/04/23 09:33:45.2     544    258    211    603    639  64.6  19.3  34174  289.81 0855.28
2009/04/23 09:33:45.3     599    180    185    626    654  73.2  16.5  34182  289.94 0855.28
2009/04/23 09:33:45.4     697    223    176    732    753  72.2  13.6  34202  290.28 0855.28
2009/04/23 09:33:45.5     652    199    140    682    697  73.0  11.7  34150  289.41 0855.28
2009/04/23 09:33:45.6     559     -8    132    560    576  90.9  13.3  34118  288.85 0855.28
2009/04/23 09:33:45.7     497    -40     90    499    508  94.7  10.2  34138  289.20 0855.28
2009/04/23 09:33:45.8     424    122    241    442    503  73.9  31.0  34208  290.40 0855.28
2009/04/23 09:33:45.9     452    121     87    468    477  75.0  10.6  34174  289.81 0855.28
2009/04/23 09:33:46.0     543     28     90    544    552  87.0   9.5  34154  289.46 0855.28
2009/04/23 09:33:46.1     272    112    182    295    346  67.6  34.8  34150  289.40 0855.28
2009/04/23 09:33:46.2     406    162    140    438    460  68.2  17.8  34132  289.11 0855.28
2009/04/23 09:33:46.4     404    -24     16    405    406  93.4   2.4  34140  289.24 0855.28
2009/04/23 09:33:46.4     249      8     94    250    267  88.1  21.7  34152  289.44 0855.28
2009/04/23 09:33:46.5     353     62     28    359    361  80.0   4.5  34140  289.23 0855.28
2009/04/23 09:33:46.7     416     87     77    426    434  78.1  10.3  34148  289.38 0855.28
2009/04/23 09:33:46.8     521     49     44    524    527  84.5   4.9  34150  289.40 0855.28
2009/04/23 09:33:46.9     406     51    263    410    487  82.8  35.6  34170  289.75 0855.28
2009/04/23 09:33:47.0     298     27    107    300    318  84.7  20.4  34166  289.68 0855.28
2009/04/23 09:33:47.1     276    205    218    345    408  53.4  35.5  34250  291.10 0855.28
2009/04/23 09:33:47.2     211    290    242    359    432  36.1  37.4  34220  290.60 0855.28
2009/04/23 09:33:47.3     275    222    221    354    417  51.0  35.0  34198  290.21 0855.28
2009/04/23 09:33:47.4     316    138    248    345    424  66.4  39.3  34224  290.66 0855.28
2009/04/23 09:33:47.5     279    131    293    309    425  64.8  48.4  34224  290.67 0855.28
2009/04/23 09:33:47.6     464    157    222    490    537  71.3  26.2  34180  289.92 0855.28
2009/04/23 09:33:47.7     377    157    230    409    469  67.4  31.9  34176  289.83 0855.28
2009/04/23 09:33:47.8     374    105    299    389    490  74.3  41.4  34156  289.51 0855.27
2009/04/23 09:33:47.9     412    139    -28    436    437  71.3  -3.8  34156  289.49 0855.27
2009/04/23 09:33:48.0     588    153    146    608    626  75.4  13.6  34172  289.76 0855.27
2009/04/23 09:33:48.1     403    133    251    425    493  71.7  33.4  34184  289.98 0855.27
2009/04/23 09:33:48.2     436     39    158    438    465  84.8  20.7  34158  289.55 0855.27
2009/04/23 09:33:48.3     485    138    214    505    548  74.1  24.3  34182  289.94 0855.27
2009/04/23 09:33:48.4     489    144    179    510    541  73.6  19.4  34170  289.75 0855.27
2009/04/23 09:33:48.5     530    213    123    572    586  68.1  12.2  34154  289.47 0855.27
2009/04/23 09:33:48.6     200    161    215    257    335  51.1  44.2  34186  290.02 0855.27
2009/04/23 09:33:48.7     264    193    178    328    373  53.9  30.9  34186  290.01 0855.27
2009/04/23 09:33:48.8     222    291    247    367    442  37.4  37.3  34136  289.17 0855.27
2009/04/23 09:33:48.9     170    315    106    358    374  28.4  16.5  34126  288.99 0855.27
2009/04/23 09:33:49.0     103    237    129    259    289  23.6  28.2  34114  288.78 0855.27
2009/04/23 09:33:49.1      -8    350    136    351    376 358.6  22.4  34114  288.79 0855.27
2009/04/23 09:33:49.2      78    257     27    269    271  16.9   5.9  34152  289.44 0855.27
2009/04/23 09:33:49.3      91    244     91    261    276  20.5  20.0  34188  290.03 0855.27
2009/04/23 09:33:49.4      95    340    122    354    375  15.7  19.1  34178  289.86 0855.27
2009/04/23 09:33:49.5      78    261     91    273    288  16.7  18.5  34154  289.46 0855.27
2009/04/23 09:33:49.6     -22    255     50    257    262 354.9  11.1  34152  289.44 0855.27
2009/04/23 09:33:49.7     -25    227      9    229    230 353.5   2.3  34150  289.40 0855.27
2009/04/23 09:33:49.8      75    136    -36    156    161  29.0 -13.2  34134  289.13 0855.27
2009/04/23 09:33:49.9     187     86     94    207    227  65.2  26.2  34152  289.45 0855.27
2009/04/23 09:33:50.0     158    129    141    205    248  50.7  37.8  34164  289.63 0855.27
2009/04/23 09:33:50.1     116    168    172    205    267  34.5  44.1  34194  290.14 0855.27
2009/04/23 09:33:50.2      25     79    168     83    187  17.8  72.4  34206  290.35 0855.27
2009/04/23 09:33:50.3      17    102    118    104    157   9.8  54.0  34198  290.23 0855.27
2009/04/23 09:33:50.4      -9    188    140    189    235 357.1  40.4  34168  289.70 0855.27
2009/04/23 09:33:50.5     -28    179    144    182    232 350.9  42.4  34154  289.46 0855.27
2009/04/23 09:33:50.6     -15    177    210    178    275 355.1  55.4  34172  289.76 0855.27
2009/04/23 09:33:50.7     111     -5    200    112    229  92.6  68.8  34156  289.50 0855.27
2009/04/23 09:33:50.8     113     37    153    119    193  71.8  58.2  34162  289.60 0855.27
2009/04/23 09:33:50.9      67     73    167    100    194  42.3  66.2  34170  289.75 0855.27
2009/04/23 09:33:51.0     365    133    230    389    451  70.0  33.4  34184  289.97 0855.27
2009/04/23 09:33:51.1     418    145    225    443    496  70.8  29.1  34188  290.03 0855.27
2009/04/23 09:33:51.2     368     87    207    379    431  76.7  31.0  34186  290.02 0855.27
2009/04/23 09:33:51.3     298     90    171    312    355  73.1  31.3  34204  290.33 0855.27
2009/04/23 09:33:51.4     359     84     96    369    382  76.7  14.7  34172  289.77 0855.27
2009/04/23 09:33:51.5     344    192    132    395    417  60.8  18.5  34176  289.83 0855.27
2009/04/23 09:33:51.6     322    312    158    449    475  46.0  20.1  34182  289.96 0855.27
2009/04/23 09:33:51.7     378    313    148    492    514  50.4  16.8  34176  289.84 0855.27
2009/04/23 09:33:51.8     346    301     97    459    470  49.0  12.0  34156  289.52 0855.27
2009/04/23 09:33:51.9     384    308    -22    493    494  51.3  -2.6  34166  289.69 0855.27
2009/04/23 09:33:52.0     427    235    -58    488    492  61.1  -6.8  34156  289.50 0855.27
2009/04/23 09:33:52.1     470    309    -72    563    568  56.7  -7.3  34152  289.45 0855.27
2009/04/23 09:33:52.2     594    196      5    626    627  71.7   0.5  34162  289.60 0855.27
2009/04/23 09:33:52.3     619    224    -51    659    662  70.1  -4.5  34140  289.24 0855.27
2009/04/23 09:33:52.4     610    235     27    654    655  68.9   2.4  34128  289.04 0855.27
2009/04/23 09:33:52.5     554    252    135    609    624  65.5  12.5  34122  288.94 0855.27
2009/04/23 09:33:52.6     442    -50    -25    445    446  96.5  -3.3  34128  289.02 0855.27
2009/04/23 09:33:52.7     479    115     16    493    494  76.5   1.9  34116  288.81 0855.27
2009/04/23 09:33:52.8     502    143    174    522    551  74.1  18.5  34116  288.82 0855.27
2009/04/23 09:33:52.9     367     43     60    370    375  83.2   9.2  34124  288.96 0855.27
2009/04/23 09:33:53.0     507    -52    156    510    534  95.9  17.0  34140  289.23 0855.27
2009/04/23 09:33:53.1     434    -25    146    435    460  93.4  18.6  34146  289.34 0855.27
2009/04/23 09:33:53.2     368   -121    145    388    414 108.2  21.5  34162  289.60 0855.27
2009/04/23 09:33:53.3     330    -87    294    342    450 104.8  45.1  34146  289.34 0855.27
2009/04/23 09:33:53.4     228     73    279    240    368  72.1  55.0  34120  288.88 0855.27
2009/04/23 09:33:53.5     291     19    334    292    443  86.1  54.3  34126  289.01 0855.27
2009/04/23 09:33:53.6     306    200    160    366    399  56.8  25.1  34124  288.96 0855.27
2009/04/23 09:33:53.7     262    253     25    365    366  46.1   4.0  34142  289.25 0855.27
2009/04/23 09:33:53.8     272    214     26    347    348  51.8   4.3  34136  289.18 0855.27
2009/04/23 09:33:53.9     152    138      4    206    207  47.6   1.2  34122  288.92 0855.27
2009/04/23 09:33:54.0      79    159    -19    178    180  26.5  -6.2  34118  288.87 0855.27
2009/04/23 09:33:54.1      66    140     27    156    159  25.4  10.1  34118  288.87 0855.27
2009/04/23 09:33:54.2     122    106    -45    162    168  49.1 -20.2  34120  288.89 0855.27
2009/04/23 09:33:54.3     130    128    -45    183    189  45.3 -13.9  34108  288.70 0855.27
2009/04/23 09:33:54.4     119     82    -54    145    154  55.4 -25.3  34108  288.70 0855.27
2009/04/23 09:33:54.5     177     86    -60    197    205  64.0 -21.8  34106  288.65 0855.27
2009/04/23 09:33:54.6     100     79   -142    128    191  51.8 -57.7  34116  288.82 0855.27
2009/04/23 09:33:54.7      72     46   -135     86    160  57.5 -69.1  34120  288.89 0855.27
2009/04/23 09:33:54.8     137    138      6    195    196  44.8   1.8  34118  288.86 0855.27
2009/04/23 09:33:54.9      76     80     18    111    113  43.7   9.5  34122  288.92 0855.27
2009/04/23 09:33:55.0      17    110     57    112    125   8.9  29.2  34120  288.89 0855.27
2009/04/23 09:33:55.1      11    132     21    133    135   4.9   9.0  34124  288.97 0855.27
2009/04/23 09:33:55.2      -5     86    -46     87     98 356.4 -34.2  34130  289.08 0855.27
2009/04/23 09:33:55.3      18    135    -30    137    141   7.6 -12.4  34148  289.36 0855.27
2009/04/23 09:33:55.4      24     60     45     65     79  21.9  38.0  34160  289.57 0855.27
2009/04/23 09:33:55.5      43     61     55     75     93  35.2  40.1  34158  289.55 0855.27
2009/04/23 09:33:55.6     106     67     45    126    133  57.5  20.0  34164  289.63 0855.27
2009/04/23 09:33:55.7     117     63     16    134    136  61.6   7.1  34162  289.60 0855.27
2009/04/23 09:33:55.8      36     55      9     66     67  33.4   8.0  34154  289.46 0855.28
2009/04/23 09:33:55.9      67     53     -6     86     87  51.4  -4.6  34148  289.38 0855.28
2009/04/23 09:33:56.0     121     57     -1    134    135  64.6  -0.7  34140  289.24 0855.28
2009/04/23 09:33:56.1      75     90    -31    118    123  39.6 -15.0  34142  289.26 0855.28
2009/04/23 09:33:56.2      90     32    -46     96    106  70.5 -31.7  34146  289.35 0855.28
2009/04/23 09:33:56.3      74     43    -46     86     97  59.8 -34.7  34146  289.33 0855.28
2009/04/23 09:33:56.4     183     77    -83    199    215  67.2 -28.2  34148  289.38 0855.28
2009/04/23 09:33:56.5     114     94    -89    148    172  50.5 -38.6  34162  289.62 0855.28
2009/04/23 09:33:56.6      30     80    -69     86    110  20.5 -48.1  34158  289.53 0855.28
2009/04/23 09:33:56.7     -50     73    -56     89    105 325.3 -39.9  34164  289.63 0855.28
2009/04/23 09:33:56.8     -62     31    -48     70     84 297.1 -42.0  34180  289.92 0855.28
2009/04/23 09:33:56.9     -97     57    -69    113    132 300.7 -38.8  34180  289.92 0855.28
2009/04/23 09:33:57.0    -114     16    -44    116    124 278.4 -25.4  34178  289.89 0855.28
2009/04/23 09:33:57.1     -49     60   -112     78    136 320.4 -65.9  34182  289.94 0855.28
2009/04/23 09:33:57.2     -77    104    -64    130    144 323.5 -32.6  34184  289.99 0855.28
2009/04/23 09:33:57.3     -34     73    -11     81     82 334.6  -8.2  34186  290.01 0855.28
2009/04/23 09:33:57.4     -14     14     11     21     23 315.0  29.3  34186  290.02 0855.28
2009/04/23 09:33:57.5     -26     28     14     39     41 316.8  20.0  34184  289.97 0855.28
2009/04/23 09:33:57.6     -49    104      9    116    117 334.6   4.9  34180  289.92 0855.28
2009/04/23 09:33:57.7     -35     85     17     93     95 337.3  10.6  34178  289.89 0855.28
2009/04/23 09:33:57.8      -2    156     41    157    163 359.0  14.7  34166  289.69 0855.30
2009/04/23 09:33:57.9     106     88     19    138    140  50.4   8.0  34142  289.26 0855.30
2009/04/23 09:33:58.0     175     75    -51    191    198  66.7 -15.2  34140  289.24 0855.30
2009/04/23 09:33:58.1     237     20     -4    238    239  85.0  -1.1  34160  289.56 0855.30
2009/04/23 09:33:58.2     185     86     45    205    210  64.9  12.4  34162  289.60 0855.30
2009/04/23 09:33:58.3      69    223     24    234    236  17.2   6.1  34160  289.58 0855.30
2009/04/23 09:33:58.4      18    220      3    221    222   4.7   0.8  34166  289.69 0855.30
2009/04/23 09:33:58.5      14    186     32    187    190   4.5   9.9  34166  289.69 0855.30
2009/04/23 09:33:58.6       9    127     56    128    139   4.4  25.1  34162  289.62 0855.30
2009/04/23 09:33:58.7     -54    137     24    148    151 338.2   9.5  34158  289.55 0855.30
2009/04/23 09:33:58.8     -40    121     20    128    130 341.7   8.9  34156  289.52 0855.31
2009/04/23 09:33:58.9       0    107     13    108    109   0.5   7.1  34160  289.58 0855.31
2009/04/23 09:33:59.0      21    103      0    106    107  11.6  -0.3  34160  289.58 0855.31
2009/04/23 09:33:59.1     195     51     16    202    203  75.2   4.6  34140  289.23 0855.31
2009/04/23 09:33:59.2     203     57      3    211    212  74.3   0.8  34146  289.35 0855.31
2009/04/23 09:33:59.3     221      0     47    222    227  90.0  12.0  34134  289.14 0855.31
2009/04/23 09:33:59.4     249      3     58    250    257  89.2  13.2  34138  289.20 0855.31
2009/04/23 09:33:59.5     245     15     34    246    249  86.5   8.0  34136  289.17 0855.31
2009/04/23 09:33:59.6     284      0     62    285    292  90.0  12.4  34136  289.15 0855.31
2009/04/23 09:33:59.7     269     20    121    270    295  85.6  25.7  34146  289.32 0855.31
2009/04/23 09:33:59.8     258     24    132    260    291  84.5  29.2  34158  289.54 0855.31
2009/04/23 09:33:59.9     127     -3    139    128    188  91.7  52.5  34150  289.40 0855.31
2009/04/23 09:34:00.0      68    -22     80     72    107 108.2  53.3  34148  289.38 0855.31
2009/04/23 09:34:00.1     103    -54     63    117    132 117.5  31.3  34146  289.33 0855.31
2009/04/23 09:34:00.2     105    -35     26    111    115 108.6  13.2  34140  289.23 0855.31
2009/04/23 09:34:00.3     134    -63     70    149    164 115.4  27.0  34138  289.19 0855.31
2009/04/23 09:34:00.4     140    -61     92    153    178 113.5  34.0  34134  289.14 0855.31
2009/04/23 09:34:00.5      82    -37     72     91    116 114.4  42.7  34138  289.19 0855.31
2009/04/23 09:34:00.6      46    -46     71     66     96 135.0  51.6  34140  289.24 0855.31
2009/04/23 09:34:00.7      43    -43     76     61     97 135.0  56.9  34144  289.30 0855.31
2009/04/23 09:34:00.8      22    -22     64     32     71 134.9  72.8  34142  289.28 0855.30
2009/04/23 09:34:00.9      54    -50     25     74     79 133.1  18.9  34142  289.26 0855.30
2009/04/23 09:34:01.0      -2   -145     59    146    157 180.9  23.0  34140  289.23 0855.30
2009/04/23 09:34:01.1      63   -168     74    180    194 159.3  23.6  34134  289.13 0855.30
2009/04/23 09:34:01.2      70   -197    112    210    238 160.4  30.3  34130  289.08 0855.30
2009/04/23 09:34:01.3      27   -216    167    218    274 172.7  41.6  34136  289.17 0855.30
2009/04/23 09:34:01.4      -6   -222    172    223    281 181.8  41.6  34132  289.09 0855.30
2009/04/23 09:34:01.5     -15   -215    162    216    270 184.0  40.7  34134  289.14 0855.30
2009/04/23 09:34:01.6     -37   -219    155    223    271 189.6  38.0  34134  289.12 0855.30
2009/04/23 09:34:01.7     -62   -258    130    266    296 193.6  27.8  34132  289.09 0855.30
2009/04/23 09:34:01.8     -34   -255    130    258    288 187.6  28.7  34134  289.14 0855.30
2009/04/23 09:34:01.9     -24   -220    133    222    258 186.2  33.7  34134  289.14 0855.30
2009/04/23 09:34:02.0     -29   -144    188    148    239 191.6  57.9  34134  289.13 0855.30
2009/04/23 09:34:02.1     -96   -163    214    190    286 210.5  54.2  34140  289.22 0855.30
2009/04/23 09:34:02.2    -193   -131    167    234    287 235.8  39.1  34142  289.25 0855.30
2009/04/23 09:34:02.3    -267   -173    168    319    360 237.1  30.1  34152  289.42 0855.30
2009/04/23 09:34:02.4    -246   -169    192    299    355 235.4  35.6  34142  289.28 0855.30
2009/04/23 09:34:02.5    -160   -140    131    213    250 228.9  34.5  34144  289.31 0855.30
2009/04/23 09:34:02.6    -227   -189    179    296    345 230.2  34.1  34148  289.37 0855.30
2009/04/23 09:34:02.7    -212   -275    107    348    365 217.6  17.1  34152  289.43 0855.30
2009/04/23 09:34:02.8    -188   -265    109    326    344 215.4  18.6  34138  289.20 0855.30
2009/04/23 09:34:02.9    -166   -244     57    296    302 214.2  11.0  34136  289.17 0855.30
2009/04/23 09:34:03.0    -167   -216    114    274    296 217.8  23.8  34138  289.20 0855.30
2009/04/23 09:34:03.1    -156   -221    170    271    319 215.2  35.2  34144  289.31 0855.30
2009/04/23 09:34:03.2    -197   -178    128    266    295 228.0  27.3  34140  289.24 0855.30
2009/04/23 09:34:03.3    -114   -151    165    190    251 217.0  45.6  34134  289.12 0855.30
2009/04/23 09:34:03.4     -73   -166    140    182    229 203.8  41.7  34132  289.11 0855.30
2009/04/23 09:34:03.5     -76   -198    135    213    252 200.9  35.5  34134  289.12 0855.30
2009/04/23 09:34:03.6    -137   -195     12    239    240 215.0   2.9  34134  289.12 0855.30
2009/04/23 09:34:03.7     -39   -195     68    199    211 191.5  18.9  34132  289.09 0855.30
2009/04/23 09:34:03.8    -167   -202    103    263    282 219.6  22.5  34138  289.19 0855.30
2009/04/23 09:34:03.9    -205   -217    122    299    322 223.3  23.5  34134  289.14 0855.30
2009/04/23 09:34:04.0    -186   -161     56    247    254 229.1  12.9  34134  289.14 0855.30
2009/04/23 09:34:04.1    -216   -281    135    355    379 217.5  21.7  34136  289.15 0855.30
2009/04/23 09:34:04.2    -260    -76   -129    272    301 253.6 -31.5  34126  289.00 0855.30
2009/04/23 09:34:04.3    -396    -60    -43    401    404 261.3  -6.2  34118  288.87 0855.30
2009/04/23 09:34:04.4    -373    -73     -3    381    382 258.9  -0.6  34150  289.40 0855.30
2009/04/23 09:34:04.5    -226   -135     13    264    265 239.1   2.9  34148  289.36 0855.30
2009/04/23 09:34:04.6     -85   -145    128    169    212 210.5  41.2  34128  289.04 0855.30
2009/04/23 09:34:04.7     -49   -144    131    153    201 198.7  45.4  34128  289.02 0855.30
2009/04/23 09:34:04.8     -50   -148    146    157    214 198.7  47.9  34124  288.97 0855.30
2009/04/23 09:34:04.9     -80   -148    183    169    249 208.5  52.2  34136  289.18 0855.30
2009/04/23 09:34:05.0     -39   -174    118    179    214 192.7  36.3  34128  289.02 0855.30
2009/04/23 09:34:05.1    -113   -164    121    200    233 214.7  34.2  34132  289.09 0855.30
2009/04/23 09:34:05.2     -84   -142    112    166    200 210.7  37.4  34130  289.06 0855.30
2009/04/23 09:34:05.3    -120   -154     80    196    211 218.1  23.4  34126  289.01 0855.30
2009/04/23 09:34:05.4    -118   -144     82    187    204 219.4  25.1  34126  289.01 0855.30
2009/04/23 09:34:05.5    -110   -133     84    173    192 219.6  27.3  34124  288.96 0855.30
2009/04/23 09:34:05.6    -141    -90     62    168    179 237.5  21.3  34128  289.04 0855.30
2009/04/23 09:34:05.7     -84    -27      7     89     90 252.3   4.9  34136  289.18 0855.30
2009/04/23 09:34:05.8     -57     -8      6     58     59 261.2   5.9  34134  289.14 0855.30
2009/04/23 09:34:05.9     -22     13    -20     26     32 300.7 -48.1  34132  289.11 0855.30
2009/04/23 09:34:06.0       5    -12    -41     14     43 158.2 -85.4  34134  289.14 0855.30
2009/04/23 09:34:06.1      -5     -5    -61      8     61 225.0 -90.0  34134  289.14 0855.30
2009/04/23 09:34:06.2      61     -1    -41     62     74  91.7 -40.0  34136  289.18 0855.30
2009/04/23 09:34:06.3      43      9    -51     45     68  77.6 -56.6  34142  289.26 0855.30
2009/04/23 09:34:06.4      29    -76    -58     82    100 158.6 -43.5  34136  289.16 0855.30
2009/04/23 09:34:06.5      29   -114    -53    118    129 165.3 -30.6  34132  289.11 0855.30
2009/04/23 09:34:06.6      67   -105    -39    125    132 147.4 -17.5  34128  289.02 0855.30
2009/04/23 09:34:06.7     116   -151    -31    191    194 142.6  -9.4  34120  288.89 0855.30
2009/04/23 09:34:06.8     106   -265    -11    286    287 158.2  -2.2  34120  288.88 0855.29
2009/04/23 09:34:06.9      81   -233    -74    247    259 160.8 -16.8  34122  288.93 0855.29
2009/04/23 09:34:07.0     106   -227      2    251    252 154.8   0.5  34116  288.83 0855.29
2009/04/23 09:34:07.1      34   -261     41    264    268 172.4   9.0  34120  288.90 0855.29
2009/04/23 09:34:07.2     -80   -146    -46    167    174 208.7 -15.5  34120  288.91 0855.29
2009/04/23 09:34:07.3    -100   -138      1    171    172 215.8   0.5  34120  288.89 0855.29
2009/04/23 09:34:07.4     -84    -68     40    109    116 230.9  20.4  34122  288.92 0855.29
2009/04/23 09:34:07.5     -85    -51     19    100    102 238.9  11.0  34124  288.97 0855.29
2009/04/23 09:34:07.6     -50     21     79     55     96 292.6  62.1  34126  288.99 0855.29
2009/04/23 09:34:07.7      -7      3     94      8     94 295.3  90.0  34120  288.91 0855.29
2009/04/23 09:34:07.8     -30     23     21     38     43 307.8  31.4  34124  288.97 0855.29
2009/04/23 09:34:07.9      -8     57      1     58     59 351.1   1.8  34124  288.96 0855.29
2009/04/23 09:34:08.0     -16     80     35     82     89 348.4  24.1  34126  288.99 0855.29
2009/04/23 09:34:08.1       8     48     23     49     54   9.8  27.1  34132  289.09 0855.29
2009/04/23 09:34:08.2      12    165     86    166    186   4.4  29.3  34132  289.11 0855.29
2009/04/23 09:34:08.3     -12    186    142    187    234 356.2  41.2  34134  289.13 0855.29
2009/04/23 09:34:08.4    -185    158    102    244    264 310.4  24.1  34124  288.97 0855.29
2009/04/23 09:34:08.5    -150    183     61    237    245 320.6  14.5  34130  289.05 0855.29
2009/04/23 09:34:08.6    -153    210     52    261    267 323.9  11.4  34134  289.14 0855.29
2009/04/23 09:34:08.7    -241    180    -31    301    303 306.8  -6.0  34132  289.09 0855.29
2009/04/23 09:34:08.8    -258    113    -11    282    283 293.7  -2.2  34130  289.07 0855.29
2009/04/23 09:34:08.9    -269    138     59    303    309 297.1  11.1  34128  289.03 0855.29
2009/04/23 09:34:09.0    -290    113     63    312    319 291.3  11.5  34130  289.07 0855.29
2009/04/23 09:34:09.1    -261    143     46    298    302 298.9   8.8  34134  289.14 0855.29
2009/04/23 09:34:09.2    -123    225     86    257    272 331.3  18.5  34142  289.27 0855.29
2009/04/23 09:34:09.3     -91    275     78    290    301 341.7  15.2  34152  289.44 0855.29
2009/04/23 09:34:09.4     -70    244    120    254    280 343.9  27.1  34132  289.10 0855.29
2009/04/23 09:34:09.5     -46    265    167    270    317 350.0  34.6  34136  289.15 0855.29
2009/04/23 09:34:09.6      -1    212    140    213    254 359.5  36.5  34122  288.92 0855.29
2009/04/23 09:34:09.7     -26    221    123    223    254 353.3  31.3  34126  289.00 0855.29
2009/04/23 09:34:09.8     -28    247    179    249    306 353.5  39.5  34120  288.90 0855.29
2009/04/23 09:34:09.9      24    283    139    285    317   4.9  28.0  34126  288.98 0855.29
2009/04/23 09:34:10.0      35    325    105    327    344   6.2  17.8  34128  289.04 0855.29
2009/04/23 09:34:10.1     -96    285     42    301    305 341.3   8.0  34136  289.15 0855.29
2009/04/23 09:34:10.2     -55    173     30    182    185 342.2   9.3  34148  289.38 0855.29
2009/04/23 09:34:10.3     -44    104     58    114    127 336.8  28.7  34154  289.46 0855.29
2009/04/23 09:34:10.4      22    116     27    119    123  10.7  13.1  34198  290.23 0855.29
2009/04/23 09:34:10.5      45    169     71    175    188  15.1  23.1  34178  289.87 0855.29
2009/04/23 09:34:10.6      77    116     66    140    154  33.4  27.2  34144  289.31 0855.29
2009/04/23 09:34:10.7     100    117     69    155    169  40.5  25.9  34140  289.24 0855.29
2009/04/23 09:34:10.8      87     72     72    114    134  50.4  35.5  34144  289.30 0855.29
2009/04/23 09:34:10.9      29     88     93     93    131  18.3  50.1  34150  289.41 0855.29
2009/04/23 09:34:11.0      60     68     55     91    106  41.4  34.4  34158  289.53 0855.29
2009/04/23 09:34:11.1      -1    126    119    127    174 359.5  48.5  34168  289.72 0855.29
2009/04/23 09:34:11.2     189    189    189    268    327  45.1  38.6  34160  289.56 0855.29
2009/04/23 09:34:11.3     -42    220    251    225    337 349.1  53.5  34178  289.86 0855.29
2009/04/23 09:34:11.4      59     93    239    111    263  32.6  73.1  34162  289.60 0855.29
2009/04/23 09:34:11.5      23     40    244     47    248  29.9  89.8  34154  289.48 0855.29
2009/04/23 09:34:11.6     111      0    128    112    170  90.0  54.6  34152  289.45 0855.29
2009/04/23 09:34:11.7      72    -34    200     80    215 115.2  77.1  34142  289.26 0855.29
2009/04/23 09:34:11.8      35   -166    324    170    365 168.0  70.3  34130  289.05 0855.29
2009/04/23 09:34:11.9      25    -39    185     47    190 147.5  85.6  34130  289.08 0855.29
2009/04/23 09:34:12.0      22     -9    156     25    157 113.5  90.0  34124  288.96 0855.29
2009/04/23 09:34:12.1     -42     66    164     79    182 327.5  72.8  34136  289.18 0855.29
2009/04/23 09:34:12.2     -29     59    113     66    130 333.7  66.8  34136  289.18 0855.29
2009/04/23 09:34:12.3    -143    -87     37    168    173 238.5  12.4  34134  289.14 0855.29
2009/04/23 09:34:12.4    -182    -59     -6    192    193 251.8  -1.8  34134  289.13 0855.29
2009/04/23 09:34:12.6    -192     39     23    196    198 281.5   6.9  34130  289.08 0855.29
2009/04/23 09:34:12.6    -260   -201     89    329    341 232.3  15.1  34126  288.98 0855.29
2009/04/23 09:34:12.7    -354    -67     14    361    362 259.3   2.2  34136  289.15 0855.29
2009/04/23 09:34:12.9    -338    -33    117    340    360 264.3  19.1  34130  289.06 0855.26
2009/04/23 09:34:13.0    -255   -187     13    317    318 233.8   2.4  34140  289.22 0855.26
2009/04/23 09:34:13.1    -127   -187      3    227    228 214.2   0.8  34130  289.08 0855.26
2009/04/23 09:34:13.2     148   -178    188    232    298 140.4  43.5  34140  289.22 0855.26
2009/04/23 09:34:13.3      38   -171    194    176    261 167.3  53.0  34136  289.17 0855.26
2009/04/23 09:34:13.4      57    -83    168    101    196 145.3  66.4  34138  289.19 0855.26
2009/04/23 09:34:13.5      -8   -110    206    111    234 184.5  69.3  34130  289.08 0855.26
2009/04/23 09:34:13.6     -28   -147    204    150    253 191.1  60.3  34130  289.08 0855.26
2009/04/23 09:34:13.7      24    -50    238     56    244 153.7  87.0  34142  289.26 0855.26
2009/04/23 09:34:13.8     -45    -68    221     82    235 213.8  79.1  34138  289.19 0855.26
2009/04/23 09:34:13.9    -112    -66    211    131    248 239.3  65.1  34136  289.18 0855.26
2009/04/23 09:34:14.0     -74    107    166    131    211 325.3  57.7  34142  289.26 0855.26
2009/04/23 09:34:14.1    -115     13    137    116    179 276.6  55.6  34136  289.16 0855.26
2009/04/23 09:34:14.2    -208    189    172    282    330 312.3  34.4  34144  289.29 0855.26
2009/04/23 09:34:14.3    -245    165     98    296    312 304.1  18.4  34150  289.41 0855.26
2009/04/23 09:34:14.4    -178    154    106    236    258 310.9  26.2  34150  289.39 0855.26
2009/04/23 09:34:14.5    -214    234     77    318    328 317.5  13.7  34156  289.51 0855.26
2009/04/23 09:34:14.6       6    267    129    268    297   1.4  27.3  34126  288.98 0855.26
2009/04/23 09:34:14.7      -5    357     51    358    362 359.2   8.2  34138  289.21 0855.26
2009/04/23 09:34:14.8      82    320    160    331    367  14.4  27.4  34152  289.45 0855.26
2009/04/23 09:34:14.9     150    329     52    362    366  24.6   8.3  34144  289.30 0855.27
2009/04/23 09:34:15.0     166    323    126    364    386  27.3  19.1  34152  289.42 0855.27
2009/04/23 09:34:15.1     163     91    159    187    245  60.7  44.8  34152  289.43 0855.27
2009/04/23 09:34:15.2     170     -7    185    171    251  92.4  52.2  34154  289.48 0855.27
2009/04/23 09:34:15.3      24    -14    148     29    150 120.7  89.1  34158  289.55 0855.27
2009/04/23 09:34:15.4     -27    -57    156     64    168 205.5  76.6  34158  289.53 0855.27
2009/04/23 09:34:15.5      14    -99    182    101    208 172.0  68.8  34154  289.46 0855.27
2009/04/23 09:34:15.6    -194    -60    153    204    255 252.7  40.7  34148  289.37 0855.27
2009/04/23 09:34:15.7    -195     12     82    196    212 273.7  24.1  34158  289.53 0855.27
2009/04/23 09:34:15.8    -182   -123    114    220    247 235.8  29.5  34160  289.56 0855.27
2009/04/23 09:34:15.9    -172   -165    106    239    261 226.2  25.3  34152  289.44 0855.27
2009/04/23 09:34:16.0    -272   -119     25    298    300 246.4   4.9  34152  289.44 0855.27
2009/04/23 09:34:16.1    -285   -134     -1    316    317 244.8  -0.3  34152  289.42 0855.27
2009/04/23 09:34:16.2    -195   -132     36    236    239 235.8   8.8  34152  289.42 0855.27
2009/04/23 09:34:16.3    -223   -105     64    247    256 244.7  14.5  34150  289.41 0855.27
2009/04/23 09:34:16.4    -236   -146     60    278    285 238.2  12.2  34156  289.49 0855.27
2009/04/23 09:34:16.5    -257   -163     14    305    306 237.6   2.8  34150  289.39 0855.27
2009/04/23 09:34:16.6    -183   -159    -35    243    246 229.1  -8.3  34154  289.47 0855.27
2009/04/23 09:34:16.7    -184   -109     34    215    218 239.3   9.0  34156  289.50 0855.27
2009/04/23 09:34:16.8    -198   -139    104    243    264 234.9  24.6  34154  289.47 0855.27
2009/04/23 09:34:16.9    -135   -156     74    207    219 221.0  20.4  34152  289.45 0855.28
2009/04/23 09:34:17.0     -79   -152     85    172    191 207.6  27.8  34150  289.40 0855.28
2009/04/23 09:34:17.1    -208   -135     53    249    255 236.9  12.2  34166  289.66 0855.28
2009/04/23 09:34:17.2    -221   -146     78    266    278 236.5  16.4  34164  289.63 0855.28
2009/04/23 09:34:17.3    -253   -100    107    273    293 248.3  23.0  34160  289.56 0855.28
2009/04/23 09:34:17.4    -285   -161    116    328    349 240.5  19.6  34142  289.26 0855.28
2009/04/23 09:34:17.5     -67    -84    186    108    215 218.7  67.2  34144  289.30 0855.28
2009/04/23 09:34:17.6    -117   -106     98    159    186 227.8  35.0  34146  289.35 0855.28
2009/04/23 09:34:17.7     -87   -136    176    162    239 212.5  52.5  34138  289.21 0855.28
2009/04/23 09:34:17.8     -23   -136    211    139    252 189.8  63.6  34140  289.24 0855.28
2009/04/23 09:34:17.9     -67   -168    208    181    275 201.8  54.3  34140  289.24 0855.28
2009/04/23 09:34:18.0      -1    -72    170     73    185 180.9  75.5  34138  289.21 0855.28
2009/04/23 09:34:18.1      47    -10    108     49    118 102.4  74.5  34136  289.18 0855.28
2009/04/23 09:34:18.2     -22     22    124     32    128 315.0  85.4  34142  289.28 0855.28
2009/04/23 09:34:18.3    -121    -40    169    128    212 251.4  59.0  34138  289.19 0855.28
2009/04/23 09:34:18.4    -117    -69    181    137    227 239.4  59.2  34136  289.16 0855.28
2009/04/23 09:34:18.5     -25    -40    173     48    179 211.6  84.6  34142  289.26 0855.28
2009/04/23 09:34:18.6    -110    -91    194    144    241 230.4  59.8  34134  289.13 0855.28
2009/04/23 09:34:18.7     -97    -93    190    135    233 226.0  61.3  34134  289.13 0855.28
2009/04/23 09:34:18.8     -89    -86    144    125    190 226.0  54.8  34138  289.19 0855.28
2009/04/23 09:34:18.9      20     64     29     68     73  17.8  23.1  34136  289.16 0855.24
2009/04/23 09:34:19.0     -59    220    148    228    271 344.8  35.6  34166  289.66 0855.24
2009/04/23 09:34:19.1     -78    243    148    256    295 342.2  32.7  34152  289.42 0855.24
2009/04/23 09:34:19.2      35    168     61    172    182  12.0  20.0  34150  289.41 0855.24
2009/04/23 09:34:19.3      50    156     36    164    168  17.8  12.4  34154  289.46 0855.24
2009/04/23 09:34:19.4      11    180     29    181    184   3.8   9.3  34170  289.75 0855.24
2009/04/23 09:34:19.5      55    209     34    217    220  14.9   8.9  34170  289.75 0855.24
2009/04/23 09:34:19.6     -60    171    -23    182    184 340.6  -7.3  34176  289.84 0855.24
2009/04/23 09:34:19.7      37    160     -5    165    166  13.1  -1.8  34182  289.96 0855.24
2009/04/23 09:34:19.8      75    136    -44    156    162  28.9 -20.7  34188  290.06 0855.24
2009/04/23 09:34:19.9      88    112    -18    143    145  38.3  -7.3  34208  290.40 0855.24
2009/04/23 09:34:20.0     -21    142     16    144    145 351.5   6.5  34212  290.45 0855.24
2009/04/23 09:34:20.1    -110     91     63    144    157 309.6  25.1  34196  290.18 0855.24
2009/04/23 09:34:20.2    -113     74     37    136    141 303.3  15.3  34192  290.13 0855.24
2009/04/23 09:34:20.3    -110     78     62    136    149 305.5  27.1  34178  289.89 0855.24
2009/04/23 09:34:20.4    -142     53     49    152    160 290.8  17.9  34182  289.96 0855.24
2009/04/23 09:34:20.5     -91     63     15    111    113 304.6   8.0  34184  289.99 0855.24
2009/04/23 09:34:20.6     -57     43     35     72     80 306.9  27.8  34196  290.18 0855.24
2009/04/23 09:34:20.7     -24    122     40    125    132 348.9  17.9  34194  290.16 0855.24
2009/04/23 09:34:20.8     -37    113    107    119    160 341.7  46.6  34216  290.52 0855.24
2009/04/23 09:34:20.9     -43    119     94    127    158 340.0  40.1  34246  291.04 0855.24
2009/04/23 09:34:21.0     -55    137    141    148    204 338.1  48.7  34248  291.06 0855.24
2009/04/23 09:34:21.1    -102    215    184    239    301 334.5  41.6  34250  291.09 0855.24
2009/04/23 09:34:21.2    -117    258     55    284    290 335.5  11.1  34212  290.44 0855.24
2009/04/23 09:34:21.3     -54    220    -62    227    236 346.2 -15.4  34188  290.05 0855.24
2009/04/23 09:34:21.4    -135    178     40    224    228 322.8  10.3  34220  290.60 0855.24
2009/04/23 09:34:21.5     -86    137    -32    162    166 327.9 -11.3  34214  290.48 0855.24
2009/04/23 09:34:21.6       3    162    148    163    220   1.4  47.1  34234  290.84 0855.24
2009/04/23 09:34:21.7     -97    205     99    227    247 334.7  25.1  34218  290.54 0855.24
2009/04/23 09:34:21.8     -70    147     10    163    164 334.4   3.6  34188  290.06 0855.24
2009/04/23 09:34:21.9      42     51     33     67     74  39.6  27.3  34222  290.62 0855.23
2009/04/23 09:34:22.0     218     11     36    219    222  87.0   9.3  34232  290.79 0855.23
2009/04/23 09:34:22.1     195     39    161    199    255  78.6  43.5  34258  291.22 0855.23
2009/04/23 09:34:22.2     264     66    117    273    297  75.8  24.6  34250  291.09 0855.23
2009/04/23 09:34:22.3     363    107    140    379    404  73.6  21.1  34236  290.86 0855.23
2009/04/23 09:34:22.4     278     93    173    294    341  71.4  33.3  34230  290.75 0855.23
2009/04/23 09:34:22.5     129    177    164    220    274  36.1  40.6  34232  290.78 0855.23
2009/04/23 09:34:22.6     184    152    124    239    269  50.5  29.3  34180  289.92 0855.23
2009/04/23 09:34:22.7     193    193    183    273    328  45.0  37.0  34200  290.26 0855.23
2009/04/23 09:34:22.8     295    162    115    337    357  61.1  18.8  34212  290.47 0855.23
2009/04/23 09:34:22.9     320    254    198    409    454  51.6  27.4  34192  290.11 0855.23
2009/04/23 09:34:23.0     261    286    183    388    428  42.3  27.1  34178  289.87 0855.23
2009/04/23 09:34:23.1     227    251    142    339    367  42.1  24.1  34202  290.28 0855.23
2009/04/23 09:34:23.2     340    224    159    408    437  56.7  22.4  34232  290.80 0855.23
2009/04/23 09:34:23.3     238    170     52    293    298  54.5  10.1  34234  290.83 0855.23
2009/04/23 09:34:23.4     166    151     85    225    240  47.8  21.5  34240  290.93 0855.23
2009/04/23 09:34:23.5     220    165    119    276    300  53.1  24.9  34242  290.97 0855.23
2009/04/23 09:34:23.6     308     96     95    323    337  72.6  16.5  34248  291.05 0855.23
2009/04/23 09:34:23.7     361    177    134    403    425  63.8  18.5  34218  290.56 0855.23
2009/04/23 09:34:23.8     466    218    179    515    545  64.9  20.0  34190  290.07 0855.23
2009/04/23 09:34:23.9     395    280    247    485    544  54.6  29.2  34184  289.97 0855.24
2009/04/23 09:34:24.0     452    260    187    522    554  60.1  20.4  34198  290.23 0855.24
2009/04/23 09:34:24.1     149    252    231    294    373  30.7  42.1  34150  289.40 0855.24
2009/04/23 09:34:24.2      91    297    174    311    356  17.2  31.6  34146  289.35 0855.24
2009/04/23 09:34:24.3     343    231     80    414    422  56.0  11.0  34208  290.38 0855.24
2009/04/23 09:34:24.4     470    177    103    503    514  69.3  11.7  34206  290.35 0855.24
2009/04/23 09:34:24.5     243    294    211    382    436  39.6  31.4  34164  289.63 0855.24
2009/04/23 09:34:24.6     237    189    281    304    413  51.4  47.7  34160  289.57 0855.24
2009/04/23 09:34:24.7     185    312    207    363    417  30.7  32.3  34164  289.64 0855.24
2009/04/23 09:34:24.8     257    402    130    478    496  32.6  15.3  34180  289.91 0855.24
2009/04/23 09:34:24.9     222    360    156    424    451  31.7  21.0  34200  290.24 0855.24
2009/04/23 09:34:25.0     114    285    152    308    343  21.8  28.1  34182  289.94 0855.24
2009/04/23 09:34:25.1    -109    251     99    274    291 336.4  20.4  34142  289.27 0855.24
2009/04/23 09:34:25.2      44    260     38    264    267   9.8   8.2  34160  289.58 0855.24
2009/04/23 09:34:25.3     -10    237      0    238    239 357.5   0.2  34138  289.19 0855.24
2009/04/23 09:34:25.4     175    171     -1    245    246  45.6  -0.3  34172  289.78 0855.24
2009/04/23 09:34:25.5     176    168     34    244    247  46.2   8.0  34164  289.63 0855.24
2009/04/23 09:34:25.6     136    121    -49    183    190  48.4 -15.0  34170  289.75 0855.24
2009/04/23 09:34:25.7     146    119     22    189    191  50.9   6.7  34174  289.82 0855.24
2009/04/23 09:34:25.8     238     83     69    253    263  70.7  15.3  34178  289.86 0855.24
2009/04/23 09:34:25.9     270     41    126    274    301  81.2  26.4  34168  289.71 0855.25
2009/04/23 09:34:26.0     148      6    152    149    212  87.4  50.2  34172  289.79 0855.25
2009/04/23 09:34:26.1     132     -2    134    133    188  91.3  49.9  34172  289.79 0855.25
2009/04/23 09:34:26.2     214    -31    112    217    244  98.4  29.3  34172  289.78 0855.25
2009/04/23 09:34:26.3     165    -34    105    169    198 101.9  35.0  34170  289.75 0855.25
2009/04/23 09:34:26.4     138    -32     93    142    169 103.2  36.3  34176  289.84 0855.25
2009/04/23 09:34:26.5     106      0    103    107    148  90.0  49.0  34178  289.89 0855.25
2009/04/23 09:34:26.6     101     10    108    102    148  83.9  52.1  34182  289.94 0855.25
2009/04/23 09:34:26.7      52     13     99     54    112  75.8  68.9  34174  289.80 0855.25
2009/04/23 09:34:26.8     -13     -8     54     16     56 237.5  81.8  34172  289.77 0855.25
2009/04/23 09:34:26.9      -2    -28     64     29     70 184.5  73.1  34168  289.72 0855.25
2009/04/23 09:34:27.0      57     22     80     62    101  68.3  57.9  34160  289.57 0855.25
2009/04/23 09:34:27.1      54     70     89     89    125  37.4  50.1  34172  289.79 0855.25
2009/04/23 09:34:27.2      94     78     71    123    142  50.5  32.4  34176  289.84 0855.25
2009/04/23 09:34:27.3      54     72    100     91    135  37.0  52.7  34174  289.80 0855.25
2009/04/23 09:34:27.4      82    139    119    162    201  30.8  39.9  34180  289.91 0855.25
2009/04/23 09:34:27.5      16     38    123     42    129  23.6  81.2  34174  289.82 0855.25
2009/04/23 09:34:27.6     227     -3    109    228    252  90.9  27.3  34160  289.56 0855.25
2009/04/23 09:34:27.7     155    -76    173    173    244 116.2  50.1  34162  289.62 0855.25
2009/04/23 09:34:27.8      22   -105    118    108    159 168.0  52.7  34166  289.67 0855.25
2009/04/23 09:34:27.9     -69    -28    173     75    188 247.4  75.3  34168  289.70 0855.26
2009/04/23 09:34:28.0      67   -152     74    167    182 156.2  25.3  34162  289.62 0855.26
2009/04/23 09:34:28.1     102   -123     49    160    168 140.3  17.3  34162  289.62 0855.26
2009/04/23 09:34:28.2      78    -39    107     88    138 116.6  56.4  34164  289.63 0855.26
2009/04/23 09:34:28.3     107      0    117    108    159  89.6  52.5  34158  289.53 0855.26
2009/04/23 09:34:28.4      37      5     98     38    105  82.1  77.6  34164  289.65 0855.26
2009/04/23 09:34:28.5      44     40    112     60    127  47.8  69.3  34164  289.65 0855.26
2009/04/23 09:34:28.6     -17    -25    111     31    115 214.3  84.4  34166  289.69 0855.26
2009/04/23 09:34:28.7     -45    -55    149     72    165 219.6  72.4  34166  289.67 0855.26
2009/04/23 09:34:28.8     -71    -47    145     86    168 236.7  66.8  34166  289.69 0855.26
2009/04/23 09:34:28.9    -196    -91    144    217    260 245.2  36.5  34168  289.71 0855.26
2009/04/23 09:34:29.0    -171   -122    156    211    262 234.5  39.9  34168  289.70 0855.26
2009/04/23 09:34:29.1    -192   -198    116    276    299 224.1  24.1  34172  289.76 0855.26
2009/04/23 09:34:29.2    -200   -188     82    275    287 226.8  16.6  34172  289.78 0855.26
2009/04/23 09:34:29.3    -166   -156     67    229    239 226.8  16.4  34180  289.92 0855.26
2009/04/23 09:34:29.4    -180   -146     13    232    233 230.9   3.3  34178  289.88 0855.26
2009/04/23 09:34:29.5    -141    -67    -31    157    161 244.7 -11.1  34166  289.69 0855.26
2009/04/23 09:34:29.6     -44    -28    -29     53     60 237.6 -35.8  34168  289.72 0855.26
2009/04/23 09:34:29.7     118   -128     31    175    178 137.5  10.3  34150  289.40 0855.26
2009/04/23 09:34:29.8     115   -143    169    184    249 141.0  47.1  34142  289.28 0855.26
2009/04/23 09:34:29.9      82   -199    144    216    259 157.5  36.7  34144  289.29 0855.25
2009/04/23 09:34:30.0      88   -201    164    220    274 156.4  40.6  34140  289.24 0855.25
2009/04/23 09:34:30.1      71   -208    161    220    272 161.1  39.7  34144  289.29 0855.25
2009/04/23 09:34:30.2      90   -303     64    317    324 163.5  11.6  34158  289.53 0855.25
2009/04/23 09:34:30.3      85   -186     73    205    217 155.5  20.4  34158  289.53 0855.25
2009/04/23 09:34:30.4      48   -236     37    242    245 168.4   8.8  34154  289.46 0855.25
2009/04/23 09:34:30.5      76   -247    114    259    282 162.8  25.1  34146  289.34 0855.25
2009/04/23 09:34:30.6      62   -149     90    162    185 157.3  31.4  34144  289.31 0855.25
2009/04/23 09:34:30.7      52   -111    143    123    188 154.6  55.4  34148  289.38 0855.25
2009/04/23 09:34:30.8     128    -93    126    159    202 125.9  42.2  34144  289.31 0855.25
2009/04/23 09:34:30.9     161   -114    118    198    230 125.3  33.5  34144  289.30 0855.25
2009/04/23 09:34:31.0      71   -195     89    208    226 159.9  24.6  34146  289.33 0855.25
2009/04/23 09:34:31.1       0   -191     67    192    204 180.2  19.4  34142  289.28 0855.25
2009/04/23 09:34:31.2     -29   -226     90    228    245 187.3  23.0  34144  289.29 0855.25
2009/04/23 09:34:31.3     -57   -237     86    244    259 193.6  19.4  34144  289.29 0855.25
2009/04/23 09:34:31.4     -27   -183    141    186    233 188.5  40.9  34136  289.16 0855.25
2009/04/23 09:34:31.5     -16   -197     82    198    214 184.9  23.6  34136  289.16 0855.25
2009/04/23 09:34:31.6     -38   -126    -74    132    151 197.0 -35.8  34132  289.11 0855.25
2009/04/23 09:34:31.7      33    -83   -115     90    146 158.2 -62.8  34134  289.13 0855.25
2009/04/23 09:34:31.8      59   -208    -71    217    228 164.0 -23.8  34126  288.99 0855.25
2009/04/23 09:34:31.9      -2   -300     64    301    308 180.5  12.2  34128  289.02 0855.25
2009/04/23 09:34:32.0    -116   -280    144    304    336 202.5  27.2  34132  289.09 0855.25
2009/04/23 09:34:32.1     -12   -205    141    206    249 183.4  37.6  34132  289.09 0855.25
2009/04/23 09:34:32.2      15   -149    189    150    241 174.2  57.5  34132  289.11 0855.25
2009/04/23 09:34:32.3    -112   -260    192    284    342 203.4  37.4  34130  289.07 0855.25
2009/04/23 09:34:32.4     -26   -160    173    163    237 189.3  52.0  34134  289.14 0855.25
2009/04/23 09:34:32.5     -43   -214    129    219    254 191.5  33.4  34128  289.03 0855.25
2009/04/23 09:34:32.6       1   -177     96    178    202 179.5  31.0  34126  289.01 0855.25
2009/04/23 09:34:32.7      15   -155     89    156    179 174.2  32.1  34134  289.13 0855.25
2009/04/23 09:34:32.8       3   -188     44    189    195 179.0  13.1  34130  289.06 0855.25
2009/04/23 09:34:32.9      19   -171     87    173    193 173.5  28.7  34116  288.84 0855.25
2009/04/23 09:34:33.0     -51   -213    153    220    267 193.6  38.4  34124  288.97 0855.25
2009/04/23 09:34:33.1     -85   -193    113    211    239 203.8  30.3  34126  288.99 0855.25
2009/04/23 09:34:33.2      44    -80    145     92    171 151.0  64.7  34132  289.09 0855.25
2009/04/23 09:34:33.3      50    -79    102     94    138 147.9  52.2  34126  289.01 0855.25
2009/04/23 09:34:33.4     -10    -93    141     94    169 186.7  63.4  34124  288.97 0855.25
2009/04/23 09:34:33.5     155   -125    130    200    238 128.9  36.3  34124  288.97 0855.25
2009/04/23 09:34:33.6      94   -104    101    141    173 137.7  39.1  34128  289.02 0855.25
2009/04/23 09:34:33.7      66    -96    105    117    157 145.3  46.6  34128  289.02 0855.25
2009/04/23 09:34:33.8      76    -51    104     92    138 124.2  53.7  34128  289.04 0855.25
2009/04/23 09:34:33.9      59    -94     80    111    136 147.9  39.5  34128  289.02 0855.25
2009/04/23 09:34:34.0     107   -156    -31    190    193 145.5  -9.4  34122  288.94 0855.25
2009/04/23 09:34:34.1      71   -157    -34    173    177 155.5 -11.1  34122  288.94 0855.25
2009/04/23 09:34:34.2      39   -159    -71    164    178 166.2 -29.0  34124  288.96 0855.25
2009/04/23 09:34:34.3      67   -112    -51    131    140 149.2 -27.4  34122  288.94 0855.25
2009/04/23 09:34:34.4      91    -94    -41    131    137 135.9 -22.3  34126  288.99 0855.25
2009/04/23 09:34:34.5      68    -77    -58    103    118 138.6 -35.8  34126  289.01 0855.25
2009/04/23 09:34:34.6      44    -82    -72     94    118 151.9 -46.0  34128  289.02 0855.25
2009/04/23 09:34:34.7      49    -50    -59     71     92 135.8 -48.2  34130  289.08 0855.25
2009/04/23 09:34:34.8      32    -10    -59     34     68 108.4 -72.1  34132  289.09 0855.25
2009/04/23 09:34:34.9      17     18    -50     25     55  43.4 -76.3  34138  289.21 0855.25
2009/04/23 09:34:35.0      27     17    -53     33     62  57.6 -69.1  34142  289.28 0855.25
2009/04/23 09:34:35.1      58     45    -51     74     89  52.2 -42.0  34132  289.11 0855.25
2009/04/23 09:34:35.2      37     79    -35     88     94  25.4 -26.4  34128  289.04 0855.25
2009/04/23 09:34:35.3       2     93     33     94    100   1.4  19.4  34124  288.97 0855.25
2009/04/23 09:34:35.4      -5    118     37    119    125 357.3  17.3  34130  289.08 0855.25
2009/04/23 09:34:35.5      21    112     13    114    115  10.7   6.9  34138  289.21 0855.25
2009/04/23 09:34:35.6     -33    118     12    123    124 344.4   5.9  34128  289.04 0855.25
2009/04/23 09:34:35.7     -51    137     34    147    151 339.5  13.2  34124  288.97 0855.25
2009/04/23 09:34:35.8     -79    160      0    179    180 333.7   0.0  34126  289.01 0855.25
2009/04/23 09:34:35.9     -31    149     72    153    169 348.0  27.1  34122  288.94 0855.25
2009/04/23 09:34:36.0     -26    147     74    150    167 349.8  28.0  34122  288.92 0855.25
2009/04/23 09:34:36.1     -18    163     62    165    176 353.7  21.5  34132  289.11 0855.25
2009/04/23 09:34:36.2      -2    162     84    163    183 359.0  29.5  34142  289.26 0855.25
2009/04/23 09:34:36.3      19    179     74    181    195   6.2  23.4  34194  290.16 0855.25
2009/04/23 09:34:36.4      17    147     54    149    158   6.7  20.7  34166  289.69 0855.25
2009/04/23 09:34:36.5     101     95    100    139    171  46.9  39.3  34182  289.96 0855.25
2009/04/23 09:34:36.6     169     60     82    180    197  70.3  26.2  34190  290.08 0855.25
2009/04/23 09:34:36.7     218     39     69    222    233  79.6  17.3  34242  290.98 0855.25
2009/04/23 09:34:36.8     131     92     59    161    171  54.9  21.0  34234  290.82 0855.25
2009/04/23 09:34:36.9     126     42     63    133    147  71.4  27.2  34232  290.81 0855.25
2009/04/23 09:34:37.0     129    106    116    168    204  50.7  37.8  34246  291.03 0855.25
2009/04/23 09:34:37.1     149     73     58    167    177  63.8  19.2  34254  291.18 0855.25
2009/04/23 09:34:37.2     212     71     17    224    225  71.4   4.6  34256  291.21 0855.25
2009/04/23 09:34:37.3     150     75     64    168    179  63.4  21.7  34258  291.25 0855.25
2009/04/23 09:34:37.4     184    123     27    222    224  56.3   7.1  34240  290.94 0855.25
2009/04/23 09:34:37.5     172    116    102    208    231  55.9  27.8  34238  290.89 0855.25
2009/04/23 09:34:37.6     155    109    109    190    219  54.7  32.4  34228  290.72 0855.25
2009/04/23 09:34:37.7     171     70     18    185    186  67.6   5.7  34212  290.47 0855.25
2009/04/23 09:34:37.8     137    106    -52    174    182  52.2 -16.6  34208  290.40 0855.25
2009/04/23 09:34:37.9     170    102     68    199    211  58.9  18.9  34190  290.08 0855.26
2009/04/23 09:34:38.0     317    175     26    363    364  61.1   4.2  34230  290.76 0855.26
2009/04/23 09:34:38.1     304    101     50    321    325  71.6   8.9  34228  290.73 0855.26
2009/04/23 09:34:38.2     375    199     75    425    432  62.0  10.0  34160  289.58 0855.26
2009/04/23 09:34:38.3     327    254     81    415    423  52.1  11.1  34162  289.60 0855.26
2009/04/23 09:34:38.4     404    157     32    434    436  68.7   4.3  34180  289.90 0855.26
2009/04/23 09:34:38.5     376    103     65    391    397  74.6   9.4  34162  289.59 0855.26
2009/04/23 09:34:38.6     347     11    117    348    368  88.1  18.6  34162  289.60 0855.26
2009/04/23 09:34:38.7     306     32     99    308    324  83.9  17.8  34174  289.81 0855.26
2009/04/23 09:34:38.8     239     40    135    243    277  80.3  31.4  34188  290.03 0855.26
2009/04/23 09:34:38.9     352    174    139    393    417  63.6  19.5  34176  289.85 0855.26
2009/04/23 09:34:39.0     303    178    193    352    401  59.5  31.0  34198  290.21 0855.26
2009/04/23 09:34:39.1     359    148    181    389    429  67.5  26.9  34164  289.65 0855.26
2009/04/23 09:34:39.2     304     54    146    309    341  79.9  27.1  34162  289.59 0855.26
2009/04/23 09:34:39.3     301    156    212    340    400  62.6  35.0  34200  290.25 0855.26
2009/04/23 09:34:39.5     203    193    109    281    301  46.4  22.3  34208  290.37 0855.26
2009/04/23 09:34:39.5     258    184    149    318    351  54.5  27.0  34228  290.74 0855.26
2009/04/23 09:34:39.7     282    188    160    339    374  56.3  27.1  34188  290.03 0855.26
2009/04/23 09:34:39.8     274    139     -1    308    309  63.0  -0.3  34146  289.32 0855.26
2009/04/23 09:34:39.9     121    185    -45    222    227  33.2 -11.6  34140  289.24 0855.26
2009/04/23 09:34:40.0     207    174     75    271    282  50.0  15.6  34168  289.71 0855.25
2009/04/23 09:34:40.1     192     86     84    211    227  65.8  23.0  34176  289.84 0855.25
2009/04/23 09:34:40.2     239    103     75    261    272  66.7  16.0  34166  289.66 0855.25
2009/04/23 09:34:40.3     477     66    230    482    534  82.1  27.3  34156  289.49 0855.25
2009/04/23 09:34:40.4     345      4    189    346    394  89.3  31.0  34146  289.33 0855.25
2009/04/23 09:34:40.5     345     63    123    351    371  79.5  20.0  34182  289.96 0855.25
2009/04/23 09:34:40.6     279     93     58    295    301  71.6  11.1  34192  290.12 0855.25
2009/04/23 09:34:40.7     355    212    132    414    435  59.2  17.7  34150  289.41 0855.25
2009/04/23 09:34:40.8      54     17    156     57    166  71.8  79.7  34134  289.14 0855.25
2009/04/23 09:34:40.9     136     14    209    137    249  83.8  63.6  34140  289.24 0855.25
2009/04/23 09:34:41.0     249    158    232    296    376  57.6  42.0  34142  289.28 0855.23
2009/04/23 09:34:41.1     354     26    209    355    411  85.7  33.1  34136  289.15 0855.23
2009/04/23 09:34:41.2     342    175    184    385    426  62.8  27.3  34158  289.53 0855.23
2009/04/23 09:34:41.3     381    267    207    466    509  54.9  25.6  34152  289.45 0855.23
2009/04/23 09:34:41.4     185    148    215    238    320  51.4  46.8  34164  289.63 0855.23
2009/04/23 09:34:41.5     118    -42    245    126    275 110.0  70.8  34170  289.75 0855.23
2009/04/23 09:34:41.6     176      0    282    177    332  90.1  64.9  34146  289.32 0855.23
2009/04/23 09:34:41.7     138     42    250    145    289  73.1  67.2  34166  289.68 0855.23
2009/04/23 09:34:41.8       4      5    216      7    216  43.4  90.0  34172  289.79 0855.23
2009/04/23 09:34:41.9      95     -4    259     96    276  92.6  79.1  34168  289.70 0855.23
2009/04/23 09:34:42.0     101     73    256    125    284  54.1  72.4  34162  289.59 0855.23
2009/04/23 09:34:42.1     395    -30    169    397    431  94.4  24.5  34152  289.44 0855.23
2009/04/23 09:34:42.2     340    125    195    363    412  69.7  30.6  34158  289.55 0855.23
2009/04/23 09:34:42.3     295    183    151    348    379  58.2  25.0  34148  289.37 0855.23
2009/04/23 09:34:42.4     321    204     96    381    393  57.5  14.2  34158  289.54 0855.23
2009/04/23 09:34:42.5     296    135     61    326    332  65.4  10.7  34164  289.65 0855.23
2009/04/23 09:34:42.6     236    125     86    268    282  62.1  17.9  34162  289.61 0855.23
2009/04/23 09:34:42.7     194     55    187    202    275  74.1  47.7  34180  289.90 0855.23
2009/04/23 09:34:42.8     215     36    174    219    279  80.4  42.7  34152  289.42 0855.23
2009/04/23 09:34:42.9     193    100    108    218    243  62.5  28.2  34146  289.34 0855.23
2009/04/23 09:34:43.0     196    137     87    240    255  54.9  20.9  34138  289.19 0855.25
2009/04/23 09:34:43.1     238     96     45    257    262  68.0  10.1  34156  289.51 0855.25
2009/04/23 09:34:43.2     312    150      2    347    348  64.3   0.5  34162  289.59 0855.25
2009/04/23 09:34:43.3     210    202    -48    292    296  46.0  -9.3  34164  289.64 0855.25
2009/04/23 09:34:43.4     163    154    -71    225    236  46.8 -17.5  34162  289.60 0855.25
2009/04/23 09:34:43.5     325    142     -7    355    356  66.3  -1.2  34172  289.76 0855.25
2009/04/23 09:34:43.6     351     49     23    355    356  82.0   3.8  34200  290.25 0855.25
2009/04/23 09:34:43.7     249    209     12    326    327  49.9   2.2  34198  290.20 0855.25
2009/04/23 09:34:43.8     -28    163     81    166    184 350.0  27.8  34198  290.21 0855.25
2009/04/23 09:34:43.9    -139    110    -35    178    182 308.4 -11.3  34194  290.16 0855.25
2009/04/23 09:34:44.0     -58    136   -112    149    186 336.8 -45.3  34178  289.89 0855.25
2009/04/23 09:34:44.1     -49     85   -136     99    168 330.1 -64.9  34178  289.87 0855.25
2009/04/23 09:34:44.2    -157     47   -186    165    248 286.8 -58.4  34174  289.82 0855.25
2009/04/23 09:34:44.3    -110    131    -90    172    194 320.1 -34.5  34176  289.85 0855.25
2009/04/23 09:34:44.4     -42    155   -132    161    208 344.9 -48.1  34160  289.57 0855.25
2009/04/23 09:34:44.5      48     98    -75    110    133  26.3 -41.8  34150  289.40 0855.25
2009/04/23 09:34:44.6      37     90     80     98    126  22.7  43.7  34140  289.23 0855.25
2009/04/23 09:34:44.7      36    102     10    109    110  19.6   5.4  34146  289.33 0855.25
2009/04/23 09:34:44.8    -175     55     10    184    185 287.7   3.3  34162  289.62 0855.25
2009/04/23 09:34:44.9    -309     78     12    319    320 284.2   2.2  34208  290.37 0855.25
2009/04/23 09:34:45.0    -272    163     48    318    322 300.9   8.7  34218  290.54 0855.25
2009/04/23 09:34:45.1    -298    136     20    328    329 294.6   3.6  34164  289.65 0855.25
2009/04/23 09:34:45.2    -312    212    -76    378    386 304.3 -11.5  34198  290.23 0855.25
2009/04/23 09:34:45.3    -265    235   -115    355    374 311.6 -17.9  34174  289.82 0855.25
2009/04/23 09:34:45.4    -249    229    -53    339    344 312.6  -8.9  34170  289.74 0855.25
2009/04/23 09:34:45.5    -212    139     90    254    269 303.3  20.0  34162  289.59 0855.25
2009/04/23 09:34:45.6     -67      7    181     68    193 276.1  78.9  34168  289.72 0855.25
2009/04/23 09:34:45.7    -166     31    194    170    257 280.8  54.3  34182  289.94 0855.25
2009/04/23 09:34:45.8    -341   -180      8    386    387 242.1   1.2  34148  289.38 0855.25
2009/04/23 09:34:45.9    -344   -305   -165    461    489 228.4 -25.0  34104  288.61 0855.25
2009/04/23 09:34:46.0    -403   -101   -133    416    436 255.8 -22.8  34130  289.07 0855.25
2009/04/23 09:34:46.1    -398    126     32    418    420 287.6   4.4  34160  289.58 0855.25
2009/04/23 09:34:46.2    -352   -143    164    381    414 247.8  24.8  34144  289.31 0855.25
2009/04/23 09:34:46.3    -308   -361    168    475    504 220.5  19.5  34146  289.32 0855.25
2009/04/23 09:34:46.4    -279   -444    163    525    550 212.1  17.3  34142  289.26 0855.25
2009/04/23 09:34:46.5    -271   -375    118    463    478 215.9  14.3  34146  289.34 0855.25
2009/04/23 09:34:46.6    -312   -318    159    446    473 224.4  20.4  34146  289.34 0855.25
2009/04/23 09:34:46.7    -240   -355    249    429    496 214.1  32.8  34136  289.15 0855.25
2009/04/23 09:34:46.8    -338   -277    195    438    479 230.7  25.7  34180  289.91 0855.25
2009/04/23 09:34:46.9    -308   -235    126    388    409 232.7  18.0  34182  289.96 0855.25
2009/04/23 09:34:47.0    -326   -160     60    364    370 243.8   9.4  34188  290.03 0855.26
2009/04/23 09:34:47.1    -318   -251    149    406    432 231.8  21.0  34172  289.77 0855.26
2009/04/23 09:34:47.2    -304   -182    177    355    396 239.0  28.5  34176  289.84 0855.26
2009/04/23 09:34:47.3    -104   -187    236    215    319 209.0  53.2  34144  289.31 0855.26
2009/04/23 09:34:47.4    -223   -124    133    256    288 240.9  29.3  34154  289.46 0855.26
2009/04/23 09:34:47.5     -50   -151    227    160    277 198.3  61.5  34128  289.03 0855.26
2009/04/23 09:34:47.6       0   -167    170    168    239 180.2  50.1  34116  288.84 0855.26
2009/04/23 09:34:47.7     -38     39    145     55    155 315.8  79.1  34120  288.89 0855.26
2009/04/23 09:34:47.8     -24     38    159     46    165 327.5  83.3  34124  288.97 0855.26
2009/04/23 09:34:47.9     -42     45    108     62    124 316.7  67.2  34124  288.96 0855.26
2009/04/23 09:34:48.0       0     50     87     51    100 359.1  67.2  34124  288.97 0855.26
2009/04/23 09:34:48.1      29     14    105     33    110  64.7  81.2  34122  288.94 0855.26
2009/04/23 09:34:48.2     -15     -4    123     16    124 254.9  90.0  34132  289.11 0855.26
2009/04/23 09:34:48.3     102     32    103    108    149  72.3  48.5  34132  289.09 0855.26
2009/04/23 09:34:48.4      98     77     47    126    134  51.8  20.9  34134  289.14 0855.26
2009/04/23 09:34:48.5      22    160     33    162    166   8.0  11.6  34136  289.18 0855.26
2009/04/23 09:34:48.6     -72     96    106    121    160 323.0  45.8  34140  289.23 0855.26
2009/04/23 09:34:48.7     -14     27     97     31    101 332.8  81.2  34144  289.31 0855.26
2009/04/23 09:34:48.8     120    154    124    196    231  38.1  35.5  34152  289.45 0855.26
2009/04/23 09:34:48.9      91    202     86    222    238  24.3  22.1  34164  289.63 0855.26
2009/04/23 09:34:49.0      57    191    102    200    224  16.7  29.2  34150  289.40 0855.27
2009/04/23 09:34:49.1     146     92    180    173    249  57.8  51.2  34144  289.30 0855.27
2009/04/23 09:34:49.2     241    160    212    290    359  56.3  39.7  34168  289.72 0855.27
2009/04/23 09:34:49.3     162    103    232    193    301  57.4  56.3  34162  289.61 0855.27
2009/04/23 09:34:49.4     250    120    189    278    336  64.2  37.6  34170  289.73 0855.27
2009/04/23 09:34:49.5     202    141    127    247    277  55.1  29.3  34192  290.10 0855.27
2009/04/23 09:34:49.6     169    233    123    288    313  36.0  24.5  34192  290.10 0855.27
2009/04/23 09:34:49.7     153    287     89    326    339  28.0  15.3  34192  290.10 0855.27
2009/04/23 09:34:49.8      -6    247    122    248    276 358.4  28.2  34176  289.83 0855.27
2009/04/23 09:34:49.9    -158    315     97    353    367 333.4  15.4  34152  289.45 0855.27
2009/04/23 09:34:50.0    -168    286     63    332    339 329.6  10.8  34146  289.35 0855.27
2009/04/23 09:34:50.1     -18    219     18    220    221 355.1   4.9  34162  289.60 0855.27
2009/04/23 09:34:50.2     -51    159     12    167    168 342.2   4.2  34170  289.75 0855.27
2009/04/23 09:34:50.3      33    100     -5    106    107  18.7  -3.1  34174  289.80 0855.27
2009/04/23 09:34:50.4      36      9     -1     38     39  74.9  -2.2  34164  289.65 0855.27
2009/04/23 09:34:50.5      60     50     69     79    104  50.5  45.8  34172  289.77 0855.27
2009/04/23 09:34:50.6     -80     91     79    122    145 318.6  35.6  34174  289.80 0855.27
2009/04/23 09:34:50.7    -158    179     86    240    254 318.6  20.7  34122  288.92 0855.27
2009/04/23 09:34:50.8     -44    260    189    264    324 350.2  39.2  34228  290.71 0855.27
2009/04/23 09:34:50.9     115     83    170    143    222  54.0  55.8  34232  290.81 0855.27
2009/04/23 09:34:51.0      -1    316    260    317    409 359.8  43.7  34248  291.05 0855.26
2009/04/23 09:34:51.1     134    107    190    172    256  51.4  53.2  34234  290.84 0855.26
2009/04/23 09:34:51.2     122    121    184    173    252  45.2  52.0  34236  290.86 0855.26
2009/04/23 09:34:51.3      83    481    207    489    531   9.8  24.3  34136  289.18 0855.26
2009/04/23 09:34:51.4     155    482    191    507    541  17.8  21.6  34116  288.84 0855.26
2009/04/23 09:34:51.5     192    632    230    661    700  17.0  19.2  34140  289.22 0855.26
2009/04/23 09:34:51.6     159    592    109    613    623  15.1  10.1  34242  290.96 0855.26
2009/04/23 09:34:51.7      95    524    125    533    548  10.3  13.3  34196  290.19 0855.26
2009/04/23 09:34:51.8      75    529    105    535    546   8.1  11.1  34188  290.04 0855.26
2009/04/23 09:34:51.9      49    592    -32    595    596   4.8  -3.1  34204  290.31 0855.26
2009/04/23 09:34:52.0     104    503   -174    514    543  11.8 -18.7  34204  290.31 0855.26
2009/04/23 09:34:52.1     191    405   -141    449    470  25.3 -22.4  34204  290.31 0855.26
2009/04/23 09:34:52.2     127    552    194    567    600  13.0  18.9  34212  290.46 0855.26
2009/04/23 09:34:52.3     223    471     86    522    530  25.3   9.4  34198  290.21 0855.26
2009/04/23 09:34:52.4     271    374    129    463    481  36.0  15.6  34190  290.08 0855.26
2009/04/23 09:34:52.5     315    376     90    491    500  39.9  10.4  34190  290.08 0855.26
2009/04/23 09:34:52.6     210    297     71    364    372  35.3  11.1  34178  289.87 0855.26
2009/04/23 09:34:52.7     151    453     94    478    488  18.5  11.1  34156  289.50 0855.26
2009/04/23 09:34:52.8     238    436    225    497    545  28.6  26.2  34190  290.07 0855.26
2009/04/23 09:34:52.9     236    573     43    620    622  22.4   4.0  34142  289.25 0855.26
2009/04/23 09:34:53.0     247    472     64    533    537  27.7   6.9  34214  290.48 0855.26
2009/04/23 09:34:53.1     218    426     67    479    484  27.2   8.0  34206  290.35 0855.26
2009/04/23 09:34:53.2     358    329     10    487    488  47.4   1.2  34166  289.66 0855.26
2009/04/23 09:34:53.3     274    213    -93    348    361  52.1 -15.1  34130  289.06 0855.26
2009/04/23 09:34:53.4     -63    264    -78    272    284 346.4 -16.0  34126  289.00 0855.26
2009/04/23 09:34:53.5      92    177    -95    200    221  27.4 -31.6  34120  288.89 0855.26
2009/04/23 09:34:53.6     300    144    123    334    355  64.3  21.0  34154  289.48 0855.26
2009/04/23 09:34:53.7     372     31     87    374    385  85.2  13.1  34146  289.33 0855.26
2009/04/23 09:34:53.8     535     -9      8    536    537  91.0   0.9  34144  289.29 0855.26
2009/04/23 09:34:53.9     431    108   -106    445    458  75.8 -13.4  34120  288.89 0855.26
2009/04/23 09:34:54.0     465     50     -9    468    469  83.8  -1.2  34160  289.56 0855.26
2009/04/23 09:34:54.1     467    -66    182    472    505  98.1  22.3  34150  289.40 0855.26
2009/04/23 09:34:54.2     425   -179    264    462    532 112.8  32.3  34160  289.57 0855.26
2009/04/23 09:34:54.3     513   -126    219    529    572 103.8  23.8  34134  289.14 0855.26
2009/04/23 09:34:54.4     484   -219    347    532    635 114.3  36.2  34126  289.00 0855.26
2009/04/23 09:34:54.5     478   -207    195    521    556 113.4  21.5  34124  288.97 0855.26
2009/04/23 09:34:54.6     408   -232    -10    470    471 119.7  -1.3  34134  289.12 0855.26
2009/04/23 09:34:54.7     338    -99      2    353    354 106.4   0.4  34128  289.04 0855.26
2009/04/23 09:34:54.8     336     47     14    340    341  82.0   2.5  34128  289.04 0855.26
2009/04/23 09:34:54.9     332     82     32    343    345  76.1   5.4  34126  288.98 0855.26
2009/04/23 09:34:55.0     250     76     66    262    271  73.1  14.3  34124  288.95 0855.25
2009/04/23 09:34:55.1     188     51    100    195    219  74.7  29.3  34140  289.23 0855.25
2009/04/23 09:34:55.2     174     92     56    198    206  62.0  15.8  34142  289.26 0855.25
2009/04/23 09:34:55.3     166     66     48    179    186  68.2  15.2  34146  289.33 0855.25
2009/04/23 09:34:55.4     165     40     10    170    171  76.1   3.6  34146  289.33 0855.25
2009/04/23 09:34:55.5     210     85     11    227    228  67.8   2.9  34132  289.09 0855.25
2009/04/23 09:34:55.6     302    134     47    331    335  66.0   8.1  34112  288.77 0855.25
2009/04/23 09:34:55.7     352     74     68    360    367  78.1  10.8  34116  288.82 0855.25
2009/04/23 09:34:55.8     386     73    217    393    448  79.2  31.4  34112  288.75 0855.25
2009/04/23 09:34:55.9     422    -66      5    428    429  98.9   0.7  34126  289.00 0855.25
2009/04/23 09:34:56.0     137   -227     52    266    272 148.8  11.1  34112  288.76 0855.25
2009/04/23 09:34:56.1      89   -295     43    309    313 163.1   8.0  34120  288.90 0855.25
2009/04/23 09:34:56.2      78   -194     76    210    223 157.9  20.7  34118  288.87 0855.25
2009/04/23 09:34:56.3     205   -239    188    315    366 139.4  33.6  34148  289.38 0855.25
2009/04/23 09:34:56.4      59    -12    195     61    204 101.4  82.0  34146  289.33 0855.25
2009/04/23 09:34:56.5      99   -197    148    221    265 153.3  36.7  34142  289.25 0855.25
2009/04/23 09:34:56.6     213   -268    -47    343    347 141.6  -7.9  34132  289.10 0855.25
2009/04/23 09:34:56.7     252   -210     72    329    337 129.8  12.4  34134  289.13 0855.25
2009/04/23 09:34:56.8     210   -192    139    285    317 132.4  28.0  34132  289.10 0855.25
2009/04/23 09:34:56.9     121   -227     -2    258    259 151.9  -0.5  34134  289.14 0855.25
2009/04/23 09:34:57.0     132   -137     27    191    194 136.1   8.2  34136  289.18 0855.28
2009/04/23 09:34:57.1     155   -154     12    219    220 134.9   3.1  34136  289.16 0855.28
2009/04/23 09:34:57.2     146   -144     -8    206    207 134.7  -2.2  34134  289.14 0855.28
2009/04/23 09:34:57.3     197   -143     94    244    261 126.0  22.1  34136  289.17 0855.28
2009/04/23 09:34:57.4     210    -42    101    215    237 101.4  27.1  34120  288.91 0855.28
2009/04/23 09:34:57.5     122    -45     75    131    150 110.4  32.4  34130  289.08 0855.28
2009/04/23 09:34:57.6     155    -17    109    157    191  96.6  38.4  34130  289.06 0855.28
2009/04/23 09:34:57.7     124     77    115    147    186  58.0  42.4  34126  288.99 0855.28
2009/04/23 09:34:57.8     -14    216     78    217    230 356.2  20.2  34130  289.08 0855.28
2009/04/23 09:34:57.9      16    215     74    216    229   4.4  18.9  34136  289.18 0855.28
2009/04/23 09:34:58.0      74    163     77    180    195  24.5  24.6  34134  289.13 0855.28
2009/04/23 09:34:58.1       2    133    115    134    176   0.9  45.1  34130  289.08 0855.28
2009/04/23 09:34:58.2     122    115    124    168    208  46.7  40.1  34128  289.04 0855.28
2009/04/23 09:34:58.3      76    172    143    189    237  23.8  40.9  34126  289.01 0855.28
2009/04/23 09:34:58.4     -47    264    116    269    292 349.8  24.6  34152  289.42 0855.28
2009/04/23 09:34:58.5     -95    273     77    290    301 340.8  15.0  34158  289.54 0855.28
2009/04/23 09:34:58.6     -52    262    122    268    294 348.7  26.2  34174  289.80 0855.28
2009/04/23 09:34:58.7    -271    327    155    425    452 320.3  21.0  34170  289.75 0855.28
2009/04/23 09:34:58.8     -39    214    124    218    250 349.5  32.4  34158  289.54 0855.28
2009/04/23 09:34:58.9     -65     41    181     77    196 302.4  75.5  34156  289.50 0855.28
2009/04/23 09:34:59.0    -123    -31     95    127    158 255.8  40.7  34174  289.80 0855.29
2009/04/23 09:34:59.1     -18     -3     86     19     88 258.5  88.0  34170  289.75 0855.29
2009/04/23 09:34:59.2     -65     65    113     92    145 315.0  56.4  34148  289.38 0855.29
2009/04/23 09:34:59.3     -48    180    141    187    234 344.9  40.7  34134  289.13 0855.29
2009/04/23 09:34:59.4     -29    224    150    226    271 352.4  36.5  34136  289.17 0855.29
2009/04/23 09:34:59.5     -86    213    189    230    297 337.9  43.7  34136  289.17 0855.29
2009/04/23 09:34:59.6    -153    239    141    285    317 327.3  28.4  34252  291.14 0855.29
2009/04/23 09:34:59.7    -118    320    121    342    363 339.8  19.5  34236  290.86 0855.29
2009/04/23 09:34:59.8     -83    347    107    357    373 346.5  16.7  34222  290.64 0855.29
2009/04/23 09:34:59.9      19    397    -15    398    399   2.8  -2.3  34156  289.52 0855.29
2009/04/23 09:35:00.0     116    419    -67    435    441  15.5  -8.8  34158  289.55 0855.29
2009/04/23 09:35:00.1     123    422    -69    440    446  16.3  -9.0  34150  289.41 0855.29
2009/04/23 09:35:00.2     212    383    140    439    461  29.0  17.7  34166  289.66 0855.29
2009/04/23 09:35:00.3     192    215    -16    289    290  41.7  -3.2  34158  289.53 0855.29
2009/04/23 09:35:00.4     228     67    128    238    270  73.6  30.6  34160  289.56 0855.29
2009/04/23 09:35:00.5      31    -33    180     46    185 136.8  85.6  34168  289.70 0855.29
2009/04/23 09:35:00.6     -73    115    209    137    249 327.5  63.6  34178  289.89 0855.29
2009/04/23 09:35:00.7     -31    117    164    122    204 344.9  59.8  34172  289.77 0855.29
2009/04/23 09:35:00.8      94    143    233    172    289  33.4  60.0  34166  289.68 0855.29
2009/04/23 09:35:00.9     -69     32    189     77    204 295.3  77.0  34170  289.75 0855.29
2009/04/23 09:35:01.0    -163     50    148    171    226 287.1  45.4  34180  289.92 0855.28
2009/04/23 09:35:01.1     135     45    264    143    300  71.6  69.1  34128  289.03 0855.28
2009/04/23 09:35:01.2     -62    -33    298     71    306 242.0  86.9  34148  289.37 0855.28
2009/04/23 09:35:01.3    -374     -7    149    375    403 268.8  22.9  34142  289.28 0855.28
2009/04/23 09:35:01.4    -526     36    138    528    546 274.0  14.7  34138  289.21 0855.28
2009/04/23 09:35:01.5    -454     59     -7    458    459 277.5  -0.9  34138  289.21 0855.28
2009/04/23 09:35:01.6    -192    317   -106    371    387 328.7 -16.0  34146  289.33 0855.28
2009/04/23 09:35:01.7    -117    364   -107    383    398 342.1 -15.7  34152  289.45 0855.28
2009/04/23 09:35:01.8    -266    146   -123    304    327 298.9 -27.6  34148  289.36 0855.28
2009/04/23 09:35:01.9    -102     45   -110    112    156 294.0 -54.2  34144  289.30 0855.28
2009/04/23 09:35:02.0    -118    112    -46    163    169 313.6 -20.4  34156  289.52 0855.28
2009/04/23 09:35:02.1    -105     74    -92    129    158 305.5 -43.5  34158  289.53 0855.28
2009/04/23 09:35:02.2    -151     78     60    171    182 297.5  19.4  34160  289.57 0855.28
2009/04/23 09:35:02.3    -170    -88     66    192    204 242.5  18.9  34162  289.62 0855.28
2009/04/23 09:35:02.4    -185   -141    -51    233    239 232.7 -12.4  34156  289.49 0855.28
2009/04/23 09:35:02.5    -224   -256    -41    341    344 221.2  -6.9  34142  289.28 0855.28
2009/04/23 09:35:02.6    -130   -177     28    220    222 216.3   7.5  34150  289.41 0855.28
2009/04/23 09:35:02.7     -80   -163     25    182    184 206.3   8.0  34148  289.38 0855.28
2009/04/23 09:35:02.8      -4   -301      2    302    303 180.9   0.5  34152  289.42 0855.28
2009/04/23 09:35:02.9     160   -255     42    302    306 147.9   8.0  34148  289.36 0855.28
2009/04/23 09:35:03.0     112   -177     90    210    228 147.7  24.6  34144  289.30 0855.28
2009/04/23 09:35:03.1     109   -294    108    314    333 159.5  19.1  34138  289.20 0855.28
2009/04/23 09:35:03.2      90   -228     72    246    257 158.4  16.3  34136  289.17 0855.28
2009/04/23 09:35:03.3     143   -208     84    253    267 145.5  18.4  34136  289.15 0855.28
2009/04/23 09:35:03.4     180   -149     18    235    236 129.6   4.6  34134  289.12 0855.28
2009/04/23 09:35:03.5     284   -148     13    321    322 117.5   2.3  34136  289.17 0855.28
2009/04/23 09:35:03.6     325    -51     57    330    336  98.9   9.9  34132  289.11 0855.28
2009/04/23 09:35:03.7     261   -138     37    296    299 118.0   7.2  34132  289.10 0855.28
2009/04/23 09:35:03.8     243    -48     12    248    249 101.2   2.9  34138  289.19 0855.28
2009/04/23 09:35:03.9     238    103    -32    260    263  66.5  -7.2  34146  289.34 0855.28
2009/04/23 09:35:04.0     160    127     35    205    209  51.6   9.9  34146  289.35 0855.26
2009/04/23 09:35:04.1     128     65     17    144    146  62.9   6.9  34146  289.35 0855.26
2009/04/23 09:35:04.2      58     21     67     62     91  70.0  52.2  34154  289.46 0855.26
2009/04/23 09:35:04.3      11    -12     75     17     76 136.6  88.0  34150  289.40 0855.26
2009/04/23 09:35:04.4    -118   -167     71    205    218 215.4  19.2  34148  289.36 0855.26
2009/04/23 09:35:04.5    -199   -214     81    293    305 223.0  15.6  34146  289.32 0855.26
2009/04/23 09:35:04.6    -292   -242    131    380    403 230.4  19.1  34126  288.99 0855.26
2009/04/23 09:35:04.7    -270   -286     64    394    400 223.4   9.3  34118  288.86 0855.26
2009/04/23 09:35:04.8      19   -374      5    375    376 177.1   0.9  34126  288.99 0855.26
2009/04/23 09:35:04.9      43   -320    112    323    343 172.2  19.2  34130  289.08 0855.26
2009/04/23 09:35:05.0     154   -333    255    367    446 155.2  38.3  34134  289.14 0855.26
2009/04/23 09:35:05.1      85   -334    235    345    417 165.6  37.6  34126  289.01 0855.26
2009/04/23 09:35:05.2     -26   -331    280    333    435 184.6  44.4  34130  289.05 0855.26
2009/04/23 09:35:05.3      30   -304    274    306    410 174.2  46.5  34128  289.04 0855.26
2009/04/23 09:35:05.4      71   -376    313    383    494 169.3  43.5  34124  288.95 0855.26
2009/04/23 09:35:05.5      27   -101    230    105    252 164.9  74.0  34122  288.92 0855.26
2009/04/23 09:35:05.6       6   -157    294    158    333 177.8  69.6  34126  288.98 0855.26
2009/04/23 09:35:05.7       9    -77    221     78    234 172.9  80.5  34124  288.96 0855.26
2009/04/23 09:35:05.8     102   -322    319    338    464 162.4  48.0  34114  288.80 0855.26
2009/04/23 09:35:05.9     278   -270    420    388    571 134.2  52.6  34126  289.01 0855.26
2009/04/23 09:35:06.0     441   -277    247    521    576 122.1  27.2  34126  289.01 0855.26
2009/04/23 09:35:06.1     436   -111    320    450    552 104.3  39.0  34118  288.85 0855.26
2009/04/23 09:35:06.2     321   -114    368    341    501 109.6  52.5  34118  288.87 0855.26
2009/04/23 09:35:06.3     403   -130    286    424    511 107.9  37.4  34124  288.95 0855.26
2009/04/23 09:35:06.4     271    -98    252    289    383 110.0  45.6  34116  288.82 0855.26
2009/04/23 09:35:06.5     310      8    246    311    396  88.5  42.3  34120  288.91 0855.26
2009/04/23 09:35:06.6     124    -94    174    156    233 127.3  53.3  34118  288.86 0855.26
2009/04/23 09:35:06.7     132    -15    100    133    166  96.6  40.7  34120  288.89 0855.26
2009/04/23 09:35:06.8     -49     -5    -18     50     53 263.9 -23.3  34124  288.97 0855.26
2009/04/23 09:35:06.9    -149      0   -112    150    187 270.0 -44.8  34124  288.96 0855.26
2009/04/23 09:35:07.0    -142    -78   -141    163    215 241.2 -50.0  34128  289.02 0855.26
2009/04/23 09:35:07.1     -41    -86   -129     96    160 205.4 -64.2  34124  288.96 0855.26
2009/04/23 09:35:07.3      35   -150   -110    155    190 166.7 -43.5  34122  288.92 0855.26
2009/04/23 09:35:07.4     -11   -101    -80    102    129 186.7 -46.6  34116  288.84 0855.26
2009/04/23 09:35:07.5     101   -122     69    159    173 140.4  24.9  34110  288.74 0855.26
2009/04/23 09:35:07.6      78   -339     70    348    355 167.0  11.4  34120  288.89 0855.26
2009/04/23 09:35:07.7     103   -218      5    242    243 154.6   1.2  34120  288.90 0855.26
2009/04/23 09:35:07.8      44   -235     51    240    246 169.3  12.2  34122  288.92 0855.26
2009/04/23 09:35:07.9     178   -271     12    325    326 146.6   2.2  34116  288.81 0855.26
2009/04/23 09:35:08.0     -23   -305     32    307    309 184.5   6.1  34118  288.85 0855.26
2009/04/23 09:35:08.1     100   -319    -58    335    341 162.5  -9.9  34120  288.88 0855.26
2009/04/23 09:35:08.2     129   -217    -36    253    256 149.3  -8.2  34114  288.78 0855.26
2009/04/23 09:35:08.3      27    -14     39     31     49 118.9  56.4  34114  288.80 0855.26
2009/04/23 09:35:08.4     121   -146     88    190    209 140.4  27.0  34120  288.89 0855.26
2009/04/23 09:35:08.5      54   -230     82    237    251 166.7  19.2  34122  288.92 0855.26
2009/04/23 09:35:08.6    -119   -393     60    411    416 197.0   8.3  34114  288.80 0855.26
2009/04/23 09:35:08.7      11   -377    241    378    448 178.2  35.6  34116  288.82 0855.26
2009/04/23 09:35:08.8      56   -275    235    281    366 168.4  44.1  34116  288.82 0855.26
2009/04/23 09:35:08.9     -35   -324    302    326    444 186.2  47.7  34116  288.82 0855.26
2009/04/23 09:35:09.0      -6   -268    197    269    333 181.4  39.9  34116  288.81 0855.26
2009/04/23 09:35:09.1      16   -344    173    345    385 177.2  28.6  34120  288.88 0855.26
2009/04/23 09:35:09.2      71   -432    246    438    502 170.6  31.9  34118  288.86 0855.26
2009/04/23 09:35:09.3     -56   -514    166    518    545 186.2  17.8  34118  288.87 0855.26
2009/04/23 09:35:09.4     -51   -466    255    469    533 186.3  31.0  34116  288.83 0855.26
2009/04/23 09:35:09.5     -65   -433    263    438    510 188.6  33.6  34116  288.83 0855.26
2009/04/23 09:35:09.6    -301   -426     53    522    525 215.2   5.9  34118  288.87 0855.26
2009/04/23 09:35:09.7    -267   -476     -2    546    547 209.3  -0.3  34118  288.85 0855.26
2009/04/23 09:35:09.8     -85   -442    284    451    532 190.9  35.3  34116  288.84 0855.26
2009/04/23 09:35:09.9    -132   -408    149    429    455 197.9  19.2  34120  288.89 0855.26
2009/04/23 09:35:10.0    -186   -382     53    426    430 206.0   7.1  34110  288.72 0855.26
2009/04/23 09:35:10.1    -194   -285    -98    346    359 214.3 -20.7  34122  288.93 0855.25
2009/04/23 09:35:10.2    -188   -320     76    372    380 210.4  11.6  34126  288.98 0855.25
2009/04/23 09:35:10.3    -250   -323    201    409    455 217.8  28.2  34124  288.97 0855.25
2009/04/23 09:35:10.4    -224   -287    146    365    393 218.0  23.0  34122  288.93 0855.25
2009/04/23 09:35:10.5    -268   -421    220    500    546 212.5  25.2  34128  289.02 0855.25
2009/04/23 09:35:10.6    -243   -370    129    443    462 213.3  16.3  34124  288.95 0855.25
2009/04/23 09:35:10.7    -200   -264     78    332    342 217.2  13.2  34118  288.86 0855.25
2009/04/23 09:35:10.8     -82   -236    -13    250    251 199.2  -3.1  34122  288.92 0855.25
2009/04/23 09:35:10.9     -83   -321     52    332    337 194.6   8.9  34120  288.91 0855.25
2009/04/23 09:35:11.0    -138   -308     75    338    347 204.1  12.6  34120  288.89 0855.25
2009/04/23 09:35:11.1    -129   -331     34    356    358 201.3   5.5  34128  289.03 0855.25
2009/04/23 09:35:11.2    -119   -273     -6    299    300 203.6  -1.3  34124  288.95 0855.25
2009/04/23 09:35:11.3    -198   -197    153    280    319 225.1  30.9  34122  288.93 0855.25
2009/04/23 09:35:11.4    -190   -184    247    265    362 226.0  47.9  34124  288.96 0855.25
2009/04/23 09:35:11.5    -133   -120    230    180    292 228.0  58.2  34124  288.95 0855.25
2009/04/23 09:35:11.6    -108   -170    160    202    257 212.6  42.7  34124  288.95 0855.25
2009/04/23 09:35:11.7     -35     23    145     42    150 303.3  83.9  34128  289.04 0855.25
2009/04/23 09:35:11.8     -59    124    192    138    236 334.7  60.8  34126  288.99 0855.25
2009/04/23 09:35:11.9     -65    170    139    183    229 339.1  41.2  34130  289.06 0855.25
2009/04/23 09:35:12.0     -18    115    165    117    202 350.7  61.3  34130  289.08 0855.25
2009/04/23 09:35:12.1      -5     -4    112      7    112 230.5  90.0  34134  289.14 0855.25
2009/04/23 09:35:12.2     -66    -14    119     68    137 257.6  68.3  34130  289.06 0855.25
2009/04/23 09:35:12.3     -66    -10    133     67    148 261.2  71.4  34130  289.06 0855.25
2009/04/23 09:35:12.4     -24    -27    102     37    108 221.4  79.7  34130  289.08 0855.25
2009/04/23 09:35:12.5     -96      3    111     97    147 272.1  54.3  34132  289.09 0855.25
2009/04/23 09:35:12.6    -189     29    106    192    219 278.8  31.4  34124  288.97 0855.25
2009/04/23 09:35:12.7    -140    104     80    175    192 306.6  26.4  34122  288.94 0855.25
2009/04/23 09:35:12.8     -87     24     85     91    124 285.5  48.5  34128  289.02 0855.25
2009/04/23 09:35:12.9     -62     34     94     71    117 298.9  59.4  34120  288.89 0855.25
2009/04/23 09:35:13.0     -43     77     78     89    118 331.0  45.8  34128  289.02 0855.25
2009/04/23 09:35:13.1      58     48     91     76    118  50.5  55.8  34126  288.99 0855.25
2009/04/23 09:35:13.2      45     62     56     77     95  36.1  39.7  34130  289.08 0855.25
2009/04/23 09:35:13.3      23     24     62     34     70  43.4  68.8  34128  289.04 0855.25
2009/04/23 09:35:13.4      47     26     60     54     80  61.1  53.3  34128  289.04 0855.25
2009/04/23 09:35:13.5       2     -6     65      7     65 161.7  90.0  34136  289.16 0855.25
2009/04/23 09:35:13.6     -28    -42     40     51     64 214.3  41.7  34136  289.16 0855.25
2009/04/23 09:35:13.7     -37    -63     65     74     98 210.7  46.4  34130  289.08 0855.25
2009/04/23 09:35:13.8     -31    -66     30     74     79 205.5  23.6  34128  289.04 0855.25
2009/04/23 09:35:13.9     -30    -17     41     35     53 239.3  54.3  34132  289.11 0855.25
2009/04/23 09:35:14.0      26      0     60     27     65  90.0  74.0  34136  289.16 0855.25
2009/04/23 09:35:14.1      -1     22     72     23     75 357.3  80.7  34134  289.13 0855.27
2009/04/23 09:35:14.2      41    -22     72     47     85 118.9  64.1  34134  289.14 0855.27
2009/04/23 09:35:14.3      31    -49     52     59     78 147.4  46.4  34138  289.19 0855.27
2009/04/23 09:35:14.4       0    -60     49     61     78 180.0  43.7  34132  289.11 0855.27
2009/04/23 09:35:14.5      34    -51     46     62     77 146.6  39.7  34130  289.06 0855.27
2009/04/23 09:35:14.6      49    -16     58     52     77 108.2  52.2  34148  289.38 0855.27
2009/04/23 09:35:14.7     108    -22     61    111    126 101.5  31.4  34164  289.65 0855.27
2009/04/23 09:35:14.8     119     -8     69    120    138  94.3  32.4  34170  289.74 0855.27
2009/04/23 09:35:14.9      54    -39     65     67     93 126.0  50.0  34160  289.57 0855.27
2009/04/23 09:35:15.0     -26   -130    124    133    181 191.5  47.9  34128  289.04 0855.27
2009/04/23 09:35:15.1     -12   -163    171    164    236 184.2  51.2  34126  289.01 0855.27
2009/04/23 09:35:15.2     -50   -148    171    157    232 198.7  52.2  34126  289.01 0855.27
2009/04/23 09:35:15.3      -7    -97    156     98    184 184.5  64.7  34126  288.99 0855.27
2009/04/23 09:35:15.4       9     48    118     49    127  10.7  76.6  34138  289.19 0855.27
2009/04/23 09:35:15.5       3      0    164      4    164  90.0  90.0  34134  289.13 0855.27
2009/04/23 09:35:15.6     -33   -149    199    153    251 192.5  58.5  34134  289.13 0855.27
2009/04/23 09:35:15.7      -8   -146    188    147    238 183.1  58.2  34128  289.02 0855.27
2009/04/23 09:35:15.8     211   -257    212    333    394 140.5  35.5  34126  289.01 0855.27
2009/04/23 09:35:15.9     166   -261    196    310    366 147.4  35.5  34126  288.99 0855.27
2009/04/23 09:35:16.0      93   -257    204    274    341 160.0  40.4  34126  289.00 0855.27
2009/04/23 09:35:16.1     130   -275    185    305    356 154.7  34.1  34128  289.03 0855.27
2009/04/23 09:35:16.2     128   -312    129    338    361 157.7  21.8  34126  289.01 0855.27
2009/04/23 09:35:16.3     126   -376     20    397    398 161.4   3.0  34122  288.93 0855.27
2009/04/23 09:35:16.4      21   -279    131    280    309 175.6  27.1  34120  288.90 0855.27
2009/04/23 09:35:16.5      44   -313    184    317    366 171.9  32.9  34124  288.96 0855.27
2009/04/23 09:35:16.6      56   -444    232    448    504 172.8  29.5  34126  288.98 0855.27
2009/04/23 09:35:16.7      73   -428    239    435    496 170.2  31.3  34120  288.88 0855.27
2009/04/23 09:35:16.8     -37   -494    246    496    553 184.4  28.4  34122  288.94 0855.27
2009/04/23 09:35:16.9      -9   -451    228    452    506 181.2  28.9  34122  288.93 0855.27
2009/04/23 09:35:17.0      74   -364    136    372    396 168.4  21.0  34120  288.91 0855.27
2009/04/23 09:35:17.1     -24   -333    118    334    354 184.3  20.3  34120  288.91 0855.27
2009/04/23 09:35:17.2    -134   -292     88    322    334 204.7  15.3  34120  288.91 0855.27
2009/04/23 09:35:17.3     -71   -241    135    252    285 196.5  30.3  34124  288.97 0855.27
2009/04/23 09:35:17.4     -11   -247    124    248    277 182.7  28.7  34126  288.98 0855.27
2009/04/23 09:35:17.5      40   -204    185    208    278 168.9  46.2  34126  289.00 0855.27
2009/04/23 09:35:17.6      -4   -177    172    178    247 181.4  49.0  34124  288.96 0855.27
2009/04/23 09:35:17.7     -30   -210    239    213    320 188.1  53.7  34124  288.97 0855.27
2009/04/23 09:35:17.8     106   -133    140    171    221 141.3  43.7  34126  288.99 0855.27
2009/04/23 09:35:17.9     197   -184     90    270    285 133.1  18.4  34124  288.97 0855.27
2009/04/23 09:35:18.0      40   -255     46    259    264 171.1  10.1  34124  288.95 0855.27
2009/04/23 09:35:18.1      74   -250    -20    261    262 163.3  -4.4  34124  288.95 0855.28
2009/04/23 09:35:18.2     178   -214    -29    279    281 140.3  -6.0  34118  288.87 0855.28
2009/04/23 09:35:18.3     220   -233     29    321    323 136.7   5.3  34128  289.03 0855.28
2009/04/23 09:35:18.4     175   -239    -32    297    299 143.7  -6.2  34120  288.90 0855.28
2009/04/23 09:35:18.5     137   -161    -70    212    224 139.7 -18.3  34126  289.01 0855.28
2009/04/23 09:35:18.6     150   -103    -27    183    186 124.6  -8.6  34130  289.08 0855.28
2009/04/23 09:35:18.7     115   -136    -35    179    183 139.9 -11.3  34128  289.02 0855.28
2009/04/23 09:35:18.8      79   -155    -35    175    179 152.8 -11.3  34126  288.99 0855.28
2009/04/23 09:35:18.9     130   -172    -74    216    228 142.8 -23.6  34132  289.09 0855.28
2009/04/23 09:35:19.0      47   -193    -30    199    202 166.2  -8.6  34130  289.06 0855.28
2009/04/23 09:35:19.1      17   -232     29    233    235 175.6   7.1  34124  288.97 0855.28
2009/04/23 09:35:19.2      81   -278     69    290    299 163.7  13.5  34126  288.98 0855.28
2009/04/23 09:35:19.3     171   -140    -17    222    223 129.3  -4.6  34124  288.96 0855.28
2009/04/23 09:35:19.4     163   -128    -63    208    218 128.0 -16.8  34130  289.06 0855.28
2009/04/23 09:35:19.5     128   -111    -16    170    171 130.9  -5.6  34128  289.04 0855.28
2009/04/23 09:35:19.6     136   -109      0    175    176 128.9  -0.3  34130  289.06 0855.28
2009/04/23 09:35:19.7     131    -98      8    164    165 126.9   2.9  34128  289.02 0855.28
2009/04/23 09:35:19.8     155   -156     50    220    226 135.2  12.9  34128  289.02 0855.28
2009/04/23 09:35:19.9     165   -247     81    298    309 146.2  15.3  34124  288.95 0855.28
2009/04/23 09:35:20.0     189   -221      4    291    292 139.5   0.8  34126  288.98 0855.28
2009/04/23 09:35:20.1     214   -221     24    308    310 135.9   4.6  34122  288.92 0855.29
2009/04/23 09:35:20.2     222   -229     41    319    322 135.9   7.4  34124  288.97 0855.29
2009/04/23 09:35:20.3     151   -151     40    214    218 135.0  10.6  34124  288.96 0855.29
2009/04/23 09:35:20.4      86   -118     28    147    150 143.9  11.1  34126  288.99 0855.29
2009/04/23 09:35:20.5      35   -129     82    134    157 164.8  34.4  34126  288.99 0855.29
2009/04/23 09:35:20.6     -39   -141     51    147    156 195.6  19.2  34126  289.01 0855.29
2009/04/23 09:35:20.7      -2   -148    109    149    184 180.9  39.7  34124  288.96 0855.29
2009/04/23 09:35:20.8     -49   -149    107    157    189 198.3  37.6  34124  288.96 0855.29
2009/04/23 09:35:20.9      63    -37    146     74    163 120.7  71.1  34130  289.06 0855.29
2009/04/23 09:35:21.0     -89   -101    138    136    193 221.4  49.9  34122  288.94 0855.29
2009/04/23 09:35:21.1     -46   -202    189    208    281 192.9  47.0  34122  288.93 0855.29
2009/04/23 09:35:21.2      53    -69    123     88    151 142.6  60.6  34124  288.96 0855.29
2009/04/23 09:35:21.3      98    -50    137    111    176 117.1  56.6  34128  289.02 0855.29
2009/04/23 09:35:21.4      16    -24     92     30     96 145.7  80.7  34132  289.09 0855.29
2009/04/23 09:35:21.5     -22     29     93     37    100 322.2  77.1  34132  289.09 0855.29
2009/04/23 09:35:21.6       0     53     76     54     93   0.9  61.1  34134  289.14 0855.29
2009/04/23 09:35:21.7      13    -68    148     70    163 169.3  72.9  34128  289.04 0855.29
2009/04/23 09:35:21.8      86    -33    138     93    166 110.8  63.2  34130  289.08 0855.29
2009/04/23 09:35:21.9      28      3    123     29    126  82.1  86.9  34128  289.04 0855.29
2009/04/23 09:35:22.0     -10    -11    110     16    111 223.4  90.0  34128  289.02 0855.29
2009/04/23 09:35:22.1      -5   -125    133    126    183 182.7  51.6  34122  288.94 0855.31
2009/04/23 09:35:22.2     179     -7    142    180    229  92.4  42.4  34128  289.02 0855.31
2009/04/23 09:35:22.3      86     40    116     96    150  64.8  56.3  34124  288.97 0855.31
2009/04/23 09:35:22.4     -10    -35    102     37    108 196.9  79.7  34128  289.04 0855.31
2009/04/23 09:35:22.5      69      9    111     70    131  82.1  64.7  34128  289.02 0855.31
2009/04/23 09:35:22.6     105     -8     68    106    125  94.4  35.6  34124  288.97 0855.31
2009/04/23 09:35:22.7      93      7     82     94    124  85.7  45.8  34122  288.94 0855.31
2009/04/23 09:35:22.8      -1    -10     72     11     72 188.0  90.0  34132  289.11 0855.31
2009/04/23 09:35:22.9     -39      3    110     40    117 274.4  79.2  34132  289.09 0855.31
2009/04/23 09:35:23.0     -27     54     99     61    116 332.8  64.7  34130  289.08 0855.31
2009/04/23 09:35:23.1      91     68    100    114    151  53.1  45.8  34134  289.14 0855.26
2009/04/23 09:35:23.2      52    110    131    122    179  25.5  52.2  34136  289.16 0855.26
2009/04/23 09:35:23.3      -4     52    118     53    129 355.5  74.0  34138  289.19 0855.26
2009/04/23 09:35:23.4      23     58    117     63    132  21.9  68.9  34134  289.14 0855.26
2009/04/23 09:35:23.5      42    157    162    163    229  15.1  50.0  34132  289.11 0855.26
2009/04/23 09:35:23.6      87    168    185    190    265  27.4  49.2  34132  289.10 0855.26
2009/04/23 09:35:23.7      88    167    174    190    257  27.9  47.5  34138  289.19 0855.26
2009/04/23 09:35:23.8      46     70    106     85    135  33.4  56.9  34128  289.04 0855.26
2009/04/23 09:35:23.9     -46     63     81     79    113 324.0  50.1  34128  289.04 0855.26
2009/04/23 09:35:24.0       4     78    110     79    135   3.6  61.1  34130  289.06 0855.26
2009/04/23 09:35:24.1     111     26    144    115    184  76.7  57.5  34128  289.02 0855.26
2009/04/23 09:35:24.2     184     34     97    188    211  79.4  29.3  34140  289.23 0855.26
2009/04/23 09:35:24.3     134    -14    116    135    177  96.1  45.1  34146  289.35 0855.26
2009/04/23 09:35:24.4      47    -15     97     50    109 108.6  70.8  34146  289.35 0855.26
2009/04/23 09:35:24.5     -54     49     89     74    115 312.2  56.3  34146  289.35 0855.26
2009/04/23 09:35:24.6     -36    111     32    117    122 341.7  15.3  34140  289.24 0855.26
2009/04/23 09:35:24.7    -153    103     37    185    189 304.2  11.4  34132  289.09 0855.26
2009/04/23 09:35:24.8    -125    134      9    184    185 316.8   2.9  34132  289.09 0855.26
2009/04/23 09:35:24.9    -128    151    -57    198    206 319.7 -20.7  34138  289.19 0855.26
2009/04/23 09:35:25.0    -120    243    -43    271    275 333.7  -9.0  34136  289.15 0855.26
2009/04/23 09:35:25.1    -177    140    -10    226    227 308.4  -2.6  34128  289.02 0855.26
2009/04/23 09:35:25.2    -203     68    -12    215    216 288.6  -3.3  34126  288.99 0855.26
2009/04/23 09:35:25.3    -148     90    -48    174    181 301.3 -15.5  34126  289.01 0855.26
2009/04/23 09:35:25.4    -116    126    -37    172    177 317.5 -12.2  34126  288.99 0855.26
2009/04/23 09:35:25.5     -12    273   -114    274    296 357.3 -28.2  34140  289.22 0855.26
2009/04/23 09:35:25.6    -122    248   -124    277    303 333.7 -30.3  34126  288.98 0855.26
2009/04/23 09:35:25.7    -144    284    -83    319    330 333.0 -14.6  34124  288.97 0855.26
2009/04/23 09:35:25.8     -42    269   -146    273    309 351.1 -34.7  34130  289.05 0855.26
2009/04/23 09:35:25.9      88    254   -160    269    312  19.2 -38.0  34126  289.00 0855.26
2009/04/23 09:35:26.0      79    295    -75    306    316  15.1 -13.9  34130  289.05 0855.26
2009/04/23 09:35:26.1     125    193    -78    231    244  33.0 -18.7  34134  289.12 0855.26
2009/04/23 09:35:26.2     218    137    134    258    290  57.8  29.5  34138  289.20 0855.26
2009/04/23 09:35:26.3     169     94    124    194    230  60.7  35.6  34140  289.24 0855.26
2009/04/23 09:35:26.4     159    188    178    247    304  40.3  39.5  34176  289.85 0855.26
2009/04/23 09:35:26.5     138    229    226    268    350  31.0  44.4  34160  289.56 0855.26
2009/04/23 09:35:26.6      78    123    159    147    216  32.5  52.2  34168  289.70 0855.26
2009/04/23 09:35:26.7      -2    201    168    202    262 359.3  43.8  34160  289.58 0855.26
2009/04/23 09:35:26.8     -45    259     79    264    276 350.0  16.8  34164  289.64 0855.26
2009/04/23 09:35:26.9    -124     93     24    155    157 306.9   8.8  34180  289.91 0855.26
2009/04/23 09:35:27.0     -34     54    111     65    128 327.5  66.8  34172  289.77 0855.26
2009/04/23 09:35:27.1     111     26    122    115    167  76.7  52.0  34210  290.41 0855.28
2009/04/23 09:35:27.2     134     80     87    157    179  59.3  31.4  34200  290.26 0855.28
2009/04/23 09:35:27.3     168    125     54    210    217  53.4  14.5  34196  290.19 0855.28
2009/04/23 09:35:27.4     256    129    164    287    330  63.1  32.4  34168  289.70 0855.28
2009/04/23 09:35:27.5     200     80    211    216    301  68.2  49.4  34180  289.90 0855.28
2009/04/23 09:35:27.6     340     35   -101    342    356  84.1 -21.2  34138  289.20 0855.28
2009/04/23 09:35:27.7     292    239   -119    378    396  50.8 -22.5  34128  289.03 0855.28
2009/04/23 09:35:27.8     209    122     46    243    248  59.6  10.8  34132  289.09 0855.28
2009/04/23 09:35:27.9     143    202     -3    248    249  35.2  -0.7  34128  289.03 0855.28
2009/04/23 09:35:28.0     209     98     86    232    247  64.8  21.3  34136  289.17 0855.28
2009/04/23 09:35:28.2     110     70     54    131    141  57.5  23.1  34142  289.28 0855.28
2009/04/23 09:35:28.2     185    127    132    225    260  55.4  33.4  34164  289.64 0855.28
2009/04/23 09:35:28.3     317    -45     84    321    332  98.1  14.7  34158  289.54 0855.28
2009/04/23 09:35:28.4     372    -74    278    380    470 101.4  39.9  34136  289.16 0855.28
2009/04/23 09:35:28.5     393     85    410    403    574  77.7  50.6  34130  289.07 0855.28
2009/04/23 09:35:28.6     565    244    231    616    657  66.6  21.6  34132  289.11 0855.28
2009/04/23 09:35:28.7     590    234    170    635    658  68.3  15.0  34136  289.15 0855.28
2009/04/23 09:35:28.8     635     59     74    638    643  84.7   6.7  34128  289.03 0855.28
2009/04/23 09:35:28.9     491   -277    355    564    666 119.4  35.2  34142  289.28 0855.28
2009/04/23 09:35:29.0     277   -172    311    327    451 121.8  48.4  34148  289.36 0855.28
2009/04/23 09:35:29.1     353     81    326    363    487  77.0  46.8  34146  289.34 0855.28
2009/04/23 09:35:29.2     510     64    243    515    569  82.8  27.1  34148  289.38 0855.28
2009/04/23 09:35:29.3     587    126    195    601    632  77.9  18.0  34110  288.71 0855.28
2009/04/23 09:35:29.4     460    163    167    489    518  70.5  18.9  34144  289.30 0855.28
2009/04/23 09:35:29.5     509    291    213    587    624  60.2  20.9  34142  289.25 0855.28
2009/04/23 09:35:29.6     615    308    199    688    717  63.4  16.1  34224  290.66 0855.28
2009/04/23 09:35:29.7     561    331    201    652    683  59.5  17.2  34212  290.46 0855.28
2009/04/23 09:35:29.8     513    337    240    614    659  56.7  22.5  34154  289.47 0855.28
2009/04/23 09:35:29.9     500    302    206    585    621  58.9  19.4  34188  290.05 0855.28
2009/04/23 09:35:30.0     411    265    272    490    560  57.2  31.4  34208  290.38 0855.28
2009/04/23 09:35:30.1     510    242    250    565    617  64.6  25.3  34188  290.03 0855.28
2009/04/23 09:35:30.2     482     51    230    485    536  83.9  27.2  34194  290.16 0855.28
2009/04/23 09:35:30.3     421     68    215    427    478  80.8  28.7  34160  289.56 0855.28
2009/04/23 09:35:30.4     461    168    150    491    514  70.0  17.1  34140  289.22 0855.28
2009/04/23 09:35:30.5     397    159    202    428    473  68.1  27.1  34140  289.22 0855.28
2009/04/23 09:35:30.6     434    114    262    449    519  75.2  32.9  34126  288.98 0855.28
2009/04/23 09:35:30.7     436    134    279    457    535  72.9  34.4  34140  289.22 0855.28
2009/04/23 09:35:30.8     390     95    261    402    479  76.3  36.0  34162  289.60 0855.28
2009/04/23 09:35:30.9     455    132    175    474    505  73.8  21.1  34164  289.64 0855.28
2009/04/23 09:35:31.0     341    -83    278    352    448 103.8  42.4  34152  289.43 0855.28
2009/04/23 09:35:31.1     401     47    258    404    479  83.3  35.6  34176  289.83 0855.27
2009/04/23 09:35:31.2     342    -92    237    355    426 105.1  36.9  34102  288.60 0855.27
2009/04/23 09:35:31.3     388    -55    184    392    433  98.1  27.1  34136  289.16 0855.27
2009/04/23 09:35:31.4     226   -158    270    277    386 125.0  49.3  34116  288.84 0855.27
2009/04/23 09:35:31.5     284   -195    206    345    401 124.5  33.5  34118  288.86 0855.27
2009/04/23 09:35:31.6      37   -198    270    202    337 169.3  59.7  34130  289.07 0855.27
2009/04/23 09:35:31.7     -23    -37    180     44    185 211.6  86.4  34138  289.21 0855.27
2009/04/23 09:35:31.8     -25     25    256     36    258 314.9  90.0  34136  289.16 0855.27
2009/04/23 09:35:31.9      28      6    214     29    215  76.7  90.0  34144  289.31 0855.27
2009/04/23 09:35:32.0    -112     -1     68    113    131 269.2  34.0  34138  289.19 0855.27
2009/04/23 09:35:32.1    -100    256    237    276    363 338.6  45.0  34136  289.16 0855.27
2009/04/23 09:35:32.2    -243   -180    229    303    379 233.4  40.8  34152  289.43 0855.27
2009/04/23 09:35:32.3    -384   -157    228    416    474 247.7  31.3  34148  289.36 0855.27
2009/04/23 09:35:32.4    -510   -175    105    540    551 251.0  11.0  34138  289.19 0855.27
2009/04/23 09:35:32.5    -406   -185    121    447    464 245.5  15.1  34122  288.92 0855.27
2009/04/23 09:35:32.6    -453   -241     65    514    519 242.0   7.2  34142  289.28 0855.27
2009/04/23 09:35:32.7    -439   -294    -51    529    532 236.2  -5.6  34142  289.26 0855.27
2009/04/23 09:35:32.8    -435   -268    -84    512    519 238.4  -9.3  34146  289.32 0855.27
2009/04/23 09:35:32.9    -491    -99    -99    501    511 258.5 -11.2  34156  289.49 0855.27
2009/04/23 09:35:33.0    -541   -112   -110    553    564 258.2 -11.3  34146  289.33 0855.27
2009/04/23 09:35:33.1    -548   -161    -73    572    577 253.6  -7.3  34140  289.22 0855.28
2009/04/23 09:35:33.2    -358   -243   -137    433    455 235.8 -17.6  34140  289.22 0855.28
2009/04/23 09:35:33.3    -268   -249    -70    367    374 227.1 -10.8  34142  289.28 0855.28
2009/04/23 09:35:33.4    -204   -269    -56    338    343 217.2  -9.5  34136  289.18 0855.28
2009/04/23 09:35:33.5    -220   -246     79    331    341 221.8  13.5  34158  289.55 0855.28
2009/04/23 09:35:33.6    -208   -283     70    352    360 216.4  11.3  34152  289.42 0855.28
2009/04/23 09:35:33.7    -170   -267    135    317    344 212.5  24.6  34166  289.67 0855.28
2009/04/23 09:35:33.8    -123   -241    147    271    308 207.2  31.0  34174  289.80 0855.28
2009/04/23 09:35:33.9      21   -238    111    239    263 174.9  27.1  34164  289.64 0855.28
2009/04/23 09:35:34.0     -20   -168    170    170    240 186.9  50.1  34166  289.67 0855.28
2009/04/23 09:35:34.1     197    -65    193    208    283 108.4  47.9  34158  289.53 0855.28
2009/04/23 09:35:34.2     314    -19    233    315    391  93.5  40.2  34172  289.76 0855.28
2009/04/23 09:35:34.3     483    150     92    506    515  72.7  10.3  34272  291.49 0855.28
2009/04/23 09:35:34.5     440     61     35    445    447  82.1   4.6  34242  290.97 0855.28
2009/04/23 09:35:34.5     525    132    116    542    555  75.9  12.2  34246  291.03 0855.28
2009/04/23 09:35:34.6     366    229      5    432    433  58.0   0.7  34240  290.92 0855.28
2009/04/23 09:35:34.7     348    279    -57    447    451  51.3  -7.3  34184  289.97 0855.28
2009/04/23 09:35:34.8     542    251      3    598    599  65.2   0.3  34134  289.14 0855.28
2009/04/23 09:35:34.9     638    162     36    659    661  75.7   3.1  34122  288.94 0855.28
2009/04/23 09:35:35.1     636     14    229    637    676  88.7  20.7  34106  288.66 0855.28
2009/04/23 09:35:35.2     100     55    -20    115    117  61.1 -10.3  34132  289.11 0855.27
2009/04/23 09:35:35.3    -128      7   -179    129    220 273.5 -65.0  34134  289.14 0855.27
2009/04/23 09:35:35.4    -240    -10   -263    241    356 267.4 -57.1  34134  289.12 0855.27
2009/04/23 09:35:35.5    -264     64   -301    272    405 283.7 -57.7  34136  289.18 0855.27
2009/04/23 09:35:35.6    -186    -14   -268    187    326 265.7 -66.2  34130  289.05 0855.27
2009/04/23 09:35:35.7    -209    -71     73    221    233 251.2  18.4  34124  288.97 0855.27
2009/04/23 09:35:35.8    -470   -337    233    579    624 234.4  23.2  34114  288.78 0855.27
2009/04/23 09:35:35.9    -571      8    190    572    603 270.8  18.4  34120  288.88 0855.27
2009/04/23 09:35:36.0    -254      3    165    255    303 270.8  35.6  34124  288.97 0855.27
2009/04/23 09:35:36.1    -307    426    238    526    577 324.2  26.2  34126  288.99 0855.27
2009/04/23 09:35:36.2       5    384    343    385    515   0.8  46.3  34148  289.37 0855.27
2009/04/23 09:35:36.3     -42    431    307    434    531 354.4  38.7  34160  289.56 0855.27
2009/04/23 09:35:36.4     -25    355    266    356    444 355.9  40.6  34114  288.78 0855.27
2009/04/23 09:35:36.5     112    157    220    194    293  35.6  54.2  34188  290.05 0855.27
2009/04/23 09:35:36.6     188    191    300    269    402  44.5  53.6  34198  290.21 0855.27
2009/04/23 09:35:36.7     146     88    279    171    327  58.7  65.7  34202  290.27 0855.27
2009/04/23 09:35:36.8     267    189    272    328    426  54.7  43.8  34178  289.86 0855.27
2009/04/23 09:35:36.9     140    149    242    205    317  43.2  55.5  34194  290.14 0855.27
2009/04/23 09:35:37.0      15    112    172    114    206   8.0  63.4  34188  290.04 0855.27
2009/04/23 09:35:37.1     -31    149    114    153    190 348.0  40.4  34202  290.30 0855.27
2009/04/23 09:35:37.2     -98    118    119    154    194 320.4  41.7  34208  290.40 0855.29
2009/04/23 09:35:37.3     -65     25    100     70    122 291.7  61.5  34192  290.13 0855.29
2009/04/23 09:35:37.4      26   -179    139    181    228 171.5  41.6  34176  289.85 0855.29
2009/04/23 09:35:37.5     180    -53    205    188    278 106.6  52.7  34148  289.37 0855.29
2009/04/23 09:35:37.6     154   -233    277    280    393 146.6  49.9  34148  289.38 0855.29
2009/04/23 09:35:37.7     141   -182    243    231    335 142.4  51.9  34142  289.27 0855.29
2009/04/23 09:35:37.8     135   -135    199    192    276 135.0  51.2  34140  289.24 0855.29
2009/04/23 09:35:37.9       7   -127    144    128    192 176.9  53.7  34144  289.31 0855.29
2009/04/23 09:35:38.0     -68    -55    131     88    157 230.9  63.2  34150  289.40 0855.29
2009/04/23 09:35:38.1    -107   -112     84    155    176 223.7  30.8  34148  289.38 0855.29
2009/04/23 09:35:38.2    -118   -176     83    213    228 213.8  22.5  34150  289.41 0855.29
2009/04/23 09:35:38.3    -128   -128     63    182    193 225.0  19.2  34152  289.43 0855.29
2009/04/23 09:35:38.4    -234   -229     21    328    329 225.6   3.8  34146  289.33 0855.29
2009/04/23 09:35:38.5    -158   -309    -26    348    349 207.1  -4.4  34154  289.47 0855.29
2009/04/23 09:35:38.6    -257   -284   -117    384    402 222.1 -16.9  34162  289.60 0855.29
2009/04/23 09:35:38.7    -234   -234   -119    331    352 225.0 -19.8  34158  289.54 0855.29
2009/04/23 09:35:38.8    -322   -275    -23    424    425 229.5  -3.1  34158  289.55 0855.29
2009/04/23 09:35:38.9    -236   -333     -1    409    410 215.4  -0.3  34160  289.56 0855.29
2009/04/23 09:35:39.0    -296   -378     45    481    484 218.1   5.4  34160  289.56 0855.29
2009/04/23 09:35:39.1    -220   -344    123    409    428 212.7  16.8  34138  289.21 0855.29
2009/04/23 09:35:39.2    -274   -343    129    440    459 218.6  16.4  34128  289.02 0855.26
2009/04/23 09:35:39.3    -168   -355    246    393    463 205.3  35.2  34142  289.26 0855.26
2009/04/23 09:35:39.4    -208   -421    207    470    513 206.3  25.2  34136  289.18 0855.26
2009/04/23 09:35:39.5    -142   -307    190    339    388 204.9  31.6  34132  289.10 0855.26
2009/04/23 09:35:39.6       9   -208    160    209    263 177.3  41.2  34118  288.87 0855.26
2009/04/23 09:35:39.7     -52   -156    115    165    201 198.7  38.4  34122  288.92 0855.26
2009/04/23 09:35:39.8       6   -226    136    227    264 178.4  33.7  34126  289.00 0855.26
2009/04/23 09:35:39.9     -66   -278    132    286    314 193.4  26.5  34126  289.00 0855.26
2009/04/23 09:35:40.0    -108   -471    131    484    502 193.0  15.1  34110  288.73 0855.26
2009/04/23 09:35:40.1    -136   -342     66    369    375 201.7  10.2  34104  288.64 0855.26
2009/04/23 09:35:40.2    -237   -298    -61    381    386 218.5  -9.1  34102  288.60 0855.26
2009/04/23 09:35:40.3     -66     49    -59     83    101 306.4 -43.9  34120  288.91 0855.26
2009/04/23 09:35:40.4      46     18      6     50     51  68.3   6.9  34118  288.87 0855.26
2009/04/23 09:35:40.5    -161     13     71    162    176 274.8  25.1  34108  288.70 0855.26
2009/04/23 09:35:40.6     -46     97     49    108    118 334.5  25.7  34120  288.89 0855.26
2009/04/23 09:35:40.7     -87     64     28    109    113 306.4  14.7  34116  288.82 0855.26
2009/04/23 09:35:40.8    -109    -28     93    113    146 255.4  43.7  34120  288.89 0855.26
2009/04/23 09:35:40.9    -227   -116    161    256    302 242.9  35.5  34124  288.97 0855.26
2009/04/23 09:35:41.0    -164   -266     96    313    328 211.7  17.1  34118  288.87 0855.26
2009/04/23 09:35:41.1     -24   -100     39    103    110 193.8  21.5  34120  288.91 0855.26
2009/04/23 09:35:41.2     -35    -90     35     97    103 201.4  20.4  34116  288.82 0855.24
2009/04/23 09:35:41.3     -96   -185     90    209    227 207.6  24.9  34118  288.86 0855.24
2009/04/23 09:35:41.4    -177   -163     94    241    258 227.3  22.3  34120  288.90 0855.24
2009/04/23 09:35:41.5     -84   -164    109    185    214 207.2  33.5  34112  288.77 0855.24
2009/04/23 09:35:41.6    -115   -288     71    311    320 201.9  12.9  34114  288.78 0855.24
2009/04/23 09:35:41.7     -82   -315     44    326    330 194.7   7.8  34110  288.73 0855.24
2009/04/23 09:35:41.8     -25   -249     -1    251    252 185.8  -0.3  34112  288.75 0855.24
2009/04/23 09:35:41.9     -18   -205      4    206    207 185.1   1.2  34112  288.75 0855.24
2009/04/23 09:35:42.0     -51   -152     -6    161    162 198.7  -2.2  34112  288.77 0855.24
2009/04/23 09:35:42.1     -55    -78     24     96    100 215.6  14.3  34114  288.79 0855.24
2009/04/23 09:35:42.2     -69      0     28     70     75 269.2  23.0  34118  288.86 0855.24
2009/04/23 09:35:42.3    -124     78     17    147    149 302.4   6.9  34122  288.94 0855.24
2009/04/23 09:35:42.4      -6     55      8     56     57 352.9   9.0  34112  288.77 0855.24
2009/04/23 09:35:42.5      53     23    -40     58     70  66.5 -43.0  34108  288.69 0855.24
2009/04/23 09:35:42.6     104     -4    -55    105    118  92.6 -34.2  34116  288.84 0855.24
2009/04/23 09:35:42.7     120    -90     -8    151    152 126.9  -3.1  34116  288.84 0855.24
2009/04/23 09:35:42.8     102   -108      2    149    150 136.8   0.8  34114  288.79 0855.24
2009/04/23 09:35:42.9     111    -52    -32    123    128 115.2 -14.5  34110  288.72 0855.24
2009/04/23 09:35:43.0      86    -31    -11     92     93 110.0  -7.3  34112  288.77 0855.24
2009/04/23 09:35:43.1     122    -77      7    145    146 122.4   2.9  34112  288.77 0855.24
2009/04/23 09:35:43.2     123   -126     49    177    184 135.7  15.6  34112  288.75 0855.21
2009/04/23 09:35:43.3      55   -115     61    128    141 154.1  27.2  34110  288.72 0855.21
2009/04/23 09:35:43.4     106   -122     35    163    167 139.0  12.4  34102  288.60 0855.21
2009/04/23 09:35:43.5     108    -93     50    143    152 130.9  19.4  34110  288.72 0855.21
2009/04/23 09:35:43.6      37    -16     89     41     97 113.5  73.5  34118  288.87 0855.21
2009/04/23 09:35:43.7     -33     18     81     38     89 298.9  73.1  34122  288.94 0855.21
2009/04/23 09:35:43.8     -47     26     54     54     76 298.9  50.1  34118  288.86 0855.21
2009/04/23 09:35:43.9     -69     58     37     91     98 310.0  23.1  34116  288.82 0855.21
2009/04/23 09:35:44.0     -13     45     27     48     55 343.1  32.4  34118  288.86 0855.21
2009/04/23 09:35:44.1      50     49     65     71     96  45.9  47.9  34112  288.75 0855.21
2009/04/23 09:35:44.2     143     80     58    164    173  60.7  20.0  34110  288.72 0855.21
2009/04/23 09:35:44.3     238    156     99    285    302  56.7  19.2  34090  288.37 0855.21
2009/04/23 09:35:44.4     460    180    158    495    520  68.6  17.7  34088  288.35 0855.21
2009/04/23 09:35:44.5     223    153    222    271    350  55.4  43.7  34086  288.32 0855.21
2009/04/23 09:35:44.6     261    -23    217    263    340  95.2  43.8  34088  288.34 0855.21
2009/04/23 09:35:44.7     189    -26    233    191    301  97.9  56.4  34090  288.37 0855.21
2009/04/23 09:35:44.8     121      3    192    122    227  88.3  64.7  34092  288.42 0855.21
2009/04/23 09:35:44.9      35    -56    200     67    210 147.5  81.0  34096  288.48 0855.21
2009/04/23 09:35:45.0      62    -12    204     64    213 101.5  81.8  34098  288.52 0855.21
2009/04/23 09:35:45.1     146    -61    219    159    270 112.6  60.6  34096  288.49 0855.21
2009/04/23 09:35:45.2     171   -136    195    219    293 128.6  46.4  34088  288.36 0855.21
2009/04/23 09:35:45.3      47    -68    154     83    174 145.3  69.6  34090  288.38 0855.21
2009/04/23 09:35:45.4     102   -167    152    196    248 148.6  41.7  34088  288.36 0855.21
2009/04/23 09:35:45.5      21   -147    162    149    220 171.5  52.5  34086  288.31 0855.21
2009/04/23 09:35:45.6     142    -90    124    169    209 122.5  39.9  34100  288.55 0855.21
2009/04/23 09:35:45.7     271   -519    210    586    622 152.4  20.6  34096  288.48 0855.21
2009/04/23 09:35:45.8     274   -455    198    532    567 149.0  21.5  34098  288.52 0855.21
2009/04/23 09:35:45.9     268   -323    148    421    446 140.3  20.0  34100  288.55 0855.21
2009/04/23 09:35:46.0     460   -263    250    531    586 119.8  27.1  34096  288.49 0855.21
2009/04/23 09:35:46.1     414   -280    294    501    580 124.1  33.1  34096  288.50 0855.21
2009/04/23 09:35:46.2     301   -334    328    450    556 138.0  39.7  34096  288.48 0855.21
2009/04/23 09:35:46.3     283   -433    212    518    559 146.8  23.6  34100  288.57 0855.21
2009/04/23 09:35:46.4     218   -376    307    435    532 149.9  38.7  34102  288.59 0855.21
2009/04/23 09:35:46.5     253   -377    289    455    539 146.2  35.5  34100  288.54 0855.21
2009/04/23 09:35:46.6     139   -330    341    359    495 157.1  48.4  34104  288.63 0855.21
2009/04/23 09:35:46.7     246   -254    292    354    458 136.0  43.7  34100  288.55 0855.21
2009/04/23 09:35:46.8      42   -267    247    271    366 170.9  47.1  34104  288.62 0855.21
2009/04/23 09:35:46.9     -95   -324     99    338    353 196.4  16.3  34100  288.57 0855.21
2009/04/23 09:35:47.0     -29   -279    207    281    349 186.0  40.0  34100  288.56 0855.21
2009/04/23 09:35:47.1      90   -251    167    267    314 160.2  35.0  34100  288.56 0855.21
2009/04/23 09:35:47.2     -44   -404    285    407    496 186.3  38.5  34090  288.40 0855.21
2009/04/23 09:35:47.3       7   -479    375    480    609 179.1  41.9  34098  288.53 0855.21
2009/04/23 09:35:47.4      86   -386    250    396    468 167.3  35.3  34098  288.53 0855.21
2009/04/23 09:35:47.5     -70   -278    203    287    351 194.2  38.7  34090  288.38 0855.21
2009/04/23 09:35:47.6    -172   -484    109    514    526 199.6  12.0  34090  288.40 0855.21
2009/04/23 09:35:47.7    -260   -462     99    531    541 209.4  10.6  34098  288.53 0855.21
2009/04/23 09:35:47.8      -8   -273    164    274    319 181.8  33.8  34098  288.53 0855.21
2009/04/23 09:35:47.9     203   -286    147    351    380 144.6  24.1  34104  288.62 0855.21
2009/04/23 09:35:48.0     215   -143    191    259    321 123.7  40.0  34104  288.63 0855.21
2009/04/23 09:35:48.1     157    -59    163    168    234 110.6  49.4  34100  288.57 0855.21
2009/04/23 09:35:48.2     134   -152    208    203    290 138.6  50.4  34098  288.53 0855.20
2009/04/23 09:35:48.3       8   -250    223    251    335 178.0  46.3  34104  288.61 0855.20
2009/04/23 09:35:48.4     -41   -304    165    307    348 187.8  30.7  34100  288.55 0855.20
2009/04/23 09:35:48.5     114   -251    143    276    310 155.5  29.3  34106  288.66 0855.20
2009/04/23 09:35:48.6      75   -368    176    376    415 168.4  27.0  34102  288.58 0855.20
2009/04/23 09:35:48.7      57   -364    239    369    439 171.0  35.9  34104  288.61 0855.20
2009/04/23 09:35:48.8     -28   -369    246    370    444 184.4  36.7  34106  288.65 0855.20
2009/04/23 09:35:48.9     -26   -292    210    294    361 185.1  39.2  34102  288.59 0855.20
2009/04/23 09:35:49.0      58   -341    182    347    391 170.2  30.0  34102  288.60 0855.20
2009/04/23 09:35:49.2     198   -100    278    223    356 116.9  57.5  34104  288.61 0855.20
2009/04/23 09:35:49.3     242   -111    297    267    399 114.6  53.4  34112  288.76 0855.20
2009/04/23 09:35:49.3     310   -155    188    347    394 116.6  30.8  34106  288.66 0855.20
2009/04/23 09:35:49.4     211    -56    227    219    315 105.1  51.1  34100  288.56 0855.20
2009/04/23 09:35:49.5     127   -243    184    275    330 152.4  36.7  34106  288.66 0855.20
2009/04/23 09:35:49.6      50   -194    144    201    247 165.3  39.1  34108  288.70 0855.20
2009/04/23 09:35:49.7     -17   -248    111    249    272 184.0  25.7  34106  288.65 0855.20
2009/04/23 09:35:49.8     178   -215    136    280    311 140.4  27.4  34104  288.61 0855.20
2009/04/23 09:35:49.9     122   -150    156    194    248 140.8  43.0  34106  288.67 0855.20
2009/04/23 09:35:50.0     198   -211    107    290    309 136.8  21.0  34108  288.70 0855.20
2009/04/23 09:35:50.1     155   -186     93    243    260 140.3  22.0  34110  288.71 0855.20
2009/04/23 09:35:50.2     209   -221    130    305    331 136.6  24.3  34104  288.61 0855.23
2009/04/23 09:35:50.4      73   -256    117    267    291 164.0  25.2  34106  288.66 0855.23
2009/04/23 09:35:50.4     110   -320     77    339    348 161.0  12.9  34106  288.66 0855.23
2009/04/23 09:35:50.5      98   -273     42    291    295 160.2   8.2  34108  288.68 0855.23
2009/04/23 09:35:50.6      75   -325    136    334    360 167.0  23.4  34106  288.66 0855.23
2009/04/23 09:35:50.7      55   -222    128    229    262 166.0  31.6  34106  288.66 0855.23
2009/04/23 09:35:50.8     119   -183    108    219    244 146.8  28.2  34106  288.65 0855.23
2009/04/23 09:35:50.9      64   -154    255    168    305 157.3  63.6  34110  288.73 0855.23
2009/04/23 09:35:51.0     261   -212    245    337    416 129.0  39.7  34108  288.69 0855.23
2009/04/23 09:35:51.1     441   -438    162    622    643 134.8  14.6  34104  288.62 0855.23
2009/04/23 09:35:51.2     331   -317    186    459    495 133.8  23.2  34100  288.54 0855.23
2009/04/23 09:35:51.3     292   -198    114    354    373 124.2  17.9  34106  288.67 0855.23
2009/04/23 09:35:51.4     335   -269     21    430    431 128.8   2.9  34108  288.70 0855.23
2009/04/23 09:35:51.5     301   -209    -32    367    369 124.9  -5.1  34108  288.69 0855.23
2009/04/23 09:35:51.6     164   -258     62    306    313 147.5  11.6  34106  288.65 0855.23
2009/04/23 09:35:51.7     108   -304     56    323    328 160.4   9.9  34104  288.63 0855.23
2009/04/23 09:35:51.8     122   -256    110    284    304 154.5  22.3  34104  288.63 0855.23
2009/04/23 09:35:51.9      90   -205     90    225    242 156.3  23.0  34102  288.58 0855.23
2009/04/23 09:35:52.0      63   -167      0    179    180 159.3   0.0  34104  288.62 0855.23
2009/04/23 09:35:52.1      31   -200     31    203    206 171.1   8.9  34104  288.64 0855.23
2009/04/23 09:35:52.2       1   -123     63    124    139 179.1  29.2  34102  288.58 0855.25
2009/04/23 09:35:52.3     -30   -158     57    161    171 190.9  19.6  34106  288.65 0855.25
2009/04/23 09:35:52.4     -15   -246     12    247    248 183.6   2.8  34108  288.68 0855.25
2009/04/23 09:35:52.5       0   -206     78    207    221 180.0  21.5  34100  288.55 0855.25
2009/04/23 09:35:52.6      71   -270     29    280    282 165.1   6.1  34106  288.65 0855.25
2009/04/23 09:35:52.7      71   -267      8    277    278 165.1   1.7  34102  288.59 0855.25
2009/04/23 09:35:52.8      96   -124     -1    158    159 142.2  -0.7  34102  288.60 0855.25
2009/04/23 09:35:52.9     105   -209     59    234    242 153.3  14.2  34086  288.31 0855.25
2009/04/23 09:35:53.0     -12   -285    152    286    323 182.6  30.2  34090  288.39 0855.25
2009/04/23 09:35:53.1     -28   -262     96    264    280 186.2  20.9  34086  288.31 0855.25
2009/04/23 09:35:53.2     -10   -220    132    221    257 182.6  33.5  34090  288.37 0855.25
2009/04/23 09:35:53.3     -74   -267    124    278    304 195.6  25.9  34088  288.34 0855.25
2009/04/23 09:35:53.4    -159   -226     67    277    286 215.1  13.7  34092  288.41 0855.25
2009/04/23 09:35:53.5     -59   -147     96    159    185 201.9  34.2  34094  288.45 0855.25
2009/04/23 09:35:53.6      35    -86     32     94    100 157.7  19.2  34092  288.43 0855.25
2009/04/23 09:35:53.7     122    -67     36    140    145 118.9  14.7  34094  288.45 0855.25
2009/04/23 09:35:53.8     136    -86    -17    162    163 122.4  -6.2  34096  288.50 0855.25
2009/04/23 09:35:53.9      66     -5    -37     67     76  94.4 -35.8  34096  288.50 0855.25
2009/04/23 09:35:54.0      95     19     21     97    100  78.5  12.6  34096  288.48 0855.25
2009/04/23 09:35:54.1      99     55     57    114    127  61.1  28.2  34098  288.52 0855.25
2009/04/23 09:35:54.2      78     87     70    117    136  41.9  34.0  34096  288.50 0855.28
2009/04/23 09:35:54.3      58    107     84    122    148  28.5  37.6  34100  288.55 0855.28
2009/04/23 09:35:54.4      99     59     95    116    149  59.3  43.7  34098  288.53 0855.28
2009/04/23 09:35:54.5      80    -61    109    101    148 127.3  52.2  34098  288.52 0855.28
2009/04/23 09:35:54.6      52      4    126     53    136  85.7  76.1  34104  288.64 0855.28
2009/04/23 09:35:54.7      55     87     80    104    131  32.5  41.7  34100  288.55 0855.28
2009/04/23 09:35:54.8     -60     77    121     98    155 322.2  56.4  34102  288.60 0855.28
2009/04/23 09:35:54.9      12     36    206     38    209  18.5  90.0  34104  288.64 0855.28
2009/04/23 09:35:55.0     -80     13    174     82    192 279.7  73.1  34106  288.67 0855.28
2009/04/23 09:35:55.1       0    -33    191     34    194 179.1  90.0  34110  288.72 0855.28
2009/04/23 09:35:55.2    -111     20    136    113    176 280.6  56.3  34116  288.84 0855.28
2009/04/23 09:35:55.3     -47     29    129     56    140 301.5  75.0  34120  288.89 0855.28
2009/04/23 09:35:55.4     -88      0     42     89     98 270.0  27.1  34100  288.55 0855.28
2009/04/23 09:35:55.5     -79     43     31     91     97 298.9  18.9  34102  288.60 0855.28
2009/04/23 09:35:55.6    -171    101     90    199    218 300.7  25.9  34098  288.53 0855.28
2009/04/23 09:35:55.7    -143    156      3    213    214 317.5   0.8  34116  288.84 0855.28
2009/04/23 09:35:55.8    -116    176    131    212    249 326.6  34.8  34112  288.75 0855.28
2009/04/23 09:35:55.9    -111    170    215    204    296 326.8  52.1  34110  288.71 0855.28
2009/04/23 09:35:56.0      17     94    115     96    149  10.2  56.3  34118  288.86 0855.28
2009/04/23 09:35:56.1      31      0     45     32     55  90.0  61.5  34110  288.74 0855.28
2009/04/23 09:35:56.2     -54   -124     53    136    145 203.6  22.5  34112  288.75 0855.28
2009/04/23 09:35:56.3     -94   -219    127    239    270 203.2  30.3  34110  288.71 0855.28
2009/04/23 09:35:56.4     -78   -243    179    256    312 197.8  38.4  34102  288.59 0855.28
2009/04/23 09:35:56.5     -15   -155    220    156    269 185.8  61.3  34110  288.71 0855.28
2009/04/23 09:35:56.6     -16   -114    197    116    228 188.0  66.8  34104  288.64 0855.28
2009/04/23 09:35:56.7     -23   -209    241    211    320 186.5  54.3  34110  288.71 0855.28
2009/04/23 09:35:56.8      -1    -12    216     13    216 184.5  90.0  34110  288.72 0855.28
2009/04/23 09:35:56.9     -48    -48    154     69    168 225.0  74.5  34142  289.26 0855.28
2009/04/23 09:35:57.0      37     -5    163     38    167  97.9  87.5  34162  289.60 0855.28
2009/04/23 09:35:57.1      33    -30    216     45    220 132.2  89.0  34160  289.58 0855.28
2009/04/23 09:35:57.2     -39    -72    206     82    221 208.5  77.1  34148  289.38 0855.28
2009/04/23 09:35:57.3     -45   -284    170    288    334 189.1  33.3  34116  288.83 0855.28
2009/04/23 09:35:57.4      80   -299    100    310    326 164.9  18.0  34110  288.73 0855.28
2009/04/23 09:35:57.5      28   -205     90    207    225 172.2  25.1  34150  289.40 0855.28
2009/04/23 09:35:57.6      76      5    115     77    138  85.6  62.7  34162  289.62 0855.28
2009/04/23 09:35:57.7      91    144    134    171    217  32.3  42.2  34234  290.84 0855.28
2009/04/23 09:35:57.9     106     70    111    128    169  56.7  45.4  34242  290.98 0855.28
2009/04/23 09:35:57.9      19     55     75     59     95  19.2  57.5  34240  290.94 0855.28
2009/04/23 09:35:58.0     -69    103    -34    125    130 326.2 -15.4  34220  290.58 0855.28
2009/04/23 09:35:58.1      -6    106    -94    107    142 356.4 -50.3  34214  290.50 0855.28
2009/04/23 09:35:58.2     186     37    -77    190    205  78.6 -27.5  34218  290.55 0855.29
2009/04/23 09:35:58.3     162    -18    -55    164    172  96.6 -23.6  34218  290.57 0855.29
2009/04/23 09:35:58.4     153     11     62    154    166  85.7  23.4  34220  290.60 0855.29
2009/04/23 09:35:58.5     336     61     52    342    346  79.6   8.7  34220  290.60 0855.29
2009/04/23 09:35:58.6     292    204    -59    357    362  55.1  -9.4  34178  289.89 0855.29
2009/04/23 09:35:58.7     358     72    131    366    388  78.5  20.4  34192  290.11 0855.29
2009/04/23 09:35:58.8     534    178    437    564    713  71.5  41.7  34170  289.75 0855.29
2009/04/23 09:35:58.9     783      0    548    784    956  90.0  38.4  34150  289.39 0855.29
2009/04/23 09:35:59.0     575    -53    -74    578    583  95.3  -7.3  34162  289.59 0855.29
2009/04/23 09:35:59.1     413   -117   -140    430    452 105.8 -23.2  34156  289.49 0855.29
2009/04/23 09:35:59.2     416   -286   -177    506    536 124.5 -24.4  34164  289.65 0855.29
2009/04/23 09:35:59.3     489   -307   -182    578    607 122.1 -17.5  34178  289.88 0855.29
2009/04/23 09:35:59.4     331   -274   -123    430    447 129.6 -20.7  34190  290.09 0855.29
2009/04/23 09:35:59.5     217   -394   -255    450    517 151.2 -36.5  34178  289.86 0855.29
2009/04/23 09:35:59.6     245   -444   -139    508    527 151.1 -15.4  34142  289.28 0855.29
2009/04/23 09:35:59.7     226   -514    -89    562    570 156.3  -9.0  34164  289.65 0855.29
2009/04/23 09:35:59.8     213   -374      5    431    432 150.4   0.7  34172  289.77 0855.29
2009/04/23 09:35:59.9     209   -351     68    409    415 149.3   9.4  34164  289.65 0855.29
2009/04/23 09:36:00.0     226   -306    146    381    408 143.6  22.0  34142  289.25 0855.29
2009/04/23 09:36:00.1     156   -252    124    297    321 148.1  23.9  34160  289.56 0855.29
2009/04/23 09:36:00.2     -44   -369     22    372    373 186.9   3.5  34146  289.35 0855.29
2009/04/23 09:36:00.3       0   -515   -142    516    535 180.0 -20.0  34176  289.84 0855.29
2009/04/23 09:36:00.4      21   -375   -191    376    421 176.8 -33.5  34158  289.53 0855.29
2009/04/23 09:36:00.5     103   -152   -225    184    290 145.9 -60.8  34154  289.46 0855.29
2009/04/23 09:36:00.6      61   -195   -148    205    252 162.4 -43.7  34154  289.47 0855.29
2009/04/23 09:36:00.7     234   -204    -90    311    323 131.1 -20.9  34152  289.42 0855.29
2009/04/23 09:36:00.8     239   -261   -109    355    372 137.5 -17.2  34150  289.40 0855.29
2009/04/23 09:36:00.9     154   -260    -38    303    306 149.3  -7.3  34148  289.37 0855.29
2009/04/23 09:36:01.0      53   -513    125    516    532 174.1  13.7  34142  289.26 0855.29
2009/04/23 09:36:01.1     -38   -668    153    670    688 183.3  12.9  34136  289.17 0855.29
2009/04/23 09:36:01.2    -283   -636     -2    697    698 204.0  -0.2  34130  289.08 0855.29
2009/04/23 09:36:01.3    -177   -750    276    771    820 193.3  19.7  34130  289.07 0855.29
2009/04/23 09:36:01.4    -244   -879    209    913    937 195.5  12.9  34118  288.86 0855.29
2009/04/23 09:36:01.5    -216   -684    154    718    735 197.5  12.2  34126  288.98 0855.29
2009/04/23 09:36:01.6    -107   -703     23    712    713 188.7   1.9  34130  289.08 0855.29
2009/04/23 09:36:01.7    -252   -687    324    733    801 200.2  25.5  34134  289.13 0855.29
2009/04/23 09:36:01.8    -204   -670    325    701    772 197.0  26.9  34146  289.33 0855.29
2009/04/23 09:36:01.9    -225   -693    377    729    820 198.0  29.5  34144  289.30 0855.29
2009/04/23 09:36:02.0    -363   -659    420    753    862 208.9  31.6  34152  289.43 0855.29
2009/04/23 09:36:02.1    -357   -783    412    861    954 204.5  27.4  34144  289.31 0855.29
2009/04/23 09:36:02.2    -340   -695    412    774    876 206.1  30.3  34136  289.17 0855.28
2009/04/23 09:36:02.3    -343   -903    182    966    984 200.8  10.7  34134  289.13 0855.28
2009/04/23 09:36:02.5    -157   -761      0    778    779 191.7   0.0  34130  289.08 0855.28
2009/04/23 09:36:02.6    -164   -664     14    685    686 193.9   1.2  34128  289.04 0855.28
2009/04/23 09:36:02.7    -284   -285    -36    403    405 224.9  -5.2  34124  288.97 0855.28
2009/04/23 09:36:02.8    -378   -113   -101    395    408 253.4 -14.4  34130  289.07 0855.28
2009/04/23 09:36:02.9    -410   -122     15    428    429 253.4   2.1  34142  289.26 0855.28
2009/04/23 09:36:03.0    -371   -124     29    392    394 251.5   4.3  34148  289.38 0855.28
2009/04/23 09:36:03.1    -265   -266     71    376    383 224.9  10.8  34138  289.20 0855.28
2009/04/23 09:36:03.2     -88   -333    -80    345    355 194.8 -13.1  34130  289.06 0855.28
2009/04/23 09:36:03.3    -164   -396     40    429    432 202.6   5.4  34136  289.16 0855.28
2009/04/23 09:36:03.4      64   -318     34    325    327 168.5   6.0  34120  288.90 0855.28
2009/04/23 09:36:03.5     213   -543     94    584    592 158.6   9.2  34120  288.90 0855.28
2009/04/23 09:36:03.6      67   -450    -34    456    458 171.5  -4.4  34128  289.02 0855.28
2009/04/23 09:36:03.7      81   -350    -57    360    365 167.0  -9.0  34120  288.88 0855.28
2009/04/23 09:36:03.8      46   -303     87    307    320 171.3  15.9  34118  288.87 0855.28
2009/04/23 09:36:03.9     -11   -460      2    461    462 181.5   0.4  34116  288.82 0855.28
2009/04/23 09:36:04.0       0   -414    138    415    438 179.9  18.5  34110  288.73 0855.28
2009/04/23 09:36:04.1      36   -460    127    462    480 175.5  15.4  34110  288.74 0855.28
2009/04/23 09:36:04.2    -119   -358    -57    378    383 198.4  -8.6  34116  288.82 0855.28
2009/04/23 09:36:04.3     -34   -288    -16    291    292 186.9  -3.3  34104  288.63 0855.31
2009/04/23 09:36:04.4      88   -352    -17    363    364 165.9  -2.8  34116  288.82 0855.31
2009/04/23 09:36:04.5       7   -378     13    379    380 178.9   2.1  34114  288.79 0855.31
2009/04/23 09:36:04.6      19   -385      3    386    387 177.1   0.5  34100  288.54 0855.31
2009/04/23 09:36:04.7      68   -356     71    363    370 169.1  11.1  34100  288.54 0855.31
2009/04/23 09:36:04.8     147   -222     51    267    272 146.4  10.8  34098  288.51 0855.31
2009/04/23 09:36:04.9     225   -260    138    344    370 139.1  23.0  34096  288.50 0855.31
2009/04/23 09:36:05.0     189   -354    136    402    425 151.9  18.8  34090  288.38 0855.31
2009/04/23 09:36:05.1     -45   -458    113    461    475 185.7  13.8  34090  288.40 0855.31
2009/04/23 09:36:05.2      26   -541    260    542    601 177.2  27.3  34090  288.39 0855.31
2009/04/23 09:36:05.3      38   -486    245    488    546 175.5  28.7  34096  288.50 0855.33
2009/04/23 09:36:05.4     -85   -439    181    448    483 191.0  23.2  34100  288.56 0855.33
2009/04/23 09:36:05.5      63   -363     38    369    372 170.1   6.0  34100  288.55 0855.33
2009/04/23 09:36:05.6     157   -354    -17    388    389 156.1  -2.6  34094  288.45 0855.33
2009/04/23 09:36:05.7     214   -364     11    423    424 149.5   1.6  34100  288.55 0855.33
2009/04/23 09:36:05.8     437   -362   -127    568    583 129.7 -12.6  34100  288.56 0855.33
2009/04/23 09:36:05.9      61   -420    -31    425    427 171.7  -4.2  34084  288.29 0855.33
2009/04/23 09:36:06.0     134   -261    230    294    373 152.8  42.0  34100  288.54 0855.33
2009/04/23 09:36:06.1     119   -357    110    377    393 161.6  16.3  34094  288.45 0855.33
2009/04/23 09:36:06.2      96   -284    185    300    352 161.3  34.6  34098  288.52 0855.33
2009/04/23 09:36:06.3     232   -377    275    443    521 148.4  34.9  34094  288.46 0855.33
2009/04/23 09:36:06.4     389   -367    175    535    563 133.3  18.1  34098  288.53 0855.33
2009/04/23 09:36:06.5      96   -433    154    444    471 167.4  19.2  34078  288.19 0855.33
2009/04/23 09:36:06.6       7   -282    144    283    317 178.4  29.1  34094  288.44 0855.33
2009/04/23 09:36:06.7      37   -417    173    419    453 174.8  23.7  34102  288.60 0855.33
2009/04/23 09:36:06.8     231   -392    139    455    476 149.5  17.0  34108  288.68 0855.33
2009/04/23 09:36:06.9     240   -527    330    580    667 155.5  32.2  34098  288.52 0855.33
2009/04/23 09:36:07.0     402   -353     50    536    539 131.3   5.4  34106  288.65 0855.33
2009/04/23 09:36:07.1     151   -536    276    558    622 164.2  28.2  34098  288.53 0855.33
2009/04/23 09:36:07.2     184   -647    328    673    748 164.1  27.9  34094  288.44 0855.33
2009/04/23 09:36:07.3     225   -562    230    606    648 158.2  21.8  34092  288.43 0855.34
2009/04/23 09:36:07.4     200   -464    303    506    589 156.7  33.6  34096  288.48 0855.34
2009/04/23 09:36:07.5     198   -353    233    405    467 150.7  32.6  34106  288.65 0855.34
2009/04/23 09:36:07.6      17   -174    260    175    313 174.2  63.1  34100  288.54 0855.34
2009/04/23 09:36:07.7       9   -214    213    215    302 177.5  50.0  34110  288.73 0855.34
2009/04/23 09:36:07.8      65   -378    185    384    426 170.1  27.3  34112  288.77 0855.34
2009/04/23 09:36:07.9     -98   -154    136    183    228 212.6  40.1  34114  288.79 0855.34
2009/04/23 09:36:08.0    -190   -120     72    225    237 237.6  17.7  34110  288.73 0855.34
2009/04/23 09:36:08.1    -125    -52    -48    136    145 247.4 -19.6  34110  288.74 0855.34
2009/04/23 09:36:08.2     -29    -30     60     42     73 224.1  60.6  34116  288.82 0855.34
2009/04/23 09:36:08.3       7    -60     33     61     69 172.9  31.3  34114  288.80 0855.34
2009/04/23 09:36:08.4      19     40     33     45     55  25.4  39.7  34118  288.87 0855.34
2009/04/23 09:36:08.5     -10    161    -35    162    166 356.4 -12.4  34108  288.70 0855.34
2009/04/23 09:36:08.6     -46    229    -26    234    236 348.4  -6.5  34110  288.73 0855.34
2009/04/23 09:36:08.7      93    275   -103    291    308  18.7 -24.4  34106  288.66 0855.34
2009/04/23 09:36:08.8      -2    278    -62    279    286 359.5 -12.6  34110  288.73 0855.34
2009/04/23 09:36:08.9     -90    174    -28    196    199 332.6  -8.2  34112  288.75 0855.34
2009/04/23 09:36:09.0     -88    264    -15    279    280 341.5  -3.1  34110  288.73 0855.34
2009/04/23 09:36:09.1     -25    328    -91    330    343 355.5 -15.5  34110  288.71 0855.34
2009/04/23 09:36:09.2      42    352    -36    355    357   6.9  -5.9  34104  288.62 0855.34
2009/04/23 09:36:09.3     116    159    107    197    224  36.1  31.3  34104  288.64 0855.35
2009/04/23 09:36:09.4     129    272    133    302    329  25.4  25.3  34142  289.25 0855.35
2009/04/23 09:36:09.5      -3    127    173    128    215 358.6  60.0  34134  289.14 0855.35
2009/04/23 09:36:09.6     -83    138    131    162    208 328.8  43.3  34122  288.94 0855.35
2009/04/23 09:36:09.7     -67    117     21    135    137 330.1   9.0  34098  288.53 0855.35
2009/04/23 09:36:09.8     -46    324    -81    328    338 351.9 -13.9  34114  288.79 0855.35
2009/04/23 09:36:09.9     -62    229    -93    238    255 344.9 -27.2  34108  288.70 0855.35
2009/04/23 09:36:10.0     -31    193    -90    196    215 350.9 -31.0  34122  288.94 0855.35
2009/04/23 09:36:10.1     157    181     47    240    245  41.0  11.1  34136  289.17 0855.35
2009/04/23 09:36:10.2     100    193    -65    218    228  27.4 -16.8  34156  289.50 0855.35
2009/04/23 09:36:10.3     185    152     -9    240    241  50.5  -2.2  34172  289.78 0855.35
2009/04/23 09:36:10.4     183    111     73    215    228  58.7  18.9  34206  290.36 0855.35
2009/04/23 09:36:10.5     304     98    144    320    350  72.1  25.8  34178  289.86 0855.35
2009/04/23 09:36:10.6     283    201    121    348    369  54.6  19.2  34216  290.52 0855.35
2009/04/23 09:36:10.7       0      2    168      3    168 350.3  90.0  34198  290.23 0855.35
2009/04/23 09:36:10.8      15      7    156     17    156  64.7  90.0  34148  289.36 0855.35
2009/04/23 09:36:10.9      38    -17    111     42    118 114.4  78.6  34134  289.14 0855.35
2009/04/23 09:36:11.0      22     10     92     25     95  64.7  84.9  34140  289.24 0855.35
2009/04/23 09:36:11.1     -29      2     58     30     65 274.4  69.8  34140  289.24 0855.35
2009/04/23 09:36:11.2     -94     23     11     97     98 284.2   6.9  34134  289.13 0855.35
2009/04/23 09:36:11.3     -68     25    -32     73     79 290.8 -29.0  34144  289.30 0855.33
2009/04/23 09:36:11.4     -10    -51     90     53    104 191.5  66.8  34124  288.96 0855.33
2009/04/23 09:36:11.5     -84    -95    121    128    176 221.5  48.2  34112  288.77 0855.33
2009/04/23 09:36:11.6     -74    -76    -29    107    112 224.1 -15.5  34112  288.75 0855.33
2009/04/23 09:36:11.7      17    -94    -65     96    115 169.8 -40.9  34114  288.80 0855.33
2009/04/23 09:36:11.8      -6   -162    -48    163    170 182.2 -16.4  34108  288.69 0855.33
2009/04/23 09:36:11.9      53   -156    -50    165    172 161.1 -22.1  34108  288.69 0855.33
2009/04/23 09:36:12.0     -59    -38   -175     71    188 236.7 -81.4  34114  288.79 0855.33
2009/04/23 09:36:12.1      -7      8   -161     11    161 320.4 -90.0  34114  288.79 0855.33
2009/04/23 09:36:12.2    -173      4   -112    174    206 271.5 -40.0  34108  288.70 0855.33
2009/04/23 09:36:12.3     -71     24   -169     76    185 289.1 -78.6  34114  288.79 0855.33
2009/04/23 09:36:12.4      18    -17    -85     25     88 133.3 -87.2  34114  288.80 0855.33
2009/04/23 09:36:12.5     100    -30    -34    105    110 106.8 -23.8  34112  288.75 0855.33
2009/04/23 09:36:12.6     154    -87   -152    177    233 119.5 -49.5  34110  288.72 0855.33
2009/04/23 09:36:12.7      91    -17    -78     93    121 101.0 -48.7  34114  288.80 0855.33
2009/04/23 09:36:12.8      41    -64   -112     77    135 147.5 -67.0  34114  288.79 0855.33
2009/04/23 09:36:12.9     100   -128   -115    163    199 142.2 -43.2  34110  288.74 0855.33
2009/04/23 09:36:13.0      48   -138   -123    147    191 160.8 -48.5  34114  288.79 0855.33
2009/04/23 09:36:13.1      20     29   -146     36    150  34.3 -90.0  34118  288.87 0855.33
2009/04/23 09:36:13.2      25      2    -70     26     74  83.9 -84.6  34120  288.91 0855.33
2009/04/23 09:36:13.3       0    -21    -72     22     75 180.9 -85.1  34122  288.92 0855.27
2009/04/23 09:36:13.4     -52     17    -73     55     91 288.4 -63.4  34118  288.86 0855.27
2009/04/23 09:36:13.5     -50     41    -74     65     98 309.5 -58.1  34116  288.82 0855.27
2009/04/23 09:36:13.6     -24     16   -119     30    122 304.2 -90.0  34118  288.86 0855.27
2009/04/23 09:36:13.7     -32     31   -113     45    121 314.1 -81.5  34118  288.86 0855.27
2009/04/23 09:36:13.8      12    -14    -40     19     44 138.6 -78.4  34118  288.87 0855.27
2009/04/23 09:36:13.9      39     -1    -10     40     42  92.6 -14.5  34120  288.89 0855.27
2009/04/23 09:36:14.0      45    -23     68     51     85 117.1  59.4  34122  288.94 0855.27
2009/04/23 09:36:14.1      18    -55     83     58    101 161.7  61.5  34122  288.94 0855.27
2009/04/23 09:36:14.2      27    -88    115     93    147 162.6  56.4  34112  288.77 0855.27
2009/04/23 09:36:14.3      91   -105    148    140    203 139.0  51.6  34106  288.67 0855.27
2009/04/23 09:36:14.4     -86   -300    202    313    372 196.1  35.7  34104  288.64 0855.27
2009/04/23 09:36:14.5    -149   -502    230    524    572 196.5  25.2  34102  288.58 0855.27
2009/04/23 09:36:14.6     -35   -459    252    461    525 184.4  31.0  34104  288.64 0855.27
2009/04/23 09:36:14.7     -81   -392    183    401    440 191.8  26.2  34100  288.55 0855.27
2009/04/23 09:36:14.8     -67   -286     55    294    300 193.3  10.6  34100  288.56 0855.27
2009/04/23 09:36:14.9    -131   -432    -75    452    459 197.0  -9.5  34106  288.67 0855.27
2009/04/23 09:36:15.0    -111   -395     39    411    413 195.7   5.5  34104  288.63 0855.27
2009/04/23 09:36:15.1     -64   -407     16    413    414 189.0   2.2  34102  288.58 0855.27
2009/04/23 09:36:15.2       0   -437    -30    438    440 180.0  -4.0  34098  288.51 0855.27
2009/04/23 09:36:15.3    -100   -366    123    380    400 195.3  18.0  34096  288.50 0855.27
2009/04/23 09:36:15.4       1    -70    272     71    281 179.0  85.4  34108  288.70 0855.27
2009/04/23 09:36:15.5     -87   -163    228    185    293 208.1  56.6  34106  288.66 0855.27
2009/04/23 09:36:15.6     -85   -148    133    171    216 209.9  42.0  34106  288.67 0855.27
2009/04/23 09:36:15.7     -23    -82    148     86    171 196.0  67.2  34108  288.70 0855.27
2009/04/23 09:36:15.8      39    -64    174     76    189 148.4  74.8  34114  288.80 0855.27
2009/04/23 09:36:15.9      24   -150    276    153    315 170.7  68.6  34108  288.68 0855.27
2009/04/23 09:36:16.0      77   -234    172    247    300 161.7  38.0  34104  288.63 0855.27
2009/04/23 09:36:16.1    -169   -461    134    492    511 200.2  15.3  34100  288.54 0855.27
2009/04/23 09:36:16.2    -126   -563     49    578    581 192.7   4.9  34096  288.49 0855.27
2009/04/23 09:36:16.3     -57   -499     24    503    504 186.6   2.8  34100  288.54 0855.27
2009/04/23 09:36:16.4      20   -465     43    466    469 177.5   5.3  34094  288.47 0855.27
2009/04/23 09:36:16.5      93   -482     44    492    495 169.0   5.2  34100  288.54 0855.27
2009/04/23 09:36:16.6     129   -451    -26    470    471 164.0  -3.2  34094  288.47 0855.27
2009/04/23 09:36:16.7     180   -427   -138    464    485 157.2 -16.6  34094  288.47 0855.27
2009/04/23 09:36:16.8     117   -539    -71    552    557 167.7  -7.4  34086  288.33 0855.27
2009/04/23 09:36:16.9     204   -577    134    613    628 160.5  12.4  34084  288.30 0855.27
2009/04/23 09:36:17.0     121   -511    154    526    549 166.6  16.3  34084  288.28 0855.27
2009/04/23 09:36:17.1     110   -596     29    607    608 169.5   2.8  34090  288.37 0855.27
2009/04/23 09:36:17.2     161   -595     82    617    623 164.8   7.6  34084  288.30 0855.27
2009/04/23 09:36:17.3      22   -573    284    574    640 177.8  28.4  34084  288.27 0855.24
2009/04/23 09:36:17.4     165   -819    224    836    866 168.6  15.0  34086  288.33 0855.24
2009/04/23 09:36:17.5      51   -554    151    557    578 174.7  15.2  34090  288.37 0855.24
2009/04/23 09:36:17.6     -86   -648    -12    654    655 187.6  -1.1  34090  288.37 0855.24
2009/04/23 09:36:17.7      -8   -424    139    425    448 181.1  18.1  34090  288.38 0855.24
2009/04/23 09:36:17.8     221   -336    223    403    460 146.7  31.4  34080  288.21 0855.24
2009/04/23 09:36:17.9     301   -179    131    351    374 120.8  21.4  34080  288.23 0855.24
2009/04/23 09:36:18.0     185   -279     65    335    342 146.4  11.1  34090  288.40 0855.24
2009/04/23 09:36:18.1     179   -281    -15    334    335 147.4  -2.6  34090  288.38 0855.24
2009/04/23 09:36:18.2     -38   -628     49    630    633 183.5   4.5  34088  288.35 0855.24
2009/04/23 09:36:18.3     -38   -592    139    594    611 183.7  13.2  34088  288.36 0855.24
2009/04/23 09:36:18.4    -111   -465     68    479    484 193.4   8.1  34084  288.29 0855.24
2009/04/23 09:36:18.5    -249   -300   -116    390    408 219.7 -16.6  34088  288.35 0855.24
2009/04/23 09:36:18.6      73   -272     54    282    288 164.9  11.0  34078  288.17 0855.24
2009/04/23 09:36:18.7     157   -360   -109    394    409 156.4 -15.5  34088  288.34 0855.24
2009/04/23 09:36:18.8     246   -435   -118    501    515 150.5 -13.3  34084  288.29 0855.24
2009/04/23 09:36:18.9     254   -387   -132    464    483 146.7 -15.9  34088  288.34 0855.24
2009/04/23 09:36:19.0     250   -381    -43    456    459 146.7  -5.5  34080  288.21 0855.24
2009/04/23 09:36:19.1      67   -338   -105    345    360 168.7 -21.9  34082  288.25 0855.24
2009/04/23 09:36:19.2     145   -554   -114    573    585 165.3 -11.3  34088  288.36 0855.24
2009/04/23 09:36:19.3      13   -638    -58    639    642 178.8  -5.2  34084  288.30 0855.24
2009/04/23 09:36:19.4    -183   -638   -147    664    681 196.1 -12.5  34088  288.34 0855.24
2009/04/23 09:36:19.5     -74   -601   -133    606    621 187.1 -12.4  34086  288.32 0855.24
2009/04/23 09:36:19.6     -34   -492   -116    494    508 184.0 -13.3  34088  288.34 0855.24
2009/04/23 09:36:19.7     146   -471   -166    494    522 162.7 -18.6  34084  288.29 0855.24
2009/04/23 09:36:19.8      86   -392   -120    402    420 167.6 -16.6  34090  288.39 0855.24
2009/04/23 09:36:19.9     105   -517    -92    528    537 168.4  -9.9  34084  288.28 0855.24
2009/04/23 09:36:20.0      89   -264     21    279    280 161.3   4.4  34086  288.32 0855.24
2009/04/23 09:36:20.1      47   -183   -128    190    229 165.5 -41.7  34086  288.31 0855.24
2009/04/23 09:36:20.2     111   -148   -164    186    247 143.0 -50.3  34086  288.33 0855.24
2009/04/23 09:36:20.3     -41   -196   -164    201    259 191.8 -48.1  34090  288.37 0855.24
2009/04/23 09:36:20.4    -170   -321   -115    364    382 208.0 -17.6  34086  288.33 0855.24
2009/04/23 09:36:20.5     -79   -485    -89    492    500 189.3 -10.3  34082  288.24 0855.24
2009/04/23 09:36:20.6    -142   -626   -143    642    658 192.8 -12.6  34086  288.33 0855.24
2009/04/23 09:36:20.7    -191   -765   -226    789    820 194.0 -20.8  34084  288.30 0855.24
2009/04/23 09:36:20.8      59   -707   -261    710    756 175.2 -25.4  34078  288.18 0855.24
2009/04/23 09:36:20.9     -41   -700   -236    702    740 183.4 -23.7  34084  288.29 0855.24
2009/04/23 09:36:21.0    -111   -717   -260    726    772 188.8 -19.7  34084  288.28 0855.24
2009/04/23 09:36:21.1    -196   -737   -244    763    801 194.9 -22.8  34080  288.22 0855.24
2009/04/23 09:36:21.2    -283   -653   -296    712    771 203.4 -28.3  34076  288.14 0855.24
2009/04/23 09:36:21.3    -255   -582   -280    636    694 203.7 -29.7  34084  288.28 0855.28
2009/04/23 09:36:21.4    -171   -561   -242    587    634 197.0 -28.1  34076  288.16 0855.28
2009/04/23 09:36:21.5    -130   -506   -197    523    558 194.4 -26.1  34084  288.30 0855.28
2009/04/23 09:36:21.6      -8   -513   -198    514    550 180.9 -26.6  34088  288.35 0855.28
2009/04/23 09:36:21.7      52   -532   -190    535    568 174.3 -19.6  34086  288.33 0855.28
2009/04/23 09:36:21.8      99   -574   -180    583    610 170.2 -22.1  34088  288.36 0855.28
2009/04/23 09:36:21.9     123   -626   -225    639    678 168.9 -19.4  34074  288.11 0855.28
2009/04/23 09:36:22.0     197   -554   -208    589    625 160.4 -19.5  34078  288.17 0855.28
2009/04/23 09:36:22.1     159   -552   -193    575    607 163.9 -18.6  34072  288.09 0855.28
2009/04/23 09:36:22.2     112   -529   -171    541    568 168.0 -17.5  34074  288.13 0855.28
2009/04/23 09:36:22.3     176   -468   -176    501    532 159.4 -19.4  34078  288.19 0855.28
2009/04/23 09:36:22.4     247   -445   -155    510    534 151.0 -17.0  34076  288.14 0855.28
2009/04/23 09:36:22.5     247   -384   -164    457    485 147.2 -24.8  34078  288.17 0855.28
2009/04/23 09:36:22.6     249   -469   -115    532    545 152.0 -12.3  34080  288.21 0855.28
2009/04/23 09:36:22.7     221   -727   -107    761    769 163.1  -8.0  34078  288.18 0855.28
2009/04/23 09:36:22.8     335   -696    -94    773    779 154.3  -7.0  34082  288.24 0855.28
2009/04/23 09:36:22.9     296   -669   -262    732    778 156.1 -19.7  34078  288.18 0855.28
2009/04/23 09:36:23.0     148   -513   -183    534    565 163.9 -18.9  34076  288.14 0855.28
2009/04/23 09:36:23.1      13   -425   -190    426    466 178.2 -30.2  34082  288.26 0855.28
2009/04/23 09:36:23.2      87   -419   -182    429    466 168.2 -28.7  34086  288.33 0855.28
2009/04/23 09:36:23.3     219   -466   -143    516    536 154.8 -15.5  34082  288.26 0855.33
2009/04/23 09:36:23.4     158   -348   -111    383    398 155.6 -21.0  34084  288.30 0855.33
2009/04/23 09:36:23.5     288   -395    -70    490    496 143.9  -8.2  34088  288.35 0855.33
2009/04/23 09:36:23.6     253   -386    -48    462    465 146.7  -6.0  34088  288.34 0855.33
2009/04/23 09:36:23.7     322   -343    -60    471    475 136.8  -7.3  34090  288.37 0855.33
2009/04/23 09:36:23.8     343   -341   -152    484    507 134.8 -22.4  34090  288.40 0855.33
2009/04/23 09:36:23.9     394   -341   -177    522    551 130.9 -23.9  34086  288.33 0855.33
2009/04/23 09:36:24.0     411   -271   -161    493    519 123.5 -18.2  34090  288.40 0855.33
2009/04/23 09:36:24.1     349   -308   -156    466    491 131.5 -23.6  34092  288.42 0855.33
2009/04/23 09:36:24.2     260   -315   -102    409    422 140.5 -14.1  34092  288.43 0855.33
2009/04/23 09:36:24.3     239   -234    -96    335    349 134.4 -16.0  34090  288.37 0855.33
2009/04/23 09:36:24.4     300   -243    -32    387    389 129.0  -4.9  34090  288.40 0855.33
2009/04/23 09:36:24.5     239   -201     90    313    326 130.2  16.0  34086  288.31 0855.33
2009/04/23 09:36:24.6     301   -105    -49    319    323 109.3  -8.9  34092  288.41 0855.33
2009/04/23 09:36:24.7     137     71    -75    155    172  62.5 -31.8  34092  288.42 0855.33
2009/04/23 09:36:24.8     290    -10   -112    291    311  92.1 -26.4  34086  288.31 0855.33
2009/04/23 09:36:24.9     298    -42     89    302    316  98.0  16.5  34090  288.39 0855.33
2009/04/23 09:36:25.0     282   -143    112    317    337 116.9  19.6  34090  288.38 0855.33
2009/04/23 09:36:25.1      87   -237    205    253    325 159.7  43.4  34092  288.43 0855.33
2009/04/23 09:36:25.2     187    -84     45    205    210 114.2  12.4  34092  288.43 0855.33
2009/04/23 09:36:25.3     235   -256     29    348    350 137.4   4.9  34084  288.30 0855.33
2009/04/23 09:36:25.4     236   -262    -38    353    356 138.0  -6.2  34090  288.38 0855.33
2009/04/23 09:36:25.5      68    -95    -58    117    130 144.4 -32.2  34082  288.26 0855.33
2009/04/23 09:36:25.6     -87    -57     82    105    133 236.7  42.2  34086  288.33 0855.33
2009/04/23 09:36:25.7     115    -62    131    131    185 118.4  50.1  34096  288.48 0855.33
2009/04/23 09:36:25.8     295    -41     25    298    300  97.9   5.0  34090  288.39 0855.33
2009/04/23 09:36:25.9     325   -222     65    394    400 124.4   9.4  34084  288.30 0855.33
2009/04/23 09:36:26.0     165   -127    148    209    256 127.5  38.8  34086  288.31 0855.33
2009/04/23 09:36:26.1     232   -218    215    319    384 133.2  37.3  34080  288.23 0855.33
2009/04/23 09:36:26.2     394   -369    363    540    650 133.1  37.2  34084  288.27 0855.33
2009/04/23 09:36:26.3     128   -260    -90    291    304 153.7 -22.1  34064  287.95 0855.34
2009/04/23 09:36:26.4     302   -399   -287    501    577 142.9 -36.8  34082  288.26 0855.34
2009/04/23 09:36:26.5     223    -97   -257    244    354 113.5 -56.0  34086  288.32 0855.34
2009/04/23 09:36:26.6     -98     53   -201    112    230 298.4 -73.2  34086  288.31 0855.34
2009/04/23 09:36:26.7      23    263   -225    265    347   5.1 -48.9  34088  288.34 0855.34
2009/04/23 09:36:26.9      -9    319   -191    320    372 358.2 -37.9  34090  288.37 0855.34
2009/04/23 09:36:26.9      30    242   -231    244    336   7.1 -52.6  34088  288.34 0855.34
2009/04/23 09:36:27.0     118    153   -219    194    292  37.6 -58.4  34094  288.44 0855.34
2009/04/23 09:36:27.1      16    106    -32    108    113   8.9 -17.0  34082  288.25 0855.34
2009/04/23 09:36:27.2    -467    110   -247    480    539 283.3 -33.7  34078  288.19 0855.34
2009/04/23 09:36:27.3    -430     69    173    436    469 279.1  22.8  34072  288.09 0855.34
2009/04/23 09:36:27.4    -346    146     87    376    387 293.0  13.1  34080  288.23 0855.34
2009/04/23 09:36:27.5    -330     67    163    337    374 281.5  27.7  34094  288.44 0855.34
2009/04/23 09:36:27.6    -183   -122    176    221    282 236.3  42.7  34094  288.44 0855.34
2009/04/23 09:36:27.7    -197    -80     94    213    232 247.8  25.2  34094  288.45 0855.34
2009/04/23 09:36:27.8    -228    187    104    296    314 309.3  19.4  34098  288.51 0855.34
2009/04/23 09:36:27.9     112    176     30    209    212  32.6   8.2  34102  288.58 0855.34
2009/04/23 09:36:28.0     155      5    -20    156    158  87.9  -7.3  34098  288.53 0855.34
2009/04/23 09:36:28.1     193    -98     26    217    219 117.1   6.9  34100  288.55 0855.34
2009/04/23 09:36:28.2     154   -238   -122    284    309 147.0 -29.5  34100  288.56 0855.34
2009/04/23 09:36:28.3     361    -27    -59    362    367  94.3  -9.4  34092  288.42 0855.34
2009/04/23 09:36:28.5     376    -72    177    383    421 100.9  26.9  34094  288.45 0855.34
2009/04/23 09:36:28.5     298    -96      5    314    315 107.9   1.0  34092  288.43 0855.34
2009/04/23 09:36:28.6     387    -84    139    397    421 102.3  19.3  34094  288.45 0855.34
2009/04/23 09:36:28.8     323   -205    102    383    397 122.4  15.0  34094  288.45 0855.34
2009/04/23 09:36:28.9     356   -154    182    388    428 113.4  27.1  34096  288.48 0855.34
2009/04/23 09:36:29.0     346   -266    154    437    463 127.6  20.0  34096  288.48 0855.34
2009/04/23 09:36:29.1     134   -326    173    353    393 157.5  28.1  34090  288.37 0855.34
2009/04/23 09:36:29.1      11   -284    327    285    433 177.8  54.4  34102  288.59 0855.34
2009/04/23 09:36:29.3     132   -214    254    252    357 148.4  50.1  34102  288.59 0855.34
2009/04/23 09:36:29.4     232     -2    180    233    294  90.6  41.7  34102  288.58 0855.34
2009/04/23 09:36:29.5     384     66     61    390    395  80.2   8.9  34100  288.55 0855.34
2009/04/23 09:36:29.6     416     31     -8    418    419  85.6  -1.2  34100  288.55 0855.34
2009/04/23 09:36:29.7     266     31      2    268    269  83.2   0.5  34102  288.59 0855.34
2009/04/23 09:36:29.8     222     44     21    227    229  78.8   5.4  34108  288.70 0855.34
2009/04/23 09:36:29.9     163    -31    136    167    215 101.0  43.7  34104  288.62 0855.34
2009/04/23 09:36:30.0     103     21    141    106    176  78.5  59.4  34102  288.58 0855.34
2009/04/23 09:36:30.1     286    -57    211    292    360 101.4  39.5  34096  288.50 0855.34
2009/04/23 09:36:30.2     312     -9    190    313    366  91.7  34.1  34098  288.52 0855.34
2009/04/23 09:36:30.3     304    -32    214    306    373  96.1  38.5  34094  288.47 0855.34
2009/04/23 09:36:30.4     360     21    125    361    383  86.6  19.1  34096  288.49 0855.33
2009/04/23 09:36:30.5     395     30    167    397    430  85.7  24.2  34096  288.50 0855.33
2009/04/23 09:36:30.6     256     -7    280    257    380  91.7  52.7  34100  288.54 0855.33
2009/04/23 09:36:30.7     125   -150    202    196    281 140.3  50.9  34096  288.48 0855.33
2009/04/23 09:36:30.8      54    -74    185     92    206 143.9  71.9  34100  288.57 0855.33
2009/04/23 09:36:30.9     -36    -13    114     39    120 250.0  81.2  34104  288.64 0855.33
2009/04/23 09:36:31.0     -52    -50    203     73    215 226.0  79.5  34098  288.53 0855.33
2009/04/23 09:36:31.1    -137   -166    328    216    392 219.7  63.6  34100  288.57 0855.33
2009/04/23 09:36:31.2    -102   -282    189    300    354 200.0  35.2  34100  288.54 0855.33
2009/04/23 09:36:31.3       0   -337    254    338    422 180.1  40.7  34098  288.52 0855.33
2009/04/23 09:36:31.4     197   -470    294    510    588 157.2  32.4  34082  288.26 0855.33
2009/04/23 09:36:31.5     173   -476    301    507    589 160.0  33.5  34090  288.40 0855.33
2009/04/23 09:36:31.6     102   -502    161    513    538 168.5  17.5  34098  288.53 0855.33
2009/04/23 09:36:31.7       2   -544    185    545    576 179.8  18.8  34096  288.50 0855.33
2009/04/23 09:36:31.8    -225   -472    222    523    568 205.5  24.5  34094  288.45 0855.33
2009/04/23 09:36:31.9    -124   -498    179    514    545 194.1  19.2  34098  288.52 0855.33
2009/04/23 09:36:32.0     -96   -444    101    455    467 192.3  12.6  34098  288.51 0855.33
2009/04/23 09:36:32.1    -152   -317      6    352    353 205.7   1.1  34100  288.57 0855.33
2009/04/23 09:36:32.2     -58   -353     30    358    360 189.4   4.9  34098  288.52 0855.33
2009/04/23 09:36:32.3       4   -343    117    344    364 179.2  18.9  34100  288.54 0855.33
2009/04/23 09:36:32.4      77   -334    166    343    381 167.0  27.4  34098  288.52 0855.32
2009/04/23 09:36:32.5     170   -345    155    385    415 153.8  23.1  34102  288.58 0855.32
2009/04/23 09:36:32.6      -5   -294     75    295    305 181.0  14.3  34102  288.59 0855.32
2009/04/23 09:36:32.7       0   -270    182    271    326 180.0  37.0  34102  288.58 0855.32
2009/04/23 09:36:32.8    -111   -362    308    379    488 197.2  43.3  34102  288.58 0855.32
2009/04/23 09:36:32.9    -156   -217    148    268    306 215.8  31.4  34094  288.44 0855.32
2009/04/23 09:36:33.0      39   -193     73    198    211 168.4  20.9  34102  288.60 0855.32
2009/04/23 09:36:33.1     -72    -87    109    114    157 219.6  48.7  34104  288.64 0855.32
2009/04/23 09:36:33.2     -42    -12     64     44     77 254.1  62.6  34108  288.70 0855.32
2009/04/23 09:36:33.3     -31    -94     36    100    106 198.3  20.0  34106  288.67 0855.32
2009/04/23 09:36:33.4     -14   -179     28    180    183 184.5   9.0  34104  288.62 0855.32
2009/04/23 09:36:33.5     234   -182     81    297    308 128.0  15.3  34104  288.61 0855.32
2009/04/23 09:36:33.6     275   -222    125    354    376 129.0  19.6  34100  288.54 0855.32
2009/04/23 09:36:33.7     226   -211     62    310    317 133.1  11.4  34098  288.53 0855.32
2009/04/23 09:36:33.8     189   -193     77    271    282 135.7  16.0  34102  288.59 0855.32
2009/04/23 09:36:33.9     186   -231     35    297    300 141.2   6.9  34100  288.56 0855.32
2009/04/23 09:36:34.0     253   -178     84    310    322 125.1  15.1  34100  288.54 0855.32
2009/04/23 09:36:34.1     250   -249      3    353    354 134.9   0.5  34098  288.52 0855.32
2009/04/23 09:36:34.2     261   -189      4    323    324 125.9   0.8  34096  288.48 0855.32
2009/04/23 09:36:34.3     225   -232     99    324    339 135.9  17.1  34100  288.55 0855.32
2009/04/23 09:36:34.4     242   -287    132    376    398 139.9  20.1  34096  288.50 0855.35
2009/04/23 09:36:34.5     134   -197    106    239    261 145.7  25.3  34096  288.48 0855.35
2009/04/23 09:36:34.6     181   -144    -21    232    233 128.6  -5.2  34096  288.49 0855.35
2009/04/23 09:36:34.7     149    -62     26    162    165 112.6   9.3  34102  288.60 0855.35
2009/04/23 09:36:34.8      66   -130     66    146    160 152.9  25.9  34100  288.55 0855.35
2009/04/23 09:36:34.9      -2    -26    112     27    115 186.2  86.9  34106  288.67 0855.35
2009/04/23 09:36:35.0      98      7    116     99    152  85.6  55.4  34102  288.58 0855.35
2009/04/23 09:36:35.1     294   -110      5    315    316 110.6   1.0  34102  288.59 0855.35
2009/04/23 09:36:35.2     126   -119    -55    174    183 133.2 -17.6  34098  288.53 0855.35
2009/04/23 09:36:35.3     154   -148    -46    214    219 133.8 -12.2  34098  288.52 0855.35
2009/04/23 09:36:35.4      96   -142    -69    172    185 145.9 -27.4  34098  288.52 0855.35
2009/04/23 09:36:35.5     158    -21     26    160    163  97.7   9.3  34100  288.55 0855.35
2009/04/23 09:36:35.6     191     57    -59    200    208  73.4 -21.5  34098  288.52 0855.35
2009/04/23 09:36:35.7      88      6     28     89     94  85.6  17.9  34098  288.52 0855.35
2009/04/23 09:36:35.8     120    -40     -4    127    128 108.4  -2.2  34096  288.50 0855.35
2009/04/23 09:36:35.9      95     30    -35    100    107  72.3 -19.6  34098  288.53 0855.35
2009/04/23 09:36:36.0     125      0    -45    126    134  90.4 -19.7  34104  288.62 0855.35
2009/04/23 09:36:36.1      68    -80    -73    106    128 139.5 -42.0  34102  288.60 0855.35
2009/04/23 09:36:36.2      55    -71     33     91     96 142.2  20.0  34098  288.52 0855.35
2009/04/23 09:36:36.3      80   -219    166    234    286 159.9  38.8  34090  288.39 0855.35
2009/04/23 09:36:36.4      60   -273    146    280    315 167.5  29.8  34104  288.61 0855.34
2009/04/23 09:36:36.5       0   -438    236    439    498 180.0  30.6  34098  288.51 0855.34
2009/04/23 09:36:36.6     111   -381     79    397    405 163.7  11.3  34092  288.41 0855.34
2009/04/23 09:36:36.7      52   -440     29    444    445 173.2   3.8  34098  288.51 0855.34
2009/04/23 09:36:36.8      85   -431    128    440    459 168.8  16.3  34092  288.43 0855.34
2009/04/23 09:36:36.9     -15   -363     60    364    370 182.5   9.5  34100  288.57 0855.34
2009/04/23 09:36:37.0     -75   -337     28    346    348 192.6   4.7  34100  288.57 0855.34
2009/04/23 09:36:37.1     -34   -203   -120    206    238 189.7 -37.3  34098  288.53 0855.34
2009/04/23 09:36:37.2    -135   -303   -112    332    350 204.1 -23.6  34094  288.44 0855.34
2009/04/23 09:36:37.3     -23   -227    -68    229    238 186.0 -21.5  34092  288.41 0855.34
2009/04/23 09:36:37.4     -54   -289   -125    295    320 190.7 -28.7  34094  288.46 0855.34
2009/04/23 09:36:37.5      74   -198    -70    212    223 159.3 -23.8  34088  288.35 0855.34
2009/04/23 09:36:37.6     150   -160     -8    220    221 136.8  -2.2  34094  288.45 0855.34
2009/04/23 09:36:37.7     146    -70     88    163    185 115.8  30.8  34098  288.52 0855.34
2009/04/23 09:36:37.8     138      1    119    139    182  89.2  45.1  34096  288.48 0855.34
2009/04/23 09:36:37.9     169    -49     80    177    194 106.4  26.2  34096  288.50 0855.34
2009/04/23 09:36:38.0     194    -96     46    217    223 116.4  12.2  34090  288.38 0855.34
2009/04/23 09:36:38.1     138   -149     98    204    226 137.2  27.3  34096  288.48 0855.34
2009/04/23 09:36:38.2      42   -274    128    278    306 171.3  26.6  34090  288.39 0855.34
2009/04/23 09:36:38.3      14   -247    351    248    429 176.6  61.5  34086  288.33 0855.34
2009/04/23 09:36:38.4     182   -188     78    262    274 135.9  16.6  34092  288.41 0855.29
2009/04/23 09:36:38.5     193   -234    136    304    333 140.4  25.8  34092  288.43 0855.29
2009/04/23 09:36:38.6      75   -358    170    366    403 168.1  26.9  34092  288.42 0855.29
2009/04/23 09:36:38.7     -19   -350    -11    351    352 183.2  -1.9  34098  288.52 0855.29
2009/04/23 09:36:38.8     -84   -317     23    329    330 194.9   4.0  34100  288.55 0855.29
2009/04/23 09:36:38.9      22   -241    -13    243    244 174.7  -3.1  34094  288.44 0855.29
2009/04/23 09:36:39.0     140   -170   -106    221    245 140.4 -31.7  34098  288.51 0855.29
2009/04/23 09:36:39.1     107    -63      2    125    126 120.7   1.2  34090  288.40 0855.29
2009/04/23 09:36:39.2     219   -219    127    311    335 135.0  23.5  34094  288.44 0855.29
2009/04/23 09:36:39.3     308   -391    169    498    527 141.8  18.8  34094  288.44 0855.29
2009/04/23 09:36:39.4     429   -218    100    482    493 117.0  11.8  34090  288.40 0855.29
2009/04/23 09:36:39.5     259    -89      8    275    276 109.1   1.7  34094  288.46 0855.29
2009/04/23 09:36:39.6     149   -212    123    260    287 144.8  27.2  34092  288.43 0855.29
2009/04/23 09:36:39.7     386   -165    -71    421    427 113.2  -9.6  34082  288.24 0855.29
2009/04/23 09:36:39.8     320    -10     88    321    333  91.9  15.4  34090  288.38 0855.29
2009/04/23 09:36:39.9     336    -58    148    342    372  99.8  25.0  34082  288.25 0855.29
2009/04/23 09:36:40.0      65   -331    161    338    374 168.8  27.3  34082  288.25 0855.29
2009/04/23 09:36:40.1     -70   -374    136    381    404 190.6  20.4  34084  288.28 0855.29
2009/04/23 09:36:40.2     -73   -310    166    319    359 193.3  29.5  34088  288.35 0855.29
2009/04/23 09:36:40.3     -37   -197    171    201    263 190.9  44.8  34088  288.36 0855.29
2009/04/23 09:36:40.4      -2   -344    359    345    497 180.5  51.2  34086  288.31 0855.26
2009/04/23 09:36:40.5     -66   -229    176    239    296 196.0  39.7  34082  288.26 0855.26
2009/04/23 09:36:40.6      27   -385    258    386    464 175.9  36.9  34090  288.39 0855.26
2009/04/23 09:36:40.7     148   -417    188    443    481 160.4  24.5  34090  288.39 0855.26
2009/04/23 09:36:40.8     172   -271    115    322    341 147.5  20.2  34088  288.35 0855.26
2009/04/23 09:36:40.9     177   -280   -137    332    359 147.7 -28.0  34092  288.42 0855.26
2009/04/23 09:36:41.0     176   -195   -109    263    284 137.9 -28.5  34090  288.39 0855.26
2009/04/23 09:36:41.1     195   -149    -74    246    256 127.3 -21.7  34090  288.37 0855.26
2009/04/23 09:36:41.2     223   -159     38    274    277 125.5   8.0  34094  288.46 0855.26
2009/04/23 09:36:41.3     104   -181     24    209    211 150.1   6.7  34088  288.36 0855.26
2009/04/23 09:36:41.4      86   -207     83    225    239 157.5  21.0  34090  288.39 0855.26
2009/04/23 09:36:41.5     117   -162    102    201    225 144.2  28.7  34090  288.38 0855.26
2009/04/23 09:36:41.6     165   -220     31    276    278 143.1   6.5  34090  288.37 0855.26
2009/04/23 09:36:41.7      16   -195      4    196    197 175.3   1.2  34092  288.43 0855.26
2009/04/23 09:36:41.8      19   -174     55    176    185 173.8  17.3  34090  288.40 0855.26
2009/04/23 09:36:41.9     108   -212     69    238    248 153.0  16.3  34088  288.34 0855.26
2009/04/23 09:36:42.0     180   -180     87    255    270 134.9  18.9  34088  288.34 0855.26
2009/04/23 09:36:42.1     147   -239     84    281    294 148.4  16.8  34088  288.36 0855.26
2009/04/23 09:36:42.2     165   -193     89    255    271 139.5  19.2  34090  288.39 0855.26
2009/04/23 09:36:42.3      62   -218     35    227    230 164.0   9.0  34088  288.35 0855.26
2009/04/23 09:36:42.4      95   -190    -73    213    225 153.3 -23.3  34088  288.36 0855.26
2009/04/23 09:36:42.5     144   -141    -57    202    210 134.4 -15.8  34090  288.40 0855.26
2009/04/23 09:36:42.6     126    -24     -5    129    130 101.0  -2.2  34088  288.35 0855.26
2009/04/23 09:36:42.7     129     30     -2    133    134  76.7  -1.2  34090  288.38 0855.26
2009/04/23 09:36:42.8      88    106    -53    138    147  39.6 -26.4  34088  288.36 0855.26
2009/04/23 09:36:42.9      82    205    -28    221    223  21.9  -7.5  34086  288.33 0855.26
2009/04/23 09:36:43.0      87    219     38    236    240  21.8   9.3  34086  288.31 0855.26
2009/04/23 09:36:43.1     149    244     99    287    304  31.4  19.2  34086  288.32 0855.26
2009/04/23 09:36:43.2     101    231    105    253    273  23.7  23.8  34088  288.34 0855.26
2009/04/23 09:36:43.3     171    183    185    251    311  43.0  40.0  34088  288.36 0855.26
2009/04/23 09:36:43.4     241    163    234    292    374  55.9  43.0  34090  288.38 0855.26
2009/04/23 09:36:43.5     270     94    259    287    386  70.7  46.8  34084  288.30 0855.26
2009/04/23 09:36:43.6     312    126    153    337    370  67.9  26.2  34090  288.37 0855.26
2009/04/23 09:36:43.7     224     20    119    225    254  84.8  30.2  34088  288.36 0855.26
2009/04/23 09:36:43.8     230    -91     93    248    264 111.7  21.5  34080  288.22 0855.26
2009/04/23 09:36:43.9     217    -72     79    229    243 108.6  19.2  34080  288.22 0855.26
2009/04/23 09:36:44.0     134     -2     21    135    137  90.9   9.0  34086  288.31 0855.26
2009/04/23 09:36:44.1     148   -179    -36    233    236 140.4  -9.0  34086  288.31 0855.26
2009/04/23 09:36:44.2     155   -155    -12    220    221 135.0  -3.2  34084  288.28 0855.26
2009/04/23 09:36:44.3      83   -205     47    222    227 157.9  12.0  34082  288.25 0855.26
2009/04/23 09:36:44.4     130    -87     38    157    162 123.7  13.9  34084  288.28 0855.26
2009/04/23 09:36:44.5     115    -46     38    124    130 111.8  17.3  34084  288.30 0855.26
2009/04/23 09:36:44.6     103    -94     38    140    146 132.2  15.3  34084  288.30 0855.26
2009/04/23 09:36:44.7      39   -116     -6    123    124 161.3  -3.1  34084  288.30 0855.26
2009/04/23 09:36:44.8      25    -40      0     48     49 147.4  -0.3  34086  288.31 0855.26
2009/04/23 09:36:44.9      13    -66    -48     68     83 168.5 -43.5  34086  288.31 0855.26
2009/04/23 09:36:45.0       7    -67     13     68     70 173.8  11.0  34084  288.30 0855.26
2009/04/23 09:36:45.1       7    -23     82     25     85 161.5  82.8  34090  288.40 0855.26
2009/04/23 09:36:45.2     -16     18     71     25     75 318.6  81.2  34092  288.43 0855.26
2009/04/23 09:36:45.3     -30     56     62     64     89 331.1  50.0  34096  288.48 0855.26
2009/04/23 09:36:45.4      43     58     78     73    106  36.1  52.1  34094  288.47 0855.26
2009/04/23 09:36:45.5     169     73     60    185    195  66.5  17.9  34084  288.30 0855.26
2009/04/23 09:36:45.6     301     -4     26    302    304  90.9   5.0  34082  288.26 0855.26
2009/04/23 09:36:45.7     352      0    140    353    379  90.0  22.9  34084  288.30 0855.26
2009/04/23 09:36:45.8     383     53     83    387    396  82.0  12.1  34078  288.18 0855.26
2009/04/23 09:36:45.9     226    -31    198    229    302  97.9  45.4  34086  288.32 0855.26
2009/04/23 09:36:46.0     236    -46    179    241    300 101.2  40.1  34088  288.34 0855.26
2009/04/23 09:36:46.1     231     -3    280    232    363  90.8  56.3  34092  288.43 0855.26
2009/04/23 09:36:46.2     138    -45    140    146    202 108.2  49.0  34090  288.38 0855.26
2009/04/23 09:36:46.3     206    -97     59    228    236 115.2  14.7  34086  288.32 0855.26
2009/04/23 09:36:46.4     271   -110    122    293    317 112.2  23.8  34086  288.32 0855.26
2009/04/23 09:36:46.5     253    -60     32    261    264 103.5   7.1  34086  288.32 0855.26
2009/04/23 09:36:46.6     246    -61    100    254    272 104.1  22.8  34090  288.39 0855.26
2009/04/23 09:36:46.7     225    -69     98    236    255 107.1  24.1  34094  288.46 0855.26
2009/04/23 09:36:46.8     189    -75    130    204    241 111.7  35.6  34092  288.42 0855.26
2009/04/23 09:36:46.9     129    -81    145    153    210 122.0  48.5  34094  288.45 0855.26
2009/04/23 09:36:47.0     159    -71    119    175    211 114.2  37.4  34098  288.52 0855.26
2009/04/23 09:36:47.1      30    -47    138     56    148 147.5  77.0  34100  288.55 0855.26
2009/04/23 09:36:47.2     -13     18    133     23    134 323.9  90.0  34106  288.67 0855.26
2009/04/23 09:36:47.3       9     -1    119     10    119 101.5  90.0  34102  288.60 0855.26
2009/04/23 09:36:47.4      39     32    107     51    118  50.5  72.9  34102  288.60 0855.27
2009/04/23 09:36:47.5      14     12    111     19    112  48.7  90.0  34104  288.62 0855.27
2009/04/23 09:36:47.6     115     10    179    116    213  84.8  64.6  34100  288.57 0855.27
2009/04/23 09:36:47.7      22     17    131     28    133  52.2  89.0  34108  288.70 0855.27
2009/04/23 09:36:47.8     -16     10    105     19    106 302.5  90.0  34108  288.70 0855.27
2009/04/23 09:36:47.9     114      7    161    115    197  86.1  60.8  34096  288.48 0855.27
2009/04/23 09:36:48.0      55     41    122     69    140  53.1  68.8  34100  288.55 0855.27
2009/04/23 09:36:48.1     -34    -17    144     39    149 242.9  84.9  34106  288.65 0855.27
2009/04/23 09:36:48.2    -100    100    168    142    219 315.0  55.6  34102  288.58 0855.27
2009/04/23 09:36:48.3     -75    118    100    140    172 327.5  38.8  34100  288.55 0855.27
2009/04/23 09:36:48.4    -274     51    139    279    311 280.6  28.2  34104  288.63 0855.27
2009/04/23 09:36:48.5    -378    175     17    417    418 294.8   2.3  34100  288.56 0855.27
2009/04/23 09:36:48.6    -236    202    163    311    351 310.5  29.8  34100  288.54 0855.27
2009/04/23 09:36:48.7    -110     97    123    147    191 311.4  44.1  34102  288.58 0855.27
2009/04/23 09:36:48.8     -14      2    134     15    134 281.5  90.0  34102  288.60 0855.27
2009/04/23 09:36:48.9      -1    122    113    123    167 359.1  47.5  34106  288.67 0855.27
2009/04/23 09:36:49.0    -192    105    117    220    249 298.8  30.2  34100  288.54 0855.27
2009/04/23 09:36:49.1     -24    137    156    140    209 349.8  53.7  34100  288.57 0855.27
2009/04/23 09:36:49.2      11    -32    129     35    133 160.0  84.8  34104  288.62 0855.27
2009/04/23 09:36:49.3      36   -211    253    215    332 170.3  55.5  34104  288.61 0855.27
2009/04/23 09:36:49.4      22   -301    299    302    424 175.8  49.9  34106  288.67 0855.28
2009/04/23 09:36:49.5     117   -405    315    422    526 163.9  40.4  34096  288.49 0855.28
2009/04/23 09:36:49.6      34   -357    303    359    469 174.4  44.5  34108  288.70 0855.28
2009/04/23 09:36:49.7       1   -350    315    351    471 179.7  46.5  34110  288.73 0855.28
2009/04/23 09:36:49.8       0   -214    290    215    361 179.8  60.0  34106  288.65 0855.28
2009/04/23 09:36:49.9     -65   -334    236    341    414 191.1  38.0  34106  288.66 0855.28
2009/04/23 09:36:50.0     -42   -295    176    299    346 188.1  33.1  34106  288.66 0855.28
2009/04/23 09:36:50.1     -34   -259    107    262    283 187.6  23.1  34106  288.66 0855.28
2009/04/23 09:36:50.2     -27   -158    122    161    202 189.8  41.2  34102  288.60 0855.28
2009/04/23 09:36:50.3      -5    -40    115     41    122 188.0  79.7  34112  288.77 0855.28
2009/04/23 09:36:50.4      30    -56    125     64    140 151.1  70.8  34108  288.69 0855.28
2009/04/23 09:36:50.5     103    -54    115    117    164 117.5  50.0  34106  288.65 0855.28
2009/04/23 09:36:50.6      -4    -53     76     54     93 184.5  61.1  34112  288.75 0855.28
2009/04/23 09:36:50.7     -34   -106     80    112    137 197.8  39.5  34104  288.64 0855.28
2009/04/23 09:36:50.8     -54   -108     93    122    153 206.7  41.2  34102  288.58 0855.28
2009/04/23 09:36:50.9     -78   -159     93    178    200 206.1  29.5  34104  288.62 0855.28
2009/04/23 09:36:51.0     -87   -211     98    229    249 202.5  24.6  34104  288.63 0855.28
2009/04/23 09:36:51.1     -69   -209    101    221    242 198.3  26.2  34104  288.63 0855.28
2009/04/23 09:36:51.2     -59   -141    153    153    216 202.7  50.1  34106  288.65 0855.28
2009/04/23 09:36:51.3      -7    -64     98     65    117 186.2  63.2  34112  288.75 0855.28
2009/04/23 09:36:51.4      41   -104     80    113    138 158.2  39.1  34108  288.69 0855.30
2009/04/23 09:36:51.5      -1   -193    211    194    286 180.5  52.7  34106  288.66 0855.30
2009/04/23 09:36:51.6     -86   -182    197    202    282 205.3  49.4  34104  288.61 0855.30
2009/04/23 09:36:51.7    -108    -95     35    145    150 228.7  13.7  34098  288.52 0855.30
2009/04/23 09:36:51.8    -236     36    -59    239    247 278.8 -13.9  34100  288.56 0855.30
2009/04/23 09:36:51.9    -152     57      8    163    164 290.8   2.9  34100  288.55 0855.30
2009/04/23 09:36:52.0     -72     43    -44     85     95 301.1 -33.7  34100  288.57 0855.30
2009/04/23 09:36:52.1     -21    -65    120     69    138 198.3  67.7  34110  288.72 0855.30
2009/04/23 09:36:52.2      -7     -7    140     11    140 225.0  90.0  34112  288.75 0855.30
2009/04/23 09:36:52.3     -75     63    137     98    168 310.0  61.1  34112  288.75 0855.30
2009/04/23 09:36:52.4    -100     26     70    104    125 284.6  37.4  34106  288.65 0855.30
2009/04/23 09:36:52.5    -108     80     57    135    146 306.4  24.1  34106  288.67 0855.30
2009/04/23 09:36:52.6    -114      3     37    115    121 271.7  17.9  34104  288.62 0855.30
2009/04/23 09:36:52.7    -151      2     38    152    157 270.9  14.3  34104  288.62 0855.30
2009/04/23 09:36:52.8    -205     13     -1    206    207 273.7  -0.5  34104  288.64 0855.30
2009/04/23 09:36:52.9    -146     -3    -33    147    151 268.7 -12.9  34098  288.52 0855.30
2009/04/23 09:36:53.0    -177     91     37    200    204 297.3  10.6  34096  288.48 0855.30
2009/04/23 09:36:53.1    -360    -72     20    368    369 258.6   3.1  34090  288.40 0855.30
2009/04/23 09:36:53.2    -367     20   -142    368    394 273.2 -26.6  34100  288.57 0855.30
2009/04/23 09:36:53.3    -444     20   -119    445    461 272.6 -15.1  34096  288.50 0855.30
2009/04/23 09:36:53.4    -272    256      9    374    375 313.2   1.5  34096  288.50 0855.28
2009/04/23 09:36:53.5    -285    222    -88    362    373 307.9 -13.8  34100  288.54 0855.28
2009/04/23 09:36:53.7    -370    143     36    397    399 291.2   5.3  34104  288.62 0855.28
2009/04/23 09:36:53.8    -449     78   -142    456    478 279.9 -17.3  34108  288.69 0855.28
2009/04/23 09:36:53.9    -507    153   -129    530    546 286.8 -13.7  34108  288.70 0855.28
2009/04/23 09:36:53.9    -561     72    -86    566    573 277.4  -8.7  34088  288.36 0855.28
2009/04/23 09:36:54.0    -492   -104   -102    504    515 258.0 -11.5  34090  288.37 0855.28
2009/04/23 09:36:54.1    -338    -68    172    345    385 258.6  28.5  34100  288.57 0855.28
2009/04/23 09:36:54.2    -329     77    -38    339    342 283.3  -6.5  34102  288.59 0855.28
2009/04/23 09:36:54.3    -264    122    -53    291    296 294.8 -10.4  34106  288.66 0855.28
2009/04/23 09:36:54.4    -337     55    -53    342    347 279.4  -8.9  34100  288.57 0855.28
2009/04/23 09:36:54.6    -386    -94   -133    398    420 256.3 -18.6  34098  288.51 0855.28
2009/04/23 09:36:54.6    -319   -173    -85    364    374 241.5 -13.2  34092  288.42 0855.28
2009/04/23 09:36:54.7    -248   -200   -112    319    339 231.1 -19.4  34092  288.42 0855.28
2009/04/23 09:36:54.9    -360   -182   -106    404    418 243.2 -14.8  34092  288.43 0855.28
2009/04/23 09:36:55.0    -360   -105    -48    376    380 253.7  -7.3  34098  288.52 0855.28
2009/04/23 09:36:55.1    -307   -111     34    327    329 250.0   6.0  34092  288.43 0855.28
2009/04/23 09:36:55.2    -313   -116    -42    335    338 249.6  -7.2  34100  288.57 0855.28
2009/04/23 09:36:55.3    -296    -51    -90    301    315 260.1 -16.6  34106  288.65 0855.28
2009/04/23 09:36:55.4    -345    111    -34    363    365 287.9  -5.5  34102  288.59 0855.28
2009/04/23 09:36:55.5    -351     91    -60    363    369 284.6  -9.5  34104  288.64 0855.28
2009/04/23 09:36:55.6    -279     47    -43    284    288 279.7  -8.6  34096  288.48 0855.28
2009/04/23 09:36:55.7    -265     18    -54    266    272 273.9 -11.5  34102  288.59 0855.28
2009/04/23 09:36:55.8    -296     13    -85    297    308 272.6 -20.8  34098  288.53 0855.28
2009/04/23 09:36:55.9    -312    -34    -66    314    321 263.6 -11.9  34102  288.58 0855.28
2009/04/23 09:36:56.0    -305    -56    -61    311    318 259.6 -11.1  34102  288.59 0855.28
2009/04/23 09:36:56.1    -309     26    -92    311    325 274.9 -16.5  34104  288.63 0855.28
2009/04/23 09:36:56.2    -339     71   -116    347    367 281.9 -18.6  34116  288.84 0855.28
2009/04/23 09:36:56.3    -338    111   -112    356    374 288.3 -17.6  34112  288.77 0855.28
2009/04/23 09:36:56.4    -305      0    -88    306    318 270.0 -20.9  34110  288.71 0855.28
2009/04/23 09:36:56.5    -284    -73   -101    294    311 255.6 -19.0  34108  288.68 0855.28
2009/04/23 09:36:56.6    -233    -51    -68    239    248 257.6 -20.7  34096  288.48 0855.28
2009/04/23 09:36:56.7    -321    -44    -53    325    330 262.1  -9.3  34106  288.65 0855.28
2009/04/23 09:36:56.8    -257   -140    -87    293    306 241.4 -16.6  34110  288.71 0855.28
2009/04/23 09:36:56.9    -344   -144    -54    373    377 247.3  -8.4  34116  288.81 0855.28
2009/04/23 09:36:57.0    -399   -174   -145    436    459 246.5 -23.8  34110  288.73 0855.28
2009/04/23 09:36:57.1    -406   -205   -139    456    477 243.2 -17.0  34112  288.76 0855.28
2009/04/23 09:36:57.2    -429   -170   -161    462    490 248.3 -19.3  34110  288.71 0855.28
2009/04/23 09:36:57.3    -371   -204   -201    424    469 241.1 -31.5  34102  288.58 0855.28
2009/04/23 09:36:57.4    -404    -67   -216    410    463 260.5 -34.6  34096  288.50 0855.28
2009/04/23 09:36:57.5    -353   -102   -129    368    389 253.8 -24.4  34106  288.66 0855.26
2009/04/23 09:36:57.6    -369     16    -14    370    371 272.5  -2.2  34110  288.74 0855.26
2009/04/23 09:36:57.7    -361    114   -105    379    393 287.6 -20.2  34112  288.76 0855.26
2009/04/23 09:36:57.8    -276     93   -126    292    318 288.6 -29.2  34112  288.75 0855.26
2009/04/23 09:36:57.9    -240     60   -137    248    283 284.2 -35.8  34108  288.70 0855.26
2009/04/23 09:36:58.0    -262     97    -89    280    293 290.4 -22.8  34114  288.80 0855.26
2009/04/23 09:36:58.1    -267     47   -103    272    290 280.1 -25.9  34110  288.73 0855.26
2009/04/23 09:36:58.2    -236    -13   -179    237    297 266.7 -45.1  34094  288.44 0855.26
2009/04/23 09:36:58.3    -197    196    -35    279    282 314.9  -7.2  34108  288.70 0855.26
2009/04/23 09:36:58.4      17     26    -18     32     36  32.5 -37.9  34106  288.67 0855.26
2009/04/23 09:36:58.5     -63    -33      3     72     73 242.0   2.8  34106  288.67 0855.26
2009/04/23 09:36:58.6     -71     11     82     72    109 278.8  53.7  34102  288.58 0855.26
2009/04/23 09:36:58.7    -123    -23      7    126    127 259.4   3.3  34114  288.80 0855.26
2009/04/23 09:36:58.8    -141     10    -18    142    144 274.4  -7.3  34114  288.79 0855.26
2009/04/23 09:36:58.9    -212     67   -100    223    244 287.7 -30.3  34112  288.76 0855.26
2009/04/23 09:36:59.0    -270    -90    -90    285    300 251.6 -17.6  34098  288.53 0855.26
2009/04/23 09:36:59.1    -289    -83    -81    301    312 253.8 -15.1  34112  288.75 0855.26
2009/04/23 09:36:59.2    -116   -181    -16    216    217 212.7  -4.4  34108  288.70 0855.26
2009/04/23 09:36:59.3    -260    -86    -13    275    276 251.6  -2.8  34106  288.65 0855.26
2009/04/23 09:36:59.4    -353   -176     89    395    406 243.5  12.8  34112  288.76 0855.26
2009/04/23 09:36:59.5    -300   -165    -37    343    346 241.1  -6.2  34110  288.74 0855.23
2009/04/23 09:36:59.6    -485   -110   -145    498    518 257.2 -21.0  34120  288.90 0855.23
2009/04/23 09:36:59.7    -356   -127   -113    379    396 250.3 -16.7  34094  288.47 0855.23
2009/04/23 09:36:59.8    -366   -274    -64    458    463 233.2  -8.0  34112  288.77 0855.23
2009/04/23 09:36:59.9    -397   -110    -59    412    417 254.5  -8.2  34116  288.83 0855.23
2009/04/23 09:37:00.0    -345   -202    -87    400    410 239.6 -12.4  34120  288.90 0855.23
2009/04/23 09:37:00.1    -242    -66     76    251    263 254.7  16.8  34106  288.65 0855.23
2009/04/23 09:37:00.2    -158   -128    137    204    245 230.9  37.3  34110  288.73 0855.23
2009/04/23 09:37:00.3     -93   -190    120    212    243 206.3  32.3  34114  288.78 0855.23
2009/04/23 09:37:00.4      73   -219     98    231    250 161.5  24.3  34116  288.81 0855.23
2009/04/23 09:37:00.5      17   -160    172    161    235 173.8  52.2  34114  288.79 0855.23
2009/04/23 09:37:00.6      39   -142    206    148    253 164.4  60.6  34108  288.69 0855.23
2009/04/23 09:37:00.7      83   -138    202    162    258 148.8  57.3  34102  288.60 0855.23
2009/04/23 09:37:00.8      84   -253    218    267    344 161.5  43.6  34102  288.58 0855.23
2009/04/23 09:37:00.9       8   -130    213    131    250 176.4  65.6  34102  288.58 0855.23
2009/04/23 09:37:01.0      28    -87    174     92    196 161.7  70.0  34104  288.62 0855.23
2009/04/23 09:37:01.1     -48      7    136     49    144 278.8  80.2  34110  288.72 0855.23
2009/04/23 09:37:01.2     -32     55    130     64    144 329.3  71.9  34112  288.77 0855.23
2009/04/23 09:37:01.3     -59    -60    180     85    199 224.5  73.1  34108  288.70 0855.23
2009/04/23 09:37:01.4     -72   -117    226    138    264 211.6  65.7  34104  288.64 0855.23
2009/04/23 09:37:01.5      -7   -116    212    117    242 183.6  68.8  34102  288.58 0855.20
2009/04/23 09:37:01.6      -8   -102    191    103    217 184.5  69.1  34106  288.65 0855.20
2009/04/23 09:37:01.7    -103   -172    169    201    262 211.0  44.3  34100  288.56 0855.20
2009/04/23 09:37:01.8      -1    -32    180     33    183 182.6  90.0  34106  288.67 0855.20
2009/04/23 09:37:01.9      22   -206    245    208    321 173.8  55.4  34110  288.71 0855.20
2009/04/23 09:37:02.0     -44   -275    215    279    352 189.1  41.6  34100  288.55 0855.20
2009/04/23 09:37:02.1       0   -280    183    281    335 180.0  36.2  34098  288.51 0855.20
2009/04/23 09:37:02.2     -25   -190    186    192    267 187.6  49.0  34102  288.59 0855.20
2009/04/23 09:37:02.3      19   -133    175    135    221 171.5  58.5  34098  288.52 0855.20
2009/04/23 09:37:02.4      99   -167    163    195    254 149.3  44.1  34100  288.56 0855.20
2009/04/23 09:37:02.5      17   -269    218    270    347 176.4  43.3  34102  288.59 0855.20
2009/04/23 09:37:02.6      59   -258    118    265    290 167.1  25.3  34098  288.51 0855.20
2009/04/23 09:37:02.7      70   -242     59    252    259 163.9  13.2  34100  288.56 0855.20
2009/04/23 09:37:02.8       9   -202     92    203    222 177.3  25.9  34100  288.57 0855.20
2009/04/23 09:37:02.9     -28   -215     80    217    231 187.6  20.9  34104  288.62 0855.20
2009/04/23 09:37:03.0     -78   -182    113    199    228 203.2  32.1  34092  288.42 0855.20
2009/04/23 09:37:03.1     -77   -183    200    199    282 202.9  50.1  34100  288.56 0855.20
2009/04/23 09:37:03.2      20   -156    145    158    214 172.4  47.7  34102  288.60 0855.20
2009/04/23 09:37:03.3      25   -240     79    242    255 174.0  18.1  34104  288.61 0855.20
2009/04/23 09:37:03.4      -4   -156     25    157    160 181.8   9.3  34102  288.58 0855.20
2009/04/23 09:37:03.5     -85   -152     25    175    177 209.2   8.2  34102  288.58 0855.17
2009/04/23 09:37:03.6     -22   -109     49    112    122 191.6  25.1  34104  288.62 0855.17
2009/04/23 09:37:03.7      64    -74     19     99    101 139.0  11.1  34104  288.62 0855.17
2009/04/23 09:37:03.8      67    -22     65     71     96 108.6  47.9  34108  288.70 0855.17
2009/04/23 09:37:03.9      76    -25     75     81    110 108.6  47.9  34108  288.70 0855.17
2009/04/23 09:37:04.0      76    -25     75     81    110 108.6  47.9  34108  288.70 0855.17
2009/04/23 09:37:04.1      42    -20     73     47     86 116.2  64.6  34108  288.69 0855.17
2009/04/23 09:37:04.2     -36      7     45     37     58 281.4  56.3  34114  288.80 0855.17
2009/04/23 09:37:04.3     -72     -1     44     73     85 269.1  34.4  34110  288.74 0855.17
2009/04/23 09:37:04.4     -44     -3     52     45     68 265.6  55.4  34110  288.74 0855.17
2009/04/23 09:37:04.5     -30     25     51     40     64 309.6  58.5  34110  288.72 0855.17
2009/04/23 09:37:04.6     -59     47     36     76     84 308.6  27.2  34108  288.70 0855.17
2009/04/23 09:37:04.7       6     65     56     66     86   5.3  45.4  34112  288.75 0855.17
2009/04/23 09:37:04.8      71     75     20    104    107  43.3  11.1  34102  288.60 0855.17
2009/04/23 09:37:04.9     152     50     89    161    183  71.8  31.4  34104  288.62 0855.17
2009/04/23 09:37:05.0     237    -90    164    254    302 110.8  35.6  34104  288.61 0855.17
2009/04/23 09:37:05.1     150   -193    137    245    280 142.1  31.6  34106  288.65 0855.17
2009/04/23 09:37:05.2      59   -148    141    160    213 158.2  45.9  34110  288.74 0855.17
2009/04/23 09:37:05.3      80   -127    136    151    203 147.9  46.9  34108  288.70 0855.17
2009/04/23 09:37:05.4     125   -156     89    201    219 141.3  25.3  34108  288.70 0855.17
2009/04/23 09:37:05.5      67    -80     10    105    106 140.3   5.9  34108  288.69 0855.12
2009/04/23 09:37:05.6      83   -131     21    156    158 147.5   8.0  34110  288.72 0855.12
2009/04/23 09:37:05.7     109   -163    122    197    231 146.2  35.2  34110  288.72 0855.12
2009/04/23 09:37:05.8     -43   -192    114    197    227 192.7  32.7  34104  288.62 0855.12
2009/04/23 09:37:05.9      59      4    143     60    155  85.6  76.6  34100  288.57 0855.12
2009/04/23 09:37:06.0     -36   -110    106    116    157 198.3  47.5  34102  288.60 0855.12
2009/04/23 09:37:06.1       7   -214     96    215    235 178.0  25.7  34104  288.62 0855.12
2009/04/23 09:37:06.2      -9   -212    113    213    241 182.6  30.2  34102  288.58 0855.12
2009/04/23 09:37:06.3      26   -142    145    145    205 169.3  50.1  34110  288.72 0855.12
2009/04/23 09:37:06.4       9   -122    145    123    190 175.6  55.6  34110  288.72 0855.12
2009/04/23 09:37:06.5      46   -113    147    123    191 157.7  56.1  34108  288.70 0855.12
2009/04/23 09:37:06.6      -9   -205     50    206    212 182.6  13.7  34108  288.69 0855.12
2009/04/23 09:37:06.7      22   -174    101    176    202 172.7  32.7  34106  288.67 0855.12
2009/04/23 09:37:06.8      83   -169     97    189    212 153.7  29.3  34106  288.67 0855.12
2009/04/23 09:37:06.9     135   -204    161    245    293 146.4  36.5  34104  288.63 0855.12
2009/04/23 09:37:07.0     212   -213    208    301    365 135.2  37.9  34106  288.66 0855.12
2009/04/23 09:37:07.1     181   -217    235    283    367 140.1  43.8  34110  288.71 0855.12
2009/04/23 09:37:07.2     191   -121    165    227    280 122.4  39.7  34110  288.71 0855.12
2009/04/23 09:37:07.3     115   -108    122    158    199 133.1  41.7  34108  288.70 0855.12
2009/04/23 09:37:07.4      57    -34    144     67    158 120.7  73.5  34112  288.77 0855.12
2009/04/23 09:37:07.5      -2   -115    124    116    169 181.4  52.2  34110  288.72 0855.18
2009/04/23 09:37:07.6      16    -48    119     51    129 161.5  75.0  34110  288.74 0855.18
2009/04/23 09:37:07.7     -86    -53    158    102    188 238.5  64.6  34114  288.80 0855.18
2009/04/23 09:37:07.8     -53   -104    185    118    219 207.2  64.7  34108  288.69 0855.18
2009/04/23 09:37:07.9     -95   -115    185    150    238 219.7  57.1  34108  288.70 0855.18
2009/04/23 09:37:08.0    -163   -118    165    202    260 234.1  43.7  34114  288.80 0855.18
2009/04/23 09:37:08.1    -180    -86     38    200    204 244.2  11.0  34134  289.14 0855.18
2009/04/23 09:37:08.2    -168   -106    -63    199    208 237.8 -22.8  34120  288.91 0855.18
2009/04/23 09:37:08.3     -54   -161    -50    170    177 198.7 -21.2  34120  288.89 0855.18
2009/04/23 09:37:08.4       8   -126    -28    127    131 176.0 -12.4  34116  288.84 0855.18
2009/04/23 09:37:08.5      82   -132     55    156    166 147.9  19.4  34118  288.86 0855.21
2009/04/23 09:37:08.6      74   -181     99    196    219 157.7  29.1  34110  288.72 0855.21
2009/04/23 09:37:08.7      17   -119    117    121    168 171.5  49.2  34110  288.74 0855.21
2009/04/23 09:37:08.8     -25    -76    100     81    128 198.7  56.4  34118  288.87 0855.21
2009/04/23 09:37:08.9     -39    -25     51     47     69 237.6  52.2  34122  288.94 0855.21
2009/04/23 09:37:09.0     -57    -54     57     79     97 226.9  39.7  34128  289.04 0855.21
2009/04/23 09:37:09.1     -25   -102     86    106    136 193.8  43.7  34124  288.96 0855.21
2009/04/23 09:37:09.2      -3   -120     70    121    139 181.8  32.4  34116  288.82 0855.21
2009/04/23 09:37:09.3      37    -94     74    102    126 158.2  39.7  34110  288.74 0855.21
2009/04/23 09:37:09.4      36    -29    100     47    110 128.6  73.1  34116  288.82 0855.21
2009/04/23 09:37:09.5      32     21    118     39    124  55.8  80.7  34122  288.94 0855.21
2009/04/23 09:37:09.6      71     12    156     73    172  80.3  73.2  34132  289.11 0855.21
2009/04/23 09:37:09.7       7      6    128     10    128  50.5  90.0  34130  289.06 0855.21
2009/04/23 09:37:09.8     -20     66    110     70    130 343.1  64.7  34146  289.35 0855.21
2009/04/23 09:37:09.9     -52     94    103    108    149 331.1  48.5  34138  289.21 0855.21
2009/04/23 09:37:10.0       0    123    139    124    186 359.6  53.7  34154  289.46 0855.21
2009/04/23 09:37:10.1     203    195    198    282    344  46.2  38.6  34132  289.10 0855.21
2009/04/23 09:37:10.2     221     98    153    242    286  66.0  35.5  34132  289.09 0855.21
2009/04/23 09:37:10.3     104     91    186    139    232  48.7  60.0  34156  289.50 0855.21
2009/04/23 09:37:10.4     142     99    234    174    291  55.1  59.8  34150  289.39 0855.21
2009/04/23 09:37:10.5     149    160    209    219    302  43.0  48.5  34110  288.71 0855.23
2009/04/23 09:37:10.6     136    164    171    214    273  39.6  42.7  34112  288.76 0855.23
2009/04/23 09:37:10.7      75     92    153    119    193  39.2  58.2  34114  288.80 0855.23
2009/04/23 09:37:10.8      50    122    143    132    194  22.3  52.2  34126  289.01 0855.23
2009/04/23 09:37:10.9      71    302    154    311    347  13.3  28.2  34120  288.91 0855.23
2009/04/23 09:37:11.0      57    454     71    458    464   7.2   8.9  34104  288.61 0855.23
2009/04/23 09:37:11.1       5    309     96    310    325   1.0  17.3  34114  288.80 0855.23
2009/04/23 09:37:11.2     119     71    195    139    239  59.3  61.1  34118  288.86 0855.23
2009/04/23 09:37:11.3      65     83    178    106    207  38.3  66.7  34122  288.92 0855.23
2009/04/23 09:37:11.4     138     99    171    171    241  54.3  50.1  34116  288.84 0855.23
2009/04/23 09:37:11.5     122     58    107    136    173  64.7  42.2  34120  288.91 0855.23
2009/04/23 09:37:11.6      96    138     98    169    195  34.7  32.9  34124  288.96 0855.23
2009/04/23 09:37:11.7     243    123    221    273    351  63.1  43.1  34128  289.02 0855.23
2009/04/23 09:37:11.8     244    145    160    285    326  59.3  31.9  34132  289.10 0855.23
2009/04/23 09:37:11.9     157    220    108    271    291  35.6  23.0  34136  289.15 0855.23
2009/04/23 09:37:12.0     112    203      4    232    233  28.9   1.0  34144  289.29 0855.23
2009/04/23 09:37:12.1      98    237     -5    257    258  22.5  -1.3  34182  289.93 0855.23
2009/04/23 09:37:12.2      55    277    -91    283    297  11.3 -23.0  34170  289.73 0855.23
2009/04/23 09:37:12.3     233    123    -97    264    281  62.0 -25.3  34156  289.51 0855.23
2009/04/23 09:37:12.4     161     56    -87    171    191  70.7 -33.1  34150  289.41 0855.23
2009/04/23 09:37:12.5      92     66    -47    114    123  54.0 -27.5  34140  289.24 0855.24
2009/04/23 09:37:12.6      39     87     30     96    101  24.1  17.3  34146  289.35 0855.24
2009/04/23 09:37:12.7     244    165     31    295    297  55.9   6.1  34120  288.90 0855.24
2009/04/23 09:37:12.8     655    247    150    701    718  69.3  12.1  34106  288.66 0855.24
2009/04/23 09:37:12.9     615    249    326    664    739  67.9  28.1  34106  288.67 0855.24
2009/04/23 09:37:13.0     463     72    327    469    571  81.1  38.5  34110  288.72 0855.24
2009/04/23 09:37:13.1     341   -121    285    363    461 109.6  42.2  34108  288.68 0855.24
2009/04/23 09:37:13.2     380    -57    154    385    414  98.6  23.0  34124  288.95 0855.24
2009/04/23 09:37:13.3     365    -77    174    374    412 101.9  26.9  34116  288.81 0855.24
2009/04/23 09:37:13.4     346    -87    222    357    420 104.2  35.0  34120  288.91 0855.24
2009/04/23 09:37:13.5     408    -63    235    413    475  98.8  32.3  34126  288.99 0855.24
2009/04/23 09:37:13.6     332    -94    188    346    393 105.9  30.9  34110  288.74 0855.24
2009/04/23 09:37:13.7     266   -168    192    315    368 122.4  34.3  34120  288.88 0855.24
2009/04/23 09:37:13.8     133    -43    206    140    249 108.2  62.6  34122  288.94 0855.24
2009/04/23 09:37:13.9     147    -69    169    163    234 115.2  51.2  34118  288.86 0855.24
2009/04/23 09:37:14.0      60   -375    235    380    446 170.8  34.8  34124  288.95 0855.24
2009/04/23 09:37:14.1     180   -410    156    448    475 156.3  19.3  34124  288.96 0855.24
2009/04/23 09:37:14.2     200   -364    142    416    440 151.1  18.9  34124  288.97 0855.24
2009/04/23 09:37:14.3     225   -330     69    400    407 145.6   9.9  34124  288.97 0855.24
2009/04/23 09:37:14.4     140   -273    175    308    354 152.8  32.1  34122  288.94 0855.24
2009/04/23 09:37:14.5     164   -348     84    385    395 154.7  12.4  34124  288.96 0855.25
2009/04/23 09:37:14.6     159   -331    187    368    412 154.3  29.1  34124  288.96 0855.25
2009/04/23 09:37:14.7      57   -467    171    471    501 173.0  20.8  34126  289.01 0855.25
2009/04/23 09:37:14.8      49   -435    110    438    452 173.5  14.2  34112  288.77 0855.25
2009/04/23 09:37:14.9     -40   -400     30    403    405 185.8   4.3  34116  288.82 0855.25
2009/04/23 09:37:15.0    -129   -399    -45    420    423 197.9  -6.2  34122  288.92 0855.25
2009/04/23 09:37:15.1       1   -418     97    419    431 179.8  13.1  34114  288.80 0855.25
2009/04/23 09:37:15.2     -54   -439     56    443    447 187.1   7.2  34116  288.82 0855.25
2009/04/23 09:37:15.3     -78   -282     43    293    297 195.6   8.5  34120  288.90 0855.25
2009/04/23 09:37:15.4       0   -243     -2    244    245 180.2  -0.5  34114  288.78 0855.25
2009/04/23 09:37:15.5     -86   -245    111    260    282 199.4  24.3  34124  288.97 0855.25
2009/04/23 09:37:15.6    -121   -269     66    296    304 204.3  12.6  34130  289.07 0855.25
2009/04/23 09:37:15.7    -147   -152    100    212    234 223.9  27.1  34126  288.99 0855.25
2009/04/23 09:37:15.8    -103   -247    125    268    295 202.7  27.0  34130  289.07 0855.25
2009/04/23 09:37:15.9     -40    -17     94     44    103 246.5  73.1  34120  288.89 0855.25
2009/04/23 09:37:16.0    -179     73    171    194    258 292.4  45.9  34126  288.98 0855.25
2009/04/23 09:37:16.1    -187    115    194    220    293 301.5  45.9  34124  288.95 0855.25
2009/04/23 09:37:16.2    -188    -35    236    192    304 259.4  56.4  34126  289.00 0855.25
2009/04/23 09:37:16.3    -158     43    147    164    220 285.5  46.6  34134  289.14 0855.25
2009/04/23 09:37:16.4    -172    -47     92    179    201 254.7  29.3  34126  288.99 0855.25
2009/04/23 09:37:16.5    -155    -52    136    164    213 251.4  43.8  34124  288.97 0855.24
2009/04/23 09:37:16.6    -152    142    146    209    254 313.1  38.6  34118  288.87 0855.24
2009/04/23 09:37:16.7    -202    176    -63    269    277 311.1 -13.2  34120  288.88 0855.24
2009/04/23 09:37:16.8    -182    151   -145    237    277 309.8 -38.8  34108  288.70 0855.24
2009/04/23 09:37:16.9     -69    314    -83    322    333 347.5 -14.5  34106  288.67 0855.24
2009/04/23 09:37:17.0      32    167    -58    171    180  10.9 -23.3  34108  288.69 0855.24
2009/04/23 09:37:17.1      41    161    -17    167    168  14.5  -6.0  34108  288.70 0855.24
2009/04/23 09:37:17.2      16    116    -12    118    119   8.0  -6.2  34108  288.70 0855.24
2009/04/23 09:37:17.3      15     74      3     76     77  11.6   2.9  34106  288.67 0855.24
2009/04/23 09:37:17.4      56     97     67    113    131  29.9  33.5  34112  288.75 0855.24
2009/04/23 09:37:17.5     117      6     59    118    131  87.0  28.2  34112  288.77 0855.24
2009/04/23 09:37:17.6      -2     22    109     23    111 353.8  89.0  34122  288.94 0855.24
2009/04/23 09:37:17.7     -22     47     90     52    103 334.7  67.2  34120  288.91 0855.24
2009/04/23 09:37:17.8      42    102     19    111    113  22.7  10.1  34110  288.74 0855.24
2009/04/23 09:37:17.9      83    119    -21    146    148  34.7  -8.2  34106  288.67 0855.24
2009/04/23 09:37:18.0     100     63      5    119    120  57.5   2.8  34108  288.69 0855.24
2009/04/23 09:37:18.1      90     57     47    107    116  57.5  25.1  34102  288.60 0855.24
2009/04/23 09:37:18.2      20     84     53     87    101  13.4  34.4  34110  288.74 0855.24
2009/04/23 09:37:18.3      32     55     65     64     91  30.7  50.1  34110  288.74 0855.24
2009/04/23 09:37:18.4     107     42     65    116    132  68.3  31.4  34108  288.70 0855.24
2009/04/23 09:37:18.5     126     53     -6    137    138  66.9  -2.6  34112  288.77 0855.25
2009/04/23 09:37:18.6      85     68     57    110    123  51.4  29.3  34114  288.79 0855.25
2009/04/23 09:37:18.7     208     15     71    209    222  85.6  18.9  34136  289.16 0855.25
2009/04/23 09:37:18.8      70     44    110     83    137  57.6  59.0  34138  289.21 0855.25
2009/04/23 09:37:18.9      45    129     85    137    161  19.2  34.8  34136  289.18 0855.25
2009/04/23 09:37:19.0     127    129     87    182    201  44.5  27.2  34126  288.99 0855.25
2009/04/23 09:37:19.1     128    122     68    177    189  46.4  22.0  34130  289.08 0855.25
2009/04/23 09:37:19.2      59    152     98    164    191  21.4  34.0  34128  289.04 0855.25
2009/04/23 09:37:19.3      91    172    155    195    249  27.9  42.7  34164  289.64 0855.25
2009/04/23 09:37:19.4     113    112     95    160    186  45.1  33.7  34212  290.47 0855.25
2009/04/23 09:37:19.5      99     75    120    125    173  52.7  49.2  34180  289.91 0855.25
2009/04/23 09:37:19.6      92     34    139     99    170  69.6  61.1  34170  289.74 0855.25
2009/04/23 09:37:19.7      33     54    129     64    144  31.6  71.9  34172  289.79 0855.25
2009/04/23 09:37:19.8     180      8    276    181    330  87.4  64.0  34176  289.85 0855.25
2009/04/23 09:37:19.9     125      7    185    126    223  86.5  62.7  34174  289.80 0855.25
2009/04/23 09:37:20.0      41     36    120     55    132  48.7  73.5  34174  289.82 0855.25
2009/04/23 09:37:20.1      96      3    -12     97     98  87.9  -7.3  34166  289.69 0855.25
2009/04/23 09:37:20.2      53     10    -97     55    111  78.5 -72.7  34172  289.79 0855.25
2009/04/23 09:37:20.3     -28     -9   -113     30    116 251.4 -89.3  34168  289.72 0855.25
2009/04/23 09:37:20.4      57    -21     85     61    104 110.8  60.6  34148  289.38 0855.25
2009/04/23 09:37:20.5      27     34    118     44    125  38.7  79.1  34124  288.97 0855.25
2009/04/23 09:37:20.6     263     76    -90    274    288  73.8 -23.8  34116  288.83 0855.25
2009/04/23 09:37:20.7     180     62   -111    191    220  70.9 -37.3  34114  288.80 0855.25
2009/04/23 09:37:20.8     164    -54     62    173    183 108.4  20.2  34124  288.96 0855.25
2009/04/23 09:37:20.9     146   -186    132    237    271 141.9  31.4  34118  288.85 0855.25
2009/04/23 09:37:21.0     173   -196     63    262    270 138.6  13.7  34120  288.88 0855.25
2009/04/23 09:37:21.1     175   -322    130    367    389 151.5  20.2  34126  289.01 0855.25
2009/04/23 09:37:21.2       5   -418    312    419    522 179.3  40.2  34142  289.25 0855.25
2009/04/23 09:37:21.4     -64   -413    351    419    546 188.9  44.3  34116  288.81 0855.25
2009/04/23 09:37:21.4    -107   -407    298    421    515 194.8  38.7  34108  288.68 0855.25
2009/04/23 09:37:21.6     -85   -370    319    380    496 193.0  44.3  34118  288.85 0855.25
2009/04/23 09:37:21.7     -22   -293    255    294    389 184.4  45.4  34120  288.88 0855.25
2009/04/23 09:37:21.8    -105   -494    194    506    541 192.0  22.1  34126  288.99 0855.25
2009/04/23 09:37:21.9     -71   -494    127    500    516 188.3  14.3  34116  288.84 0855.25
2009/04/23 09:37:22.0     -87   -485    127    493    510 190.2  14.5  34110  288.74 0855.25
2009/04/23 09:37:22.1    -117   -447    136    463    483 194.7  16.4  34116  288.84 0855.25
2009/04/23 09:37:22.2    -117   -400     47    417    420 196.4   6.5  34114  288.80 0855.25
2009/04/23 09:37:22.3    -222   -367    -14    429    430 211.2  -1.9  34116  288.82 0855.25
2009/04/23 09:37:22.4    -261   -452    -76    523    529 210.0  -8.3  34120  288.91 0855.25
2009/04/23 09:37:22.5     -32   -104    251    110    274 197.4  74.9  34110  288.71 0855.25
2009/04/23 09:37:22.6     -51   -163    191    172    257 197.6  53.3  34110  288.72 0855.25
2009/04/23 09:37:22.7     -73   -245    273    256    374 196.7  52.1  34114  288.79 0855.25
2009/04/23 09:37:22.8    -152   -274    418    314    522 209.0  59.4  34110  288.72 0855.25
2009/04/23 09:37:22.9     -42   -343    308    346    463 187.0  46.2  34114  288.78 0855.25
2009/04/23 09:37:23.0     210   -457    275    504    574 155.3  31.0  34106  288.67 0855.25
2009/04/23 09:37:23.1     201   -458    195    501    537 156.3  22.5  34112  288.75 0855.25
2009/04/23 09:37:23.2     126   -479    239    496    550 165.2  27.7  34120  288.91 0855.25
2009/04/23 09:37:23.3      36   -457    194    459    498 175.4  24.3  34120  288.90 0855.25
2009/04/23 09:37:23.4      19   -423    252    424    493 177.3  33.5  34116  288.84 0855.25
2009/04/23 09:37:23.5     -90   -349    334    361    491 194.5  47.6  34116  288.83 0855.25
2009/04/23 09:37:23.6    -133   -425    245    446    508 197.4  31.3  34108  288.68 0855.25
2009/04/23 09:37:23.7      34   -306    269    308    408 173.5  45.6  34110  288.71 0855.25
2009/04/23 09:37:23.8     -43   -340    209    343    401 187.2  34.4  34106  288.67 0855.25
2009/04/23 09:37:23.9      26   -280    120    282    306 174.6  24.6  34110  288.71 0855.25
2009/04/23 09:37:24.0     -15   -311    194    312    367 182.9  35.0  34118  288.86 0855.25
2009/04/23 09:37:24.1     -50   -257    217    262    340 191.1  43.8  34108  288.70 0855.25
2009/04/23 09:37:24.2       7   -266    228    267    351 178.4  45.0  34112  288.75 0855.25
2009/04/23 09:37:24.3       8   -150    257    151    298 176.9  66.8  34112  288.76 0855.25
2009/04/23 09:37:24.4       2   -148    235    149    278 179.1  64.7  34112  288.76 0855.25
2009/04/23 09:37:24.5     -45     -6    165     46    171 262.1  84.4  34118  288.87 0855.25
2009/04/23 09:37:24.6      -7    -67    202     68    213 186.2  81.2  34108  288.70 0855.25
2009/04/23 09:37:24.7      60      0    230     61    237  89.2  85.2  34116  288.82 0855.25
2009/04/23 09:37:24.8      57   -229    216    237    320 166.0  47.1  34110  288.71 0855.25
2009/04/23 09:37:24.9      65   -227    281    237    367 164.0  55.8  34112  288.77 0855.25
2009/04/23 09:37:25.0     143   -299    205    332    390 154.4  34.5  34104  288.64 0855.25
2009/04/23 09:37:25.1      92   -195    181    216    281 154.7  44.3  34110  288.73 0855.25
2009/04/23 09:37:25.2      71   -248    172    259    310 164.0  36.5  34110  288.71 0855.25
2009/04/23 09:37:25.3     130   -164    192    210    284 141.7  47.1  34112  288.75 0855.25
2009/04/23 09:37:25.4     226   -139    238    266    356 121.5  46.5  34110  288.71 0855.25
2009/04/23 09:37:25.5      96    -94    189    135    232 134.4  60.8  34106  288.67 0855.25
2009/04/23 09:37:25.6     193   -127    183    232    295 123.3  42.4  34108  288.68 0855.25
2009/04/23 09:37:25.7      78    -60    111     99    148 127.8  53.7  34108  288.70 0855.25
2009/04/23 09:37:25.8     170   -159    168    233    287 133.1  39.5  34106  288.66 0855.25
2009/04/23 09:37:25.9     127   -216    114    251    275 149.5  26.2  34108  288.68 0855.25
2009/04/23 09:37:26.0      84   -310     84    322    333 164.8  14.6  34110  288.72 0855.25
2009/04/23 09:37:26.1       8   -273     75    274    285 178.2  15.3  34108  288.70 0855.25
2009/04/23 09:37:26.2      26   -243     97    245    263 173.8  22.8  34110  288.71 0855.25
2009/04/23 09:37:26.3      49   -249     83    254    268 168.7  18.1  34106  288.66 0855.25
2009/04/23 09:37:26.4      55   -269    -33    275    277 168.4  -6.9  34106  288.66 0855.25
2009/04/23 09:37:26.5     199   -254     -4    323    324 141.9  -0.7  34106  288.66 0855.25
2009/04/23 09:37:26.6     184   -191     28    266    268 136.1   6.1  34104  288.61 0855.24
2009/04/23 09:37:26.7     130   -190      8    231    232 145.5   2.1  34106  288.67 0855.24
2009/04/23 09:37:26.8     110   -160     80    195    210 145.5  23.4  34108  288.69 0855.24
2009/04/23 09:37:26.9     134   -162     91    211    229 140.4  25.1  34106  288.67 0855.24
2009/04/23 09:37:27.0     146   -284     45    320    324 152.8   8.1  34108  288.68 0855.24
2009/04/23 09:37:27.1     112   -358     37    376    378 162.6   5.7  34110  288.71 0855.24
2009/04/23 09:37:27.2     102   -309     26    326    328 161.7   4.7  34106  288.65 0855.24
2009/04/23 09:37:27.3      76   -254     82    266    279 163.3  17.3  34108  288.68 0855.24
2009/04/23 09:37:27.4      95   -203     78    225    239 154.8  19.2  34110  288.71 0855.24
2009/04/23 09:37:27.5     172   -141     26    223    225 129.5   6.9  34108  288.69 0855.24
2009/04/23 09:37:27.6     116   -142    -17    184    185 140.6  -5.6  34108  288.69 0855.24
2009/04/23 09:37:27.7     117   -225    -39    254    257 152.4  -8.8  34106  288.66 0855.24
2009/04/23 09:37:27.8     115   -208    167    239    291 151.0  38.4  34108  288.68 0855.24
2009/04/23 09:37:27.9      33   -308    237    310    390 173.8  41.2  34110  288.72 0855.24
2009/04/23 09:37:28.0     -93   -334    113    347    366 195.6  18.1  34110  288.71 0855.24
2009/04/23 09:37:28.1     -52   -320    105    325    342 189.4  17.9  34110  288.71 0855.24
2009/04/23 09:37:28.2    -134   -283     83    314    325 205.3  14.9  34110  288.71 0855.24
2009/04/23 09:37:28.3     -58   -236     34    244    247 193.8   8.0  34106  288.66 0855.24
2009/04/23 09:37:28.4     -94   -183     99    206    228 207.2  27.3  34108  288.70 0855.24
2009/04/23 09:37:28.5     -39   -168     76    173    188 193.1  25.1  34110  288.74 0855.24
2009/04/23 09:37:28.6       0   -153     75    154    171 180.0  27.4  34112  288.75 0855.24
2009/04/23 09:37:28.7      29   -172     82    175    193 170.2  27.1  34110  288.74 0855.24
2009/04/23 09:37:28.8      10   -219     98    220    240 177.3  25.7  34112  288.75 0855.24
2009/04/23 09:37:28.9     -12   -238    181    239    299 182.9  40.9  34110  288.73 0855.24
2009/04/23 09:37:29.0      56   -274     71    280    289 168.4  14.3  34108  288.68 0855.24
2009/04/23 09:37:29.1      17   -281    100    282    300 176.4  19.6  34108  288.70 0855.24
2009/04/23 09:37:29.2     -47   -235    -20    240    241 191.3  -4.9  34108  288.70 0855.24
2009/04/23 09:37:29.3     -87   -343    184    354    398 194.3  29.6  34106  288.66 0855.24
2009/04/23 09:37:29.4      22   -266    233    268    355 175.1  45.6  34110  288.71 0855.24
2009/04/23 09:37:29.5      11   -348    205    349    404 178.1  33.3  34110  288.71 0855.24
2009/04/23 09:37:29.6       0   -259    282    260    383 180.0  52.5  34114  288.79 0855.23
2009/04/23 09:37:29.7     -73   -313    310    322    446 193.1  49.0  34108  288.70 0855.23
2009/04/23 09:37:29.8     -92   -242    274    260    377 200.9  51.9  34110  288.72 0855.23
2009/04/23 09:37:29.9      30   -236    230    238    330 172.7  49.1  34112  288.75 0855.23
2009/04/23 09:37:30.0     102   -161    189    191    268 147.5  50.0  34114  288.80 0855.23
2009/04/23 09:37:30.1      31   -225    173    228    286 172.0  40.9  34114  288.80 0855.23
2009/04/23 09:37:30.2       0   -199    220    200    297 180.0  53.0  34112  288.76 0855.23
2009/04/23 09:37:30.3      33    -80    201     87    219 157.3  75.0  34108  288.70 0855.23
2009/04/23 09:37:30.4      10    -13    157     17    157 143.9  90.0  34116  288.82 0855.23
2009/04/23 09:37:30.5      31     10    162     33    165  71.8  89.4  34118  288.86 0855.23
2009/04/23 09:37:30.6      79   -101    181    129    222 141.7  61.1  34112  288.77 0855.23
2009/04/23 09:37:30.7     135    -92    185    164    247 124.2  54.0  34108  288.70 0855.23
2009/04/23 09:37:30.8     191    -83    184    209    278 113.5  45.9  34110  288.73 0855.23
2009/04/23 09:37:30.9     204   -138    156    247    292 124.0  35.5  34110  288.73 0855.23
2009/04/23 09:37:31.0     199    -96    181    221    285 115.8  43.7  34112  288.75 0855.23
2009/04/23 09:37:31.1     133    -53    159    144    214 111.8  53.0  34110  288.72 0855.23
2009/04/23 09:37:31.2      53      0    103     54    116  90.0  70.4  34118  288.86 0855.23
2009/04/23 09:37:31.3     143     -6    192    144    240  92.5  59.4  34114  288.80 0855.23
2009/04/23 09:37:31.4     -14    -29    140     33    143 205.4  86.9  34112  288.75 0855.23
2009/04/23 09:37:31.5      17      5    153     18    154  71.6  90.0  34118  288.86 0855.23
2009/04/23 09:37:31.6      31    -13     84     34     90 113.5  76.6  34118  288.86 0855.23
2009/04/23 09:37:31.7     120      0    102    121    158  90.0  44.5  34114  288.80 0855.23
2009/04/23 09:37:31.8     170     -8     77    171    187  93.0  26.2  34110  288.74 0855.23
2009/04/23 09:37:31.9     248    -46     83    253    267 100.5  18.1  34110  288.71 0855.23
2009/04/23 09:37:32.0     227    -11    122    228    258  93.0  30.6  34112  288.75 0855.23
2009/04/23 09:37:32.1     136   -160    158    211    263 139.7  40.6  34110  288.73 0855.23
2009/04/23 09:37:32.2     140   -158    159    212    265 138.6  40.7  34110  288.73 0855.23
2009/04/23 09:37:32.3      30   -149    182    153    237 168.5  55.6  34112  288.77 0855.23
2009/04/23 09:37:32.4     256      6     80    257    270  88.5  17.4  34106  288.66 0855.23
2009/04/23 09:37:32.5     125    -69    123    143    188 118.9  44.8  34104  288.64 0855.23
2009/04/23 09:37:32.6     133   -152     71    203    216 138.8  19.4  34110  288.72 0855.23
2009/04/23 09:37:32.7     116    -76    103    140    173 123.3  39.9  34112  288.75 0855.23
2009/04/23 09:37:32.8     135   -152    130    204    241 138.3  35.6  34112  288.77 0855.23
2009/04/23 09:37:32.9     147   -127    133    195    236 130.7  37.6  34112  288.77 0855.23
2009/04/23 09:37:33.0     133    -88    142    160    213 123.7  46.2  34116  288.82 0855.23
2009/04/23 09:37:33.1      94    -77    140    122    185 129.5  54.6  34114  288.80 0855.23
2009/04/23 09:37:33.2     102    -48    101    113    151 115.2  46.4  34116  288.82 0855.23
2009/04/23 09:37:33.3      17    -54     98     57    113 162.2  66.8  34114  288.80 0855.23
2009/04/23 09:37:33.4     -98    -34    144    104    177 250.5  60.6  34118  288.87 0855.23
2009/04/23 09:37:33.5     -97    -20     85    100    131 258.1  44.3  34118  288.87 0855.23
2009/04/23 09:37:33.6    -129     -2     79    130    152 269.1  34.4  34112  288.77 0855.25
2009/04/23 09:37:33.7    -113     11     44    114    122 275.7  22.0  34118  288.86 0855.25
2009/04/23 09:37:33.8     -51    -48     25     71     76 226.9  19.4  34120  288.91 0855.25
2009/04/23 09:37:33.9      73    -17    -13     75     77 103.3 -10.3  34120  288.89 0855.25
2009/04/23 09:37:34.0     122     72    -50    142    150  59.4 -23.8  34112  288.75 0855.25
2009/04/23 09:37:34.1     152     51    -62    161    172  71.4 -26.1  34114  288.80 0855.25
2009/04/23 09:37:34.2     155     36    -82    160    179  76.7 -33.7  34112  288.77 0855.25
2009/04/23 09:37:34.3     134     98    -65    167    179  53.8 -26.9  34112  288.77 0855.25
2009/04/23 09:37:34.4      78     -5    -37     79     87  94.3 -31.0  34114  288.79 0855.25
2009/04/23 09:37:34.5      63     17    -14     66     68  74.9 -12.4  34110  288.74 0855.25
2009/04/23 09:37:34.6      54    -37     37     66     75 125.1  31.4  34110  288.72 0855.25
2009/04/23 09:37:34.7      -9    -47     39     49     62 191.6  43.7  34116  288.82 0855.25
2009/04/23 09:37:34.8     -13    -40     78     43     89 197.8  68.8  34116  288.84 0855.25
2009/04/23 09:37:34.9     -22     65     92     69    115 340.8  60.0  34122  288.94 0855.25
2009/04/23 09:37:35.0     -16      9     74     19     76 298.9  84.9  34120  288.89 0855.25
2009/04/23 09:37:35.1     -42      1     69     43     81 271.7  65.1  34122  288.92 0855.25
2009/04/23 09:37:35.2     -43     45      6     63     64 316.7   5.9  34124  288.96 0855.25
2009/04/23 09:37:35.3     -72     87     54    113    125 320.4  27.2  34122  288.94 0855.25
2009/04/23 09:37:35.4    -135     85      2    160    161 302.2   0.8  34132  289.09 0855.25
2009/04/23 09:37:35.5    -110     80    -70    137    153 306.0 -33.6  34118  288.87 0855.25
2009/04/23 09:37:35.6     -14     78    -55     80     97 349.3 -42.0  34118  288.86 0855.26
2009/04/23 09:37:35.7     156    100     67    186    197  57.4  20.7  34188  290.04 0855.26
2009/04/23 09:37:35.8     147     88    149    172    227  58.9  45.4  34196  290.19 0855.26
2009/04/23 09:37:35.9      84      7    173     85    192  84.8  72.1  34200  290.26 0855.26
2009/04/23 09:37:36.0      43    130    132    137    190  18.3  49.2  34194  290.16 0855.26
2009/04/23 09:37:36.1     -34    -54     47     65     80 212.5  39.7  34192  290.13 0855.26
2009/04/23 09:37:36.2      56    -68     23     89     93 140.4  14.7  34198  290.21 0855.26
2009/04/23 09:37:36.3      49    -87     88    101    133 150.6  45.8  34184  289.97 0855.26
2009/04/23 09:37:36.4      27   -160     87    163    184 170.2  30.6  34154  289.48 0855.26
2009/04/23 09:37:36.5     183   -151     45    238    243 129.5  10.8  34128  289.03 0855.26
2009/04/23 09:37:36.6     222   -120     67    253    262 118.4  15.0  34136  289.17 0855.26
2009/04/23 09:37:36.7     213     29    127    216    250  82.1  33.4  34136  289.17 0855.26
2009/04/23 09:37:36.8     290     88    260    304    400  73.1  44.9  34180  289.91 0855.26
2009/04/23 09:37:36.9     321     96    389    336    514  73.4  54.8  34168  289.70 0855.26
2009/04/23 09:37:37.0     270     11    190    271    330  87.6  38.4  34158  289.54 0855.26
2009/04/23 09:37:37.1     380     53    263    384    465  82.0  37.6  34164  289.65 0855.26
2009/04/23 09:37:37.2     346     26    229    347    415  85.6  36.5  34164  289.64 0855.26
2009/04/23 09:37:37.3     115   -157     91    195    215 143.7  27.1  34154  289.48 0855.26
2009/04/23 09:37:37.4     202    -63    169    212    271 107.3  42.8  34146  289.34 0855.26
2009/04/23 09:37:37.5     295    -75    243    305    389 104.4  42.7  34128  289.03 0855.26
2009/04/23 09:37:37.6     306     34    421    308    521  83.6  60.4  34148  289.36 0855.25
2009/04/23 09:37:37.7     333    140    357    362    508  67.2  49.8  34146  289.35 0855.25
2009/04/23 09:37:37.8     219     15    169    220    277  85.9  41.6  34142  289.25 0855.25
2009/04/23 09:37:37.9     374     13     95    375    387  87.9  14.3  34132  289.10 0855.25
2009/04/23 09:37:38.0     377    179    177    418    453  64.5  24.3  34120  288.90 0855.25
2009/04/23 09:37:38.1     318    123    245    342    420  68.8  39.3  34122  288.93 0855.25
2009/04/23 09:37:38.2     227     73     78    239    252  72.2  18.1  34116  288.83 0855.25
2009/04/23 09:37:38.3     217     24     43    219    224  83.6  11.1  34118  288.86 0855.25
2009/04/23 09:37:38.4     238     31     85    241    256  82.5  19.4  34118  288.85 0855.25
2009/04/23 09:37:38.5     102    -17    -47    104    114  99.7 -30.6  34122  288.92 0855.25
2009/04/23 09:37:38.6      51      8    -39     52     65  80.3 -44.1  34130  289.08 0855.25
2009/04/23 09:37:38.7      65     56    -38     86     94  49.1 -29.5  34136  289.16 0855.25
2009/04/23 09:37:38.8       0     93    -80     94    123   0.0 -49.8  34144  289.31 0855.25
2009/04/23 09:37:38.9      -8    -20   -200     22    201 203.6 -90.0  34140  289.24 0855.25
2009/04/23 09:37:39.0    -100    -53   -222    114    249 242.0 -75.2  34094  288.47 0855.25
2009/04/23 09:37:39.1    -210    -52   -263    217    340 256.1 -60.7  34092  288.43 0855.25
2009/04/23 09:37:39.2    -206      2   -317    207    378 270.8 -68.4  34102  288.59 0855.25
2009/04/23 09:37:39.3    -448     29   -480    449    657 273.7 -56.6  34106  288.66 0855.25
2009/04/23 09:37:39.4    -393     17   -389    394    553 272.5 -54.2  34122  288.93 0855.25
2009/04/23 09:37:39.5    -445      6   -398    446    597 270.8 -50.7  34120  288.89 0855.25
2009/04/23 09:37:39.6    -393    -18   -342    394    521 267.3 -49.8  34114  288.79 0855.28
2009/04/23 09:37:39.7    -259      6   -258    260    366 271.5 -54.4  34102  288.59 0855.28
2009/04/23 09:37:39.8    -288    -88   -227    302    377 252.9 -45.1  34126  289.01 0855.28
2009/04/23 09:37:39.9    -158   -166   -165    230    283 223.7 -43.7  34128  289.02 0855.28
2009/04/23 09:37:40.0    -188   -171   -236    255    347 227.7 -52.1  34122  288.92 0855.28
2009/04/23 09:37:40.1     -78   -216   -117    230    258 200.0 -33.6  34120  288.90 0855.28
2009/04/23 09:37:40.2    -198   -186    -44    272    276 226.8  -9.3  34118  288.87 0855.28
2009/04/23 09:37:40.3    -220   -154    166    269    316 234.9  34.6  34110  288.73 0855.28
2009/04/23 09:37:40.4    -175   -134    138    221    260 232.5  35.2  34122  288.93 0855.28
2009/04/23 09:37:40.5    -243   -554   -123    606    619 203.7 -11.5  34132  289.10 0855.28
2009/04/23 09:37:40.6     -44   -417   -144    420    445 186.1 -19.0  34120  288.90 0855.28
2009/04/23 09:37:40.7     -13   -362    -66    363    369 182.1 -10.4  34116  288.82 0855.28
2009/04/23 09:37:40.8    -229   -292   -173    372    410 218.1 -31.0  34116  288.82 0855.28
2009/04/23 09:37:40.9    -160   -307   -152    347    378 207.5 -29.5  34124  288.96 0855.28
2009/04/23 09:37:41.0    -216   -151   -305    264    403 235.0 -59.3  34110  288.74 0855.28
2009/04/23 09:37:41.1      71     98   -226    122    256  36.1 -73.7  34112  288.77 0855.28
2009/04/23 09:37:41.2    -221   -195      4    295    296 228.6   0.8  34116  288.81 0855.28
2009/04/23 09:37:41.3    -130   -427     74    447    454 196.9   9.4  34110  288.73 0855.28
2009/04/23 09:37:41.4     -77   -346    -63    355    361 192.6 -10.1  34120  288.89 0855.28
2009/04/23 09:37:41.5       0   -256    -92    257    274 180.0 -19.7  34118  288.87 0855.28
2009/04/23 09:37:41.6      66   -217   -110    227    252 163.1 -31.8  34110  288.71 0855.32
2009/04/23 09:37:41.7     115   -261    -79    286    297 156.3 -15.5  34116  288.83 0855.32
2009/04/23 09:37:41.8     192   -274     -4    335    336 144.9  -0.7  34120  288.88 0855.32
2009/04/23 09:37:41.9      90   -329    -75    342    351 164.7 -12.5  34120  288.88 0855.32
2009/04/23 09:37:42.0       8   -337    -44    338    341 178.5  -7.5  34120  288.89 0855.32
2009/04/23 09:37:42.1       4   -256     32    257    260 179.1   7.1  34122  288.93 0855.32
2009/04/23 09:37:42.2      15   -200     35    201    205 175.5  10.1  34122  288.92 0855.32
2009/04/23 09:37:42.3      41   -244      0    248    249 170.3   0.0  34112  288.76 0855.32
2009/04/23 09:37:42.4      65    -95    152    116    191 145.7  58.7  34118  288.87 0855.32
2009/04/23 09:37:42.5      77   -162     74    180    194 154.6  23.6  34120  288.91 0855.32
2009/04/23 09:37:42.6     145   -221    -91    265    281 146.6 -18.9  34112  288.76 0855.32
2009/04/23 09:37:42.7      12    -95     74     96    121 172.4  41.7  34118  288.87 0855.32
2009/04/23 09:37:42.8       2     10     88     11     88  15.1  90.0  34116  288.84 0855.32
2009/04/23 09:37:42.9     -35      7     87     36     94 281.5  77.1  34126  289.01 0855.32
2009/04/23 09:37:43.0       0    -27     65     28     70 179.1  75.0  34122  288.94 0855.32
2009/04/23 09:37:43.1      -9    -67     23     68     72 188.0  18.9  34114  288.79 0855.32
2009/04/23 09:37:43.2     -89   -167    127    190    228 208.1  36.7  34110  288.72 0855.32
2009/04/23 09:37:43.3     -42   -298    107    302    320 188.0  20.2  34110  288.71 0855.32
2009/04/23 09:37:43.4     -15   -302     93    303    317 182.9  17.1  34110  288.73 0855.32
2009/04/23 09:37:43.5     -40   -374     71    377    384 186.2  10.7  34114  288.79 0855.32
2009/04/23 09:37:43.6     -60   -400    110    405    420 188.6  15.2  34110  288.73 0855.31
2009/04/23 09:37:43.7      10   -304    133    305    332 178.0  25.0  34106  288.66 0855.31
2009/04/23 09:37:43.8     100   -379    111    392    408 165.2  15.9  34110  288.73 0855.31
2009/04/23 09:37:43.9      41   -322    136    325    352 172.7  24.1  34110  288.72 0855.31
2009/04/23 09:37:44.0      18   -247    110    248    271 175.6  25.7  34106  288.65 0855.31
2009/04/23 09:37:44.1     -53   -381     97    385    397 188.0  14.2  34110  288.72 0855.31
2009/04/23 09:37:44.2     -86   -479    110    487    500 190.3  12.8  34110  288.74 0855.31
2009/04/23 09:37:44.3    -101   -459    110    471    484 192.5  13.2  34112  288.76 0855.31
2009/04/23 09:37:44.4      -7   -423    151    424    450 181.0  20.4  34110  288.72 0855.31
2009/04/23 09:37:44.5    -181   -460    -57    495    499 201.5  -6.6  34114  288.79 0855.31
2009/04/23 09:37:44.6    -159   -452     31    480    482 199.4   3.8  34108  288.68 0855.31
2009/04/23 09:37:44.7     -77   -411     43    419    422 190.6   6.0  34104  288.63 0855.31
2009/04/23 09:37:44.8     -60   -471     81    475    482 187.4   9.7  34112  288.76 0855.31
2009/04/23 09:37:44.9    -172   -617     29    641    642 195.6   2.6  34100  288.54 0855.31
2009/04/23 09:37:45.0     -95   -435    105    446    459 192.4  13.3  34104  288.63 0855.31
2009/04/23 09:37:45.1     -24   -399     85    400    410 183.5  12.0  34114  288.78 0855.31
2009/04/23 09:37:45.2    -122   -399    103    418    431 197.0  13.9  34114  288.78 0855.31
2009/04/23 09:37:45.3     -96   -441    160    452    480 192.3  19.6  34118  288.86 0855.31
2009/04/23 09:37:45.4     -78   -486    170    493    522 189.1  19.1  34116  288.83 0855.31
2009/04/23 09:37:45.5    -124   -434    165    452    481 196.0  20.9  34116  288.81 0855.31
2009/04/23 09:37:45.6     -78   -368    133    377    399 192.1  20.1  34112  288.77 0855.32
2009/04/23 09:37:45.7    -149   -390    149    418    443 201.0  20.4  34116  288.83 0855.32
2009/04/23 09:37:45.8    -183   -324     95    373    386 209.5  14.4  34114  288.79 0855.32
2009/04/23 09:37:45.9    -193   -304     17    361    362 212.4   2.8  34110  288.71 0855.32
2009/04/23 09:37:46.0    -193   -351    -33    401    403 208.8  -4.8  34110  288.74 0855.32
2009/04/23 09:37:46.1    -202   -508    -21    547    548 201.7  -2.2  34118  288.85 0855.32
2009/04/23 09:37:46.2     -77   -782     59    786    789 185.7   4.3  34094  288.44 0855.32
2009/04/23 09:37:46.3      -1   -608     33    609    610 180.1   3.1  34104  288.64 0855.32
2009/04/23 09:37:46.4     186   -623     21    651    652 163.4   1.9  34100  288.55 0855.32
2009/04/23 09:37:46.5     186   -501     22    535    536 159.6   2.4  34102  288.58 0855.32
2009/04/23 09:37:46.6      43   -216   -186    221    288 168.7 -48.5  34108  288.68 0855.32
2009/04/23 09:37:46.7     -50   -327   -273    331    429 188.8 -48.1  34110  288.71 0855.32
2009/04/23 09:37:46.9      14   -431   -145    432    456 178.1 -18.6  34102  288.60 0855.32
2009/04/23 09:37:46.9       4   -374    -34    375    377 179.3  -5.3  34102  288.60 0855.32
2009/04/23 09:37:47.0     -36   -295   -132    298    325 187.1 -30.0  34108  288.68 0855.32
2009/04/23 09:37:47.1     -24   -282   -198    284    346 184.9 -42.8  34108  288.70 0855.32
2009/04/23 09:37:47.2     129   -489   -179    506    536 165.2 -24.6  34106  288.67 0855.32
2009/04/23 09:37:47.3    -174   -502   -154    532    554 199.2 -16.2  34110  288.72 0855.32
2009/04/23 09:37:47.4    -215   -412    -89    465    474 207.6 -10.9  34108  288.68 0855.32
2009/04/23 09:37:47.6     -57   -427    -87    431    440 187.7 -11.5  34106  288.65 0855.32
2009/04/23 09:37:47.7      22   -377   -107    378    394 176.6 -15.9  34106  288.66 0855.32
2009/04/23 09:37:47.8     -86   -350   -105    361    375 193.9 -21.1  34106  288.67 0855.32
2009/04/23 09:37:47.8    -201   -369   -124    421    438 208.6 -21.4  34100  288.56 0855.32
2009/04/23 09:37:48.0    -121   -218   -204    250    322 209.0 -47.9  34106  288.65 0855.32
2009/04/23 09:37:48.0    -276     11    -87    277    291 272.4 -17.6  34108  288.70 0855.32
2009/04/23 09:37:48.2    -342   -160   -128    378    400 245.0 -18.7  34106  288.67 0855.32
2009/04/23 09:37:48.3    -390   -331   -148    512    532 229.7 -20.9  34106  288.67 0855.32
2009/04/23 09:37:48.4    -416   -461   -235    622    664 222.1 -26.1  34094  288.45 0855.32
2009/04/23 09:37:48.5    -482   -493   -230    690    727 224.3 -23.6  34092  288.42 0855.32
2009/04/23 09:37:48.6    -454   -432   -206    628    660 226.4 -23.5  34104  288.62 0855.32
2009/04/23 09:37:48.7    -421   -443   -235    612    655 223.6 -26.6  34100  288.57 0855.32
2009/04/23 09:37:48.8    -319   -450   -189    552    583 215.3 -23.9  34096  288.48 0855.32
2009/04/23 09:37:48.9    -318   -391   -184    505    537 219.1 -25.3  34094  288.47 0855.32
2009/04/23 09:37:49.0    -330   -308   -126    452    469 227.0 -20.2  34102  288.58 0855.32
2009/04/23 09:37:49.1    -169   -257   -102    309    325 213.4 -23.5  34098  288.51 0855.32
2009/04/23 09:37:49.2     -32   -412   -118    414    430 184.5 -20.7  34078  288.19 0855.32
2009/04/23 09:37:49.3    -313   -256   -144    405    429 230.7 -24.8  34096  288.50 0855.32
2009/04/23 09:37:49.4    -243   -213   -135    324    351 228.7 -28.2  34104  288.64 0855.32
2009/04/23 09:37:49.5    -188   -188   -154    267    308 225.0 -36.8  34104  288.61 0855.32
2009/04/23 09:37:49.6    -272   -100   -178    290    340 249.8 -39.0  34116  288.81 0855.32
2009/04/23 09:37:49.7    -317    -95   -197    332    386 253.2 -37.9  34110  288.72 0855.31
2009/04/23 09:37:49.8    -394    -83   -160    403    433 258.1 -27.3  34104  288.61 0855.31
2009/04/23 09:37:49.9    -421   -102   -209    434    481 256.3 -32.1  34104  288.64 0855.31
2009/04/23 09:37:50.0    -352   -133   -272    377    464 249.3 -43.9  34096  288.50 0855.31
2009/04/23 09:37:50.1    -401   -136   -194    424    466 251.2 -30.8  34108  288.70 0855.31
2009/04/23 09:37:50.2    -375      2   -178    376    416 270.4 -31.6  34106  288.65 0855.31
2009/04/23 09:37:50.3    -178   -120   -173    215    275 236.0 -47.4  34116  288.83 0855.31
2009/04/23 09:37:50.4    -211    -74   -189    224    293 250.7 -48.7  34104  288.63 0855.31
2009/04/23 09:37:50.5    -304   -132   -267    332    426 246.4 -47.4  34110  288.71 0855.31
2009/04/23 09:37:50.6    -238   -237   -213    337    398 225.1 -39.9  34102  288.60 0855.31
2009/04/23 09:37:50.7    -213    -60   -191    222    292 254.3 -49.5  34110  288.71 0855.32
2009/04/23 09:37:50.8    -138   -102   -299    172    344 233.6 -72.0  34116  288.83 0855.32
2009/04/23 09:37:50.9     -86   -383   -158    393    423 192.7 -27.4  34104  288.63 0855.32
2009/04/23 09:37:51.0     -96   -411   -126    423    441 193.2 -21.6  34108  288.70 0855.32
2009/04/23 09:37:51.1    -128   -419   -121    439    456 197.0 -15.4  34102  288.60 0855.32
2009/04/23 09:37:51.2      61   -494    -76    498    504 172.9  -8.7  34100  288.57 0855.32
2009/04/23 09:37:51.3     140   -437   -109    459    472 162.2 -13.4  34100  288.54 0855.32
2009/04/23 09:37:51.4     279   -496   -179    570    597 150.6 -22.5  34100  288.56 0855.32
2009/04/23 09:37:51.5     361   -507   -175    623    647 144.5 -20.3  34100  288.55 0855.32
2009/04/23 09:37:51.6     386   -333   -168    510    538 130.8 -18.3  34102  288.58 0855.32
2009/04/23 09:37:51.7     413   -336   -136    533    551 129.1 -14.3  34096  288.48 0855.32
2009/04/23 09:37:51.8     418   -261   -142    494    515 122.0 -16.0  34100  288.57 0855.32
2009/04/23 09:37:51.9     400   -168     46    434    437 112.8   6.1  34094  288.45 0855.32
2009/04/23 09:37:52.0     400   -197    200    447    489 116.3  25.7  34100  288.57 0855.32
2009/04/23 09:37:52.1     354   -311    160    472    499 131.3  18.8  34100  288.56 0855.32
2009/04/23 09:37:52.2     375   -372     70    529    534 134.8   7.6  34098  288.53 0855.32
2009/04/23 09:37:52.3     340   -279     63    440    445 129.4   8.2  34102  288.60 0855.32
2009/04/23 09:37:52.4     239   -232    108    334    352 134.2  17.9  34102  288.59 0855.32
2009/04/23 09:37:52.5     196   -237      4    308    309 140.4   0.8  34096  288.49 0855.32
2009/04/23 09:37:52.6     163   -173     51    238    244 136.7  12.1  34104  288.61 0855.32
2009/04/23 09:37:52.7     121    -95     67    155    168 128.2  24.9  34102  288.60 0855.29
2009/04/23 09:37:52.8     121    -39     83    128    152 108.2  35.6  34104  288.62 0855.29
2009/04/23 09:37:52.9      67    -56     88     88    124 130.0  50.1  34110  288.72 0855.29
2009/04/23 09:37:53.0      11     36     27     38     46  18.3  38.6  34110  288.74 0855.29
2009/04/23 09:37:53.1      42     29     41     52     66  54.9  42.7  34104  288.64 0855.29
2009/04/23 09:37:53.2      75    -15    126     77    147 101.5  65.1  34110  288.74 0855.29
2009/04/23 09:37:53.3      76   -139    132    159    206 151.1  43.8  34110  288.74 0855.29
2009/04/23 09:37:53.4     199    -65    168    210    268 108.2  43.0  34106  288.66 0855.29
2009/04/23 09:37:53.5     189    -53     59    197    206 105.9  16.8  34104  288.62 0855.29
2009/04/23 09:37:53.6     143    -48     47    151    159 108.6  17.3  34102  288.58 0855.29
2009/04/23 09:37:53.7     127    -46     31    136    140 110.0  13.1  34098  288.53 0855.29
2009/04/23 09:37:53.8      29    -22      1     37     38 127.8   2.8  34102  288.60 0855.29
2009/04/23 09:37:53.9      29    -59    -38     66     76 153.7 -37.9  34100  288.57 0855.29
2009/04/23 09:37:54.0      73    -61    -34     96    102 130.0 -19.6  34104  288.62 0855.29
2009/04/23 09:37:54.1      82    -37     50     91    103 114.4  31.4  34100  288.55 0855.29
2009/04/23 09:37:54.2     100    -68    102    121    158 124.2  44.5  34102  288.60 0855.29
2009/04/23 09:37:54.3     -49   -176    200    183    271 195.8  52.7  34104  288.63 0855.29
2009/04/23 09:37:54.4     -42   -151    181    157    239 195.6  54.6  34104  288.62 0855.29
2009/04/23 09:37:54.5      12   -131    197    132    237 174.7  63.2  34102  288.60 0855.29
2009/04/23 09:37:54.6    -143   -359    181    387    427 201.8  27.1  34104  288.63 0855.29
2009/04/23 09:37:54.7    -134   -335    238    361    432 201.9  36.5  34106  288.67 0855.31
2009/04/23 09:37:54.8    -183   -265    182    323    370 214.7  31.9  34100  288.55 0855.31
2009/04/23 09:37:54.9    -175   -316    300    362    470 209.0  43.8  34104  288.61 0855.31
2009/04/23 09:37:55.0    -289   -217    199    362    413 233.1  31.3  34102  288.60 0855.31
2009/04/23 09:37:55.1    -287   -130    132    316    342 245.6  23.9  34108  288.69 0855.31
2009/04/23 09:37:55.2    -381   -250     68    457    463 236.7   8.5  34100  288.56 0855.31
2009/04/23 09:37:55.3    -381   -223     95    442    453 239.6  12.1  34108  288.68 0855.31
2009/04/23 09:37:55.4    -338    -61     58    344    349 259.6   9.7  34102  288.59 0855.31
2009/04/23 09:37:55.5    -393     92     29    404    406 283.2   4.2  34098  288.53 0855.31
2009/04/23 09:37:55.6    -440    104     30    453    454 283.3   3.8  34098  288.51 0855.31
2009/04/23 09:37:55.7    -299     34    142    301    332 276.6  27.1  34100  288.56 0855.31
2009/04/23 09:37:55.8    -230     91    148    248    288 291.7  33.5  34106  288.66 0855.31
2009/04/23 09:37:55.9    -431    -84    146    440    464 258.9  18.5  34104  288.63 0855.31
2009/04/23 09:37:56.0    -342    -59    -63    348    354 260.1 -10.4  34110  288.74 0855.31
2009/04/23 09:37:56.1    -238    -56    125    245    275 256.7  29.2  34100  288.56 0855.31
2009/04/23 09:37:56.2    -224     25    109    226    250 276.4  27.3  34108  288.68 0855.31
2009/04/23 09:37:56.3    -113   -106    173    156    232 226.9  53.3  34104  288.64 0855.31
2009/04/23 09:37:56.4    -102   -109    174    150    229 223.2  55.0  34108  288.70 0855.31
2009/04/23 09:37:56.5    -114   -180    168    214    272 212.5  42.2  34122  288.93 0855.31
2009/04/23 09:37:56.6     -54   -123     63    135    148 203.6  27.1  34126  289.01 0855.31
2009/04/23 09:37:56.7    -211      9     10    212    213 272.5   2.9  34124  288.97 0855.33
2009/04/23 09:37:56.8    -179    -74    -52    194    202 247.4 -15.2  34124  288.97 0855.33
2009/04/23 09:37:56.9    -245     24    -78    247    260 275.7 -17.6  34118  288.85 0855.33
2009/04/23 09:37:57.0    -261    257     24    367    368 314.6   3.8  34114  288.79 0855.33
2009/04/23 09:37:57.1    -222    -55     18    229    230 256.1   4.6  34122  288.92 0855.33
2009/04/23 09:37:57.2    -469    -87    -46    478    481 259.4  -5.6  34110  288.73 0855.33
2009/04/23 09:37:57.3    -445    -27   -122    446    463 266.5 -15.4  34116  288.83 0855.33
2009/04/23 09:37:57.4    -485    -19   -168    486    514 267.7 -24.3  34110  288.71 0855.33
2009/04/23 09:37:57.5    -513    -67   -163    518    543 262.5 -22.5  34102  288.58 0855.33
2009/04/23 09:37:57.6    -537    -23   -184    538    569 267.5 -18.9  34120  288.89 0855.33
2009/04/23 09:37:57.7    -330   -123   -105    353    369 249.5 -16.6  34116  288.82 0855.33
2009/04/23 09:37:57.8    -464      0   -140    465    486 269.9 -16.8  34110  288.74 0855.33
2009/04/23 09:37:57.9    -395    208    -51    447    450 297.8  -6.6  34110  288.72 0855.33
2009/04/23 09:37:58.0    -202    201    -13    286    287 314.8  -2.6  34112  288.76 0855.33
2009/04/23 09:37:58.1    -432     34   -147    434    458 274.6 -23.5  34100  288.56 0855.33
2009/04/23 09:37:58.2    -525     76   -165    531    557 278.3 -17.3  34104  288.62 0855.33
2009/04/23 09:37:58.3    -675    -51   -222    677    713 265.7 -18.2  34104  288.64 0855.33
2009/04/23 09:37:58.4    -734    187   -210    758    787 284.3 -15.5  34098  288.51 0855.33
2009/04/23 09:37:58.5    -716     54   -255    718    761 274.4 -24.7  34102  288.60 0855.33
2009/04/23 09:37:58.6    -513    156   -124    537    552 287.0 -13.0  34102  288.60 0855.33
2009/04/23 09:37:58.7    -509    256    -27    570    571 296.7  -2.8  34116  288.83 0855.32
2009/04/23 09:37:58.8    -485    167   -117    514    528 289.1 -12.9  34118  288.87 0855.32
2009/04/23 09:37:58.9    -551    157   -168    573    598 285.9 -16.4  34104  288.64 0855.32
2009/04/23 09:37:59.0    -447    155    -91    474    483 289.2 -10.9  34100  288.56 0855.32
2009/04/23 09:37:59.1    -366    -48    132    370    392 262.5  20.6  34108  288.69 0855.32
2009/04/23 09:37:59.2    -315     53    -12    320    321 279.6  -2.2  34126  289.00 0855.32
2009/04/23 09:37:59.3    -219    -66     45    230    235 253.1  11.1  34132  289.11 0855.32
2009/04/23 09:37:59.4    -312   -398    -16    506    507 218.1  -1.9  34130  289.05 0855.32
2009/04/23 09:37:59.5    -409   -192   -151    452    477 244.8 -18.6  34136  289.15 0855.32
2009/04/23 09:37:59.6    -203   -317    -44    377    380 212.7  -6.7  34116  288.84 0855.32
2009/04/23 09:37:59.7    -381   -250   -174    457    489 236.7 -26.4  34106  288.66 0855.32
2009/04/23 09:37:59.8    -265    -67   -279    274    391 255.8 -54.8  34104  288.62 0855.32
2009/04/23 09:37:59.9    -111   -166   -211    201    291 213.8 -55.8  34110  288.73 0855.32
2009/04/23 09:38:00.0     -41   -267   -210    271    342 188.9 -46.3  34112  288.76 0855.32
2009/04/23 09:38:00.1    -172    -56   -190    182    263 251.8 -55.6  34112  288.76 0855.32
2009/04/23 09:38:00.2    -223   -236   -134    325    351 223.4 -28.0  34114  288.79 0855.32
2009/04/23 09:38:00.3     -75   -470    -86    477    485 189.1 -10.2  34106  288.66 0855.32
2009/04/23 09:38:00.4      82   -381     49    390    394 167.7   7.2  34106  288.66 0855.32
2009/04/23 09:38:00.5     203   -317   -119    377    395 147.4 -22.6  34106  288.67 0855.32
2009/04/23 09:38:00.6     135   -213     30    253    255 147.5   6.9  34110  288.73 0855.32
2009/04/23 09:38:00.7     162   -232    -54    284    290 145.0 -10.9  34112  288.75 0855.26
2009/04/23 09:38:00.8     517   -170    -13    545    546 108.2  -1.4  34112  288.77 0855.26
2009/04/23 09:38:00.9     589    -29    151    590    610  92.9  14.4  34104  288.64 0855.26
2009/04/23 09:38:01.0     524    -23    154    525    548  92.6  16.4  34100  288.55 0855.26
2009/04/23 09:38:01.1     514   -116    294    528    604 102.8  31.4  34098  288.51 0855.26
2009/04/23 09:38:01.2     443   -119    242    459    518 105.1  30.0  34108  288.69 0855.26
2009/04/23 09:38:01.3     375    -74    286    383    478 101.2  40.4  34108  288.70 0855.26
2009/04/23 09:38:01.4     299   -141    182    331    377 115.4  31.3  34104  288.62 0855.26
2009/04/23 09:38:01.5     260    -97    246    278    371 110.6  46.1  34112  288.76 0855.26
2009/04/23 09:38:01.6     209    -84    141    226    266 112.0  35.2  34112  288.75 0855.26
2009/04/23 09:38:01.7     129   -187    113    228    254 145.5  28.2  34104  288.63 0855.26
2009/04/23 09:38:01.8     166   -284    117    330    350 149.7  20.1  34104  288.64 0855.26
2009/04/23 09:38:01.9       5   -337    193    338    389 179.1  32.4  34106  288.67 0855.26
2009/04/23 09:38:02.0     -95   -352    233    365    433 195.2  35.6  34104  288.63 0855.26
2009/04/23 09:38:02.1     -16   -467    131    468    487 182.0  15.7  34104  288.61 0855.26
2009/04/23 09:38:02.2     -22   -415    138    416    439 183.1  18.4  34102  288.60 0855.26
2009/04/23 09:38:02.3      29   -280    310    282    419 174.0  53.2  34106  288.67 0855.26
2009/04/23 09:38:02.4      17   -200    264    201    331 175.1  59.2  34112  288.75 0855.26
2009/04/23 09:38:02.5     -67   -183    268    196    332 200.3  60.4  34106  288.66 0855.26
2009/04/23 09:38:02.6     -28   -207    338    209    397 187.8  65.6  34104  288.64 0855.26
2009/04/23 09:38:02.7    -137   -288    318    320    451 205.5  50.0  34106  288.67 0855.25
2009/04/23 09:38:02.8    -254   -261    251    365    442 224.2  37.7  34106  288.67 0855.25
2009/04/23 09:38:02.9    -144   -270    259    307    401 208.1  44.4  34104  288.64 0855.25
2009/04/23 09:38:03.0    -227   -301    298    378    481 217.0  42.2  34102  288.58 0855.25
2009/04/23 09:38:03.1      30     16    234     35    236  61.1  90.0  34114  288.79 0855.25
2009/04/23 09:38:03.2     224   -243    146    331    361 137.4  25.2  34106  288.66 0855.25
2009/04/23 09:38:03.3      66   -369      4    376    377 169.8   0.7  34106  288.67 0855.25
2009/04/23 09:38:03.4     -26   -341     58    343    348 184.5   9.7  34108  288.69 0855.25
2009/04/23 09:38:03.5     -14   -294    -26    295    297 182.9  -5.2  34106  288.65 0855.25
2009/04/23 09:38:03.6     -40   -367    -25    370    371 186.3  -4.0  34104  288.64 0855.25
2009/04/23 09:38:03.7     -65   -397    -56    403    407 189.4  -7.9  34106  288.65 0855.25
2009/04/23 09:38:03.8       7   -306    -12    307    308 178.6  -2.2  34106  288.66 0855.25
2009/04/23 09:38:04.0     -33   -264    -10    267    268 187.1  -2.2  34108  288.68 0855.25
2009/04/23 09:38:04.0     -22   -291    -48    292    296 184.4  -9.3  34104  288.63 0855.25
2009/04/23 09:38:04.1      73   -266    -35    276    279 164.6  -7.3  34104  288.61 0855.25
2009/04/23 09:38:04.2      42   -249     -3    253    254 170.4  -0.7  34104  288.61 0855.25
2009/04/23 09:38:04.3      16   -250     54    251    257 176.2  12.2  34102  288.59 0855.25
2009/04/23 09:38:04.4     140   -254     36    290    293 151.1   7.1  34104  288.61 0855.25
2009/04/23 09:38:04.5     114   -241     47    267    272 154.7  10.1  34106  288.65 0855.25
2009/04/23 09:38:04.6      11   -234     73    235    247 177.3  17.4  34102  288.59 0855.25
2009/04/23 09:38:04.7     -69   -264    122    273    299 194.7  25.7  34106  288.66 0855.28
2009/04/23 09:38:04.8      11   -240     85    241    256 177.3  19.4  34108  288.68 0855.28
2009/04/23 09:38:04.9     -14   -212     67    213    224 184.0  17.4  34102  288.60 0855.28
2009/04/23 09:38:05.0      18   -199     13    200    201 174.7   3.8  34108  288.69 0855.28
2009/04/23 09:38:05.1     140   -157     41    211    216 138.3  11.1  34104  288.64 0855.28
2009/04/23 09:38:05.2     183    -83      1    202    203 114.4   0.5  34108  288.69 0855.28
2009/04/23 09:38:05.3      82    -14   -113     84    140  99.7 -64.4  34118  288.86 0855.28
2009/04/23 09:38:05.4      83    -82    -97    117    151 134.6 -48.2  34110  288.72 0855.28
2009/04/23 09:38:05.5     132   -132   -120    187    222 135.0 -40.0  34110  288.72 0855.28
2009/04/23 09:38:05.6     158   -208   -100    262    280 142.8 -26.4  34106  288.66 0855.28
2009/04/23 09:38:05.7     208   -265     12    337    338 141.9   2.1  34110  288.71 0855.28
2009/04/23 09:38:05.8     199   -338     60    393    398 149.5   8.7  34106  288.67 0855.28
2009/04/23 09:38:05.9     165   -302     35    345    347 151.3   5.8  34110  288.71 0855.28
2009/04/23 09:38:06.0      84   -252    -13    266    267 161.5  -2.8  34106  288.65 0855.28
2009/04/23 09:38:06.1      11   -243     11    244    245 177.3   2.8  34110  288.71 0855.28
2009/04/23 09:38:06.2      53   -263      1    269    270 168.4   0.2  34110  288.73 0855.28
2009/04/23 09:38:06.3       4   -275     75    276    287 179.1  15.3  34108  288.68 0855.28
2009/04/23 09:38:06.4      26   -398    142    399    424 176.2  19.6  34112  288.75 0855.28
2009/04/23 09:38:06.5      26   -284    157    286    326 174.7  31.3  34108  288.68 0855.28
2009/04/23 09:38:06.6      23   -210    147    212    257 173.7  38.4  34112  288.76 0855.28
2009/04/23 09:38:06.7       7   -270     95    271    288 178.4  19.4  34110  288.71 0855.29
2009/04/23 09:38:06.8      39   -203    140    207    249 169.1  37.3  34106  288.66 0855.29
2009/04/23 09:38:06.9      36   -212     50    216    222 170.3  13.2  34110  288.74 0855.29
2009/04/23 09:38:07.0      70   -211     11    223    224 161.7   2.9  34112  288.77 0855.29
2009/04/23 09:38:07.1      45   -239     -4    244    245 169.3  -1.2  34110  288.73 0855.29
2009/04/23 09:38:07.2      83   -289     -6    301    302 164.0  -1.3  34108  288.70 0855.29
2009/04/23 09:38:07.3      25   -265     83    267    280 174.6  17.3  34112  288.75 0855.29
2009/04/23 09:38:07.4      37   -206    186    210    280 169.8  45.9  34112  288.75 0855.29
2009/04/23 09:38:07.5     121   -171    123    210    243 144.6  33.1  34112  288.75 0855.29
2009/04/23 09:38:07.6     130   -203     36    242    245 147.4   8.5  34110  288.71 0855.29
2009/04/23 09:38:07.7      27   -198      0    201    202 172.0  -0.3  34108  288.70 0855.29
2009/04/23 09:38:07.8     -31   -198     98    201    223 188.9  27.8  34102  288.60 0855.29
2009/04/23 09:38:07.9    -145   -206     83    253    267 215.2  18.1  34108  288.70 0855.29
2009/04/23 09:38:08.0     -61   -300    122    307    330 191.5  22.8  34114  288.78 0855.29
2009/04/23 09:38:08.1    -186   -277     31    334    336 213.9   5.3  34110  288.71 0855.29
2009/04/23 09:38:08.2    -154   -375     21    406    407 202.4   3.0  34108  288.70 0855.29
2009/04/23 09:38:08.3    -240   -457    -81    517    524 207.7  -8.9  34114  288.79 0855.29
2009/04/23 09:38:08.4    -260   -421   -106    495    507 211.7 -12.2  34110  288.73 0855.29
2009/04/23 09:38:08.5    -135   -395     21    418    419 198.9   2.9  34108  288.70 0855.29
2009/04/23 09:38:08.6    -126   -326     67    350    357 201.2  10.8  34102  288.59 0855.29
2009/04/23 09:38:08.7      39   -318     69    321    329 172.9  12.3  34108  288.68 0855.30
2009/04/23 09:38:08.8      86   -232     31    248    250 159.5   7.2  34108  288.68 0855.30
2009/04/23 09:38:08.9      56   -256     94    263    279 167.5  20.4  34112  288.76 0855.30
2009/04/23 09:38:09.0     -34   -243    -86    246    261 188.0 -19.4  34108  288.70 0855.30
2009/04/23 09:38:09.1     -11   -193     -5    194    195 183.4  -1.6  34110  288.72 0855.30
2009/04/23 09:38:09.2       0   -113     35    114    120 179.5  17.4  34108  288.70 0855.30
2009/04/23 09:38:09.3     -30   -127     51    131    140 193.4  23.0  34112  288.75 0855.30
2009/04/23 09:38:09.4     -42   -154      9    160    161 195.6   3.3  34110  288.72 0855.30
2009/04/23 09:38:09.5     -50    -93     40    106    113 208.5  21.5  34108  288.70 0855.30
2009/04/23 09:38:09.6     -21   -154    155    156    219 188.0  50.0  34110  288.72 0855.30
2009/04/23 09:38:09.7      89   -341    206    353    408 165.4  33.0  34110  288.72 0855.30
2009/04/23 09:38:09.8      54   -427    159    431    459 172.7  21.0  34108  288.68 0855.30
2009/04/23 09:38:09.9       8   -378    167    379    414 178.8  25.2  34110  288.72 0855.30
2009/04/23 09:38:10.0      -5   -337    187    338    386 181.0  31.4  34110  288.74 0855.30
2009/04/23 09:38:10.1    -104   -392    103    406    420 194.9  14.3  34106  288.65 0855.30
2009/04/23 09:38:10.2     -29   -272    150    274    312 186.3  31.0  34114  288.78 0855.30
2009/04/23 09:38:10.3      16   -207    112    208    236 175.5  30.6  34110  288.74 0855.30
2009/04/23 09:38:10.4      43    -97    145    107    180 155.9  60.0  34116  288.82 0855.30
2009/04/23 09:38:10.5      79   -197    145    213    257 158.1  37.6  34112  288.75 0855.30
2009/04/23 09:38:10.6     -28   -294    188    296    350 185.6  35.5  34106  288.67 0855.30
2009/04/23 09:38:10.7       9   -225     89    226    242 177.5  22.5  34110  288.73 0855.30
2009/04/23 09:38:10.8       8   -198    107    199    225 177.5  30.6  34110  288.72 0855.30
2009/04/23 09:38:10.9     100    -47     65    111    128 115.3  33.5  34116  288.82 0855.30
2009/04/23 09:38:11.0       1   -132     23    133    136 179.5  10.1  34116  288.82 0855.30
2009/04/23 09:38:11.1     -23   -258    -23    260    262 185.1  -5.2  34110  288.73 0855.30
2009/04/23 09:38:11.2      35   -262   -159    265    309 172.2 -38.1  34112  288.76 0855.30
2009/04/23 09:38:11.3     151   -284   -139    322    350 152.0 -29.2  34112  288.76 0855.30
2009/04/23 09:38:11.4      39   -215    -64    219    228 169.5 -21.2  34110  288.74 0855.30
2009/04/23 09:38:11.5      71   -154     14    170    171 155.1   4.9  34108  288.69 0855.30
2009/04/23 09:38:11.6      68   -161     79    175    192 157.1  26.2  34112  288.75 0855.30
2009/04/23 09:38:11.7     -15   -201     92    202    221 184.5  26.2  34110  288.72 0855.32
2009/04/23 09:38:11.8     -17   -226     83    227    241 184.5  21.0  34114  288.80 0855.32
2009/04/23 09:38:11.9      23   -207     70    209    221 173.5  18.6  34114  288.79 0855.32
2009/04/23 09:38:12.0      27   -164     77    167    183 170.7  26.6  34110  288.72 0855.32
2009/04/23 09:38:12.1      13   -230    122    231    261 176.6  30.2  34110  288.71 0855.32
2009/04/23 09:38:12.2      41   -276    190    280    338 171.5  37.6  34112  288.75 0855.32
2009/04/23 09:38:12.3     -19   -254    171    255    307 184.4  37.0  34116  288.81 0855.32
2009/04/23 09:38:12.4    -107   -297    154    316    351 200.0  28.0  34112  288.77 0855.32
2009/04/23 09:38:12.5     -28   -327    143    329    358 185.0  25.1  34114  288.79 0855.32
2009/04/23 09:38:12.6     -95   -354    135    367    391 195.0  21.0  34106  288.67 0855.32
2009/04/23 09:38:12.7     -86   -256    255    271    372 198.7  48.0  34114  288.79 0855.32
2009/04/23 09:38:12.8    -103   -258    213    278    350 201.8  41.3  34112  288.76 0855.32
2009/04/23 09:38:12.9     -29   -206    173    209    271 188.0  43.8  34108  288.70 0855.32
2009/04/23 09:38:13.0     -75   -261    219    272    349 196.0  43.1  34114  288.78 0855.32
2009/04/23 09:38:13.1      47   -159    160    166    230 163.5  49.0  34114  288.80 0855.32
2009/04/23 09:38:13.2      72   -198    209    211    296 160.0  49.9  34118  288.85 0855.32
2009/04/23 09:38:13.3      63   -157    173    170    242 158.2  50.4  34118  288.87 0855.32
2009/04/23 09:38:13.4     200    -68    250    212    327 108.8  55.6  34120  288.88 0855.32
2009/04/23 09:38:13.5     185    -26    243    187    306  98.1  58.5  34120  288.88 0855.32
2009/04/23 09:38:13.6    -118   -100    119    155    195 229.6  41.6  34114  288.79 0855.32
2009/04/23 09:38:13.7    -127    -69    156    145    212 241.2  52.2  34118  288.86 0855.32
2009/04/23 09:38:13.8    -182    -86     85    202    219 244.5  23.8  34118  288.86 0855.32
2009/04/23 09:38:13.9    -115   -113    134    162    210 225.3  43.8  34116  288.82 0855.32
2009/04/23 09:38:14.0    -152    -85    121    175    212 240.9  37.8  34116  288.82 0855.32
2009/04/23 09:38:14.1    -128      1     73    129    148 270.8  31.9  34116  288.84 0855.32
2009/04/23 09:38:14.2     -21     26     94     34     99 320.4  79.7  34122  288.92 0855.32
2009/04/23 09:38:14.3      59     56     85     82    118  46.9  51.2  34120  288.89 0855.32
2009/04/23 09:38:14.4       5     58    117     59    131   5.3  71.4  34124  288.96 0855.32
2009/04/23 09:38:14.5     -86     54     68    102    122 302.4  37.4  34118  288.87 0855.32
2009/04/23 09:38:14.6     -59     62     51     86     99 316.3  33.5  34116  288.84 0855.32
2009/04/23 09:38:14.7       7    -58     65     59     87 172.9  52.7  34116  288.84 0855.32
2009/04/23 09:38:14.8     -26    -89    124     93    155 196.5  60.0  34118  288.86 0855.32
2009/04/23 09:38:14.9      39   -145    130    151    199 164.9  45.4  34118  288.87 0855.32
2009/04/23 09:38:15.1       6   -188    122    189    224 178.0  35.6  34116  288.82 0855.32
2009/04/23 09:38:15.2     -98   -245    129    265    294 201.8  27.8  34118  288.85 0855.32
2009/04/23 09:38:15.3    -240   -307     16    390    391 218.0   2.4  34110  288.72 0855.32
2009/04/23 09:38:15.4    -254   -192     20    319    320 232.9   3.7  34114  288.78 0855.32
2009/04/23 09:38:15.5    -333    -80   -101    343    358 256.5 -16.4  34104  288.62 0855.32
2009/04/23 09:38:15.6    -269    -39    -48    272    277 261.6 -10.1  34122  288.92 0855.32
2009/04/23 09:38:15.7    -269    -44    -35    273    276 260.5  -7.3  34118  288.85 0855.32
2009/04/23 09:38:15.8    -221    -52     -5    228    229 256.7  -1.3  34116  288.82 0855.29
2009/04/23 09:38:15.9    -252    -72    -44    263    267 254.1  -9.6  34106  288.66 0855.29
2009/04/23 09:38:16.0    -246   -130    -96    279    296 242.0 -19.1  34110  288.71 0855.29
2009/04/23 09:38:16.1    -215   -120    -64    247    256 240.7 -14.5  34108  288.68 0855.29
2009/04/23 09:38:16.2    -205    -60   -100    214    236 253.6 -31.4  34106  288.65 0855.29
2009/04/23 09:38:16.3     -94     64    -92    114    146 304.2 -48.1  34120  288.91 0855.29
2009/04/23 09:38:16.4     -80    -49    -58     95    111 238.5 -39.4  34118  288.86 0855.29
2009/04/23 09:38:16.5    -175    -10     56    176    185 266.5  17.7  34116  288.84 0855.29
2009/04/23 09:38:16.6    -115      0     57    116    129 270.4  27.8  34122  288.92 0855.29
2009/04/23 09:38:16.7       8     15     69     18     71  29.0  84.9  34122  288.94 0855.29
2009/04/23 09:38:16.8       2    -35     38     36     52 175.5  50.1  34122  288.94 0855.29
2009/04/23 09:38:16.9      -8      6     60     11     61 309.5  90.0  34126  288.99 0855.29
2009/04/23 09:38:17.0     -87    -62    109    108    153 234.5  50.1  34124  288.96 0855.29
2009/04/23 09:38:17.1    -167    -93     64    192    203 240.7  18.6  34118  288.86 0855.29
2009/04/23 09:38:17.2    -236    -75     -9    248    249 252.3  -2.2  34118  288.85 0855.29
2009/04/23 09:38:17.3    -185      7    -57    186    195 272.4 -17.3  34112  288.75 0855.29
2009/04/23 09:38:17.4    -133   -125    120    183    218 226.7  36.3  34120  288.89 0855.29
2009/04/23 09:38:17.5     -62   -112    190    129    229 209.0  62.7  34124  288.96 0855.29
2009/04/23 09:38:17.6    -121   -177    282    215    354 214.5  58.9  34112  288.76 0855.29
2009/04/23 09:38:17.7    -209   -116    233    240    334 240.9  49.1  34120  288.88 0855.29
2009/04/23 09:38:17.8    -121    -38    148    128    195 252.3  54.6  34122  288.94 0855.23
2009/04/23 09:38:17.9     -81    -44     79     93    122 241.1  45.4  34120  288.89 0855.23
2009/04/23 09:38:18.0    -269   -214    145    344    373 231.5  24.1  34126  289.01 0855.23
2009/04/23 09:38:18.1    -357   -142     82    385    394 248.3  12.1  34118  288.86 0855.23
2009/04/23 09:38:18.2    -228   -102     25    250    252 245.8   5.9  34114  288.80 0855.23
2009/04/23 09:38:18.3    -313    -79     59    323    329 255.8  10.4  34120  288.90 0855.23
2009/04/23 09:38:18.4     -25    153    139    156    208 350.7  46.4  34124  288.97 0855.23
2009/04/23 09:38:18.5     -18    291     45    292    296 356.4   8.9  34120  288.90 0855.23
2009/04/23 09:38:18.6     -13    296     37    297    300 357.4   7.1  34116  288.81 0855.23
2009/04/23 09:38:18.7     -18    242     45    243    248 355.5  10.6  34116  288.81 0855.23
2009/04/23 09:38:18.8     -38    202     33    206    209 349.3   9.3  34114  288.80 0855.23
2009/04/23 09:38:18.9     -57    187      9    196    197 343.1   2.9  34118  288.86 0855.23
2009/04/23 09:38:19.0      -9    118    -42    119    127 355.6 -19.6  34118  288.86 0855.23
2009/04/23 09:38:19.1     156    -44     20    163    165 105.9   7.2  34116  288.82 0855.23
2009/04/23 09:38:19.2     129     35    139    134    193  74.9  50.9  34118  288.87 0855.23
2009/04/23 09:38:19.3     118     47    205    128    241  68.3  64.9  34126  288.99 0855.23
2009/04/23 09:38:19.4     207     42    125    212    246  78.6  33.4  34118  288.87 0855.23
2009/04/23 09:38:19.5     267     58    114    274    296  77.6  23.8  34122  288.93 0855.23
2009/04/23 09:38:19.6     131    101    177    166    242  52.5  52.1  34130  289.06 0855.23
2009/04/23 09:38:19.7     101    101    139    144    200  45.1  49.2  34130  289.06 0855.23
2009/04/23 09:38:19.8     200    132     85    240    255  56.5  19.6  34118  288.87 0855.21
2009/04/23 09:38:19.9     165    113     78    201    215  55.6  22.5  34120  288.89 0855.21
2009/04/23 09:38:20.0     136     75     58    156    166  61.1  21.5  34120  288.91 0855.21
2009/04/23 09:38:20.1     169     55    125    178    217  71.8  38.6  34124  288.96 0855.21
2009/04/23 09:38:20.2     172     63    109    184    213  69.8  33.5  34120  288.89 0855.21
2009/04/23 09:38:20.3     242     25     54    244    251  83.9  12.6  34124  288.97 0855.21
2009/04/23 09:38:20.4     202     -3    129    203    240  91.0  35.5  34118  288.87 0855.21
2009/04/23 09:38:20.5     133    -26     88    136    161 101.4  35.7  34124  288.96 0855.21
2009/04/23 09:38:20.6     161    -53     60    170    181 108.4  19.4  34132  289.09 0855.21
2009/04/23 09:38:20.7     143    -15    111    144    181  96.2  41.7  34136  289.16 0855.21
2009/04/23 09:38:20.8     197     57    164    206    263  73.8  42.7  34142  289.25 0855.21
2009/04/23 09:38:20.9     129     47    142    138    198  70.0  50.7  34130  289.08 0855.21
2009/04/23 09:38:21.0     177      0    150    178    232  90.0  44.1  34136  289.16 0855.21
2009/04/23 09:38:21.1     141     50    106    150    183  70.5  38.8  34152  289.45 0855.21
2009/04/23 09:38:21.2     132     72     96    151    178  61.2  35.5  34186  290.02 0855.21
2009/04/23 09:38:21.3     111     50     96    122    155  65.6  42.7  34196  290.18 0855.21
2009/04/23 09:38:21.4     152     32    125    156    199  78.1  42.7  34146  289.35 0855.21
2009/04/23 09:38:21.5     190     38    131    194    234  78.5  37.0  34180  289.92 0855.21
2009/04/23 09:38:21.6     235     26     97    237    256  83.6  23.4  34164  289.63 0855.21
2009/04/23 09:38:21.7     225     27     56    227    234  83.0  13.9  34182  289.94 0855.21
2009/04/23 09:38:21.8     260     19     53    261    267  85.7  11.6  34202  290.27 0855.24
2009/04/23 09:38:21.9     243     -6     32    244    247  91.5   7.5  34188  290.03 0855.24
2009/04/23 09:38:22.0     241     45    108    246    268  79.4  25.3  34214  290.48 0855.24
2009/04/23 09:38:22.1     220     70     83    231    245  72.3  20.4  34194  290.14 0855.24
2009/04/23 09:38:22.2     274    151     91    313    327  61.1  16.3  34216  290.53 0855.24
2009/04/23 09:38:22.3     240    169     41    294    297  54.9   8.0  34224  290.66 0855.24
2009/04/23 09:38:22.4     136    207    125    249    278  33.4  28.7  34216  290.53 0855.24
2009/04/23 09:38:22.5     148    220    100    266    284  33.8  21.5  34204  290.31 0855.24
2009/04/23 09:38:22.6     227     63    -25    236    238  74.5  -6.2  34172  289.78 0855.24
2009/04/23 09:38:22.7     199    115     11    230    231  60.0   2.8  34196  290.18 0855.24
2009/04/23 09:38:22.8     233    105     40    256    260  65.6   8.9  34164  289.63 0855.24
2009/04/23 09:38:22.9     175    183     61    254    262  43.7  13.5  34184  289.97 0855.24
2009/04/23 09:38:23.0     144     88     10    170    171  58.5   3.6  34170  289.75 0855.24
2009/04/23 09:38:23.1     175     98    -19    201    202  60.7  -5.6  34144  289.30 0855.24
2009/04/23 09:38:23.2     113    140      9    181    182  39.0   3.1  34174  289.80 0855.24
2009/04/23 09:38:23.3      22    126      7    129    130  10.2   3.3  34186  290.01 0855.24
2009/04/23 09:38:23.4      13     21     98     26    101  32.5  84.9  34184  289.99 0855.24
2009/04/23 09:38:23.5      -8      1     76      9     76 281.5  90.0  34178  289.87 0855.24
2009/04/23 09:38:23.6      24    -29     72     38     81 140.3  69.8  34170  289.74 0855.24
2009/04/23 09:38:23.7      27   -103     42    107    114 165.3  22.0  34168  289.70 0855.24
2009/04/23 09:38:23.8      42   -127     -8    134    135 161.5  -3.7  34146  289.35 0855.25
2009/04/23 09:38:23.9      34    -83    -40     90     98 157.3 -30.1  34142  289.28 0855.25
2009/04/23 09:38:24.0      99   -155     30    185    188 147.4   9.3  34128  289.02 0855.25
2009/04/23 09:38:24.1      86   -127      6    154    155 145.7   2.3  34118  288.86 0855.25
2009/04/23 09:38:24.2      60   -157    -11    169    170 159.1  -3.9  34116  288.82 0855.25
2009/04/23 09:38:24.3      61    -96     22    114    117 147.5  11.1  34118  288.86 0855.25
2009/04/23 09:38:24.4      56    -31     29     65     71 118.8  26.2  34130  289.06 0855.25
2009/04/23 09:38:24.5     136    -12     57    137    148  95.2  23.6  34136  289.18 0855.25
2009/04/23 09:38:24.6     120    -84     34    147    151 125.1  13.2  34126  289.01 0855.25
2009/04/23 09:38:24.7      97    -93     67    135    150 133.6  27.8  34126  288.99 0855.25
2009/04/23 09:38:24.8     113    -63     90    130    158 119.3  38.0  34130  289.06 0855.25
2009/04/23 09:38:24.9     161   -197    113    255    278 140.8  25.3  34116  288.83 0855.25
2009/04/23 09:38:25.0     232   -231    182    328    375 134.8  31.4  34116  288.82 0855.25
2009/04/23 09:38:25.1     317   -182    214    366    423 119.9  33.0  34118  288.87 0855.25
2009/04/23 09:38:25.2     204   -167    227    264    348 129.3  45.0  34116  288.83 0855.25
2009/04/23 09:38:25.3     200   -187    179    275    328 133.1  36.2  34120  288.88 0855.25
2009/04/23 09:38:25.4     171   -140    122    222    253 129.3  31.4  34118  288.87 0855.25
2009/04/23 09:38:25.5     198   -102     84    223    238 117.3  21.5  34122  288.93 0855.25
2009/04/23 09:38:25.6     146     15     83    147    168  83.9  32.1  34128  289.04 0855.25
2009/04/23 09:38:25.7     155    -27    159    158    224 100.1  50.1  34120  288.91 0855.25
2009/04/23 09:38:25.8     189   -104    148    216    261 118.9  37.6  34118  288.87 0855.21
2009/04/23 09:38:25.9     142   -117    117    185    218 129.5  35.5  34120  288.89 0855.21
2009/04/23 09:38:26.0     108   -158    145    192    240 145.5  40.7  34126  289.01 0855.21
2009/04/23 09:38:26.1      66   -120    163    138    213 151.0  55.8  34146  289.33 0855.21
2009/04/23 09:38:26.2     -15   -109    118    111    162 188.1  52.0  34186  290.01 0855.21
2009/04/23 09:38:26.3      -1    -94    141     95    170 180.9  62.8  34188  290.06 0855.21
2009/04/23 09:38:26.4      22   -124     90    127    155 169.8  39.1  34170  289.75 0855.21
2009/04/23 09:38:26.5      49   -166    115    174    208 163.5  36.5  34126  289.01 0855.21
2009/04/23 09:38:26.6      72   -241    107    252    273 163.3  24.3  34128  289.03 0855.21
2009/04/23 09:38:26.7      44   -284    147    288    323 171.1  29.1  34116  288.81 0855.21
2009/04/23 09:38:26.8      28   -193    178    196    264 171.5  47.0  34122  288.92 0855.21
2009/04/23 09:38:26.9     141   -121    100    186    211 130.7  30.6  34118  288.87 0855.21
2009/04/23 09:38:27.0     174   -191    125    259    287 137.7  27.4  34118  288.87 0855.21
2009/04/23 09:38:27.1     127   -204    127    241    272 148.1  30.2  34116  288.81 0855.21
2009/04/23 09:38:27.2     116   -211    181    242    302 151.1  40.4  34112  288.75 0855.21
2009/04/23 09:38:27.3     165   -199    212    259    334 140.4  43.6  34118  288.87 0855.21
2009/04/23 09:38:27.4      92   -167    165    191    252 151.0  45.4  34116  288.83 0855.21
2009/04/23 09:38:27.5      52    -67    125     86    151 142.2  62.6  34122  288.92 0855.21
2009/04/23 09:38:27.6     106    -54     76    120    142 117.1  35.5  34120  288.89 0855.21
2009/04/23 09:38:27.7     128   -104     81    165    183 129.1  28.0  34120  288.89 0855.21
2009/04/23 09:38:27.8     130   -138     65    190    201 136.8  18.9  34122  288.94 0855.20
2009/04/23 09:38:27.9      91    -86     68    126    143 133.1  31.3  34120  288.91 0855.20
2009/04/23 09:38:28.0     130   -103     95    167    192 128.4  32.4  34116  288.84 0855.20
2009/04/23 09:38:28.1     117    -60    126    132    182 117.1  48.7  34122  288.94 0855.20
2009/04/23 09:38:28.2      95     -7     78     96    123  94.4  43.7  34120  288.89 0855.20
2009/04/23 09:38:28.3      51    -25     59     57     82 116.2  50.7  34130  289.06 0855.20
2009/04/23 09:38:28.4      30      0     10     31     33  90.0  19.4  34148  289.38 0855.20
2009/04/23 09:38:28.5      34      6     -5     35     36  78.5  -9.3  34162  289.62 0855.20
2009/04/23 09:38:28.6      16     29     14     34     36  29.0  23.0  34162  289.62 0855.20
2009/04/23 09:38:28.7      22     22     29     32     43  45.0  47.9  34152  289.43 0855.20
2009/04/23 09:38:28.8     -15     42     15     45     48 340.0  18.9  34134  289.13 0855.20
2009/04/23 09:38:28.9     -45    -88     92     99    135 207.2  47.9  34128  289.04 0855.20
2009/04/23 09:38:29.0      -9   -121    102    122    159 184.5  44.3  34124  288.96 0855.20
2009/04/23 09:38:29.1      -3    -64     50     65     82 182.7  41.7  34120  288.89 0855.20
2009/04/23 09:38:29.2      39    -42     58     58     82 136.8  50.1  34124  288.97 0855.20
2009/04/23 09:38:29.3     104    -20     66    106    124 101.0  35.5  34158  289.53 0855.20
2009/04/23 09:38:29.4     161     46     98    168    194  74.1  33.1  34234  290.82 0855.20
2009/04/23 09:38:29.5     230     16    -41    231    235  85.9 -10.1  34226  290.68 0855.20
2009/04/23 09:38:29.6     129     18    -39    131    137  82.1 -16.6  34260  291.28 0855.20
2009/04/23 09:38:29.7     118     47     30    128    132  68.2  13.2  34264  291.35 0855.20
2009/04/23 09:38:29.8     123     68     80    141    162  61.2  32.1  34208  290.38 0855.19
2009/04/23 09:38:29.9      87     27    133     92    161  72.7  62.1  34156  289.50 0855.19
2009/04/23 09:38:30.0      50     32    106     60    121  57.6  68.3  34140  289.24 0855.19
2009/04/23 09:38:30.1     -30    -84     98     90    133 199.6  52.2  34162  289.62 0855.19
2009/04/23 09:38:30.2      12    -97     95     98    136 172.4  49.9  34128  289.04 0855.19
2009/04/23 09:38:30.3      21   -118    122    120    171 169.8  50.1  34132  289.09 0855.19
2009/04/23 09:38:30.4      57    -55     71     80    106 134.1  46.9  34154  289.46 0855.19
2009/04/23 09:38:30.5      43     16     67     47     81  69.2  61.5  34186  290.01 0855.19
2009/04/23 09:38:30.6     -17    -82    168     84    187 192.0  71.7  34196  290.19 0855.19
2009/04/23 09:38:30.7      31     28    150     42    155  47.8  84.1  34220  290.58 0855.19
2009/04/23 09:38:30.8       8     26     78     28     82  18.3  79.7  34212  290.47 0855.19
2009/04/23 09:38:30.9     166     82    111    186    216  63.6  33.5  34232  290.81 0855.19
2009/04/23 09:38:31.0     120     66     94    138    166  61.2  37.6  34232  290.79 0855.19
2009/04/23 09:38:31.1      95     32    121    101    157  71.4  55.8  34232  290.81 0855.19
2009/04/23 09:38:31.2     218     73    149    231    274  71.4  35.7  34202  290.27 0855.19
2009/04/23 09:38:31.3     175    127    150    217    263  54.0  37.8  34202  290.29 0855.19
2009/04/23 09:38:31.4     251    167    140    302    332  56.3  26.9  34172  289.78 0855.19
2009/04/23 09:38:31.5     116    129    173    174    245  41.9  50.0  34182  289.96 0855.19
2009/04/23 09:38:31.6     148     36    191    153    244  76.3  57.1  34198  290.23 0855.19
2009/04/23 09:38:31.7     182      1    223    183    288  89.6  56.4  34190  290.09 0855.19
2009/04/23 09:38:31.8     305     38    173    308    353  82.9  31.6  34174  289.81 0855.23
2009/04/23 09:38:31.9     274     74    146    284    319  74.9  29.4  34194  290.14 0855.23
2009/04/23 09:38:32.0     332    186     66    381    387  60.7   9.9  34182  289.96 0855.23
2009/04/23 09:38:32.1     328    130     87    354    365  68.3  13.8  34198  290.23 0855.23
2009/04/23 09:38:32.2     348     45     10    351    352  82.5   1.8  34176  289.84 0855.23
2009/04/23 09:38:32.3     288     82      9    300    301  74.1   1.8  34194  290.15 0855.23
2009/04/23 09:38:32.4     346     72     37    354    356  78.2   6.0  34246  291.03 0855.23
2009/04/23 09:38:32.5     370     45     20    373    374  83.0   3.1  34248  291.05 0855.23
2009/04/23 09:38:32.6     377     21     23    378    379  86.7   3.5  34210  290.42 0855.23
2009/04/23 09:38:32.7     407     68     23    413    414  80.4   3.3  34256  291.21 0855.23
2009/04/23 09:38:32.8     342     29     83    344    355  85.1  13.7  34260  291.27 0855.24
2009/04/23 09:38:32.9     459     43     98    462    473  84.6  12.0  34232  290.79 0855.24
2009/04/23 09:38:33.0     379     29    102    380    394  85.6  15.1  34256  291.20 0855.24
2009/04/23 09:38:33.1     389    108    247    404    473  74.4  34.3  34234  290.82 0855.24
2009/04/23 09:38:33.2     358     20    136    359    383  86.8  21.7  34172  289.76 0855.24
2009/04/23 09:38:33.3     460    212    -49    507    510  65.2  -5.6  34146  289.35 0855.24
2009/04/23 09:38:33.4     353    150   -125    384    404  66.9 -18.1  34152  289.42 0855.24
2009/04/23 09:38:33.5     242    131     53    276    282  61.6  11.0  34154  289.47 0855.24
2009/04/23 09:38:33.6     145     95      9    174    175  56.5   3.1  34154  289.46 0855.24
2009/04/23 09:38:33.7      77     91    119    120    169  40.5  50.2  34152  289.43 0855.24
2009/04/23 09:38:33.8    -164   -129     97    209    230 231.8  27.1  34156  289.52 0855.24
2009/04/23 09:38:33.9    -106   -294    146    313    345 200.0  27.0  34162  289.62 0855.24
2009/04/23 09:38:34.0      65   -219    189    229    296 163.3  43.7  34156  289.49 0855.24
2009/04/23 09:38:34.1     101   -147    191    179    261 145.3  52.1  34166  289.68 0855.24
2009/04/23 09:38:34.2     146   -194    232    243    335 143.0  48.5  34152  289.42 0855.24
2009/04/23 09:38:34.3     126   -151    183    197    268 140.1  47.9  34150  289.39 0855.24
2009/04/23 09:38:34.4      43   -166    178    172    247 165.3  51.2  34148  289.36 0855.24
2009/04/23 09:38:34.5      24   -131    158    134    207 169.3  55.6  34150  289.40 0855.24
2009/04/23 09:38:34.6       3   -203    192    204    280 179.0  48.0  34162  289.61 0855.24
2009/04/23 09:38:34.7       0   -206    191    207    281 180.0  47.9  34150  289.41 0855.24
2009/04/23 09:38:34.8      50   -320    151    324    357 171.1  26.9  34162  289.59 0855.22
2009/04/23 09:38:34.9      59   -278    181    285    337 168.0  35.5  34152  289.42 0855.22
2009/04/23 09:38:35.0     129   -229    198    263    329 150.6  40.8  34148  289.36 0855.22
2009/04/23 09:38:35.1     163   -245    195    295    353 146.4  36.6  34144  289.30 0855.22
2009/04/23 09:38:35.2     300   -203    216    363    422 124.1  33.5  34142  289.27 0855.22
2009/04/23 09:38:35.3     273   -154    178    314    360 119.5  32.1  34146  289.35 0855.22
2009/04/23 09:38:35.4     299   -100    234    316    393 108.6  40.4  34146  289.33 0855.22
2009/04/23 09:38:35.5     266   -101    247    285    377 110.9  45.5  34142  289.26 0855.22
2009/04/23 09:38:35.6     163   -116    215    201    294 125.5  52.1  34146  289.34 0855.22
2009/04/23 09:38:35.7      91   -134    183    163    245 145.8  54.0  34142  289.26 0855.22
2009/04/23 09:38:35.8     119   -356    271    376    463 161.5  39.5  34146  289.33 0855.22
2009/04/23 09:38:35.9       9   -433    154    434    461 178.8  19.6  34168  289.70 0855.22
2009/04/23 09:38:36.0      -6   -496    146    497    519 180.7  16.4  34178  289.86 0855.22
2009/04/23 09:38:36.1      64   -476     32    481    483 172.3   3.9  34164  289.64 0855.22
2009/04/23 09:38:36.2      36   -413    -57    415    419 174.9  -7.9  34166  289.68 0855.22
2009/04/23 09:38:36.3       8   -316    -60    317    323 178.4 -10.8  34158  289.54 0855.22
2009/04/23 09:38:36.4      87   -207    -20    225    226 157.1  -5.1  34160  289.58 0855.22
2009/04/23 09:38:36.5       0   -274    -87    275    288 180.0 -22.8  34138  289.20 0855.22
2009/04/23 09:38:36.6     109   -375    -70    391    398 163.7 -10.3  34106  288.67 0855.22
2009/04/23 09:38:36.7     195   -395     -8    441    442 153.7  -1.1  34120  288.90 0855.22
2009/04/23 09:38:36.8     298   -248     66    389    395 129.8   9.7  34124  288.96 0855.19
2009/04/23 09:38:36.9     229   -234    198    328    383 135.7  34.1  34136  289.18 0855.19
2009/04/23 09:38:37.0     231   -266    255    353    435 139.0  39.5  34128  289.02 0855.19
2009/04/23 09:38:37.1     205   -224    128    304    329 137.6  24.2  34112  288.76 0855.19
2009/04/23 09:38:37.2     237   -259     40    352    355 137.5   6.6  34116  288.84 0855.19
2009/04/23 09:38:37.3     135   -303    119    332    352 155.9  20.6  34124  288.96 0855.19
2009/04/23 09:38:37.4     268   -133    143    300    332 116.4  27.3  34130  289.07 0855.19
2009/04/23 09:38:37.5     114   -113    206    161    261 134.8  58.2  34134  289.12 0855.19
2009/04/23 09:38:37.6      83   -175    213    194    288 154.5  53.2  34132  289.10 0855.19
2009/04/23 09:38:37.7      74    -79    179    109    209 136.8  65.7  34120  288.91 0855.19
2009/04/23 09:38:37.8       9     32    128     34    132  16.9  84.9  34138  289.21 0855.19
2009/04/23 09:38:37.9      73    -60    149     95    176 129.5  64.6  34144  289.31 0855.19
2009/04/23 09:38:38.0     111    -67    145    130    194 121.1  53.5  34138  289.19 0855.19
2009/04/23 09:38:38.1     -41     50    126     65    141 320.3  70.8  34138  289.21 0855.19
2009/04/23 09:38:38.2     -50     35    143     62    155 305.1  75.0  34126  288.99 0855.19
2009/04/23 09:38:38.3      11     96    171     97    196   6.7  68.1  34124  288.97 0855.19
2009/04/23 09:38:38.4    -112    -41    139    120    183 249.6  54.8  34124  288.97 0855.19
2009/04/23 09:38:38.5    -258     48     92    263    279 280.6  19.4  34116  288.83 0855.19
2009/04/23 09:38:38.6    -370     70    137    377    401 280.7  20.8  34120  288.88 0855.19
2009/04/23 09:38:38.7    -265    125    173    294    341 295.3  33.3  34128  289.02 0855.19
2009/04/23 09:38:38.8     -57     46    282     74    291 308.6  84.9  34126  289.00 0855.16
2009/04/23 09:38:38.9    -216   -292    277    364    457 216.5  41.1  34150  289.39 0855.16
2009/04/23 09:38:39.0    -381   -343    130    513    530 228.0  14.3  34128  289.04 0855.16
2009/04/23 09:38:39.1    -396   -263    123    476    492 236.4  14.5  34142  289.27 0855.16
2009/04/23 09:38:39.2    -180    -35    145    184    234 259.0  42.2  34114  288.79 0855.16
2009/04/23 09:38:39.3    -286    135    173    317    361 295.2  31.3  34116  288.84 0855.16
2009/04/23 09:38:39.4    -166    280    126    326    349 329.2  22.2  34110  288.74 0855.16
2009/04/23 09:38:39.5       3    -64    145     65    158 177.3  74.2  34140  289.23 0855.16
2009/04/23 09:38:39.6      89   -162    145    185    235 151.1  42.2  34126  288.99 0855.16
2009/04/23 09:38:39.7     -89   -109    234    141    273 219.2  66.0  34126  289.00 0855.16
2009/04/23 09:38:39.8    -135     14    166    136    214 276.1  56.4  34122  288.92 0855.16
2009/04/23 09:38:39.9    -133    -76    111    154    189 240.2  39.5  34126  289.01 0855.16
2009/04/23 09:38:40.0    -123   -181    169    219    276 214.2  41.6  34136  289.17 0855.16
2009/04/23 09:38:40.1    -219   -261    129    342    365 220.0  21.5  34142  289.28 0855.16
2009/04/23 09:38:40.2    -270   -218     63    348    354 231.0  10.4  34144  289.30 0855.16
2009/04/23 09:38:40.3    -356   -224    129    421    441 237.8  17.1  34130  289.07 0855.16
2009/04/23 09:38:40.4    -217   -249    200    331    386 221.1  34.0  34116  288.82 0855.16
2009/04/23 09:38:40.5    -190   -160    132    249    281 229.8  30.3  34142  289.25 0855.16
2009/04/23 09:38:40.6    -121    -19     99    123    157 260.8  43.3  34140  289.24 0855.16
2009/04/23 09:38:40.7    -196     43   -113    201    230 282.4 -36.0  34140  289.23 0855.16
2009/04/23 09:38:40.8    -195   -124    -75    232    244 237.6 -17.9  34134  289.14 0855.16
2009/04/23 09:38:40.9    -176      0   -108    177    207 270.1 -38.8  34110  288.72 0855.16
2009/04/23 09:38:41.0    -118     -2    -29    119    123 268.7 -13.9  34114  288.80 0855.16
2009/04/23 09:38:41.1     -41    -78     61     89    107 208.1  37.6  34122  288.92 0855.16
2009/04/23 09:38:41.2     -24   -101    146    104    179 193.8  60.8  34128  289.02 0855.16
2009/04/23 09:38:41.3     -30    -96    128    101    163 197.4  57.7  34134  289.14 0855.16
2009/04/23 09:38:41.4     -77    -38    101     87    133 243.4  54.3  34132  289.09 0855.16
2009/04/23 09:38:41.5    -193    -50      8    200    201 255.4   2.5  34126  289.01 0855.16
2009/04/23 09:38:41.6    -174    -56    -57    183    191 252.1 -22.5  34136  289.16 0855.16
2009/04/23 09:38:41.7    -117    -45      2    126    127 248.7   1.2  34140  289.23 0855.16
2009/04/23 09:38:41.8     -82    -27      8     87     88 251.4   5.4  34140  289.24 0855.16
2009/04/23 09:38:41.9     -65     53    -12     85     86 309.1  -8.2  34146  289.33 0855.16
2009/04/23 09:38:42.0    -123     70    -56    142    152 299.8 -27.4  34138  289.21 0855.16
2009/04/23 09:38:42.1    -177     55    -82    186    203 287.3 -29.5  34142  289.28 0855.16
2009/04/23 09:38:42.2    -223     87    -79    240    252 291.3 -23.8  34148  289.37 0855.16
2009/04/23 09:38:42.3    -191     14    -91    192    212 274.3 -31.5  34146  289.33 0855.16
2009/04/23 09:38:42.4    -150      6   -110    151    186 272.5 -44.1  34144  289.30 0855.16
2009/04/23 09:38:42.5    -285    -16    -13    286    287 266.7  -2.8  34136  289.15 0855.16
2009/04/23 09:38:42.6    -291    -17     -5    292    293 266.6  -1.2  34144  289.29 0855.16
2009/04/23 09:38:42.7    -279     11      8    280    281 272.4   1.7  34150  289.39 0855.16
2009/04/23 09:38:42.9    -245   -107    -48    268    273 246.3 -10.3  34136  289.15 0855.15
2009/04/23 09:38:43.0    -167   -201     45    262    266 219.7   9.9  34154  289.47 0855.15
2009/04/23 09:38:43.1    -190   -138    -65    235    244 234.0 -15.5  34148  289.36 0855.15
2009/04/23 09:38:43.2    -208   -113    -70    238    248 241.4 -21.5  34134  289.12 0855.15
2009/04/23 09:38:43.3    -218   -209    -11    303    304 226.2  -2.2  34142  289.27 0855.15
2009/04/23 09:38:43.4    -316    -16    -52    317    322 267.0  -9.3  34132  289.10 0855.15
2009/04/23 09:38:43.5    -272   -283    -28    393    394 223.9  -4.1  34126  288.99 0855.15
2009/04/23 09:38:43.6    -244   -224     52    332    337 227.4   8.9  34122  288.93 0855.15
2009/04/23 09:38:43.7    -198   -199     61    281    288 224.8  12.4  34126  288.98 0855.15
2009/04/23 09:38:43.8    -135   -158     51    209    216 220.5  13.9  34126  288.99 0855.15
2009/04/23 09:38:43.9     -68    -45     47     82     94 236.7  32.9  34138  289.19 0855.15
2009/04/23 09:38:44.0     -70     75    -41    103    110 316.8 -27.4  34138  289.19 0855.15
2009/04/23 09:38:44.1     -74     79     -6    109    110 317.2  -3.2  34148  289.36 0855.15
2009/04/23 09:38:44.2      -9      3    -17     10     19 291.7 -69.1  34152  289.43 0855.15
2009/04/23 09:38:44.3       9     -3     -2     10     11 108.4 -11.3  34152  289.43 0855.15
2009/04/23 09:38:44.4      76     13      0     78     79  80.3   0.2  34138  289.21 0855.15
2009/04/23 09:38:44.5      65    -36      3     75     76 118.9   2.9  34142  289.28 0855.15
2009/04/23 09:38:44.6      21    -49     24     54     59 156.4  25.1  34146  289.33 0855.15
2009/04/23 09:38:44.7      16    -37     16     41     44 156.4  21.0  34148  289.36 0855.15
2009/04/23 09:38:44.8       5     10     13     12     17  29.0  48.2  34144  289.31 0855.15
2009/04/23 09:38:44.9     -23     58     37     63     73 338.2  33.5  34150  289.40 0855.15
2009/04/23 09:38:45.0     -92     66     41    114    121 306.0  20.9  34142  289.28 0855.15
2009/04/23 09:38:45.1    -128      1     94    129    159 270.8  39.7  34126  288.99 0855.15
2009/04/23 09:38:45.2    -203     95     85    225    240 295.2  21.5  34134  289.12 0855.15
2009/04/23 09:38:45.3    -121    169     20    209    211 324.4   5.7  34170  289.74 0855.15
2009/04/23 09:38:45.4    -176    158     35    237    240 312.0   8.5  34162  289.59 0855.15
2009/04/23 09:38:45.5    -131    117    109    177    207 311.8  34.8  34150  289.40 0855.15
2009/04/23 09:38:45.6    -161    155    113    224    250 313.8  28.5  34144  289.31 0855.15
2009/04/23 09:38:45.7    -184     61     83    194    211 288.4  24.6  34146  289.33 0855.15
2009/04/23 09:38:45.8    -116     62      6    132    133 298.4   2.9  34140  289.23 0855.15
2009/04/23 09:38:45.9     -71     86    -41    112    119 320.4 -25.3  34138  289.19 0855.15
2009/04/23 09:38:46.0    -136    117    -50    180    187 310.9 -15.5  34132  289.11 0855.15
2009/04/23 09:38:46.1    -179     81    -38    197    201 294.4 -11.1  34138  289.19 0855.15
2009/04/23 09:38:46.2    -260    138    -16    295    296 298.0  -3.2  34128  289.03 0855.15
2009/04/23 09:38:46.3    -352    127     59    375    380 289.9   9.0  34136  289.16 0855.15
2009/04/23 09:38:46.4    -272     58    107    279    298 282.2  22.0  34136  289.17 0855.15
2009/04/23 09:38:46.5    -159    205    166    260    308 322.2  35.6  34134  289.14 0855.15
2009/04/23 09:38:46.6    -130    176    143    220    262 323.5  35.7  34142  289.25 0855.15
2009/04/23 09:38:46.7    -126     63    126    142    189 296.6  46.2  34142  289.26 0855.15
2009/04/23 09:38:46.8     -84     29    133     89    160 289.1  63.2  34150  289.41 0855.15
2009/04/23 09:38:46.9     -73     36     97     82    127 296.6  55.4  34152  289.43 0855.17
2009/04/23 09:38:47.0    -148      2     85    149    171 270.9  32.4  34142  289.26 0855.17
2009/04/23 09:38:47.1    -114   -153     91    191    211 216.7  27.2  34136  289.16 0855.17
2009/04/23 09:38:47.2    -107   -234     50    258    263 204.5  11.1  34128  289.02 0855.17
2009/04/23 09:38:47.3    -233   -198    -12    307    308 229.6  -2.2  34132  289.10 0855.17
2009/04/23 09:38:47.4     173    -14    225    174    284  94.8  58.5  34142  289.25 0855.17
2009/04/23 09:38:47.5     242   -112    334    267    427 114.8  57.3  34136  289.18 0855.17
2009/04/23 09:38:47.6     495   -210    316    538    623 113.0  33.1  34132  289.10 0855.17
2009/04/23 09:38:47.7     466   -227    294    519    596 116.0  32.0  34136  289.15 0855.17
2009/04/23 09:38:47.8     379   -135    159    403    433 109.6  22.8  34136  289.16 0855.17
2009/04/23 09:38:47.9     330     52    190    335    385  81.0  32.0  34134  289.13 0855.17
2009/04/23 09:38:48.0     326   -165    214    366    423 116.9  33.0  34140  289.24 0855.17
2009/04/23 09:38:48.1     330   -155    246    365    440 115.2  37.3  34132  289.11 0855.17
2009/04/23 09:38:48.2     529   -230    123    577    591 113.5  12.1  34140  289.24 0855.17
2009/04/23 09:38:48.3     562   -171    -57    588    591 107.0  -5.6  34130  289.07 0855.17
2009/04/23 09:38:48.4     596   -123    -63    609    613 101.7  -6.0  34130  289.07 0855.17
2009/04/23 09:38:48.5     735    -63     91    738    744  95.0   7.1  34134  289.12 0855.17
2009/04/23 09:38:48.6     467    137    525    487    716  73.6  52.5  34136  289.15 0855.17
2009/04/23 09:38:48.7     232    117    343    261    431  63.1  59.0  34126  288.98 0855.17
2009/04/23 09:38:48.8     471     90     57    480    484  79.1   6.9  34110  288.71 0855.17
2009/04/23 09:38:48.9     287    188    131    344    368  56.8  21.7  34120  288.88 0855.17
2009/04/23 09:38:49.0     395    249    224    468    518  57.8  27.3  34122  288.93 0855.17
2009/04/23 09:38:49.1     587     -8    -82    588    594  90.8  -8.0  34116  288.81 0855.17
2009/04/23 09:38:49.2     645   -113     44    656    658 100.0   3.9  34106  288.65 0855.17
2009/04/23 09:38:49.3     463    -88    152    472    497 100.8  17.9  34118  288.86 0855.17
2009/04/23 09:38:49.4     420   -109    118    434    450 104.6  15.3  34108  288.70 0855.17
2009/04/23 09:38:49.5     585   -163     -2    608    609 105.6  -0.3  34094  288.46 0855.17
2009/04/23 09:38:49.6     700   -144   -133    715    728 101.7 -10.6  34124  288.96 0855.17
2009/04/23 09:38:49.7     577    164    -42    600    602  74.1  -4.0  34130  289.07 0855.17
2009/04/23 09:38:49.8     717     54   -227    719    754  85.6 -17.5  34106  288.67 0855.17
2009/04/23 09:38:49.9     505   -113    -56    518    522 102.7  -6.3  34112  288.75 0855.17
2009/04/23 09:38:50.0     511   -100     72    521    526 101.1   7.9  34118  288.85 0855.17
2009/04/23 09:38:50.1     335   -146    109    366    383 113.5  16.7  34114  288.79 0855.17
2009/04/23 09:38:50.2     366   -122    297    386    487 108.5  41.5  34118  288.85 0855.17
2009/04/23 09:38:50.3     465    -49    254    468    532  96.1  30.9  34116  288.84 0855.17
2009/04/23 09:38:50.4     426   -193    170    468    497 114.4  20.9  34118  288.86 0855.17
2009/04/23 09:38:50.5     407   -203    164    455    483 116.5  20.6  34118  288.86 0855.17
2009/04/23 09:38:50.6     330   -147    197    362    412 114.0  30.9  34112  288.77 0855.17
2009/04/23 09:38:50.7      29     11    189     32    191  68.3  90.0  34122  288.92 0855.17
2009/04/23 09:38:50.8      16   -255    182    256    314 176.2  39.1  34116  288.83 0855.17
2009/04/23 09:38:50.9      98   -364    311    378    489 164.9  43.7  34114  288.78 0855.19
2009/04/23 09:38:51.0      69   -109    252    130    283 147.5  70.8  34118  288.87 0855.19
2009/04/23 09:38:51.1     325     42    278    328    429  82.5  44.8  34116  288.81 0855.19
2009/04/23 09:38:51.2     390    144    182    416    454  69.7  25.2  34114  288.78 0855.19
2009/04/23 09:38:51.3     445    150    241    470    528  71.3  29.3  34100  288.56 0855.19
2009/04/23 09:38:51.4     358     68    166    365    400  79.2  26.2  34116  288.81 0855.19
2009/04/23 09:38:51.5     431     40    118    434    450  84.7  15.3  34112  288.75 0855.19
2009/04/23 09:38:51.6     372    235    -12    441    442  57.7  -1.6  34126  288.99 0855.19
2009/04/23 09:38:51.7     421    318    -91    528    536  52.9  -9.8  34132  289.09 0855.19
2009/04/23 09:38:51.8     428    360   -117    560    573  50.0 -11.8  34138  289.19 0855.19
2009/04/23 09:38:51.9     433    101     14    445    446  76.8   1.9  34124  288.97 0855.19
2009/04/23 09:38:52.0     216     78    -71    230    241  70.0 -17.3  34124  288.95 0855.19
2009/04/23 09:38:52.1      58    185     14    195    196  17.6   4.2  34130  289.06 0855.19
2009/04/23 09:38:52.2       2    305     -1    306    307   0.5  -0.3  34168  289.71 0855.19
2009/04/23 09:38:52.3      26    263    -53    265    271   5.8 -11.3  34160  289.56 0855.19
2009/04/23 09:38:52.4     268    150     61    308    315  60.7  11.3  34118  288.87 0855.19
2009/04/23 09:38:52.5     292    158    200    333    388  61.5  34.0  34096  288.49 0855.19
2009/04/23 09:38:52.6     417    230    210    477    521  61.2  25.2  34108  288.68 0855.19
2009/04/23 09:38:52.7     371    406    246    551    603  42.4  25.7  34112  288.75 0855.19
2009/04/23 09:38:52.8     289    277    194    401    445  46.2  27.7  34114  288.78 0855.19
2009/04/23 09:38:52.9     443     56    360    447    573  82.8  42.9  34102  288.60 0855.24
2009/04/23 09:38:53.0     344    270    255    438    506  51.9  32.9  34110  288.73 0855.24
2009/04/23 09:38:53.1     152    297    125    334    356  27.2  21.5  34114  288.79 0855.24
2009/04/23 09:38:53.2     148    174     83    229    243  40.3  20.7  34116  288.81 0855.24
2009/04/23 09:38:53.3     195    132    223    236    324  55.8  48.4  34110  288.73 0855.24
2009/04/23 09:38:53.4     106     77    192    132    232  54.0  62.6  34116  288.84 0855.24
2009/04/23 09:38:53.5      57    106    250    121    277  28.1  72.4  34120  288.90 0855.24
2009/04/23 09:38:53.6     280    108    337    301    451  68.9  53.7  34126  288.99 0855.24
2009/04/23 09:38:53.7     178     55    233    187    298  72.7  57.1  34130  289.07 0855.24
2009/04/23 09:38:53.8     351    173    285    392    484  63.7  39.7  34122  288.92 0855.24
2009/04/23 09:38:53.9     302    137    286    332    438  65.5  45.2  34130  289.05 0855.27
2009/04/23 09:38:54.0     354    256    142    438    461  54.1  18.0  34126  288.99 0855.27
2009/04/23 09:38:54.1     442    196     43    484    486  66.1   5.1  34124  288.95 0855.27
2009/04/23 09:38:54.2     347    301    117    460    475  49.1  14.3  34118  288.86 0855.27
2009/04/23 09:38:54.3     543    277     76    610    615  62.9   7.1  34114  288.78 0855.27
2009/04/23 09:38:54.4     424    347    119    549    562  50.7  12.3  34114  288.80 0855.27
2009/04/23 09:38:54.5     510    393    159    644    664  52.4  13.9  34126  289.00 0855.27
2009/04/23 09:38:54.6     262    232    187    351    397  48.5  30.3  34120  288.91 0855.27
2009/04/23 09:38:54.7      55    171     93    180    202  18.0  29.3  34140  289.24 0855.27
2009/04/23 09:38:54.8     111     39     85    118    145  70.5  39.5  34132  289.09 0855.27
2009/04/23 09:38:54.9      53   -240    149    246    287 167.5  34.2  34122  288.92 0855.27
2009/04/23 09:38:55.0      27   -286     40    288    291 174.6   8.0  34122  288.92 0855.27
2009/04/23 09:38:55.1      68   -231    -30    241    243 163.5  -7.3  34126  289.00 0855.27
2009/04/23 09:38:55.2     184   -377    100    420    432 153.9  13.5  34112  288.77 0855.27
2009/04/23 09:38:55.3     371   -353    109    513    525 133.6  12.0  34120  288.89 0855.27
2009/04/23 09:38:55.4     270   -422    151    502    525 147.4  16.8  34096  288.49 0855.27
2009/04/23 09:38:55.5     305   -361     77    473    480 139.8   9.3  34114  288.78 0855.27
2009/04/23 09:38:55.6     232   -479    150    533    554 154.1  15.8  34110  288.72 0855.27
2009/04/23 09:38:55.7     195   -400    251    446    511 154.0  31.9  34110  288.74 0855.27
2009/04/23 09:38:55.8      85   -196    194    214    288 156.4  46.9  34116  288.81 0855.27
2009/04/23 09:38:55.9     306   -122    170    330    371 111.8  29.3  34114  288.79 0855.27
2009/04/23 09:38:56.0     366   -128    164    388    421 109.3  24.2  34110  288.73 0855.27
2009/04/23 09:38:56.1     295    -43    216    299    368  98.4  39.5  34100  288.54 0855.27
2009/04/23 09:38:56.2     302      9    282    303    413  88.3  47.9  34120  288.88 0855.27
2009/04/23 09:38:56.3     330     -8    294    331    442  91.5  46.2  34124  288.95 0855.27
2009/04/23 09:38:56.4     395     72    340    402    526  79.6  44.4  34124  288.96 0855.27
2009/04/23 09:38:56.5     292     40    321    295    435  82.1  52.7  34126  288.98 0855.27
2009/04/23 09:38:56.6      46     70    258     84    271  33.4  80.7  34128  289.02 0855.27
2009/04/23 09:38:56.7     -50     13    262     52    267 285.1  89.1  34132  289.11 0855.27
2009/04/23 09:38:56.8     -71     23    256     75    266 288.6  83.5  34134  289.13 0855.27
2009/04/23 09:38:56.9    -157     12    238    158    285 274.4  63.6  34120  288.88 0855.27
2009/04/23 09:38:57.0    -252     72    245    263    359 285.9  47.9  34116  288.84 0855.27
2009/04/23 09:38:57.1       3     76    180     77    195   2.7  75.5  34114  288.80 0855.27
2009/04/23 09:38:57.2      38      9    270     40    272  76.7  90.0  34118  288.87 0855.27
2009/04/23 09:38:57.3     140      0    132    141    193  90.0  48.0  34110  288.72 0855.27
2009/04/23 09:38:57.4     102    215    119    239    266  25.4  28.2  34110  288.73 0855.27
2009/04/23 09:38:57.5     -59     20    137     63    150 288.6  73.1  34110  288.74 0855.27
2009/04/23 09:38:57.6    -198    204    110    285    305 315.9  22.1  34098  288.51 0855.27
2009/04/23 09:38:57.7     -55    115     95    128    159 334.1  40.4  34106  288.67 0855.27
2009/04/23 09:38:57.8     113    155    218    193    291  36.1  54.2  34108  288.70 0855.27
2009/04/23 09:38:57.9      13    -28    242     32    244 154.5  90.0  34114  288.80 0855.28
2009/04/23 09:38:58.0      67     -8    185     68    197  97.0  79.1  34120  288.91 0855.28
2009/04/23 09:38:58.1     285     67     52    293    298  76.7  10.1  34114  288.78 0855.28
2009/04/23 09:38:58.2     218      4    209    219    302  88.7  48.5  34120  288.90 0855.28
2009/04/23 09:38:58.3     136     35     88    141    166  75.4  35.2  34122  288.92 0855.28
2009/04/23 09:38:58.4    -114   -120    110    166    199 223.4  36.7  34118  288.87 0855.28
2009/04/23 09:38:58.5    -158   -104    100    190    214 236.5  30.1  34116  288.84 0855.28
2009/04/23 09:38:58.6    -144     52     78    154    172 290.0  29.1  34126  288.99 0855.28
2009/04/23 09:38:58.7     -43    118     10    126    127 340.0   4.9  34132  289.09 0855.28
2009/04/23 09:38:58.8      44    133     22    141    143  18.3   9.0  34132  289.09 0855.28
2009/04/23 09:38:58.9     133    248    -88    282    296  28.3 -17.3  34152  289.44 0855.28
2009/04/23 09:38:59.0     152    293    -96    331    344  27.5 -21.0  34122  288.94 0855.28
2009/04/23 09:38:59.1      98    144    -34    175    179  34.1 -11.1  34126  289.01 0855.28
2009/04/23 09:38:59.2     259    239     -5    353    354  47.4  -0.9  34142  289.28 0855.28
2009/04/23 09:38:59.3     179    130    -99    222    243  54.0 -29.7  34122  288.92 0855.28
2009/04/23 09:38:59.4      96    204    -54    226    233  25.3 -13.4  34150  289.40 0855.28
2009/04/23 09:38:59.5     -26    190    193    192    272 352.0  50.1  34162  289.61 0855.28
2009/04/23 09:38:59.6     -37    123    111    129    170 343.1  45.1  34150  289.41 0855.28
2009/04/23 09:38:59.7     243    248     54    348    353  44.3   8.9  34162  289.62 0855.28
2009/04/23 09:38:59.8     211    157     52    264    270  53.4  11.1  34150  289.41 0855.28
2009/04/23 09:38:59.9     109    240     94    264    280  24.5  20.4  34158  289.54 0855.30
2009/04/23 09:39:00.0     215    229    236    315    393  43.2  40.7  34158  289.55 0855.30
2009/04/23 09:39:00.1     228    130    174    263    315  60.2  36.6  34150  289.41 0855.30
2009/04/23 09:39:00.2     417    298    347    513    619  54.4  37.4  34126  288.98 0855.30
2009/04/23 09:39:00.3     304    113    484    325    582  69.5  63.2  34126  288.98 0855.30
2009/04/23 09:39:00.4     149    148    410    211    461  45.3  70.8  34142  289.28 0855.30
2009/04/23 09:39:00.5     364     98    590    378    700  74.9  64.4  34126  289.00 0855.30
2009/04/23 09:39:00.6     -63    -76    448     99    458 219.6  88.1  34126  289.01 0855.30
2009/04/23 09:39:00.7      24     -1    398     25    398  94.4  90.0  34130  289.05 0855.30
2009/04/23 09:39:00.8      38   -115    313    122    335 161.7  77.6  34120  288.88 0855.30
2009/04/23 09:39:00.9     133   -377    370    400    544 160.5  47.7  34114  288.79 0855.30
2009/04/23 09:39:01.0      62   -230    268    239    359 164.8  53.9  34126  289.00 0855.30
2009/04/23 09:39:01.1       0   -379    348    380    515 180.0  47.3  34116  288.83 0855.30
2009/04/23 09:39:01.2      18   -383    339    384    512 177.3  45.9  34116  288.83 0855.30
2009/04/23 09:39:01.3    -115   -387    347    404    532 196.6  45.1  34112  288.76 0855.30
2009/04/23 09:39:01.4      20   -459    465    460    654 177.4  50.4  34118  288.86 0855.30
2009/04/23 09:39:01.5     120   -548    478    562    737 167.6  44.8  34122  288.92 0855.30
2009/04/23 09:39:01.6      44   -471    413    474    628 174.6  45.5  34118  288.86 0855.30
2009/04/23 09:39:01.7      15   -379    373    380    532 177.7  49.4  34126  288.98 0855.30
2009/04/23 09:39:01.8    -147   -265    292    304    421 209.0  48.8  34116  288.84 0855.30
2009/04/23 09:39:01.9    -105   -403    489    417    642 194.7  55.3  34104  288.63 0855.31
2009/04/23 09:39:02.0    -491   -562    306    747    807 221.2  23.5  34128  289.02 0855.31
2009/04/23 09:39:02.1    -679   -593    -96    902    908 228.9  -6.1  34130  289.06 0855.31
2009/04/23 09:39:02.2    -880   -565   -274   1047   1083 237.3 -14.7  34108  288.69 0855.31
2009/04/23 09:39:02.3    -477   -589    -89    758    764 219.0  -6.7  34108  288.68 0855.31
2009/04/23 09:39:02.4    -553   -646    101    851    857 220.5   6.8  34114  288.78 0855.31
2009/04/23 09:39:02.5    -668   -571      7    880    881 229.5   0.5  34110  288.74 0855.31
2009/04/23 09:39:02.6    -405   -645     -2    762    763 212.1  -0.2  34108  288.70 0855.31
2009/04/23 09:39:02.7    -216   -591     71    630    635 200.1   6.5  34126  288.99 0855.31
2009/04/23 09:39:02.8    -209   -387    -51    440    444 208.4  -6.7  34130  289.05 0855.31
2009/04/23 09:39:02.9    -221   -360   -145    423    448 211.5 -18.9  34120  288.90 0855.31
2009/04/23 09:39:03.0    -214   -448    -39    497    499 205.6  -4.6  34126  289.01 0855.31
2009/04/23 09:39:03.1    -145   -534   -119    554    567 195.2 -12.2  34122  288.94 0855.31
2009/04/23 09:39:03.2     -54   -559   -154    562    583 185.6 -15.4  34112  288.75 0855.31
2009/04/23 09:39:03.3    -145   -219   -130    263    293 213.6 -32.6  34118  288.85 0855.31
2009/04/23 09:39:03.4    -215   -120   -184    247    308 240.9 -44.8  34126  288.98 0855.31
2009/04/23 09:39:03.5    -267   -276   -109    385    400 224.0 -20.7  34126  288.98 0855.31
2009/04/23 09:39:03.6    -291   -314     22    429    430 222.8   3.0  34112  288.77 0855.31
2009/04/23 09:39:03.7     -96   -419    -62    431    436 193.0  -8.3  34106  288.65 0855.31
2009/04/23 09:39:03.8    -111   -176      8    209    210 212.3   2.3  34100  288.57 0855.31
2009/04/23 09:39:03.9    -144   -585     72    603    608 193.9   6.9  34112  288.76 0855.32
2009/04/23 09:39:04.0     -56   -717    119    720    730 184.5   9.4  34104  288.64 0855.32
2009/04/23 09:39:04.1       1   -640     98    641    649 179.9   8.7  34106  288.65 0855.32
2009/04/23 09:39:04.2     -20   -658     32    659    660 181.8   2.8  34100  288.55 0855.32
2009/04/23 09:39:04.3    -267   -635      8    689    690 202.8   0.7  34098  288.51 0855.32
2009/04/23 09:39:04.4      12   -528    -29    529    530 178.6  -3.2  34100  288.57 0855.32
2009/04/23 09:39:04.5    -144   -665     10    681    682 192.3   0.9  34096  288.50 0855.32
2009/04/23 09:39:04.6     -85   -556      3    563    564 188.7   0.3  34100  288.57 0855.32
2009/04/23 09:39:04.7    -209   -476    -49    521    524 203.7  -5.5  34100  288.55 0855.32
2009/04/23 09:39:04.8    -179   -656   -123    681    693 195.3 -10.3  34096  288.50 0855.32
2009/04/23 09:39:04.9    -131   -616   -182    631    656 192.1 -20.9  34094  288.47 0855.32
2009/04/23 09:39:05.0    -369   -558   -192    670    698 213.5 -16.0  34100  288.55 0855.32
2009/04/23 09:39:05.1    -282   -524    -93    596    604 208.3  -8.9  34100  288.54 0855.32
2009/04/23 09:39:05.2    -183   -501    -56    534    538 200.1  -6.1  34098  288.53 0855.32
2009/04/23 09:39:05.3    -138   -437    -49    459    462 197.5  -6.2  34098  288.53 0855.32
2009/04/23 09:39:05.4    -202   -473   -143    515    535 203.2 -15.5  34094  288.47 0855.32
2009/04/23 09:39:05.5      12   -484   -102    485    496 178.5 -11.9  34094  288.46 0855.32
2009/04/23 09:39:05.6    -392   -354    -92    529    538 228.0  -9.9  34100  288.55 0855.32
2009/04/23 09:39:05.7    -145   -232   -111    274    295 212.1 -27.5  34098  288.53 0855.32
2009/04/23 09:39:05.8     -35   -299      9    302    303 186.7   1.7  34100  288.54 0855.32
2009/04/23 09:39:05.9      36   -305    -67    308    316 173.1 -12.3  34100  288.56 0855.34
2009/04/23 09:39:06.0     179   -364    -59    406    411 153.7  -8.4  34098  288.53 0855.34
2009/04/23 09:39:06.1     294   -293    -13    416    417 134.9  -1.9  34102  288.58 0855.34
2009/04/23 09:39:06.2     340   -282    -14    443    444 129.7  -1.9  34098  288.53 0855.34
2009/04/23 09:39:06.3     336   -323    -80    467    475 133.9  -9.8  34098  288.52 0855.34
2009/04/23 09:39:06.4     374   -307    -26    484    485 129.4  -3.2  34100  288.54 0855.34
2009/04/23 09:39:06.5     344   -299    -34    456    458 131.0  -4.4  34094  288.46 0855.34
2009/04/23 09:39:06.6     254   -310     55    401    405 140.7   7.9  34100  288.56 0855.34
2009/04/23 09:39:06.7     356   -264    -13    444    445 126.6  -1.7  34100  288.55 0855.34
2009/04/23 09:39:06.8     274   -264     61    381    387 134.0   9.2  34100  288.57 0855.34
2009/04/23 09:39:06.9     345   -248     86    425    434 125.7  11.4  34102  288.58 0855.34
2009/04/23 09:39:07.0     367   -309    173    480    510 130.1  20.8  34102  288.59 0855.34
2009/04/23 09:39:07.1     381   -315    232    495    546 129.6  27.0  34102  288.58 0855.34
2009/04/23 09:39:07.2     241   -401    247    469    530 149.0  30.1  34104  288.61 0855.34
2009/04/23 09:39:07.4     332   -332    317    470    566 135.0  37.3  34104  288.62 0855.34
2009/04/23 09:39:07.5     196   -208    269    286    392 136.7  48.0  34100  288.55 0855.34
2009/04/23 09:39:07.5     156   -380    237    411    474 157.7  32.7  34104  288.63 0855.34
2009/04/23 09:39:07.6     178   -302    177    351    393 149.4  28.9  34100  288.57 0855.34
2009/04/23 09:39:07.7     159   -418    158    448    476 159.1  19.4  34100  288.56 0855.34
2009/04/23 09:39:07.8     100   -460    104    471    483 167.7  12.5  34100  288.57 0855.34
2009/04/23 09:39:07.9     -29   -379    186    380    423 184.4  28.0  34096  288.48 0855.34
2009/04/23 09:39:08.0     -31   -359    112    361    379 185.0  17.3  34100  288.57 0855.34
2009/04/23 09:39:08.1     156   -355    217    388    444 156.3  31.6  34092  288.43 0855.34
2009/04/23 09:39:08.2      98   -329    234    344    416 163.3  37.6  34098  288.52 0855.34
2009/04/23 09:39:08.3      96   -319    255    334    420 163.2  41.2  34104  288.62 0855.34
2009/04/23 09:39:08.4     166   -304    219    347    410 151.3  35.5  34100  288.57 0855.34
2009/04/23 09:39:08.6      66   -280    109    288    307 166.6  21.7  34100  288.54 0855.34
2009/04/23 09:39:08.7     -22   -346    103    347    363 183.7  16.6  34100  288.55 0855.34
2009/04/23 09:39:08.7    -107   -274    106    295    314 201.4  19.9  34098  288.53 0855.34
2009/04/23 09:39:08.8    -238   -262     96    355    368 222.3  15.1  34100  288.55 0855.34
2009/04/23 09:39:08.9    -211   -212     60    300    307 224.9  11.4  34100  288.56 0855.34
2009/04/23 09:39:09.0    -142   -138     12    199    200 225.8   3.6  34102  288.58 0855.34
2009/04/23 09:39:09.1     -82    -90    -17    123    125 222.3  -8.2  34100  288.55 0855.34
2009/04/23 09:39:09.2    -122   -258     29    286    288 205.3   6.0  34096  288.49 0855.34
2009/04/23 09:39:09.3     -60   -618    -17    622    623 185.6  -1.6  34100  288.55 0855.34
2009/04/23 09:39:09.4      -8   -649     49    650    652 180.7   4.3  34088  288.35 0855.34
2009/04/23 09:39:09.5     -12   -503    -52    504    507 181.4  -5.9  34100  288.57 0855.34
2009/04/23 09:39:09.6      70   -427   -129    433    451 170.7 -21.6  34096  288.50 0855.34
2009/04/23 09:39:09.7     -67   -408    112    414    430 189.4  15.2  34088  288.36 0855.34
2009/04/23 09:39:09.9    -336   -226    -23    405    406 236.1  -3.3  34094  288.45 0855.34
2009/04/23 09:39:09.9    -196   -194    -65    277    285 225.3 -13.3  34096  288.49 0855.34
2009/04/23 09:39:10.0    -436   -180   -144    472    494 247.5 -17.0  34090  288.40 0855.34
2009/04/23 09:39:10.1    -366   -201   -280    418    503 241.2 -41.4  34092  288.42 0855.34
2009/04/23 09:39:10.2    -294   -487     48    569    572 211.1   4.9  34098  288.51 0855.34
2009/04/23 09:39:10.4    -406   -161   -262    438    510 248.3 -37.9  34086  288.32 0855.34
2009/04/23 09:39:10.4    -306   -368   -100    479    490 219.8 -11.9  34090  288.37 0855.34
2009/04/23 09:39:10.5    -380   -298   -151    484    507 231.9 -22.3  34088  288.35 0855.34
2009/04/23 09:39:10.7    -162   -360   -200    395    442 204.3 -33.3  34080  288.23 0855.34
2009/04/23 09:39:10.8    -165   -346   -226    384    445 205.5 -37.8  34092  288.41 0855.34
2009/04/23 09:39:10.9    -177   -443   -165    478    505 201.8 -24.0  34094  288.47 0855.34
2009/04/23 09:39:11.0    -321   -520   -179    611    637 211.7 -16.4  34096  288.50 0855.34
2009/04/23 09:39:11.1    -326   -485   -192    585    615 213.9 -23.5  34092  288.42 0855.34
2009/04/23 09:39:11.2      47   -505   -171    508    537 174.7 -18.6  34092  288.41 0855.34
2009/04/23 09:39:11.3      72   -608   -207    613    647 173.2 -23.8  34100  288.55 0855.34
2009/04/23 09:39:11.4    -189   -581     40    611    613 198.0   3.8  34094  288.44 0855.34
2009/04/23 09:39:11.5    -238   -462   -127    520    536 207.3 -13.8  34096  288.48 0855.34
2009/04/23 09:39:11.6    -360   -369   -171    516    543 224.3 -23.7  34100  288.55 0855.34
2009/04/23 09:39:11.7    -213   -313   -131    379    402 214.2 -19.1  34096  288.49 0855.34
2009/04/23 09:39:11.8    -297     84    -39    309    312 285.9  -7.2  34098  288.53 0855.34
2009/04/23 09:39:11.9    -353   -152   -132    385    407 246.7 -23.9  34100  288.55 0855.34
2009/04/23 09:39:12.0    -326   -232   -148    401    427 234.6 -25.5  34092  288.43 0855.34
2009/04/23 09:39:12.1    -436   -359   -158    565    586 230.5 -20.2  34102  288.59 0855.34
2009/04/23 09:39:12.2    -178   -671     81    695    700 194.9   6.7  34092  288.42 0855.34
2009/04/23 09:39:12.3    -632   -215   -284    668    725 251.2 -28.8  34088  288.34 0855.34
2009/04/23 09:39:12.4    -490   -344     45    600    602 234.9   4.4  34096  288.49 0855.34
2009/04/23 09:39:12.5    -134   -483   -144    502    523 195.6 -16.1  34098  288.51 0855.34
2009/04/23 09:39:12.6    -150   -513   -102    535    545 196.3 -10.9  34096  288.50 0855.34
2009/04/23 09:39:12.7    -236   -527    -84    578    585 204.1  -8.3  34096  288.49 0855.34
2009/04/23 09:39:12.8    -276   -531     22    599    600 207.5   2.1  34096  288.49 0855.34
2009/04/23 09:39:12.9    -208   -592      2    628    629 199.4   0.2  34092  288.43 0855.34
2009/04/23 09:39:13.0    -209   -546    -25    585    586 201.0  -2.5  34092  288.41 0855.34
2009/04/23 09:39:13.1    -304   -332     52    451    454 222.4   6.6  34086  288.33 0855.34
2009/04/23 09:39:13.2    -160   -373     28    406    407 203.2   4.0  34096  288.50 0855.34
2009/04/23 09:39:13.3    -308   -204     36    370    372 236.4   5.7  34096  288.49 0855.34
2009/04/23 09:39:13.4    -142   -288    -96    322    337 206.3 -16.7  34100  288.55 0855.34
2009/04/23 09:39:13.5    -311   -353   -216    471    518 221.4 -30.8  34080  288.22 0855.34
2009/04/23 09:39:13.6    -348   -240   -138    423    444 235.4 -23.2  34092  288.43 0855.34
2009/04/23 09:39:13.7    -411   -418   -185    587    616 224.5 -17.5  34094  288.46 0855.34
2009/04/23 09:39:13.8    -349   -463   -189    581    610 217.0 -23.2  34078  288.20 0855.34
2009/04/23 09:39:13.9    -428   -327   -229    539    585 232.6 -28.9  34094  288.46 0855.34
2009/04/23 09:39:14.0    -451    -20   -124    452    468 267.4 -20.1  34094  288.46 0855.33
2009/04/23 09:39:14.1    -662     94   -314    669    739 278.1 -31.5  34088  288.35 0855.33
2009/04/23 09:39:14.2    -641     33   -321    642    717 273.0 -33.0  34094  288.44 0855.33
2009/04/23 09:39:14.3    -555     48   -379    558    674 275.0 -41.8  34090  288.38 0855.33
2009/04/23 09:39:14.4    -510    -13   -383    511    638 268.5 -45.1  34100  288.54 0855.33
2009/04/23 09:39:14.5    -520     36   -288    522    596 274.0 -35.8  34092  288.42 0855.33
2009/04/23 09:39:14.6    -404    -22   -272    405    487 266.8 -41.5  34094  288.45 0855.33
2009/04/23 09:39:14.7    -416   -238   -253    480    542 240.2 -34.5  34102  288.58 0855.33
2009/04/23 09:39:14.8    -387   -198   -257    435    505 242.9 -37.8  34092  288.42 0855.33
2009/04/23 09:39:14.9    -373    -77   -124    381    400 258.3 -23.2  34112  288.76 0855.33
2009/04/23 09:39:15.0     -67   -157   -121    171    209 203.2 -43.2  34104  288.62 0855.32
2009/04/23 09:39:15.1      21    129   -211    131    248   9.3 -69.5  34120  288.91 0855.32
2009/04/23 09:39:15.2    -170     82   -171    189    254 295.8 -51.3  34116  288.83 0855.32
2009/04/23 09:39:15.3     -91     46   -193    103    218 297.1 -74.0  34110  288.74 0855.32
2009/04/23 09:39:15.4    -105    -34    -81    111    137 251.8 -44.1  34108  288.69 0855.32
2009/04/23 09:39:15.5    -204    -87    -61    222    231 246.9 -15.5  34106  288.67 0855.32
2009/04/23 09:39:15.6    -261    -95   -158    278    319 250.0 -36.7  34108  288.70 0855.32
2009/04/23 09:39:15.7    -350   -150   -230    381    445 246.8 -38.4  34108  288.68 0855.32
2009/04/23 09:39:15.8    -320   -204   -202    380    430 237.4 -34.7  34104  288.61 0855.32
2009/04/23 09:39:15.9    -306   -346   -189    463    500 221.5 -27.9  34100  288.57 0855.32
2009/04/23 09:39:16.0    -298   -468   -124    555    569 212.5 -12.6  34088  288.35 0855.32
2009/04/23 09:39:16.1    -218   -409      6    464    465 208.1   0.8  34098  288.51 0855.32
2009/04/23 09:39:16.2    -152   -428     85    455    463 199.6  10.6  34100  288.56 0855.32
2009/04/23 09:39:16.3    -277   -543     29    610    611 207.1   2.8  34096  288.48 0855.32
2009/04/23 09:39:16.4    -225   -525    -73    572    577 203.2  -7.3  34100  288.54 0855.32
2009/04/23 09:39:16.5    -175   -558     24    585    586 197.4   2.4  34100  288.54 0855.32
2009/04/23 09:39:16.6    -181   -565     56    594    597 197.8   5.4  34102  288.59 0855.32
2009/04/23 09:39:16.7    -214   -590    104    628    637 200.0   9.5  34100  288.55 0855.32
2009/04/23 09:39:16.8       7   -397    189    398    440 178.9  27.3  34088  288.34 0855.32
2009/04/23 09:39:16.9    -162   -254    299    302    424 212.5  49.9  34102  288.59 0855.32
2009/04/23 09:39:17.0      68    -27    222     74    234 111.7  81.0  34110  288.74 0855.30
2009/04/23 09:39:17.1      -7   -138    251    139    286 183.1  68.8  34114  288.78 0855.30
2009/04/23 09:39:17.2      14    -65    209     67    219 167.5  81.6  34108  288.69 0855.30
2009/04/23 09:39:17.3     -66   -158    216    172    276 202.7  57.5  34108  288.70 0855.30
2009/04/23 09:39:17.4    -105   -304    217    322    388 199.2  37.2  34110  288.71 0855.30
2009/04/23 09:39:17.5     -15   -409    240    410    475 182.2  33.0  34102  288.60 0855.30
2009/04/23 09:39:17.6     -48   -395    197    398    444 187.0  28.2  34098  288.53 0855.30
2009/04/23 09:39:17.7       5   -300    162    301    341 179.0  30.6  34102  288.60 0855.30
2009/04/23 09:39:17.8    -101   -133    130    168    212 217.2  41.7  34104  288.62 0855.30
2009/04/23 09:39:17.9    -119    -81     48    145    153 235.8  18.4  34106  288.65 0855.30
2009/04/23 09:39:18.0    -144    -77    -88    164    186 241.6 -35.0  34112  288.77 0855.30
2009/04/23 09:39:18.1    -102   -129     18    165    167 218.3   6.5  34106  288.67 0855.30
2009/04/23 09:39:18.2      80   -115     81    141    162 145.3  32.7  34112  288.75 0855.30
2009/04/23 09:39:18.3      84   -100     70    132    149 139.9  30.3  34112  288.75 0855.30
2009/04/23 09:39:18.4      84     -7    103     85    133  95.2  56.4  34116  288.82 0855.30
2009/04/23 09:39:18.5      38    114     -8    121    122  18.7  -4.1  34114  288.79 0855.30
2009/04/23 09:39:18.6     -63    164    -98    176    201 338.8 -35.8  34110  288.74 0855.30
2009/04/23 09:39:18.7    -105     57    -73    120    140 298.8 -38.4  34112  288.77 0855.30
2009/04/23 09:39:18.8    -115    162    -66    199    209 324.6 -23.8  34110  288.72 0855.30
2009/04/23 09:39:18.9     -83    130     73    155    171 327.4  27.1  34118  288.86 0855.30
2009/04/23 09:39:19.0    -208    141    -13    252    253 304.2  -3.1  34112  288.76 0855.33
2009/04/23 09:39:19.1    -174    302    -85    349    360 330.0 -13.8  34112  288.77 0855.33
2009/04/23 09:39:19.2     -99    445   -126    457    474 347.4 -20.2  34104  288.64 0855.33
2009/04/23 09:39:19.3    -188    265   -259    326    416 324.6 -47.0  34090  288.40 0855.33
2009/04/23 09:39:19.4     -25    167   -255    169    305 351.3 -68.0  34096  288.49 0855.33
2009/04/23 09:39:19.5     -29      9   -111     31    115 288.6 -88.8  34100  288.57 0855.33
2009/04/23 09:39:19.6      56     21    -58     60     83  69.2 -54.4  34102  288.58 0855.33
2009/04/23 09:39:19.7     135    -31     -3    139    140 103.2  -1.3  34102  288.60 0855.33
2009/04/23 09:39:19.8     189     47     68    195    207  75.8  19.4  34104  288.64 0855.33
2009/04/23 09:39:19.9     182     22    114    184    216  83.0  35.0  34104  288.62 0855.33
2009/04/23 09:39:20.0     317     -3    460    318    559  90.6  62.1  34098  288.51 0855.33
2009/04/23 09:39:20.1     422     32    284    424    510  85.7  37.2  34102  288.59 0855.33
2009/04/23 09:39:20.2     361    -14    255    362    442  92.3  38.6  34100  288.55 0855.33
2009/04/23 09:39:20.3     389    -71    132    396    418 100.4  18.4  34096  288.50 0855.33
2009/04/23 09:39:20.4     458     29    151    459    484  86.3  18.2  34100  288.56 0855.33
2009/04/23 09:39:20.5     348    144    176    377    416  67.4  26.9  34096  288.48 0855.33
2009/04/23 09:39:20.6     235    315    156    394    423  36.8  22.9  34094  288.45 0855.33
2009/04/23 09:39:20.7      78    367     61    376    382  12.0   9.3  34104  288.64 0855.33
2009/04/23 09:39:20.8     167    301    -54    345    350  29.0  -8.9  34098  288.52 0855.33
2009/04/23 09:39:20.9     283    205    -45    350    353  54.0  -7.5  34102  288.59 0855.33
2009/04/23 09:39:21.0     250    217    -23    332    333  49.0  -4.0  34096  288.49 0855.35
2009/04/23 09:39:21.1     126    541    -94    556    564  13.1  -9.6  34106  288.67 0855.35
2009/04/23 09:39:21.2     295    405    -19    502    503  36.1  -2.2  34098  288.52 0855.35
2009/04/23 09:39:21.3     175    168    -86    243    259  46.2 -19.6  34108  288.68 0855.35
2009/04/23 09:39:21.4     130    198   -165    238    289  33.4 -42.4  34108  288.70 0855.35
2009/04/23 09:39:21.5     -17    231    -63    232    241 355.6 -15.2  34124  288.97 0855.35
2009/04/23 09:39:21.6     -69    204    -41    216    220 341.3 -10.9  34132  289.09 0855.35
2009/04/23 09:39:21.7     -24    228    -60    230    238 353.8 -14.7  34136  289.17 0855.35
2009/04/23 09:39:21.8      96    137      4    168    169  35.0   1.6  34128  289.04 0855.35
2009/04/23 09:39:21.9     144    196    160    244    291  36.3  36.3  34120  288.90 0855.35
2009/04/23 09:39:22.0     392    145    111    419    434  69.7  14.9  34108  288.68 0855.35
2009/04/23 09:39:22.1     390    337    276    516    585  49.1  30.3  34122  288.94 0855.35
2009/04/23 09:39:22.2     264    440    378    514    638  31.0  40.0  34114  288.80 0855.35
2009/04/23 09:39:22.3     375   -118    346    394    524 107.5  45.8  34114  288.78 0855.35
2009/04/23 09:39:22.4     177     81    365    195    413  65.2  69.7  34126  288.98 0855.35
2009/04/23 09:39:22.5      67     36    189     77    204  62.0  77.0  34112  288.77 0855.35
2009/04/23 09:39:22.6     -46    -15     90     49    102 251.6  68.9  34118  288.87 0855.35
2009/04/23 09:39:22.7     -14     14    124     21    125 315.0  90.0  34120  288.89 0855.35
2009/04/23 09:39:22.8      -7     67     49     68     83 353.8  39.7  34116  288.84 0855.35
2009/04/23 09:39:22.9     106    -34    159    112    194 108.2  61.5  34118  288.86 0855.35
2009/04/23 09:39:23.0     265    -44     18    269    270  99.6   3.9  34106  288.66 0855.33
2009/04/23 09:39:23.1     281    -30     60    283    290  96.2  12.1  34100  288.56 0855.33
2009/04/23 09:39:23.2     135   -101     -6    169    170 126.9  -2.2  34108  288.70 0855.33
2009/04/23 09:39:23.3     344   -145     55    374    379 112.8   8.5  34114  288.79 0855.33
2009/04/23 09:39:23.4     298   -233     74    379    387 128.1  11.1  34114  288.79 0855.33
2009/04/23 09:39:23.5     258    -78    116    270    293 106.8  25.1  34122  288.92 0855.33
2009/04/23 09:39:23.6     382     86    177    392    430  77.3  25.9  34126  289.00 0855.33
2009/04/23 09:39:23.7     359     51     91    363    375  81.9  14.2  34120  288.91 0855.33
2009/04/23 09:39:23.8     361    155    263    394    473  66.7  37.0  34134  289.12 0855.33
2009/04/23 09:39:23.9     399      5    255    400    474  89.2  35.6  34132  289.11 0855.33
2009/04/23 09:39:24.0     392     30    256    394    469  85.6  36.2  34128  289.04 0855.33
2009/04/23 09:39:24.1     291    -13    363    292    465  92.6  57.1  34130  289.05 0855.33
2009/04/23 09:39:24.2     343    149    190    375    420  66.5  28.9  34120  288.90 0855.33
2009/04/23 09:39:24.3     285    139    271    318    417  64.0  44.8  34106  288.66 0855.33
2009/04/23 09:39:24.4     383    219    345    442    560  60.3  42.0  34120  288.91 0855.33
2009/04/23 09:39:24.5     276    126     47    304    308  65.4   8.9  34108  288.68 0855.33
2009/04/23 09:39:24.6     310    377     10    489    490  39.4   1.2  34120  288.90 0855.33
2009/04/23 09:39:24.7     459    283      6    540    541  58.4   0.7  34118  288.85 0855.33
2009/04/23 09:39:24.8     511    461     91    689    696  47.9   7.6  34110  288.73 0855.33
2009/04/23 09:39:24.9     556    378    145    673    689  55.8  12.2  34092  288.43 0855.33
2009/04/23 09:39:25.0     499    186     43    533    535  69.5   4.7  34118  288.85 0855.33
2009/04/23 09:39:25.1     560    250     89    614    621  65.9   8.3  34084  288.30 0855.33
2009/04/23 09:39:25.2     536    309     57    619    622  60.0   5.3  34106  288.65 0855.33
2009/04/23 09:39:25.3     629    259     43    681    683  67.6   3.6  34102  288.60 0855.33
2009/04/23 09:39:25.4     439    231    158    497    522  62.2  17.7  34116  288.84 0855.33
2009/04/23 09:39:25.5     386    331    174    509    539  49.4  18.9  34144  289.29 0855.33
2009/04/23 09:39:25.6     405    323    105    519    530  51.4  11.4  34136  289.16 0855.33
2009/04/23 09:39:25.7     514    315      1    604    605  58.5   0.1  34142  289.27 0855.33
2009/04/23 09:39:25.8     575    457    201    735    763  51.5  15.3  34158  289.53 0855.33
2009/04/23 09:39:25.9     427    365    110    563    574  49.5  11.1  34152  289.44 0855.33
2009/04/23 09:39:26.0     283    378    190    473    509  36.9  23.1  34164  289.64 0855.33
2009/04/23 09:39:26.1     332    406    236    525    575  39.3  25.8  34214  290.48 0855.33
2009/04/23 09:39:26.2     337    338    -18    478    479  44.9  -2.2  34142  289.28 0855.33
2009/04/23 09:39:26.3     293    284     51    409    413  45.9   7.1  34142  289.27 0855.33
2009/04/23 09:39:26.4     349    387    -28    522    523  42.0  -3.1  34138  289.21 0855.33
2009/04/23 09:39:26.5     298    423    -35    518    520  35.2  -3.9  34146  289.34 0855.33
2009/04/23 09:39:26.6     276    303     57    410    415  42.3   8.0  34148  289.36 0855.33
2009/04/23 09:39:26.7     270    282     49    391    395  43.8   7.2  34138  289.21 0855.33
2009/04/23 09:39:26.8     301    209    154    367    398  55.1  24.1  34138  289.20 0855.33
2009/04/23 09:39:26.9     490    316    142    584    601  57.1  13.7  34142  289.27 0855.33
2009/04/23 09:39:27.0     532    316    120    619    631  59.3  11.0  34146  289.33 0855.28
2009/04/23 09:39:27.1     439    285    105    524    535  57.0  11.3  34150  289.40 0855.28
2009/04/23 09:39:27.2     310    430     50    531    534  35.8   5.4  34140  289.23 0855.28
2009/04/23 09:39:27.3      -7    452   -152    453    478 359.0 -18.6  34142  289.25 0855.28
2009/04/23 09:39:27.4     184    332   -376    380    534  29.0 -54.3  34122  288.93 0855.28
2009/04/23 09:39:27.5     208    273   -215    344    405  37.4 -39.5  34130  289.06 0855.28
2009/04/23 09:39:27.6     249    407    -91    478    487  31.5 -10.9  34144  289.30 0855.28
2009/04/23 09:39:27.7     436    477    108    647    656  42.4   9.5  34138  289.21 0855.28
2009/04/23 09:39:27.8     292    493     23    574    575  30.7   2.4  34142  289.27 0855.28
2009/04/23 09:39:27.9     192    626    -28    655    656  17.1  -2.5  34142  289.28 0855.28
2009/04/23 09:39:28.0     132    514     66    531    536  14.4   7.1  34134  289.13 0855.28
2009/04/23 09:39:28.1    -140    313    -23    343    344 335.9  -3.9  34136  289.16 0855.28
2009/04/23 09:39:28.2     -51    419    -65    423    428 353.0  -8.8  34140  289.24 0855.28
2009/04/23 09:39:28.3      88    430    156    440    466  11.6  20.2  34138  289.19 0855.28
2009/04/23 09:39:28.4    -104    502    230    513    562 348.2  25.8  34134  289.14 0855.28
2009/04/23 09:39:28.5    -220    429    158    483    509 332.8  18.1  34136  289.15 0855.28
2009/04/23 09:39:28.6    -279    479     97    555    564 329.7  10.0  34144  289.29 0855.28
2009/04/23 09:39:28.7    -195    409    158    454    480 334.5  20.0  34136  289.18 0855.28
2009/04/23 09:39:28.8    -216    262     36    340    342 320.5   6.1  34138  289.21 0855.28
2009/04/23 09:39:28.9    -328    377     40    500    502 319.0   4.6  34142  289.28 0855.28
2009/04/23 09:39:29.0    -515    367      2    633    634 305.5   0.2  34142  289.25 0855.24
2009/04/23 09:39:29.1    -644    289     48    706    708 294.2   3.9  34126  289.01 0855.24
2009/04/23 09:39:29.2    -420    315    153    525    547 306.9  16.3  34126  289.01 0855.24
2009/04/23 09:39:29.3    -367    422     38    560    562 319.0   3.9  34148  289.38 0855.24
2009/04/23 09:39:29.4    -252    304    129    395    416 320.4  18.2  34134  289.12 0855.24
2009/04/23 09:39:29.5    -384    -61    273    389    475 260.9  38.5  34138  289.19 0855.24
2009/04/23 09:39:29.6     -42    190     15    195    196 347.5   4.6  34128  289.02 0855.24
2009/04/23 09:39:29.7    -172    208    141    271    305 320.4  29.5  34140  289.22 0855.24
2009/04/23 09:39:29.8    -151    179    131    235    269 319.7  31.4  34128  289.03 0855.24
2009/04/23 09:39:29.9    -327    257    -52    417    421 308.2  -7.2  34182  289.94 0855.24
2009/04/23 09:39:30.0    -175    -62     30    186    189 250.3   9.3  34170  289.75 0855.24
2009/04/23 09:39:30.1    -152   -108     35    187    191 234.5  10.6  34150  289.40 0855.24
2009/04/23 09:39:30.2    -182   -155     37    240    243 229.6   8.9  34150  289.39 0855.24
2009/04/23 09:39:30.3    -121   -142    -10    187    188 220.5  -3.2  34150  289.41 0855.24
2009/04/23 09:39:30.4     -76   -230    -99    243    262 198.3 -27.5  34152  289.44 0855.24
2009/04/23 09:39:30.5     -66    -96    -44    117    125 214.7 -25.4  34150  289.41 0855.24
2009/04/23 09:39:30.6      -6    -90    -81     91    121 184.0 -50.8  34152  289.45 0855.24
2009/04/23 09:39:30.7     -13   -135   -164    136    213 185.8 -60.7  34152  289.43 0855.24
2009/04/23 09:39:30.8    -130   -135   -125    188    225 223.9 -40.9  34156  289.52 0855.24
2009/04/23 09:39:30.9    -117   -169   -131    206    244 214.7 -39.9  34162  289.62 0855.24
2009/04/23 09:39:31.0    -105   -293   -109    312    331 199.8 -19.4  34174  289.80 0855.26
2009/04/23 09:39:31.1    -269   -569    160    630    651 205.3  14.3  34156  289.52 0855.26
2009/04/23 09:39:31.2     -78   -399    141    407    431 191.1  19.2  34156  289.51 0855.26
2009/04/23 09:39:31.3    -100   -419     68    431    437 193.5   9.0  34156  289.51 0855.26
2009/04/23 09:39:31.4     -54   -266    142    272    306 191.6  29.8  34146  289.32 0855.26
2009/04/23 09:39:31.5    -184   -262    172    321    364 215.1  30.5  34156  289.52 0855.26
2009/04/23 09:39:31.6     -22   -139    247    141    284 189.3  67.8  34152  289.42 0855.26
2009/04/23 09:39:31.7    -203    -66    112    214    241 251.8  30.1  34152  289.44 0855.26
2009/04/23 09:39:31.8     -16   -334    140    335    363 182.9  23.9  34152  289.42 0855.26
2009/04/23 09:39:31.9    -371   -244    230    445    500 236.6  29.4  34162  289.62 0855.26
2009/04/23 09:39:32.0    -263   -268    257    376    455 224.4  37.6  34158  289.55 0855.26
2009/04/23 09:39:32.1    -226   -278    210    359    415 219.1  33.0  34158  289.54 0855.26
2009/04/23 09:39:32.2    -353   -341     32    492    494 226.0   3.8  34148  289.37 0855.26
2009/04/23 09:39:32.3    -367   -288    -62    467    472 231.9  -7.6  34130  289.08 0855.26
2009/04/23 09:39:32.4    -235   -276     -7    363    364 220.4  -1.2  34154  289.47 0855.26
2009/04/23 09:39:32.5    -262   -245    136    359    383 226.9  21.7  34156  289.52 0855.26
2009/04/23 09:39:32.6    -141   -173    164    224    277 219.2  39.7  34158  289.53 0855.26
2009/04/23 09:39:32.7    -208     22     49    210    216 276.2  13.2  34154  289.48 0855.26
2009/04/23 09:39:32.8    -340    -56    176    345    387 260.6  29.2  34158  289.54 0855.26
2009/04/23 09:39:32.9    -258     52    114    264    287 281.4  25.1  34152  289.44 0855.26
2009/04/23 09:39:33.0    -205    -41     72    210    223 258.5  18.9  34158  289.53 0855.27
2009/04/23 09:39:33.1    -124   -148    123    194    229 219.9  35.5  34154  289.48 0855.27
2009/04/23 09:39:33.2    -160   -345     81    381    390 204.9  12.1  34160  289.57 0855.27
2009/04/23 09:39:33.3     -33   -429    -34    431    433 184.5  -4.6  34144  289.31 0855.27
2009/04/23 09:39:33.4      24   -492   -140    493    512 177.2 -20.5  34134  289.12 0855.27
2009/04/23 09:39:33.5     160   -479   -159    506    531 161.5 -17.5  34124  288.97 0855.27
2009/04/23 09:39:33.6      40   -364   -116    367    386 173.7 -17.6  34122  288.94 0855.27
2009/04/23 09:39:33.7     -30   -514    -41    515    517 183.4  -4.6  34126  289.00 0855.27
2009/04/23 09:39:33.8      44   -585      8    587    588 175.6   0.8  34128  289.03 0855.27
2009/04/23 09:39:33.9     209   -689    100    721    728 163.1   7.9  34116  288.83 0855.27
2009/04/23 09:39:34.0     204   -572    130    608    622 160.3  12.1  34116  288.81 0855.27
2009/04/23 09:39:34.1     134   -545    192    562    595 166.2  18.9  34090  288.39 0855.27
2009/04/23 09:39:34.2     128   -616    170    630    653 168.2  15.1  34108  288.69 0855.27
2009/04/23 09:39:34.3     -24   -627    171    628    652 182.2  15.3  34114  288.79 0855.27
2009/04/23 09:39:34.4      55   -596    -28    599    600 174.7  -2.7  34116  288.81 0855.27
2009/04/23 09:39:34.5     -61   -545    -24    549    550 186.5  -2.6  34106  288.65 0855.27
2009/04/23 09:39:34.6     -25   -538     27    539    540 182.7   2.9  34114  288.79 0855.27
2009/04/23 09:39:34.7     -15   -537    -38    538    540 181.6  -4.1  34106  288.65 0855.27
2009/04/23 09:39:34.8     -12   -529     94    530    539 181.4  10.1  34108  288.69 0855.27
2009/04/23 09:39:34.9     -12   -406     63    407    412 181.8   8.8  34096  288.48 0855.27
2009/04/23 09:39:35.0     -94   -379     73    391    398 194.0  10.7  34116  288.81 0855.24
2009/04/23 09:39:35.1    -133   -366      6    390    391 200.0   1.0  34112  288.76 0855.24
2009/04/23 09:39:35.2    -219   -341    -85    406    415 212.7 -11.9  34096  288.48 0855.24
2009/04/23 09:39:35.3     -48   -343    -51    347    351 188.1  -8.4  34090  288.40 0855.24
2009/04/23 09:39:35.4      23   -420    -19    421    422 176.8  -2.7  34098  288.51 0855.24
2009/04/23 09:39:35.5      -7   -402    -32    403    405 181.0  -4.6  34096  288.50 0855.24
2009/04/23 09:39:35.6      19   -423     42    424    427 177.3   5.7  34096  288.50 0855.24
2009/04/23 09:39:35.7      81   -474    -29    481    482 170.3  -3.5  34092  288.42 0855.24
2009/04/23 09:39:35.8      85   -630     48    636    638 172.3   4.3  34100  288.57 0855.24
2009/04/23 09:39:35.9     -11   -660    -43    661    663 181.0  -3.8  34094  288.46 0855.24
2009/04/23 09:39:36.0     120   -724    -44    734    736 170.6  -3.5  34084  288.30 0855.24
2009/04/23 09:39:36.1     155   -630     98    649    657 166.1   8.6  34090  288.37 0855.24
2009/04/23 09:39:36.2     185   -605    145    633    650 163.0  12.9  34084  288.28 0855.24
2009/04/23 09:39:36.3     238   -586    113    633    644 157.9  10.1  34078  288.20 0855.24
2009/04/23 09:39:36.4     376   -499     88    626    633 143.0   8.0  34084  288.30 0855.24
2009/04/23 09:39:36.5     243   -369    243    443    505 146.6  31.3  34084  288.29 0855.24
2009/04/23 09:39:36.6      76   -380    323    388    504 168.6  44.0  34084  288.30 0855.24
2009/04/23 09:39:36.7     -56   -401    326    406    520 188.0  42.9  34094  288.46 0855.24
2009/04/23 09:39:36.8     -86   -345    186    356    401 194.0  29.8  34090  288.38 0855.24
2009/04/23 09:39:36.9      -4   -523     71    524    529 180.5   7.8  34088  288.35 0855.24
2009/04/23 09:39:37.1     189   -326    -58    377    382 149.9  -8.8  34084  288.30 0855.24
2009/04/23 09:39:37.2     480   -557     41    736    738 139.2   3.2  34090  288.38 0855.24
2009/04/23 09:39:37.3     421   -559     46    701    703 143.0   3.8  34088  288.35 0855.24
2009/04/23 09:39:37.4     455   -407     73    611    616 131.8   6.9  34084  288.30 0855.24
2009/04/23 09:39:37.5     440   -437     77    621    626 134.8   7.1  34090  288.40 0855.24
2009/04/23 09:39:37.6     228   -357      1    425    426 147.4   0.2  34092  288.41 0855.24
2009/04/23 09:39:37.7     235   -372   -123    441    457 147.7 -20.2  34098  288.51 0855.24
2009/04/23 09:39:37.8     380   -381    -11    539    540 135.1  -1.3  34088  288.36 0855.24
2009/04/23 09:39:37.9     325   -452     49    557    560 144.3   5.1  34092  288.43 0855.24
2009/04/23 09:39:38.0     324   -527    133    619    634 148.4  12.1  34096  288.50 0855.24
2009/04/23 09:39:38.1     341   -495     75    602    607 145.4   7.1  34096  288.48 0855.26
2009/04/23 09:39:38.2     272   -606    118    665    676 155.8  10.1  34094  288.46 0855.26
2009/04/23 09:39:38.3     226   -620    110    661    671 160.0   9.5  34100  288.55 0855.26
2009/04/23 09:39:38.4     265   -475    216    545    586 150.8  22.9  34084  288.27 0855.26
2009/04/23 09:39:38.5     301   -612    321    683    754 153.8  27.1  34094  288.47 0855.26
2009/04/23 09:39:38.6     270   -630    378    686    783 156.8  31.3  34096  288.50 0855.26
2009/04/23 09:39:38.7     277   -547    366    614    714 153.2  33.5  34098  288.51 0855.26
2009/04/23 09:39:38.8     341   -608    256    698    743 150.7  21.0  34094  288.44 0855.26
2009/04/23 09:39:38.9     388   -574    380    694    791 145.9  31.0  34098  288.52 0855.26
2009/04/23 09:39:39.0     447   -489     54    663    666 137.6   4.7  34090  288.38 0855.26
2009/04/23 09:39:39.1     321   -459    178    561    589 145.0  17.7  34092  288.42 0855.26
2009/04/23 09:39:39.2     310   -543     26    626    627 150.2   2.4  34096  288.50 0855.26
2009/04/23 09:39:39.3     346   -614    252    706    750 150.6  19.7  34100  288.55 0855.26
2009/04/23 09:39:39.4     352   -632    322    724    792 150.9  25.7  34092  288.42 0855.26
2009/04/23 09:39:39.5     401   -468    246    617    664 139.4  23.0  34094  288.45 0855.26
2009/04/23 09:39:39.6     269   -357    301    448    539 143.0  37.2  34090  288.40 0855.26
2009/04/23 09:39:39.7     158   -258    -92    303    317 148.4 -17.0  34098  288.53 0855.26
2009/04/23 09:39:39.8     227   -308   -105    383    398 143.6 -15.4  34100  288.55 0855.26
2009/04/23 09:39:39.9     266   -218     15    345    346 129.4   2.5  34096  288.50 0855.26
2009/04/23 09:39:40.0     297   -180     70    348    355 121.3  11.4  34098  288.52 0855.26
2009/04/23 09:39:40.1     179   -154    146    237    278 130.7  34.4  34094  288.44 0855.14
2009/04/23 09:39:40.2      48   -281    169    286    332 170.3  33.3  34096  288.48 0855.14
2009/04/23 09:39:40.3     174   -256    187    310    362 145.7  34.0  34098  288.52 0855.14
2009/04/23 09:39:40.4     215   -217    144    306    338 135.2  27.1  34102  288.58 0855.14
2009/04/23 09:39:40.5     196   -236    117    307    328 140.3  21.8  34102  288.59 0855.14
2009/04/23 09:39:40.6     182   -316    126    365    387 150.1  19.1  34100  288.57 0855.14
2009/04/23 09:39:40.7     239   -434    148    496    518 151.1  16.7  34098  288.52 0855.14
2009/04/23 09:39:40.8     138   -396    254    420    490 160.8  34.0  34100  288.56 0855.14
2009/04/23 09:39:40.9     256   -563    386    619    729 155.5  34.9  34100  288.56 0855.14
2009/04/23 09:39:41.0     336   -677    333    756    826 153.6  25.2  34096  288.50 0855.14
2009/04/23 09:39:41.1     235   -616    207    660    692 159.1  17.4  34100  288.55 0855.14
2009/04/23 09:39:41.2     114   -649     83    660    666 170.0   7.2  34104  288.63 0855.14
2009/04/23 09:39:41.3     122   -600      5    613    614 168.5   0.5  34102  288.58 0855.14
2009/04/23 09:39:41.4      19   -496    -58    497    501 177.8  -6.7  34100  288.56 0855.14
2009/04/23 09:39:41.5     119   -367    -55    386    391 162.0  -8.2  34096  288.49 0855.14
2009/04/23 09:39:41.6    -127   -519    -20    535    536 193.8  -2.2  34102  288.60 0855.14
2009/04/23 09:39:41.7     -64   -448    -99    453    464 188.2 -12.4  34098  288.51 0855.14
2009/04/23 09:39:41.8    -306   -481    156    571    592 212.5  15.3  34098  288.53 0855.14
2009/04/23 09:39:41.9    -446   -471    216    649    685 223.4  18.5  34110  288.72 0855.14
2009/04/23 09:39:42.0    -205   -250    274    324    424 219.4  44.5  34110  288.71 0855.14
2009/04/23 09:39:42.1    -214   -174    -39    276    279 230.9  -8.2  34108  288.70 0855.11
2009/04/23 09:39:42.2    -319   -176     15    365    366 241.1   2.5  34134  289.13 0855.11
2009/04/23 09:39:42.3    -300   -235    101    382    396 231.9  14.9  34128  289.03 0855.11
2009/04/23 09:39:42.4    -217   -340    210    404    455 212.6  29.6  34110  288.72 0855.11
2009/04/23 09:39:42.5    -156   -123    279    199    342 231.8  61.0  34130  289.05 0855.11
2009/04/23 09:39:42.6    -165   -161    106    231    254 225.6  26.4  34110  288.73 0855.11
2009/04/23 09:39:42.7    -113   -119    144    165    219 223.4  45.8  34112  288.75 0855.11
2009/04/23 09:39:42.8     -88    -27    155     93    180 252.7  66.2  34116  288.82 0855.11
2009/04/23 09:39:42.9     -67    -22    148     71    164 251.4  72.7  34116  288.82 0855.11
2009/04/23 09:39:43.0    -217     19    107    218    242 275.2  28.2  34112  288.76 0855.11
2009/04/23 09:39:43.1       1     85    113     86    142   0.9  59.0  34104  288.64 0855.11
2009/04/23 09:39:43.2     -16     47     94     50    106 341.3  69.3  34112  288.75 0855.11
2009/04/23 09:39:43.3     114    118     66    165    177  43.9  23.0  34106  288.67 0855.11
2009/04/23 09:39:43.4     114    242    -14    268    269  25.4  -3.1  34106  288.66 0855.11
2009/04/23 09:39:43.5     104    163      8    194    195  32.5   2.5  34108  288.70 0855.11
2009/04/23 09:39:43.6     135    188     17    232    233  35.8   4.4  34112  288.75 0855.11
2009/04/23 09:39:43.7     120     76    -22    143    145  57.6  -8.8  34114  288.79 0855.11
2009/04/23 09:39:43.8     100     68      1    122    123  55.8   0.8  34116  288.82 0855.11
2009/04/23 09:39:43.9      52     50     46     73     86  45.9  35.5  34112  288.77 0855.11
2009/04/23 09:39:44.0      11     36     81     38     89  18.3  73.1  34124  288.96 0855.11
2009/04/23 09:39:44.1       8      3     32      9     33  64.7  82.8  34122  288.92 0855.12
2009/04/23 09:39:44.2     -15    -35    -30     39     49 203.6 -46.1  34118  288.87 0855.12
2009/04/23 09:39:44.3     -16    -29    -68     34     76 209.0 -76.3  34132  289.09 0855.12
2009/04/23 09:39:44.4      45     23    -50     51     71  62.9 -54.4  34174  289.80 0855.12
2009/04/23 09:39:44.5      13    131    -41    132    139   5.8 -17.5  34180  289.92 0855.12
2009/04/23 09:39:44.6     -53    133    -28    144    147 338.2 -11.3  34158  289.53 0855.12
2009/04/23 09:39:44.7     -83     -5     58     84    102 266.1  38.6  34154  289.48 0855.12
2009/04/23 09:39:44.8     -15     40    122     43    129 339.1  80.7  34146  289.33 0855.12
2009/04/23 09:39:44.9      44     61    100     76    125  36.0  59.0  34138  289.19 0855.12
2009/04/23 09:39:45.0     267    135    138    300    330  63.1  26.5  34156  289.49 0855.12
2009/04/23 09:39:45.1     195    258    106    324    342  37.2  18.2  34172  289.76 0855.12
2009/04/23 09:39:45.2      51    203     43    210    215  14.3  11.6  34162  289.60 0855.12
2009/04/23 09:39:45.3     -67    235     44    245    250 344.0  10.3  34142  289.25 0855.12
2009/04/23 09:39:45.4       4    257     88    258    273   0.9  18.9  34126  289.00 0855.12
2009/04/23 09:39:45.5      81    197    157    214    265  22.3  39.9  34138  289.19 0855.12
2009/04/23 09:39:45.6     154    230    188    277    334  33.8  37.4  34186  290.00 0855.12
2009/04/23 09:39:45.7     -35    185    177    189    258 349.3  48.0  34160  289.58 0855.12
2009/04/23 09:39:45.8     -73    307    110    316    335 346.6  19.3  34138  289.21 0855.12
2009/04/23 09:39:45.9      55    355    112    360    378   8.8  17.3  34204  290.32 0855.12
2009/04/23 09:39:46.0     -68    489    -75    494    500 352.0  -8.7  34130  289.06 0855.12
2009/04/23 09:39:46.1      17    544   -155    545    566   1.8 -20.7  34118  288.87 0855.15
2009/04/23 09:39:46.2      13    616   -376    617    722   1.3 -38.7  34106  288.65 0855.15
2009/04/23 09:39:46.3      -3    202   -282    203    347 358.9 -65.2  34116  288.81 0855.15
2009/04/23 09:39:46.4    -314   -241   -463    396    609 232.5 -59.7  34126  288.99 0855.15
2009/04/23 09:39:46.5    -934   -200    -89    956    961 257.9  -5.4  34142  289.28 0855.15
2009/04/23 09:39:46.6    -817     -5   -334    818    883 269.6 -27.9  34096  288.48 0855.15
2009/04/23 09:39:46.7    -663    -97   -234    671    710 261.7 -24.4  34120  288.88 0855.15
2009/04/23 09:39:46.8    -502    -38   -112    504    517 265.6 -12.6  34170  289.74 0855.15
2009/04/23 09:39:46.9    -460     48   -131    463    481 276.1 -20.5  34172  289.76 0855.15
2009/04/23 09:39:47.0    -343     21   -221    344    408 273.5 -40.0  34166  289.67 0855.15
2009/04/23 09:39:47.1    -225     13   -236    226    326 273.5 -55.7  34158  289.53 0855.15
2009/04/23 09:39:47.2      75    116   -240    139    277  33.0 -71.9  34160  289.56 0855.15
2009/04/23 09:39:47.3     232   -110   -299    257    394 115.4 -59.4  34164  289.65 0855.15
2009/04/23 09:39:47.4     302   -163   -274    344    439 118.4 -47.1  34150  289.41 0855.15
2009/04/23 09:39:47.5     366   -294   -225    470    521 128.7 -31.7  34146  289.35 0855.15
2009/04/23 09:39:47.6      60   -364   -315    370    485 170.6 -49.2  34154  289.48 0855.15
2009/04/23 09:39:47.7     169   -312   -292    356    460 151.5 -48.1  34158  289.53 0855.15
2009/04/23 09:39:47.8     270   -469   -214    542    582 150.1 -27.2  34160  289.58 0855.15
2009/04/23 09:39:47.9     309   -395   -119    502    517 142.0 -13.4  34154  289.47 0855.15
2009/04/23 09:39:48.0     267   -521    -32    586    587 152.8  -3.2  34156  289.52 0855.15
2009/04/23 09:39:48.1     152   -525    -72    547    552 163.9  -7.6  34144  289.31 0855.18
2009/04/23 09:39:48.2     351   -188     46    399    402 118.1   6.6  34152  289.45 0855.18
2009/04/23 09:39:48.3     477    -64    211    482    526  97.7  25.1  34154  289.47 0855.18
2009/04/23 09:39:48.4     477     28    190    478    514  86.6  22.9  34146  289.34 0855.18
2009/04/23 09:39:48.5     483     91    133    492    510  79.3  15.2  34136  289.18 0855.18
2009/04/23 09:39:48.6     664    182     34    689    690  74.6   2.9  34110  288.72 0855.18
2009/04/23 09:39:48.7     596    200    135    629    644  71.4  12.2  34118  288.86 0855.18
2009/04/23 09:39:48.8     491     10    247    492    550  88.7  28.7  34138  289.19 0855.18
2009/04/23 09:39:48.9     429    -60    248    434    499  98.0  32.3  34130  289.06 0855.18
2009/04/23 09:39:49.0     416    -10    299    417    513  91.5  39.2  34124  288.95 0855.18
2009/04/23 09:39:49.1     537    -83    239    544    594  98.8  25.2  34138  289.20 0855.18
2009/04/23 09:39:49.2     289    -40    173    292    339  97.9  33.5  34134  289.12 0855.18
2009/04/23 09:39:49.3     295    133    113    324    344  65.6  19.3  34130  289.06 0855.18
2009/04/23 09:39:49.4     583    209     92    620    627  70.2   8.5  34130  289.06 0855.18
2009/04/23 09:39:49.5     485    163    181    512    543  71.4  20.2  34136  289.16 0855.18
2009/04/23 09:39:49.6     438    226    296    493    575  62.7  34.0  34122  288.92 0855.18
2009/04/23 09:39:49.7     407    196    387    452    595  64.3  44.9  34118  288.87 0855.18
2009/04/23 09:39:49.8     419    187    429    460    629  65.9  47.8  34146  289.32 0855.18
2009/04/23 09:39:49.9     193    116    366    226    430  59.1  65.6  34134  289.13 0855.18
2009/04/23 09:39:50.0     181     43    242    187    305  76.5  58.5  34132  289.09 0855.18
2009/04/23 09:39:50.1     169     79    308    187    360  64.9  66.0  34132  289.10 0855.19
2009/04/23 09:39:50.2     -48   -116    191    126    228 202.7  63.9  34136  289.18 0855.19
2009/04/23 09:39:50.3     -19   -162    205    164    262 186.7  57.5  34124  288.95 0855.19
2009/04/23 09:39:50.4     -16   -129    310    131    336 187.1  76.0  34136  289.15 0855.19
2009/04/23 09:39:50.5      55    -67    103     87    134 140.8  55.8  34126  288.99 0855.19
2009/04/23 09:39:50.6     283   -250    320    378    495 131.4  44.7  34128  289.02 0855.19
2009/04/23 09:39:50.7     259   -532    427    592    729 154.0  39.4  34122  288.94 0855.19
2009/04/23 09:39:50.8     266   -480    362    550    658 151.0  36.4  34114  288.79 0855.19
2009/04/23 09:39:50.9     251   -287    450    382    590 138.9  55.4  34118  288.87 0855.19
2009/04/23 09:39:51.0     -82   -705    294    710    768 186.7  23.8  34136  289.16 0855.19
2009/04/23 09:39:51.1     138   -565    257    582    636 166.2  25.5  34128  289.04 0855.19
2009/04/23 09:39:51.2     -10   -719    273    720    770 180.8  21.8  34126  289.01 0855.19
2009/04/23 09:39:51.3      75   -759    195    763    788 174.3  14.4  34126  289.00 0855.19
2009/04/23 09:39:51.4     146   -535    246    555    607 164.7  25.6  34116  288.81 0855.19
2009/04/23 09:39:51.5     524   -327    248    618    665 122.0  23.1  34134  289.13 0855.19
2009/04/23 09:39:51.6     511   -302    355    594    691 120.6  33.6  34126  289.00 0855.19
2009/04/23 09:39:51.7     540   -210    210    580    617 111.3  19.9  34134  289.12 0855.19
2009/04/23 09:39:51.8     557    -76    109    563    574  97.8  11.0  34134  289.12 0855.19
2009/04/23 09:39:51.9     404     31     54    406    410  85.6   7.6  34128  289.04 0855.19
2009/04/23 09:39:52.0     409    123    190    428    468  73.2  25.6  34136  289.17 0855.19
2009/04/23 09:39:52.1     214    -41    276    219    352 101.0  57.7  34132  289.09 0855.16
2009/04/23 09:39:52.2     253    -68    316    262    410 105.1  56.3  34136  289.15 0855.16
2009/04/23 09:39:52.3     207    -49    326    213    389 103.5  63.9  34134  289.13 0855.16
2009/04/23 09:39:52.4     298     89    191    312    365  73.4  34.4  34130  289.08 0855.16
2009/04/23 09:39:52.5     175   -101    -13    203    204 120.0  -3.9  34140  289.23 0855.16
2009/04/23 09:39:52.6     326   -309     67    450    456 133.5   8.5  34132  289.11 0855.16
2009/04/23 09:39:52.7     291   -312     36    427    429 137.0   4.9  34134  289.14 0855.16
2009/04/23 09:39:52.8     299   -190    -32    355    357 122.4  -5.2  34128  289.03 0855.16
2009/04/23 09:39:52.9     323   -106     73    340    348 108.2  12.1  34124  288.96 0855.16
2009/04/23 09:39:53.0     179    -21    141    181    229  96.8  42.0  34128  289.04 0855.16
2009/04/23 09:39:53.1      18     56    101     59    116  18.3  66.8  34132  289.09 0855.16
2009/04/23 09:39:53.2     -60   -135     98    148    177 204.1  36.7  34134  289.13 0855.16
2009/04/23 09:39:53.3      15      6    136     17    137  68.3  90.0  34136  289.18 0855.16
2009/04/23 09:39:53.4       9     61    132     62    145   8.9  73.1  34136  289.16 0855.16
2009/04/23 09:39:53.5    -111    171     83    205    221 327.0  23.1  34134  289.14 0855.16
2009/04/23 09:39:53.6     -90    246     91    263    279 339.9  19.2  34128  289.03 0855.16
2009/04/23 09:39:53.7      34    214    122    217    248   9.1  31.9  34128  289.03 0855.16
2009/04/23 09:39:53.8     -15    326    121    327    348 357.3  21.3  34136  289.16 0855.16
2009/04/23 09:39:53.9     -58    159     45    170    176 339.7  15.0  34144  289.31 0855.16
2009/04/23 09:39:54.0      -3     22     22     23     31 350.2  50.0  34138  289.19 0855.16
2009/04/23 09:39:54.1     -18     69     65     72     97 344.9  46.9  34136  289.18 0855.16
2009/04/23 09:39:54.2     -18     93     -3     95     96 348.5  -2.2  34146  289.35 0855.16
2009/04/23 09:39:54.3       7     92    -49     93    105   4.5 -34.7  34158  289.53 0855.16
2009/04/23 09:39:54.4     -34     33     16     48     51 314.0  19.4  34144  289.30 0855.16
2009/04/23 09:39:54.5     -18     67     46     70     83 344.8  36.0  34146  289.35 0855.16
2009/04/23 09:39:54.6     -33     40    -14     52     55 320.4 -15.5  34144  289.30 0855.16
2009/04/23 09:39:54.7      -3     75    -65     76    100 357.3 -49.2  34146  289.33 0855.16
2009/04/23 09:39:54.8      51     76    -45     92    102  33.8 -31.7  34150  289.41 0855.16
2009/04/23 09:39:54.9       3     18     -2     19     20  11.6  -7.3  34144  289.30 0855.16
2009/04/23 09:39:55.0       0    112     47    113    122 359.6  23.6  34136  289.18 0855.16
2009/04/23 09:39:55.1      36     37    116     52    127  44.2  74.5  34140  289.24 0855.16
2009/04/23 09:39:55.2     -57     47    123     75    144 309.6  65.1  34150  289.40 0855.16
2009/04/23 09:39:55.3     -63    -20     87     67    109 252.3  58.5  34144  289.31 0855.16
2009/04/23 09:39:55.4     -85     49     54     99    112 299.8  31.3  34144  289.30 0855.16
2009/04/23 09:39:55.5     -36    -29     63     47     78 231.4  59.0  34146  289.33 0855.16
2009/04/23 09:39:55.6      15     -2     16     16     22  97.9  50.1  34148  289.38 0855.16
2009/04/23 09:39:55.7      51      8     43     52     67  80.3  43.8  34142  289.28 0855.16
2009/04/23 09:39:55.8     -68     19     73     71    101 285.9  50.7  34148  289.38 0855.16
2009/04/23 09:39:55.9     -86    -46    102     98    141 241.6  51.2  34148  289.36 0855.16
2009/04/23 09:39:56.0    -127   -135     68    186    198 223.2  21.0  34150  289.40 0855.16
2009/04/23 09:39:56.1    -142   -150      5    207    208 223.3   1.6  34150  289.40 0855.15
2009/04/23 09:39:56.2     -38   -116    -15    123    125 198.5  -7.3  34146  289.35 0855.15
2009/04/23 09:39:56.3     -33   -121      2    126    127 195.6   1.2  34148  289.36 0855.15
2009/04/23 09:39:56.4     -71   -120     74    140    158 210.7  30.3  34146  289.35 0855.15
2009/04/23 09:39:56.5    -170    -81    -13    189    190 244.6  -4.1  34148  289.36 0855.15
2009/04/23 09:39:56.6    -372     16   -116    373    390 272.5 -22.3  34126  289.01 0855.15
2009/04/23 09:39:56.7    -351     88   -108    362    378 284.2 -16.7  34118  288.86 0855.15
2009/04/23 09:39:56.8    -299    -81     89    310    323 254.7  16.0  34146  289.34 0855.15
2009/04/23 09:39:56.9    -197   -197    125    279    305 225.0  25.9  34134  289.14 0855.15
2009/04/23 09:39:57.0    -137   -198    106    241    263 214.7  25.1  34126  288.98 0855.15
2009/04/23 09:39:57.1    -198   -224     71    299    308 221.5  13.5  34130  289.07 0855.20
2009/04/23 09:39:57.2    -208   -236     -2    315    316 221.4  -0.5  34132  289.10 0855.20
2009/04/23 09:39:57.3    -315   -357    -63    477    482 221.5  -7.6  34128  289.03 0855.20
2009/04/23 09:39:57.4    -322   -397    -20    512    513 219.0  -2.2  34124  288.95 0855.20
2009/04/23 09:39:57.5    -231   -427    -63    486    491 208.4  -7.5  34120  288.91 0855.20
2009/04/23 09:39:57.6    -265   -260    -52    372    376 225.6  -8.0  34128  289.04 0855.20
2009/04/23 09:39:57.7    -324   -345    -18    474    475 223.2  -2.2  34122  288.93 0855.20
2009/04/23 09:39:57.8    -379   -294      0    480    481 232.2   0.1  34132  289.10 0855.20
2009/04/23 09:39:57.9    -268   -204     35    338    340 232.7   6.0  34148  289.37 0855.20
2009/04/23 09:39:58.0    -215   -297     31    367    369 216.0   5.0  34126  288.99 0855.20
2009/04/23 09:39:58.1    -130   -467     -9    485    486 195.6  -1.2  34124  288.95 0855.20
2009/04/23 09:39:58.2    -144   -361    -59    390    395 201.8  -8.7  34126  288.99 0855.20
2009/04/23 09:39:58.3    -212   -379     28    435    436 209.2   3.8  34128  289.04 0855.20
2009/04/23 09:39:58.4    -230   -247     13    338    339 223.0   2.3  34128  289.03 0855.20
2009/04/23 09:39:58.5    -301    -91   -172    315    358 253.2 -35.4  34140  289.23 0855.20
2009/04/23 09:39:58.6    -224   -111   -201    251    321 243.6 -47.3  34140  289.22 0855.20
2009/04/23 09:39:58.7    -140   -157   -108    211    237 221.9 -33.7  34130  289.06 0855.20
2009/04/23 09:39:58.8    -232   -200      9    307    308 229.3   1.7  34142  289.25 0855.20
2009/04/23 09:39:58.9    -255   -121     32    283    285 244.7   6.5  34152  289.44 0855.20
2009/04/23 09:39:59.0    -251     63    -82    259    271 284.2 -22.9  34152  289.42 0855.20
2009/04/23 09:39:59.1    -219     26    -18    221    222 276.8  -4.9  34156  289.52 0855.24
2009/04/23 09:39:59.2    -403    -41   -133    406    428 264.1 -18.2  34138  289.21 0855.24
2009/04/23 09:39:59.3    -421     34   -198    423    467 274.7 -31.5  34130  289.05 0855.24
2009/04/23 09:39:59.4    -407     30   -136    409    431 274.3 -23.7  34136  289.17 0855.24
2009/04/23 09:39:59.5    -407     85   -140    416    438 281.9 -23.5  34148  289.36 0855.24
2009/04/23 09:39:59.6    -363     73   -104    371    385 281.5 -20.3  34142  289.25 0855.24
2009/04/23 09:39:59.7    -354     87   -189    365    411 283.8 -33.9  34134  289.13 0855.24
2009/04/23 09:39:59.8    -277     89   -196    291    350 287.8 -41.4  34136  289.16 0855.24
2009/04/23 09:39:59.9    -243     65   -185    252    312 285.0 -44.3  34140  289.22 0855.24
2009/04/23 09:40:00.0    -328     43   -126    331    354 277.5 -26.2  34140  289.23 0855.24
2009/04/23 09:40:00.1    -319    -41   -120    322    343 262.5 -25.9  34138  289.21 0855.24
2009/04/23 09:40:00.2    -276    -78   -158    287    327 254.1 -35.7  34136  289.17 0855.24
2009/04/23 09:40:00.3    -205   -233   -109    311    329 221.4 -24.4  34136  289.15 0855.24
2009/04/23 09:40:00.4     -54   -286    -26    292    294 190.7  -5.2  34136  289.15 0855.24
2009/04/23 09:40:00.5     -50   -264    -10    269    270 190.9  -2.2  34136  289.17 0855.24
2009/04/23 09:40:00.6    -103   -310      5    327    328 198.5   1.0  34134  289.14 0855.24
2009/04/23 09:40:00.7     -29   -298    -38    300    303 185.6  -7.3  34134  289.14 0855.24
2009/04/23 09:40:00.8    -125   -329    -74    353    361 200.9 -11.9  34134  289.13 0855.24
2009/04/23 09:40:00.9     -99   -391    -73    404    411 194.3 -10.3  34130  289.07 0855.24
2009/04/23 09:40:01.0     -83   -337      7    348    349 193.9   1.2  34136  289.16 0855.24
2009/04/23 09:40:01.1    -153   -213    -10    263    264 215.8  -2.2  34138  289.19 0855.25
2009/04/23 09:40:01.2    -137   -176    -74    224    235 217.9 -23.6  34130  289.08 0855.25
2009/04/23 09:40:01.3     -82   -307    -40    318    321 195.1  -7.2  34130  289.07 0855.25
2009/04/23 09:40:01.4    -138   -292      5    324    325 205.3   0.9  34130  289.05 0855.25
2009/04/23 09:40:01.5    -145   -329    -96    360    373 203.8 -15.0  34130  289.06 0855.25
2009/04/23 09:40:01.6     -47   -221   -111    226    251 192.0 -32.4  34130  289.07 0855.25
2009/04/23 09:40:01.7    -132   -135    -90    190    210 224.3 -31.6  34132  289.09 0855.25
2009/04/23 09:40:01.8    -103    -44    -40    113    121 246.9 -19.7  34134  289.13 0855.25
2009/04/23 09:40:01.9     -80     58    -51     99    111 306.0 -33.7  34136  289.16 0855.25
2009/04/23 09:40:02.0      -8    107    -67    108    127 355.5 -39.9  34136  289.16 0855.25
2009/04/23 09:40:02.1     -77    241     35    254    257 342.2   8.0  34128  289.03 0855.25
2009/04/23 09:40:02.2     633    305    339    703    780  64.2  27.7  34120  288.89 0855.25
2009/04/23 09:40:02.3     446    282    201    528    564  57.7  22.0  34128  289.02 0855.25
2009/04/23 09:40:02.4     443    177     62    478    483  68.2   7.4  34126  288.98 0855.25
2009/04/23 09:40:02.5     347    -53     66    352    359  98.8  10.6  34120  288.91 0855.25
2009/04/23 09:40:02.6     285   -219    173    360    399 127.6  27.4  34122  288.94 0855.25
2009/04/23 09:40:02.7      86   -382    -27    392    393 167.3  -4.0  34126  289.01 0855.25
2009/04/23 09:40:02.8     335   -248    137    418    440 126.5  18.2  34128  289.04 0855.25
2009/04/23 09:40:02.9     300   -159    144    340    369 118.0  24.5  34126  289.01 0855.25
2009/04/23 09:40:03.0     138   -181    140    228    267 142.6  34.5  34126  289.00 0855.25
2009/04/23 09:40:03.1     253    -21     79    254    267  95.0  17.4  34126  288.98 0855.27
2009/04/23 09:40:03.2     314   -151    123    349    371 115.8  19.5  34130  289.08 0855.27
2009/04/23 09:40:03.3     289   -146    120    325    346 116.9  21.1  34130  289.08 0855.27
2009/04/23 09:40:03.5     293   -137     94    324    338 115.1  16.3  34132  289.10 0855.27
2009/04/23 09:40:03.6     257   -161    136    304    333 122.0  25.8  34130  289.07 0855.27
2009/04/23 09:40:03.6     218    -48    255    224    339 102.4  54.3  34120  288.90 0855.27
2009/04/23 09:40:03.8     137   -164    186    214    283 140.1  45.6  34132  289.09 0855.27
2009/04/23 09:40:03.8     173    -23    164    175    239  97.7  48.0  34132  289.09 0855.27
2009/04/23 09:40:04.0      98      0    115     99    151  90.4  54.8  34136  289.16 0855.27
2009/04/23 09:40:04.1     192    -67    153    204    255 109.3  40.7  34124  288.95 0855.27
2009/04/23 09:40:04.2     124   -180    209    219    302 145.5  48.5  34138  289.20 0855.27
2009/04/23 09:40:04.3      44   -184    260    190    322 166.4  60.4  34134  289.12 0855.27
2009/04/23 09:40:04.4      64    -74    188     99    212 139.0  70.0  34126  289.01 0855.27
2009/04/23 09:40:04.5     -53     25    168     59    178 295.2  80.2  34132  289.09 0855.27
2009/04/23 09:40:04.6       1    -62    179     63    189 179.0  80.5  34132  289.11 0855.27
2009/04/23 09:40:04.7     -61   -184    247    195    314 198.5  57.8  34130  289.05 0855.27
2009/04/23 09:40:04.8     -87   -262    119    277    301 198.5  24.9  34130  289.07 0855.27
2009/04/23 09:40:04.9     -17   -134    217    136    256 187.6  64.9  34130  289.08 0855.27
2009/04/23 09:40:05.0      11   -119    175    120    212 174.7  62.6  34132  289.11 0855.27
2009/04/23 09:40:05.1     -23      0    126     24    128 270.0  89.1  34140  289.24 0855.27
2009/04/23 09:40:05.2     -24    -72    161     77    178 198.7  72.8  34136  289.18 0855.27
2009/04/23 09:40:05.3     -68   -157    163    172    236 203.4  48.5  34128  289.04 0855.27
2009/04/23 09:40:05.4     -57   -183    170    192    256 197.4  46.2  34126  289.00 0855.27
2009/04/23 09:40:05.5    -103   -145    219    178    282 215.4  56.9  34126  288.98 0855.27
2009/04/23 09:40:05.6    -156   -215    204    266    335 216.0  41.3  34122  288.93 0855.27
2009/04/23 09:40:05.7     -41   -263    222    267    347 188.9  43.8  34124  288.97 0855.27
2009/04/23 09:40:05.8     -51   -300    273    305    409 189.7  46.6  34126  289.01 0855.27
2009/04/23 09:40:05.9      24   -310    295    312    429 175.5  48.4  34128  289.04 0855.27
2009/04/23 09:40:06.0      76   -330    278    339    438 166.9  43.7  34128  289.04 0855.27
2009/04/23 09:40:06.1     -69   -398    287    405    496 189.9  38.8  34126  288.98 0855.27
2009/04/23 09:40:06.2    -103   -414    275    427    507 194.1  35.9  34126  288.98 0855.27
2009/04/23 09:40:06.3     -88   -362    156    373    404 193.8  24.1  34124  288.96 0855.27
2009/04/23 09:40:06.4      29   -313    172    315    358 174.7  31.0  34126  288.98 0855.27
2009/04/23 09:40:06.5      89   -443    122    452    469 168.5  15.2  34120  288.90 0855.27
2009/04/23 09:40:06.6      -6   -406     54    407    411 180.9   7.6  34130  289.07 0855.27
2009/04/23 09:40:06.7      41   -389    111    392    408 173.9  15.8  34132  289.09 0855.27
2009/04/23 09:40:06.8     134   -369    157    393    423 160.0  23.0  34128  289.02 0855.27
2009/04/23 09:40:06.9      19   -379     94    380    392 177.0  13.9  34122  288.94 0855.27
2009/04/23 09:40:07.0     -48   -316    201    320    377 188.7  35.2  34126  288.98 0855.27
2009/04/23 09:40:07.1     -47   -246    151    251    292 190.9  33.7  34130  289.05 0855.27
2009/04/23 09:40:07.2    -133   -198    173    239    295 213.8  39.5  34124  288.97 0855.25
2009/04/23 09:40:07.3     -40   -220    159    224    274 190.5  39.1  34128  289.03 0855.25
2009/04/23 09:40:07.4     -53   -213    240    220    325 194.0  52.9  34128  289.03 0855.25
2009/04/23 09:40:07.5    -102   -223    241    246    344 204.5  49.4  34134  289.12 0855.25
2009/04/23 09:40:07.6    -142   -297    146    330    360 205.6  25.3  34128  289.04 0855.25
2009/04/23 09:40:07.7    -117   -170    111    207    234 214.5  30.3  34132  289.11 0855.25
2009/04/23 09:40:07.8    -132   -141     16    194    195 223.2   4.9  34126  288.99 0855.25
2009/04/23 09:40:07.9    -235   -104     85    258    272 246.0  18.4  34130  289.05 0855.25
2009/04/23 09:40:08.0    -289   -120    -46    314    318 247.4  -8.4  34128  289.02 0855.25
2009/04/23 09:40:08.1    -286    -40     -9    289    290 262.0  -1.8  34126  288.98 0855.25
2009/04/23 09:40:08.2    -299    -46    -39    303    306 261.2  -7.5  34132  289.09 0855.25
2009/04/23 09:40:08.3    -190    -80    114    207    236 247.2  31.3  34130  289.08 0855.25
2009/04/23 09:40:08.4    -197   -107    107    225    249 241.4  27.3  34138  289.19 0855.25
2009/04/23 09:40:08.5    -100    -44     83    110    137 246.0  41.2  34136  289.16 0855.25
2009/04/23 09:40:08.6     -22     33    154     40    159 326.6  85.4  34150  289.41 0855.25
2009/04/23 09:40:08.7     -30     41    116     51    126 323.9  75.0  34170  289.74 0855.25
2009/04/23 09:40:08.8       4     75     82     76    111   3.6  52.2  34196  290.18 0855.25
2009/04/23 09:40:08.9     -12     35     61     38     71 341.3  64.7  34192  290.11 0855.25
2009/04/23 09:40:09.0     -23     99     20    102    104 346.6  11.1  34182  289.94 0855.25
2009/04/23 09:40:09.1     -90     74     40    117    124 309.5  18.9  34154  289.46 0855.25
2009/04/23 09:40:09.2    -197    -44     10    202    203 257.4   2.9  34148  289.38 0855.23
2009/04/23 09:40:09.3    -266     12    -95    267    284 272.6 -19.7  34154  289.46 0855.23
2009/04/23 09:40:09.4    -371    148    -32    400    402 291.8  -4.6  34152  289.43 0855.23
2009/04/23 09:40:09.5    -380    204      8    432    433 298.3   1.1  34142  289.26 0855.23
2009/04/23 09:40:09.6    -260    314     27    409    410 320.4   3.8  34156  289.51 0855.23
2009/04/23 09:40:09.7    -155    289     -5    329    330 331.7  -0.9  34128  289.04 0855.23
2009/04/23 09:40:09.8    -407    161   -273    438    516 291.6 -39.4  34116  288.81 0855.23
2009/04/23 09:40:09.9    -438    379    143    580    598 310.9  13.9  34112  288.75 0855.23
2009/04/23 09:40:10.0    -447    107    201    460    501 283.5  25.1  34126  288.98 0855.23
2009/04/23 09:40:10.1    -519    183    112    551    563 289.4  11.5  34120  288.89 0855.23
2009/04/23 09:40:10.2    -232    303     60    382    387 322.5   9.0  34126  288.98 0855.23
2009/04/23 09:40:10.3    -200    279    230    344    413 324.4  37.0  34120  288.89 0855.23
2009/04/23 09:40:10.4    -195    114    328    227    398 300.4  62.2  34136  289.16 0855.23
2009/04/23 09:40:10.5    -248     14    263    249    362 273.3  51.9  34146  289.33 0855.23
2009/04/23 09:40:10.6    -311     29    184    313    363 275.5  33.1  34146  289.33 0855.23
2009/04/23 09:40:10.7    -305   -232    194    384    430 232.8  29.1  34186  290.02 0855.23
2009/04/23 09:40:10.8    -282   -384    257    477    541 216.3  30.8  34204  290.31 0855.23
2009/04/23 09:40:10.9    -258   -493    203    557    592 207.7  20.9  34190  290.08 0855.23
2009/04/23 09:40:11.0    -291   -482    226    564    607 211.1  23.1  34184  289.97 0855.23
2009/04/23 09:40:11.1    -154   -403    185    432    469 201.0  24.6  34188  290.05 0855.23
2009/04/23 09:40:11.2    -260   -260     65    369    375 225.0  10.1  34164  289.65 0855.25
2009/04/23 09:40:11.3    -349    -59      6    354    355 260.4   1.1  34182  289.93 0855.25
2009/04/23 09:40:11.4    -357   -147     -9    387    388 247.6  -1.4  34162  289.60 0855.25
2009/04/23 09:40:11.5    -192   -332     85    384    394 210.1  12.5  34162  289.59 0855.25
2009/04/23 09:40:11.6    -221   -236    -65    324    331 223.0 -11.5  34144  289.31 0855.25
2009/04/23 09:40:11.7    -260   -221     11    342    343 229.7   1.9  34116  288.84 0855.25
2009/04/23 09:40:11.8    -110   -463    -72    476    482 193.4  -8.7  34148  289.37 0855.25
2009/04/23 09:40:11.9      52   -263   -235    269    357 168.7 -50.2  34138  289.21 0855.25
2009/04/23 09:40:12.0     131   -218    -92    255    271 149.0 -24.6  34134  289.14 0855.25
2009/04/23 09:40:12.1     165   -258     23    307    308 147.4   4.4  34130  289.05 0855.25
2009/04/23 09:40:12.2      23   -217    -17    219    220 173.8  -4.6  34136  289.16 0855.25
2009/04/23 09:40:12.3      66   -110     57    129    141 149.2  25.2  34128  289.04 0855.25
2009/04/23 09:40:12.4     207   -208    -32    294    296 135.2  -6.2  34128  289.03 0855.25
2009/04/23 09:40:12.5     207   -150    -70    256    266 126.0 -15.4  34126  289.00 0855.25
2009/04/23 09:40:12.6     295    -31    -78    297    308  96.1 -14.7  34122  288.93 0855.25
2009/04/23 09:40:12.7     255    -30     17    257    258  96.8   3.8  34122  288.93 0855.25
2009/04/23 09:40:12.8     288     26    -52    290    295  84.8 -10.3  34126  288.98 0855.25
2009/04/23 09:40:12.9     198     15    -31    199    202  85.6  -9.0  34134  289.13 0855.25
2009/04/23 09:40:13.0     214    -13     40    215    219  93.7  10.6  34132  289.09 0855.25
2009/04/23 09:40:13.1     190    -75     39    205    209 111.5  11.0  34132  289.09 0855.25
2009/04/23 09:40:13.2     110     -1     72    111    132  90.9  35.6  34132  289.09 0855.27
2009/04/23 09:40:13.3     120     -9     68    121    138  94.3  31.4  34134  289.14 0855.27
2009/04/23 09:40:13.4      76     29     98     82    127  68.7  56.3  34134  289.14 0855.27
2009/04/23 09:40:13.5      44     37     80     58     98  50.4  60.5  34134  289.14 0855.27
2009/04/23 09:40:13.6     -37     11     85     39     93 286.8  73.5  34138  289.21 0855.27
2009/04/23 09:40:13.7     -21      0    108     22    110 270.0  89.0  34142  289.28 0855.27
2009/04/23 09:40:13.8       8     -3    151      9    151 115.3  90.0  34136  289.18 0855.27
2009/04/23 09:40:13.9      -8     35    133     36    137 346.6  84.9  34134  289.14 0855.27
2009/04/23 09:40:14.0      60     57    164     83    183  46.4  71.1  34130  289.08 0855.27
2009/04/23 09:40:14.1      38     30    164     49    171  52.2  83.1  34134  289.14 0855.27
2009/04/23 09:40:14.2      11   -161    145    162    217 175.8  46.6  34130  289.06 0855.27
2009/04/23 09:40:14.3      76     -5    139     77    158  94.3  68.5  34130  289.06 0855.27
2009/04/23 09:40:14.4     200    140     68    245    255  54.9  15.6  34128  289.02 0855.27
2009/04/23 09:40:14.5     328     88    148    340    370  74.9  25.1  34142  289.25 0855.27
2009/04/23 09:40:14.6     312    126    145    337    366  68.0  24.9  34178  289.86 0855.27
2009/04/23 09:40:14.7     210    282    147    352    381  36.7  23.9  34188  290.04 0855.27
2009/04/23 09:40:14.8     209    267    168    340    379  38.0  28.2  34186  290.01 0855.27
2009/04/23 09:40:14.9     172    253    244    306    391  34.2  42.7  34208  290.40 0855.27
2009/04/23 09:40:15.0     275    204    288    343    447  53.5  44.2  34240  290.92 0855.27
2009/04/23 09:40:15.1     273    114    127    296    322  67.3  24.6  34206  290.34 0855.27
2009/04/23 09:40:15.2     422    260     59    496    500  58.4   6.9  34172  289.78 0855.25
2009/04/23 09:40:15.3     548    155     43    570    572  74.2   4.3  34136  289.15 0855.25
2009/04/23 09:40:15.4     177    388    208    427    474  24.5  27.9  34156  289.49 0855.25
2009/04/23 09:40:15.5     359    -57   -118    364    383  99.1 -18.1  34142  289.26 0855.25
2009/04/23 09:40:15.6     206    183    180    276    329  48.4  36.0  34146  289.34 0855.25
2009/04/23 09:40:15.7     127    143    144    192    240  41.4  40.7  34158  289.53 0855.25
2009/04/23 09:40:15.8     490    214    -50    535    538  66.4  -5.4  34110  288.74 0855.25
2009/04/23 09:40:15.9     350    127    177    373    412  70.0  27.2  34136  289.16 0855.25
2009/04/23 09:40:16.0     244    227   -169    334    374  47.0 -33.3  34126  289.01 0855.25
2009/04/23 09:40:16.1     209   -132     96    248    265 122.4  22.3  34136  289.15 0855.25
2009/04/23 09:40:16.2     301   -339    155    454    481 138.5  18.9  34138  289.20 0855.25
2009/04/23 09:40:16.3     310   -406    218    512    556 142.6  24.5  34130  289.07 0855.25
2009/04/23 09:40:16.4     397   -371    308    544    625 133.0  32.1  34134  289.14 0855.25
2009/04/23 09:40:16.5     425   -226    241    482    538 118.0  28.6  34146  289.35 0855.25
2009/04/23 09:40:16.6     264   -119    320    290    431 114.4  53.3  34148  289.38 0855.25
2009/04/23 09:40:16.7     458   -294    372    545    659 122.8  37.7  34148  289.37 0855.25
2009/04/23 09:40:16.8     474   -254    321    538    626 118.2  33.6  34144  289.30 0855.25
2009/04/23 09:40:16.9     106   -170    322    201    379 147.9  64.9  34136  289.18 0855.25
2009/04/23 09:40:17.0      -1     33    295     34    296 357.4  90.0  34156  289.51 0855.25
2009/04/23 09:40:17.1     -12    -27    218     30    220 205.4  90.0  34150  289.40 0855.25
2009/04/23 09:40:17.2     -55     92    188    108    216 328.8  67.7  34154  289.46 0855.26
2009/04/23 09:40:17.3       7    114    183    115    216   3.6  64.7  34150  289.41 0855.26
2009/04/23 09:40:17.4      24    140    136    143    197   9.8  48.5  34144  289.30 0855.26
2009/04/23 09:40:17.5     -50     79     64     94    113 327.9  37.0  34134  289.14 0855.26
2009/04/23 09:40:17.6    -330    -13     25    331    332 267.7   4.4  34142  289.25 0855.26
2009/04/23 09:40:17.7    -243     91    -87    260    274 290.6 -23.6  34134  289.12 0855.26
2009/04/23 09:40:17.8    -131     11    194    132    234 274.8  62.6  34140  289.23 0855.26
2009/04/23 09:40:17.9    -436   -242    116    499    513 241.0  13.1  34126  288.98 0855.26
2009/04/23 09:40:18.0    -770   -416   -101    876    882 241.6  -6.6  34114  288.78 0855.26
2009/04/23 09:40:18.1    -917   -578   -280   1084   1120 237.8 -14.5  34096  288.50 0855.26
2009/04/23 09:40:18.2    -719   -447   -155    847    861 238.1 -10.4  34092  288.41 0855.25
2009/04/23 09:40:18.3    -532   -322    286    622    684 238.8  26.5  34128  289.04 0855.25
2009/04/23 09:40:18.4    -651    -77    -99    656    664 263.2  -8.6  34140  289.22 0855.25
2009/04/23 09:40:18.5    -391   -312    177    501    532 231.4  19.5  34124  288.96 0855.25
2009/04/23 09:40:18.6    -448    -37    161    450    477 265.2  20.4  34136  289.18 0855.25
2009/04/23 09:40:18.7    -585   -447      4    737    738 232.6   0.4  34134  289.14 0855.25
2009/04/23 09:40:18.8    -541   -167   -119    567    580 252.8 -11.9  34128  289.02 0855.25
2009/04/23 09:40:18.9    -491   -379    133    621    636 232.3  12.2  34112  288.77 0855.25
2009/04/23 09:40:19.0    -599   -301     62    671    675 243.3   5.3  34118  288.87 0855.25
2009/04/23 09:40:19.2    -212    -13    163    213    268 266.3  41.4  34118  288.85 0855.25
2009/04/23 09:40:19.2    -203     63    249    213    327 287.3  55.4  34128  289.02 0855.25
2009/04/23 09:40:19.3    -196    -23     13    198    199 263.2   3.8  34128  289.04 0855.25
2009/04/23 09:40:19.4    -410     37     41    412    415 275.2   5.7  34118  288.85 0855.25
2009/04/23 09:40:19.5    -459    188    121    497    512 292.3  13.7  34120  288.88 0855.25
2009/04/23 09:40:19.6    -540    126    217    555    595 283.2  22.5  34124  288.97 0855.25
2009/04/23 09:40:19.7    -257   -209    185    332    380 230.9  31.5  34124  288.96 0855.25
2009/04/23 09:40:19.8      -4    -81    240     82    253 183.1  81.0  34132  289.09 0855.25
2009/04/23 09:40:19.9    -103    -91    128    138    188 228.7  47.9  34130  289.06 0855.25
2009/04/23 09:40:20.0    -162   -194    -24    253    255 219.9  -5.6  34122  288.93 0855.25
2009/04/23 09:40:20.1    -139   -416      7    439    440 198.5   1.0  34110  288.72 0855.25
2009/04/23 09:40:20.2    -213   -338    -51    400    404 212.2  -7.3  34116  288.82 0855.26
2009/04/23 09:40:20.3    -121   -464     42    480    482 194.6   5.1  34110  288.71 0855.26
2009/04/23 09:40:20.4    -206   -571     22    608    609 199.9   2.1  34108  288.70 0855.26
2009/04/23 09:40:20.5    -195   -464     57    504    508 202.8   6.5  34116  288.83 0855.26
2009/04/23 09:40:20.6    -199   -421    132    466    485 205.3  15.8  34110  288.74 0855.26
2009/04/23 09:40:20.7    -293   -250    214    386    441 229.6  31.4  34116  288.82 0855.26
2009/04/23 09:40:20.8    -114   -450    175    465    496 194.3  21.6  34104  288.62 0855.26
2009/04/23 09:40:20.9      -2   -480    202    481    521 180.3  24.2  34108  288.69 0855.26
2009/04/23 09:40:21.0     -44   -427    222    430    483 185.9  29.4  34110  288.73 0855.26
2009/04/23 09:40:21.1     -81   -355    158    365    397 192.9  24.9  34102  288.60 0855.26
2009/04/23 09:40:21.2     -27   -371    186    372    415 184.2  28.6  34114  288.80 0855.26
2009/04/23 09:40:21.3      -3   -338    153    339    371 180.6  26.0  34126  288.99 0855.26
2009/04/23 09:40:21.4     -86   -283    230    296    374 196.9  41.7  34120  288.88 0855.26
2009/04/23 09:40:21.5    -128   -233    225    267    349 208.9  44.3  34114  288.80 0855.26
2009/04/23 09:40:21.6    -132   -153    149    203    251 220.8  39.9  34110  288.73 0855.26
2009/04/23 09:40:21.7    -305   -130    220    332    398 246.9  36.5  34120  288.88 0855.26
2009/04/23 09:40:21.8    -192    -90    143    213    256 244.8  37.3  34114  288.78 0855.26
2009/04/23 09:40:21.9    -223   -133     71    260    270 239.1  15.3  34118  288.85 0855.26
2009/04/23 09:40:22.0    -222    -48     19    228    229 257.6   4.9  34110  288.72 0855.26
2009/04/23 09:40:22.1    -242   -146     16    283    284 238.9   3.3  34110  288.73 0855.26
2009/04/23 09:40:22.2    -297    -99      0    314    315 251.6   0.0  34104  288.61 0855.26
2009/04/23 09:40:22.3    -272    -56    -45    278    282 258.3  -9.3  34094  288.44 0855.26
2009/04/23 09:40:22.4    -289     58    -92    295    309 281.5 -22.5  34094  288.46 0855.26
2009/04/23 09:40:22.5    -288    119   -108    312    330 292.6 -24.0  34094  288.46 0855.26
2009/04/23 09:40:22.6    -203    225    -78    304    315 317.9 -14.5  34102  288.58 0855.26
2009/04/23 09:40:22.7     -77    275    -81    286    297 344.2 -20.4  34098  288.53 0855.26
2009/04/23 09:40:22.8      36    152      2    157    158  13.4   1.0  34100  288.57 0855.26
2009/04/23 09:40:22.9      42     55     -2     70     71  37.8  -2.2  34102  288.58 0855.26
2009/04/23 09:40:23.0     -87    -15   -102     89    135 260.3 -58.7  34102  288.58 0855.26
2009/04/23 09:40:23.1     -52    -17   -133     55    143 251.6 -81.4  34106  288.65 0855.26
2009/04/23 09:40:23.2      16   -120    -36    122    128 172.0 -16.6  34110  288.72 0855.26
2009/04/23 09:40:23.3      86    -69     82    111    138 128.6  40.1  34108  288.69 0855.26
2009/04/23 09:40:23.4      55    -83    181    100    206 146.2  68.9  34100  288.57 0855.26
2009/04/23 09:40:23.5    -125   -130    153    181    237 223.7  44.8  34110  288.74 0855.26
2009/04/23 09:40:23.6     -84   -146    143    169    221 210.1  44.5  34106  288.65 0855.26
2009/04/23 09:40:23.7     128   -292    122    319    341 156.3  22.0  34106  288.66 0855.26
2009/04/23 09:40:23.8      22   -345     65    346    353 176.2  10.7  34106  288.66 0855.26
2009/04/23 09:40:23.9    -124   -283    -12    310    311 203.7  -2.2  34106  288.66 0855.26
2009/04/23 09:40:24.0    -303   -293   -146    422    447 226.0 -19.1  34112  288.75 0855.26
2009/04/23 09:40:24.1    -192   -362   -130    411    432 208.0 -17.5  34104  288.61 0855.26
2009/04/23 09:40:24.2    -148   -176    -75    231    242 220.1 -23.3  34108  288.70 0855.30
2009/04/23 09:40:24.3    -235   -195    -11    306    307 230.4  -2.2  34112  288.75 0855.30
2009/04/23 09:40:24.4    -102   -318    157    335    369 197.8  27.1  34108  288.69 0855.30
2009/04/23 09:40:24.5    -102   -344    233    359    427 196.6  35.9  34106  288.65 0855.30
2009/04/23 09:40:24.6     -90   -311    221    324    392 196.3  37.6  34104  288.62 0855.30
2009/04/23 09:40:24.7    -111   -251    205    275    343 203.8  40.6  34102  288.59 0855.30
2009/04/23 09:40:24.8    -119   -357    239    377    446 198.5  35.5  34108  288.68 0855.30
2009/04/23 09:40:24.9     -21   -265    309    266    407 184.7  55.3  34106  288.67 0855.30
2009/04/23 09:40:25.0    -161   -252    148    300    334 212.5  28.1  34100  288.56 0855.30
2009/04/23 09:40:25.1    -126   -265    131    294    321 205.5  25.6  34100  288.54 0855.30
2009/04/23 09:40:25.2    -202   -307     95    368    381 213.4  14.5  34104  288.62 0855.30
2009/04/23 09:40:25.3     -67   -305     93    313    327 192.5  16.7  34104  288.63 0855.30
2009/04/23 09:40:25.4      39   -365     69    368    375 173.8  10.7  34104  288.64 0855.30
2009/04/23 09:40:25.5     -40   -317    -30    320    322 187.3  -5.4  34104  288.63 0855.30
2009/04/23 09:40:25.6     -48   -202    -65    208    217 193.6 -22.3  34104  288.64 0855.30
2009/04/23 09:40:25.7       9   -127   -117    128    173 175.5 -51.9  34102  288.60 0855.30
2009/04/23 09:40:25.8      14   -101     54    103    116 172.0  29.8  34110  288.72 0855.30
2009/04/23 09:40:25.9      58   -107     83    122    147 151.5  37.4  34110  288.72 0855.30
2009/04/23 09:40:26.0       3   -112     93    113    146 178.2  43.7  34106  288.67 0855.30
2009/04/23 09:40:26.1       0     29    127     30    130 359.1  87.0  34108  288.70 0855.30
2009/04/23 09:40:26.2     -38    -38    171     55    179 225.1  81.2  34114  288.79 0855.24
2009/04/23 09:40:26.3      -8   -135    199    136    241 183.6  62.6  34112  288.77 0855.24
2009/04/23 09:40:26.4     -39   -128    139    134    193 196.9  50.9  34110  288.74 0855.24
2009/04/23 09:40:26.5       5    -80    129     81    152 176.4  64.7  34118  288.86 0855.24
2009/04/23 09:40:26.6      -7    -99    119    100    155 184.0  56.3  34114  288.79 0855.24
2009/04/23 09:40:26.7      56    -83     82    101    130 146.2  43.7  34116  288.84 0855.24
2009/04/23 09:40:26.8      -8    -95     92     96    132 185.3  49.4  34116  288.84 0855.24
2009/04/23 09:40:26.9     -12   -144     58    145    156 184.9  23.0  34112  288.77 0855.24
2009/04/23 09:40:27.0     -19   -127      4    129    130 188.5   1.8  34110  288.74 0855.24
2009/04/23 09:40:27.1       3    -80    -15     81     83 177.8 -10.9  34108  288.70 0855.24
2009/04/23 09:40:27.2      26    -42    -49     50     70 148.4 -55.5  34114  288.80 0855.24
2009/04/23 09:40:27.3      28    -42    -32     51     60 145.7 -39.9  34114  288.80 0855.24
2009/04/23 09:40:27.4      15   -100     12    102    103 171.1   7.1  34110  288.74 0855.24
2009/04/23 09:40:27.5     -83   -166     -5    186    187 206.5  -1.8  34110  288.72 0855.24
2009/04/23 09:40:27.6    -216    -65    -87    226    242 253.1 -26.4  34124  288.95 0855.24
2009/04/23 09:40:27.7     -98    -37    -96    105    142 249.2 -52.3  34124  288.96 0855.24
2009/04/23 09:40:27.8    -231     45     28    236    238 281.2   6.9  34116  288.81 0855.24
2009/04/23 09:40:27.9    -262     -7   -108    263    284 268.3 -27.8  34120  288.90 0855.24
2009/04/23 09:40:28.0    -333    -55    -12    338    339 260.6  -2.1  34108  288.69 0855.24
2009/04/23 09:40:28.1    -273   -246    207    368    422 227.9  31.7  34116  288.83 0855.24
2009/04/23 09:40:28.2    -332    -56    158    337    372 260.3  27.1  34122  288.94 0855.23
2009/04/23 09:40:28.3    -341     73    173    349    389 282.2  28.2  34114  288.79 0855.23
2009/04/23 09:40:28.4    -280   -141    146    314    346 243.1  26.9  34114  288.79 0855.23
2009/04/23 09:40:28.5    -209   -262    219    336    401 218.5  36.2  34110  288.72 0855.23
2009/04/23 09:40:28.6    -525   -191    -18    560    561 250.0  -1.9  34110  288.72 0855.23
2009/04/23 09:40:28.7    -448   -267   -140    522    541 239.2 -15.0  34102  288.58 0855.23
2009/04/23 09:40:28.8    -602   -336   -176    690    713 240.8 -14.3  34104  288.62 0855.23
2009/04/23 09:40:28.9    -407   -178      5    445    446 246.4   0.7  34114  288.78 0855.23
2009/04/23 09:40:29.0    -431   -219    -68    484    489 243.0  -8.0  34110  288.73 0855.23
2009/04/23 09:40:29.2    -552   -180     -3    581    582 251.9  -0.4  34108  288.70 0855.23
2009/04/23 09:40:29.2    -501   -277    -83    573    580 241.0  -8.3  34114  288.78 0855.23
2009/04/23 09:40:29.3    -446   -310    -52    544    547 235.2  -5.5  34108  288.70 0855.23
2009/04/23 09:40:29.4    -425   -303    -48    523    526 234.5  -5.3  34100  288.55 0855.23
2009/04/23 09:40:29.5    -589   -306   -233    664    703 242.5 -24.5  34110  288.72 0855.23
2009/04/23 09:40:29.6    -324   -323     98    458    469 225.1  12.1  34098  288.51 0855.23
2009/04/23 09:40:29.8    -361   -230     86    429    438 237.5  11.3  34116  288.83 0855.23
2009/04/23 09:40:29.9    -300   -302     15    426    427 224.8   2.1  34118  288.87 0855.23
2009/04/23 09:40:30.0    -285   -350   -125    452    470 219.2 -15.5  34120  288.90 0855.23
2009/04/23 09:40:30.1    -388   -332   -181    511    543 229.5 -19.5  34110  288.72 0855.23
2009/04/23 09:40:30.2    -441   -326   -157    549    572 233.5 -16.0  34110  288.72 0855.23
2009/04/23 09:40:30.3    -483   -188   -194    519    554 248.7 -25.9  34112  288.75 0855.19
2009/04/23 09:40:30.4    -306   -326   -152    448    474 223.1 -18.8  34104  288.62 0855.19
2009/04/23 09:40:30.5    -306   -438      7    535    536 215.0   0.8  34108  288.70 0855.19
2009/04/23 09:40:30.6    -422   -100   -148    434    458 256.6 -23.7  34106  288.65 0855.19
2009/04/23 09:40:30.7    -478   -269   -108    549    560 240.6 -11.2  34108  288.69 0855.19
2009/04/23 09:40:30.8    -420   -363    -91    556    564 229.2  -9.3  34102  288.58 0855.19
2009/04/23 09:40:30.9    -473   -343   -150    585    604 234.1 -14.4  34104  288.64 0855.19
2009/04/23 09:40:31.0    -519   -260   -172    581    607 243.4 -16.5  34104  288.61 0855.19
2009/04/23 09:40:31.1    -328   -238   -123    406    424 234.0 -21.7  34108  288.70 0855.19
2009/04/23 09:40:31.2    -207   -234     71    313    321 221.4  12.8  34112  288.75 0855.19
2009/04/23 09:40:31.3    -269   -185     76    327    336 235.4  13.2  34120  288.91 0855.19
2009/04/23 09:40:31.4    -162   -311     77    351    360 207.5  12.5  34120  288.91 0855.19
2009/04/23 09:40:31.5    -212   -174   -133    275    305 230.5 -31.7  34102  288.59 0855.19
2009/04/23 09:40:31.6    -282   -265   -122    388    406 226.8 -22.6  34110  288.71 0855.19
2009/04/23 09:40:31.7    -238   -326   -104    404    418 216.1 -14.5  34110  288.73 0855.19
2009/04/23 09:40:31.8    -193   -306   -100    362    376 212.3 -15.5  34104  288.64 0855.19
2009/04/23 09:40:31.9    -368   -276    -10    461    462 233.1  -1.3  34108  288.68 0855.19
2009/04/23 09:40:32.0    -381   -369   -146    531    551 226.0 -15.4  34110  288.74 0855.19
2009/04/23 09:40:32.1    -520   -281   -269    592    650 241.6 -30.6  34110  288.72 0855.19
2009/04/23 09:40:32.2    -445   -293   -200    533    569 236.6 -26.0  34110  288.74 0855.19
2009/04/23 09:40:32.3    -109   -437   -266    451    523 194.0 -37.8  34104  288.64 0855.21
2009/04/23 09:40:32.4       0   -400   -215    401    455 179.9 -35.0  34106  288.67 0855.21
2009/04/23 09:40:32.5     120   -251   -105    279    298 154.5 -26.1  34108  288.68 0855.21
2009/04/23 09:40:32.6     -16   -375     88    376    387 182.5  13.2  34112  288.76 0855.21
2009/04/23 09:40:32.7     -56   -378   -109    383    398 188.5 -20.7  34100  288.57 0855.21
2009/04/23 09:40:32.8    -329   -253     -6    416    417 232.4  -0.9  34122  288.92 0855.21
2009/04/23 09:40:32.9    -233   -315   -115    392    408 216.5 -21.2  34108  288.70 0855.21
2009/04/23 09:40:33.0    -268   -331   -120    427    444 219.0 -15.8  34112  288.77 0855.21
2009/04/23 09:40:33.1    -316   -375   -135    491    510 220.2 -15.4  34108  288.68 0855.21
2009/04/23 09:40:33.2    -304   -326    -85    447    456 223.0 -10.8  34116  288.82 0855.21
2009/04/23 09:40:33.3    -307   -316   -139    441    463 224.2 -17.6  34106  288.67 0855.21
2009/04/23 09:40:33.4    -255   -364    -70    445    451 215.0  -9.0  34102  288.60 0855.21
2009/04/23 09:40:33.5    -248   -320     84    405    414 217.8  11.8  34110  288.73 0855.21
2009/04/23 09:40:33.6    -225   -250     79    337    347 222.1  13.3  34116  288.84 0855.21
2009/04/23 09:40:33.7    -121   -189     93    225    243 212.6  23.6  34120  288.90 0855.21
2009/04/23 09:40:33.8    -112     61    171    128    213 298.9  59.8  34118  288.87 0855.21
2009/04/23 09:40:33.9    -187   -270    132    329    354 214.8  23.0  34116  288.84 0855.21
2009/04/23 09:40:34.0    -255     31      9    257    258 277.0   2.1  34118  288.85 0855.21
2009/04/23 09:40:34.1    -224    -86     55    241    248 248.9  12.9  34122  288.92 0855.21
2009/04/23 09:40:34.2    -219    -83    125    235    266 249.2  30.3  34120  288.90 0855.21
2009/04/23 09:40:34.3      66     59    105     89    137  48.2  55.4  34108  288.70 0855.24
2009/04/23 09:40:34.4     220     34    184    223    289  81.2  43.7  34108  288.70 0855.24
2009/04/23 09:40:34.5     112     -9    210    113    238  94.8  69.6  34120  288.91 0855.24
2009/04/23 09:40:34.6       4   -277    225    278    357 179.1  43.1  34114  288.79 0855.24
2009/04/23 09:40:34.7      -6     -2    181      7    181 251.8  90.0  34116  288.84 0855.24
2009/04/23 09:40:34.8      89   -279    269    294    398 162.2  47.3  34106  288.66 0855.24
2009/04/23 09:40:34.9     107   -295    185    315    365 160.0  33.3  34112  288.77 0855.24
2009/04/23 09:40:35.0      -9   -288     47    289    293 181.8   9.3  34106  288.65 0855.24
2009/04/23 09:40:35.1      15   -196     97    197    219 175.5  28.0  34114  288.79 0855.24
2009/04/23 09:40:35.2     199   -240    109    312    331 140.3  19.4  34114  288.78 0855.24
2009/04/23 09:40:35.3     331    -21     81    332    342  93.7  13.8  34090  288.37 0855.24
2009/04/23 09:40:35.4     241   -113    242    267    360 115.2  46.9  34114  288.79 0855.24
2009/04/23 09:40:35.5     -23    -34    214     42    218 214.3  89.4  34118  288.86 0855.24
2009/04/23 09:40:35.6     -32   -119    251    124    279 195.2  71.9  34114  288.78 0855.24
2009/04/23 09:40:35.7     -75    -70    158    103    188 226.9  64.4  34118  288.86 0855.24
2009/04/23 09:40:35.8    -132   -131     87    187    206 225.2  27.0  34116  288.82 0855.24
2009/04/23 09:40:35.9    -267   -147    155    305    342 241.1  29.1  34118  288.86 0855.24
2009/04/23 09:40:36.0    -314   -131      2    341    342 247.3   0.5  34122  288.94 0855.24
2009/04/23 09:40:36.1     -86   -216    140    233    271 201.8  34.2  34116  288.81 0855.24
2009/04/23 09:40:36.2     -80   -240    142    254    290 198.5  31.6  34116  288.83 0855.24
2009/04/23 09:40:36.3    -189   -168     92    254    271 228.4  19.9  34118  288.85 0855.25
2009/04/23 09:40:36.4     -78   -145     39    165    170 208.3  13.5  34118  288.86 0855.25
2009/04/23 09:40:36.5    -128   -207     18    244    245 211.9   4.2  34124  288.97 0855.25
2009/04/23 09:40:36.6    -214   -194     80    289    301 227.8  15.6  34136  289.15 0855.25
2009/04/23 09:40:36.7    -252   -160      6    299    300 237.5   1.2  34136  289.17 0855.25
2009/04/23 09:40:36.8    -348   -296    -71    458    464 229.6  -8.8  34112  288.77 0855.25
2009/04/23 09:40:36.9    -503   -235    -80    556    562 245.0  -8.2  34122  288.94 0855.25
2009/04/23 09:40:37.0    -542   -187      0    574    575 250.9   0.0  34122  288.93 0855.25
2009/04/23 09:40:37.1    -456   -153     90    482    491 251.4  10.6  34120  288.91 0855.25
2009/04/23 09:40:37.2    -478   -123    -56    494    498 255.5  -6.5  34120  288.90 0855.25
2009/04/23 09:40:37.3    -370   -206     38    424    426 240.8   5.2  34136  289.16 0855.25
2009/04/23 09:40:37.4    -338   -123    -52    360    364 250.0  -8.2  34132  289.10 0855.25
2009/04/23 09:40:37.5    -205   -233      9    311    312 221.5   1.8  34128  289.02 0855.25
2009/04/23 09:40:37.6    -332    -58   -104    338    354 260.0 -17.2  34118  288.86 0855.25
2009/04/23 09:40:37.7    -262   -161     48    308    312 238.5   8.9  34130  289.05 0855.25
2009/04/23 09:40:37.8    -213    -77     97    227    246 250.0  24.6  34126  288.98 0855.25
2009/04/23 09:40:37.9    -160   -236    136    286    316 214.1  27.3  34124  288.95 0855.25
2009/04/23 09:40:38.0    -166   -151    125    225    257 227.8  31.4  34122  288.92 0855.25
2009/04/23 09:40:38.1    -174   -164    -76    240    251 226.8 -22.9  34122  288.93 0855.25
2009/04/23 09:40:38.2    -208   -165   -110    266    287 231.6 -28.2  34118  288.87 0855.25
2009/04/23 09:40:38.3    -191   -148    -69    242    252 232.2 -16.0  34120  288.90 0855.26
2009/04/23 09:40:38.4    -171   -160    -13    235    236 226.8  -3.2  34120  288.90 0855.26
2009/04/23 09:40:38.5    -245   -107    -34    268    271 246.3  -7.3  34114  288.80 0855.26
2009/04/23 09:40:38.6    -302    -23     -3    303    304 265.6  -0.7  34122  288.93 0855.26
2009/04/23 09:40:38.7    -247    -97   -150    266    305 248.5 -36.3  34126  288.98 0855.26
2009/04/23 09:40:38.8      70     30     -1     77     78  66.5  -1.2  34118  288.86 0855.26
2009/04/23 09:40:38.9     -84     13     62     85    105 278.8  39.7  34128  289.04 0855.26
2009/04/23 09:40:39.0     -79    -23    -32     83     88 253.2 -25.9  34128  289.04 0855.26
2009/04/23 09:40:39.1     -21     -7    -96     23     98 250.0 -90.0  34134  289.14 0855.26
2009/04/23 09:40:39.2      12    -59   -103     61    119 168.4 -71.2  34130  289.08 0855.26
2009/04/23 09:40:39.3      28   -105     21    109    112 164.9  11.1  34122  288.94 0855.25
2009/04/23 09:40:39.4     -37    -91    -34     99    105 202.3 -19.1  34118  288.87 0855.25
2009/04/23 09:40:39.5    -154     11    -59    155    165 274.3 -26.1  34124  288.96 0855.25
2009/04/23 09:40:39.6    -125    -97    -14    159    160 232.2  -5.4  34122  288.94 0855.25
2009/04/23 09:40:39.7     -67   -105    -16    125    127 212.5  -7.7  34118  288.86 0855.25
2009/04/23 09:40:39.8    -240   -104    -20    262    263 246.5  -4.4  34124  288.95 0855.25
2009/04/23 09:40:39.9    -157   -130     18    204    205 230.4   5.2  34126  288.99 0855.25
2009/04/23 09:40:40.0    -180   -142   -148    230    273 231.6 -40.1  34128  289.02 0855.25
2009/04/23 09:40:40.1     -73   -107   -152    130    200 214.2 -59.4  34120  288.91 0855.25
2009/04/23 09:40:40.2    -164    -58   -186    175    255 250.5 -56.5  34120  288.91 0855.25
2009/04/23 09:40:40.3    -160   -328   -119    366    384 206.0 -23.3  34116  288.82 0855.25
2009/04/23 09:40:40.4    -247   -262    -20    361    362 223.3  -3.2  34126  288.99 0855.25
2009/04/23 09:40:40.5    -304   -225   -126    379    399 233.5 -23.7  34120  288.91 0855.25
2009/04/23 09:40:40.6    -333   -159   -205    370    422 244.5 -35.8  34122  288.94 0855.25
2009/04/23 09:40:40.7    -268     17   -205    269    338 273.7 -45.6  34126  289.00 0855.25
2009/04/23 09:40:40.8    -178   -121   -152    216    264 235.6 -43.0  34126  289.00 0855.25
2009/04/23 09:40:40.9    -232    -91    -81    250    262 248.5 -23.0  34132  289.09 0855.25
2009/04/23 09:40:41.0    -241   -205   -225    317    388 229.6 -43.2  34100  288.55 0855.25
2009/04/23 09:40:41.1    -194   -152   -181    247    306 231.8 -44.1  34108  288.68 0855.25
2009/04/23 09:40:41.2     -24   -224   -183    226    290 186.2 -47.9  34104  288.63 0855.25
2009/04/23 09:40:41.3     -40   -184    -66    189    200 192.3 -24.0  34102  288.60 0855.24
2009/04/23 09:40:41.4     -95    -53    -53    110    122 240.7 -31.7  34116  288.84 0855.24
2009/04/23 09:40:41.5       0    -90   -115     91    146 180.5 -61.3  34114  288.80 0855.24
2009/04/23 09:40:41.6       0    -90    -97     91    133 180.5 -56.0  34112  288.75 0855.24
2009/04/23 09:40:41.7     -22   -134    -37    136    142 189.7 -15.5  34126  289.01 0855.24
2009/04/23 09:40:41.8      37   -164    -60    169    179 167.3 -24.6  34124  288.97 0855.24
2009/04/23 09:40:41.9     -45   -161    -34    168    172 195.8 -11.6  34126  288.99 0855.24
2009/04/23 09:40:42.0     -40   -196    -72    201    214 191.6 -19.7  34120  288.91 0855.24
2009/04/23 09:40:42.1     -55   -273    -72    279    289 191.5 -14.5  34118  288.87 0855.24
2009/04/23 09:40:42.2     -23   -309    -67    310    318 184.4 -12.3  34114  288.78 0855.24
2009/04/23 09:40:42.3     -49   -349    -98    353    366 188.0 -20.1  34110  288.74 0855.24
2009/04/23 09:40:42.4     128   -294    -95    321    334 156.4 -21.4  34110  288.74 0855.24
2009/04/23 09:40:42.5      92   -267    -25    283    285 160.9  -5.2  34110  288.73 0855.24
2009/04/23 09:40:42.6     129   -243    -10    276    277 152.0  -2.2  34108  288.68 0855.24
2009/04/23 09:40:42.7      81   -243    -17    257    258 161.5  -3.9  34110  288.71 0855.24
2009/04/23 09:40:42.8      24   -313     -9    315    316 175.5  -1.8  34110  288.71 0855.24
2009/04/23 09:40:42.9       7   -261    -33    262    265 178.4  -7.2  34108  288.68 0855.24
2009/04/23 09:40:43.0     -39   -379     33    381    383 185.9   5.0  34112  288.76 0855.24
2009/04/23 09:40:43.1    -139   -354     68    381    388 201.5  10.1  34108  288.69 0855.24
2009/04/23 09:40:43.2     -67   -317    116    325    345 192.0  20.3  34112  288.77 0855.24
2009/04/23 09:40:43.3     -88   -258     53    273    279 198.9  11.0  34114  288.80 0855.25
2009/04/23 09:40:43.4    -204   -282     52    349    353 216.0   8.5  34106  288.67 0855.25
2009/04/23 09:40:43.5    -233   -163     88    285    299 234.9  17.3  34112  288.75 0855.25
2009/04/23 09:40:43.6    -146   -111    125    184    222 232.7  37.4  34112  288.75 0855.25
2009/04/23 09:40:43.7    -205    -78    125    220    253 249.2  32.3  34114  288.78 0855.25
2009/04/23 09:40:43.8    -164    -93    100    189    213 240.5  30.1  34110  288.72 0855.25
2009/04/23 09:40:43.9    -118    -84     74    145    162 234.5  29.1  34110  288.72 0855.25
2009/04/23 09:40:44.0       5    -24     97     25    100 168.4  85.4  34118  288.86 0855.25
2009/04/23 09:40:44.1     -27   -136     96    139    168 191.6  37.8  34110  288.74 0855.25
2009/04/23 09:40:44.2     -95   -186    196    210    287 207.2  47.9  34112  288.75 0855.25
2009/04/23 09:40:44.3    -172   -234     86    291    304 216.3  16.5  34110  288.71 0855.25
2009/04/23 09:40:44.4    -157   -265     31    308    310 210.7   5.8  34110  288.71 0855.25
2009/04/23 09:40:44.5     -63   -312     46    319    323 191.5   8.3  34106  288.65 0855.25
2009/04/23 09:40:44.6       0   -382     75    383    391 180.1  11.1  34102  288.60 0855.25
2009/04/23 09:40:44.7     -16   -327     84    328    339 182.9  14.5  34104  288.62 0855.25
2009/04/23 09:40:44.8     -20   -329     76    330    339 183.5  13.1  34104  288.62 0855.25
2009/04/23 09:40:44.9     -52   -327    143    332    361 189.1  24.9  34100  288.55 0855.25
2009/04/23 09:40:45.0      40   -370    182    373    415 173.8  27.9  34102  288.60 0855.25
2009/04/23 09:40:45.1      52   -402    174    406    441 172.6  24.8  34104  288.63 0855.25
2009/04/23 09:40:45.2      51   -369    114    373    391 172.1  17.0  34102  288.59 0855.25
2009/04/23 09:40:45.3      98   -435    116    447    462 167.2  14.6  34098  288.53 0855.27
2009/04/23 09:40:45.4      95   -419    152    430    456 167.2  20.2  34098  288.51 0855.27
2009/04/23 09:40:45.5     115   -436    133    451    471 165.2  16.4  34098  288.52 0855.27
2009/04/23 09:40:45.6     147   -424    131    450    469 160.8  16.3  34094  288.46 0855.27
2009/04/23 09:40:45.7     133   -424    119    445    461 162.6  15.0  34094  288.46 0855.27
2009/04/23 09:40:45.8     177   -368     83    409    418 154.3  11.5  34094  288.45 0855.27
2009/04/23 09:40:45.9     198   -354     82    406    415 150.7  11.4  34098  288.53 0855.27
2009/04/23 09:40:46.0     175   -342    111    385    401 152.9  16.1  34094  288.47 0855.27
2009/04/23 09:40:46.1     188   -340    105    389    404 151.0  15.1  34094  288.47 0855.27
2009/04/23 09:40:46.2     167   -352     69    390    397 154.5  10.1  34098  288.52 0855.27
2009/04/23 09:40:46.3     145   -349     89    378    389 157.4  13.2  34100  288.54 0855.27
2009/04/23 09:40:46.4     140   -311    127    342    364 155.7  21.1  34100  288.55 0855.27
2009/04/23 09:40:46.5     132   -363     77    387    395 159.9  11.3  34100  288.55 0855.27
2009/04/23 09:40:46.6     160   -326    114    364    382 153.8  17.4  34104  288.64 0855.27
2009/04/23 09:40:46.7     151   -305    104    341    357 153.7  17.0  34102  288.59 0855.27
2009/04/23 09:40:46.8     132   -290    101    319    335 155.5  17.7  34102  288.59 0855.27
2009/04/23 09:40:46.9     112   -237    107    263    283 154.7  23.1  34104  288.61 0855.27
2009/04/23 09:40:47.0     125   -191     98    229    249 146.8  24.6  34106  288.65 0855.27
2009/04/23 09:40:47.1      98   -197    196    221    295 153.5  45.9  34104  288.63 0855.27
2009/04/23 09:40:47.2      71    -47    145     86    168 123.3  66.8  34112  288.77 0855.27
2009/04/23 09:40:47.3     251    -38    163    254    301  98.8  35.6  34106  288.66 0855.32
2009/04/23 09:40:47.4     120    -24    163    123    204 101.5  59.2  34110  288.72 0855.32
2009/04/23 09:40:47.5      93     -4    121     94    153  93.0  58.5  34110  288.74 0855.32
2009/04/23 09:40:47.6      65      2    112     66    130  87.4  66.8  34112  288.75 0855.32
2009/04/23 09:40:47.7      73    -24     53     77     93 108.2  37.6  34106  288.67 0855.32
2009/04/23 09:40:47.8      83    -77     62    114    129 132.7  31.3  34104  288.64 0855.32
2009/04/23 09:40:47.9      88    -73     51    115    125 129.5  25.2  34104  288.64 0855.32
2009/04/23 09:40:48.0      48    -75     40     90     98 147.4  25.7  34106  288.65 0855.32
2009/04/23 09:40:48.1      74    -94     37    120    126 141.7  17.3  34106  288.65 0855.32
2009/04/23 09:40:48.2     166    -43     61    172    183 104.8  19.6  34104  288.64 0855.32
2009/04/23 09:40:48.3     133    -44     65    141    155 108.6  27.1  34104  288.64 0855.32
2009/04/23 09:40:48.4      33     32    132     46    139  45.9  80.7  34110  288.74 0855.32
2009/04/23 09:40:48.5      23     19     85     31     90  50.5  79.2  34120  288.89 0855.32
2009/04/23 09:40:48.6    -139     32    142    143    201 283.3  50.0  34110  288.74 0855.32
2009/04/23 09:40:48.7     -83    -77    153    114    190 226.9  59.8  34106  288.65 0855.32
2009/04/23 09:40:48.8      32    -91    166     97    192 160.4  67.0  34112  288.75 0855.32
2009/04/23 09:40:48.9       0   -125     99    126    160 180.4  42.2  34108  288.69 0855.32
2009/04/23 09:40:49.0     -33   -128    114    133    175 194.7  44.8  34108  288.69 0855.32
2009/04/23 09:40:49.1      60   -180    109    190    219 161.5  32.4  34106  288.65 0855.32
2009/04/23 09:40:49.2     102   -199    108    224    248 152.9  27.4  34110  288.73 0855.32
2009/04/23 09:40:49.3     111   -188    113    219    246 149.3  29.3  34108  288.68 0855.36
2009/04/23 09:40:49.4     115   -180    117    214    243 147.4  31.3  34110  288.71 0855.36
2009/04/23 09:40:49.5      87   -178    138    199    242 153.9  38.0  34112  288.75 0855.36
2009/04/23 09:40:49.6      15   -187    142    188    235 175.3  40.9  34112  288.75 0855.36
2009/04/23 09:40:49.7      47   -139    150    147    210 161.3  50.2  34112  288.77 0855.36
2009/04/23 09:40:49.8      66    -90    127    112    169 143.9  54.3  34110  288.72 0855.36
2009/04/23 09:40:49.9      67   -130    119    147    189 152.8  43.5  34116  288.82 0855.36
2009/04/23 09:40:50.0      37   -139    163    145    218 164.8  53.7  34114  288.79 0855.36
2009/04/23 09:40:50.1      61   -186    164    196    255 161.7  44.1  34118  288.85 0855.36
2009/04/23 09:40:50.2      40   -160    178    166    243 165.7  52.1  34120  288.89 0855.36
2009/04/23 09:40:50.3       9   -118    171    119    208 175.5  62.1  34114  288.80 0855.36
2009/04/23 09:40:50.4      52   -155    134    164    211 161.3  43.7  34112  288.77 0855.36
2009/04/23 09:40:50.5      33   -105     92    111    144 162.6  43.7  34112  288.77 0855.36
2009/04/23 09:40:50.6      64   -136    111    151    187 154.5  39.9  34112  288.75 0855.36
2009/04/23 09:40:50.7      -1   -149    155    150    215 180.5  50.7  34112  288.75 0855.36
2009/04/23 09:40:50.8      -1   -126     94    127    158 180.5  40.1  34112  288.75 0855.36
2009/04/23 09:40:50.9      12   -159    148    160    217 175.6  47.9  34110  288.74 0855.36
2009/04/23 09:40:51.0     -33   -149    158    153    219 192.5  50.9  34110  288.74 0855.36
2009/04/23 09:40:51.1      29   -210    159    213    265 172.0  40.6  34112  288.76 0855.36
2009/04/23 09:40:51.2      29   -202    111    205    233 171.8  31.3  34112  288.77 0855.36
2009/04/23 09:40:51.3      33   -218    148    221    265 171.3  36.7  34116  288.81 0855.32
2009/04/23 09:40:51.4     -16   -259    133    260    292 183.6  29.2  34112  288.76 0855.32
2009/04/23 09:40:51.5       0   -259    166    260    308 180.0  35.6  34106  288.66 0855.32
2009/04/23 09:40:51.6    -201   -156     45    255    260 232.3  10.0  34108  288.68 0855.32
2009/04/23 09:40:51.7    -177   -154     -9    235    236 228.9  -2.2  34104  288.63 0855.32
2009/04/23 09:40:51.8    -164   -277     97    322    337 210.7  16.8  34110  288.74 0855.32
2009/04/23 09:40:51.9     -72   -230    116    242    268 197.4  27.3  34112  288.75 0855.32
2009/04/23 09:40:52.0    -106   -162     87    194    212 213.2  25.7  34108  288.70 0855.32
2009/04/23 09:40:52.1    -246    -93     22    264    266 249.2   4.9  34110  288.71 0855.32
2009/04/23 09:40:52.2    -151    -43     15    157    158 254.1   5.7  34108  288.69 0855.32
2009/04/23 09:40:52.3    -213    -44    -65    218    228 258.3 -16.8  34108  288.69 0855.32
2009/04/23 09:40:52.4    -216    -19    -68    217    228 264.8 -17.6  34112  288.77 0855.32
2009/04/23 09:40:52.5    -178     28    -36    181    185 279.2 -11.3  34110  288.72 0855.32
2009/04/23 09:40:52.6    -184    112    -55    216    223 301.5 -14.3  34108  288.70 0855.32
2009/04/23 09:40:52.7     -58    146   -109    158    191 338.2 -42.2  34106  288.65 0855.32
2009/04/23 09:40:52.8    -143    182   -243    232    335 321.7 -56.0  34088  288.36 0855.32
2009/04/23 09:40:52.9     -87    239   -224    255    339 340.0 -50.2  34104  288.63 0855.32
2009/04/23 09:40:53.0      97    223   -180    244    303  23.6 -44.3  34104  288.63 0855.32
2009/04/23 09:40:53.1     230    280   -135    363    387  39.4 -25.7  34106  288.67 0855.32
2009/04/23 09:40:53.2     259    -26    107    261    282  95.9  23.4  34118  288.87 0855.32
2009/04/23 09:40:53.3     256   -213     81    334    344 129.8  13.7  34120  288.89 0855.36
2009/04/23 09:40:53.4     103   -201     89    226    242 152.8  22.5  34112  288.75 0855.36
2009/04/23 09:40:53.5      73   -272   -120    282    306 164.8 -29.0  34114  288.78 0855.36
2009/04/23 09:40:53.6      71   -297     12    306    307 166.4   2.3  34098  288.53 0855.36
2009/04/23 09:40:53.7      70   -337    167    345    383 168.2  27.4  34120  288.88 0855.36
2009/04/23 09:40:53.8      72   -116    216    137    255 147.9  64.7  34122  288.94 0855.36
2009/04/23 09:40:53.9     -54   -252     70    258    268 192.3  15.2  34118  288.87 0855.36
2009/04/23 09:40:54.0     -65   -378    -21    384    385 189.8  -3.1  34104  288.64 0855.36
2009/04/23 09:40:54.1      39   -380     76    383    391 174.0  11.3  34110  288.74 0855.36
2009/04/23 09:40:54.2      23   -327    236    328    404 175.9  39.3  34116  288.81 0855.36
2009/04/23 09:40:54.3     128   -202    259    240    353 147.7  52.5  34118  288.87 0855.36
2009/04/23 09:40:54.4    -143   -496    170    517    545 196.1  18.2  34118  288.85 0855.36
2009/04/23 09:40:54.5    -106   -501    182    513    545 192.0  19.6  34108  288.70 0855.36
2009/04/23 09:40:54.6      10   -491    231    492    543 178.7  27.1  34114  288.80 0855.36
2009/04/23 09:40:54.7      65   -420    231    425    483 171.2  30.9  34116  288.84 0855.36
2009/04/23 09:40:54.8      -1   -360    191    361    408 180.3  30.2  34114  288.79 0855.36
2009/04/23 09:40:54.9     -24   -251    111    253    276 185.6  25.2  34120  288.90 0855.36
2009/04/23 09:40:55.0     -83   -251    122    265    291 198.3  26.4  34118  288.85 0855.36
2009/04/23 09:40:55.1     -92   -235    107    253    274 201.4  24.3  34116  288.81 0855.36
2009/04/23 09:40:55.2     -47   -234    165    239    290 191.5  37.6  34114  288.80 0855.36
2009/04/23 09:40:55.3      26   -142    209    145    254 169.3  61.7  34124  288.96 0855.37
2009/04/23 09:40:55.4      29   -169    193    172    258 170.0  53.5  34122  288.93 0855.37
2009/04/23 09:40:55.5      72    -24    131     77    151 108.6  66.8  34124  288.97 0855.37
2009/04/23 09:40:55.6       6    -30    122     31    125 168.4  85.9  34124  288.97 0855.37
2009/04/23 09:40:55.7      36    -12    152     38    156 108.6  86.2  34124  288.97 0855.37
2009/04/23 09:40:55.8      52    -65    186     84    204 141.3  74.2  34110  288.74 0855.37
2009/04/23 09:40:55.9     174    -25    268    176    320  98.4  63.7  34112  288.75 0855.37
2009/04/23 09:40:56.1     197     -2    233    198    305  90.8  55.6  34114  288.78 0855.37
2009/04/23 09:40:56.1     211    136    171    252    304  57.1  37.6  34120  288.90 0855.37
2009/04/23 09:40:56.2     360    360    183    510    541  45.0  20.4  34108  288.70 0855.37
2009/04/23 09:40:56.4     300    374    270    480    550  38.7  32.0  34122  288.94 0855.37
2009/04/23 09:40:56.5     316    445      0    547    548  35.4   0.1  34118  288.85 0855.37
2009/04/23 09:40:56.6     426    366     63    562    566  49.3   6.5  34126  289.01 0855.37
2009/04/23 09:40:56.7     330    300    197    447    488  47.7  25.3  34130  289.05 0855.37
2009/04/23 09:40:56.8     487    249    207    547    584  62.9  21.7  34120  288.90 0855.37
2009/04/23 09:40:56.9     448    231     79    505    512  62.7   8.9  34118  288.86 0855.37
2009/04/23 09:40:57.0     464     94     27    474    475  78.5   3.3  34124  288.96 0855.37
2009/04/23 09:40:57.1     315    -13    131    316    342  92.5  23.8  34120  288.89 0855.37
2009/04/23 09:40:57.2     131    131    -29    186    189  45.0  -9.0  34122  288.92 0855.37
2009/04/23 09:40:57.3     240    112      3    265    266  64.9   0.8  34124  288.95 0855.37
2009/04/23 09:40:57.4     173    -15    222    174    282  95.0  58.4  34124  288.97 0855.29
2009/04/23 09:40:57.5     255   -154    217    299    369 121.1  39.5  34120  288.88 0855.29
2009/04/23 09:40:57.6     332   -321    121    463    479 134.0  14.7  34114  288.78 0855.29
2009/04/23 09:40:57.7     288   -115    229    311    386 111.8  39.9  34120  288.91 0855.29
2009/04/23 09:40:57.8     480    -19    460    481    665  92.3  48.6  34124  288.95 0855.29
2009/04/23 09:40:57.9     365    -27    366    366    517  94.4  50.1  34126  289.01 0855.29
2009/04/23 09:40:58.0     352    -99    300    366    473 105.8  43.6  34122  288.92 0855.29
2009/04/23 09:40:58.1     342    -47    338    346    483  97.9  49.4  34126  288.99 0855.29
2009/04/23 09:40:58.2     278    -32    294    280    406  96.6  51.5  34122  288.94 0855.29
2009/04/23 09:40:58.3     262    -55    136    268    300 101.9  29.2  34124  288.97 0855.29
2009/04/23 09:40:58.4     261    -16    156    262    304  93.5  33.5  34126  288.98 0855.29
2009/04/23 09:40:58.5     162     -4    108    163    195  91.5  36.7  34122  288.94 0855.29
2009/04/23 09:40:58.6     111     53    170    124    210  64.2  60.5  34122  288.92 0855.29
2009/04/23 09:40:58.7     139    117    139    182    229  49.8  41.4  34128  289.02 0855.29
2009/04/23 09:40:58.8     111    141    118    180    215  38.3  36.3  34126  289.01 0855.29
2009/04/23 09:40:58.9     147     89    174    173    245  58.7  50.1  34122  288.92 0855.29
2009/04/23 09:40:59.0      53     86    169    102    197  31.6  66.4  34122  288.94 0855.29
2009/04/23 09:40:59.1      10    137    133    138    191   4.5  49.0  34126  288.99 0855.29
2009/04/23 09:40:59.2     103     85    162    134    210  50.5  56.3  34130  289.06 0855.29
2009/04/23 09:40:59.3     128    120    131    176    219  46.7  40.1  34126  289.01 0855.29
2009/04/23 09:40:59.4      41      5    129     42    135  82.1  80.7  34134  289.13 0855.30
2009/04/23 09:40:59.5      32     67    134     75    153  25.5  68.8  34134  289.13 0855.30
2009/04/23 09:40:59.6      64     50    131     82    154  51.8  64.7  34132  289.09 0855.30
2009/04/23 09:40:59.7      28    167     68    170    183   9.6  23.0  34166  289.67 0855.30
2009/04/23 09:40:59.8      37    258    103    261    280   8.2  23.0  34224  290.65 0855.30
2009/04/23 09:40:59.9      47    258     34    263    266  10.5   7.5  34200  290.26 0855.30
2009/04/23 09:41:00.0      19    305      9    306    307   3.6   1.7  34198  290.20 0855.30
2009/04/23 09:41:00.1       0    226     37    227    231   0.0   9.3  34206  290.36 0855.30
2009/04/23 09:41:00.2     -18    239     89    240    255 355.5  21.0  34216  290.51 0855.30
2009/04/23 09:41:00.3    -100    262     65    281    289 339.1  13.1  34224  290.65 0855.30
2009/04/23 09:41:00.4    -342    251   -125    425    443 306.3 -16.4  34126  288.99 0855.34
2009/04/23 09:41:00.5    -220    395     18    453    454 330.9   2.3  34158  289.55 0855.34
2009/04/23 09:41:00.6    -137    248      8    284    285 331.0   1.7  34206  290.36 0855.34
2009/04/23 09:41:00.7      50    197    -69    204    215  14.3 -23.3  34212  290.47 0855.34
2009/04/23 09:41:00.8     208    164    112    266    288  51.8  24.2  34202  290.27 0855.34
2009/04/23 09:41:00.9      57    104    165    119    203  29.0  60.6  34212  290.47 0855.34
2009/04/23 09:41:01.0      53    177    140    185    232  16.7  40.9  34212  290.45 0855.34
2009/04/23 09:41:01.1      81    242     79    256    269  18.5  17.3  34196  290.17 0855.34
2009/04/23 09:41:01.2      21    215     34    217    220   5.8   8.9  34206  290.36 0855.34
2009/04/23 09:41:01.3       0    177     18    178    179   0.2   5.9  34202  290.30 0855.34
2009/04/23 09:41:01.4     -50    106    -13    118    119 334.6  -6.7  34198  290.21 0855.34
2009/04/23 09:41:01.5      36    135      2    140    141  15.2   0.8  34192  290.13 0855.34
2009/04/23 09:41:01.6     198    191    108    276    296  46.0  22.8  34174  289.80 0855.34
2009/04/23 09:41:01.7     130    190    -46    231    236  34.3 -11.5  34192  290.12 0855.34
2009/04/23 09:41:01.8     108    218    -28    244    246  26.3  -6.7  34184  289.98 0855.34
2009/04/23 09:41:01.9     219    198    -59    296    302  47.8 -11.3  34174  289.81 0855.34
2009/04/23 09:41:02.0     244    193     -2    312    313  51.6  -0.4  34178  289.86 0855.34
2009/04/23 09:41:02.1     262    245      3    359    360  46.9   0.5  34180  289.91 0855.34
2009/04/23 09:41:02.2     262    327     -9    420    421  38.7  -1.3  34144  289.29 0855.34
2009/04/23 09:41:02.3     365    239    -67    437    443  56.7  -8.7  34150  289.41 0855.34
2009/04/23 09:41:02.4     378    168     81    414    422  66.0  11.1  34132  289.09 0855.36
2009/04/23 09:41:02.5     282     45    346    286    448  80.8  56.3  34126  289.00 0855.36
2009/04/23 09:41:02.6     299    115    321    321    453  68.9  50.1  34146  289.34 0855.36
2009/04/23 09:41:02.7     156    144    274    213    347  47.3  58.3  34164  289.63 0855.36
2009/04/23 09:41:02.8      53     78    254     95    271  34.3  79.1  34154  289.46 0855.36
2009/04/23 09:41:02.9     205     48    159    211    264  76.7  40.7  34162  289.59 0855.36
2009/04/23 09:41:03.0     -24     50    115     56    127 334.6  72.8  34136  289.18 0855.36
2009/04/23 09:41:03.1    -127    147     86    195    213 319.0  25.2  34136  289.16 0855.36
2009/04/23 09:41:03.2       0    197     28    198    201   0.2   8.2  34142  289.26 0855.36
2009/04/23 09:41:03.3      84    211     11    228    229  21.9   2.9  34158  289.55 0855.36
2009/04/23 09:41:03.4      94    232     30    251    253  22.1   6.9  34174  289.81 0855.36
2009/04/23 09:41:03.5      67    173     19    186    188  21.4   6.1  34180  289.91 0855.36
2009/04/23 09:41:03.6      88    149     89    174    195  30.5  29.1  34186  290.02 0855.36
2009/04/23 09:41:03.7      56    123    129    136    187  24.5  48.2  34194  290.16 0855.36
2009/04/23 09:41:03.8       7     63    135     64    149   7.1  72.9  34174  289.80 0855.36
2009/04/23 09:41:03.9     -27    -14    155     31    158 242.9  89.0  34164  289.63 0855.36
2009/04/23 09:41:04.0      61     40    134     73    152  56.7  68.9  34178  289.87 0855.36
2009/04/23 09:41:04.1     166     63    127    178    218  68.9  39.3  34182  289.96 0855.36
2009/04/23 09:41:04.2      52    -67    108     86    138 142.2  56.9  34182  289.94 0855.36
2009/04/23 09:41:04.3     144    -60    108    157    190 112.6  37.8  34176  289.85 0855.36
2009/04/23 09:41:04.4     -11    -60    128     62    142 190.7  72.8  34178  289.89 0855.38
2009/04/23 09:41:04.5    -114    -19    145    116    185 260.3  56.9  34170  289.74 0855.38
2009/04/23 09:41:04.6     -91     12     92     92    130 277.9  50.1  34160  289.57 0855.38
2009/04/23 09:41:04.7     -32     59    186     68    198 331.1  79.2  34172  289.79 0855.38
2009/04/23 09:41:04.8      -7    -55    172     56    180 188.0  81.0  34168  289.70 0855.38
2009/04/23 09:41:04.9     -25    -30    188     40    192 219.6  88.8  34162  289.62 0855.38
2009/04/23 09:41:05.0     -15     64    154     66    167 346.6  75.5  34160  289.58 0855.38
2009/04/23 09:41:05.1     -97     54    132    112    173 299.3  55.4  34158  289.53 0855.38
2009/04/23 09:41:05.2    -119    -39    158    126    202 251.6  57.5  34156  289.52 0855.38
2009/04/23 09:41:05.3     -63     99    156    118    195 327.4  59.0  34148  289.36 0855.38
2009/04/23 09:41:05.4    -195     37    132    199    238 281.0  36.5  34138  289.21 0855.38
2009/04/23 09:41:05.5    -190     45    156    196    250 283.5  42.7  34140  289.22 0855.38
2009/04/23 09:41:05.6    -223     81    150    238    281 290.0  35.5  34138  289.19 0855.38
2009/04/23 09:41:05.7    -334     67    117    341    361 281.5  19.1  34132  289.10 0855.38
2009/04/23 09:41:05.8    -359    105    109    375    391 286.4  16.3  34134  289.13 0855.38
2009/04/23 09:41:05.9    -367     97    148    380    407 284.9  22.3  34132  289.11 0855.38
2009/04/23 09:41:06.0    -360    -42     99    363    377 263.2  15.3  34136  289.16 0855.38
2009/04/23 09:41:06.1    -317    -54    148    322    354 260.3  26.4  34138  289.21 0855.38
2009/04/23 09:41:06.2    -278      3    156    279    319 270.8  31.6  34128  289.03 0855.38
2009/04/23 09:41:06.3    -300    107    127    319    343 289.7  23.0  34132  289.10 0855.38
2009/04/23 09:41:06.4    -292    116     81    315    326 291.7  14.5  34134  289.12 0855.37
2009/04/23 09:41:06.5    -291    116      5    314    315 291.7   1.0  34136  289.15 0855.37
2009/04/23 09:41:06.6    -277    121    -58    303    309 293.6 -11.0  34148  289.36 0855.37
2009/04/23 09:41:06.7    -357     81   -104    367    381 282.9 -20.3  34150  289.40 0855.37
2009/04/23 09:41:06.8    -254    184     57    314    320 306.0  10.4  34138  289.20 0855.37
2009/04/23 09:41:06.9    -217    137     63    257    265 302.4  13.9  34142  289.25 0855.37
2009/04/23 09:41:07.0    -231    140     40    271    275 301.3   8.5  34136  289.15 0855.37
2009/04/23 09:41:07.1    -236    103      3    258    259 293.7   0.7  34138  289.20 0855.37
2009/04/23 09:41:07.2    -150     99    -45    180    186 303.5 -14.3  34138  289.21 0855.37
2009/04/23 09:41:07.3    -151     40    -44    157    163 285.0 -20.4  34140  289.23 0855.37
2009/04/23 09:41:07.4    -131    -13    -51    132    141 263.9 -26.9  34136  289.16 0855.37
2009/04/23 09:41:07.5     -76     92    -93    120    151 320.3 -46.1  34134  289.13 0855.37
2009/04/23 09:41:07.6    -114    107   -115    157    194 313.2 -44.1  34134  289.14 0855.37
2009/04/23 09:41:07.7    -114    114   -101    162    190 315.0 -39.6  34140  289.23 0855.37
2009/04/23 09:41:07.8     -16     97    -91     99    134 350.7 -52.3  34144  289.31 0855.37
2009/04/23 09:41:07.9      -2     81    -99     82    128 358.2 -60.7  34150  289.40 0855.37
2009/04/23 09:41:08.0      36      7   -100     37    106  78.5 -84.1  34142  289.28 0855.37
2009/04/23 09:41:08.1     -39   -112    -95    119    152 199.6 -48.1  34140  289.24 0855.37
2009/04/23 09:41:08.2     -52    -83     20     99    102 212.1  11.6  34138  289.19 0855.37
2009/04/23 09:41:08.3    -176     13   -107    177    206 274.4 -38.6  34130  289.08 0855.37
2009/04/23 09:41:08.4    -130     56    -65    142    156 293.5 -31.0  34136  289.16 0855.35
2009/04/23 09:41:08.5     -95     83    -70    127    145 310.9 -35.8  34124  288.97 0855.35
2009/04/23 09:41:08.6    -416    -49   -120    419    435 263.2 -20.8  34110  288.72 0855.35
2009/04/23 09:41:08.7    -342    -36   -104    344    360 263.9 -16.9  34104  288.62 0855.35
2009/04/23 09:41:08.8    -422     44   -134    425    446 276.1 -17.6  34088  288.36 0855.35
2009/04/23 09:41:08.9    -456     81   -191    464    501 280.1 -28.0  34090  288.39 0855.35
2009/04/23 09:41:09.0    -466    127   -162    484    511 285.3 -18.6  34118  288.86 0855.35
2009/04/23 09:41:09.1    -414    138   -135    437    457 288.5 -22.2  34084  288.29 0855.35
2009/04/23 09:41:09.2    -358     94   -107    371    386 284.7 -20.9  34090  288.38 0855.35
2009/04/23 09:41:09.3    -323     33   -115    325    345 275.9 -19.5  34114  288.79 0855.35
2009/04/23 09:41:09.4    -294      0   -195    295    353 270.1 -41.0  34102  288.59 0855.35
2009/04/23 09:41:09.5    -159     -6    -97    160    187 267.5 -38.6  34116  288.84 0855.35
2009/04/23 09:41:09.6    -113    -38    -53    120    131 251.4 -29.6  34128  289.02 0855.35
2009/04/23 09:41:09.7    -159     -2     26    160    163 269.1   9.3  34126  289.01 0855.35
2009/04/23 09:41:09.8    -110    -16    -25    112    115 261.6 -12.9  34132  289.11 0855.35
2009/04/23 09:41:09.9     -48     82    -12     96     97 329.7  -7.3  34134  289.14 0855.35
2009/04/23 09:41:10.0    -130     83    -33    155    159 302.4 -12.2  34128  289.04 0855.35
2009/04/23 09:41:10.1    -289     83   -107    301    319 286.2 -24.7  34116  288.81 0855.35
2009/04/23 09:41:10.2    -285    147   -146    321    352 297.4 -30.6  34100  288.57 0855.35
2009/04/23 09:41:10.3    -289     95   -131    305    331 288.2 -29.2  34106  288.65 0855.35
2009/04/23 09:41:10.4    -222    175   -113    283    304 308.2 -27.4  34098  288.51 0855.36
2009/04/23 09:41:10.5    -289     93   -152    304    339 287.9 -32.9  34112  288.76 0855.36
2009/04/23 09:41:10.6    -395     17   -103    396    410 272.5 -14.6  34104  288.63 0855.36
2009/04/23 09:41:10.7    -430     96    -78    441    449 282.7 -10.1  34098  288.53 0855.36
2009/04/23 09:41:10.8    -387     85    -85    397    407 282.5 -12.2  34098  288.51 0855.36
2009/04/23 09:41:10.9    -378     23   -109    379    394 273.5 -20.8  34094  288.47 0855.36
2009/04/23 09:41:11.0    -357    155   -139    390    415 293.5 -19.7  34086  288.31 0855.36
2009/04/23 09:41:11.1    -384     14   -119    385    404 272.1 -17.2  34108  288.69 0855.36
2009/04/23 09:41:11.2    -431    164   -136    462    482 290.8 -16.4  34108  288.69 0855.36
2009/04/23 09:41:11.3    -491    139   -131    511    528 285.8 -14.4  34116  288.84 0855.36
2009/04/23 09:41:11.4    -438    143   -159    461    488 288.2 -19.1  34106  288.66 0855.36
2009/04/23 09:41:11.5    -351     -5   -148    352    381 269.1 -28.6  34114  288.79 0855.36
2009/04/23 09:41:11.6    -322    101   -125    338    360 287.5 -25.4  34110  288.71 0855.36
2009/04/23 09:41:11.7    -336     99   -141    351    378 286.4 -27.4  34102  288.60 0855.36
2009/04/23 09:41:11.8    -245     61   -136    253    287 284.2 -35.0  34108  288.68 0855.36
2009/04/23 09:41:11.9    -260     64   -147    268    305 283.9 -35.7  34114  288.78 0855.36
2009/04/23 09:41:12.0    -382     93    -35    394    396 283.8  -5.1  34108  288.69 0855.36
2009/04/23 09:41:12.1    -295     89    101    309    326 286.8  18.2  34114  288.80 0855.36
2009/04/23 09:41:12.2    -328    114    113    348    366 289.2  18.0  34110  288.74 0855.36
2009/04/23 09:41:12.3    -485    -33     -3    487    488 266.1  -0.4  34114  288.79 0855.36
2009/04/23 09:41:12.4    -490    151    -35    513    515 287.2  -3.9  34108  288.69 0855.36
2009/04/23 09:41:12.5    -392     78     62    400    405 281.4   8.8  34132  289.11 0855.36
2009/04/23 09:41:12.6    -477    204     10    519    520 293.2   1.1  34108  288.70 0855.36
2009/04/23 09:41:12.7    -584    -67   -153    588    608 263.4 -14.6  34122  288.93 0855.36
2009/04/23 09:41:12.8    -202    335     70    392    399 329.0  10.1  34130  289.08 0855.36
2009/04/23 09:41:12.9     -96    394     26    406    407 346.3   3.8  34124  288.97 0855.36
2009/04/23 09:41:13.0    -148    218     54    264    270 325.8  11.6  34120  288.90 0855.36
2009/04/23 09:41:13.1    -309    172     20    354    355 299.1   3.3  34116  288.81 0855.36
2009/04/23 09:41:13.2    -241    266     60    360    365 317.8   9.5  34116  288.82 0855.36
2009/04/23 09:41:13.3    -323    371    -32    493    494 319.0  -3.7  34142  289.28 0855.36
2009/04/23 09:41:13.4    -402    266    -79    483    490 303.5  -9.4  34186  290.01 0855.36
2009/04/23 09:41:13.5    -292    295    -62    416    421 315.4  -8.6  34146  289.33 0855.36
2009/04/23 09:41:13.6    -394    492   -121    631    643 321.3 -10.9  34160  289.57 0855.36
2009/04/23 09:41:13.7    -304    320   -125    442    459 316.5 -20.5  34124  288.97 0855.36
2009/04/23 09:41:13.8    -370    217   -203    429    474 300.4 -31.5  34108  288.70 0855.36
2009/04/23 09:41:13.9    -378    205   -145    431    454 298.5 -23.5  34144  289.31 0855.36
2009/04/23 09:41:14.0    -287    207   -117    355    374 305.9 -18.3  34128  289.04 0855.36
2009/04/23 09:41:14.1    -359    209   -126    416    435 300.3 -16.9  34144  289.29 0855.36
2009/04/23 09:41:14.2    -319    175   -206    364    418 298.8 -36.5  34110  288.71 0855.36
2009/04/23 09:41:14.3    -336    116   -156    356    388 289.1 -29.6  34138  289.21 0855.36
2009/04/23 09:41:14.4    -300    215   -193    370    417 305.6 -34.2  34110  288.72 0855.38
2009/04/23 09:41:14.5    -227    245    -81    335    345 317.2 -13.7  34120  288.89 0855.38
2009/04/23 09:41:14.6    -232    407    -22    469    470 330.3  -2.8  34126  289.00 0855.38
2009/04/23 09:41:14.7    -119    331    -32    352    354 340.2  -5.2  34122  288.93 0855.38
2009/04/23 09:41:14.8     -52    224     11    231    232 346.9   2.9  34142  289.26 0855.38
2009/04/23 09:41:14.9      47    171     35    178    182  15.4  11.1  34148  289.38 0855.38
2009/04/23 09:41:15.0      63    139     57    153    163  24.5  21.3  34132  289.09 0855.38
2009/04/23 09:41:15.1      84    156    172    178    247  28.3  49.0  34142  289.26 0855.38
2009/04/23 09:41:15.2       3     47    214     48    219   4.5  87.7  34170  289.75 0855.38
2009/04/23 09:41:15.3     -21    -66    158     70    172 198.3  74.8  34170  289.75 0855.38
2009/04/23 09:41:15.4     -69    -74    131    102    166 222.8  58.2  34166  289.69 0855.38
2009/04/23 09:41:15.5     -39     63    153     75    170 328.4  72.1  34144  289.30 0855.38
2009/04/23 09:41:15.6     -27     69    106     75    129 338.2  61.5  34146  289.33 0855.38
2009/04/23 09:41:15.7       6     51    125     52    135   7.1  76.6  34142  289.28 0855.38
2009/04/23 09:41:15.8    -111     66    121    130    177 300.7  47.9  34142  289.26 0855.38
2009/04/23 09:41:15.9    -204     39    121    208    240 280.8  32.7  34138  289.21 0855.38
2009/04/23 09:41:16.0    -139      1     32    140    144 270.8  13.2  34146  289.33 0855.38
2009/04/23 09:41:16.1    -127    -45     83    135    158 250.5  34.4  34144  289.31 0855.38
2009/04/23 09:41:16.2    -145     58     56    157    166 291.7  20.2  34138  289.21 0855.38
2009/04/23 09:41:16.3    -118    140     43    184    190 319.7  13.2  34140  289.24 0855.38
2009/04/23 09:41:16.4    -108     89     31    140    144 309.5  12.6  34148  289.36 0855.40
2009/04/23 09:41:16.5    -120    120     49    170    178 315.0  16.3  34142  289.28 0855.40
2009/04/23 09:41:16.6    -160    103     82    191    207 302.9  24.9  34142  289.26 0855.40
2009/04/23 09:41:16.7     -71     63     11     96     97 311.8   6.9  34142  289.28 0855.40
2009/04/23 09:41:16.8     -55      0     47     56     73 270.0  43.8  34154  289.46 0855.40
2009/04/23 09:41:16.9     -88     83     84    122    148 313.2  37.6  34142  289.26 0855.40
2009/04/23 09:41:17.0    -141    143    127    201    237 315.5  35.5  34152  289.43 0855.40
2009/04/23 09:41:17.1    -225     84     56    241    248 290.6  13.2  34150  289.39 0855.40
2009/04/23 09:41:17.2    -236     66     -1    246    247 285.7  -0.3  34148  289.37 0855.40
2009/04/23 09:41:17.3    -204     64    -17    214    215 287.5  -4.6  34146  289.35 0855.40
2009/04/23 09:41:17.4    -186     -3    -55    187    194 269.0 -21.7  34144  289.31 0855.40
2009/04/23 09:41:17.5    -154     17    -83    156    176 276.6 -34.7  34144  289.30 0855.40
2009/04/23 09:41:17.6    -213     78    -55    228    235 290.2 -13.7  34144  289.30 0855.40
2009/04/23 09:41:17.7    -234    106    -29    257    259 294.4  -6.5  34144  289.29 0855.40
2009/04/23 09:41:17.8    -298     34    -98    300    315 276.6 -23.2  34108  288.68 0855.40
2009/04/23 09:41:17.9    -344     65    -29    351    353 280.7  -4.9  34120  288.91 0855.40
2009/04/23 09:41:18.0    -374     87   -158    385    416 283.2 -27.9  34122  288.94 0855.40
2009/04/23 09:41:18.1    -292    -68    -24    300    301 256.8  -4.6  34126  289.00 0855.40
2009/04/23 09:41:18.2    -157   -102     -4    188    189 237.1  -1.3  34134  289.14 0855.40
2009/04/23 09:41:18.3    -160    -84     63    181    192 242.2  19.2  34134  289.13 0855.40
2009/04/23 09:41:18.4     -78     23    -24     82     86 286.8 -16.6  34132  289.11 0855.39
2009/04/23 09:41:18.5     -85   -178     31    198    201 205.5   9.0  34140  289.23 0855.39
2009/04/23 09:41:18.6    -205   -217    109    299    318 223.3  21.0  34142  289.27 0855.39
2009/04/23 09:41:18.7    -178   -209     80    275    287 220.5  16.3  34144  289.29 0855.39
2009/04/23 09:41:18.8    -192   -248    155    314    350 217.8  28.0  34142  289.25 0855.39
2009/04/23 09:41:18.9    -296    -95    -84    311    323 252.2 -15.2  34128  289.02 0855.39
2009/04/23 09:41:19.0    -369   -115    -70    387    394 252.7 -10.3  34122  288.94 0855.39
2009/04/23 09:41:19.1    -316    -84   -108    327    345 255.1 -18.3  34138  289.20 0855.39
2009/04/23 09:41:19.2    -208    -56    -68    216    227 254.9 -17.6  34138  289.21 0855.39
2009/04/23 09:41:19.3    -283    -33    -85    285    298 263.2 -16.6  34144  289.31 0855.39
2009/04/23 09:41:19.4    -366    -72    -35    374    376 258.8  -5.4  34142  289.26 0855.39
2009/04/23 09:41:19.5    -402   -103    -39    416    418 255.6  -5.4  34134  289.14 0855.39
2009/04/23 09:41:19.6    -406    -74   -131    413    434 259.6 -17.6  34130  289.07 0855.39
2009/04/23 09:41:19.7    -349    -56   -112    354    371 260.9 -22.6  34130  289.08 0855.39
2009/04/23 09:41:19.8    -327   -110   -121    346    367 251.4 -19.3  34128  289.03 0855.39
2009/04/23 09:41:19.9    -322    -34   -110    324    343 263.9 -18.8  34132  289.11 0855.39
2009/04/23 09:41:20.0    -352    -65   -137    358    383 259.5 -26.4  34122  288.94 0855.39
2009/04/23 09:41:20.1    -352   -145   -174    381    418 247.6 -30.6  34114  288.80 0855.39
2009/04/23 09:41:20.2    -324   -156   -172    360    398 244.3 -31.7  34114  288.79 0855.39
2009/04/23 09:41:20.3    -231     13     57    232    240 273.3  13.9  34114  288.78 0855.39
2009/04/23 09:41:20.4    -215     85    -72    232    242 291.7 -22.5  34118  288.87 0855.39
2009/04/23 09:41:20.5    -155    168    -77    229    242 317.2 -18.7  34114  288.78 0855.39
2009/04/23 09:41:20.6    -253    112    137    277    309 294.0  28.2  34130  289.07 0855.39
2009/04/23 09:41:20.7    -289    127     42    316    319 293.7   7.6  34120  288.90 0855.39
2009/04/23 09:41:20.8    -282      0     94    283    299 270.1  18.5  34122  288.92 0855.39
2009/04/23 09:41:20.9    -148   -108    101    184    209 233.8  31.3  34126  289.01 0855.39
2009/04/23 09:41:21.0    -115   -104    120    156    196 227.8  41.7  34120  288.89 0855.39
2009/04/23 09:41:21.1     -32    -64     66     72     97 207.2  47.9  34112  288.77 0855.39
2009/04/23 09:41:21.2     -46     93    -54    104    117 333.7 -33.7  34120  288.89 0855.39
2009/04/23 09:41:21.3     -70    104     11    126    127 325.7   5.4  34120  288.91 0855.39
2009/04/23 09:41:21.4     -86    -20     12     89     90 256.7   8.0  34122  288.92 0855.38
2009/04/23 09:41:21.5     -87    -69    -31    112    117 231.4 -15.4  34114  288.79 0855.38
2009/04/23 09:41:21.6       7    -19    -60     21     63 160.0 -85.6  34120  288.89 0855.38
2009/04/23 09:41:21.7      31    -36    -30     48     56 139.5 -39.9  34118  288.86 0855.38
2009/04/23 09:41:21.8      46    -38    -43     61     74 129.6 -43.0  34112  288.75 0855.38
2009/04/23 09:41:21.9     123    -69    -54    142    151 119.3 -25.9  34116  288.84 0855.38
2009/04/23 09:41:22.0      44   -110    -42    119    127 158.2 -19.7  34114  288.80 0855.38
2009/04/23 09:41:22.1      29   -125    -45    129    136 166.6 -23.3  34120  288.91 0855.38
2009/04/23 09:41:22.2      50    -93    -33    106    111 151.5 -22.3  34120  288.89 0855.38
2009/04/23 09:41:22.3      50    -87    -70    101    122 149.7 -42.4  34122  288.92 0855.38
2009/04/23 09:41:22.4     118    -60    -45    133    140 117.1 -23.3  34118  288.87 0855.38
2009/04/23 09:41:22.5      49   -158    -64    166    177 162.6 -26.7  34116  288.84 0855.38
2009/04/23 09:41:22.6      43   -156    -57    162    172 164.4 -19.4  34114  288.80 0855.38
2009/04/23 09:41:22.7      53   -160    -37    169    174 161.5 -12.4  34110  288.74 0855.38
2009/04/23 09:41:22.9     120   -142    -28    187    190 139.7  -8.6  34112  288.75 0855.38
2009/04/23 09:41:23.0     157   -140      1    211    212 131.6   0.5  34108  288.70 0855.38
2009/04/23 09:41:23.1     160    -98    -10    188    189 121.5  -3.1  34108  288.70 0855.38
2009/04/23 09:41:23.2     152    -51      7    161    162 108.6   2.8  34110  288.74 0855.38
2009/04/23 09:41:23.3     149    -30     52    152    161 101.5  18.9  34108  288.69 0855.38
2009/04/23 09:41:23.4     165    -15     40    166    171  95.2  13.7  34108  288.70 0855.38
2009/04/23 09:41:23.5     139    -66    -19    154    156 115.4  -7.2  34110  288.72 0855.39
2009/04/23 09:41:23.6     127   -114    -17    171    172 132.0  -6.0  34108  288.70 0855.39
2009/04/23 09:41:23.7     114   -113    -14    161    162 134.9  -5.2  34108  288.69 0855.39
2009/04/23 09:41:23.8      76   -168     21    185    187 155.7   6.7  34108  288.69 0855.39
2009/04/23 09:41:23.9     119   -187     17    222    223 147.5   4.4  34106  288.67 0855.39
2009/04/23 09:41:24.0     140   -284      0    317    318 153.7   0.1  34104  288.63 0855.39
2009/04/23 09:41:24.1     185   -180    -10    259    260 134.2  -2.2  34100  288.54 0855.39
2009/04/23 09:41:24.2     181   -159    -13    242    243 131.3  -3.1  34096  288.49 0855.39
2009/04/23 09:41:24.3     147   -229    -15    273    274 147.4  -3.3  34100  288.56 0855.39
2009/04/23 09:41:24.4     169   -229     14    285    286 143.5   2.9  34100  288.56 0855.39
2009/04/23 09:41:24.5      29   -339    -23    341    342 175.0  -3.9  34104  288.62 0855.39
2009/04/23 09:41:24.6      19   -312    -15    313    314 176.4  -2.8  34102  288.58 0855.39
2009/04/23 09:41:24.7      -7   -250     12    251    252 181.8   2.8  34104  288.63 0855.39
2009/04/23 09:41:24.8      18   -240     40    241    245 175.6   9.5  34102  288.59 0855.39
2009/04/23 09:41:24.9       1   -199     -6    200    201 179.5  -1.8  34100  288.57 0855.39
2009/04/23 09:41:25.0       0   -178     21    179    181 180.2   6.9  34100  288.57 0855.39
2009/04/23 09:41:25.1      28   -120     10    124    125 166.6   4.9  34102  288.58 0855.39
2009/04/23 09:41:25.2      74    -52     15     91     93 125.5   9.5  34100  288.57 0855.39
2009/04/23 09:41:25.3      78    -73     12    107    108 133.1   6.9  34104  288.62 0855.39
2009/04/23 09:41:25.4      57    -47     44     74     86 129.5  34.0  34100  288.57 0855.39
2009/04/23 09:41:25.5      37    -26     50     46     67 125.1  52.1  34102  288.58 0855.40
2009/04/23 09:41:25.6      52    -17     75     55     93 108.6  60.0  34102  288.60 0855.40
2009/04/23 09:41:25.7       0    -82    109     83    137 180.4  58.5  34102  288.60 0855.40
2009/04/23 09:41:25.8      -7    -99    140    100    172 184.5  61.3  34098  288.53 0855.40
2009/04/23 09:41:25.9     -15      1     90     16     91 274.3  90.0  34110  288.72 0855.40
2009/04/23 09:41:26.0       0    -40    122     41    128 180.0  81.0  34104  288.62 0855.40
2009/04/23 09:41:26.1     -10    -51    145     53    154 191.6  79.7  34104  288.62 0855.40
2009/04/23 09:41:26.2     -39    -44    118     60    132 221.4  71.0  34104  288.64 0855.40
2009/04/23 09:41:26.3     -68   -182    116    195    226 200.5  33.5  34094  288.45 0855.40
2009/04/23 09:41:26.4     -73   -132    108    152    186 209.0  39.3  34092  288.43 0855.40
2009/04/23 09:41:26.5    -142   -124     82    189    206 228.9  25.1  34096  288.50 0855.40
2009/04/23 09:41:26.6    -152   -118     30    193    196 232.0   8.9  34098  288.52 0855.40
2009/04/23 09:41:26.7    -165    -81     37    184    188 243.8  11.6  34098  288.53 0855.40
2009/04/23 09:41:26.8    -184   -110     31    215    218 239.1   8.2  34104  288.64 0855.40
2009/04/23 09:41:26.9    -194    -52     72    201    213 254.9  20.2  34104  288.64 0855.40
2009/04/23 09:41:27.0    -157    -74     78    174    190 244.5  25.9  34104  288.62 0855.40
2009/04/23 09:41:27.1    -172    -70    110    186    216 247.8  33.5  34096  288.50 0855.40
2009/04/23 09:41:27.2    -208    -96    139    230    268 245.2  34.2  34090  288.39 0855.40
2009/04/23 09:41:27.3    -285      6    -29    286    288 271.3  -6.0  34096  288.49 0855.40
2009/04/23 09:41:27.4    -251    242     15    349    350 313.9   2.5  34100  288.54 0855.40
2009/04/23 09:41:27.5     -11   -127    280    128    307 185.3  73.8  34102  288.58 0855.40
2009/04/23 09:41:27.6    -182   -145    -74    233    245 231.4 -17.6  34100  288.56 0855.40
2009/04/23 09:41:27.7    -224   -147    -14    269    270 236.7  -3.1  34102  288.59 0855.40
2009/04/23 09:41:27.8      11   -156    166    157    228 175.6  52.0  34096  288.48 0855.40
2009/04/23 09:41:27.9    -125   -111    134    168    214 228.4  43.0  34102  288.60 0855.40
2009/04/23 09:41:28.0    -120   -108     80    162    180 227.8  28.2  34102  288.58 0855.40
2009/04/23 09:41:28.1    -151   -207      3    257    258 216.1   0.8  34100  288.54 0855.40
2009/04/23 09:41:28.2    -134   -134    -36    190    194 225.1 -10.9  34104  288.62 0855.40
2009/04/23 09:41:28.3    -166   -106     -7    198    199 237.4  -2.3  34106  288.67 0855.40
2009/04/23 09:41:28.4    -181   -170     55    249    256 226.7  12.6  34112  288.76 0855.40
2009/04/23 09:41:28.5    -145     60    233    158    281 292.6  62.7  34118  288.85 0855.40
2009/04/23 09:41:28.6     -44    114    121    123    172 338.6  50.0  34106  288.67 0855.40
2009/04/23 09:41:28.7     -19     24     37     31     48 322.2  54.3  34108  288.70 0855.40
2009/04/23 09:41:28.8     -14    -54     46     56     72 195.1  43.8  34108  288.69 0855.40
2009/04/23 09:41:28.9      -5   -126     83    127    151 182.6  35.6  34102  288.60 0855.40
2009/04/23 09:41:29.0     -16    -26     89     31     94 212.5  81.2  34108  288.70 0855.40
2009/04/23 09:41:29.1     -32    -10     59     34     68 251.6  67.7  34112  288.77 0855.40
2009/04/23 09:41:29.2      17     -5     71     18     73 108.2  85.9  34118  288.86 0855.40
2009/04/23 09:41:29.3     -13      6     74     15     75 295.3  89.1  34116  288.84 0855.40
2009/04/23 09:41:29.4      -3     -3     44      5     44 226.7  90.0  34124  288.96 0855.40
2009/04/23 09:41:29.5       2     -3     43      4     43 147.5  90.0  34132  289.11 0855.42
2009/04/23 09:41:29.6      12      9     75     16     76  54.0  89.0  34136  289.18 0855.42
2009/04/23 09:41:29.7       0    -15     77     16     78 179.1  89.0  34136  289.18 0855.42
2009/04/23 09:41:29.8     -54   -111    107    124    163 205.9  45.6  34112  288.77 0855.42
2009/04/23 09:41:29.9     -16   -118     92    120    151 188.0  41.7  34114  288.80 0855.42
2009/04/23 09:41:30.0     -75     59     60     96    113 308.2  35.5  34130  289.06 0855.42
2009/04/23 09:41:30.1     -43     16     41     47     62 290.8  46.9  34126  289.01 0855.42
2009/04/23 09:41:30.2     -64      0     20     65     69 269.2  17.3  34126  288.99 0855.42
2009/04/23 09:41:30.3    -118      4     39    119    126 272.1  18.4  34150  289.40 0855.42
2009/04/23 09:41:30.4     -69     23     70     73    101 288.6  48.5  34158  289.53 0855.42
2009/04/23 09:41:30.5      68     71     50     99    110  43.7  28.2  34148  289.36 0855.42
2009/04/23 09:41:30.6     101    134    116    168    204  37.0  37.8  34134  289.14 0855.42
2009/04/23 09:41:30.7      27    102    115    106    156  15.2  52.2  34140  289.24 0855.42
2009/04/23 09:41:30.8      23     59     62     64     89  21.9  50.0  34150  289.40 0855.42
2009/04/23 09:41:30.9     166     44    131    172    216  74.9  41.4  34134  289.13 0855.42
2009/04/23 09:41:31.0     107     14    206    109    233  82.1  69.8  34136  289.18 0855.42
2009/04/23 09:41:31.1     223     37     95    227    246  80.5  24.1  34138  289.19 0855.42
2009/04/23 09:41:31.2     199    118    231    232    327  59.3  50.1  34130  289.05 0855.42
2009/04/23 09:41:31.3     401    104    206    415    463  75.4  28.2  34140  289.24 0855.42
2009/04/23 09:41:31.4     321    120     55    344    349  69.4   9.2  34136  289.15 0855.42
2009/04/23 09:41:31.5     223    136     70    262    272  58.5  15.0  34142  289.25 0855.41
2009/04/23 09:41:31.6     265     99    223    284    361  69.4  42.1  34132  289.11 0855.41
2009/04/23 09:41:31.7     270    -67    288    279    400 104.1  50.9  34120  288.88 0855.41
2009/04/23 09:41:31.8      69    -28    206     75    219 112.6  79.2  34120  288.91 0855.41
2009/04/23 09:41:31.9      47      3    165     48    171  85.6  83.5  34120  288.89 0855.41
2009/04/23 09:41:32.0     183   -113    230    216    315 121.8  52.1  34120  288.90 0855.41
2009/04/23 09:41:32.1     133    -35    211    138    252 105.1  64.1  34154  289.46 0855.41
2009/04/23 09:41:32.2     188    -98    266    213    340 117.5  57.3  34144  289.31 0855.41
2009/04/23 09:41:32.3      17    -22    182     29    184 142.2  90.0  34138  289.21 0855.41
2009/04/23 09:41:32.4     179    -77    210    195    286 113.3  52.2  34136  289.15 0855.41
2009/04/23 09:41:32.5     217   -223    242    312    394 135.7  41.7  34122  288.94 0855.41
2009/04/23 09:41:32.6     272   -296    220    403    459 137.5  31.3  34108  288.68 0855.41
2009/04/23 09:41:32.7     256   -264    217    368    427 135.9  33.3  34106  288.67 0855.41
2009/04/23 09:41:32.8     175   -210    233    274    359 140.1  44.8  34110  288.74 0855.41
2009/04/23 09:41:32.9      29    -49    150     58    160 149.3  77.8  34114  288.79 0855.41
2009/04/23 09:41:33.0      36    -36    189     51    195 135.0  84.9  34114  288.79 0855.41
2009/04/23 09:41:33.1     145    -39    279    151    317 105.1  69.3  34116  288.83 0855.41
2009/04/23 09:41:33.2     193     52    343    200    397  74.9  67.2  34110  288.74 0855.41
2009/04/23 09:41:33.3     178     92    287    201    350  62.7  61.7  34120  288.88 0855.41
2009/04/23 09:41:33.4     310     35    329    313    454  83.4  51.6  34120  288.90 0855.41
2009/04/23 09:41:33.5     119    175    305    212    371  34.3  62.0  34138  289.20 0855.38
2009/04/23 09:41:33.6      42     99    198    108    225  23.2  68.9  34148  289.38 0855.38
2009/04/23 09:41:33.7     231   -106    277    255    376 114.6  52.5  34122  288.93 0855.38
2009/04/23 09:41:33.8     118      5    219    119    249  87.4  69.3  34126  288.99 0855.38
2009/04/23 09:41:33.9      72     40    184     83    201  60.7  74.5  34124  288.97 0855.38
2009/04/23 09:41:34.0      36     66    205     76    218  29.0  79.1  34120  288.91 0855.38
2009/04/23 09:41:34.1      75     55    191     94    212  53.6  72.1  34120  288.89 0855.38
2009/04/23 09:41:34.2      90     78    158    120    198  49.1  59.0  34120  288.91 0855.38
2009/04/23 09:41:34.3     113     71    169    134    215  57.6  57.7  34124  288.97 0855.38
2009/04/23 09:41:34.4     122     63    195    138    238  62.5  61.5  34126  289.01 0855.38
2009/04/23 09:41:34.5     233     39    183    237    299  80.3  41.7  34128  289.03 0855.38
2009/04/23 09:41:34.6     175     34    162    179    241  78.8  46.9  34134  289.13 0855.38
2009/04/23 09:41:34.7     112     44    140    121    185  68.3  54.8  34142  289.28 0855.38
2009/04/23 09:41:34.8      65      0     93     66    114  89.2  61.5  34142  289.28 0855.38
2009/04/23 09:41:34.9      81     27     89     86    123  71.4  50.7  34146  289.35 0855.38
2009/04/23 09:41:35.0       5     -5     81      8     81 135.0  90.0  34146  289.35 0855.38
2009/04/23 09:41:35.1     -21     21     91     31     96 315.0  81.2  34142  289.28 0855.38
2009/04/23 09:41:35.2     -31    -31     92     44    101 225.0  72.9  34138  289.21 0855.38
2009/04/23 09:41:35.3     -77    -26    105     82    133 251.4  57.9  34138  289.19 0855.38
2009/04/23 09:41:35.4     -37    -10     61     39     72 254.9  64.6  34138  289.21 0855.38
2009/04/23 09:41:35.5     -12     40     38     42     56 343.1  47.9  34140  289.24 0855.34
2009/04/23 09:41:35.6     -11     42      6     44     45 344.9   8.0  34138  289.21 0855.34
2009/04/23 09:41:35.7     -32     31     -8     45     46 314.0 -10.3  34136  289.16 0855.34
2009/04/23 09:41:35.8    -108     36    -57    115    128 288.6 -32.6  34126  289.01 0855.34
2009/04/23 09:41:35.9    -104     27    -96    108    144 285.0 -50.8  34130  289.08 0855.34
2009/04/23 09:41:36.0     -72     72    -44    103    112 314.9 -28.5  34136  289.16 0855.34
2009/04/23 09:41:36.1       8     57    -54     58     79   8.0 -52.9  34140  289.23 0855.34
2009/04/23 09:41:36.2      29      0    -48     30     56  90.0 -69.1  34142  289.28 0855.34
2009/04/23 09:41:36.3      72     28    -41     78     88  68.3 -34.2  34140  289.24 0855.34
2009/04/23 09:41:36.4      59     72    -59     94    110  39.2 -39.9  34138  289.19 0855.34
2009/04/23 09:41:36.5      89     39     -5     98     99  66.0  -3.1  34134  289.13 0855.34
2009/04/23 09:41:36.6     149     31     14    153    154  78.1   5.4  34126  288.99 0855.34
2009/04/23 09:41:36.7     167     71     30    182    185  66.9   9.5  34120  288.91 0855.34
2009/04/23 09:41:36.8      67     52    196     85    213  52.2  75.3  34142  289.26 0855.34
2009/04/23 09:41:36.9     125     78    218    148    263  58.0  62.7  34136  289.16 0855.34
2009/04/23 09:41:37.0     145     11    245    146    285  85.7  66.7  34132  289.09 0855.34
2009/04/23 09:41:37.1     181     22    187    183    261  82.8  50.7  34124  288.97 0855.34
2009/04/23 09:41:37.2     100     47    224    111    249  64.6  71.9  34128  289.04 0855.34
2009/04/23 09:41:37.3     188     38    157    192    248  78.5  43.7  34120  288.91 0855.34
2009/04/23 09:41:37.4     134     97    239    166    290  54.0  62.4  34126  289.00 0855.34
2009/04/23 09:41:37.5     257    156    250    301    391  58.7  43.8  34122  288.94 0855.31
2009/04/23 09:41:37.6     253    114    241    278    367  65.6  45.4  34134  289.13 0855.31
2009/04/23 09:41:37.7     276    202    177    343    385  53.8  29.4  34198  290.23 0855.31
2009/04/23 09:41:37.8      89    110    208    142    251  39.2  62.6  34130  289.08 0855.31
2009/04/23 09:41:37.9      70     97    147    120    189  36.0  56.4  34130  289.06 0855.31
2009/04/23 09:41:38.0     263    213    158    339    374  50.9  27.0  34164  289.64 0855.31
2009/04/23 09:41:38.1     258    306    126    401    421  40.2  17.5  34204  290.31 0855.31
2009/04/23 09:41:38.2     224    311     89    384    395  35.7  13.1  34192  290.11 0855.31
2009/04/23 09:41:38.3     232    269     69    356    363  40.8  11.1  34210  290.43 0855.31
2009/04/23 09:41:38.4     182    321    -11    370    371  29.6  -1.8  34174  289.82 0855.31
2009/04/23 09:41:38.5     109    289    -88    309    322  20.7 -16.0  34172  289.78 0855.31
2009/04/23 09:41:38.6      93    223    -43    242    246  22.7 -10.1  34162  289.59 0855.31
2009/04/23 09:41:38.7     139    192    -25    238    240  35.8  -6.2  34152  289.42 0855.31
2009/04/23 09:41:38.8     168    117     -9    205    206  55.1  -2.6  34144  289.31 0855.31
2009/04/23 09:41:38.9     221     21     37    223    227  84.5   9.5  34144  289.30 0855.31
2009/04/23 09:41:39.0     203     42    -25    208    210  78.3  -6.9  34122  288.94 0855.31
2009/04/23 09:41:39.1     176      0      8    177    178  90.0   2.8  34116  288.82 0855.31
2009/04/23 09:41:39.2     168      6     30    169    172  87.9  10.3  34112  288.75 0855.31
2009/04/23 09:41:39.3     206     75      9    220    221  70.0   2.5  34122  288.92 0855.31
2009/04/23 09:41:39.4     370     16     61    371    377  87.4   9.3  34190  290.08 0855.31
2009/04/23 09:41:39.5     296    224    129    372    394  52.9  19.2  34208  290.38 0855.33
2009/04/23 09:41:39.6     373    161    228    407    466  66.6  31.5  34194  290.16 0855.33
2009/04/23 09:41:39.7     275    151    227    314    387  61.2  39.5  34202  290.28 0855.33
2009/04/23 09:41:39.8     419    206    238    468    525  63.8  29.2  34172  289.78 0855.33
2009/04/23 09:41:39.9     447    212    210    495    537  64.6  24.5  34160  289.58 0855.33
2009/04/23 09:41:40.0     445    200    110    488    501  65.8  12.8  34152  289.45 0855.33
2009/04/23 09:41:40.1     499    243     15    556    557  64.0   1.6  34156  289.51 0855.33
2009/04/23 09:41:40.2     556    200    106    591    601  70.2  10.2  34128  289.02 0855.33
2009/04/23 09:41:40.3     523    244    185    578    608  65.0  17.8  34172  289.78 0855.33
2009/04/23 09:41:40.4     488    181     81    521    528  69.6   8.9  34152  289.45 0855.33
2009/04/23 09:41:40.5     473    260   -158    540    563  61.2 -16.4  34136  289.16 0855.33
2009/04/23 09:41:40.6     405    239    -91    471    480  59.4 -11.0  34142  289.28 0855.33
2009/04/23 09:41:40.7     476    240    -56    534    538  63.2  -6.1  34138  289.19 0855.33
2009/04/23 09:41:40.8     529    171      0    556    557  72.1   0.0  34134  289.14 0855.33
2009/04/23 09:41:40.9     589    186     92    618    625  72.4   8.5  34172  289.77 0855.33
2009/04/23 09:41:41.0     425    284     60    512    516  56.3   6.7  34178  289.89 0855.33
2009/04/23 09:41:41.1     426    155      1    454    455  70.0   0.2  34180  289.90 0855.33
2009/04/23 09:41:41.2     422     66    133    428    449  81.1  17.3  34200  290.26 0855.33
2009/04/23 09:41:41.3     248    -94    126    266    294 110.8  27.2  34186  290.00 0855.33
2009/04/23 09:41:41.4     101     33     95    107    143  71.8  46.4  34172  289.79 0855.33
2009/04/23 09:41:41.5     -73    -14   -126     75    146 258.5 -71.1  34178  289.87 0855.33
2009/04/23 09:41:41.6     153     26   -165    156    227  80.3 -56.5  34170  289.74 0855.33
2009/04/23 09:41:41.7     112     15   -182    114    214  82.1 -69.1  34192  290.13 0855.33
2009/04/23 09:41:41.8     103      7   -124    104    161  86.1 -60.0  34184  289.97 0855.33
2009/04/23 09:41:41.9     230     92    -58    248    255  68.2 -13.2  34182  289.95 0855.33
2009/04/23 09:41:42.0     203     99     -7    226    227  64.0  -1.8  34182  289.94 0855.33
2009/04/23 09:41:42.1     226     18    -80    227    241  85.2 -19.6  34144  289.31 0855.33
2009/04/23 09:41:42.2     227    -41    -67    231    240 100.4 -21.2  34150  289.41 0855.33
2009/04/23 09:41:42.3     254     17    -83    255    268  86.1 -23.6  34144  289.31 0855.33
2009/04/23 09:41:42.4     258     65    -36    267    270  75.9  -7.7  34154  289.47 0855.33
2009/04/23 09:41:42.5     164     30     29    167    170  79.4  10.1  34154  289.46 0855.31
2009/04/23 09:41:42.6     128      8     72    129    147  86.1  31.4  34144  289.31 0855.31
2009/04/23 09:41:42.7     105    -31     82    110    137 106.8  40.7  34140  289.24 0855.31
2009/04/23 09:41:42.8     -69     -4     15     70     72 266.5  12.2  34144  289.31 0855.31
2009/04/23 09:41:42.9       0    -30     93     31     98 179.1  81.0  34154  289.46 0855.31
2009/04/23 09:41:43.0      26   -280    197    282    343 174.6  38.5  34158  289.53 0855.31
2009/04/23 09:41:43.1       7   -405     72    406    413 178.9  10.1  34142  289.27 0855.31
2009/04/23 09:41:43.2       7   -384     41    385    388 178.9   6.1  34130  289.06 0855.31
2009/04/23 09:41:43.3     -40   -389     62    392    397 186.0   9.0  34132  289.10 0855.31
2009/04/23 09:41:43.4       5   -324     91    325    338 179.0  15.7  34146  289.32 0855.31
2009/04/23 09:41:43.5      94   -366     47    378    381 165.6   7.1  34138  289.20 0855.31
2009/04/23 09:41:43.6     -63   -368    -57    374    379 189.7  -8.7  34130  289.08 0855.31
2009/04/23 09:41:43.7    -104   -437   -124    450    467 193.4 -15.5  34126  289.00 0855.31
2009/04/23 09:41:43.8      35   -462    -92    464    474 175.6 -11.2  34122  288.93 0855.31
2009/04/23 09:41:43.9      43   -474    -91    476    485 174.8 -10.8  34124  288.96 0855.31
2009/04/23 09:41:44.0      -4   -479     29    480    481 180.6   3.5  34126  288.98 0855.31
2009/04/23 09:41:44.1      73   -409     60    416    421 169.9   8.3  34122  288.92 0855.31
2009/04/23 09:41:44.2      72   -425     78    432    440 170.4  10.2  34122  288.94 0855.31
2009/04/23 09:41:44.3      56   -395     66    400    406 171.9   9.5  34124  288.97 0855.31
2009/04/23 09:41:44.4      83   -351    -25    361    362 166.6  -4.0  34122  288.93 0855.31
2009/04/23 09:41:44.5     -18   -386    -21    387    388 182.8  -3.1  34120  288.89 0855.30
2009/04/23 09:41:44.6     119   -317    -47    339    343 159.3  -7.9  34122  288.94 0855.30
2009/04/23 09:41:44.7     118   -314    -57    336    341 159.4  -9.7  34118  288.86 0855.30
2009/04/23 09:41:44.8      50   -294    -16    299    300 170.2  -3.1  34124  288.95 0855.30
2009/04/23 09:41:44.9      14   -313    -41    314    317 177.4  -7.6  34124  288.97 0855.30
2009/04/23 09:41:45.0      52   -258    -47    264    269 168.5 -10.3  34124  288.97 0855.30
2009/04/23 09:41:45.1      34   -220     12    223    224 171.1   3.1  34124  288.97 0855.30
2009/04/23 09:41:45.3      72   -235      3    247    248 162.8   0.8  34128  289.02 0855.30
2009/04/23 09:41:45.4      99   -272    -40    290    293 159.9  -8.0  34128  289.02 0855.30
2009/04/23 09:41:45.4      93   -306     -9    320    321 163.1  -1.7  34126  288.98 0855.30
2009/04/23 09:41:45.5      43   -277     84    281    294 171.1  16.8  34128  289.02 0855.30
2009/04/23 09:41:45.6      16   -256    104    257    277 176.4  23.1  34128  289.03 0855.30
2009/04/23 09:41:45.7      -4   -232     58    233    241 181.0  14.2  34126  289.00 0855.30
2009/04/23 09:41:45.8      16   -214     91    215    233 175.5  24.1  34128  289.04 0855.30
2009/04/23 09:41:45.9       0   -234    113    235    260 180.2  27.3  34124  288.97 0855.30
2009/04/23 09:41:46.0     -57   -251    123    258    285 192.9  27.2  34126  289.00 0855.30
2009/04/23 09:41:46.1     -47    -11    137     49    145 256.7  80.2  34130  289.08 0855.30
2009/04/23 09:41:46.2      75     61    175     97    200  50.9  68.8  34146  289.33 0855.30
2009/04/23 09:41:46.3      48     -7    142     49    150  98.8  81.2  34144  289.31 0855.30
2009/04/23 09:41:46.4      78    -90    117    120    167 139.0  49.4  34152  289.45 0855.30
2009/04/23 09:41:46.5      75    -29    166     81    184 111.7  72.4  34140  289.23 0855.31
2009/04/23 09:41:46.6      82     22    224     86    239  74.5  78.2  34144  289.31 0855.31
2009/04/23 09:41:46.7    -119     36    195    125    231 286.9  64.6  34146  289.35 0855.31
2009/04/23 09:41:46.8    -139    -55    120    150    192 248.2  43.3  34138  289.21 0855.31
2009/04/23 09:41:46.9     -40    -84    202     94    222 205.4  73.1  34136  289.18 0855.31
2009/04/23 09:41:47.0      13   -102    192    103    217 172.4  69.3  34138  289.19 0855.31
2009/04/23 09:41:47.1      -4   -279    200    280    344 180.9  39.1  34134  289.12 0855.31
2009/04/23 09:41:47.2     -72   -159    107    175    205 204.3  34.4  34130  289.08 0855.31
2009/04/23 09:41:47.3     -90   -117     50    148    157 217.8  18.6  34130  289.06 0855.31
2009/04/23 09:41:47.4     -74    -35     -4     82     83 244.7  -3.1  34134  289.14 0855.31
2009/04/23 09:41:47.5      17    -18    -50     25     55 136.6 -76.3  34136  289.18 0855.31
2009/04/23 09:41:47.6      29     88    -48     93    104  18.3 -34.2  34134  289.14 0855.31
2009/04/23 09:41:47.7      39    112     42    119    127  19.6  19.4  34138  289.19 0855.31
2009/04/23 09:41:47.8       9     90    -74     91    117   5.8 -48.1  34134  289.13 0855.31
2009/04/23 09:41:47.9      17     94    -32     96    101  10.2 -23.6  34134  289.13 0855.31
2009/04/23 09:41:48.0      50     85    -14     99    101  30.7  -8.2  34134  289.14 0855.31
2009/04/23 09:41:48.1      33    100     41    106    113  18.3  22.0  34140  289.24 0855.31
2009/04/23 09:41:48.2      64     25     39     69     79  68.2  32.4  34140  289.23 0855.31
2009/04/23 09:41:48.3      24     20     -9     32     34  50.5 -15.5  34142  289.26 0855.31
2009/04/23 09:41:48.4      94     96     16    135    136  44.5   6.9  34140  289.24 0855.31
2009/04/23 09:41:48.5      52     81     49     97    108  32.5  28.7  34140  289.24 0855.29
2009/04/23 09:41:48.6      60     73     36     95    101  39.7  21.5  34140  289.24 0855.29
2009/04/23 09:41:48.7      70     23      3     74     75  71.8   2.9  34140  289.23 0855.29
2009/04/23 09:41:48.8      67     -5     -3     68     69  94.3  -3.2  34136  289.16 0855.29
2009/04/23 09:41:48.9      93      7    -25     94     98  85.6 -15.0  34138  289.19 0855.29
2009/04/23 09:41:49.0      60     -3     12     61     63  93.5  11.1  34132  289.11 0855.29
2009/04/23 09:41:49.1      48     -2     17     49     53  93.5  19.4  34130  289.08 0855.29
2009/04/23 09:41:49.2      38     36     38     53     65  46.9  39.5  34132  289.11 0855.29
2009/04/23 09:41:49.3      23     26     59     35     68  41.4  65.7  34136  289.18 0855.29
2009/04/23 09:41:49.4      22     39     56     45     71  29.9  56.4  34138  289.21 0855.29
2009/04/23 09:41:49.5      42    -13     77     45     89 107.7  66.8  34140  289.23 0855.29
2009/04/23 09:41:49.6      67      0     65     68     94  89.2  49.4  34130  289.08 0855.29
2009/04/23 09:41:49.7      32     45     25     56     61  35.2  25.1  34132  289.09 0855.29
2009/04/23 09:41:49.8      30      9     35     32     47  71.8  52.2  34134  289.13 0855.29
2009/04/23 09:41:49.9      19      3     47     20     51  78.5  76.1  34136  289.16 0855.29
2009/04/23 09:41:50.0       0     11     35     12     37   4.5  81.0  34144  289.30 0855.29
2009/04/23 09:41:50.1      -3      8     15      9     17 334.6  64.7  34142  289.26 0855.29
2009/04/23 09:41:50.2       3     22     17     23     28   9.8  41.7  34140  289.23 0855.29
2009/04/23 09:41:50.3      -3     31      0     32     33 353.8   0.8  34142  289.26 0855.29
2009/04/23 09:41:50.4       5     10      6     12     13  29.0  27.2  34138  289.21 0855.29
2009/04/23 09:41:50.5     -12    -11     14     17     22 226.7  43.7  34140  289.23 0855.26
2009/04/23 09:41:50.7     -27    -30     -1     41     42 221.4  -2.2  34134  289.13 0855.26
2009/04/23 09:41:50.8     -23    -53      0     58     59 203.6   0.8  34128  289.04 0855.26
2009/04/23 09:41:50.9     -26    -65      8     71     72 201.8   6.9  34130  289.08 0855.26
2009/04/23 09:41:51.0     -21    -66     32     70     76 198.3  27.1  34132  289.09 0855.26
2009/04/23 09:41:51.1       0   -101     74    102    126 180.0  39.7  34130  289.06 0855.26
2009/04/23 09:41:51.2       6    -85    111     86    140 175.6  58.5  34132  289.09 0855.26
2009/04/23 09:41:51.3     -15   -129    111    130    170 186.7  44.8  34128  289.02 0855.26
2009/04/23 09:41:51.4     -38   -146     92    151    176 194.7  34.2  34126  288.99 0855.26
2009/04/23 09:41:51.5      63    -35    106     73    128 118.9  62.6  34132  289.11 0855.26
2009/04/23 09:41:51.6      -2   -121    124    122    173 181.4  49.9  34128  289.02 0855.26
2009/04/23 09:41:51.7      -5    -82    140     83    162 184.0  66.4  34130  289.08 0855.26
2009/04/23 09:41:51.8     -18    -82     92     85    125 192.5  52.2  34128  289.04 0855.26
2009/04/23 09:41:51.9     -13    -66     63     68     92 191.6  47.9  34132  289.09 0855.26
2009/04/23 09:41:52.0      31    -34     71     47     85 137.7  63.6  34132  289.09 0855.26
2009/04/23 09:41:52.1      57    -10     75     58     94 100.6  58.5  34130  289.06 0855.26
2009/04/23 09:41:52.2       0     -3    115      4    115 189.7  90.0  34134  289.14 0855.26
2009/04/23 09:41:52.3     -49     -3     67     50     83 266.5  59.4  34130  289.08 0855.26
2009/04/23 09:41:52.4     -11    -12     74     17     75 223.4  89.0  34130  289.06 0855.26
2009/04/23 09:41:52.5      19     -7     50     21     54 110.0  77.1  34138  289.19 0855.26
2009/04/23 09:41:52.6      23    -36     56     43     70 147.5  58.5  34138  289.19 0855.27
2009/04/23 09:41:52.7      58   -115     69    129    146 153.3  30.8  34124  288.96 0855.27
2009/04/23 09:41:52.8      30   -136     71    140    156 167.5  28.7  34120  288.89 0855.27
2009/04/23 09:41:52.9      13   -130     83    131    155 174.2  35.5  34118  288.87 0855.27
2009/04/23 09:41:53.0      22   -131     93    133    162 170.2  38.4  34120  288.91 0855.27
2009/04/23 09:41:53.1      31   -146    106    150    183 168.0  38.8  34120  288.91 0855.27
2009/04/23 09:41:53.2      35   -168    123    172    211 168.0  39.3  34116  288.84 0855.27
2009/04/23 09:41:53.3      78   -158    134    177    222 153.5  40.7  34124  288.96 0855.27
2009/04/23 09:41:53.4      12   -144    135    145    198 175.1  47.9  34120  288.91 0855.27
2009/04/23 09:41:53.5      -8   -129     80    130    152 183.6  35.5  34116  288.84 0855.27
2009/04/23 09:41:53.6      -5   -191     92    192    212 181.6  27.3  34118  288.87 0855.27
2009/04/23 09:41:53.7       0   -191    121    192    226 180.2  35.5  34120  288.91 0855.27
2009/04/23 09:41:53.8     -45   -197    124    203    237 192.9  34.4  34124  288.96 0855.27
2009/04/23 09:41:53.9     -55   -210    124    218    250 194.7  32.4  34120  288.90 0855.27
2009/04/23 09:41:54.0     -50   -190    132    197    237 194.9  37.0  34116  288.82 0855.27
2009/04/23 09:41:54.1     -29   -190     93    193    214 188.7  27.3  34120  288.91 0855.27
2009/04/23 09:41:54.2     -23   -217     88    219    236 186.2  23.0  34120  288.89 0855.27
2009/04/23 09:41:54.3     -36   -195     81    199    214 190.5  23.1  34120  288.91 0855.27
2009/04/23 09:41:54.4     -17   -218    117    219    248 184.5  30.3  34122  288.93 0855.27
2009/04/23 09:41:54.5      10   -224    109    225    250 177.3  27.4  34130  289.07 0855.27
2009/04/23 09:41:54.6     -23   -215    112    217    244 186.2  29.3  34122  288.93 0855.28
2009/04/23 09:41:54.7     -10   -220    118    221    250 182.6  30.3  34126  289.00 0855.28
2009/04/23 09:41:54.8      -4   -219    137    220    259 181.1  35.0  34126  289.00 0855.28
2009/04/23 09:41:54.9       7   -265     57    266    273 178.4  12.2  34126  289.00 0855.28
2009/04/23 09:41:55.0      47   -231    107    236    259 168.4  26.2  34116  288.81 0855.28
2009/04/23 09:41:55.1      78   -263    173    275    324 163.5  35.3  34120  288.90 0855.28
2009/04/23 09:41:55.2       0   -242    151    243    286 179.8  35.0  34120  288.90 0855.28
2009/04/23 09:41:55.3      19   -300    121    301    324 176.4  23.0  34118  288.87 0855.28
2009/04/23 09:41:55.4      23   -267    125    269    296 174.9  27.0  34122  288.93 0855.28
2009/04/23 09:41:55.5     -10   -236    139    237    274 182.6  33.1  34122  288.93 0855.28
2009/04/23 09:41:55.6     -29   -247    115    249    274 186.7  26.6  34124  288.95 0855.28
2009/04/23 09:41:55.7     -30   -246     80    248    261 187.1  17.9  34120  288.90 0855.28
2009/04/23 09:41:55.8     -22   -195    156    197    251 186.7  42.7  34124  288.97 0855.28
2009/04/23 09:41:55.9       3   -219    111    220    246 179.1  28.5  34120  288.88 0855.28
2009/04/23 09:41:56.0      18   -231    141    232    271 175.5  34.4  34122  288.92 0855.28
2009/04/23 09:41:56.1      25   -202    167    204    263 172.9  43.7  34120  288.90 0855.28
2009/04/23 09:41:56.2      32   -170    140    174    223 169.3  43.3  34122  288.94 0855.28
2009/04/23 09:41:56.3      15   -174    125    175    215 174.9  39.5  34122  288.92 0855.28
2009/04/23 09:41:56.4       4   -159    143    160    214 178.4  46.4  34120  288.91 0855.28
2009/04/23 09:41:56.5     -33   -184    110    187    216 190.2  33.4  34116  288.84 0855.28
2009/04/23 09:41:56.6     -14   -191     82    192    208 184.4  24.6  34120  288.89 0855.27
2009/04/23 09:41:56.7     -42   -147     21    153    155 196.0   8.0  34120  288.91 0855.27
2009/04/23 09:41:56.8     -93   -149     61    176    187 211.9  19.2  34122  288.92 0855.27
2009/04/23 09:41:56.9     -47   -101    131    112    172 205.3  55.4  34118  288.87 0855.27
2009/04/23 09:41:57.0     -15   -109    143    111    181 188.1  58.2  34122  288.92 0855.27
2009/04/23 09:41:57.1      -8   -138    148    139    203 183.6  52.0  34124  288.97 0855.27
2009/04/23 09:41:57.2     -49   -144    178    153    234 198.7  55.0  34126  288.99 0855.27
2009/04/23 09:41:57.3     -23   -188    162    190    249 187.1  44.8  34124  288.96 0855.27
2009/04/23 09:41:57.4     -63   -163    109    175    206 201.2  35.2  34122  288.94 0855.27
2009/04/23 09:41:57.5     -55   -153    128    163    207 200.1  42.2  34124  288.97 0855.27
2009/04/23 09:41:57.6     -60   -152    137    164    213 201.8  43.8  34126  289.01 0855.27
2009/04/23 09:41:57.7     -46   -125    146    134    198 200.1  52.5  34126  288.99 0855.27
2009/04/23 09:41:57.8     -28   -117    143    121    187 193.4  55.6  34124  288.97 0855.27
2009/04/23 09:41:57.9     -37   -141    141    146    202 195.1  49.2  34124  288.96 0855.27
2009/04/23 09:41:58.0      35   -178    118    182    216 168.9  35.7  34120  288.91 0855.27
2009/04/23 09:41:58.1      76   -190     94    205    225 158.2  26.6  34122  288.94 0855.27
2009/04/23 09:41:58.2      13   -180    115    181    214 175.8  35.5  34118  288.86 0855.27
2009/04/23 09:41:58.3     -31   -188    146    191    240 189.6  41.4  34118  288.87 0855.27
2009/04/23 09:41:58.4     -74   -221    139    234    272 198.5  33.5  34120  288.88 0855.27
2009/04/23 09:41:58.5     -80   -194    125    211    245 202.5  33.5  34118  288.87 0855.27
2009/04/23 09:41:58.6     -58   -218    101    226    247 195.1  25.7  34118  288.87 0855.26
2009/04/23 09:41:58.7     -43   -211    141    216    257 191.5  36.3  34128  289.03 0855.26
2009/04/23 09:41:58.8     -59   -208    203    217    297 196.0  48.0  34130  289.05 0855.26
2009/04/23 09:41:58.9     -69   -232    149    243    285 196.5  34.5  34120  288.90 0855.26
2009/04/23 09:41:59.0     -32   -256     96    259    276 187.3  21.0  34124  288.97 0855.26
2009/04/23 09:41:59.1     -32   -242    132    245    278 187.6  30.6  34122  288.92 0855.26
2009/04/23 09:41:59.2     -69   -242    100    252    271 196.1  23.0  34124  288.95 0855.26
2009/04/23 09:41:59.3     -48   -228     91    234    251 192.0  22.1  34124  288.95 0855.26
2009/04/23 09:41:59.4     -47   -186    111    192    221 194.3  32.9  34122  288.94 0855.26
2009/04/23 09:41:59.5     -80   -203     93    219    237 201.6  24.3  34122  288.92 0855.26
2009/04/23 09:41:59.6     -89   -241    117    257    282 200.3  26.2  34120  288.90 0855.26
2009/04/23 09:41:59.7     -81   -237    153    251    293 198.9  34.2  34122  288.92 0855.26
2009/04/23 09:41:59.8     -28   -193    154    196    249 188.2  42.4  34124  288.97 0855.26
2009/04/23 09:41:59.9     -13   -172    125    173    213 184.4  39.5  34122  288.92 0855.26
2009/04/23 09:42:00.0       7   -103    143    104    176 176.0  60.5  34128  289.04 0855.26
2009/04/23 09:42:00.1      46    -75     99     89    133 148.4  53.3  34130  289.08 0855.26
2009/04/23 09:42:00.2     -12   -123    130    124    179 185.8  51.4  34124  288.97 0855.26
2009/04/23 09:42:00.3      -9   -140    133    141    193 184.0  48.5  34122  288.92 0855.26
2009/04/23 09:42:00.4     -28   -150    140    153    207 190.7  47.5  34122  288.94 0855.26
2009/04/23 09:42:00.5     -49   -157    146    165    220 197.4  45.9  34124  288.96 0855.26
2009/04/23 09:42:00.6      14    -91    137     93    165 171.1  62.8  34130  289.06 0855.24
2009/04/23 09:42:00.7     -21   -130     88    132    158 189.3  37.0  34128  289.04 0855.24
2009/04/23 09:42:00.8       0    -96     90     97    132 179.5  47.9  34126  289.01 0855.24
2009/04/23 09:42:00.9     -10   -154    153    155    217 184.0  49.9  34122  288.92 0855.24
2009/04/23 09:42:01.0     -18   -166    206    168    265 186.2  56.4  34124  288.97 0855.24
2009/04/23 09:42:01.1     -38   -220    169    224    280 189.8  40.7  34124  288.95 0855.24
2009/04/23 09:42:01.2     -25   -232    166    234    286 186.2  38.8  34126  288.98 0855.24
2009/04/23 09:42:01.3     -47   -185    163    191    251 194.3  44.8  34124  288.95 0855.24
2009/04/23 09:42:01.4     -50   -189    148    196    245 195.1  40.9  34122  288.92 0855.24
2009/04/23 09:42:01.5     -45   -117    165    126    207 201.4  58.7  34124  288.97 0855.24
2009/04/23 09:42:01.6     -14   -157    107    158    190 185.3  37.3  34126  288.99 0855.24
2009/04/23 09:42:01.7     -35   -161     96    165    190 192.3  32.9  34124  288.96 0855.24
2009/04/23 09:42:01.8     -48   -134     87    143    167 200.0  34.4  34124  288.97 0855.24
2009/04/23 09:42:01.9      -7   -150     90    151    175 182.7  34.0  34124  288.96 0855.24
2009/04/23 09:42:02.0       2   -142     85    143    166 179.0  33.5  34126  289.01 0855.24
2009/04/23 09:42:02.1     -20   -143     80    145    165 188.1  31.4  34128  289.02 0855.24
2009/04/23 09:42:02.2     -18   -131     66    133    148 188.0  27.8  34128  289.04 0855.24
2009/04/23 09:42:02.3      34    -67     87     76    115 152.8  54.8  34132  289.09 0855.24
2009/04/23 09:42:02.4      21    -13     82     25     85 122.4  82.8  34138  289.19 0855.24
2009/04/23 09:42:02.5      44    -28     68     53     86 122.4  58.5  34128  289.04 0855.24
2009/04/23 09:42:02.6     117    -69      9    136    137 120.6   3.8  34122  288.94 0855.24
2009/04/23 09:42:02.7      74     -1    103     75    127  90.9  60.5  34132  289.11 0855.24
2009/04/23 09:42:02.8      27    -22     93     36     99 129.6  78.2  34130  289.06 0855.24
2009/04/23 09:42:02.9      73     40    106     84    135  61.1  57.5  34132  289.09 0855.24
2009/04/23 09:42:03.0      78     29    110     84    138  69.6  58.5  34132  289.09 0855.24
2009/04/23 09:42:03.1      70     18     62     73     95  75.0  44.3  34130  289.06 0855.24
2009/04/23 09:42:03.2       2     25     57     26     62   4.5  74.0  34134  289.13 0855.24
2009/04/23 09:42:03.3       7     37     71     38     80  11.6  69.8  34138  289.19 0855.24
2009/04/23 09:42:03.4      96    -18    106     98    144 101.0  52.2  34132  289.11 0855.24
2009/04/23 09:42:03.5      31    -40     92     51    105 142.2  68.8  34138  289.19 0855.24
2009/04/23 09:42:03.6      56    -46     95     73    119 129.5  58.5  34130  289.08 0855.25
2009/04/23 09:42:03.7      62    -12     88     64    108 101.5  60.5  34132  289.11 0855.25
2009/04/23 09:42:03.8      51    -17     84     54     99 108.4  64.6  34134  289.13 0855.25
2009/04/23 09:42:03.9      -3    -66     78     67    102 182.7  54.8  34130  289.06 0855.25
2009/04/23 09:42:04.0       7   -104    105    105    148 176.0  50.1  34128  289.02 0855.25
2009/04/23 09:42:04.1      18    -41     96     45    106 156.4  73.1  34138  289.19 0855.25
2009/04/23 09:42:04.2     -30    -96    114    101    152 197.4  54.2  34132  289.09 0855.25
2009/04/23 09:42:04.3      21    -87    170     90    192 166.2  69.8  34130  289.06 0855.25
2009/04/23 09:42:04.4      33    -23    118     41    124 124.2  81.2  34138  289.21 0855.25
2009/04/23 09:42:04.5      53     -2     93     54    107  92.6  67.2  34136  289.16 0855.25
2009/04/23 09:42:04.6      -2    -58     45     59     74 182.7  41.7  34136  289.16 0855.25
2009/04/23 09:42:04.7      51    -81      5     96     97 147.9   3.3  34132  289.09 0855.25
2009/04/23 09:42:04.8      27      2    -13     28     30  85.6 -31.5  34132  289.11 0855.25
2009/04/23 09:42:04.9     109     90     -7    142    143  50.5  -3.1  34166  289.67 0855.25
2009/04/23 09:42:05.0     145     74    116    163    200  62.9  39.1  34152  289.43 0855.25
2009/04/23 09:42:05.1     212     72     37    225    229  71.2   9.3  34166  289.67 0855.25
2009/04/23 09:42:05.2     176     76    -53    192    200  66.5 -15.5  34160  289.58 0855.25
2009/04/23 09:42:05.3     171    104    -85    201    218  58.7 -28.5  34168  289.72 0855.25
2009/04/23 09:42:05.4     167    118      1    205    206  54.7   0.5  34176  289.84 0855.25
2009/04/23 09:42:05.5     244     54     92    251    267  77.4  21.0  34170  289.73 0855.25
2009/04/23 09:42:05.6     239     71     88    250    266  73.4  19.4  34172  289.78 0855.28
2009/04/23 09:42:05.7     223     54    114    230    256  76.3  28.2  34172  289.76 0855.28
2009/04/23 09:42:05.8     201     68    206    213    296  71.2  49.0  34198  290.20 0855.28
2009/04/23 09:42:05.9     143     19    222    145    265  82.1  64.1  34204  290.33 0855.28
2009/04/23 09:42:06.0     121     40    176    128    217  71.4  60.5  34222  290.62 0855.28
2009/04/23 09:42:06.1      67     40    181     79    197  59.3  75.0  34224  290.67 0855.28
2009/04/23 09:42:06.2     119     24    138    122    184  78.5  54.0  34198  290.23 0855.28
2009/04/23 09:42:06.3     146    -11    182    147    233  94.4  56.6  34210  290.43 0855.28
2009/04/23 09:42:06.4     205      0    230    206    308  90.0  53.7  34196  290.17 0855.28
2009/04/23 09:42:06.5     243    -38    142    247    284  99.0  32.4  34160  289.58 0855.28
2009/04/23 09:42:06.6     223    -63    225    232    323 105.9  49.1  34170  289.75 0855.28
2009/04/23 09:42:06.7     241    -18    157    242    288  94.3  35.7  34140  289.22 0855.28
2009/04/23 09:42:06.8     245    -80    163    258    305 108.2  35.5  34152  289.42 0855.28
2009/04/23 09:42:06.9     224   -120    147    255    294 118.2  32.4  34152  289.42 0855.28
2009/04/23 09:42:07.0     221    -91    157    240    286 112.4  36.3  34142  289.27 0855.28
2009/04/23 09:42:07.1       3    -16    140     17    141 168.4  90.0  34158  289.53 0855.28
2009/04/23 09:42:07.2     -12      4    160     13    160 288.6  90.0  34156  289.52 0855.28
2009/04/23 09:42:07.3     114     37    153    121    195  71.8  57.7  34150  289.41 0855.28
2009/04/23 09:42:07.4     196    -27    193    198    276  97.9  49.2  34162  289.61 0855.28
2009/04/23 09:42:07.5     187    -45    189    193    270 103.5  49.8  34156  289.51 0855.28
2009/04/23 09:42:07.6     112    -81    132    139    191 126.0  48.5  34154  289.46 0855.31
2009/04/23 09:42:07.7      75      6    117     76    139  84.8  64.6  34152  289.45 0855.31
2009/04/23 09:42:07.8    -138     10    159    139    211 274.3  54.3  34154  289.48 0855.31
2009/04/23 09:42:07.9    -135   -137    160    193    250 224.5  43.8  34138  289.19 0855.31
2009/04/23 09:42:08.0     -29    -86    156     91    180 198.7  67.2  34134  289.13 0855.31
2009/04/23 09:42:08.1     -23    -57    155     62    166 202.7  77.1  34140  289.23 0855.31
2009/04/23 09:42:08.2     -94    -50     79    107    133 242.0  39.7  34134  289.14 0855.31
2009/04/23 09:42:08.3    -164     35    118    168    205 282.2  38.8  34142  289.26 0855.31
2009/04/23 09:42:08.4    -251    -91     87    268    282 250.0  18.1  34168  289.71 0855.31
2009/04/23 09:42:08.5    -300   -114     72    322    331 249.1  12.6  34148  289.37 0855.31
2009/04/23 09:42:08.6    -165   -227     98    281    298 216.0  19.4  34126  288.98 0855.31
2009/04/23 09:42:08.7    -179   -203     55    272    278 221.4  11.4  34142  289.27 0855.31
2009/04/23 09:42:08.8    -174   -185     69    255    265 223.2  15.3  34160  289.56 0855.31
2009/04/23 09:42:08.9    -124   -150    122    195    230 219.6  35.5  34168  289.70 0855.31
2009/04/23 09:42:09.0    -112   -139    158    179    238 218.7  46.2  34170  289.74 0855.31
2009/04/23 09:42:09.1    -169   -157    110    232    256 227.1  27.2  34176  289.83 0855.31
2009/04/23 09:42:09.2    -127   -137     99    187    211 222.8  30.1  34156  289.50 0855.31
2009/04/23 09:42:09.3    -176   -165     80    242    256 226.9  18.4  34180  289.92 0855.31
2009/04/23 09:42:09.4    -146   -233    123    276    302 212.1  25.3  34144  289.31 0855.31
2009/04/23 09:42:09.5     -29   -163    202    166    261 190.2  56.4  34130  289.05 0855.31
2009/04/23 09:42:09.6    -103   -206    120    231    260 206.7  29.5  34144  289.31 0855.32
2009/04/23 09:42:09.7    -145   -159     59    216    224 222.3  15.3  34180  289.92 0855.32
2009/04/23 09:42:09.8    -166   -123     85    207    223 233.4  23.1  34190  290.08 0855.32
2009/04/23 09:42:09.9    -127    -73     73    147    164 240.2  28.5  34188  290.06 0855.32
2009/04/23 09:42:10.0       6    -44     69     45     82 172.0  63.6  34168  289.72 0855.32
2009/04/23 09:42:10.1       2    -18     41     19     45 172.0  72.9  34156  289.50 0855.32
2009/04/23 09:42:10.2     -12    -37     51     40     64 198.3  58.5  34156  289.52 0855.32
2009/04/23 09:42:10.3     -20    -89    112     92    144 192.9  56.4  34158  289.53 0855.32
2009/04/23 09:42:10.4       0   -136    123    137    184 180.0  46.9  34132  289.11 0855.32
2009/04/23 09:42:10.5     -12   -158    105    159    190 184.4  36.5  34126  289.01 0855.32
2009/04/23 09:42:10.6      -2   -148    138    149    203 181.0  47.9  34128  289.02 0855.32
2009/04/23 09:42:10.7     -34   -152    139    156    208 192.9  46.4  34126  289.01 0855.32
2009/04/23 09:42:10.8       6   -193    108    194    222 178.0  31.4  34126  288.99 0855.32
2009/04/23 09:42:10.9      12   -222    121    223    253 176.9  31.3  34128  289.03 0855.32
2009/04/23 09:42:11.0      69   -174    145    188    237 158.4  41.6  34128  289.04 0855.32
2009/04/23 09:42:11.1      17   -177    134    178    222 174.4  40.7  34128  289.02 0855.32
2009/04/23 09:42:11.2      14   -179    116    180    214 175.5  35.6  34126  289.01 0855.32
2009/04/23 09:42:11.3      30   -167    124    170    210 169.5  39.7  34130  289.06 0855.32
2009/04/23 09:42:11.4      46   -181    131    187    228 165.5  38.6  34124  288.96 0855.32
2009/04/23 09:42:11.5      40   -171    125    176    215 166.6  39.3  34126  288.99 0855.32
2009/04/23 09:42:11.6      23   -172     78    174    190 172.2  25.9  34126  289.01 0855.31
2009/04/23 09:42:11.7      17   -200    137    201    243 175.1  37.6  34126  289.01 0855.31
2009/04/23 09:42:11.8     -11   -234    116    235    262 182.7  28.2  34124  288.97 0855.31
2009/04/23 09:42:11.9     -11   -210    145    211    256 183.1  37.8  34126  289.00 0855.31
2009/04/23 09:42:12.0     -10   -182    146    183    234 183.4  43.0  34126  289.01 0855.31
2009/04/23 09:42:12.1       2   -156    133    157    205 179.0  44.5  34124  288.96 0855.31
2009/04/23 09:42:12.2      -2   -169    112    170    203 180.9  36.5  34124  288.97 0855.31
2009/04/23 09:42:12.3     -14   -170    110    171    203 184.9  35.6  34124  288.96 0855.31
2009/04/23 09:42:12.4      -9   -175    133    176    220 183.1  40.9  34126  288.99 0855.31
2009/04/23 09:42:12.5      -5   -162    137    163    212 181.8  44.1  34126  289.01 0855.31
2009/04/23 09:42:12.6      -3   -202    130    203    241 181.1  35.6  34120  288.91 0855.31
2009/04/23 09:42:12.7     -47   -239    128    244    275 191.1  29.8  34122  288.93 0855.31
2009/04/23 09:42:12.8     -39   -239    111    243    267 189.3  26.2  34122  288.93 0855.31
2009/04/23 09:42:12.9     -14   -186    138    187    232 184.5  39.7  34130  289.06 0855.31
2009/04/23 09:42:13.0     -36   -165    154    170    229 192.5  46.9  34130  289.06 0855.31
2009/04/23 09:42:13.1     -50   -183    118    190    223 195.4  35.2  34128  289.04 0855.31
2009/04/23 09:42:13.2     -27   -101     95    105    141 195.2  47.5  34136  289.18 0855.31
2009/04/23 09:42:13.3       7    -71     83     72    109 173.8  55.4  34142  289.26 0855.31
2009/04/23 09:42:13.4      17     -7     37     19     41 111.7  70.8  34142  289.26 0855.31
2009/04/23 09:42:13.5      18    -29     59     35     68 147.5  65.7  34142  289.26 0855.31
2009/04/23 09:42:13.6     -20   -146     95    148    175 188.0  35.6  34134  289.13 0855.31
2009/04/23 09:42:13.7     -74    -69    117    102    155 227.3  54.3  34140  289.23 0855.31
2009/04/23 09:42:13.8    -135   -107     97    173    198 231.8  31.6  34132  289.11 0855.31
2009/04/23 09:42:13.9     -94   -121    131    154    202 217.8  44.8  34136  289.18 0855.31
2009/04/23 09:42:14.0     -72   -112    122    134    181 213.0  47.5  34140  289.23 0855.31
2009/04/23 09:42:14.1    -101    -23     99    104    143 257.2  48.5  34150  289.40 0855.31
2009/04/23 09:42:14.2     -92    -43    131    102    166 244.8  58.2  34162  289.62 0855.31
2009/04/23 09:42:14.3    -145   -107    142    181    230 233.4  42.2  34176  289.85 0855.31
2009/04/23 09:42:14.4     -71     16    143     73    160 283.3  70.8  34188  290.04 0855.31
2009/04/23 09:42:14.5     -15     89     55     91    106 350.2  34.4  34220  290.58 0855.31
2009/04/23 09:42:14.6     -34     73     55     81     97 335.1  37.0  34224  290.67 0855.31
2009/04/23 09:42:14.7     -84     76     61    114    129 312.2  30.3  34204  290.33 0855.31
2009/04/23 09:42:14.8     -72     24     62     76     98 288.6  43.7  34170  289.74 0855.31
2009/04/23 09:42:14.9    -143   -143    154    203    254 225.0  40.9  34146  289.32 0855.31
2009/04/23 09:42:15.0    -118   -136    144    181    231 221.0  43.0  34142  289.28 0855.31
2009/04/23 09:42:15.1    -132   -120    152    179    234 227.8  44.8  34152  289.43 0855.31
2009/04/23 09:42:15.2    -136   -156     93    208    227 221.0  25.7  34144  289.31 0855.31
2009/04/23 09:42:15.3     -90   -117     52    148    156 217.8  20.2  34144  289.31 0855.31
2009/04/23 09:42:15.4     -86   -103    118    135    179 219.6  45.6  34148  289.36 0855.31
2009/04/23 09:42:15.5     -88   -121    184    150    237 216.0  56.6  34140  289.23 0855.31
2009/04/23 09:42:15.6     -73    -74    153    105    185 224.5  62.4  34142  289.28 0855.31
2009/04/23 09:42:15.7     -23   -114    138    117    180 191.6  55.6  34138  289.21 0855.31
2009/04/23 09:42:15.8    -161   -153    133    223    259 226.4  33.5  34148  289.36 0855.31
2009/04/23 09:42:15.9    -126   -235    113    267    289 208.3  24.3  34126  289.00 0855.31
2009/04/23 09:42:16.0     -83   -208    140    225    265 201.8  35.2  34124  288.97 0855.31
2009/04/23 09:42:16.1     -27   -174    123    177    215 188.9  38.6  34130  289.06 0855.31
2009/04/23 09:42:16.2     -36   -256     76    259    270 188.1  16.4  34126  289.00 0855.31
2009/04/23 09:42:16.3     -13   -282     44    283    287 182.7   9.0  34126  289.00 0855.31
2009/04/23 09:42:16.4     -77   -267    -51    278    283 196.1 -10.5  34118  288.87 0855.31
2009/04/23 09:42:16.5     -72   -216    -92    228    245 198.5 -27.5  34120  288.88 0855.31
2009/04/23 09:42:16.6    -165   -195   -130    256    287 220.3 -33.6  34120  288.88 0855.31
2009/04/23 09:42:16.7    -168   -288   -105    334    350 210.3 -22.6  34110  288.74 0855.31
2009/04/23 09:42:16.8    -206   -213   -104    297    315 224.1 -19.4  34122  288.92 0855.31
2009/04/23 09:42:16.9    -248   -360     -8    438    439 214.6  -1.2  34114  288.78 0855.31
2009/04/23 09:42:17.0    -208   -390     34    443    445 208.1   4.5  34114  288.78 0855.31
2009/04/23 09:42:17.1    -231   -356    -35    425    427 213.0  -4.8  34106  288.67 0855.31
2009/04/23 09:42:17.2    -155   -326     33    362    364 205.5   5.3  34106  288.66 0855.31
2009/04/23 09:42:17.3    -162   -287     25    330    331 209.5   4.3  34110  288.72 0855.31
2009/04/23 09:42:17.4    -212   -248    -50    327    331 220.5  -8.8  34112  288.76 0855.31
2009/04/23 09:42:17.5    -154   -174    -53    233    240 221.4 -12.9  34110  288.71 0855.31
2009/04/23 09:42:17.6    -143   -188    -39    237    241 217.2  -9.4  34110  288.73 0855.32
2009/04/23 09:42:17.7    -130   -204   -108    243    265 212.5 -30.1  34108  288.68 0855.32
2009/04/23 09:42:17.8     -59   -184    -71    194    206 197.8 -25.4  34106  288.65 0855.32
2009/04/23 09:42:17.9    -109   -123    -18    165    167 221.7  -6.2  34106  288.67 0855.32
2009/04/23 09:42:18.0    -115   -108      2    159    160 226.8   1.0  34108  288.69 0855.32
2009/04/23 09:42:18.1    -151   -142      2    208    209 226.8   0.8  34114  288.79 0855.32
2009/04/23 09:42:18.2     -94   -149    -51    177    185 212.3 -16.0  34106  288.67 0855.32
2009/04/23 09:42:18.3    -108   -227     37    252    255 205.4   8.5  34116  288.81 0855.32
2009/04/23 09:42:18.5    -145   -246     -1    286    287 210.5  -0.3  34114  288.80 0855.32
2009/04/23 09:42:18.6    -125   -184    -80    223    236 214.2 -25.1  34112  288.76 0855.32
2009/04/23 09:42:18.7    -162   -115    -40    199    204 234.7 -11.6  34120  288.89 0855.32
2009/04/23 09:42:18.8    -130    -13     71    131    149 263.9  31.3  34120  288.89 0855.32
2009/04/23 09:42:18.9    -171     52     65    179    190 287.1  20.4  34126  288.99 0855.32
2009/04/23 09:42:19.0    -173     20      8    175    176 276.8   2.9  34128  289.02 0855.32
2009/04/23 09:42:19.1    -141    -16     89    142    167 263.4  35.2  34128  289.02 0855.32
2009/04/23 09:42:19.2    -136    -14     63    137    150 263.8  27.1  34128  289.02 0855.32
2009/04/23 09:42:19.3     -12    -37     81     40     90 198.3  72.4  34136  289.18 0855.32
2009/04/23 09:42:19.4      38   -112     23    119    122 161.3  11.1  34122  288.94 0855.32
2009/04/23 09:42:19.5      43   -132     51    140    149 161.7  20.9  34116  288.84 0855.32
2009/04/23 09:42:19.6     -14    -89     39     91     99 188.9  24.1  34120  288.89 0855.32
2009/04/23 09:42:19.7     -15    -58     41     61     73 195.2  36.5  34120  288.89 0855.31
2009/04/23 09:42:19.8     -85    -17      8     87     88 258.1   5.4  34122  288.94 0855.31
2009/04/23 09:42:19.9    -109     -9     13    110    111 264.8   6.9  34124  288.96 0855.31
2009/04/23 09:42:20.0    -136     41     77    143    162 286.8  30.8  34120  288.91 0855.31
2009/04/23 09:42:20.1    -191     57     55    200    208 286.6  15.6  34118  288.86 0855.31
2009/04/23 09:42:20.2    -138     27     63    141    154 281.4  26.2  34120  288.91 0855.31
2009/04/23 09:42:20.3    -184     -9     94    185    207 267.2  29.1  34124  288.97 0855.31
2009/04/23 09:42:20.4    -262    -16    -14    263    264 266.5  -3.1  34130  289.05 0855.31
2009/04/23 09:42:20.5    -199    -87   -101    218    240 246.5 -30.8  34128  289.03 0855.31
2009/04/23 09:42:20.6    -240    -52    -54    246    252 257.6 -12.4  34130  289.05 0855.31
2009/04/23 09:42:20.7    -230    -65    -39    240    244 254.1  -9.4  34138  289.19 0855.31
2009/04/23 09:42:20.8    -263    -58    -82    270    283 257.4 -17.0  34138  289.19 0855.31
2009/04/23 09:42:20.9    -225   -148    -41    270    274 236.7  -8.8  34136  289.15 0855.31
2009/04/23 09:42:21.0    -269   -170    -34    319    321 237.8  -6.2  34138  289.20 0855.31
2009/04/23 09:42:21.1    -252    -79    -79    265    276 252.5 -21.7  34134  289.14 0855.31
2009/04/23 09:42:21.2    -291    -92    -22    306    307 252.3  -4.1  34128  289.03 0855.31
2009/04/23 09:42:21.3    -262   -177     55    317    322 235.9  10.0  34122  288.93 0855.31
2009/04/23 09:42:21.4    -170   -169    -83    241    254 225.2 -24.3  34126  288.98 0855.31
2009/04/23 09:42:21.5     -26   -141    -71    144    160 190.7 -32.6  34126  289.01 0855.31
2009/04/23 09:42:21.6     -14    -80    -41     82     91 190.2 -32.6  34126  289.01 0855.31
2009/04/23 09:42:21.7      14   -133    -39    134    139 173.8 -21.2  34122  288.92 0855.29
2009/04/23 09:42:21.8       2   -186    -85    187    205 179.1 -30.8  34120  288.89 0855.29
2009/04/23 09:42:21.9    -100   -240     14    261    262 202.7   3.1  34126  288.98 0855.29
2009/04/23 09:42:22.0     -66   -192     -7    204    205 198.9  -2.2  34126  288.99 0855.29
2009/04/23 09:42:22.1     -26   -215     -8    217    218 187.1  -2.2  34122  288.94 0855.29
2009/04/23 09:42:22.2      22   -252     42    254    258 174.9   9.5  34118  288.87 0855.29
2009/04/23 09:42:22.3       8   -359     86    360    371 178.6  13.5  34120  288.91 0855.29
2009/04/23 09:42:22.4       3   -408    125    409    428 179.5  17.1  34116  288.82 0855.29
2009/04/23 09:42:22.5      19   -350    135    351    376 176.8  22.3  34122  288.94 0855.29
2009/04/23 09:42:22.6      16   -370    156    371    402 177.4  24.2  34122  288.93 0855.29
2009/04/23 09:42:22.7      49   -350    180    354    397 172.0  29.2  34126  288.98 0855.29
2009/04/23 09:42:22.8      78   -268    174    280    329 163.7  35.1  34122  288.93 0855.29
2009/04/23 09:42:22.9      82   -270    179    283    334 163.1  35.5  34124  288.95 0855.29
2009/04/23 09:42:23.0     110   -295    171    316    359 159.5  30.8  34120  288.91 0855.29
2009/04/23 09:42:23.1      77   -283    182    294    345 164.8  34.9  34122  288.93 0855.29
2009/04/23 09:42:23.2      62   -260    141    268    302 166.6  29.8  34124  288.95 0855.29
2009/04/23 09:42:23.3       7   -244    110    245    268 178.2  26.2  34126  289.00 0855.29
2009/04/23 09:42:23.4      38   -190    138    194    238 168.5  38.8  34126  288.99 0855.29
2009/04/23 09:42:23.5      21   -151    110    153    188 171.9  39.3  34126  289.01 0855.29
2009/04/23 09:42:23.6      48   -200    112    206    234 166.4  30.8  34126  289.01 0855.29
2009/04/23 09:42:23.7      20   -205    159    207    261 174.2  41.6  34130  289.05 0855.26
2009/04/23 09:42:23.8      21   -279    191    280    338 175.6  37.7  34128  289.02 0855.26
2009/04/23 09:42:23.9       0   -221    120    222    252 179.8  30.8  34122  288.93 0855.26
2009/04/23 09:42:24.0       7   -246    170    247    299 178.2  37.8  34122  288.93 0855.26
2009/04/23 09:42:24.1      -2   -259    236    260    351 180.5  46.9  34122  288.93 0855.26
2009/04/23 09:42:24.2     -48   -236    184    242    304 191.6  41.4  34122  288.92 0855.26
2009/04/23 09:42:24.3     -28   -197    109    200    227 188.1  31.3  34126  289.01 0855.26
2009/04/23 09:42:24.4     -19   -143     63    145    158 187.6  24.9  34124  288.96 0855.26
2009/04/23 09:42:24.5     -53    -83     42     99    107 213.0  23.6  34120  288.89 0855.26
2009/04/23 09:42:24.6    -205    -35   -190    209    282 260.1 -51.4  34112  288.75 0855.26
2009/04/23 09:42:24.7    -188    -11   -173    189    256 266.5 -51.9  34104  288.63 0855.26
2009/04/23 09:42:24.8    -127     -8   -116    128    172 266.1 -51.5  34112  288.75 0855.26
2009/04/23 09:42:24.9     -69     51    -99     86    131 306.4 -58.7  34098  288.53 0855.26
2009/04/23 09:42:25.0    -240   -180   -160    301    340 233.1 -34.9  34122  288.93 0855.26
2009/04/23 09:42:25.1    -273   -225    -56    354    359 230.5  -9.0  34116  288.81 0855.26
2009/04/23 09:42:25.2    -155   -228      3    276    277 214.3   0.7  34116  288.81 0855.26
2009/04/23 09:42:25.3    -116   -211      8    241    242 208.9   2.1  34114  288.78 0855.26
2009/04/23 09:42:25.4     -96   -328      8    342    343 196.4   1.5  34118  288.86 0855.26
2009/04/23 09:42:25.5    -104   -249     19    270    271 202.7   4.2  34106  288.66 0855.26
2009/04/23 09:42:25.6    -130   -233    -58    268    275 209.2 -12.4  34106  288.65 0855.26
2009/04/23 09:42:25.7      35   -376     -3    378    379 174.6  -0.6  34110  288.74 0855.26
2009/04/23 09:42:25.8     -38   -411    163    413    444 185.3  22.8  34112  288.75 0855.26
2009/04/23 09:42:25.9    -135   -442    142    463    485 197.0  17.1  34116  288.81 0855.26
2009/04/23 09:42:26.0     -32   -361    118    363    382 185.1  18.1  34118  288.86 0855.26
2009/04/23 09:42:26.1    -129   -217     59    253    260 210.7  13.1  34118  288.85 0855.26
2009/04/23 09:42:26.2    -195   -171     91    260    276 228.9  19.4  34120  288.88 0855.26
2009/04/23 09:42:26.3    -209   -286    247    355    432 216.1  38.3  34116  288.82 0855.26
2009/04/23 09:42:26.4    -273   -242     78    366    375 228.4  12.1  34126  288.98 0855.26
2009/04/23 09:42:26.5    -135    -26     60    138    150 259.0  25.1  34116  288.84 0855.26
2009/04/23 09:42:26.6      12   -222    237    223    325 176.9  52.0  34124  288.95 0855.26
2009/04/23 09:42:26.7     -15   -193    268    194    330 184.7  60.6  34120  288.90 0855.25
2009/04/23 09:42:26.8     -13   -123    245    124    274 186.2  71.1  34122  288.92 0855.25
2009/04/23 09:42:26.9       0    -67    189     68    200 180.0  79.7  34116  288.82 0855.25
2009/04/23 09:42:27.0    -118    -32    279    123    304 254.9  74.9  34116  288.81 0855.25
2009/04/23 09:42:27.1     186     38    350    190    398  78.3  69.3  34120  288.91 0855.25
2009/04/23 09:42:27.2     -76    138    352    158    385 331.1  74.2  34120  288.88 0855.25
2009/04/23 09:42:27.3      86    104    273    136    305  39.6  71.9  34112  288.76 0855.25
2009/04/23 09:42:27.4      65     65    358     93    369  45.0  85.5  34110  288.73 0855.25
2009/04/23 09:42:27.5     -99     92    312    136    340 313.1  75.2  34116  288.81 0855.25
2009/04/23 09:42:27.6     148    203    352    252    432  36.1  61.0  34090  288.40 0855.25
2009/04/23 09:42:27.7     160     70    377    175    415  66.3  73.5  34100  288.57 0855.25
2009/04/23 09:42:27.8     -27   -163    227    166    281 189.6  60.5  34112  288.75 0855.25
2009/04/23 09:42:27.9    -280   -172    213    329    391 238.5  36.0  34086  288.32 0855.25
2009/04/23 09:42:28.0    -153     77     84    172    191 296.6  27.4  34112  288.77 0855.25
2009/04/23 09:42:28.1      18    144    121    146    189   7.1  43.8  34112  288.75 0855.25
2009/04/23 09:42:28.2      16    381    110    382    398   2.5  16.1  34104  288.64 0855.25
2009/04/23 09:42:28.3      94    163    -59    189    197  30.1 -22.3  34108  288.69 0855.25
2009/04/23 09:42:28.4       0   -200   -135    201    242 180.2 -41.4  34114  288.79 0855.25
2009/04/23 09:42:28.5     101   -181   -194    208    284 150.8 -52.3  34116  288.81 0855.25
2009/04/23 09:42:28.6      52   -213   -206    220    301 166.2 -52.4  34106  288.65 0855.25
2009/04/23 09:42:28.7      46   -244   -180    249    307 169.3 -43.9  34108  288.70 0855.26
2009/04/23 09:42:28.8     -19   -429   -178    430    465 182.6 -28.2  34100  288.56 0855.26
2009/04/23 09:42:28.9    -182   -635   -185    661    687 196.0 -15.7  34102  288.58 0855.26
2009/04/23 09:42:29.0    -239   -618    -13    663    664 201.2  -1.2  34096  288.50 0855.26
2009/04/23 09:42:29.1     -28   -720   -153    721    738 182.3 -12.0  34100  288.54 0855.26
2009/04/23 09:42:29.2      48   -815   -191    817    839 176.6 -13.2  34100  288.57 0855.26
2009/04/23 09:42:29.3      73   -779   -201    783    809 174.6 -14.4  34104  288.61 0855.26
2009/04/23 09:42:29.4     148   -946   -274    958    996 171.1 -20.7  34098  288.52 0855.26
2009/04/23 09:42:29.5     258   -892   -317    929    981 163.9 -24.0  34102  288.60 0855.26
2009/04/23 09:42:29.6     349   -706   -235    788    822 153.7 -21.4  34100  288.55 0855.26
2009/04/23 09:42:29.7     447   -378   -150    586    606 130.2 -14.4  34092  288.42 0855.26
2009/04/23 09:42:29.8     196    -85    137    214    254 113.6  35.6  34086  288.31 0855.26
2009/04/23 09:42:29.9      81   -115      2    141    142 144.8   0.8  34102  288.58 0855.26
2009/04/23 09:42:30.0      40   -286    -27    289    291 172.0  -5.4  34098  288.53 0855.26
2009/04/23 09:42:30.1     304   -161     -4    345    346 118.0  -0.7  34098  288.52 0855.26
2009/04/23 09:42:30.2     174   -236    -37    294    297 143.5  -7.3  34100  288.54 0855.26
2009/04/23 09:42:30.3     161   -214    -38    269    272 143.0  -8.2  34098  288.51 0855.26
2009/04/23 09:42:30.4     139   -101     78    172    188 126.0  26.4  34098  288.52 0855.26
2009/04/23 09:42:30.5     -20     32     88     39     96 327.5  74.5  34106  288.67 0855.26
2009/04/23 09:42:30.6    -162     12     56    163    173 274.4  19.2  34104  288.62 0855.26
2009/04/23 09:42:30.7    -290    -89    -64    304    311 252.9 -12.0  34104  288.61 0855.27
2009/04/23 09:42:30.8    -210   -138    -75    252    264 236.7 -16.6  34098  288.53 0855.27
2009/04/23 09:42:30.9    -230    -14   -266    231    352 266.5 -59.0  34092  288.43 0855.27
2009/04/23 09:42:31.0    -311     28   -108    313    332 275.2 -19.1  34104  288.61 0855.27
2009/04/23 09:42:31.1    -218    -14   -134    219    256 266.3 -38.8  34102  288.58 0855.27
2009/04/23 09:42:31.2     -27    -14    -25     31     39 242.9 -48.1  34098  288.53 0855.27
2009/04/23 09:42:31.3      23   -300    260    301    397 175.5  45.2  34098  288.52 0855.27
2009/04/23 09:42:31.4      45   -537    377    539    657 175.2  38.5  34094  288.45 0855.27
2009/04/23 09:42:31.5      65   -532    403    536    670 173.0  40.7  34100  288.55 0855.27
2009/04/23 09:42:31.6     -29   -652    348    653    739 182.6  30.3  34104  288.62 0855.27
2009/04/23 09:42:31.7     -50   -700    173    702    724 184.1  13.9  34100  288.56 0855.27
2009/04/23 09:42:31.8     -24   -474    346    475    587 183.0  39.7  34094  288.47 0855.27
2009/04/23 09:42:31.9       5   -650    383    651    755 179.5  33.3  34098  288.52 0855.27
2009/04/23 09:42:32.0       5   -597    399    598    718 179.5  36.9  34094  288.44 0855.27
2009/04/23 09:42:32.1     -68   -675    283    679    735 185.8  24.1  34094  288.47 0855.27
2009/04/23 09:42:32.2    -101   -656    296    664    726 188.8  25.7  34090  288.37 0855.27
2009/04/23 09:42:32.3     -85   -643    207    649    682 187.6  17.7  34088  288.34 0855.27
2009/04/23 09:42:32.4      50   -725    317    727    793 176.0  25.1  34094  288.47 0855.27
2009/04/23 09:42:32.5      60   -620    396    624    739 174.4  35.5  34100  288.57 0855.27
2009/04/23 09:42:32.6      -8   -544    444    545    702 180.9  43.3  34094  288.47 0855.27
2009/04/23 09:42:32.7    -128   -485    428    502    659 194.8  44.8  34100  288.56 0855.28
2009/04/23 09:42:32.8    -196   -404    346    450    567 205.9  41.4  34100  288.57 0855.28
2009/04/23 09:42:32.9    -190   -420    339    462    573 204.4  39.8  34098  288.52 0855.28
2009/04/23 09:42:33.0    -111   -398    470    414    626 195.6  54.3  34094  288.47 0855.28
2009/04/23 09:42:33.1    -142   -422    419    446    611 198.7  48.0  34096  288.48 0855.28
2009/04/23 09:42:33.2    -240   -378    455    448    638 212.4  50.6  34094  288.46 0855.28
2009/04/23 09:42:33.3    -168   -586    182    610    637 196.1  16.7  34102  288.59 0855.28
2009/04/23 09:42:33.4    -243   -607    141    654    670 201.8  12.2  34088  288.36 0855.28
2009/04/23 09:42:33.5    -304   -513     30    597    598 210.7   2.9  34094  288.46 0855.28
2009/04/23 09:42:33.6    -354   -442    100    567    576 218.7  10.0  34088  288.36 0855.28
2009/04/23 09:42:33.7    -280   -394    157    484    509 215.5  18.0  34098  288.52 0855.28
2009/04/23 09:42:33.8    -173   -338     20    380    381 207.2   3.1  34090  288.37 0855.28
2009/04/23 09:42:33.9    -186   -465    131    502    519 201.8  14.7  34104  288.62 0855.28
2009/04/23 09:42:34.0    -180   -502     94    534    543 199.8  10.0  34102  288.58 0855.28
2009/04/23 09:42:34.1    -224   -546     30    591    592 202.3   2.9  34102  288.59 0855.28
2009/04/23 09:42:34.2     -29   -632    135    633    648 182.7  12.1  34086  288.32 0855.28
2009/04/23 09:42:34.3    -168   -371     48    408    411 204.3   6.8  34102  288.60 0855.28
2009/04/23 09:42:34.4     -97   -292    -64    308    315 198.5 -11.9  34102  288.58 0855.28
2009/04/23 09:42:34.5     -56   -256     79    263    275 192.5  16.8  34100  288.56 0855.28
2009/04/23 09:42:34.6    -172   -269     40    320    323 212.6   7.2  34098  288.53 0855.28
2009/04/23 09:42:34.7    -175   -342      8    385    386 207.2   1.2  34100  288.57 0855.30
2009/04/23 09:42:34.8    -126   -425     86    444    453 196.5  11.0  34098  288.51 0855.30
2009/04/23 09:42:34.9    -245   -269     78    365    374 222.3  12.2  34088  288.35 0855.30
2009/04/23 09:42:35.0    -153   -351    159    384    415 203.6  23.8  34100  288.55 0855.30
2009/04/23 09:42:35.1     -56   -400     72    405    412 188.0  10.1  34102  288.58 0855.30
2009/04/23 09:42:35.2     -95   -389    123    401    420 193.8  17.0  34102  288.58 0855.30
2009/04/23 09:42:35.3      64   -413    126    419    438 171.1  16.8  34096  288.48 0855.30
2009/04/23 09:42:35.4      54    -82    208     99    230 146.6  72.9  34102  288.58 0855.30
2009/04/23 09:42:35.5      96   -148    243    177    300 146.8  60.5  34100  288.56 0855.30
2009/04/23 09:42:35.6     -15    -77    220     79    233 191.6  79.9  34104  288.62 0855.30
2009/04/23 09:42:35.7      -1   -120    230    121    259 180.9  70.0  34100  288.57 0855.30
2009/04/23 09:42:35.8     -23    -68    183     72    196 198.7  77.4  34102  288.58 0855.30
2009/04/23 09:42:35.9    -233   -154    114    280    302 236.5  23.1  34096  288.49 0855.30
2009/04/23 09:42:36.0    -266   -102    103    286    303 248.9  20.4  34096  288.49 0855.30
2009/04/23 09:42:36.1    -302   -131     98    330    345 246.5  16.5  34100  288.55 0855.30
2009/04/23 09:42:36.2    -561    -50   -134    564    580 264.8 -13.4  34106  288.66 0855.30
2009/04/23 09:42:36.3    -530    -11    -67    531    536 268.8  -7.2  34104  288.63 0855.30
2009/04/23 09:42:36.4    -497    119    -74    512    518 283.5  -8.2  34102  288.59 0855.30
2009/04/23 09:42:36.5    -205     26    -67    207    217 277.5 -23.3  34106  288.67 0855.30
2009/04/23 09:42:36.6       7   -250    -69    251    261 178.2 -15.5  34102  288.58 0855.30
2009/04/23 09:42:36.7     -61   -278    -18    285    286 192.4  -3.7  34102  288.59 0855.32
2009/04/23 09:42:36.8     -82    -92    -43    124    132 221.9 -19.1  34102  288.58 0855.32
2009/04/23 09:42:36.9    -111   -180    -26    212    214 211.6  -7.2  34098  288.53 0855.32
2009/04/23 09:42:37.0    -197   -168    -98    260    277 229.6 -26.1  34098  288.53 0855.32
2009/04/23 09:42:37.1    -297   -180   -124    348    370 238.7 -19.7  34096  288.50 0855.32
2009/04/23 09:42:37.2    -218   -374    -21    433    434 210.2  -2.8  34098  288.51 0855.32
2009/04/23 09:42:37.3    -241   -291    -11    378    379 219.6  -1.8  34100  288.55 0855.32
2009/04/23 09:42:37.4    -264   -174    -47    317    321 236.7  -8.6  34102  288.58 0855.32
2009/04/23 09:42:37.5    -231   -209   -105    312    330 227.8 -18.7  34102  288.59 0855.32
2009/04/23 09:42:37.6    -106   -350    -60    366    371 196.9  -9.4  34096  288.49 0855.32
2009/04/23 09:42:37.7      -7   -371    -27    372    373 181.1  -4.2  34094  288.45 0855.32
2009/04/23 09:42:37.8       3   -327    -45    328    332 179.4  -7.9  34096  288.50 0855.32
2009/04/23 09:42:37.9      39   -335     11    338    339 173.3   1.9  34094  288.47 0855.32
2009/04/23 09:42:38.0      48   -466    135    469    489 174.0  16.0  34094  288.47 0855.32
2009/04/23 09:42:38.1      75   -439     72    446    452 170.2   9.2  34098  288.51 0855.32
2009/04/23 09:42:38.2      65   -365     -4    371    372 169.8  -0.7  34100  288.55 0855.32
2009/04/23 09:42:38.3      81   -464      5    472    473 170.1   0.7  34092  288.42 0855.32
2009/04/23 09:42:38.4      29   -542     65    543    547 176.9   6.9  34096  288.50 0855.32
2009/04/23 09:42:38.5      56   -475    146    479    501 173.2  17.0  34096  288.49 0855.32
2009/04/23 09:42:38.6      66   -492    154    497    521 172.3  17.3  34096  288.49 0855.32
2009/04/23 09:42:38.7     -47   -450     54    453    457 186.1   6.8  34096  288.50 0855.32
2009/04/23 09:42:38.8     -28   -521    -28    522    523 183.2  -3.1  34098  288.53 0855.32
2009/04/23 09:42:38.9      74   -524    -20    530    531 171.9  -2.2  34100  288.55 0855.32
2009/04/23 09:42:39.0     -36   -470    -13    472    473 184.4  -1.6  34100  288.57 0855.32
2009/04/23 09:42:39.1      51   -473     31    476    478 173.8   3.8  34096  288.49 0855.32
2009/04/23 09:42:39.2      37   -408     31    410    412 174.7   4.3  34096  288.50 0855.32
2009/04/23 09:42:39.3     -45   -358    -25    361    362 187.3  -4.1  34096  288.49 0855.32
2009/04/23 09:42:39.4     -42   -333    -51    336    340 187.2  -8.7  34096  288.50 0855.32
2009/04/23 09:42:39.5    -101   -299   -114    316    335 198.7 -25.1  34100  288.55 0855.32
2009/04/23 09:42:39.6      50   -248    -86    253    268 168.5 -18.9  34100  288.56 0855.32
2009/04/23 09:42:39.7      36   -302    -11    305    306 173.1  -2.2  34098  288.53 0855.32
2009/04/23 09:42:39.8     -17   -442     95    443    454 182.3  12.2  34094  288.46 0855.32
2009/04/23 09:42:39.9     -20   -438     96    439    450 182.7  12.4  34094  288.45 0855.32
2009/04/23 09:42:40.0     -42   -262    210    266    338 189.1  42.3  34100  288.56 0855.32
2009/04/23 09:42:40.1     -51   -326    172    331    373 189.0  29.5  34100  288.55 0855.32
2009/04/23 09:42:40.2     -44   -331    144    334    363 187.7  25.0  34100  288.54 0855.32
2009/04/23 09:42:40.3    -102   -334    110    350    367 197.0  17.5  34100  288.54 0855.32
2009/04/23 09:42:40.4     -34   -348    121    350    371 185.6  19.2  34100  288.55 0855.32
2009/04/23 09:42:40.5     -45   -266    106    270    290 189.6  22.8  34094  288.46 0855.32
2009/04/23 09:42:40.6    -105   -250     18    272    273 202.7   3.9  34102  288.58 0855.32
2009/04/23 09:42:40.7     -48   -132     80    141    162 200.1  32.1  34094  288.45 0855.33
2009/04/23 09:42:40.8     -97    -87     78    131    152 227.8  33.5  34098  288.53 0855.33
2009/04/23 09:42:40.9     113     23     40    116    123  78.6  19.4  34100  288.55 0855.33
2009/04/23 09:42:41.0      72      1    -14     73     75  89.2 -11.3  34096  288.50 0855.33
2009/04/23 09:42:41.1      45    -36     44     58     72 128.6  41.7  34096  288.50 0855.33
2009/04/23 09:42:41.2      -9    123     65    124    140 355.5  29.8  34102  288.60 0855.33
2009/04/23 09:42:41.3     -57     75     57     95    110 322.6  34.4  34104  288.64 0855.33
2009/04/23 09:42:41.4       1   -103    143    104    176 179.0  60.5  34110  288.74 0855.33
2009/04/23 09:42:41.5     -62   -206     16    216    217 196.7   4.4  34098  288.53 0855.33
2009/04/23 09:42:41.6    -122   -159    118    201    233 217.6  33.4  34104  288.62 0855.33
2009/04/23 09:42:41.7     -15   -229    104    230    252 183.8  26.2  34104  288.63 0855.33
2009/04/23 09:42:41.8       5   -206    109    207    233 178.6  30.2  34102  288.58 0855.33
2009/04/23 09:42:41.9      78   -243    108    256    277 162.2  24.2  34104  288.61 0855.33
2009/04/23 09:42:42.0      42   -274    171    278    326 171.1  34.6  34102  288.59 0855.33
2009/04/23 09:42:42.1      58   -348    161    353    387 170.4  26.4  34106  288.66 0855.33
2009/04/23 09:42:42.2      68   -288    135    297    326 166.6  26.2  34100  288.54 0855.33
2009/04/23 09:42:42.3     125   -303     16    328    329 157.6   2.8  34102  288.59 0855.33
2009/04/23 09:42:42.4     135   -285    -33    316    318 154.7  -6.1  34098  288.53 0855.33
2009/04/23 09:42:42.5     171   -206    -85    269    283 140.3 -17.6  34098  288.53 0855.33
2009/04/23 09:42:42.6     135   -190    -77    234    246 144.6 -23.6  34098  288.53 0855.33
2009/04/23 09:42:42.7      85   -160    -51    182    190 152.1 -15.8  34098  288.53 0855.33
2009/04/23 09:42:42.8      73   -163    -31    179    182 155.9 -10.1  34100  288.57 0855.33
2009/04/23 09:42:42.9      67   -226     82    236    250 163.5  19.2  34100  288.56 0855.33
2009/04/23 09:42:43.0     101   -204     94    228    246 153.5  23.8  34100  288.56 0855.33
2009/04/23 09:42:43.1      58   -244    114    251    275 166.6  26.2  34102  288.58 0855.33
2009/04/23 09:42:43.2      29   -203     93    206    226 171.8  26.2  34100  288.57 0855.33
2009/04/23 09:42:43.3     -14   -212    186    213    282 184.0  45.8  34104  288.61 0855.33
2009/04/23 09:42:43.4     -99   -149    199    179    267 213.6  53.3  34100  288.56 0855.33
2009/04/23 09:42:43.5      21   -182    137    184    229 173.3  40.1  34106  288.65 0855.33
2009/04/23 09:42:43.6     -69   -152    127    168    210 204.5  41.2  34102  288.58 0855.33
2009/04/23 09:42:43.7     -59   -164     70    175    188 200.0  23.0  34104  288.62 0855.33
2009/04/23 09:42:43.8       0   -161     82    162    181 180.0  28.7  34108  288.70 0855.33
2009/04/23 09:42:43.9      20   -176     -3    178    179 173.3  -1.2  34102  288.60 0855.33
2009/04/23 09:42:44.0       0   -181   -137    182    227 180.2 -45.1  34102  288.60 0855.33
2009/04/23 09:42:44.1      -7   -197   -151    198    249 182.2 -45.6  34102  288.58 0855.33
2009/04/23 09:42:44.2     -11   -220   -120    221    251 182.9 -35.4  34108  288.70 0855.33
2009/04/23 09:42:44.3     -84   -250    -78    264    276 198.7 -16.5  34102  288.59 0855.33
2009/04/23 09:42:44.4    -132   -257   -126    289    315 207.2 -29.4  34106  288.66 0855.33
2009/04/23 09:42:44.5    -102   -168   -118    197    229 211.2 -38.1  34104  288.64 0855.33
2009/04/23 09:42:44.6    -162   -185    -68    247    257 221.2 -15.4  34112  288.76 0855.33
2009/04/23 09:42:44.7    -180   -178    -62    254    262 225.3 -13.9  34114  288.78 0855.33
2009/04/23 09:42:44.8    -186   -266    -47    325    329 215.0  -8.4  34112  288.76 0855.33
2009/04/23 09:42:44.9    -268   -487    -30    556    557 208.9  -3.1  34106  288.65 0855.33
2009/04/23 09:42:45.1    -201   -582   -152    616    635 199.1 -13.9  34102  288.59 0855.33
2009/04/23 09:42:45.1    -264   -373    -63    458    463 215.3  -7.9  34104  288.61 0855.33
2009/04/23 09:42:45.3    -287   -517    -52    592    595 209.0  -5.1  34098  288.51 0855.33
2009/04/23 09:42:45.3     -68   -493    -19    498    499 187.9  -2.2  34100  288.57 0855.33
2009/04/23 09:42:45.4      58   -472     90    476    485 172.9  10.7  34102  288.59 0855.33
2009/04/23 09:42:45.6      58   -418    131    423    443 172.0  17.3  34098  288.51 0855.33
2009/04/23 09:42:45.7     136   -335    208    362    417 157.9  32.4  34102  288.59 0855.33
2009/04/23 09:42:45.8     221   -420    167    475    503 152.3  20.0  34108  288.68 0855.33
2009/04/23 09:42:45.9     262   -312   -154    408    436 140.0 -26.0  34104  288.61 0855.33
2009/04/23 09:42:46.0     119   -311    -99    334    349 159.1 -16.5  34104  288.62 0855.33
2009/04/23 09:42:46.1     217   -341    -78    405    413 147.5 -11.0  34104  288.63 0855.33
2009/04/23 09:42:46.2     115   -210    -17    240    241 151.3  -4.1  34104  288.61 0855.33
2009/04/23 09:42:46.3      85   -251     27    266    268 161.3   5.9  34104  288.61 0855.33
2009/04/23 09:42:46.4     110   -284    106    305    324 158.8  19.2  34104  288.63 0855.33
2009/04/23 09:42:46.5      93   -257    104    274    293 160.0  22.0  34100  288.54 0855.33
2009/04/23 09:42:46.6     123   -280    111    306    325 156.3  20.7  34104  288.61 0855.33
2009/04/23 09:42:46.7      58   -313    159    319    356 169.5  28.6  34102  288.60 0855.33
2009/04/23 09:42:46.8      58   -199    144    208    252 163.7  38.0  34104  288.63 0855.33
2009/04/23 09:42:46.9      70   -174    139    188    233 157.9  39.9  34106  288.65 0855.33
2009/04/23 09:42:47.0     193   -218     68    292    300 138.6  13.2  34106  288.65 0855.33
2009/04/23 09:42:47.1     136   -254    -37    289    292 151.9  -7.3  34104  288.63 0855.33
2009/04/23 09:42:47.2      98   -224    -50    245    251 156.4 -11.6  34106  288.65 0855.33
2009/04/23 09:42:47.3      55   -234    -67    241    251 166.6 -15.5  34104  288.63 0855.33
2009/04/23 09:42:47.4      35   -203    -86    207    224 170.0 -27.8  34106  288.65 0855.33
2009/04/23 09:42:47.5     107   -217    -72    242    253 153.7 -16.6  34104  288.61 0855.33
2009/04/23 09:42:47.6     116   -202    -42    234    238 150.1 -10.3  34104  288.63 0855.33
2009/04/23 09:42:47.7      84   -165    -23    186    188 153.0  -7.3  34106  288.67 0855.33
2009/04/23 09:42:47.8      84   -147     60    170    181 150.4  19.4  34104  288.62 0855.33
2009/04/23 09:42:47.9      39   -208    130    212    248 169.3  34.5  34106  288.65 0855.33
2009/04/23 09:42:48.0       0   -271    139    272    305 180.0  29.2  34110  288.73 0855.33
2009/04/23 09:42:48.1      32   -238    140    241    278 172.2  32.9  34112  288.76 0855.33
2009/04/23 09:42:48.2      15   -196    110    197    225 175.5  31.4  34106  288.65 0855.33
2009/04/23 09:42:48.3      97   -262     57    280    286 159.5  11.6  34098  288.53 0855.33
2009/04/23 09:42:48.4    -217   -179    -29    282    284 230.5  -6.0  34106  288.66 0855.33
2009/04/23 09:42:48.5     -76   -451     83    458    466 189.6  10.4  34112  288.75 0855.33
2009/04/23 09:42:48.6    -178   -320     16    367    368 209.1   2.5  34108  288.69 0855.33
2009/04/23 09:42:48.7    -163   -239      3    290    291 214.3   0.7  34112  288.75 0855.33
2009/04/23 09:42:48.8      74   -274    152    284    322 164.9  30.6  34106  288.66 0855.33
2009/04/23 09:42:48.9      28   -307    175    309    355 174.7  32.1  34116  288.82 0855.33
2009/04/23 09:42:49.0     133   -407    149    429    455 161.9  19.2  34114  288.78 0855.33
2009/04/23 09:42:49.1     178   -393    343    432    551 155.6  42.6  34118  288.86 0855.33
2009/04/23 09:42:49.2     190   -420    313    462    558 155.6  37.4  34114  288.80 0855.33
2009/04/23 09:42:49.3     264   -433    326    508    603 148.6  35.6  34110  288.71 0855.33
2009/04/23 09:42:49.4     224   -318    291    390    486 144.8  40.6  34114  288.78 0855.33
2009/04/23 09:42:49.5     206   -334    261    393    471 148.4  36.7  34112  288.75 0855.33
2009/04/23 09:42:49.6     100   -253     58    273    280 158.4  12.1  34108  288.68 0855.33
2009/04/23 09:42:49.7     194   -188     35    271    274 134.0   7.5  34108  288.68 0855.33
2009/04/23 09:42:49.8     104   -177     71    206    219 149.5  19.2  34108  288.70 0855.34
2009/04/23 09:42:49.9      92   -145     53    173    181 147.5  17.1  34108  288.70 0855.34
2009/04/23 09:42:50.0       5   -226    -54    227    234 178.6 -13.4  34106  288.65 0855.34
2009/04/23 09:42:50.1     -17   -275    119    276    300 183.6  24.9  34110  288.71 0855.34
2009/04/23 09:42:50.2    -130   -304    111    331    350 203.3  18.6  34108  288.69 0855.34
2009/04/23 09:42:50.3    -119   -311     78    334    344 201.0  13.3  34110  288.72 0855.34
2009/04/23 09:42:50.4     -78   -263     99    275    292 196.5  20.7  34108  288.70 0855.34
2009/04/23 09:42:50.5      59   -108    122    124    173 151.1  50.2  34114  288.80 0855.34
2009/04/23 09:42:50.6     -26    -66     19     72     75 201.9  15.2  34118  288.86 0855.34
2009/04/23 09:42:50.7    -191   -144     57    240    247 232.9  13.5  34110  288.71 0855.34
2009/04/23 09:42:50.8    -207    -90     -6    226    227 246.4  -1.6  34110  288.74 0855.34
2009/04/23 09:42:50.9    -158    -88      0    181    182 240.9   0.0  34112  288.75 0855.34
2009/04/23 09:42:51.0    -172    -78    -24    189    191 245.6  -7.3  34108  288.70 0855.34
2009/04/23 09:42:51.1    -161    -94    -24    187    189 239.6  -7.3  34110  288.74 0855.34
2009/04/23 09:42:51.2    -177   -105    -16    206    207 239.3  -4.6  34112  288.75 0855.34
2009/04/23 09:42:51.3    -210   -143    -33    255    258 235.6  -7.5  34110  288.73 0855.34
2009/04/23 09:42:51.4     -94   -119     68    152    166 218.3  25.9  34106  288.67 0855.34
2009/04/23 09:42:51.5      36   -164     82    168    186 167.5  27.4  34112  288.77 0855.34
2009/04/23 09:42:51.6     128   -243     64    275    283 152.1  13.2  34112  288.76 0855.34
2009/04/23 09:42:51.7      58   -285     24    292    294 168.4   4.9  34110  288.71 0855.34
2009/04/23 09:42:51.8      49   -255     19    260    261 169.1   4.2  34110  288.73 0855.34
2009/04/23 09:42:51.9      48   -239    -27    244    246 168.5  -6.5  34110  288.73 0855.34
2009/04/23 09:42:52.0     101   -188    -70    214    226 151.7 -18.3  34112  288.75 0855.34
2009/04/23 09:42:52.1      -1   -126    -84    127    152 180.9 -40.4  34112  288.77 0855.34
2009/04/23 09:42:52.2    -105    -93   -108    141    177 228.6 -45.8  34122  288.94 0855.34
2009/04/23 09:42:52.3    -180    -33    -99    184    208 259.4 -35.0  34120  288.89 0855.34
2009/04/23 09:42:52.4     -39     -3   -104     40    111 265.6 -82.6  34126  288.99 0855.34
2009/04/23 09:42:52.5     -64    -39   -120     76    142 238.5 -69.1  34124  288.96 0855.34
2009/04/23 09:42:52.6     -39      0   -124     40    130 270.0 -85.1  34124  288.97 0855.34
2009/04/23 09:42:52.7     -76     -2   -122     77    144 268.3 -69.1  34120  288.89 0855.34
2009/04/23 09:42:52.8     -48     19    -81     52     96 291.7 -69.0  34122  288.92 0855.34
2009/04/23 09:42:52.9     -67    -27    -78     73    106 248.2 -56.5  34118  288.87 0855.34
2009/04/23 09:42:53.0       2    -90    -85     91    124 178.2 -52.9  34120  288.91 0855.34
2009/04/23 09:42:53.1      28   -140    -51    143    152 168.5 -19.7  34118  288.86 0855.34
2009/04/23 09:42:53.2      46   -164    -31    171    174 164.2 -10.3  34118  288.87 0855.34
2009/04/23 09:42:53.3      47   -184     -3    191    192 165.5  -1.1  34116  288.84 0855.34
2009/04/23 09:42:53.4      27   -202      9    204    205 172.2   2.8  34114  288.80 0855.34
2009/04/23 09:42:53.5       8   -177    -62    178    189 177.3 -19.4  34114  288.80 0855.34
2009/04/23 09:42:53.6     -46   -137    -60    145    156 198.7 -28.2  34120  288.89 0855.34
2009/04/23 09:42:53.7     -33   -140    -74    144    161 193.3 -33.7  34126  288.99 0855.34
2009/04/23 09:42:53.8      -4   -230    -69    231    242 181.1 -16.8  34122  288.93 0855.35
2009/04/23 09:42:53.9       0   -249    -71    250    259 180.0 -20.7  34116  288.81 0855.35
2009/04/23 09:42:54.0      56   -296    -32    302    304 169.3  -6.2  34114  288.78 0855.35
2009/04/23 09:42:54.1     130   -170      9    215    216 142.6   2.5  34114  288.79 0855.35
2009/04/23 09:42:54.2     211   -221     38    306    309 136.3   7.2  34114  288.80 0855.35
2009/04/23 09:42:54.3     260   -330    -71    421    427 141.7  -9.6  34114  288.78 0855.35
2009/04/23 09:42:54.4     272   -328    -26    427    428 140.3  -3.5  34114  288.78 0855.35
2009/04/23 09:42:54.5     220   -258    -30    340    342 139.5  -5.2  34110  288.74 0855.35
2009/04/23 09:42:54.6     220   -194      8    294    295 131.4   1.7  34108  288.70 0855.35
2009/04/23 09:42:54.7     230   -221     24    320    321 133.8   4.3  34114  288.78 0855.35
2009/04/23 09:42:54.8     261   -200     28    330    332 127.5   4.9  34110  288.72 0855.35
2009/04/23 09:42:54.9     210   -143     -9    255    256 124.4  -2.2  34114  288.80 0855.35
2009/04/23 09:42:55.0     196   -127     41    234    238 123.1  10.1  34118  288.85 0855.35
2009/04/23 09:42:55.1     165   -120     46    205    211 126.0  12.6  34116  288.82 0855.35
2009/04/23 09:42:55.2     172   -144     78    225    239 129.8  19.2  34118  288.85 0855.35
2009/04/23 09:42:55.3     151   -151     87    214    231 135.0  23.1  34116  288.84 0855.35
2009/04/23 09:42:55.4     115   -124     91    170    192 137.0  30.6  34112  288.75 0855.35
2009/04/23 09:42:55.5      72    -82    115    110    159 139.0  51.2  34120  288.89 0855.35
2009/04/23 09:42:55.6      88    -70     76    113    136 128.6  37.0  34122  288.92 0855.35
2009/04/23 09:42:55.7      54   -150    102    160    189 160.0  35.6  34116  288.84 0855.35
2009/04/23 09:42:55.8      61   -238     48    246    251 165.5  11.1  34116  288.83 0855.37
2009/04/23 09:42:55.9      22   -230     80    232    246 174.4  19.2  34126  288.98 0855.37
2009/04/23 09:42:56.0     -21   -209     75    211    225 185.8  19.6  34124  288.96 0855.37
2009/04/23 09:42:56.1      13   -220    -24    221    223 176.6  -6.2  34118  288.87 0855.37
2009/04/23 09:42:56.2     -84   -126    -82    152    172 213.8 -35.2  34116  288.84 0855.37
2009/04/23 09:42:56.3     -51   -151    -90    160    183 198.7 -36.3  34118  288.86 0855.37
2009/04/23 09:42:56.4     -29   -161   -131    164    209 190.2 -47.4  34112  288.75 0855.37
2009/04/23 09:42:56.5     102   -166     -3    196    197 148.4  -1.2  34116  288.84 0855.37
2009/04/23 09:42:56.6      27   -217     78    219    232 172.9  20.2  34116  288.82 0855.37
2009/04/23 09:42:56.7     106   -279     18    299    300 159.1   3.6  34114  288.80 0855.37
2009/04/23 09:42:56.8     163   -318     84    358    368 152.9  13.2  34110  288.74 0855.37
2009/04/23 09:42:56.9      96   -316    131    331    355 163.0  22.9  34110  288.74 0855.37
2009/04/23 09:42:57.0     107   -281    120    301    324 159.1  22.9  34112  288.75 0855.37
2009/04/23 09:42:57.1     100   -378     95    392    404 165.1  13.7  34110  288.72 0855.37
2009/04/23 09:42:57.2     104   -363     62    378    384 164.0   9.4  34112  288.77 0855.37
2009/04/23 09:42:57.3     134   -313     63    341    347 156.7  10.6  34112  288.77 0855.37
2009/04/23 09:42:57.4      29   -342      8    344    345 175.1   1.5  34112  288.77 0855.37
2009/04/23 09:42:57.5      61   -322     34    328    330 169.1   6.1  34120  288.88 0855.37
2009/04/23 09:42:57.6      49   -276    108    281    301 169.8  22.1  34112  288.76 0855.37
2009/04/23 09:42:57.7      31   -289    109    291    310 173.8  21.3  34114  288.80 0855.37
2009/04/23 09:42:57.8      58   -310    170    316    358 169.4  30.7  34116  288.82 0855.37
2009/04/23 09:42:57.9     118   -301    189    324    375 158.6  32.9  34112  288.77 0855.37
2009/04/23 09:42:58.0      92   -308    202    322    380 163.3  35.3  34116  288.81 0855.37
2009/04/23 09:42:58.1     165   -280    217    325    390 149.5  36.9  34116  288.82 0855.37
2009/04/23 09:42:58.2      93   -190    199    212    290 153.7  48.0  34116  288.83 0855.37
2009/04/23 09:42:58.3     104   -282    229    301    378 159.7  41.2  34116  288.84 0855.37
2009/04/23 09:42:58.4      -7   -193    282    194    342 182.2  62.4  34114  288.78 0855.37
2009/04/23 09:42:58.5      58     22    159     63    171  69.2  77.4  34124  288.96 0855.37
2009/04/23 09:42:58.6     263     77    216    275    349  73.6  42.2  34114  288.78 0855.37
2009/04/23 09:42:58.7     186    118    241    221    326  57.5  52.9  34118  288.85 0855.37
2009/04/23 09:42:58.8      91    125    173    155    232  36.0  53.5  34120  288.89 0855.37
2009/04/23 09:42:58.9      -7     21     88     23     90 341.5  85.9  34124  288.97 0855.37
2009/04/23 09:42:59.0     -76    111    111    135    174 325.7  43.7  34116  288.82 0855.37
2009/04/23 09:42:59.1     -88    243    140    259    294 340.0  30.8  34114  288.80 0855.37
2009/04/23 09:42:59.2    -138    189    -30    235    237 323.9  -7.3  34116  288.81 0855.37
2009/04/23 09:42:59.3     -84    157    -33    179    183 331.9 -10.5  34118  288.86 0855.37
2009/04/23 09:42:59.4     -75    184     45    199    205 337.7  12.9  34116  288.82 0855.37
2009/04/23 09:42:59.5     -58    158    111    169    202 339.7  36.3  34116  288.84 0855.37
2009/04/23 09:42:59.6    -106    138    126    175    215 322.4  39.5  34116  288.84 0855.37
2009/04/23 09:42:59.7    -165     18     15    167    168 276.4   5.4  34114  288.80 0855.37
2009/04/23 09:42:59.8    -196     36     84    200    216 280.6  24.1  34114  288.79 0855.36
2009/04/23 09:42:59.9    -142     57     87    154    176 291.8  31.6  34116  288.84 0855.36
2009/04/23 09:43:00.0    -134     42    107    141    177 287.7  41.2  34122  288.92 0855.36
2009/04/23 09:43:00.1     -52     26    104     59    119 297.1  68.3  34132  289.09 0855.36
2009/04/23 09:43:00.2     -50    -10     88     52    102 258.5  66.8  34134  289.13 0855.36
2009/04/23 09:43:00.3     -47    -47     97     67    117 225.0  62.1  34132  289.11 0855.36
2009/04/23 09:43:00.4     -74    -79     34    109    115 223.2  17.3  34124  288.97 0855.36
2009/04/23 09:43:00.5     -82    -56     16    100    102 235.4   9.5  34124  288.96 0855.36
2009/04/23 09:43:00.6     -47    -15     31     50     58 251.8  35.5  34128  289.02 0855.36
2009/04/23 09:43:00.7     -21    -47     70     52     87 204.5  59.4  34132  289.09 0855.36
2009/04/23 09:43:00.8     -57    -58     94     82    124 224.5  54.3  34132  289.09 0855.36
2009/04/23 09:43:00.9     -92   -111    157    145    213 219.6  52.2  34122  288.92 0855.36
2009/04/23 09:43:01.0     -86    -84    147    121    190 225.6  56.4  34126  289.01 0855.36
2009/04/23 09:43:01.1     -32    -23    122     40    128 234.0  80.7  34130  289.08 0855.36
2009/04/23 09:43:01.2     -47      2     69     48     84 272.6  62.1  34130  289.06 0855.36
2009/04/23 09:43:01.3     -25     40     77     48     90 328.4  64.7  34126  288.99 0855.36
2009/04/23 09:43:01.4     -39    150    105    156    188 345.3  37.0  34122  288.94 0855.36
2009/04/23 09:43:01.5     -10    132     67    133    148 355.6  28.7  34122  288.94 0855.36
2009/04/23 09:43:01.6     -16     98    104    100    144 350.2  50.7  34124  288.96 0855.36
2009/04/23 09:43:01.7     -45    -13     34     48     58 253.2  38.6  34132  289.11 0855.36
2009/04/23 09:43:01.8       6     16     27     18     32  21.8  64.6  34132  289.09 0855.36
2009/04/23 09:43:01.9      -8    104    -33    105    110 355.6 -23.3  34126  288.99 0855.36
2009/04/23 09:43:02.0      -4    110    -72    111    132 357.8 -40.0  34124  288.97 0855.36
2009/04/23 09:43:02.1     -20    154      8    156    157 352.4   3.3  34124  288.96 0855.36
2009/04/23 09:43:02.2       0    116    -41    117    123   0.0 -23.8  34128  289.04 0855.36
2009/04/23 09:43:02.3      24     35     -1     43     44  34.3  -2.2  34128  289.04 0855.36
2009/04/23 09:43:02.4      68     13     12     70     72  78.6  10.1  34126  289.01 0855.36
2009/04/23 09:43:02.5      80     26     44     85     95  71.6  29.3  34128  289.02 0855.36
2009/04/23 09:43:02.6      92     22     62     95    113  76.3  35.6  34128  289.02 0855.36
2009/04/23 09:43:02.7      71     46    115     85    143  57.1  60.5  34128  289.04 0855.36
2009/04/23 09:43:02.8      83     82     66    117    134  45.4  31.9  34136  289.18 0855.36
2009/04/23 09:43:02.9      -5     89     86     90    124 356.4  49.4  34142  289.26 0855.36
2009/04/23 09:43:03.0       0    113     72    114    134   0.0  35.5  34138  289.21 0855.36
2009/04/23 09:43:03.1     -50     79     75     94    120 327.9  42.7  34138  289.21 0855.36
2009/04/23 09:43:03.2     -49     59     86     77    115 320.3  53.3  34136  289.16 0855.36
2009/04/23 09:43:03.3     -29     62     69     69     97 334.6  50.1  34144  289.30 0855.36
2009/04/23 09:43:03.4      48     66    140     82    162  36.1  66.8  34164  289.63 0855.36
2009/04/23 09:43:03.5     325    104    134    342    367  72.2  22.5  34156  289.52 0855.36
2009/04/23 09:43:03.6     281     -8     78    282    293  91.7  15.6  34166  289.66 0855.36
2009/04/23 09:43:03.7      -5    189    100    190    214 358.4  30.1  34162  289.62 0855.36
2009/04/23 09:43:03.8      -3    187    145    188    237 358.9  41.6  34172  289.77 0855.39
2009/04/23 09:43:03.9     211    102    227    235    326  64.0  49.1  34160  289.56 0855.39
2009/04/23 09:43:04.0     247    126    279    278    393  62.9  50.1  34148  289.38 0855.39
2009/04/23 09:43:04.1     240      0    313    241    395  90.0  58.6  34144  289.30 0855.39
2009/04/23 09:43:04.2     -22   -117    313    120    335 190.7  78.2  34156  289.51 0855.39
2009/04/23 09:43:04.3     -50    -59    209     78    223 220.5  79.1  34148  289.38 0855.39
2009/04/23 09:43:04.4      46   -377    246    380    452 173.0  35.9  34148  289.38 0855.39
2009/04/23 09:43:04.5      97   -281    313    298    432 160.9  51.6  34146  289.33 0855.39
2009/04/23 09:43:04.6       8   -345    308    346    463 178.6  46.2  34154  289.48 0855.39
2009/04/23 09:43:04.7     -11   -250    257    251    359 182.6  50.6  34140  289.22 0855.39
2009/04/23 09:43:04.8       5   -126    230    127    262 177.3  68.8  34142  289.28 0855.39
2009/04/23 09:43:04.9      44   -208    278    213    350 168.0  58.9  34144  289.29 0855.39
2009/04/23 09:43:05.0      86    -84    289    121    313 134.6  76.1  34134  289.12 0855.39
2009/04/23 09:43:05.1      13    -11    141     18    142 129.5  90.0  34132  289.11 0855.39
2009/04/23 09:43:05.2      35     22    104     42    112  57.6  77.1  34132  289.11 0855.39
2009/04/23 09:43:05.3     -67     98    148    119    189 325.7  56.9  34142  289.26 0855.39
2009/04/23 09:43:05.4     -83    251    162    265    310 341.5  34.5  34154  289.46 0855.39
2009/04/23 09:43:05.5    -190    210     73    284    294 317.9  14.5  34134  289.12 0855.39
2009/04/23 09:43:05.6     -65    176     57    188    197 339.5  17.1  34138  289.21 0855.39
2009/04/23 09:43:05.7      96    134    -36    165    169  35.6 -12.4  34136  289.16 0855.39
2009/04/23 09:43:05.8     146    147    -62    208    217  44.8 -21.5  34138  289.21 0855.38
2009/04/23 09:43:05.9      45     81    -62     93    111  29.0 -40.9  34142  289.26 0855.38
2009/04/23 09:43:06.0      57    -55    -82     80    114 134.1 -54.1  34148  289.36 0855.38
2009/04/23 09:43:06.1      20    -35    -66     41     77 149.3 -69.1  34146  289.33 0855.38
2009/04/23 09:43:06.2       0    -57    -18     58     60 180.9 -22.8  34146  289.33 0855.38
2009/04/23 09:43:06.3       7    -32     -1     33     34 166.6  -2.2  34146  289.35 0855.38
2009/04/23 09:43:06.4     -19    -14     37     24     44 234.0  63.6  34150  289.41 0855.38
2009/04/23 09:43:06.5     -37    -33     37     50     62 227.8  39.7  34158  289.53 0855.38
2009/04/23 09:43:06.6     -68    -68     59     97    113 225.0  35.5  34156  289.50 0855.38
2009/04/23 09:43:06.7     -33    -67     75     75    106 206.3  50.1  34152  289.45 0855.38
2009/04/23 09:43:06.8     -20    -42     57     47     73 206.3  56.3  34150  289.40 0855.34
2009/04/23 09:43:06.9     128     -2     94    129    159  90.9  39.7  34144  289.31 0855.34
2009/04/23 09:43:07.0     128    -81    130    152    200 122.5  45.1  34150  289.41 0855.34
2009/04/23 09:43:07.1     166   -105    136    197    239 122.5  38.0  34150  289.41 0855.34
2009/04/23 09:43:07.2     102    -48    128    114    171 115.4  53.7  34152  289.43 0855.34
2009/04/23 09:43:07.3     -46   -118     60    127    140 201.4  27.1  34148  289.36 0855.34
2009/04/23 09:43:07.4      34    -99     98    105    143 160.8  48.0  34150  289.41 0855.34
2009/04/23 09:43:07.5      17    -42     99     46    109 158.2  73.1  34146  289.35 0855.34
2009/04/23 09:43:07.6       9    -14     74     17     75 147.5  89.0  34158  289.53 0855.34
2009/04/23 09:43:07.7      -4    -72     91     73    116 183.6  56.4  34156  289.50 0855.34
2009/04/23 09:43:07.8      32    -78    121     85    147 157.3  61.5  34150  289.40 0855.34
2009/04/23 09:43:07.9      91      7    109     92    142  85.2  55.8  34152  289.43 0855.34
2009/04/23 09:43:08.0       0     43     79     44     90   0.0  68.8  34158  289.55 0855.34
2009/04/23 09:43:08.1     118     85    182    146    233  54.0  56.9  34156  289.52 0855.34
2009/04/23 09:43:08.2      84    126    136    152    203  33.8  46.4  34148  289.38 0855.34
2009/04/23 09:43:08.3     -42    119    121    127    175 340.4  48.7  34150  289.40 0855.34
2009/04/23 09:43:08.4     -23     50    115     56    127 335.5  72.8  34156  289.52 0855.34
2009/04/23 09:43:08.5      -6     30    119     31    122 348.4  84.9  34152  289.45 0855.34
2009/04/23 09:43:08.6      66     31    123     74    143  64.6  66.2  34142  289.28 0855.34
2009/04/23 09:43:08.7     -95     31     19    101    103 288.2  11.1  34132  289.09 0855.34
2009/04/23 09:43:08.8    -182   -181    239    257    350 225.1  47.9  34140  289.22 0855.19
2009/04/23 09:43:08.9     -91    -31    151     97    179 250.9  64.4  34138  289.19 0855.19
2009/04/23 09:43:09.0     -30     19    109     36    114 302.4  80.7  34150  289.40 0855.19
2009/04/23 09:43:09.1     -26    -41     94     49    106 212.5  70.4  34144  289.30 0855.19
2009/04/23 09:43:09.2     -19    -98    135    100    168 191.5  60.0  34142  289.26 0855.19
2009/04/23 09:43:09.3     -64   -141    174    155    233 204.5  53.7  34140  289.24 0855.19
2009/04/23 09:43:09.4     -71    -18     56     74     92 255.8  41.7  34136  289.16 0855.19
2009/04/23 09:43:09.5     -84   -154     25    176    178 208.7   8.2  34154  289.46 0855.19
2009/04/23 09:43:09.6      10    -48     65     50     82 168.4  58.5  34140  289.24 0855.19
2009/04/23 09:43:09.7       4   -108    154    109    188 177.8  61.3  34146  289.33 0855.19
2009/04/23 09:43:09.8     -10   -100    140    101    172 186.2  61.1  34146  289.33 0855.19
2009/04/23 09:43:09.9      50   -244    201    250    320 168.4  43.0  34140  289.24 0855.19
2009/04/23 09:43:10.0       1   -354     97    355    369 179.7  15.3  34136  289.15 0855.19
2009/04/23 09:43:10.1      73   -378    109    386    402 169.0  15.8  34134  289.13 0855.19
2009/04/23 09:43:10.2      64   -316     86    323    335 168.4  14.9  34130  289.08 0855.19
2009/04/23 09:43:10.3      23   -308    145    309    341 175.6  27.0  34136  289.16 0855.19
2009/04/23 09:43:10.4     -10    -74    183     75    197 188.0  76.8  34142  289.28 0855.19
2009/04/23 09:43:10.5      22   -100    169    103    197 167.5  66.0  34138  289.19 0855.19
2009/04/23 09:43:10.6       1   -199    226    200    301 179.5  54.0  34130  289.05 0855.19
2009/04/23 09:43:10.7     -68   -185    188    198    273 200.3  48.7  34132  289.10 0855.19
2009/04/23 09:43:10.8     -55   -237    205    244    318 193.1  44.3  34128  289.03 0855.15
2009/04/23 09:43:10.9     -56   -249    176    256    310 192.7  37.6  34130  289.05 0855.15
2009/04/23 09:43:11.0     -82   -248    151    262    302 198.3  32.4  34128  289.03 0855.15
2009/04/23 09:43:11.1     -71   -238    115    249    274 196.7  26.6  34130  289.07 0855.15
2009/04/23 09:43:11.2     -87   -216    166    234    286 202.1  38.8  34132  289.09 0855.15
2009/04/23 09:43:11.3    -114   -251    122    276    301 204.5  25.2  34128  289.03 0855.15
2009/04/23 09:43:11.5    -105   -225     70    249    259 204.9  15.8  34128  289.02 0855.15
2009/04/23 09:43:11.5     -77   -249     97    261    278 197.2  21.0  34124  288.97 0855.15
2009/04/23 09:43:11.6     -73   -274    122    284    309 195.1  25.1  34128  289.03 0855.15
2009/04/23 09:43:11.8     -88   -273    104    287    305 197.9  20.9  34124  288.97 0855.15
2009/04/23 09:43:11.9    -112   -277     19    300    301 202.1   3.6  34122  288.93 0855.15
2009/04/23 09:43:12.0     -92   -288     14    303    304 197.8   2.8  34126  289.00 0855.15
2009/04/23 09:43:12.1     -32   -280    -15    282    283 186.7  -3.2  34126  289.00 0855.15
2009/04/23 09:43:12.2     -17   -274     23    275    277 183.6   4.9  34126  289.00 0855.15
2009/04/23 09:43:12.3     -45   -285    -16    289    290 189.1  -3.3  34128  289.02 0855.15
2009/04/23 09:43:12.4      -5   -237     84    238    252 181.4  20.0  34132  289.10 0855.15
2009/04/23 09:43:12.5     -26   -187    109    189    218 188.0  32.7  34128  289.02 0855.15
2009/04/23 09:43:12.6     -61   -103    103    120    158 210.7  45.4  34134  289.14 0855.15
2009/04/23 09:43:12.7     -66   -110     74    129    148 210.8  32.4  34134  289.14 0855.15
2009/04/23 09:43:12.8     -82   -128     66    153    166 212.6  24.9  34134  289.13 0855.15
2009/04/23 09:43:12.9    -146   -105     90    181    202 234.3  28.2  34138  289.21 0855.19
2009/04/23 09:43:13.0     -80   -153     44    173    179 207.6  14.5  34134  289.13 0855.19
2009/04/23 09:43:13.1     -86   -168     28    189    192 207.2   8.5  34130  289.08 0855.19
2009/04/23 09:43:13.2     -95   -118     26    152    155 218.7   9.9  34124  288.97 0855.19
2009/04/23 09:43:13.3     -67   -146     58    161    171 204.9  20.2  34126  289.01 0855.19
2009/04/23 09:43:13.4     -16   -162     56    163    173 186.0  18.9  34130  289.08 0855.19
2009/04/23 09:43:13.5     -23   -123     95    126    157 190.7  40.9  34130  289.06 0855.19
2009/04/23 09:43:13.6     -18    -95     36     97    103 191.1  21.0  34132  289.09 0855.19
2009/04/23 09:43:13.7     -56    -53     16     78     80 226.9  11.6  34130  289.06 0855.19
2009/04/23 09:43:13.8     -94    -91      5    131    132 226.0   2.3  34130  289.06 0855.19
2009/04/23 09:43:13.9    -103    -75    -29    128    132 233.6 -12.9  34130  289.08 0855.19
2009/04/23 09:43:14.0     -42    -88     -3     98     99 205.5  -2.2  34134  289.14 0855.19
2009/04/23 09:43:14.1     -39    -85      8     94     95 204.9   5.4  34134  289.13 0855.19
2009/04/23 09:43:14.2    -127    -74     29    148    151 239.8  11.1  34134  289.13 0855.19
2009/04/23 09:43:14.3    -172      0     99    173    199 270.0  32.4  34154  289.46 0855.19
2009/04/23 09:43:14.4    -183     -4     57    184    193 268.7  17.3  34158  289.53 0855.19
2009/04/23 09:43:14.5    -229    -17     91    230    247 265.7  22.8  34176  289.83 0855.19
2009/04/23 09:43:14.6    -238     -8    122    239    268 267.9  29.2  34166  289.66 0855.19
2009/04/23 09:43:14.7    -268     -3     78    269    281 269.2  16.3  34174  289.81 0855.19
2009/04/23 09:43:14.8    -218     -8    109    219    244 267.9  28.2  34170  289.73 0855.19
2009/04/23 09:43:14.9    -184      7     50    185    192 272.4  15.2  34154  289.48 0855.23
2009/04/23 09:43:15.0    -240    -32    188    243    307 262.3  41.7  34156  289.49 0855.23
2009/04/23 09:43:15.1    -222    -17    175    223    283 265.6  42.2  34166  289.68 0855.23
2009/04/23 09:43:15.2    -174      5    119    175    211 271.7  37.4  34156  289.52 0855.23
2009/04/23 09:43:15.3    -140     28    178    143    228 281.5  56.9  34200  290.25 0855.23
2009/04/23 09:43:15.4    -225    -50    193    231    301 257.4  44.1  34174  289.81 0855.23
2009/04/23 09:43:15.5    -201   -102    148    226    270 242.9  36.0  34170  289.73 0855.23
2009/04/23 09:43:15.6     -19   -141    101    143    175 188.0  38.6  34170  289.75 0855.23
2009/04/23 09:43:15.7     -84   -167    112    188    218 206.7  33.5  34164  289.63 0855.23
2009/04/23 09:43:15.8     -28   -174     45    177    183 189.3  14.5  34144  289.31 0855.23
2009/04/23 09:43:15.9     -49   -181     67    188    199 195.4  20.4  34150  289.41 0855.23
2009/04/23 09:43:16.0       9   -106     37    107    114 175.1  19.4  34152  289.45 0855.23
2009/04/23 09:43:16.1      43    -75    -26     87     90 150.1 -21.2  34156  289.52 0855.23
2009/04/23 09:43:16.2     102    -64    -39    121    127 122.0 -23.8  34152  289.45 0855.23
2009/04/23 09:43:16.3     151      5    -30    152    156  87.9 -11.3  34148  289.38 0855.23
2009/04/23 09:43:16.4     143     50     -5    152    153  70.5  -2.2  34160  289.57 0855.23
2009/04/23 09:43:16.5     120      0     68    121    138  89.6  31.4  34154  289.48 0855.23
2009/04/23 09:43:16.6     105      0    153    106    186  90.0  62.1  34154  289.48 0855.23
2009/04/23 09:43:16.7     -15     35    112     39    118 336.4  80.2  34162  289.62 0855.23
2009/04/23 09:43:16.8      10     32    134     34    138  18.5  85.4  34160  289.57 0855.23
2009/04/23 09:43:16.9      21     59    117     63    132  20.0  68.9  34158  289.53 0855.23
2009/04/23 09:43:17.0      17     14     78     23     81  50.5  83.3  34156  289.52 0855.23
2009/04/23 09:43:17.1       0    -32     52     33     61 180.9  64.7  34156  289.50 0855.23
2009/04/23 09:43:17.2      48     -7     68     49     83  98.8  60.5  34156  289.52 0855.23
2009/04/23 09:43:17.3      57     -4     27     58     63  94.4  26.2  34154  289.46 0855.23
2009/04/23 09:43:17.4      31    -12      9     34     36 111.7  15.3  34150  289.41 0855.23
2009/04/23 09:43:17.5      57    -54     14     79     81 133.1  10.6  34154  289.48 0855.23
2009/04/23 09:43:17.6      62     -8     -8     63     64  97.9  -7.2  34148  289.38 0855.23
2009/04/23 09:43:17.7     103     13    119    104    158  82.5  54.3  34148  289.36 0855.23
2009/04/23 09:43:17.8      28    -59     69     66     95 154.5  51.2  34152  289.43 0855.23
2009/04/23 09:43:17.9     -30    -55     61     63     87 209.0  50.0  34150  289.41 0855.23
2009/04/23 09:43:18.0     -73    -79     35    108    114 222.8  17.9  34150  289.40 0855.23
2009/04/23 09:43:18.1     -69   -167    123    181    218 202.5  37.6  34170  289.75 0855.23
2009/04/23 09:43:18.2     -77   -106    117    132    176 216.0  46.2  34176  289.84 0855.23
2009/04/23 09:43:18.3    -148   -133    136    200    241 228.0  37.4  34182  289.96 0855.23
2009/04/23 09:43:18.4    -117   -119    129    167    211 224.5  41.7  34170  289.74 0855.23
2009/04/23 09:43:18.5    -124   -124    148    176    229 225.1  44.1  34166  289.67 0855.23
2009/04/23 09:43:18.6    -104   -179    138    208    249 210.1  36.5  34162  289.61 0855.23
2009/04/23 09:43:18.7     -94   -185    148    208    255 207.1  39.3  34180  289.92 0855.23
2009/04/23 09:43:18.8     -51   -144    106    153    186 199.6  38.0  34152  289.43 0855.23
2009/04/23 09:43:18.9     -62   -151     89    164    186 202.3  30.8  34152  289.45 0855.24
2009/04/23 09:43:19.0     -33   -186     85    190    208 190.2  25.7  34132  289.09 0855.24
2009/04/23 09:43:19.1     137    -41    128    144    192 106.8  46.4  34136  289.16 0855.24
2009/04/23 09:43:19.2     142    -72    141    160    213 117.1  45.9  34132  289.09 0855.24
2009/04/23 09:43:19.3      80    -50    111     95    146 122.4  54.8  34140  289.23 0855.24
2009/04/23 09:43:19.4     -17     48     43     52     67 340.0  43.8  34144  289.31 0855.24
2009/04/23 09:43:19.5     -19     23     42     30     51 320.4  60.5  34144  289.30 0855.24
2009/04/23 09:43:19.6      15    -76     76     78    108 168.5  50.0  34138  289.19 0855.24
2009/04/23 09:43:19.7      15    -27    116     31    120 151.0  84.9  34142  289.28 0855.24
2009/04/23 09:43:19.8     -16   -162    186    163    247 185.8  54.3  34134  289.13 0855.24
2009/04/23 09:43:19.9    -112   -206    263    235    352 208.5  53.7  34138  289.20 0855.24
2009/04/23 09:43:20.0     -63   -176    187    188    265 199.8  50.0  34132  289.10 0855.24
2009/04/23 09:43:20.1     -13   -173    217    174    278 184.5  57.5  34132  289.09 0855.24
2009/04/23 09:43:20.2     -41   -220    160    224    275 190.7  39.1  34128  289.02 0855.24
2009/04/23 09:43:20.3     -33   -239    171    242    296 188.0  38.6  34130  289.07 0855.24
2009/04/23 09:43:20.4     -75   -247    186    259    318 197.0  39.2  34132  289.09 0855.24
2009/04/23 09:43:20.5    -102   -282    152    301    337 200.0  28.9  34136  289.15 0855.24
2009/04/23 09:43:20.6    -174   -173    -31    246    249 225.2  -7.3  34146  289.34 0855.24
2009/04/23 09:43:20.7    -235   -155    -57    282    288 236.5 -11.5  34134  289.14 0855.24
2009/04/23 09:43:20.8    -319   -142    -96    350    364 246.0 -15.4  34146  289.33 0855.24
2009/04/23 09:43:20.9    -243   -200    -12    315    316 230.5  -2.2  34144  289.31 0855.29
2009/04/23 09:43:21.0    -261   -220   -111    342    360 229.9 -18.1  34136  289.15 0855.29
2009/04/23 09:43:21.1    -258   -258   -156    365    396 225.0 -28.9  34126  288.99 0855.29
2009/04/23 09:43:21.2    -196   -274   -127    337    360 215.6 -25.9  34126  288.99 0855.29
2009/04/23 09:43:21.3    -101   -265    -52    284    289 200.9 -10.5  34126  288.98 0855.29
2009/04/23 09:43:21.4    -177   -245   -109    303    322 216.0 -25.0  34166  289.68 0855.29
2009/04/23 09:43:21.5    -214   -343    -52    405    409 212.0  -7.3  34168  289.70 0855.29
2009/04/23 09:43:21.6    -154   -267    115    309    329 209.9  21.3  34158  289.54 0855.29
2009/04/23 09:43:21.7    -179   -225    113    288    309 218.5  22.5  34140  289.24 0855.29
2009/04/23 09:43:21.8    -237   -196     45    308    312 230.4   8.3  34164  289.64 0855.29
2009/04/23 09:43:21.9    -263   -172     -4    315    316 236.7  -0.9  34170  289.75 0855.29
2009/04/23 09:43:22.0    -177   -175     90    249    265 225.3  19.9  34138  289.20 0855.29
2009/04/23 09:43:22.1    -270   -149     51    309    314 241.1   9.4  34134  289.14 0855.29
2009/04/23 09:43:22.2    -277   -187    115    335    355 235.9  19.1  34136  289.15 0855.29
2009/04/23 09:43:22.3    -280   -231    130    364    386 230.5  20.4  34128  289.04 0855.29
2009/04/23 09:43:22.4    -235   -251    161    344    379 223.1  27.0  34128  289.04 0855.29
2009/04/23 09:43:22.5    -250   -248    159    353    387 225.3  26.0  34130  289.06 0855.29
2009/04/23 09:43:22.6    -353   -201     33    407    409 240.3   4.7  34186  290.00 0855.29
2009/04/23 09:43:22.7    -269      0   -154    270    310 270.0 -36.8  34160  289.58 0855.29
2009/04/23 09:43:22.8    -299    -52    -46    304    308 260.1  -8.6  34156  289.49 0855.29
2009/04/23 09:43:22.9    -274   -180     52    328    333 236.7   9.0  34134  289.13 0855.30
2009/04/23 09:43:23.0    -286    -79     -6    297    298 254.5  -1.3  34134  289.14 0855.30
2009/04/23 09:43:23.1    -224    -41    -65    228    237 259.6 -20.7  34146  289.34 0855.30
2009/04/23 09:43:23.2    -205     -6   -109    206    233 268.1 -34.7  34140  289.24 0855.30
2009/04/23 09:43:23.3    -215    -52    -68    222    232 256.3 -22.1  34142  289.26 0855.30
2009/04/23 09:43:23.4    -204   -178     32    271    273 228.9   6.9  34140  289.22 0855.30
2009/04/23 09:43:23.5    -142   -201     84    247    262 215.2  18.9  34136  289.17 0855.30
2009/04/23 09:43:23.6    -129   -166    167    211    269 217.8  42.7  34142  289.25 0855.30
2009/04/23 09:43:23.7    -155   -217    132    267    297 215.6  28.2  34140  289.22 0855.30
2009/04/23 09:43:23.8    -194   -192    112    273    295 225.3  23.4  34138  289.19 0855.30
2009/04/23 09:43:23.9    -135   -185     92    230    247 216.1  23.0  34140  289.24 0855.30
2009/04/23 09:43:24.0    -110   -126    120    168    206 221.0  39.1  34152  289.43 0855.30
2009/04/23 09:43:24.1    -170   -140     45    221    226 230.5  11.6  34142  289.26 0855.30
2009/04/23 09:43:24.2    -108   -108     40    154    160 225.0  14.7  34150  289.41 0855.30
2009/04/23 09:43:24.3    -128   -125     72    180    193 225.6  23.0  34140  289.23 0855.30
2009/04/23 09:43:24.4    -130   -178    163    221    274 216.3  40.1  34164  289.63 0855.30
2009/04/23 09:43:24.5    -137   -131    181    190    262 226.2  48.7  34166  289.68 0855.30
2009/04/23 09:43:24.6    -228   -132    -18    264    265 239.8  -3.9  34160  289.56 0855.30
2009/04/23 09:43:24.7    -262   -101     54    281    287 248.9  11.0  34162  289.59 0855.30
2009/04/23 09:43:24.8    -251   -121     54    279    285 244.2  11.1  34164  289.64 0855.30
2009/04/23 09:43:24.9    -267   -147     36    305    308 241.1   6.9  34164  289.64 0855.29
2009/04/23 09:43:25.0    -220   -154    -14    269    270 234.9  -3.1  34158  289.53 0855.29
2009/04/23 09:43:25.1    -258   -105     34    279    282 247.8   7.1  34154  289.46 0855.29
2009/04/23 09:43:25.2    -406   -106     91    420    430 255.3  12.3  34164  289.63 0855.29
2009/04/23 09:43:25.3    -152   -223    174    270    321 214.3  35.7  34158  289.53 0855.29
2009/04/23 09:43:25.4    -128   -153    122    200    234 220.1  34.8  34140  289.23 0855.29
2009/04/23 09:43:25.5    -207   -146     59    254    261 234.7  13.2  34170  289.75 0855.29
2009/04/23 09:43:25.6    -177   -105     18    206    207 239.3   5.2  34172  289.77 0855.29
2009/04/23 09:43:25.7    -215   -100     86    238    253 244.9  20.4  34160  289.56 0855.29
2009/04/23 09:43:25.8    -246    -26    -88    248    264 263.9 -19.7  34148  289.37 0855.29
2009/04/23 09:43:25.9    -263    -92     23    279    281 250.7   4.9  34148  289.37 0855.29
2009/04/23 09:43:26.0    -147     11      2    148    149 274.4   0.8  34154  289.46 0855.29
2009/04/23 09:43:26.1    -102     24     13    105    106 283.7   7.5  34148  289.36 0855.29
2009/04/23 09:43:26.2    -165    -20     19    167    169 263.0   6.5  34152  289.43 0855.29
2009/04/23 09:43:26.3    -182   -116     44    216    221 237.5  11.6  34154  289.46 0855.29
2009/04/23 09:43:26.4    -105   -148    141    182    230 215.4  41.7  34152  289.43 0855.29
2009/04/23 09:43:26.5    -124   -155    139    199    242 218.7  38.4  34144  289.31 0855.29
2009/04/23 09:43:26.6    -126   -132     97    183    207 223.7  30.3  34146  289.35 0855.29
2009/04/23 09:43:26.7    -128   -154     84    201    217 219.7  23.8  34146  289.33 0855.29
2009/04/23 09:43:26.8     -94   -132    120    163    202 215.6  39.7  34152  289.43 0855.29
2009/04/23 09:43:26.9    -118   -117    108    167    198 225.2  35.7  34152  289.43 0855.30
2009/04/23 09:43:27.0    -124   -124     77    176    192 225.0  25.1  34150  289.40 0855.30
2009/04/23 09:43:27.1    -133   -126     36    184    188 226.7  11.1  34152  289.45 0855.30
2009/04/23 09:43:27.2    -101   -131     57    166    176 217.8  19.2  34156  289.52 0855.30
2009/04/23 09:43:27.3     -94   -176     54    200    208 208.1  15.3  34152  289.43 0855.30
2009/04/23 09:43:27.4    -120   -111    -33    164    168 227.3 -11.3  34190  290.09 0855.30
2009/04/23 09:43:27.5    -105    -93    -46    141    149 228.7 -18.1  34166  289.69 0855.30
2009/04/23 09:43:27.6     -84   -168     68    189    200 206.7  20.4  34156  289.50 0855.30
2009/04/23 09:43:27.7    -101   -101     44    143    150 225.0  17.4  34166  289.67 0855.30
2009/04/23 09:43:27.8     -43    -64    -79     78    111 214.3 -54.5  34164  289.65 0855.30
2009/04/23 09:43:27.9    -144    -29    -66    147    161 258.5 -30.1  34166  289.69 0855.32
2009/04/23 09:43:28.0     -58    -54    -33     80     86 226.8 -27.4  34174  289.80 0855.32
2009/04/23 09:43:28.1      -7    -91     41     92    100 184.5  25.7  34168  289.70 0855.32
2009/04/23 09:43:28.2      -7    -90     88     91    126 184.5  49.4  34154  289.48 0855.32
2009/04/23 09:43:28.3     -66    -77     37    102    108 220.5  20.4  34152  289.43 0855.32
2009/04/23 09:43:28.4    -116    -69     20    135    137 239.3   8.5  34170  289.75 0855.32
2009/04/23 09:43:28.5    -110     -8    -29    111    115 265.6 -15.0  34178  289.89 0855.32
2009/04/23 09:43:28.6     -46    -98      5    109    110 205.4   2.8  34158  289.55 0855.32
2009/04/23 09:43:28.7     -75   -127      9    148    149 210.7   3.8  34142  289.26 0855.32
2009/04/23 09:43:28.8     -34   -228      4    231    232 188.7   1.2  34140  289.23 0855.32
2009/04/23 09:43:28.9       0   -201     55    202    210 180.0  15.3  34128  289.04 0855.32
2009/04/23 09:43:29.0     -17   -209     32    210    213 184.7   8.9  34128  289.02 0855.32
2009/04/23 09:43:29.1     -42   -211     42    216    221 191.3  11.1  34132  289.09 0855.32
2009/04/23 09:43:29.2    -129   -134     53    187    195 223.9  15.8  34160  289.57 0855.32
2009/04/23 09:43:29.3    -114   -167     65    203    214 214.5  17.9  34142  289.28 0855.32
2009/04/23 09:43:29.4     -67   -193      8    205    206 199.2   2.5  34136  289.18 0855.32
2009/04/23 09:43:29.5     -62   -248      2    256    257 194.2   0.5  34132  289.10 0855.32
2009/04/23 09:43:29.6      -5   -311    -52    312    317 181.0  -9.6  34130  289.07 0855.32
2009/04/23 09:43:29.7     -29   -315     50    317    321 185.3   9.0  34132  289.10 0855.32
2009/04/23 09:43:29.8     -16   -320     42    321    324 183.0   7.6  34130  289.07 0855.32
2009/04/23 09:43:29.9    -109   -323    -40    342    345 198.7  -6.8  34136  289.18 0855.29
2009/04/23 09:43:30.0    -108   -256     33    279    282 202.9   6.9  34136  289.17 0855.29
2009/04/23 09:43:30.1    -148   -305    -28    340    342 205.9  -4.8  34134  289.13 0855.29
2009/04/23 09:43:30.2     -97   -331     24    346    347 196.4   4.0  34132  289.10 0855.29
2009/04/23 09:43:30.3     -24   -382     14    383    384 183.7   2.1  34132  289.11 0855.29
2009/04/23 09:43:30.4     -59   -328    -72    334    342 190.2 -12.2  34136  289.15 0855.29
2009/04/23 09:43:30.5      24   -393     -4    394    395 176.5  -0.6  34128  289.04 0855.29
2009/04/23 09:43:30.6       6   -392     32    393    395 179.1   4.7  34132  289.11 0855.29
2009/04/23 09:43:30.7      -6   -362     18    363    364 181.0   2.9  34132  289.11 0855.29
2009/04/23 09:43:30.8     -17   -317     -2    318    319 183.1  -0.4  34130  289.07 0855.29
2009/04/23 09:43:30.9     -25   -294    -16    296    297 184.9  -3.2  34134  289.12 0855.29
2009/04/23 09:43:31.0     -43   -302     15    306    307 188.1   2.9  34132  289.09 0855.29
2009/04/23 09:43:31.1     -72   -306     56    315    320 193.3  10.1  34132  289.09 0855.29
2009/04/23 09:43:31.2     -72   -242     32    253    256 196.7   7.2  34130  289.07 0855.29
2009/04/23 09:43:31.3     -70   -268     43    278    282 194.7   8.9  34134  289.12 0855.29
2009/04/23 09:43:31.4     -59   -256      8    263    264 193.1   1.8  34134  289.12 0855.29
2009/04/23 09:43:31.5     -95   -252     -1    270    271 200.7  -0.3  34132  289.09 0855.29
2009/04/23 09:43:31.6    -111   -232      7    258    259 205.5   1.7  34138  289.19 0855.29
2009/04/23 09:43:31.7    -124   -254     11    283    284 206.1   2.3  34136  289.17 0855.29
2009/04/23 09:43:31.8    -128   -223    -24    258    260 209.8  -5.4  34138  289.19 0855.29
2009/04/23 09:43:31.9    -101   -214     46    237    242 205.4  11.0  34138  289.19 0855.28
2009/04/23 09:43:32.0    -116   -159     53    197    205 216.1  15.2  34134  289.13 0855.28
2009/04/23 09:43:32.1    -113   -189     44    221    226 211.0  11.4  34136  289.18 0855.28
2009/04/23 09:43:32.2    -119   -144    -24    188    190 219.6  -7.3  34136  289.18 0855.28
2009/04/23 09:43:32.3    -149   -159     18    219    220 223.2   4.9  34138  289.21 0855.28
2009/04/23 09:43:32.4    -148    -73     10    166    167 243.8   3.6  34132  289.11 0855.28
2009/04/23 09:43:32.5    -208    -73   -101    221    242 250.7 -30.6  34118  288.85 0855.28
2009/04/23 09:43:32.6    -233    -52    -65    239    248 257.4 -15.4  34124  288.95 0855.28
2009/04/23 09:43:32.7    -204    -81    -27    220    222 248.2  -7.2  34126  288.99 0855.28
2009/04/23 09:43:32.8    -206    -94     -1    227    228 245.4  -0.5  34132  289.11 0855.28
2009/04/23 09:43:32.9    -119   -137    -32    182    185 221.0 -10.3  34138  289.21 0855.28
2009/04/23 09:43:33.0     -71   -235     -9    246    247 196.9  -2.2  34130  289.07 0855.28
2009/04/23 09:43:33.1     -37   -269     96    272    289 188.0  19.4  34128  289.03 0855.28
2009/04/23 09:43:33.2     -39   -233    -64    237    246 189.6 -15.2  34122  288.93 0855.28
2009/04/23 09:43:33.3    -155   -138    -80    208    222 228.2 -26.4  34120  288.91 0855.28
2009/04/23 09:43:33.4    -325   -119    -96    347    360 249.8 -20.2  34116  288.82 0855.28
2009/04/23 09:43:33.5    -328   -178   -112    374    390 241.5 -21.7  34100  288.54 0855.28
2009/04/23 09:43:33.6    -387   -148   -107    415    429 249.1 -14.5  34096  288.50 0855.28
2009/04/23 09:43:33.7    -339   -166   -128    378    400 243.8 -18.8  34110  288.71 0855.28
2009/04/23 09:43:33.8    -289    -80   -119    300    322 254.5 -27.2  34104  288.61 0855.28
2009/04/23 09:43:33.9    -242   -188    -50    307    312 232.2  -9.4  34106  288.65 0855.29
2009/04/23 09:43:34.0    -254   -269    -47    371    375 223.3  -7.3  34106  288.67 0855.29
2009/04/23 09:43:34.2    -266   -264    -93    376    388 225.2 -13.9  34104  288.64 0855.29
2009/04/23 09:43:34.3    -194   -250    -29    317    319 217.8  -5.4  34106  288.65 0855.29
2009/04/23 09:43:34.3    -275   -421    -39    504    506 213.2  -4.5  34110  288.74 0855.29
2009/04/23 09:43:34.4    -329   -351   -105    482    494 223.1 -12.4  34100  288.56 0855.29
2009/04/23 09:43:34.5    -278   -338   -210    438    485 219.5 -31.8  34110  288.74 0855.29
2009/04/23 09:43:34.6    -326   -544    -81    635    641 210.9  -7.3  34110  288.71 0855.29
2009/04/23 09:43:34.7    -227   -383     70    446    452 210.7   9.0  34118  288.87 0855.29
2009/04/23 09:43:34.8    -218   -455    -55    505    509 205.7  -6.2  34110  288.73 0855.29
2009/04/23 09:43:34.9    -336   -315    -25    461    462 226.9  -3.2  34112  288.77 0855.29
2009/04/23 09:43:35.0    -181   -479    -28    513    514 200.7  -3.2  34120  288.88 0855.29
2009/04/23 09:43:35.1    -293   -357   -124    462    479 219.4 -15.0  34112  288.76 0855.29
2009/04/23 09:43:35.2    -258   -393   -257    471    536 213.3 -35.7  34116  288.84 0855.29
2009/04/23 09:43:35.3    -305   -412   -299    513    593 216.5 -37.3  34114  288.80 0855.29
2009/04/23 09:43:35.5    -188   -359   -220    406    461 207.6 -35.3  34106  288.65 0855.29
2009/04/23 09:43:35.5    -253   -227   -338    341    480 228.1 -54.3  34114  288.80 0855.29
2009/04/23 09:43:35.6    -288   -468   -216    550    590 211.6 -27.1  34108  288.70 0855.29
2009/04/23 09:43:35.7    -352   -565    -29    666    667 211.9  -2.5  34114  288.80 0855.29
2009/04/23 09:43:35.8    -274   -482    -22    555    556 209.7  -2.3  34114  288.80 0855.29
2009/04/23 09:43:35.9    -317   -427   -106    533    544 216.6 -11.3  34114  288.80 0855.30
2009/04/23 09:43:36.0    -348   -242   -138    424    446 235.2 -18.1  34112  288.77 0855.30
2009/04/23 09:43:36.1    -270   -261    -96    376    389 226.0 -14.4  34120  288.89 0855.30
2009/04/23 09:43:36.2    -237   -251   -121    346    367 223.3 -19.4  34120  288.89 0855.30
2009/04/23 09:43:36.3    -223   -245    -99    332    347 222.2 -16.7  34112  288.77 0855.30
2009/04/23 09:43:36.4    -314   -289   -169    427    459 227.4 -27.4  34110  288.73 0855.30
2009/04/23 09:43:36.5    -355   -225   -237    421    483 237.6 -36.4  34118  288.85 0855.30
2009/04/23 09:43:36.6    -219   -233   -305    320    442 223.2 -52.9  34118  288.85 0855.30
2009/04/23 09:43:36.7    -158   -455     10    482    483 199.2   1.2  34116  288.83 0855.30
2009/04/23 09:43:36.8    -143   -499    -28    520    521 196.0  -3.1  34112  288.77 0855.30
2009/04/23 09:43:36.9    -189   -487    -60    523    527 201.3  -6.6  34110  288.72 0855.30
2009/04/23 09:43:37.0    -135   -414   -104    436    449 198.1 -13.4  34118  288.87 0855.30
2009/04/23 09:43:37.1       0   -499     51    500    503 179.9   5.9  34118  288.86 0855.30
2009/04/23 09:43:37.2     -50   -413    108    417    431 187.0  14.6  34116  288.83 0855.30
2009/04/23 09:43:37.3    -180   -309    216    358    418 210.3  34.1  34118  288.86 0855.30
2009/04/23 09:43:37.4    -164   -306    232    348    418 208.2  36.7  34124  288.96 0855.30
2009/04/23 09:43:37.5    -230   -167    181    285    337 234.1  35.5  34116  288.83 0855.30
2009/04/23 09:43:37.6     -30   -322    131    324    349 185.3  23.1  34112  288.76 0855.30
2009/04/23 09:43:37.7    -359   -272    306    451    545 232.9  37.4  34100  288.57 0855.30
2009/04/23 09:43:37.8    -658   -311    143    728    743 244.7  11.1  34130  289.07 0855.30
2009/04/23 09:43:37.9    -160   -337    124    374    395 205.5  18.4  34100  288.55 0855.28
2009/04/23 09:43:38.1     144   -470    -26    492    493 163.0  -3.1  34102  288.59 0855.28
2009/04/23 09:43:38.2     246   -592    244    642    686 157.4  22.0  34104  288.61 0855.28
2009/04/23 09:43:38.2      47   -512    278    515    585 174.7  30.8  34114  288.80 0855.28
2009/04/23 09:43:38.4     269   -585    331    645    724 155.3  29.3  34110  288.71 0855.28
2009/04/23 09:43:38.5     313   -527    459    614    766 149.3  40.6  34120  288.89 0855.28
2009/04/23 09:43:38.6     192   -729    367    754    838 165.2  27.8  34106  288.65 0855.28
2009/04/23 09:43:38.7     174   -651    211    674    707 165.0  17.4  34104  288.64 0855.28
2009/04/23 09:43:38.8     197   -530    325    566    652 159.5  32.4  34106  288.65 0855.28
2009/04/23 09:43:38.9      69   -342    287    349    451 168.5  43.7  34092  288.43 0855.28
2009/04/23 09:43:39.0     -10   -382    352    383    520 181.6  47.3  34100  288.56 0855.28
2009/04/23 09:43:39.1     -66   -158    243    172    297 202.7  61.3  34098  288.53 0855.28
2009/04/23 09:43:39.2     -15   -211    213    212    300 184.2  50.1  34106  288.65 0855.28
2009/04/23 09:43:39.3     -40   -192    193    197    275 192.0  49.8  34108  288.68 0855.28
2009/04/23 09:43:39.4     -52   -237    153    243    287 192.4  35.5  34110  288.73 0855.28
2009/04/23 09:43:39.5     -37   -462    144    464    486 184.6  17.3  34100  288.57 0855.28
2009/04/23 09:43:39.6      28   -448    301    449    540 176.4  37.0  34104  288.64 0855.28
2009/04/23 09:43:39.7      37   -503    294    505    584 175.8  32.9  34104  288.62 0855.28
2009/04/23 09:43:39.8     -74   -359    360    367    514 191.8  49.5  34108  288.69 0855.28
2009/04/23 09:43:39.9     -85    -22    301     88    313 255.4  83.5  34110  288.71 0855.28
2009/04/23 09:43:40.0    -253   -212    230    331    403 230.0  38.4  34100  288.55 0855.27
2009/04/23 09:43:40.1    -355   -490    378    606    714 216.0  35.0  34082  288.26 0855.27
2009/04/23 09:43:40.2    -203   -448    305    492    578 204.4  34.9  34100  288.57 0855.27
2009/04/23 09:43:40.3    -180   -592    259    620    671 197.0  24.1  34100  288.55 0855.27
2009/04/23 09:43:40.4    -188   -501    266    536    598 200.6  28.2  34104  288.64 0855.27
2009/04/23 09:43:40.5    -213   -640    149    675    692 198.5  12.5  34102  288.58 0855.27
2009/04/23 09:43:40.6    -116   -567     -2    579    580 191.6  -0.3  34094  288.44 0855.27
2009/04/23 09:43:40.7     -74   -421     -6    428    429 190.0  -0.9  34090  288.39 0855.27
2009/04/23 09:43:40.8     -94   -336     43    350    353 195.7   7.1  34104  288.64 0855.27
2009/04/23 09:43:40.9     -92   -381    174    393    429 193.7  25.2  34092  288.41 0855.27
2009/04/23 09:43:41.0    -110   -470    370    483    608 193.2  41.3  34096  288.48 0855.27
2009/04/23 09:43:41.1    -523   -515    182    735    758 225.5  13.9  34106  288.65 0855.27
2009/04/23 09:43:41.2    -611   -388   -101    724    732 237.6  -8.0  34098  288.52 0855.27
2009/04/23 09:43:41.3    -600   -307      5    674    675 242.9   0.5  34110  288.72 0855.27
2009/04/23 09:43:41.4    -446   -252    -98    513    523 240.5 -10.8  34114  288.80 0855.27
2009/04/23 09:43:41.5    -590   -300    -12    663    664 243.0  -1.1  34108  288.70 0855.27
2009/04/23 09:43:41.6    -553   -251   -188    608    637 245.6 -17.2  34098  288.52 0855.27
2009/04/23 09:43:41.7    -489    -67   -176    494    525 262.1 -19.7  34094  288.46 0855.27
2009/04/23 09:43:41.8    -697   -115   -239    707    747 260.6 -18.7  34110  288.71 0855.27
2009/04/23 09:43:41.9    -534    -86   -226    542    587 260.8 -28.5  34102  288.59 0855.27
2009/04/23 09:43:42.0    -475     -8   -229    476    528 269.0 -31.7  34110  288.73 0855.29
2009/04/23 09:43:42.1    -699    144   -278    714    766 281.7 -26.9  34086  288.33 0855.29
2009/04/23 09:43:42.2    -805     59   -230    808    840 274.2 -20.7  34124  288.96 0855.29
2009/04/23 09:43:42.3    -827     36   -230    828    859 272.5 -20.2  34120  288.88 0855.29
2009/04/23 09:43:42.4    -757     72   -230    761    794 275.5 -21.7  34116  288.83 0855.29
2009/04/23 09:43:42.5    -754     75   -253    758    799 275.7 -23.6  34110  288.71 0855.29
2009/04/23 09:43:42.6    -664    -60   -260    667    715 264.8 -26.8  34106  288.67 0855.29
2009/04/23 09:43:42.7    -359     22   -256    360    441 273.6 -43.4  34106  288.67 0855.29
2009/04/23 09:43:42.8    -475    163   -337    503    605 289.0 -41.5  34112  288.76 0855.29
2009/04/23 09:43:42.9    -482     93   -227    491    540 281.0 -31.1  34104  288.63 0855.29
2009/04/23 09:43:43.0    -466    130   -174    484    514 285.6 -25.1  34106  288.66 0855.29
2009/04/23 09:43:43.1    -232    235   -162    331    368 315.5 -32.3  34112  288.77 0855.29
2009/04/23 09:43:43.2     -98    246    -58    266    273 338.2 -12.4  34114  288.78 0855.29
2009/04/23 09:43:43.3    -389   -142    -83    415    424 250.0 -11.3  34112  288.77 0855.29
2009/04/23 09:43:43.4    -400     27    -31    401    403 273.9  -4.5  34112  288.77 0855.29
2009/04/23 09:43:43.5    -342    110     73    360    368 287.8  11.5  34116  288.81 0855.29
2009/04/23 09:43:43.6    -305    148   -124    340    361 296.0 -25.3  34106  288.66 0855.29
2009/04/23 09:43:43.7    -339     61     -6    345    346 280.3  -1.2  34106  288.67 0855.29
2009/04/23 09:43:43.8    -333    150   -146    366    394 294.2 -27.4  34110  288.74 0855.29
2009/04/23 09:43:43.9    -319    274   -163    421    451 310.7 -26.8  34110  288.73 0855.29
2009/04/23 09:43:44.0    -250    175      3    306    307 305.1   0.7  34120  288.90 0855.26
2009/04/23 09:43:44.1    -235    -70   -119    246    273 253.4 -31.7  34114  288.78 0855.26
2009/04/23 09:43:44.2    -370    109   -157    386    416 286.5 -27.6  34110  288.73 0855.26
2009/04/23 09:43:44.3    -194     82   -197    211    288 293.1 -52.4  34114  288.78 0855.26
2009/04/23 09:43:44.4    -164    -89    -59    187    196 241.4 -22.5  34112  288.75 0855.26
2009/04/23 09:43:44.5    -267    -29    -95    269    286 263.6 -19.6  34122  288.93 0855.26
2009/04/23 09:43:44.6    -309     30   -166    311    352 275.7 -34.7  34114  288.79 0855.26
2009/04/23 09:43:44.7    -255    -40   -211    259    334 261.0 -47.9  34120  288.88 0855.26
2009/04/23 09:43:44.8    -162   -173    -80    238    252 223.2 -18.6  34122  288.93 0855.26
2009/04/23 09:43:44.9    -223   -136    -95    262    278 238.7 -25.3  34124  288.97 0855.26
2009/04/23 09:43:45.0     -88   -210    -45    228    233 202.7 -11.3  34120  288.91 0855.26
2009/04/23 09:43:45.1    -110   -201    -41    230    234 208.7 -10.3  34116  288.84 0855.26
2009/04/23 09:43:45.2      -8   -188    -24    189    191 182.5  -7.3  34116  288.84 0855.26
2009/04/23 09:43:45.3     -53   -144     28    154    157 200.5  10.6  34118  288.86 0855.26
2009/04/23 09:43:45.4     -45    -82     44     94    103 209.0  27.1  34120  288.89 0855.26
2009/04/23 09:43:45.5    -112   -109     14    157    158 225.6   5.4  34124  288.96 0855.26
2009/04/23 09:43:45.6    -124    -85    -45    151    158 235.4 -16.8  34130  289.08 0855.26
2009/04/23 09:43:45.7     -20   -102     -1    105    106 191.5  -0.7  34122  288.92 0855.26
2009/04/23 09:43:45.8       5   -199    -10    200    201 178.4  -3.1  34116  288.84 0855.26
2009/04/23 09:43:45.9       3   -243     72    244    255 179.1  16.6  34114  288.80 0855.26
2009/04/23 09:43:46.0     -78   -258     27    270    272 196.9   5.9  34116  288.83 0855.26
2009/04/23 09:43:46.1     -89   -264     40    279    282 198.7   8.2  34112  288.76 0855.26
2009/04/23 09:43:46.2     -86   -221    -74    238    250 201.4 -17.3  34110  288.73 0855.26
2009/04/23 09:43:46.3       0   -194    -67    195    207 180.0 -18.9  34106  288.65 0855.26
2009/04/23 09:43:46.4      49   -263     50    268    273 169.3  10.6  34110  288.73 0855.26
2009/04/23 09:43:46.5      14   -298     -5    299    300 177.3  -1.1  34116  288.81 0855.26
2009/04/23 09:43:46.6     -18   -236     -2    237    238 184.5  -0.5  34108  288.70 0855.26
2009/04/23 09:43:46.7      -9   -209     94    210    230 182.5  25.9  34112  288.75 0855.26
2009/04/23 09:43:46.8      -7   -218    114    219    246 182.0  29.5  34114  288.80 0855.26
2009/04/23 09:43:46.9     -15   -197    108    198    225 184.5  31.3  34114  288.80 0855.26
2009/04/23 09:43:47.0     -20   -148     28    150    153 188.0  10.6  34112  288.75 0855.26
2009/04/23 09:43:47.1     -19    -68     73     71    101 196.0  50.7  34112  288.77 0855.26
2009/04/23 09:43:47.2      80    -61     92    101    136 127.3  47.5  34116  288.82 0855.26
2009/04/23 09:43:47.3      30    -54     87     62    106 151.0  61.1  34118  288.87 0855.26
2009/04/23 09:43:47.4      44    -91     80    102    129 154.1  42.2  34114  288.80 0855.26
2009/04/23 09:43:47.5     135     -6    123    136    183  92.6  47.1  34118  288.87 0855.26
2009/04/23 09:43:47.6     125     16    107    127    166  82.5  44.3  34118  288.87 0855.26
2009/04/23 09:43:47.7     108      4    111    109    155  87.4  50.1  34120  288.91 0855.26
2009/04/23 09:43:47.8     169   -109    131    202    240 122.9  36.0  34114  288.79 0855.26
2009/04/23 09:43:47.9      53   -160    129    169    212 161.7  41.4  34112  288.75 0855.26
2009/04/23 09:43:48.0     136   -105    185    172    252 127.8  52.2  34118  288.86 0855.27
2009/04/23 09:43:48.1      93    -82    198    125    234 131.3  64.7  34118  288.87 0855.27
2009/04/23 09:43:48.2       0   -116    216    117    245 180.0  69.6  34114  288.80 0855.27
2009/04/23 09:43:48.3    -161   -171    207    236    313 223.2  45.7  34108  288.70 0855.27
2009/04/23 09:43:48.4     -13   -176    253    177    308 184.4  61.7  34114  288.80 0855.27
2009/04/23 09:43:48.5     -25    -89    224     93    242 196.0  76.3  34110  288.72 0855.27
2009/04/23 09:43:48.6     196   -130    147    236    278 123.5  35.0  34114  288.78 0855.27
2009/04/23 09:43:48.7     111   -212    192    240    307 152.4  42.8  34116  288.81 0855.27
2009/04/23 09:43:48.8     154   -156    123    220    252 135.5  31.9  34114  288.80 0855.27
2009/04/23 09:43:48.9      63   -190     51    201    208 161.5  14.3  34116  288.82 0855.27
2009/04/23 09:43:49.0     -21   -174    -96    176    200 187.1 -35.4  34112  288.75 0855.27
2009/04/23 09:43:49.1     -68   -214    -99    225    245 197.8 -29.7  34110  288.73 0855.27
2009/04/23 09:43:49.2     -68   -204    -67    216    227 198.5 -17.3  34108  288.70 0855.27
2009/04/23 09:43:49.3    -201   -201    -36    285    288 225.1  -7.3  34112  288.75 0855.27
2009/04/23 09:43:49.4    -193   -122     36    229    232 237.5   9.0  34112  288.77 0855.27
2009/04/23 09:43:49.5     -53   -237     -9    243    244 192.7  -2.2  34112  288.76 0855.27
2009/04/23 09:43:49.6     -56   -274     -6    280    281 191.6  -1.3  34112  288.76 0855.27
2009/04/23 09:43:49.7     -64   -207    -73    217    230 197.2 -18.7  34112  288.75 0855.27
2009/04/23 09:43:49.8     -55   -169    -31    178    181 198.3 -10.1  34112  288.77 0855.27
2009/04/23 09:43:49.9      -9   -118     14    119    120 184.5   7.1  34116  288.84 0855.27
2009/04/23 09:43:50.0      35    -63    -12     73     74 151.0  -9.3  34116  288.82 0855.27
2009/04/23 09:43:50.1       8    -26    -13     28     30 163.1 -31.5  34114  288.80 0855.27
2009/04/23 09:43:50.2     -45    -36    -22     58     62 231.4 -26.4  34114  288.80 0855.27
2009/04/23 09:43:50.3     -16    -48    -24     51     56 198.3 -31.5  34116  288.84 0855.27
2009/04/23 09:43:50.4       0   -101    -39    102    109 180.5 -25.9  34116  288.84 0855.27
2009/04/23 09:43:50.5     -36   -206    -34    210    213 190.0  -9.3  34112  288.77 0855.27
2009/04/23 09:43:50.6     -21   -277    -15    278    279 184.5  -3.1  34112  288.76 0855.27
2009/04/23 09:43:50.7    -146   -202    107    250    271 215.8  24.3  34108  288.68 0855.27
2009/04/23 09:43:50.8      26   -182    169    184    249 171.8  47.1  34112  288.75 0855.27
2009/04/23 09:43:50.9      92   -203    142    224    265 155.5  35.5  34108  288.68 0855.27
2009/04/23 09:43:51.0     100   -263    130    282    310 159.1  26.6  34108  288.68 0855.28
2009/04/23 09:43:51.1     116   -326     98    347    361 160.4  15.9  34102  288.60 0855.28
2009/04/23 09:43:51.2     154   -350    154    383    412 156.2  23.1  34106  288.65 0855.28
2009/04/23 09:43:51.3     129   -336    138    360    385 159.0  22.0  34102  288.59 0855.28
2009/04/23 09:43:51.4     153   -241    134    286    315 147.5  26.9  34104  288.61 0855.28
2009/04/23 09:43:51.5     178   -294    119    344    365 148.8  19.2  34096  288.49 0855.28
2009/04/23 09:43:51.6     152   -318    110    353    370 154.4  17.3  34100  288.57 0855.28
2009/04/23 09:43:51.7     128   -307    146    333    363 157.3  25.2  34100  288.54 0855.28
2009/04/23 09:43:51.8      27   -358    141    359    385 175.7  22.8  34096  288.49 0855.28
2009/04/23 09:43:51.9      -1   -360    195    361    410 180.3  30.8  34100  288.54 0855.28
2009/04/23 09:43:52.0     144   -377    288    404    496 159.0  39.1  34088  288.34 0855.28
2009/04/23 09:43:52.1      88   -438    362    447    575 168.6  43.1  34092  288.41 0855.28
2009/04/23 09:43:52.2     -15   -407    262    408    484 182.2  35.7  34090  288.39 0855.28
2009/04/23 09:43:52.3      -8   -273    233    274    359 181.8  44.8  34088  288.35 0855.28
2009/04/23 09:43:52.4    -125   -322    132    346    370 201.2  21.8  34094  288.45 0855.28
2009/04/23 09:43:52.5     -94   -219     77    239    252 203.2  17.9  34100  288.54 0855.28
2009/04/23 09:43:52.6      29    -92     42     97    105 162.2  24.6  34100  288.55 0855.28
2009/04/23 09:43:52.7      72    -78     65    107    125 137.2  34.4  34104  288.62 0855.28
2009/04/23 09:43:52.8      20   -101    -10    104    105 168.4  -5.6  34102  288.58 0855.28
2009/04/23 09:43:52.9      41   -191     41    196    201 167.7  12.0  34098  288.53 0855.28
2009/04/23 09:43:53.0      61   -201     46    211    217 163.0  12.4  34096  288.48 0855.29
2009/04/23 09:43:53.1      83   -141     65    164    176 149.5  22.8  34102  288.60 0855.29
2009/04/23 09:43:53.2      78   -142     97    163    189 151.1  33.7  34096  288.50 0855.29
2009/04/23 09:43:53.3      91   -204    118    224    253 155.9  30.3  34100  288.54 0855.29
2009/04/23 09:43:53.4      -9   -199    164    200    258 182.7  43.7  34100  288.54 0855.29
2009/04/23 09:43:53.5      65   -134    154    150    214 154.1  50.7  34102  288.58 0855.29
2009/04/23 09:43:53.6      13   -189    196    190    272 176.0  50.9  34104  288.63 0855.29
2009/04/23 09:43:53.7      69   -255    113    265    288 164.9  24.6  34100  288.56 0855.29
2009/04/23 09:43:53.8     -18   -240     69    241    251 184.5  16.0  34100  288.54 0855.29
2009/04/23 09:43:53.9      41   -204    -42    209    214 168.7 -11.5  34100  288.55 0855.29
2009/04/23 09:43:54.0      58    -72    -35     93     99 140.8 -25.9  34102  288.58 0855.29
2009/04/23 09:43:54.1      48    -15     -6     51     52 108.2  -7.3  34102  288.58 0855.29
2009/04/23 09:43:54.2      35    100    -32    107    111  19.6 -21.7  34104  288.64 0855.29
2009/04/23 09:43:54.3      53    186    -31    194    197  16.0  -9.3  34102  288.60 0855.29
2009/04/23 09:43:54.4     121    203    -25    237    239  30.8  -6.2  34096  288.49 0855.29
2009/04/23 09:43:54.5     148    151     83    212    227  44.3  22.8  34096  288.48 0855.29
2009/04/23 09:43:54.6      84     79    191    116    223  46.9  66.0  34106  288.65 0855.29
2009/04/23 09:43:54.7     141     17    211    143    254  83.0  62.6  34100  288.57 0855.29
2009/04/23 09:43:54.8      12     12    183     18    183  45.0  90.0  34108  288.69 0855.29
2009/04/23 09:43:54.9     -95     -2    180     96    204 268.7  69.6  34112  288.77 0855.29
2009/04/23 09:43:55.0    -122    150    156    194    248 321.0  43.0  34100  288.57 0855.29
2009/04/23 09:43:55.1     -56    161    189    171    254 340.8  53.3  34102  288.60 0855.29
2009/04/23 09:43:55.2     -86    213    146    230    272 337.9  35.5  34100  288.56 0855.29
2009/04/23 09:43:55.3      61     81    154    102    184  37.4  63.6  34100  288.55 0855.29
2009/04/23 09:43:55.4      91    143    164    170    236  32.7  49.0  34098  288.53 0855.29
2009/04/23 09:43:55.5     211    116    219    241    325  61.1  47.0  34102  288.58 0855.29
2009/04/23 09:43:55.6     143    145    159    204    258  44.7  41.7  34100  288.56 0855.29
2009/04/23 09:43:55.7     125    -36   -107    131    169 106.4 -48.1  34104  288.64 0855.29
2009/04/23 09:43:55.8     129    -81   -149    153    213 122.0 -54.2  34100  288.57 0855.29
2009/04/23 09:43:55.9      63    -58   -153     87    176 132.7 -72.5  34100  288.57 0855.29
2009/04/23 09:43:56.0     -16     -6    -98     18     99 248.3 -90.0  34096  288.48 0855.29
2009/04/23 09:43:56.1     155    136   -150    207    255  48.6 -44.1  34092  288.43 0855.29
2009/04/23 09:43:56.2     126    125    -42    178    184  45.3 -13.4  34088  288.36 0855.29
2009/04/23 09:43:56.3       0     11    110     12    110 357.3  90.0  34090  288.40 0855.29
2009/04/23 09:43:56.4     -40     29    187     50    193 306.0  84.9  34108  288.69 0855.29
2009/04/23 09:43:56.5    -300      4    217    301    371 270.8  39.5  34084  288.30 0855.29
2009/04/23 09:43:56.6     -87    -34    177     94    200 248.3  70.0  34086  288.31 0855.29
2009/04/23 09:43:56.7     -54    -40    146     68    161 233.1  73.5  34098  288.52 0855.29
2009/04/23 09:43:56.8      -8   -107    136    108    173 184.4  57.5  34092  288.42 0855.29
2009/04/23 09:43:56.9      29   -248    301    250    391 173.3  56.3  34092  288.42 0855.29
2009/04/23 09:43:57.0     -54   -354    198    359    409 188.7  31.4  34090  288.38 0855.31
2009/04/23 09:43:57.1       8   -333    259    334    422 178.6  41.7  34086  288.33 0855.31
2009/04/23 09:43:57.2     258   -184    237    318    396 125.5  40.6  34084  288.30 0855.31
2009/04/23 09:43:57.3      60   -333    197    339    392 169.8  32.8  34090  288.38 0855.31
2009/04/23 09:43:57.4      43   -340    239    343    418 172.7  38.4  34094  288.44 0855.31
2009/04/23 09:43:57.5     343   -464    274    578    639 143.5  27.2  34084  288.28 0855.31
2009/04/23 09:43:57.6     285   -381    246    477    536 143.2  29.3  34088  288.34 0855.31
2009/04/23 09:43:57.7     269   -304    120    407    425 138.5  16.5  34086  288.33 0855.31
2009/04/23 09:43:57.8     262   -325    161    418    447 141.2  22.2  34082  288.24 0855.31
2009/04/23 09:43:57.9      43   -484    276    486    558 174.8  32.3  34092  288.43 0855.31
2009/04/23 09:43:58.0       0   -540    313    541    625 179.9  32.7  34096  288.48 0855.31
2009/04/23 09:43:58.1     -33   -541    284    542    611 183.5  30.0  34090  288.37 0855.31
2009/04/23 09:43:58.2     -88   -532    246    540    593 189.4  26.2  34090  288.39 0855.31
2009/04/23 09:43:58.3     147   -480    -52    503    506 163.0  -5.9  34084  288.27 0855.31
2009/04/23 09:43:58.4     201   -453    -81    496    503 156.1  -9.4  34092  288.42 0855.31
2009/04/23 09:43:58.5     187   -361     62    407    412 152.6   8.7  34084  288.29 0855.31
2009/04/23 09:43:58.6      38   -492    309    494    582 175.5  35.1  34096  288.50 0855.31
2009/04/23 09:43:58.7     -15   -442    330    443    552 182.0  40.4  34096  288.49 0855.31
2009/04/23 09:43:58.8     -10   -337    244    338    416 181.7  39.5  34094  288.45 0855.31
2009/04/23 09:43:58.9      59   -194    137    203    244 163.1  37.4  34094  288.47 0855.31
2009/04/23 09:43:59.0      39   -259     -5    262    263 171.3  -1.3  34092  288.43 0855.32
2009/04/23 09:43:59.1     193   -263    -26    327    329 143.7  -4.6  34088  288.36 0855.32
2009/04/23 09:43:59.2     -19   -251     31    252    254 184.4   7.1  34092  288.41 0855.32
2009/04/23 09:43:59.3    -149   -444   -130    469    487 198.6 -15.5  34096  288.49 0855.32
2009/04/23 09:43:59.4    -174   -527   -139    556    574 198.3 -14.1  34098  288.52 0855.32
2009/04/23 09:43:59.5    -238   -503   -164    557    580 205.3 -21.2  34082  288.26 0855.32
2009/04/23 09:43:59.6    -310   -398   -174    505    535 217.9 -19.1  34092  288.41 0855.32
2009/04/23 09:43:59.7    -346   -438   -162    559    582 218.3 -20.8  34086  288.32 0855.32
2009/04/23 09:43:59.8    -271   -374   -159    463    489 216.0 -23.9  34082  288.24 0855.32
2009/04/23 09:43:59.9    -311   -277   -121    417    435 228.3 -16.2  34094  288.46 0855.32
2009/04/23 09:44:00.0    -282   -221   -104    359    373 231.9 -20.9  34086  288.32 0855.32
2009/04/23 09:44:00.1    -210   -202   -137    292    322 226.0 -31.5  34078  288.17 0855.32
2009/04/23 09:44:00.2    -206   -134   -125    246    275 236.9 -33.6  34090  288.37 0855.32
2009/04/23 09:44:00.3    -132   -247    -10    281    282 208.1  -2.2  34096  288.49 0855.32
2009/04/23 09:44:00.4     -83   -278    -46    291    295 196.7  -9.0  34100  288.54 0855.32
2009/04/23 09:44:00.5    -184   -133    -63    228    236 234.0 -20.0  34102  288.58 0855.32
2009/04/23 09:44:00.6    -135    -64    -40    150    156 244.6 -15.2  34104  288.64 0855.32
2009/04/23 09:44:00.7     -15    -75     23     77     81 191.6  16.8  34102  288.58 0855.32
2009/04/23 09:44:00.8     101   -255     92    275    291 158.4  18.6  34096  288.48 0855.32
2009/04/23 09:44:00.9     169   -275     40    324    327 148.4   7.1  34096  288.48 0855.32
2009/04/23 09:44:01.0      92   -347     32    360    362 165.1   5.1  34096  288.50 0855.31
2009/04/23 09:44:01.1     119   -296     92    320    334 158.1  16.1  34098  288.51 0855.31
2009/04/23 09:44:01.2      94   -186     15    209    210 153.0   4.2  34094  288.45 0855.31
2009/04/23 09:44:01.3     136   -155     32    207    210 138.6   8.8  34098  288.52 0855.31
2009/04/23 09:44:01.4     219    -82     11    235    236 110.6   2.8  34094  288.44 0855.31
2009/04/23 09:44:01.5     210    -43     74    215    228 101.7  19.2  34098  288.52 0855.31
2009/04/23 09:44:01.6     207    -70    117    219    248 108.8  30.3  34094  288.44 0855.31
2009/04/23 09:44:01.7     125    -59    255    139    290 115.2  68.9  34100  288.54 0855.31
2009/04/23 09:44:01.8       6     78    133     79    154   4.4  66.2  34104  288.62 0855.31
2009/04/23 09:44:01.9      45   -163    138    170    218 164.4  43.5  34092  288.42 0855.31
2009/04/23 09:44:02.0      51   -172    196    180    266 163.5  52.7  34096  288.49 0855.31
2009/04/23 09:44:02.1      41   -229    170    233    288 169.8  39.7  34098  288.51 0855.31
2009/04/23 09:44:02.2     101   -180    183    207    276 150.6  45.9  34106  288.65 0855.31
2009/04/23 09:44:02.3      23    -72    152     76    169 161.7  71.7  34106  288.65 0855.31
2009/04/23 09:44:02.4       7    -35    126     36    131 168.4  83.9  34110  288.72 0855.31
2009/04/23 09:44:02.5       8   -108    151    109    186 175.6  60.5  34106  288.67 0855.31
2009/04/23 09:44:02.6       4   -164    196    165    256 178.4  55.8  34106  288.65 0855.31
2009/04/23 09:44:02.7     -35   -253    237    256    348 188.0  47.8  34100  288.56 0855.31
2009/04/23 09:44:02.8      59   -208    190    217    288 164.0  45.8  34110  288.73 0855.31
2009/04/23 09:44:02.9      83   -214    178    230    290 158.8  41.7  34112  288.75 0855.31
2009/04/23 09:44:03.0      12   -213    173    214    275 176.6  43.3  34110  288.73 0855.30
2009/04/23 09:44:03.1       5   -214    136    215    254 178.6  35.5  34102  288.59 0855.30
2009/04/23 09:44:03.2      38   -171    153    176    233 167.3  45.6  34108  288.70 0855.30
2009/04/23 09:44:03.3      51   -190    147    197    245 164.9  40.7  34104  288.62 0855.30
2009/04/23 09:44:03.4      55   -244    123    251    279 167.3  28.2  34100  288.56 0855.30
2009/04/23 09:44:03.5      65   -260    188    269    328 165.8  38.4  34098  288.51 0855.30
2009/04/23 09:44:03.6      43   -263    175    267    319 170.7  36.3  34098  288.51 0855.30
2009/04/23 09:44:03.7     -23   -313     69    314    322 184.4  12.5  34102  288.58 0855.30
2009/04/23 09:44:03.9      11   -369    100    370    384 178.3  15.1  34096  288.50 0855.30
2009/04/23 09:44:03.9      85   -518    235    526    576 170.7  25.8  34102  288.60 0855.30
2009/04/23 09:44:04.0     -40   -518    170    520    548 184.5  18.1  34102  288.58 0855.30
2009/04/23 09:44:04.2     -23   -475    286    476    555 182.8  34.0  34104  288.63 0855.30
2009/04/23 09:44:04.2      30   -362    275    364    456 175.2  40.8  34102  288.60 0855.30
2009/04/23 09:44:04.4     141   -387    131    413    434 160.0  17.7  34100  288.55 0855.30
2009/04/23 09:44:04.5      27   -335    136    337    363 175.3  23.1  34102  288.59 0855.30
2009/04/23 09:44:04.5     -38   -469     46    471    474 184.7   5.7  34100  288.56 0855.30
2009/04/23 09:44:04.7     -73   -465     92    471    481 189.0  11.1  34100  288.56 0855.30
2009/04/23 09:44:04.8      45   -414    146    417    441 173.8  20.0  34100  288.56 0855.30
2009/04/23 09:44:04.9      90   -408     44    418    421 167.5   6.1  34098  288.53 0855.30
2009/04/23 09:44:05.0      66   -477     10    482    483 172.1   1.2  34098  288.51 0855.30
2009/04/23 09:44:05.1     -16   -541    -63    542    546 181.8  -6.7  34098  288.52 0855.30
2009/04/23 09:44:05.2      16   -523     83    524    531 178.2   9.0  34086  288.33 0855.30
2009/04/23 09:44:05.3    -146   -539     63    559    563 195.2   6.5  34098  288.52 0855.30
2009/04/23 09:44:05.4     -84   -635     79    641    646 187.6   7.1  34100  288.54 0855.30
2009/04/23 09:44:05.5     -89   -774    162    780    797 186.6  11.8  34092  288.42 0855.30
2009/04/23 09:44:05.6    -192   -520    136    555    572 200.3  13.8  34096  288.50 0855.30
2009/04/23 09:44:05.7    -309   -346     -9    465    466 221.8  -1.1  34098  288.51 0855.30
2009/04/23 09:44:05.8    -258   -525     33    586    587 206.2   3.2  34098  288.53 0855.30
2009/04/23 09:44:05.9    -200   -651    -22    682    683 197.1  -1.9  34104  288.63 0855.30
2009/04/23 09:44:06.0    -242   -598    -83    646    652 202.1  -7.3  34094  288.47 0855.30
2009/04/23 09:44:06.1    -206   -601   -167    636    658 198.9 -14.8  34096  288.49 0855.30
2009/04/23 09:44:06.2    -233   -522   -214    572    610 204.1 -25.9  34096  288.49 0855.30
2009/04/23 09:44:06.3    -149   -647   -219    664    700 193.0 -18.3  34098  288.53 0855.30
2009/04/23 09:44:06.4    -153   -654   -211    672    705 193.2 -17.4  34096  288.50 0855.30
2009/04/23 09:44:06.5    -251   -552   -217    607    645 204.5 -19.7  34102  288.59 0855.30
2009/04/23 09:44:06.6    -172   -437   -145    470    493 201.6 -17.2  34094  288.46 0855.30
2009/04/23 09:44:06.7    -220   -429   -177    483    514 207.2 -25.4  34100  288.56 0855.30
2009/04/23 09:44:06.8    -226   -388   -245    449    511 210.2 -35.3  34102  288.59 0855.30
2009/04/23 09:44:06.9    -229   -260   -215    347    408 221.4 -39.3  34104  288.62 0855.30
2009/04/23 09:44:07.0    -227   -260   -211    346    405 221.1 -38.7  34104  288.62 0855.30
2009/04/23 09:44:07.1    -131   -198   -216    238    321 213.6 -51.4  34106  288.65 0855.32
2009/04/23 09:44:07.2      95   -201   -165    223    277 154.5 -44.5  34104  288.61 0855.32
2009/04/23 09:44:07.3     281   -315   -144    423    447 138.3 -18.8  34100  288.56 0855.32
2009/04/23 09:44:07.4     269   -300    -96    404    416 138.1 -13.4  34098  288.51 0855.32
2009/04/23 09:44:07.5     185   -204    -98    276    292 137.7 -24.8  34098  288.53 0855.32
2009/04/23 09:44:07.6     270   -252    -19    370    371 133.0  -3.0  34098  288.52 0855.32
2009/04/23 09:44:07.7     347   -221     87    412    422 122.5  12.0  34096  288.48 0855.32
2009/04/23 09:44:07.8     293   -159    116    334    354 118.6  19.2  34090  288.38 0855.32
2009/04/23 09:44:07.9     294   -161      5    336    337 118.8   1.0  34100  288.54 0855.32
2009/04/23 09:44:08.0     243   -222    157    330    365 132.4  27.2  34100  288.57 0855.32
2009/04/23 09:44:08.1      83   -269    147    282    318 162.8  29.6  34102  288.59 0855.32
2009/04/23 09:44:08.2     109   -272    157    294    333 158.2  30.5  34102  288.58 0855.32
2009/04/23 09:44:08.3     174   -266    153    318    352 146.8  27.4  34102  288.60 0855.32
2009/04/23 09:44:08.4     172   -292    193    339    390 149.5  32.3  34102  288.59 0855.32
2009/04/23 09:44:08.5      34   -248    204    251    323 172.0  43.4  34102  288.59 0855.32
2009/04/23 09:44:08.6     109   -241    224    265    346 155.5  44.4  34104  288.61 0855.32
2009/04/23 09:44:08.7      34   -349    268    351    441 174.3  41.3  34102  288.58 0855.32
2009/04/23 09:44:08.8      83   -410    289    419    509 168.4  38.0  34104  288.61 0855.32
2009/04/23 09:44:08.9     200   -411    265    458    529 154.0  32.7  34104  288.61 0855.32
2009/04/23 09:44:09.0      51   -397     48    401    404 172.7   6.9  34100  288.55 0855.32
2009/04/23 09:44:09.1    -126   -379     77    400    408 198.5  11.0  34102  288.60 0855.32
2009/04/23 09:44:09.2      80   -377    139    386    410 167.9  20.6  34104  288.63 0855.32
2009/04/23 09:44:09.3     135   -264    153    297    334 152.8  29.4  34098  288.53 0855.32
2009/04/23 09:44:09.4     148   -109    165    184    247 126.4  46.6  34104  288.64 0855.32
2009/04/23 09:44:09.5     192    -50     98    199    221 104.6  28.0  34102  288.60 0855.32
2009/04/23 09:44:09.6      31    -15     66     35     74 117.1  69.8  34106  288.67 0855.32
2009/04/23 09:44:09.7     -38    -71     14     81     83 208.1  10.1  34114  288.79 0855.32
2009/04/23 09:44:09.8     -15    -68     90     70    114 192.5  57.9  34108  288.69 0855.32
2009/04/23 09:44:09.9     -39   -206     55    210    218 190.7  14.7  34104  288.62 0855.32
2009/04/23 09:44:10.0     -23   -311     92    312    326 184.2  16.5  34100  288.56 0855.32
2009/04/23 09:44:10.1     -38   -341    218    344    407 186.5  35.5  34100  288.54 0855.35
2009/04/23 09:44:10.2      24   -308    242    310    393 175.5  42.0  34104  288.62 0855.35
2009/04/23 09:44:10.3      45   -289    276    293    402 171.1  48.0  34106  288.67 0855.35
2009/04/23 09:44:10.4     131   -373    303    396    498 160.6  41.2  34100  288.54 0855.35
2009/04/23 09:44:10.5      72   -354    288    362    462 168.4  42.7  34098  288.53 0855.35
2009/04/23 09:44:10.6      59   -290    253    297    390 168.4  44.8  34102  288.60 0855.35
2009/04/23 09:44:10.7     -12   -225    277    226    357 183.1  56.8  34100  288.56 0855.35
2009/04/23 09:44:10.8     -29   -387    387    389    548 184.4  49.9  34100  288.56 0855.35
2009/04/23 09:44:10.9      17   -340    375    341    506 177.0  53.2  34100  288.56 0855.35
2009/04/23 09:44:11.0     155   -379    356    410    542 157.7  45.4  34100  288.54 0855.35
2009/04/23 09:44:11.1      70   -246    297    256    392 164.0  54.9  34094  288.45 0855.35
2009/04/23 09:44:11.2     -78   -320    249    330    413 193.8  40.8  34100  288.57 0855.35
2009/04/23 09:44:11.3      50   -286    247    291    381 170.0  44.4  34100  288.55 0855.35
2009/04/23 09:44:11.4       0   -250    301    251    391 180.1  56.1  34102  288.60 0855.35
2009/04/23 09:44:11.5     -73   -233    226    245    333 197.4  47.6  34100  288.56 0855.35
2009/04/23 09:44:11.6    -110   -198    213    227    311 209.0  48.0  34102  288.59 0855.35
2009/04/23 09:44:11.7     -27   -135    217    138    257 191.5  64.7  34110  288.72 0855.35
2009/04/23 09:44:11.8     -72   -219    129    231    264 198.3  31.4  34102  288.59 0855.35
2009/04/23 09:44:11.9     -64    -95     72    115    135 214.3  35.5  34102  288.60 0855.35
2009/04/23 09:44:12.0    -132    -54      2    143    144 247.4   0.8  34098  288.52 0855.35
2009/04/23 09:44:12.1     -71    -47     -3     86     87 236.3  -2.6  34104  288.64 0855.37
2009/04/23 09:44:12.2    -119    -88      8    149    150 233.6   3.3  34096  288.50 0855.37
2009/04/23 09:44:12.3    -239     52     -1    245    246 282.3  -0.3  34098  288.51 0855.37
2009/04/23 09:44:12.4    -204     59     40    213    217 286.2  10.8  34100  288.57 0855.37
2009/04/23 09:44:12.5    -165     62    115    177    211 290.8  35.7  34106  288.67 0855.37
2009/04/23 09:44:12.6    -114    101    150    153    214 311.8  49.9  34098  288.52 0855.37
2009/04/23 09:44:12.7     -58    -11     85     60    104 258.5  61.5  34114  288.79 0855.37
2009/04/23 09:44:12.8     -25     24     54     35     64 313.3  64.6  34114  288.79 0855.37
2009/04/23 09:44:12.9      73    104      6    128    129  35.2   2.9  34126  288.99 0855.37
2009/04/23 09:44:13.0       7     72   -131     73    149   6.2 -73.2  34116  288.82 0855.37
2009/04/23 09:44:13.1    -241    -86    -92    257    274 250.3 -19.7  34106  288.65 0855.37
2009/04/23 09:44:13.2    -227   -380   -140    443    465 210.9 -17.5  34100  288.55 0855.37
2009/04/23 09:44:13.3    -229   -285   -188    366    411 218.8 -33.7  34092  288.42 0855.37
2009/04/23 09:44:13.4     157   -286   -175    327    370 151.1 -35.1  34096  288.49 0855.37
2009/04/23 09:44:13.5     250    -44    -69    254    264 100.1 -15.2  34102  288.59 0855.37
2009/04/23 09:44:13.6    -135    173     10    220    221 322.2   2.8  34100  288.57 0855.37
2009/04/23 09:44:13.7    -316    239     39    397    399 307.1   5.7  34116  288.82 0855.37
2009/04/23 09:44:13.8    -263    224    178    346    389 310.4  29.3  34110  288.71 0855.37
2009/04/23 09:44:13.9     -90    148    206    174    269 328.6  55.8  34112  288.75 0855.37
2009/04/23 09:44:14.0    -220    132    237    257    349 300.9  47.6  34130  289.05 0855.37
2009/04/23 09:44:14.1    -201    123    176    236    294 301.5  40.6  34160  289.58 0855.37
2009/04/23 09:44:14.2    -198    108    126    226    258 298.8  31.4  34160  289.58 0855.37
2009/04/23 09:44:14.3    -228      0    109    229    253 270.0  27.3  34142  289.25 0855.37
2009/04/23 09:44:14.4    -153   -129    146    201    248 229.8  39.7  34122  288.92 0855.37
2009/04/23 09:44:14.5    -188    -66    114    200    230 250.5  32.1  34118  288.86 0855.37
2009/04/23 09:44:14.6    -162   -135    207    211    295 230.2  49.8  34112  288.75 0855.37
2009/04/23 09:44:14.7    -227   -165    178    281    332 234.0  35.5  34116  288.81 0855.37
2009/04/23 09:44:14.8    -216   -259    155    338    371 219.9  26.3  34116  288.81 0855.37
2009/04/23 09:44:14.9     -94   -274    136    290    320 199.1  27.0  34112  288.75 0855.37
2009/04/23 09:44:15.0       1   -172    268    173    318 179.5  64.3  34118  288.85 0855.37
2009/04/23 09:44:15.1      43   -269    260    273    377 170.9  48.5  34110  288.72 0855.37
2009/04/23 09:44:15.2    -124   -330    234    353    423 200.6  36.5  34110  288.74 0855.37
2009/04/23 09:44:15.3     -67   -375    193    382    427 190.2  28.7  34114  288.78 0855.37
2009/04/23 09:44:15.4     -54   -366    266    371    456 188.5  39.3  34116  288.83 0855.37
2009/04/23 09:44:15.5    -117   -323    247    344    423 199.9  39.3  34116  288.84 0855.37
2009/04/23 09:44:15.6    -113   -293    232    315    391 201.2  40.0  34106  288.66 0855.37
2009/04/23 09:44:15.7       4   -278    164    279    323 179.1  33.0  34106  288.65 0855.37
2009/04/23 09:44:15.8      63   -281    197    289    349 167.3  37.4  34098  288.52 0855.37
2009/04/23 09:44:15.9     110   -140    191    179    261 141.7  52.1  34104  288.63 0855.37
2009/04/23 09:44:16.0    -147   -249     74    290    300 210.7  14.3  34100  288.56 0855.37
2009/04/23 09:44:16.1    -255   -187    -50    317    321 233.8  -9.0  34110  288.71 0855.29
2009/04/23 09:44:16.2    -154   -174     89    233    249 221.4  22.0  34102  288.59 0855.29
2009/04/23 09:44:16.3     -16   -113      0    115    116 188.0   0.2  34104  288.64 0855.29
2009/04/23 09:44:16.4     -15   -240    -75    241    253 183.6 -17.3  34104  288.61 0855.29
2009/04/23 09:44:16.5    -172   -349    139    390    415 206.3  19.6  34104  288.61 0855.29
2009/04/23 09:44:16.6    -231   -228    -70    325    333 225.3 -12.3  34096  288.49 0855.29
2009/04/23 09:44:16.7    -229   -416    140    476    497 208.9  16.4  34100  288.56 0855.29
2009/04/23 09:44:16.8    -197   -797    -12    822    823 193.9  -0.9  34110  288.72 0855.29
2009/04/23 09:44:16.9    -244   -673    -60    716    719 200.0  -4.9  34114  288.78 0855.29
2009/04/23 09:44:17.0    -218   -695   -113    729    738 197.4  -8.8  34110  288.74 0855.29
2009/04/23 09:44:17.1    -307   -525   -108    609    619 210.3 -10.1  34116  288.81 0855.29
2009/04/23 09:44:17.2    -295   -328   -135    442    463 222.0 -17.0  34112  288.75 0855.29
2009/04/23 09:44:17.3    -185   -315    -78    366    375 210.4 -12.0  34110  288.72 0855.29
2009/04/23 09:44:17.4    -118   -337    -33    358    360 199.3  -5.3  34106  288.66 0855.29
2009/04/23 09:44:17.5    -245   -435     35    500    502 209.4   4.0  34110  288.74 0855.29
2009/04/23 09:44:17.6    -289   -526     17    601    602 208.8   1.7  34114  288.80 0855.29
2009/04/23 09:44:17.7    -377   -394   -140    546    564 223.7 -14.4  34092  288.43 0855.29
2009/04/23 09:44:17.8    -422   -494   -179    650    675 220.5 -15.4  34100  288.56 0855.29
2009/04/23 09:44:17.9    -213   -448   -143    497    518 205.5 -16.0  34100  288.54 0855.29
2009/04/23 09:44:18.0    -251   -396    -22    470    471 212.4  -2.8  34090  288.39 0855.29
2009/04/23 09:44:18.1    -411   -252    -62    483    487 238.5  -7.3  34094  288.44 0855.18
2009/04/23 09:44:18.2    -429   -296   -106    522    533 235.4 -11.5  34104  288.62 0855.18
2009/04/23 09:44:18.3    -249   -352    -24    432    433 215.3  -3.2  34100  288.55 0855.18
2009/04/23 09:44:18.4    -212   -445    -28    494    495 205.5  -3.3  34110  288.71 0855.18
2009/04/23 09:44:18.5     -45   -420     40    423    425 186.2   5.5  34106  288.65 0855.18
2009/04/23 09:44:18.6     -66   -472     40    477    479 188.0   4.9  34104  288.61 0855.18
2009/04/23 09:44:18.7    -223   -403    161    461    488 209.0  20.0  34106  288.66 0855.18
2009/04/23 09:44:18.8    -235   -207    105    314    332 228.7  18.6  34102  288.59 0855.18
2009/04/23 09:44:18.9    -185   -135     18    230    231 233.8   4.6  34112  288.75 0855.18
2009/04/23 09:44:19.0    -311   -319   -126    446    463 224.2 -20.5  34102  288.60 0855.18
2009/04/23 09:44:19.1    -353   -277      2    449    450 231.9   0.4  34106  288.67 0855.18
2009/04/23 09:44:19.2    -377   -306    -61    486    490 230.9  -7.2  34098  288.51 0855.18
2009/04/23 09:44:19.3    -414   -263    -56    491    495 237.5  -6.6  34072  288.07 0855.18
2009/04/23 09:44:19.4    -412   -273    -74    495    501 236.4  -8.6  34068  288.00 0855.18
2009/04/23 09:44:19.5    -348   -347    -89    492    500 225.1 -10.3  34074  288.10 0855.18
2009/04/23 09:44:19.6    -324   -323    -36    458    460 225.1  -4.6  34068  288.02 0855.18
2009/04/23 09:44:19.7    -308   -277    -39    415    417 228.0  -5.5  34068  288.01 0855.18
2009/04/23 09:44:19.8    -323   -213    -37    388    390 236.6  -5.5  34068  288.00 0855.18
2009/04/23 09:44:19.9    -323   -190    -38    375    377 239.5  -5.9  34080  288.23 0855.18
2009/04/23 09:44:20.0    -360   -198    -49    411    414 241.2  -6.9  34080  288.23 0855.18
2009/04/23 09:44:20.1    -374   -181    -75    416    423 244.1 -10.3  34088  288.36 0855.13
2009/04/23 09:44:20.2    -411   -195    -82    455    463 244.6 -10.2  34098  288.53 0855.13
2009/04/23 09:44:20.3    -378   -225    -88    440    449 239.3 -11.3  34102  288.60 0855.13
2009/04/23 09:44:20.4    -372   -152   -127    403    423 247.7 -17.5  34094  288.46 0855.13
2009/04/23 09:44:20.5    -321   -143      1    352    353 246.0   0.2  34100  288.55 0855.13
2009/04/23 09:44:20.6    -307   -122    114    331    351 248.3  19.1  34094  288.47 0855.13
2009/04/23 09:44:20.7    -246   -119     86    274    288 244.2  17.4  34100  288.54 0855.13
2009/04/23 09:44:20.8    -150   -131     62    200    210 228.7  17.4  34102  288.58 0855.13
2009/04/23 09:44:20.9    -214    -91    -47    233    238 246.9 -11.5  34110  288.71 0855.13
2009/04/23 09:44:21.0    -180   -122   -117    218    247 235.9 -34.7  34106  288.66 0855.13
2009/04/23 09:44:21.1    -126   -161   -135    205    245 218.1 -40.9  34108  288.68 0855.13
2009/04/23 09:44:21.2     138   -276    -97    309    325 153.4 -17.5  34104  288.61 0855.13
2009/04/23 09:44:21.3     192   -384   -128    430    449 153.4 -16.7  34100  288.56 0855.13
2009/04/23 09:44:21.4     250   -318    -88    405    415 141.8 -12.3  34094  288.45 0855.13
2009/04/23 09:44:21.5     175   -225    -90    286    299 142.2 -22.8  34100  288.56 0855.13
2009/04/23 09:44:21.6     209   -266   -113    339    357 141.8 -23.6  34100  288.57 0855.13
2009/04/23 09:44:21.7     160   -279   -172    322    365 150.1 -34.9  34102  288.59 0855.13
2009/04/23 09:44:21.8      32   -274    -94    276    291 173.3 -23.3  34102  288.59 0855.13
2009/04/23 09:44:21.9     -46   -331    -86    335    347 188.0 -14.5  34086  288.33 0855.13
2009/04/23 09:44:22.0      52   -302     45    307    311 170.2   8.5  34096  288.49 0855.13
2009/04/23 09:44:22.1      -4   -287     67    288    296 180.9  13.1  34096  288.48 0855.12
2009/04/23 09:44:22.2     -44   -250     16    254    255 190.0   3.8  34100  288.56 0855.12
2009/04/23 09:44:22.3    -125   -261    -42    290    294 205.6  -8.2  34102  288.58 0855.12
2009/04/23 09:44:22.4    -203   -168    -43    264    268 230.4  -9.3  34092  288.41 0855.12
2009/04/23 09:44:22.5    -159    -94   -181    185    258 239.3 -53.8  34092  288.43 0855.12
2009/04/23 09:44:22.6      -8   -285    110    286    306 181.8  22.1  34092  288.43 0855.12
2009/04/23 09:44:22.7     -98   -226    -45    247    252 203.6 -10.4  34094  288.46 0855.12
2009/04/23 09:44:22.8     -86   -190    -69    209    221 204.5 -18.3  34104  288.64 0855.12
2009/04/23 09:44:22.9     -97   -210    -71    232    242 204.7 -21.8  34102  288.58 0855.12
2009/04/23 09:44:23.0    -121   -149    -68    193    204 219.0 -24.4  34104  288.64 0855.12
2009/04/23 09:44:23.1    -102   -216    -41    239    243 205.3  -9.8  34102  288.59 0855.12
2009/04/23 09:44:23.2    -109   -132    -71    172    186 219.4 -28.0  34098  288.52 0855.12
2009/04/23 09:44:23.3     -23    -50    -94     56    109 204.5 -70.6  34094  288.45 0855.12
2009/04/23 09:44:23.4     -72    -54    -60     90    108 233.1 -40.9  34094  288.47 0855.12
2009/04/23 09:44:23.5    -103    -65    -88    123    151 237.6 -43.9  34102  288.58 0855.12
2009/04/23 09:44:23.6     -67    -93    -10    115    116 216.0  -5.2  34098  288.53 0855.12
2009/04/23 09:44:23.7     -58    -55     51     81     95 226.4  35.5  34108  288.69 0855.12
2009/04/23 09:44:23.8     -72    -24    -38     76     84 251.4 -33.1  34102  288.60 0855.12
2009/04/23 09:44:23.9    -149    -76    -51    168    175 242.9 -22.3  34102  288.58 0855.12
2009/04/23 09:44:24.0    -117   -179     -7    215    216 213.2  -2.1  34104  288.64 0855.12
2009/04/23 09:44:24.1    -121   -172     35    211    214 215.0   9.5  34100  288.57 0855.15
2009/04/23 09:44:24.2     -66   -183     24    195    197 199.8   7.2  34100  288.55 0855.15
2009/04/23 09:44:24.3     -82   -173     62    192    202 205.5  17.9  34100  288.57 0855.15
2009/04/23 09:44:24.4    -120   -176     68    214    225 214.3  17.7  34100  288.55 0855.15
2009/04/23 09:44:24.5    -224   -123    -63    256    264 241.1 -13.9  34090  288.37 0855.15
2009/04/23 09:44:24.6    -169   -124   -105    210    234 233.8 -32.9  34092  288.43 0855.15
2009/04/23 09:44:24.7     -67   -305      6    313    314 192.5   1.1  34092  288.41 0855.15
2009/04/23 09:44:24.8     -55   -236     44    243    248 193.3  10.3  34098  288.53 0855.15
2009/04/23 09:44:24.9     -34   -227     17    230    231 188.7   4.4  34094  288.47 0855.15
2009/04/23 09:44:25.0      17   -232     52    233    239 175.6  12.6  34096  288.48 0855.15
2009/04/23 09:44:25.1     235   -119    133    264    295 116.9  28.7  34090  288.37 0855.15
2009/04/23 09:44:25.2     252    -56    178    259    314 102.6  37.9  34086  288.32 0855.15
2009/04/23 09:44:25.3     205    -58    225    214    310 105.9  52.0  34086  288.32 0855.15
2009/04/23 09:44:25.4     194    -27    206    197    285  98.1  51.2  34092  288.43 0855.15
2009/04/23 09:44:25.5     176    -49    228    183    292 105.7  57.3  34102  288.58 0855.15
2009/04/23 09:44:25.6     113      1    184    114    216  89.2  65.1  34102  288.60 0855.15
2009/04/23 09:44:25.7     169    -35    260    173    312 101.9  63.4  34102  288.59 0855.15
2009/04/23 09:44:25.8      75    -84    154    113    191 138.1  60.3  34104  288.64 0855.15
2009/04/23 09:44:25.9      -4     87    113     88    143 356.9  58.4  34104  288.62 0855.15
2009/04/23 09:44:26.0      28    120     52    124    134  13.4  24.1  34098  288.52 0855.15
2009/04/23 09:44:26.1      51     96    -14    109    110  28.1  -7.3  34094  288.45 0855.20
2009/04/23 09:44:26.2     170     34    -59    174    184  78.5 -18.9  34092  288.43 0855.20
2009/04/23 09:44:26.3     127     -1    -60    128    141  90.8 -31.5  34094  288.45 0855.20
2009/04/23 09:44:26.4      39     22    -54     46     70  60.2 -60.7  34094  288.47 0855.20
2009/04/23 09:44:26.5      83     95     -4    127    128  41.0  -2.2  34098  288.53 0855.20
2009/04/23 09:44:26.6      60     73    131     95    161  39.7  60.5  34104  288.62 0855.20
2009/04/23 09:44:26.7      27     57    140     64    153  25.5  73.1  34104  288.62 0855.20
2009/04/23 09:44:26.8      32     60     96     69    118  28.1  60.5  34108  288.70 0855.20
2009/04/23 09:44:26.9      58     46     64     75     98  51.4  44.8  34108  288.70 0855.20
2009/04/23 09:44:27.0     175      3     34    176    180  88.7  11.1  34100  288.57 0855.20
2009/04/23 09:44:27.1     123    -13     65    124    140  96.1  29.8  34098  288.53 0855.20
2009/04/23 09:44:27.2      61     18     80     64    102  73.2  56.9  34098  288.52 0855.20
2009/04/23 09:44:27.3      90    -16    111     92    144 100.6  56.4  34104  288.64 0855.20
2009/04/23 09:44:27.4     106    -14     59    108    123  97.9  31.3  34102  288.58 0855.20
2009/04/23 09:44:27.5      67     80     30    105    110  39.7  16.3  34104  288.64 0855.20
2009/04/23 09:44:27.6      26     17     11     32     34  55.8  18.9  34106  288.65 0855.20
2009/04/23 09:44:27.7      23    -21     13     32     34 133.1  21.0  34110  288.74 0855.20
2009/04/23 09:44:27.8       8    -23    -18     25     30 160.0 -44.1  34112  288.75 0855.20
2009/04/23 09:44:27.9      12    -36    -62     38     72 161.5 -69.1  34118  288.86 0855.20
2009/04/23 09:44:28.0      17    -53    -77     56     95 161.3 -64.9  34108  288.70 0855.20
2009/04/23 09:44:28.1      28   -104    -74    108    130 164.9 -42.0  34102  288.60 0855.25
2009/04/23 09:44:28.2       9    -84    -29     85     90 173.8 -19.1  34102  288.60 0855.25
2009/04/23 09:44:28.3      14    -69    -11     71     72 168.5  -9.3  34102  288.60 0855.25
2009/04/23 09:44:28.4      50    -50      1     72     73 135.0   0.8  34106  288.65 0855.25
2009/04/23 09:44:28.5      56    -30      3     64     65 118.8   2.9  34104  288.64 0855.25
2009/04/23 09:44:28.6      41    -35     33     55     64 130.4  35.5  34106  288.65 0855.25
2009/04/23 09:44:28.7      56    -52     48     77     90 133.1  35.5  34108  288.70 0855.25
2009/04/23 09:44:28.8      66   -152     11    166    167 156.4   3.8  34100  288.57 0855.25
2009/04/23 09:44:28.9      84   -162      8    183    184 152.4   2.8  34102  288.60 0855.25
2009/04/23 09:44:29.0     119    -98     17    155    157 129.5   6.5  34100  288.57 0855.25
2009/04/23 09:44:29.1      94    -78     49    123    132 129.5  23.0  34100  288.57 0855.25
2009/04/23 09:44:29.2     108   -101     35    148    153 133.1  13.2  34096  288.50 0855.25
2009/04/23 09:44:29.3      89    -89     55    127    138 135.0  25.1  34098  288.53 0855.25
2009/04/23 09:44:29.4      69   -167    104    181    208 157.5  32.7  34096  288.50 0855.25
2009/04/23 09:44:29.5      75   -162     57    179    188 155.1  17.7  34094  288.47 0855.25
2009/04/23 09:44:29.6      21   -166     62    168    179 172.7  21.3  34100  288.55 0855.25
2009/04/23 09:44:29.7     -21   -150    110    152    187 188.0  39.7  34096  288.50 0855.25
2009/04/23 09:44:29.8     -14   -145     89    146    170 185.8  34.4  34100  288.57 0855.25
2009/04/23 09:44:29.9       7   -108     77    109    133 176.0  38.6  34100  288.57 0855.25
2009/04/23 09:44:30.0      -8   -129    121    130    177 183.6  47.9  34100  288.57 0855.25
2009/04/23 09:44:30.1     -11   -136    112    137    176 184.9  43.7  34098  288.52 0855.27
2009/04/23 09:44:30.2     -59   -148     80    160    178 201.9  28.5  34104  288.62 0855.27
2009/04/23 09:44:30.3     -60   -150     54    162    171 201.8  18.4  34102  288.60 0855.27
2009/04/23 09:44:30.4     -57   -143     72    155    170 201.9  26.6  34106  288.65 0855.27
2009/04/23 09:44:30.5     -46   -140     65    148    161 198.3  25.1  34106  288.67 0855.27
2009/04/23 09:44:30.6     -95   -142     71    172    186 213.8  23.6  34110  288.72 0855.27
2009/04/23 09:44:30.7     -72   -156     72    173    187 204.9  23.8  34102  288.58 0855.27
2009/04/23 09:44:30.9     -71   -145     49    162    170 206.1  17.1  34098  288.53 0855.27
2009/04/23 09:44:31.0     -87   -137     50    163    171 212.6  17.1  34098  288.53 0855.27
2009/04/23 09:44:31.1     -55   -152     81    162    181 200.0  28.5  34098  288.53 0855.27
2009/04/23 09:44:31.2     -50   -169     82    177    195 196.5  27.0  34098  288.52 0855.32
2009/04/23 09:44:31.3     -15   -129     85    130    155 186.7  35.6  34096  288.48 0855.32
2009/04/23 09:44:31.4      -7    -93     98     94    135 184.9  50.7  34098  288.53 0855.32
2009/04/23 09:44:31.5     -12    -82     82     83    116 188.5  50.5  34100  288.55 0855.32
2009/04/23 09:44:31.6      -1    -81     85     82    118 181.4  51.2  34100  288.55 0855.32
2009/04/23 09:44:31.7     -28   -110     88    114    144 194.7  41.7  34098  288.53 0855.32
2009/04/23 09:44:31.8     -31   -108     85    113    141 196.0  40.7  34096  288.50 0855.32
2009/04/23 09:44:31.9     -59   -125     72    139    156 205.3  29.3  34096  288.48 0855.32
2009/04/23 09:44:32.0     -82   -129     67    154    167 212.6  24.9  34098  288.52 0855.32
2009/04/23 09:44:32.1    -104   -111     50    153    162 223.3  18.1  34094  288.45 0855.32
2009/04/23 09:44:32.2    -143    -70      4    160    161 243.8   1.6  34104  288.64 0855.32
2009/04/23 09:44:32.3    -141    -33    -27    145    148 256.7 -10.9  34112  288.77 0855.32
2009/04/23 09:44:32.4    -128     12    -41    129    136 275.7 -17.6  34098  288.53 0855.32
2009/04/23 09:44:32.5    -173     31    -15    176    177 280.4  -4.9  34096  288.48 0855.32
2009/04/23 09:44:32.6    -162     61     42    174    180 290.8  13.7  34100  288.57 0855.32
2009/04/23 09:44:32.7    -190     27    127    192    230 278.1  36.5  34104  288.62 0855.32
2009/04/23 09:44:32.8    -208      7     85    209    225 272.1  23.1  34120  288.91 0855.32
2009/04/23 09:44:32.9    -223    -17     88    224    240 265.6  22.5  34130  289.07 0855.32
2009/04/23 09:44:33.0    -202     -6     93    203    223 268.1  26.6  34122  288.94 0855.32
2009/04/23 09:44:33.1    -196    -44     52    202    209 257.2  14.7  34110  288.72 0855.32
2009/04/23 09:44:33.2    -178    -12      9    179    180 266.1   3.1  34106  288.65 0855.31
2009/04/23 09:44:33.3    -155     55     57    165    175 289.5  19.2  34110  288.74 0855.31
2009/04/23 09:44:33.4    -215    -10     -8    216    217 267.2  -2.2  34108  288.69 0855.31
2009/04/23 09:44:33.5    -199    -53    -64    207    216 255.0 -21.8  34108  288.70 0855.31
2009/04/23 09:44:33.6    -173   -245      8    301    302 215.2   1.7  34096  288.49 0855.31
2009/04/23 09:44:33.7       5   -364     -8    365    366 179.1  -1.4  34094  288.44 0855.31
2009/04/23 09:44:33.8      13   -441    111    442    456 178.2  14.2  34090  288.39 0855.31
2009/04/23 09:44:33.9       6   -396     49    397    401 179.1   7.1  34090  288.38 0855.31
2009/04/23 09:44:34.0     -45   -353    184    356    400 187.4  29.4  34094  288.44 0855.31
2009/04/23 09:44:34.1     -47   -376     18    379    380 187.2   2.8  34096  288.49 0855.31
2009/04/23 09:44:34.2     -44   -305      3    309    310 188.2   0.7  34090  288.37 0855.31
2009/04/23 09:44:34.3      -5   -294   -105    295    314 181.0 -19.7  34094  288.44 0855.31
2009/04/23 09:44:34.4     -11   -400    107    401    416 181.7  15.0  34088  288.36 0855.31
2009/04/23 09:44:34.5     -33   -357    134    359    383 185.4  21.4  34092  288.42 0855.31
2009/04/23 09:44:34.6     -29   -344     80    346    356 184.9  13.1  34094  288.47 0855.31
2009/04/23 09:44:34.7     -16   -404     38    405    407 182.3   5.4  34092  288.41 0855.31
2009/04/23 09:44:34.8      -8   -332     41    333    336 181.5   7.1  34094  288.44 0855.31
2009/04/23 09:44:34.9      60   -362    145    367    394 170.6  22.8  34094  288.45 0855.31
2009/04/23 09:44:35.0       7   -306    126    307    331 178.6  23.6  34094  288.44 0855.31
2009/04/23 09:44:35.1       9   -291    110    292    312 178.2  21.6  34096  288.49 0855.31
2009/04/23 09:44:35.2      49   -321    133    325    351 171.3  23.5  34096  288.50 0855.28
2009/04/23 09:44:35.3      59   -320     76    326    335 169.4  13.2  34098  288.52 0855.28
2009/04/23 09:44:35.4     111   -245    158    270    312 155.5  33.0  34096  288.49 0855.28
2009/04/23 09:44:35.5     198   -260    128    327    351 142.7  22.5  34096  288.49 0855.28
2009/04/23 09:44:35.6     213   -187    180    284    336 131.3  35.5  34092  288.41 0855.28
2009/04/23 09:44:35.7     169   -204    122    266    292 140.3  26.4  34098  288.51 0855.28
2009/04/23 09:44:35.8      84   -250    173    265    316 161.3  36.3  34094  288.46 0855.28
2009/04/23 09:44:35.9      -8   -341    145    342    371 181.5  24.3  34096  288.49 0855.28
2009/04/23 09:44:36.0       5   -267    141    268    302 178.9  29.8  34096  288.49 0855.28
2009/04/23 09:44:36.1       8   -269    128    270    298 178.2  27.2  34096  288.48 0855.28
2009/04/23 09:44:36.2     -33   -247    124    250    279 187.8  28.2  34094  288.46 0855.28
2009/04/23 09:44:36.3     -69   -240    159    250    296 196.1  35.5  34098  288.51 0855.28
2009/04/23 09:44:36.4      -4   -249    173    250    304 181.1  38.0  34100  288.56 0855.28
2009/04/23 09:44:36.5      -8   -231    153    232    277 182.0  36.5  34096  288.49 0855.28
2009/04/23 09:44:36.6     -89   -242    123    259    286 200.3  27.2  34098  288.53 0855.28
2009/04/23 09:44:36.7       4   -271     63    272    280 179.1  13.1  34096  288.48 0855.28
2009/04/23 09:44:36.8       3   -231     38    232    236 179.1   9.3  34098  288.51 0855.28
2009/04/23 09:44:36.9      41   -217     20    222    223 169.1   5.2  34098  288.53 0855.28
2009/04/23 09:44:37.0      35   -159     29    163    166 167.5  10.1  34106  288.65 0855.28
2009/04/23 09:44:37.1       6    -77    -14     78     80 175.5 -10.3  34102  288.58 0855.28
2009/04/23 09:44:37.2       0    -58    -55     59     80 180.0 -52.3  34100  288.57 0855.31
2009/04/23 09:44:37.3      21    -40    -95     46    105 152.8 -77.2  34104  288.62 0855.31
2009/04/23 09:44:37.4      51     -3    -85     52     99  94.4 -70.1  34106  288.65 0855.31
2009/04/23 09:44:37.5      32     39   -103     51    114  39.7 -76.8  34106  288.65 0855.31
2009/04/23 09:44:37.6      50     72    -98     88    131  34.7 -57.7  34104  288.62 0855.31
2009/04/23 09:44:37.7      75     63    -83     99    129  50.0 -48.2  34108  288.70 0855.31
2009/04/23 09:44:37.8       8     76      3     77     78   6.2   2.8  34106  288.65 0855.31
2009/04/23 09:44:37.9      42     90     25    100    104  25.4  14.3  34108  288.69 0855.31
2009/04/23 09:44:38.0      -4     58     -1     59     60 355.5  -1.3  34106  288.65 0855.31
2009/04/23 09:44:38.1     -39    -17     37     43     56 245.6  45.8  34112  288.75 0855.31
2009/04/23 09:44:38.2     -95    -31     19    101    103 251.8  11.0  34106  288.65 0855.31
2009/04/23 09:44:38.3     -50     67     33     84     90 323.0  22.0  34106  288.65 0855.31
2009/04/23 09:44:38.4     -18     54     63     57     84 341.5  52.7  34108  288.70 0855.31
2009/04/23 09:44:38.5      -7     90      3     91     92 355.5   2.3  34108  288.69 0855.31
2009/04/23 09:44:38.6    -103    -21     37    106    113 258.5  19.4  34104  288.64 0855.31
2009/04/23 09:44:38.7    -200    -71    -58    213    221 250.3 -15.4  34096  288.48 0855.31
2009/04/23 09:44:38.8    -223    -52   -141    230    269 256.7 -38.9  34082  288.26 0855.31
2009/04/23 09:44:38.9    -316      0    -97    317    331 269.9 -22.2  34098  288.51 0855.31
2009/04/23 09:44:39.0    -262   -280   -137    384    408 223.1 -19.7  34102  288.60 0855.31
2009/04/23 09:44:39.1    -273   -247   -114    369    386 227.8 -22.2  34090  288.38 0855.31
2009/04/23 09:44:39.2    -134   -283    -63    314    321 205.3 -11.5  34104  288.63 0855.32
2009/04/23 09:44:39.3     -85   -267      8    281    282 197.8   1.7  34104  288.61 0855.32
2009/04/23 09:44:39.4     -36   -151    100    156    185 193.4  35.6  34104  288.62 0855.32
2009/04/23 09:44:39.5      -5     -6     62      8     62 219.6  90.0  34110  288.72 0855.32
2009/04/23 09:44:39.6     -24    180     88    182    202 352.4  27.4  34110  288.74 0855.32
2009/04/23 09:44:39.7     -47    189     68    195    207 346.0  19.4  34112  288.75 0855.32
2009/04/23 09:44:39.8      -4    104    117    105    157 357.3  53.5  34112  288.77 0855.32
2009/04/23 09:44:39.9     -59     20     91     63    110 289.1  62.1  34116  288.82 0855.32
2009/04/23 09:44:40.0    -114      0     57    115    128 270.0  28.2  34112  288.75 0855.32
2009/04/23 09:44:40.1     -69     32     66     77    101 295.3  44.8  34118  288.86 0855.32
2009/04/23 09:44:40.2     -34     11     68     36     76 288.6  69.8  34110  288.74 0855.32
2009/04/23 09:44:40.3     -42   -140    131    147    196 196.9  46.4  34100  288.57 0855.32
2009/04/23 09:44:40.4     -15   -170     82    171    189 185.3  27.3  34098  288.53 0855.32
2009/04/23 09:44:40.5      -4   -232    106    233    255 181.0  26.2  34100  288.54 0855.32
2009/04/23 09:44:40.6       4   -302    112    303    323 179.1  21.1  34096  288.49 0855.32
2009/04/23 09:44:40.7      -7   -314     78    315    325 181.4  13.9  34098  288.51 0855.32
2009/04/23 09:44:40.8      51   -446    180    449    483 173.4  23.0  34094  288.47 0855.32
2009/04/23 09:44:40.9       0   -434    133    435    456 180.0  17.0  34096  288.50 0855.32
2009/04/23 09:44:41.0     210   -370     66    426    431 150.4   8.8  34094  288.45 0855.32
2009/04/23 09:44:41.1     240   -361     94    434    445 146.3  12.3  34096  288.50 0855.32
2009/04/23 09:44:41.2     223   -292    167    368    404 142.6  26.2  34094  288.47 0855.30
2009/04/23 09:44:41.3     185   -289    228    344    412 147.3  36.6  34096  288.49 0855.30
2009/04/23 09:44:41.4     155   -354    188    387    430 156.4  27.9  34102  288.60 0855.30
2009/04/23 09:44:41.5     138   -364    234    390    454 159.2  33.7  34098  288.51 0855.30
2009/04/23 09:44:41.6      59   -255    219    262    341 166.9  44.1  34102  288.58 0855.30
2009/04/23 09:44:41.7     111   -312    250    332    415 160.4  40.7  34100  288.55 0855.30
2009/04/23 09:44:41.8     121   -294    204    319    378 157.5  35.6  34100  288.57 0855.30
2009/04/23 09:44:41.9      98   -362    164    376    410 164.9  25.1  34098  288.52 0855.30
2009/04/23 09:44:42.0       4   -412    205    413    461 179.4  28.2  34104  288.61 0855.30
2009/04/23 09:44:42.1      80   -464    129    471    489 170.2  15.4  34104  288.61 0855.30
2009/04/23 09:44:42.2     113   -501    134    514    532 167.2  14.7  34102  288.58 0855.30
2009/04/23 09:44:42.3      98   -470    131    481    499 168.2  15.3  34098  288.52 0855.30
2009/04/23 09:44:42.4     193   -348    217    399    454 151.0  31.3  34098  288.51 0855.30
2009/04/23 09:44:42.5     180   -278    240    332    409 147.0  39.5  34106  288.66 0855.30
2009/04/23 09:44:42.6     112   -237    221    263    343 154.7  44.2  34104  288.63 0855.30
2009/04/23 09:44:42.7     120   -251    207    279    347 154.5  40.2  34100  288.56 0855.30
2009/04/23 09:44:42.8     100   -310    186    326    375 162.1  32.3  34100  288.57 0855.30
2009/04/23 09:44:42.9      38   -276    146    279    314 172.0  29.8  34102  288.58 0855.30
2009/04/23 09:44:43.0      31   -267    165    269    315 173.3  34.4  34102  288.59 0855.30
2009/04/23 09:44:43.1      50   -264    165    269    315 169.1  34.4  34102  288.58 0855.30
2009/04/23 09:44:43.2      45   -293    141    297    328 171.1  27.2  34098  288.51 0855.30
2009/04/23 09:44:43.3      24   -316    187    318    368 175.5  33.4  34104  288.62 0855.30
2009/04/23 09:44:43.4      24   -342    188    343    391 176.0  31.0  34100  288.57 0855.30
2009/04/23 09:44:43.5      14   -266    183    267    323 176.9  37.8  34104  288.61 0855.30
2009/04/23 09:44:43.6     -16   -215    133    216    253 184.4  34.8  34100  288.54 0855.30
2009/04/23 09:44:43.7    -110   -272     78    294    305 202.1  14.9  34100  288.56 0855.30
2009/04/23 09:44:43.8    -182   -200     76    271    282 222.3  15.8  34096  288.49 0855.30
2009/04/23 09:44:43.9    -335   -153     95    369    382 245.5  14.5  34100  288.57 0855.30
2009/04/23 09:44:44.0    -261    -78     66    273    281 253.2  13.7  34102  288.58 0855.30
2009/04/23 09:44:44.1    -256   -170     66    308    316 236.3  12.2  34098  288.53 0855.30
2009/04/23 09:44:44.2    -258   -142   -160    295    335 241.1 -35.3  34094  288.44 0855.30
2009/04/23 09:44:44.3    -287    -69    -53    296    301 256.5 -10.3  34096  288.48 0855.30
2009/04/23 09:44:44.4    -282    -47     -1    287    288 260.4  -0.3  34112  288.75 0855.30
2009/04/23 09:44:44.5    -196    -72     46    209    215 249.8  12.4  34114  288.80 0855.30
2009/04/23 09:44:44.6    -187    -14      9    188    189 265.6   2.9  34114  288.80 0855.30
2009/04/23 09:44:44.7    -349    -17     17    350    351 267.2   2.8  34110  288.71 0855.30
2009/04/23 09:44:44.8    -315     67    -92    323    336 282.1 -15.9  34100  288.57 0855.30
2009/04/23 09:44:44.9    -446     48     45    449    452 276.2   5.8  34108  288.68 0855.30
2009/04/23 09:44:45.0    -330    -90     62    343    349 254.7  10.4  34100  288.54 0855.30
2009/04/23 09:44:45.1    -411     40    -33    414    416 275.6  -4.6  34102  288.58 0855.30
2009/04/23 09:44:45.2    -314    122     16    337    338 291.3   2.8  34116  288.84 0855.30
2009/04/23 09:44:45.3    -216     69     -2    227    228 287.9  -0.7  34106  288.65 0855.30
2009/04/23 09:44:45.4    -214     36     44    218    223 279.7  11.4  34108  288.69 0855.30
2009/04/23 09:44:45.5    -163    -98    -24    191    193 239.1  -7.2  34104  288.64 0855.30
2009/04/23 09:44:45.6     -45   -196    -28    202    205 192.9  -8.0  34100  288.57 0855.30
2009/04/23 09:44:45.7    -157   -359    -68    392    398 203.6  -9.9  34104  288.64 0855.30
2009/04/23 09:44:45.8    -147   -316   -110    349    367 205.0 -17.6  34104  288.62 0855.30
2009/04/23 09:44:45.9     -63   -311   -109    318    337 191.6 -19.0  34114  288.79 0855.30
2009/04/23 09:44:46.0     -94   -317      4    331    332 196.6   0.7  34110  288.71 0855.30
2009/04/23 09:44:46.1    -184   -251     32    312    314 216.3   6.0  34116  288.81 0855.30
2009/04/23 09:44:46.2    -266   -166      6    314    315 238.0   1.2  34116  288.83 0855.30
2009/04/23 09:44:46.3    -160   -270     63    314    321 210.7  11.5  34106  288.66 0855.30
2009/04/23 09:44:46.4    -158   -387    103    419    432 202.2  13.9  34104  288.61 0855.30
2009/04/23 09:44:46.5    -165   -363     98    399    411 204.5  13.8  34108  288.70 0855.30
2009/04/23 09:44:46.6    -124   -392    -15    412    413 197.6  -2.1  34106  288.67 0855.30
2009/04/23 09:44:46.7    -101   -375   -121    389    407 195.1 -22.5  34116  288.81 0855.30
2009/04/23 09:44:46.8     -18   -394    -43    395    398 182.7  -6.2  34094  288.44 0855.30
2009/04/23 09:44:46.9      89   -351    167    363    399 165.7  26.4  34100  288.55 0855.30
2009/04/23 09:44:47.0      71   -324     63    332    339 167.6  10.8  34094  288.45 0855.30
2009/04/23 09:44:47.1     151   -259    -31    301    303 149.7  -6.0  34092  288.43 0855.30
2009/04/23 09:44:47.2     155   -288    189    328    378 151.6  32.6  34100  288.54 0855.27
2009/04/23 09:44:47.3     257   -209     70    332    340 129.1  12.0  34098  288.52 0855.27
2009/04/23 09:44:47.4     324   -153     -2    359    360 115.4  -0.4  34094  288.47 0855.27
2009/04/23 09:44:47.5     211   -181    -15    279    280 130.7  -3.1  34094  288.44 0855.27
2009/04/23 09:44:47.6     -44   -217    160    222    273 191.6  39.5  34086  288.31 0855.27
2009/04/23 09:44:47.7     -19   -200    202    201    284 185.6  50.1  34100  288.56 0855.27
2009/04/23 09:44:47.8      27   -267    197    269    333 174.2  39.9  34102  288.59 0855.27
2009/04/23 09:44:47.9      21   -324    113    325    345 176.2  19.2  34102  288.60 0855.27
2009/04/23 09:44:48.0     -19   -310    112    311    330 183.6  20.4  34102  288.58 0855.27
2009/04/23 09:44:48.1     -58   -296    114    302    322 191.1  21.7  34102  288.59 0855.27
2009/04/23 09:44:48.2      30   -377    107    379    394 175.4  15.8  34100  288.57 0855.27
2009/04/23 09:44:48.3      94   -259    214    276    349 160.0  41.9  34102  288.58 0855.27
2009/04/23 09:44:48.4      86   -155    180    178    253 150.8  50.1  34100  288.55 0855.27
2009/04/23 09:44:48.5      21   -277    230    278    360 175.5  43.8  34090  288.37 0855.27
2009/04/23 09:44:48.6     -47   -279    263    284    387 189.7  47.8  34092  288.42 0855.27
2009/04/23 09:44:48.7      -9   -215    221    216    309 182.5  50.4  34092  288.43 0855.27
2009/04/23 09:44:48.8     -52   -235    163    241    290 192.7  37.4  34088  288.36 0855.27
2009/04/23 09:44:48.9     -38   -272    202    275    341 188.0  39.8  34090  288.39 0855.27
2009/04/23 09:44:49.0      34   -344    138    346    372 174.3  23.0  34094  288.47 0855.27
2009/04/23 09:44:49.1     -24   -313     48    315    319 184.5   8.8  34092  288.43 0855.27
2009/04/23 09:44:49.2      29   -145     -8    149    150 168.4  -3.1  34090  288.40 0855.27
2009/04/23 09:44:49.3     -24   -219    116    221    249 186.5  29.8  34094  288.44 0855.27
2009/04/23 09:44:49.4     -42   -272     38    276    279 188.9   8.0  34096  288.49 0855.27
2009/04/23 09:44:49.5     -47   -279    102    283    300 189.6  20.7  34092  288.41 0855.27
2009/04/23 09:44:49.6     -38   -109    -38    116    122 199.2 -23.8  34090  288.40 0855.27
2009/04/23 09:44:49.7      75   -225     91    238    254 161.5  22.0  34098  288.53 0855.27
2009/04/23 09:44:49.8      12   -180     -2    181    182 176.0  -0.7  34096  288.48 0855.27
2009/04/23 09:44:49.9     -65    -56     65     86    107 229.1  40.7  34102  288.60 0855.27
2009/04/23 09:44:50.0     -38     -7     43     39     58 258.5  52.2  34106  288.65 0855.27
2009/04/23 09:44:50.1      25     23     87     35     93  46.9  77.6  34114  288.79 0855.27
2009/04/23 09:44:50.2     -21    -64    140     68    155 198.7  72.8  34106  288.67 0855.27
2009/04/23 09:44:50.3      -9     -1    100     10    100 258.5  90.0  34114  288.79 0855.27
2009/04/23 09:44:50.4     -51    -49     87     71    112 226.0  56.4  34106  288.65 0855.27
2009/04/23 09:44:50.5     -62   -176     85    187    205 199.6  26.4  34094  288.47 0855.27
2009/04/23 09:44:50.6     -43   -159     66    165    177 195.4  23.0  34098  288.53 0855.27
2009/04/23 09:44:50.7     -72    -28     10     78     79 248.3   7.5  34096  288.50 0855.27
2009/04/23 09:44:50.8       6    -85    -40     86     94 175.6 -31.5  34098  288.52 0855.27
2009/04/23 09:44:50.9      50    -36      3     63     64 126.0   2.8  34100  288.55 0855.27
2009/04/23 09:44:51.0      26      0     47     27     54  90.8  66.8  34096  288.48 0855.27
2009/04/23 09:44:51.1       3     50     57     51     76   4.5  52.2  34102  288.58 0855.27
2009/04/23 09:44:51.2     -54     14     28     56     62 285.1  28.2  34110  288.72 0855.29
2009/04/23 09:44:51.3     -68    -68     26     97    101 224.7  15.2  34104  288.64 0855.29
2009/04/23 09:44:51.4    -199   -172     13    264    265 229.1   2.9  34098  288.51 0855.29
2009/04/23 09:44:51.5    -137   -140     68    197    209 224.3  19.2  34094  288.45 0855.29
2009/04/23 09:44:51.6     -61   -184     90    195    214 198.5  26.6  34100  288.55 0855.29
2009/04/23 09:44:51.7     -37   -105     90    112    143 199.6  43.3  34100  288.55 0855.29
2009/04/23 09:44:51.8     -44   -122    171    130    214 200.1  59.0  34102  288.60 0855.29
2009/04/23 09:44:51.9    -228   -202    202    305    365 228.4  36.6  34110  288.72 0855.29
2009/04/23 09:44:52.0    -126   -300    144    326    356 202.8  25.2  34102  288.60 0855.29
2009/04/23 09:44:52.1    -163   -151    136    223    261 227.3  34.4  34100  288.54 0855.29
2009/04/23 09:44:52.2    -214    -67    120    225    255 252.5  30.3  34096  288.49 0855.29
2009/04/23 09:44:52.3    -201    108    104    229    251 298.2  26.2  34104  288.61 0855.29
2009/04/23 09:44:52.4    -173     57    204    183    274 288.2  53.7  34104  288.61 0855.29
2009/04/23 09:44:52.5    -136     28    144    140    200 281.9  50.7  34108  288.69 0855.29
2009/04/23 09:44:52.6    -235      0     55    236    243 270.0  13.2  34098  288.51 0855.29
2009/04/23 09:44:52.7     -72   -156    -47    173    180 204.9 -15.4  34098  288.52 0855.29
2009/04/23 09:44:52.8    -102   -132    -57    167    176 217.8 -23.6  34096  288.50 0855.29
2009/04/23 09:44:52.9     -61   -290     41    297    300 192.0   8.0  34098  288.53 0855.29
2009/04/23 09:44:53.0     -51   -283     69    288    297 190.2  13.5  34100  288.54 0855.29
2009/04/23 09:44:53.1     -60   -273    116    280    303 192.5  23.8  34100  288.56 0855.29
2009/04/23 09:44:53.2     -47   -248    115    253    277 190.9  26.2  34100  288.54 0855.29
2009/04/23 09:44:53.3       4   -114    148    115    187 177.8  57.9  34108  288.70 0855.29
2009/04/23 09:44:53.4       1    -99    133    100    166 179.1  59.4  34106  288.65 0855.29
2009/04/23 09:44:53.5       2    -86    159     87    181 178.6  68.9  34106  288.67 0855.29
2009/04/23 09:44:53.6      -3    -98    150     99    179 182.2  63.6  34100  288.57 0855.29
2009/04/23 09:44:53.7     -72    -75    113    105    154 223.7  52.1  34100  288.57 0855.29
2009/04/23 09:44:53.8     -93   -112    125    146    192 219.7  44.8  34098  288.52 0855.29
2009/04/23 09:44:53.9    -150    -96    122    179    216 237.4  37.6  34094  288.47 0855.29
2009/04/23 09:44:54.0    -217   -127    123    252    280 239.6  28.0  34096  288.49 0855.29
2009/04/23 09:44:54.1    -368     -6     76    369    377 269.0  11.8  34090  288.38 0855.29
2009/04/23 09:44:54.2    -300    -61    133    307    334 258.5  25.0  34098  288.51 0855.30
2009/04/23 09:44:54.3    -213   -197    105    291    310 227.3  19.9  34096  288.48 0855.30
2009/04/23 09:44:54.4    -400   -211    -32    453    455 242.2  -4.1  34104  288.61 0855.30
2009/04/23 09:44:54.5    -301   -250    105    392    406 230.4  15.0  34094  288.45 0855.30
2009/04/23 09:44:54.6    -319   -219     83    388    397 235.5  12.1  34096  288.49 0855.30
2009/04/23 09:44:54.7    -301   -191    128    357    379 237.5  20.6  34090  288.38 0855.30
2009/04/23 09:44:54.8    -298   -212    113    366    384 234.5  17.2  34094  288.45 0855.30
2009/04/23 09:44:54.9    -471   -181    122    505    520 248.9  13.7  34096  288.49 0855.30
2009/04/23 09:44:55.0    -456   -189     73    494    500 247.4   8.5  34114  288.78 0855.30
2009/04/23 09:44:55.1    -452    -85    -25    461    462 259.3  -3.2  34118  288.85 0855.30
2009/04/23 09:44:55.2    -326    -72    -42    334    337 257.5  -7.3  34112  288.76 0855.30
2009/04/23 09:44:55.3    -349   -153    -17    382    383 246.4  -2.7  34094  288.47 0855.30
2009/04/23 09:44:55.4    -404   -107     90    419    429 255.1  12.2  34104  288.63 0855.30
2009/04/23 09:44:55.5    -339    -80     58    349    354 256.6   9.4  34116  288.82 0855.30
2009/04/23 09:44:55.6    -337   -123     35    359    361 249.9   5.7  34094  288.47 0855.30
2009/04/23 09:44:55.7    -320   -210     40    384    387 236.7   6.1  34094  288.45 0855.30
2009/04/23 09:44:55.8    -220   -220     73    312    321 225.1  13.2  34094  288.44 0855.30
2009/04/23 09:44:55.9    -246   -258    164    357    392 223.7  26.3  34094  288.47 0855.30
2009/04/23 09:44:56.0    -245   -271    194    366    414 222.2  30.3  34090  288.38 0855.30
2009/04/23 09:44:56.1    -231    -91    -64    249    258 248.5 -14.5  34108  288.68 0855.30
2009/04/23 09:44:56.2    -253     57    -35    260    263 282.8  -7.7  34098  288.51 0855.28
2009/04/23 09:44:56.3    -338      0    -93    339    352 270.0 -15.4  34106  288.67 0855.28
2009/04/23 09:44:56.4    -355    -83    -33    365    367 256.7  -5.3  34108  288.69 0855.28
2009/04/23 09:44:56.5    -209    -71    -44    221    226 251.2 -11.5  34102  288.60 0855.28
2009/04/23 09:44:56.6    -194   -107     -6    222    223 241.1  -1.8  34100  288.57 0855.28
2009/04/23 09:44:56.7     -68   -244     26    254    256 195.6   5.9  34094  288.44 0855.28
2009/04/23 09:44:56.8     -30   -320    -12    322    323 185.4  -2.2  34092  288.41 0855.28
2009/04/23 09:44:56.9     -98   -367    -40    380    383 195.1  -6.1  34090  288.38 0855.28
2009/04/23 09:44:57.0    -138   -222    -72    262    271 211.9 -20.0  34094  288.44 0855.28
2009/04/23 09:44:57.1    -164   -256    -39    305    308 212.6  -7.3  34092  288.41 0855.28
2009/04/23 09:44:57.2     -19   -290     14    291    292 183.8   2.8  34096  288.48 0855.28
2009/04/23 09:44:57.3      85   -278     14    291    292 163.0   2.9  34092  288.43 0855.28
2009/04/23 09:44:57.4      71   -295     57    304    310 166.4  10.6  34094  288.46 0855.28
2009/04/23 09:44:57.5     124   -360     43    381    384 161.0   6.5  34094  288.47 0855.28
2009/04/23 09:44:57.6     148   -211    101    259    277 144.9  22.5  34090  288.37 0855.28
2009/04/23 09:44:57.7      61   -333    150    339    370 169.5  25.2  34094  288.44 0855.28
2009/04/23 09:44:57.8      54   -417     66    421    427 172.6   9.0  34094  288.45 0855.28
2009/04/23 09:44:57.9      -3   -344    154    345    377 180.6  25.7  34094  288.44 0855.28
2009/04/23 09:44:58.0      46   -282    174    286    334 170.7  34.2  34096  288.49 0855.28
2009/04/23 09:44:58.1      68   -308    206    316    377 167.5  36.2  34096  288.50 0855.28
2009/04/23 09:44:58.2      66   -286    172    294    340 166.9  33.1  34100  288.54 0855.30
2009/04/23 09:44:58.4      32   -228    148    231    274 172.0  35.6  34098  288.53 0855.30
2009/04/23 09:44:58.5     -15   -228    141    229    268 183.8  34.8  34098  288.51 0855.30
2009/04/23 09:44:58.6     -10   -230    126    231    263 182.5  31.3  34098  288.53 0855.30
2009/04/23 09:44:58.7     -10   -225    149    226    270 182.6  36.3  34098  288.53 0855.30
2009/04/23 09:44:58.8     -48   -238     99    244    263 191.6  23.1  34098  288.53 0855.30
2009/04/23 09:44:58.9     -56   -312    122    318    340 190.2  22.2  34100  288.54 0855.30
2009/04/23 09:44:59.0     -44   -352    115    355    374 187.2  17.9  34098  288.52 0855.30
2009/04/23 09:44:59.1     -62   -420    105    425    438 188.5  13.9  34098  288.51 0855.30
2009/04/23 09:44:59.2     -82   -436    132    444    464 190.7  16.6  34098  288.51 0855.30
2009/04/23 09:44:59.3    -111   -371    129    388    409 196.6  18.4  34096  288.50 0855.30
2009/04/23 09:44:59.4     -15   -328    205    329    387 182.7  35.1  34100  288.57 0855.30
2009/04/23 09:44:59.5     -54   -402    182    406    444 187.7  25.8  34096  288.50 0855.30
2009/04/23 09:44:59.6     -32   -386    251    388    462 184.9  35.7  34096  288.50 0855.30
2009/04/23 09:44:59.7    -112   -321    138    341    367 199.3  23.1  34094  288.44 0855.30
2009/04/23 09:44:59.8     -90   -308    136    321    348 196.3  24.2  34096  288.49 0855.30
2009/04/23 09:44:59.9    -110   -275    176    297    345 201.8  33.5  34096  288.49 0855.30
2009/04/23 09:45:00.0     -94   -225    173    245    299 202.7  38.6  34094  288.46 0855.30
2009/04/23 09:45:00.1     -92   -189    162    211    266 206.1  41.6  34098  288.51 0855.30
2009/04/23 09:45:00.2     -47    -56    184     74    198 219.7  77.1  34104  288.62 0855.30
2009/04/23 09:45:00.3     -10    -81    114     82    140 187.6  60.6  34102  288.60 0855.29
2009/04/23 09:45:00.4      -5     38     75     39     84 352.0  70.4  34110  288.72 0855.29
2009/04/23 09:45:00.5     -39   -144    108    150    184 195.2  39.5  34098  288.52 0855.29
2009/04/23 09:45:00.6     -51   -160    137    169    217 197.8  43.5  34096  288.50 0855.29
2009/04/23 09:45:00.7     -13   -123    123    124    174 186.3  50.5  34096  288.50 0855.29
2009/04/23 09:45:00.8      21    -83     98     86    130 165.7  54.3  34104  288.62 0855.29
2009/04/23 09:45:00.9     105   -117     97    158    185 138.1  34.8  34102  288.58 0855.29
2009/04/23 09:45:01.0      96   -144    127    174    215 146.2  39.7  34098  288.52 0855.29
2009/04/23 09:45:01.1     108   -132     85    171    190 140.8  28.2  34098  288.53 0855.29
2009/04/23 09:45:01.2      84   -132     69    157    171 147.4  25.3  34096  288.50 0855.29
2009/04/23 09:45:01.3     157   -166     49    229    235 136.7  12.2  34098  288.53 0855.29
2009/04/23 09:45:01.4     124   -151     20    196    198 140.6   6.1  34098  288.52 0855.29
2009/04/23 09:45:01.5      35   -171     79    175    192 168.2  26.2  34100  288.57 0855.29
2009/04/23 09:45:01.6     -93   -149     27    176    179 212.1   8.8  34100  288.55 0855.29
2009/04/23 09:45:01.7     -77   -212     27    226    228 200.0   6.9  34096  288.50 0855.29
2009/04/23 09:45:01.8    -172   -228     61    286    293 217.0  12.1  34102  288.59 0855.29
2009/04/23 09:45:01.9    -259     -3    -72    260    269 269.2 -20.2  34110  288.71 0855.29
2009/04/23 09:45:02.0    -253    -68   -142    263    298 254.9 -35.2  34108  288.70 0855.29
2009/04/23 09:45:02.1    -285   -136    -99    316    331 244.5 -22.5  34110  288.73 0855.29
2009/04/23 09:45:02.2    -401    -87   -130    411    432 257.7 -17.6  34114  288.78 0855.29
2009/04/23 09:45:02.3    -435   -139    -25    457    458 252.2  -3.2  34110  288.73 0855.31
2009/04/23 09:45:02.4    -442   -145    -71    466    472 251.9  -8.7  34110  288.73 0855.31
2009/04/23 09:45:02.5    -307   -155     29    345    347 243.1   4.9  34122  288.94 0855.31
2009/04/23 09:45:02.6    -143   -217    156    261    304 213.4  33.5  34106  288.66 0855.31
2009/04/23 09:45:02.7    -145   -170    118    224    253 220.5  30.3  34116  288.81 0855.31
2009/04/23 09:45:02.8    -172   -261    143    313    344 213.4  26.4  34108  288.69 0855.31
2009/04/23 09:45:02.9    -201   -228     72    305    314 221.4  13.3  34098  288.53 0855.31
2009/04/23 09:45:03.0    -206   -247    -25    322    324 219.9  -4.6  34100  288.54 0855.31
2009/04/23 09:45:03.1    -231   -230    -12    327    328 225.1  -2.2  34102  288.59 0855.31
2009/04/23 09:45:03.2    -171   -258    -12    310    311 213.6  -2.2  34096  288.49 0855.31
2009/04/23 09:45:03.3    -202   -203     78    287    298 224.8  15.3  34100  288.56 0855.31
2009/04/23 09:45:03.4    -103   -310    153    327    361 198.4  27.1  34102  288.60 0855.31
2009/04/23 09:45:03.5     -93   -288    109    303    323 197.9  19.9  34104  288.63 0855.31
2009/04/23 09:45:03.6    -111   -347    126    365    387 197.8  19.1  34106  288.67 0855.31
2009/04/23 09:45:03.7    -167   -333    200    373    423 206.7  30.5  34106  288.65 0855.31
2009/04/23 09:45:03.8    -289   -210    211    358    415 234.0  33.3  34126  289.01 0855.31
2009/04/23 09:45:03.9    -282   -268    159    390    421 226.5  23.4  34126  289.00 0855.31
2009/04/23 09:45:04.0    -377   -271    247    465    526 234.3  30.3  34120  288.90 0855.31
2009/04/23 09:45:04.1    -306   -227    199    382    430 233.5  29.5  34134  289.12 0855.31
2009/04/23 09:45:04.2    -340   -215    137    403    426 237.7  18.8  34136  289.17 0855.31
2009/04/23 09:45:04.3    -227   -165    215    281    353 234.0  41.4  34132  289.11 0855.32
2009/04/23 09:45:04.4    -141   -201    229    246    336 215.0  47.9  34116  288.81 0855.32
2009/04/23 09:45:04.5     -62   -186    197    197    278 198.5  50.1  34110  288.71 0855.32
2009/04/23 09:45:04.6       0   -255    106    256    277 180.0  23.8  34106  288.65 0855.32
2009/04/23 09:45:04.7     -38   -302     67    305    313 187.3  12.5  34106  288.65 0855.32
2009/04/23 09:45:04.8     -35   -336     92    338    351 186.0  15.3  34106  288.66 0855.32
2009/04/23 09:45:04.9     -24   -318    147    320    352 184.5  26.4  34106  288.66 0855.32
2009/04/23 09:45:05.0     -65   -351     27    357    358 190.5   4.4  34112  288.76 0855.32
2009/04/23 09:45:05.1      -7   -349     21    350    351 181.2   3.5  34104  288.64 0855.32
2009/04/23 09:45:05.2      -8   -352    122    353    374 181.4  19.2  34104  288.64 0855.32
2009/04/23 09:45:05.3      -1   -331    188    332    381 180.2  31.9  34112  288.77 0855.32
2009/04/23 09:45:05.4     -28   -262    133    264    295 186.2  28.7  34112  288.75 0855.32
2009/04/23 09:45:05.5      17   -272    237    273    361 176.4  45.5  34112  288.76 0855.32
2009/04/23 09:45:05.6       0   -276    166    277    322 180.0  33.8  34106  288.66 0855.32
2009/04/23 09:45:05.7       4   -225    175    226    285 178.9  41.7  34106  288.66 0855.32
2009/04/23 09:45:05.8      -8   -187    187    188    265 182.5  50.0  34122  288.92 0855.32
2009/04/23 09:45:05.9     -51   -354    180    358    400 188.3  28.7  34128  289.04 0855.32
2009/04/23 09:45:06.0     -34   -231    251    234    343 188.5  52.2  34114  288.80 0855.32
2009/04/23 09:45:06.1     -68   -272    213    281    352 194.0  41.1  34122  288.93 0855.32
2009/04/23 09:45:06.2     -80   -298    153    309    344 195.2  28.1  34122  288.93 0855.32
2009/04/23 09:45:06.3     -95   -248    178    266    320 201.0  36.9  34124  288.97 0855.31
2009/04/23 09:45:06.4     -64   -238    167    247    298 195.1  37.4  34126  289.00 0855.31
2009/04/23 09:45:06.5     -14   -170    185    171    251 184.9  52.2  34112  288.75 0855.31
2009/04/23 09:45:06.6     -16   -150    193    151    245 186.2  57.9  34112  288.77 0855.31
2009/04/23 09:45:06.7    -126   -219    159    253    298 209.9  35.5  34110  288.73 0855.31
2009/04/23 09:45:06.8    -131   -246    186    280    336 208.1  36.7  34112  288.75 0855.31
2009/04/23 09:45:06.9    -149   -280    145    318    349 208.1  26.3  34116  288.84 0855.31
2009/04/23 09:45:07.0    -120   -243    177    271    323 206.3  36.3  34122  288.92 0855.31
2009/04/23 09:45:07.1     -31   -314    145    316    347 185.8  26.5  34116  288.84 0855.31
2009/04/23 09:45:07.2    -167   -331    259    371    452 206.8  38.5  34124  288.97 0855.31
2009/04/23 09:45:07.3    -104   -354    182    369    411 196.4  28.2  34128  289.03 0855.31
2009/04/23 09:45:07.4     -91   -445    106    455    468 191.6  13.1  34106  288.65 0855.31
2009/04/23 09:45:07.5     -48   -445    137    448    469 186.2  17.1  34116  288.82 0855.31
2009/04/23 09:45:07.6    -176   -382     44    421    424 204.8   6.0  34122  288.94 0855.31
2009/04/23 09:45:07.7       9   -360    179    361    402 178.5  28.2  34110  288.74 0855.31
2009/04/23 09:45:07.8       0   -411    133    412    434 180.1  17.9  34108  288.68 0855.31
2009/04/23 09:45:07.9     -33   -303    181    305    354 186.2  33.5  34106  288.66 0855.31
2009/04/23 09:45:08.0     -28   -378    144    379    405 184.3  21.7  34114  288.79 0855.31
2009/04/23 09:45:08.1     -70   -368    133    375    397 190.8  20.3  34110  288.71 0855.31
2009/04/23 09:45:08.2     -93   -350     89    363    374 194.9  13.8  34106  288.66 0855.31
2009/04/23 09:45:08.3     -86   -316     16    328    329 195.3   2.8  34104  288.63 0855.31
2009/04/23 09:45:08.4    -103   -435    -88    448    457 193.4 -11.1  34122  288.94 0855.31
2009/04/23 09:45:08.5     -46   -362    -81    365    375 187.3 -12.6  34116  288.84 0855.31
2009/04/23 09:45:08.6     -43   -361     -8    364    365 186.8  -1.3  34106  288.66 0855.31
2009/04/23 09:45:08.7       7   -393     77    394    402 178.9  11.1  34104  288.62 0855.31
2009/04/23 09:45:08.8       0   -355     58    356    361 180.1   9.3  34104  288.62 0855.31
2009/04/23 09:45:08.9      17   -336     44    337    340 177.0   7.5  34110  288.72 0855.31
2009/04/23 09:45:09.0      66   -429      7    435    436 171.2   1.0  34106  288.67 0855.31
2009/04/23 09:45:09.1     100   -397    -21    410    411 165.8  -3.0  34108  288.68 0855.31
2009/04/23 09:45:09.2     202   -267    131    335    359 142.9  22.4  34104  288.62 0855.31
2009/04/23 09:45:09.3     219   -364     99    425    437 149.0  13.1  34108  288.68 0855.31
2009/04/23 09:45:09.4     267   -393    106    476    488 145.8  12.6  34104  288.62 0855.31
2009/04/23 09:45:09.5     432   -320    173    538    566 126.5  17.8  34096  288.50 0855.31
2009/04/23 09:45:09.6     280   -297     78    409    417 136.7  10.8  34106  288.67 0855.31
2009/04/23 09:45:09.7     285   -310      7    422    423 137.5   1.0  34100  288.56 0855.31
2009/04/23 09:45:09.8     185   -243     48    306    310 142.8   9.0  34106  288.66 0855.31
2009/04/23 09:45:09.9     120   -241    -26    270    272 153.5  -5.6  34102  288.58 0855.31
2009/04/23 09:45:10.0     160   -189     92    248    264 139.7  21.3  34104  288.63 0855.31
2009/04/23 09:45:10.1     121   -232     39    262    265 152.4   8.5  34106  288.65 0855.31
2009/04/23 09:45:10.2     238   -283     29    371    373 139.9   4.5  34104  288.62 0855.31
2009/04/23 09:45:10.3     225   -216     -3    313    314 133.8  -0.6  34104  288.61 0855.31
2009/04/23 09:45:10.4     221   -259      0    341    342 139.6   0.1  34106  288.67 0855.31
2009/04/23 09:45:10.5     137   -231     28    269    271 149.2   6.1  34102  288.59 0855.31
2009/04/23 09:45:10.6      53   -236     42    242    246 167.3   9.9  34110  288.71 0855.31
2009/04/23 09:45:10.7      43   -168    109    174    205 165.5  35.5  34108  288.69 0855.31
2009/04/23 09:45:10.8      93   -130    110    160    194 144.4  37.8  34112  288.75 0855.31
2009/04/23 09:45:10.9      98   -137     80    169    186 144.2  27.1  34108  288.70 0855.31
2009/04/23 09:45:11.0     103   -132     67    168    180 142.2  23.0  34110  288.72 0855.31
2009/04/23 09:45:11.1      93   -187    103    209    233 153.5  28.0  34116  288.84 0855.31
2009/04/23 09:45:11.2     -70   -154     66    170    182 204.5  22.3  34112  288.77 0855.31
2009/04/23 09:45:11.3      -2    -77    100     78    126 181.8  58.4  34114  288.79 0855.31
2009/04/23 09:45:11.4      13    -77    122     79    145 170.2  64.6  34118  288.87 0855.31
2009/04/23 09:45:11.5      57   -183     88    192    211 162.6  26.4  34114  288.80 0855.31
2009/04/23 09:45:11.6     -31   -194     91    197    217 189.3  26.6  34122  288.94 0855.31
2009/04/23 09:45:11.7     -23   -204    -18    206    207 186.5  -5.1  34116  288.84 0855.31
2009/04/23 09:45:11.8       6   -108     62    109    125 176.4  32.4  34116  288.84 0855.31
2009/04/23 09:45:11.9     -10   -116    134    117    177 185.3  54.3  34126  289.01 0855.31
2009/04/23 09:45:12.0    -142   -151    108    208    234 223.2  29.5  34122  288.92 0855.31
2009/04/23 09:45:12.1    -160   -204     26    260    262 218.1   5.9  34118  288.85 0855.31
2009/04/23 09:45:12.2    -121   -120    137    171    219 225.2  43.0  34118  288.87 0855.31
2009/04/23 09:45:12.3    -170   -121    138    209    250 234.5  36.5  34122  288.92 0855.32
2009/04/23 09:45:12.4    -269   -148     48    307    311 241.2   8.9  34118  288.87 0855.32
2009/04/23 09:45:12.5    -225   -112     44    252    256 243.6  10.1  34116  288.83 0855.32
2009/04/23 09:45:12.6    -210   -137      9    251    252 236.9   2.1  34116  288.81 0855.32
2009/04/23 09:45:12.7    -180   -118     43    216    221 236.7  11.4  34118  288.87 0855.32
2009/04/23 09:45:12.8    -153   -103     64    185    196 235.8  19.2  34122  288.94 0855.32
2009/04/23 09:45:12.9    -135    -98     93    168    192 234.0  31.4  34132  289.11 0855.32
2009/04/23 09:45:13.0    -152    -16     82    153    173 263.9  30.6  34134  289.13 0855.32
2009/04/23 09:45:13.1    -162      0     57    163    173 270.0  19.4  34124  288.97 0855.32
2009/04/23 09:45:13.2    -130    -22    103    132    167 260.4  42.2  34136  289.18 0855.32
2009/04/23 09:45:13.3    -114    -94    173    149    228 230.5  55.0  34134  289.13 0855.31
2009/04/23 09:45:13.4    -144   -165    164    220    274 221.0  40.6  34112  288.76 0855.31
2009/04/23 09:45:13.5     -10   -229    162    230    281 182.5  38.6  34112  288.75 0855.31
2009/04/23 09:45:13.6      -3   -283    170    284    330 180.7  34.0  34110  288.73 0855.31
2009/04/23 09:45:13.7      58   -266    213    273    346 167.6  42.0  34116  288.81 0855.31
2009/04/23 09:45:13.8     -57   -320    188    326    376 190.2  32.7  34110  288.72 0855.31
2009/04/23 09:45:13.9     -34   -286     97    289    306 186.9  18.6  34108  288.70 0855.31
2009/04/23 09:45:14.0     -83   -313    114    324    344 194.9  19.4  34108  288.69 0855.31
2009/04/23 09:45:14.1     -36   -336    140    339    366 186.2  23.7  34108  288.69 0855.31
2009/04/23 09:45:14.2      69   -291     86    300    313 166.6  16.0  34110  288.71 0855.31
2009/04/23 09:45:14.3      68   -290     89    298    312 166.7  16.6  34110  288.71 0855.31
2009/04/23 09:45:14.4       9   -278    125    279    305 178.0  25.9  34110  288.73 0855.31
2009/04/23 09:45:14.5      42   -250    147    254    293 170.3  32.7  34114  288.80 0855.31
2009/04/23 09:45:14.6      23   -244    115    246    271 174.6  27.1  34112  288.75 0855.31
2009/04/23 09:45:14.7      -3   -237     46    238    243 180.9  11.1  34110  288.71 0855.31
2009/04/23 09:45:14.8       5   -188     40    189    194 178.2  12.0  34108  288.69 0855.31
2009/04/23 09:45:14.9     111   -233     69    259    269 154.4  15.0  34112  288.75 0855.31
2009/04/23 09:45:15.0     154   -271     15    312    313 150.4   2.9  34112  288.76 0855.31
2009/04/23 09:45:15.1     139   -199    -57    243    250 145.0 -13.4  34112  288.76 0855.31
2009/04/23 09:45:15.2      86    -28     90     91    127 108.6  50.0  34122  288.94 0855.31
2009/04/23 09:45:15.3       6    -98     67     99    119 176.0  37.6  34126  288.99 0855.32
2009/04/23 09:45:15.4     -14    -82    -13     84     85 189.8  -8.8  34114  288.79 0855.32
2009/04/23 09:45:15.5     -11   -149      0    150    151 184.5  -0.3  34114  288.80 0855.32
2009/04/23 09:45:15.6     134   -289    111    319    338 155.1  19.3  34110  288.71 0855.32
2009/04/23 09:45:15.7     104   -321     25    338    339 162.1   4.4  34112  288.76 0855.32
2009/04/23 09:45:15.8     147   -290    -39    326    329 153.0  -6.9  34112  288.76 0855.32
2009/04/23 09:45:15.9     129   -254    -57    285    291 153.0 -11.3  34110  288.71 0855.32
2009/04/23 09:45:16.0     156   -228    -23    277    279 145.5  -4.9  34112  288.75 0855.32
2009/04/23 09:45:16.1      78   -224     -9    238    239 160.8  -2.2  34114  288.78 0855.32
2009/04/23 09:45:16.2      51   -223     45    229    234 167.1  11.1  34112  288.75 0855.32
2009/04/23 09:45:16.3      -6   -177    -12    178    179 182.2  -3.9  34110  288.74 0855.32
2009/04/23 09:45:16.4     -11   -171     46    172    179 183.8  15.0  34112  288.77 0855.32
2009/04/23 09:45:16.5     -18   -185     44    186    192 185.6  13.5  34116  288.82 0855.32
2009/04/23 09:45:16.6     -30   -176     70    179    192 189.8  22.5  34112  288.75 0855.32
2009/04/23 09:45:16.7     -63   -161     37    174    179 201.4  12.2  34112  288.77 0855.32
2009/04/23 09:45:16.8     -51   -137     18    147    149 200.5   7.1  34112  288.75 0855.32
2009/04/23 09:45:16.9     -72   -131      0    150    151 208.9  -0.3  34114  288.79 0855.32
2009/04/23 09:45:17.0    -115   -169     -8    205    206 214.2  -2.2  34110  288.74 0855.32
2009/04/23 09:45:17.1    -114   -197    -29    228    230 210.1  -7.3  34112  288.75 0855.32
2009/04/23 09:45:17.2    -190    -70    -86    203    220 249.6 -28.7  34100  288.55 0855.32
2009/04/23 09:45:17.3    -166     -8   -115    167    202 267.0 -42.0  34084  288.28 0855.29
2009/04/23 09:45:17.4    -122     11   -131    123    179 275.2 -56.4  34098  288.52 0855.29
2009/04/23 09:45:17.5     -45    -25   -116     52    127 240.2 -78.9  34112  288.77 0855.29
2009/04/23 09:45:17.6      85     78     54    116    127  47.3  27.1  34110  288.72 0855.29
2009/04/23 09:45:17.7     211    -49    136    217    256 103.3  35.2  34108  288.70 0855.29
2009/04/23 09:45:17.8      36   -177     82    181    198 168.2  25.9  34108  288.70 0855.29
2009/04/23 09:45:17.9     -17   -228    131    229    263 184.5  32.4  34110  288.71 0855.29
2009/04/23 09:45:18.0     -27   -224    101    226    247 186.9  25.7  34110  288.71 0855.29
2009/04/23 09:45:18.1     -47   -177     80    184    200 194.9  25.1  34110  288.74 0855.29
2009/04/23 09:45:18.2     -66   -140     47    155    163 205.3  17.1  34110  288.72 0855.29
2009/04/23 09:45:18.3    -113    -76     29    137    141 235.9  12.2  34114  288.80 0855.29
2009/04/23 09:45:18.4     -42   -147     53    153    163 196.0  19.2  34118  288.86 0855.29
2009/04/23 09:45:18.5    -110   -123    -25    166    168 221.9  -8.6  34122  288.92 0855.29
2009/04/23 09:45:18.6     -77   -150    -12    169    170 207.4  -4.4  34116  288.84 0855.29
2009/04/23 09:45:18.7     -26   -134     60    137    149 191.1  25.2  34112  288.75 0855.29
2009/04/23 09:45:18.8     -24   -201     48    203    209 186.9  13.5  34112  288.77 0855.29
2009/04/23 09:45:18.9     -34   -171     39    175    180 191.3  12.6  34112  288.75 0855.29
2009/04/23 09:45:19.0     -29   -130     12    134    135 192.9   5.4  34112  288.75 0855.29
2009/04/23 09:45:19.1      30    -78     90     84    123 158.6  52.1  34110  288.74 0855.29
2009/04/23 09:45:19.2      32    -96    105    102    146 161.3  50.7  34116  288.84 0855.29
2009/04/23 09:45:19.3     -15   -196     38    197    201 184.4  11.1  34114  288.80 0855.26
2009/04/23 09:45:19.4     -14   -159     55    160    170 185.1  19.2  34112  288.77 0855.26
2009/04/23 09:45:19.5      -5   -122    107    123    163 182.7  45.8  34114  288.79 0855.26
2009/04/23 09:45:19.6      11    -80    100     81    128 172.0  56.4  34116  288.82 0855.26
2009/04/23 09:45:19.7      37    -94     76    102    127 158.2  41.2  34112  288.75 0855.26
2009/04/23 09:45:19.8      21   -123     60    125    138 170.3  27.2  34110  288.74 0855.26
2009/04/23 09:45:19.9      23   -116     78    119    142 168.4  36.0  34112  288.77 0855.26
2009/04/23 09:45:20.0      -4   -108     77    109    133 182.2  38.6  34110  288.72 0855.26
2009/04/23 09:45:20.1     -51   -136     92    146    172 200.5  35.5  34110  288.74 0855.26
2009/04/23 09:45:20.2     -64   -155     80    168    186 202.5  27.2  34110  288.74 0855.26
2009/04/23 09:45:20.3     -61   -130     50    144    153 205.4  19.2  34116  288.82 0855.26
2009/04/23 09:45:20.4     -71   -110     45    132    140 213.0  18.9  34116  288.82 0855.26
2009/04/23 09:45:20.5     -69   -103     43    125    133 213.8  18.9  34112  288.77 0855.26
2009/04/23 09:45:20.6     -71   -115     60    136    148 211.6  25.2  34114  288.79 0855.26
2009/04/23 09:45:20.7     -90   -117     55    148    157 217.8  21.3  34110  288.72 0855.26
2009/04/23 09:45:20.8     -80   -113     27    139    142 215.6  11.1  34108  288.69 0855.26
2009/04/23 09:45:20.9     -72   -100     44    124    131 215.6  20.0  34108  288.70 0855.26
2009/04/23 09:45:21.0     -65    -91     25    112    115 215.6  12.6  34110  288.72 0855.26
2009/04/23 09:45:21.1     -16    -62     80     65    103 194.3  56.4  34108  288.69 0855.26
2009/04/23 09:45:21.2     -51   -111     85    123    149 204.5  38.0  34108  288.70 0855.26
2009/04/23 09:45:21.3     -52   -120    105    132    168 203.6  42.7  34110  288.74 0855.26
2009/04/23 09:45:21.4     -76   -103    104    129    165 216.5  43.0  34110  288.74 0855.26
2009/04/23 09:45:21.5    -147    -44     83    154    174 253.2  30.6  34110  288.72 0855.26
2009/04/23 09:45:21.6    -172    -50    -20    180    182 253.6  -6.5  34104  288.64 0855.26
2009/04/23 09:45:21.7    -188     -4    -75    189    203 268.7 -27.2  34100  288.55 0855.26
2009/04/23 09:45:21.8    -209   -113     53    238    244 241.6  12.6  34102  288.59 0855.26
2009/04/23 09:45:21.9    -232   -168   -102    287    305 234.1 -19.7  34096  288.48 0855.26
2009/04/23 09:45:22.0    -258   -151    -54    300    305 239.6 -10.3  34102  288.58 0855.26
2009/04/23 09:45:22.1    -213    -97      2    235    236 245.4   0.7  34100  288.54 0855.26
2009/04/23 09:45:22.2    -179   -185     22    258    260 224.1   5.0  34108  288.68 0855.26
2009/04/23 09:45:22.3    -202   -184     33    274    276 227.7   6.9  34108  288.68 0855.26
2009/04/23 09:45:22.4    -233   -158     20    282    283 235.8   4.2  34106  288.66 0855.26
2009/04/23 09:45:22.5    -187   -148    115    239    265 231.6  27.3  34106  288.66 0855.26
2009/04/23 09:45:22.6    -196   -161     64    254    263 230.5  14.3  34102  288.59 0855.26
2009/04/23 09:45:22.7    -208   -132    -29    247    249 237.5  -6.7  34112  288.75 0855.26
2009/04/23 09:45:22.8    -286    -52     40    291    294 259.5   8.0  34126  288.98 0855.26
2009/04/23 09:45:22.9    -246   -139     98    283    300 240.5  19.2  34114  288.78 0855.26
2009/04/23 09:45:23.0    -254   -164     97    303    319 237.1  17.8  34106  288.66 0855.26
2009/04/23 09:45:23.1    -217   -210    145    303    335 226.0  27.3  34116  288.83 0855.26
2009/04/23 09:45:23.2    -228   -184    192    294    351 231.1  36.3  34116  288.84 0855.26
2009/04/23 09:45:23.3    -209   -133    127    248    278 237.5  29.3  34116  288.81 0855.25
2009/04/23 09:45:23.4    -253    -71     93    263    280 254.3  19.6  34098  288.53 0855.25
2009/04/23 09:45:23.5    -272    -42     75    276    287 261.2  15.3  34110  288.71 0855.25
2009/04/23 09:45:23.6    -255   -121     61    283    290 244.7  12.2  34114  288.80 0855.25
2009/04/23 09:45:23.7    -228   -124     98    260    277 241.4  21.7  34112  288.76 0855.25
2009/04/23 09:45:23.8    -183   -189    128    264    293 224.1  27.4  34106  288.65 0855.25
2009/04/23 09:45:23.9    -216    -86     93    233    250 248.2  23.0  34114  288.78 0855.25
2009/04/23 09:45:24.0    -257    -84     10    271    272 251.8   2.1  34124  288.95 0855.25
2009/04/23 09:45:24.1    -275   -116      4    299    300 247.2   0.8  34118  288.87 0855.25
2009/04/23 09:45:24.2    -236   -117     58    264    271 243.6  12.4  34120  288.90 0855.25
2009/04/23 09:45:24.3    -296   -159     59    337    343 241.8  10.0  34120  288.88 0855.25
2009/04/23 09:45:24.4    -283   -139    -17    316    317 243.8  -3.2  34118  288.87 0855.25
2009/04/23 09:45:24.5    -275   -157     39    317    320 240.2   7.1  34122  288.93 0855.25
2009/04/23 09:45:24.6    -209   -157     81    262    275 233.1  17.3  34106  288.65 0855.25
2009/04/23 09:45:24.7    -141   -198    149    244    285 215.4  34.4  34106  288.65 0855.25
2009/04/23 09:45:24.8    -109   -197    181    226    289 208.9  42.8  34112  288.75 0855.25
2009/04/23 09:45:24.9     -83   -204    217    221    309 202.1  49.9  34112  288.76 0855.25
2009/04/23 09:45:25.0    -262   -155     97    305    321 239.4  17.7  34102  288.59 0855.25
2009/04/23 09:45:25.1    -162   -187    102    248    268 220.8  23.6  34114  288.78 0855.25
2009/04/23 09:45:25.2    -123   -180     79    219    232 214.3  20.4  34108  288.70 0855.25
2009/04/23 09:45:25.3    -173   -145    115    227    254 230.0  29.1  34114  288.78 0855.23
2009/04/23 09:45:25.4    -107   -214    121    240    268 206.7  28.5  34112  288.76 0855.23
2009/04/23 09:45:25.5    -136   -176     79    223    236 217.8  20.2  34112  288.77 0855.23
2009/04/23 09:45:25.6    -101   -190    126    216    250 208.1  33.1  34108  288.68 0855.23
2009/04/23 09:45:25.7    -123   -140     58    187    197 221.2  17.4  34108  288.70 0855.23
2009/04/23 09:45:25.8     -83   -189    110    207    234 203.7  30.3  34108  288.69 0855.23
2009/04/23 09:45:25.9     -97   -193    128    217    251 206.7  33.5  34112  288.75 0855.23
2009/04/23 09:45:26.0     -91   -219    133    238    272 202.7  31.6  34112  288.75 0855.23
2009/04/23 09:45:26.1    -148   -235    109    278    298 212.3  22.8  34112  288.76 0855.23
2009/04/23 09:45:26.3    -165   -187     48    250    255 221.4  11.0  34124  288.95 0855.23
2009/04/23 09:45:26.4    -173   -238     83    295    307 216.1  15.7  34110  288.71 0855.23
2009/04/23 09:45:26.5    -184   -202     86    274    288 222.4  17.4  34118  288.85 0855.23
2009/04/23 09:45:26.6    -187   -288     31    344    346 213.1   5.2  34100  288.57 0855.23
2009/04/23 09:45:26.7      15   -299    -35    300    303 177.1  -6.7  34104  288.63 0855.23
2009/04/23 09:45:26.8     -62   -370     23    376    377 189.6   3.6  34102  288.59 0855.23
2009/04/23 09:45:26.9     -39   -439     37    441    443 185.2   4.9  34098  288.51 0855.23
2009/04/23 09:45:27.0     -36   -453    163    455    483 184.6  20.4  34104  288.61 0855.23
2009/04/23 09:45:27.1      20   -459    188    460    496 177.5  23.5  34104  288.61 0855.23
2009/04/23 09:45:27.2      50   -402    189    406    447 172.8  27.0  34106  288.65 0855.23
2009/04/23 09:45:27.3      79   -372    233    381    446 168.0  34.4  34104  288.61 0855.23
2009/04/23 09:45:27.4      79   -389    150    397    424 168.5  21.7  34104  288.61 0855.24
2009/04/23 09:45:27.5     142   -483    196    504    540 163.6  22.5  34092  288.43 0855.24
2009/04/23 09:45:27.6     192   -358    258    407    481 151.8  35.5  34102  288.58 0855.24
2009/04/23 09:45:27.7     210   -334    192    395    439 147.9  27.7  34106  288.65 0855.24
2009/04/23 09:45:27.8     240   -326    150    405    431 143.6  21.1  34100  288.56 0855.24
2009/04/23 09:45:27.9     362   -300     67    471    476 129.6   8.1  34100  288.57 0855.24
2009/04/23 09:45:28.0     230   -260    108    348    365 138.5  17.3  34106  288.67 0855.24
2009/04/23 09:45:28.1     146   -229    119    272    296 147.4  25.1  34106  288.66 0855.24
2009/04/23 09:45:28.2      21   -257    227    258    343 175.3  45.7  34106  288.65 0855.24
2009/04/23 09:45:28.3      61   -280    209    287    355 167.6  39.7  34106  288.67 0855.24
2009/04/23 09:45:28.4     169   -301    161    346    381 150.6  27.1  34104  288.62 0855.24
2009/04/23 09:45:28.5     189   -368     90    414    424 152.8  12.4  34100  288.56 0855.24
2009/04/23 09:45:28.6     151   -375    122    405    423 158.1  16.8  34102  288.58 0855.24
2009/04/23 09:45:28.7     187   -402     78    444    451 155.1  10.0  34100  288.55 0855.24
2009/04/23 09:45:28.8      94   -456     77    466    473 168.3   9.4  34104  288.62 0855.24
2009/04/23 09:45:28.9     120   -395    164    414    445 163.1  23.0  34100  288.56 0855.24
2009/04/23 09:45:29.0      73   -368    133    376    399 168.8  19.5  34100  288.57 0855.24
2009/04/23 09:45:29.1      52   -309    207    314    376 170.4  36.5  34102  288.60 0855.24
2009/04/23 09:45:29.2     136   -289    221    320    388 154.7  37.8  34106  288.67 0855.24
2009/04/23 09:45:29.3      58   -290    152    296    332 168.5  29.3  34108  288.68 0855.24
2009/04/23 09:45:29.4      36   -285    151    288    325 172.8  29.8  34106  288.65 0855.26
2009/04/23 09:45:29.5      93   -359    166    371    406 165.4  25.8  34106  288.67 0855.26
2009/04/23 09:45:29.6      52   -340    194    345    395 171.2  31.9  34108  288.69 0855.26
2009/04/23 09:45:29.7     -19   -274    179    275    328 184.0  36.2  34106  288.66 0855.26
2009/04/23 09:45:29.8      22   -191    164    193    253 173.3  44.8  34108  288.70 0855.26
2009/04/23 09:45:29.9      56   -177     93    186    207 162.4  28.5  34112  288.75 0855.26
2009/04/23 09:45:30.0      51   -195     12    202    203 165.3   3.6  34108  288.70 0855.26
2009/04/23 09:45:30.1     127   -216    -36    251    254 149.5  -8.3  34108  288.68 0855.26
2009/04/23 09:45:30.2     178   -156     46    237    242 131.3  11.1  34102  288.58 0855.26
2009/04/23 09:45:30.3     177   -119     22    214    216 124.1   6.1  34106  288.67 0855.26
2009/04/23 09:45:30.4     141   -170    -46    221    226 140.3 -11.9  34108  288.70 0855.26
2009/04/23 09:45:30.5     146   -229    -44    272    276 147.5  -9.3  34108  288.70 0855.26
2009/04/23 09:45:30.6     148   -277    -18    315    316 151.9  -3.3  34110  288.71 0855.26
2009/04/23 09:45:30.7     158   -248      4    295    296 147.5   0.8  34110  288.73 0855.26
2009/04/23 09:45:30.8     145   -296     10    330    331 153.8   1.9  34110  288.74 0855.26
2009/04/23 09:45:30.9     149   -327    -32    360    362 155.4  -5.2  34110  288.72 0855.26
2009/04/23 09:45:31.0     149   -298    -73    334    343 153.5 -12.4  34110  288.71 0855.26
2009/04/23 09:45:31.1     200   -261    -52    330    335 142.5  -9.0  34106  288.67 0855.26
2009/04/23 09:45:31.2      96   -234    -46    253    258 157.7 -10.4  34106  288.66 0855.26
2009/04/23 09:45:31.3     119   -178    -34    215    218 146.2  -9.0  34104  288.62 0855.26
2009/04/23 09:45:31.4     201   -243    -42    316    319 140.4  -7.7  34104  288.63 0855.25
2009/04/23 09:45:31.5     146   -307    -16    341    342 154.5  -2.7  34104  288.64 0855.25
2009/04/23 09:45:31.6     171   -281    -34    330    332 148.6  -5.9  34104  288.62 0855.25
2009/04/23 09:45:31.7     160   -260    -79    306    317 148.4 -14.5  34102  288.58 0855.25
2009/04/23 09:45:31.8     146   -266    -96    304    318 151.3 -22.6  34102  288.58 0855.25
2009/04/23 09:45:31.9     114   -219   -105    248    269 152.4 -28.6  34100  288.56 0855.25
2009/04/23 09:45:32.0      10   -220   -166    221    276 177.4 -45.1  34104  288.61 0855.25
2009/04/23 09:45:32.1    -112   -262    -94    286    301 203.2 -23.8  34106  288.65 0855.25
2009/04/23 09:45:32.2    -105   -304    -41    322    325 199.1  -7.4  34106  288.66 0855.25
2009/04/23 09:45:32.3    -230   -315     -9    391    392 216.1  -1.4  34112  288.77 0855.25
2009/04/23 09:45:32.4    -284   -229     28    366    367 231.1   4.4  34120  288.88 0855.25
2009/04/23 09:45:32.5     -79   -314    124    324    346 194.2  22.0  34104  288.62 0855.25
2009/04/23 09:45:32.6      -5   -323     21    324    325 181.0   3.7  34108  288.70 0855.25
2009/04/23 09:45:32.7      28   -333      5    335    336 175.1   1.0  34108  288.69 0855.25
2009/04/23 09:45:32.8     -15   -245    -28    246    248 183.6  -6.7  34108  288.70 0855.25
2009/04/23 09:45:32.9      27   -255    -61    257    265 173.8 -13.4  34106  288.65 0855.25
2009/04/23 09:45:33.0     -20   -257    -18    258    259 184.5  -4.1  34106  288.65 0855.25
2009/04/23 09:45:33.1      24   -228    -81    230    244 173.8 -19.4  34108  288.70 0855.25
2009/04/23 09:45:33.2     -42   -209    -13    214    215 191.3  -3.7  34108  288.70 0855.25
2009/04/23 09:45:33.3     -89   -209    -75    228    241 203.2 -18.3  34100  288.56 0855.25
2009/04/23 09:45:33.4     -92   -210    -19    230    231 203.6  -4.9  34106  288.65 0855.23
2009/04/23 09:45:33.5    -104   -166   -113    196    226 212.1 -36.8  34106  288.67 0855.23
2009/04/23 09:45:33.6     -90   -186    -72    207    219 205.9 -24.0  34110  288.72 0855.23
2009/04/23 09:45:33.7    -192   -232    117    302    323 219.6  22.3  34114  288.80 0855.23
2009/04/23 09:45:33.8    -154   -248     57    293    299 211.9  11.1  34116  288.83 0855.23
2009/04/23 09:45:33.9    -180   -305     76    355    364 210.6  12.2  34116  288.81 0855.23
2009/04/23 09:45:34.0    -119   -252    107    279    298 205.4  22.0  34112  288.75 0855.23
2009/04/23 09:45:34.1      31   -274     82    276    289 173.5  16.6  34114  288.78 0855.23
2009/04/23 09:45:34.2      64   -285     -1    293    294 167.3  -0.3  34108  288.68 0855.23
2009/04/23 09:45:34.3      30   -298     -3    300    301 174.2  -0.7  34106  288.65 0855.23
2009/04/23 09:45:34.4       8   -258    -37    259    262 178.2  -8.2  34104  288.63 0855.21
2009/04/23 09:45:34.5      15   -319    -17    320    321 177.3  -3.2  34104  288.63 0855.21
2009/04/23 09:45:34.6      17   -299     36    300    303 176.6   6.9  34100  288.56 0855.21
2009/04/23 09:45:34.7      17   -315     45    316    320 176.9   8.2  34102  288.59 0855.21
2009/04/23 09:45:34.8      53   -281     19    287    288 169.3   3.8  34102  288.58 0855.21
2009/04/23 09:45:34.9      24   -279     11    281    282 174.9   2.3  34106  288.65 0855.21
2009/04/23 09:45:35.0     112   -215     12    243    244 152.4   2.9  34104  288.61 0855.21
2009/04/23 09:45:35.1     229   -229     17    325    326 135.0   3.0  34106  288.66 0855.21
2009/04/23 09:45:35.2     234   -229     16    328    329 134.3   2.9  34104  288.61 0855.21
2009/04/23 09:45:35.3     214   -188    146    285    320 131.3  29.2  34108  288.68 0855.21
2009/04/23 09:45:35.4     149    -95     71    178    191 122.6  23.0  34108  288.70 0855.21
2009/04/23 09:45:35.5      22   -109     81    112    138 168.5  39.5  34104  288.62 0855.21
2009/04/23 09:45:35.6     -62   -185    217    196    292 198.5  53.2  34108  288.68 0855.21
2009/04/23 09:45:35.7      20   -119    170    121    208 170.2  61.1  34112  288.75 0855.21
2009/04/23 09:45:35.8      93   -132    143    162    216 144.8  45.9  34108  288.70 0855.21
2009/04/23 09:45:35.9      14   -207    160    208    262 176.0  41.4  34104  288.63 0855.21
2009/04/23 09:45:36.0     -45   -267     15    271    272 189.7   3.3  34104  288.63 0855.21
2009/04/23 09:45:36.1     -96   -188    -48    212    218 207.2 -12.9  34102  288.58 0855.21
2009/04/23 09:45:36.2     -96   -176    -74    201    214 208.7 -25.3  34104  288.64 0855.21
2009/04/23 09:45:36.3     -23   -135    -75    137    156 189.7 -35.4  34108  288.69 0855.21
2009/04/23 09:45:36.4     -22    -66    -65     70     95 198.7 -52.3  34110  288.74 0855.22
2009/04/23 09:45:36.5     -24    -73    -10     78     79 198.7  -7.3  34106  288.65 0855.22
2009/04/23 09:45:36.6      19    -59     73     63     96 161.5  54.8  34112  288.75 0855.22
2009/04/23 09:45:36.7      58   -119     97    133    164 153.7  39.7  34108  288.70 0855.22
2009/04/23 09:45:36.8      64   -136    143    151    207 154.7  48.5  34108  288.70 0855.22
2009/04/23 09:45:36.9      97   -104    162    143    216 136.8  54.2  34114  288.80 0855.22
2009/04/23 09:45:37.0     107     14    118    109    160  82.1  52.5  34118  288.86 0855.22
2009/04/23 09:45:37.1     184    -78    205    201    287 113.1  50.4  34110  288.71 0855.22
2009/04/23 09:45:37.2     205    -90    190    225    294 113.7  44.3  34114  288.78 0855.22
2009/04/23 09:45:37.3      26     36    145     45    151  36.1  81.8  34122  288.92 0855.22
2009/04/23 09:45:37.4     105    -33    120    111    163 107.7  52.2  34114  288.79 0855.22
2009/04/23 09:45:37.5      57    -21    160     61    171 110.8  78.4  34114  288.80 0855.22
2009/04/23 09:45:37.6     131    -89    188    159    246 124.2  55.6  34114  288.79 0855.22
2009/04/23 09:45:37.7     155    -88    174    179    249 119.8  49.4  34112  288.75 0855.22
2009/04/23 09:45:37.8     189    -56    176    198    264 106.6  46.2  34114  288.78 0855.22
2009/04/23 09:45:37.9     102   -116     67    155    168 138.5  24.9  34110  288.74 0855.22
2009/04/23 09:45:38.0      66   -223    172    233    289 163.3  40.1  34106  288.65 0855.22
2009/04/23 09:45:38.1      24   -225    153    227    273 173.8  37.4  34108  288.68 0855.22
2009/04/23 09:45:38.2      74   -204    178    218    281 160.0  43.7  34114  288.78 0855.22
2009/04/23 09:45:38.3      53   -223    173    230    287 166.4  40.7  34110  288.71 0855.22
2009/04/23 09:45:38.4     -30      9    105     32    109 288.2  82.3  34116  288.82 0855.23
2009/04/23 09:45:38.5     146    -93    105    174    203 122.6  34.0  34106  288.65 0855.23
2009/04/23 09:45:38.6     167     -5    236    168    289  91.9  61.1  34114  288.78 0855.23
2009/04/23 09:45:38.7     141   -154    214    210    299 137.5  50.2  34112  288.75 0855.23
2009/04/23 09:45:38.8      53    -80    216     97    236 146.6  74.5  34120  288.91 0855.23
2009/04/23 09:45:38.9      23   -115    173    118    209 168.4  62.6  34114  288.80 0855.23
2009/04/23 09:45:39.0     131   -114    179    174    249 131.1  50.7  34114  288.80 0855.23
2009/04/23 09:45:39.1      95   -188    149    211    258 153.0  38.8  34116  288.81 0855.23
2009/04/23 09:45:39.2     130   -254     66    286    294 152.8  13.1  34110  288.73 0855.23
2009/04/23 09:45:39.3     150   -300    -42    336    339 153.4  -7.2  34110  288.71 0855.23
2009/04/23 09:45:39.4      53   -356    -46    360    363 171.5  -7.3  34106  288.67 0855.23
2009/04/23 09:45:39.5      58   -315     15    321    322 169.5   2.8  34108  288.70 0855.23
2009/04/23 09:45:39.6     108   -283    110    303    322 159.1  20.7  34100  288.56 0855.23
2009/04/23 09:45:39.7      48   -236    180    242    301 168.4  40.1  34116  288.81 0855.23
2009/04/23 09:45:39.8      96   -150    140    179    227 147.5  42.0  34112  288.77 0855.23
2009/04/23 09:45:39.9     163   -166     66    233    243 135.5  15.8  34114  288.78 0855.23
2009/04/23 09:45:40.0     251   -160     58    298    304 122.6  11.1  34110  288.71 0855.23
2009/04/23 09:45:40.1     199   -145      0    247    248 126.0   0.0  34114  288.78 0855.23
2009/04/23 09:45:40.2     167   -229    -19    284    285 143.9  -3.9  34114  288.78 0855.23
2009/04/23 09:45:40.3      68   -207      6    218    219 161.7   1.8  34110  288.72 0855.23
2009/04/23 09:45:40.4      54   -187     60    195    205 163.7  17.1  34114  288.79 0855.24
2009/04/23 09:45:40.5      31   -157     80    161    179 168.9  28.2  34114  288.79 0855.24
2009/04/23 09:45:40.6      67   -137    141    153    208 153.7  47.7  34118  288.87 0855.24
2009/04/23 09:45:40.7      87   -171    144    192    240 153.0  40.7  34114  288.80 0855.24
2009/04/23 09:45:40.8      27   -279    189    281    338 174.4  37.2  34110  288.71 0855.24
2009/04/23 09:45:40.9     153   -316    253    352    433 154.1  39.3  34110  288.72 0855.24
2009/04/23 09:45:41.0     263   -262     64    372    378 134.8   9.9  34112  288.77 0855.24
2009/04/23 09:45:41.1      72   -251     27    262    264 164.0   5.9  34118  288.85 0855.24
2009/04/23 09:45:41.2      56   -219      0    227    228 165.7   0.2  34118  288.86 0855.24
2009/04/23 09:45:41.3      73   -210     36    223    227 160.8   9.3  34116  288.84 0855.24
2009/04/23 09:45:41.4      28   -160     16    163    164 169.8   5.9  34118  288.86 0855.24
2009/04/23 09:45:41.5      43   -212     38    217    221 168.4  10.1  34116  288.82 0855.24
2009/04/23 09:45:41.6      46   -218     43    223    228 168.0  11.1  34118  288.86 0855.24
2009/04/23 09:45:41.7      55   -234    114    241    266 166.7  27.1  34114  288.80 0855.24
2009/04/23 09:45:41.8      41   -293     86    296    309 172.0  16.3  34116  288.83 0855.24
2009/04/23 09:45:41.9     174   -320     79    365    374 151.4  12.3  34116  288.82 0855.24
2009/04/23 09:45:42.0     311   -290     12    426    427 133.0   1.7  34116  288.82 0855.24
2009/04/23 09:45:42.1     310   -348    -42    467    469 138.3  -5.2  34116  288.83 0855.24
2009/04/23 09:45:42.2     224   -325     17    396    397 145.4   2.5  34110  288.72 0855.24
2009/04/23 09:45:42.3      88   -362     -7    373    374 166.2  -1.2  34116  288.81 0855.24
2009/04/23 09:45:42.4     -32   -302    -39    304    307 186.2  -7.3  34116  288.83 0855.23
2009/04/23 09:45:42.5      17   -207    -35    208    211 175.3  -9.6  34108  288.70 0855.23
2009/04/23 09:45:42.6      99   -201     39    225    229 153.7   9.9  34112  288.77 0855.23
2009/04/23 09:45:42.7     241   -258     -6    354    355 136.9  -1.1  34116  288.82 0855.23
2009/04/23 09:45:42.8     265   -283     16    388    389 136.9   2.5  34112  288.76 0855.23
2009/04/23 09:45:42.9     265   -270    110    379    395 135.5  16.3  34104  288.64 0855.23
2009/04/23 09:45:43.0     294   -378    125    480    497 142.1  14.7  34116  288.83 0855.23
2009/04/23 09:45:43.1     227   -257     30    344    346 138.6   5.1  34112  288.77 0855.23
2009/04/23 09:45:43.2     121   -284     20    309    310 156.8   3.8  34112  288.76 0855.23
2009/04/23 09:45:43.3      74   -256     92    267    283 163.9  19.2  34116  288.81 0855.23
2009/04/23 09:45:43.4     -19   -254     96    255    272 184.5  21.5  34114  288.80 0855.23
2009/04/23 09:45:43.5     -50   -205    160    212    265 193.8  40.9  34116  288.81 0855.23
2009/04/23 09:45:43.6      21   -201     15    203    204 173.8   4.4  34116  288.82 0855.23
2009/04/23 09:45:43.7      28   -279   -108    281    301 174.2 -26.5  34118  288.85 0855.23
2009/04/23 09:45:43.8     134   -250    -79    284    294 151.7 -20.0  34120  288.88 0855.23
2009/04/23 09:45:43.9     162   -210   -106    266    286 142.4 -27.4  34114  288.80 0855.23
2009/04/23 09:45:44.0     197   -172    -93    262    279 131.1 -19.7  34118  288.87 0855.23
2009/04/23 09:45:44.1     195    -59    -69    204    216 107.1 -18.7  34116  288.82 0855.23
2009/04/23 09:45:44.2      33    -33    -42     48     63 134.9 -51.3  34122  288.92 0855.23
2009/04/23 09:45:44.3       0    -89     39     90     98 180.5  24.6  34118  288.86 0855.23
2009/04/23 09:45:44.4      -2   -145    152    146    210 181.0  51.2  34116  288.82 0855.24
2009/04/23 09:45:44.5      15   -132    119    133    178 173.3  46.9  34116  288.82 0855.24
2009/04/23 09:45:44.6      31     -6     78     32     84 101.5  77.1  34114  288.80 0855.24
2009/04/23 09:45:44.7     -10     19     64     22     67 332.8  81.2  34122  288.92 0855.24
2009/04/23 09:45:44.8    -132    -22     65    134    148 260.3  27.3  34116  288.82 0855.24
2009/04/23 09:45:44.9    -224     69     50    235    241 287.3  12.1  34114  288.78 0855.24
2009/04/23 09:45:45.0    -132    177     -8    222    223 323.3  -2.2  34114  288.79 0855.24
2009/04/23 09:45:45.1    -136    143     53    198    205 316.3  15.0  34116  288.82 0855.24
2009/04/23 09:45:45.2     -27    103     28    107    111 344.9  14.7  34114  288.79 0855.24
2009/04/23 09:45:45.3      13     47     40     49     63  16.0  43.7  34116  288.84 0855.24
2009/04/23 09:45:45.4     -94   -151     -9    179    180 211.9  -3.1  34118  288.86 0855.24
2009/04/23 09:45:45.5    -152   -173      0    231    232 221.5   0.2  34114  288.79 0855.24
2009/04/23 09:45:45.6    -132   -194     36    235    238 214.3   8.9  34116  288.83 0855.24
2009/04/23 09:45:45.7    -121    -57     18    134    136 244.7   8.0  34114  288.79 0855.24
2009/04/23 09:45:45.8     -59    -71      4     93     94 219.7   2.9  34114  288.80 0855.24
2009/04/23 09:45:45.9     -93   -128    -14    159    160 216.1  -5.2  34114  288.80 0855.24
2009/04/23 09:45:46.0    -157   -134     19    207    208 229.6   5.4  34112  288.77 0855.24
2009/04/23 09:45:46.1    -254     10    157    255    299 272.4  34.8  34122  288.93 0855.24
2009/04/23 09:45:46.2    -175     16    103    176    203 275.5  33.4  34124  288.96 0855.24
2009/04/23 09:45:46.3      -6    -44    101     45    110 188.0  74.0  34126  289.01 0855.24
2009/04/23 09:45:46.4    -161   -151    194    221    294 226.9  45.8  34122  288.92 0855.24
2009/04/23 09:45:46.5    -223   -110     71    249    260 243.6  16.0  34132  289.10 0855.24
2009/04/23 09:45:46.6    -272   -121    -59    298    304 246.0 -11.3  34118  288.85 0855.24
2009/04/23 09:45:46.7    -263   -138    -66    298    306 242.2 -12.6  34116  288.81 0855.24
2009/04/23 09:45:46.8    -445    -46    -73    448    455 264.1  -9.3  34116  288.82 0855.24
2009/04/23 09:45:46.9    -494     -2   -167    495    523 269.7 -18.7  34110  288.71 0855.24
2009/04/23 09:45:47.0    -505      0   -170    506    534 270.1 -18.6  34114  288.80 0855.24
2009/04/23 09:45:47.1    -410    -93     36    421    423 257.2   5.0  34114  288.80 0855.24
2009/04/23 09:45:47.2    -489   -249     10    549    550 243.0   1.1  34116  288.82 0855.24
2009/04/23 09:45:47.3    -452    -71   -158    458    485 261.0 -19.1  34114  288.78 0855.24
2009/04/23 09:45:47.4    -456    -46    -84    459    467 264.2 -10.4  34112  288.77 0855.24
2009/04/23 09:45:47.5    -396    -38   -109    398    413 264.4 -15.4  34118  288.87 0855.24
2009/04/23 09:45:47.6    -531   -153   -138    553    571 253.9 -14.1  34110  288.74 0855.24
2009/04/23 09:45:47.7    -489   -215   -163    535    560 246.3 -17.0  34114  288.79 0855.24
2009/04/23 09:45:47.8    -482   -171   -142    512    532 250.5 -15.5  34110  288.72 0855.24
2009/04/23 09:45:47.9    -278   -117   -150    302    337 247.2 -32.8  34120  288.88 0855.24
2009/04/23 09:45:48.0    -132   -257   -144    289    322 207.2 -32.8  34116  288.83 0855.24
2009/04/23 09:45:48.1    -125   -324   -120    348    368 201.2 -23.9  34120  288.88 0855.24
2009/04/23 09:45:48.2    -206   -282   -162    350    385 216.1 -31.3  34110  288.71 0855.24
2009/04/23 09:45:48.3     -96   -253    -87    271    285 201.0 -17.9  34114  288.78 0855.24
2009/04/23 09:45:48.4      34   -219   -143    222    264 171.1 -40.0  34112  288.76 0855.26
2009/04/23 09:45:48.5     102   -190   -152    216    264 151.7 -43.0  34114  288.78 0855.26
2009/04/23 09:45:48.6     179   -177    -99    253    271 134.7 -26.9  34110  288.71 0855.26
2009/04/23 09:45:48.7     253   -202    -17    325    326 128.6  -3.0  34112  288.75 0855.26
2009/04/23 09:45:48.8     274   -166     53    321    326 121.3   9.4  34112  288.76 0855.26
2009/04/23 09:45:48.9     199   -218    122    296    320 137.6  23.7  34110  288.73 0855.26
2009/04/23 09:45:49.0     119   -233    125    262    290 152.8  27.3  34110  288.73 0855.26
2009/04/23 09:45:49.1     135   -185    163    230    281 143.9  38.6  34112  288.75 0855.26
2009/04/23 09:45:49.2     166   -159    135    230    266 133.8  33.1  34112  288.75 0855.26
2009/04/23 09:45:49.3     168   -120    140    207    249 125.7  37.3  34114  288.78 0855.26
2009/04/23 09:45:49.4     146    -92     79    173    190 122.4  26.6  34110  288.72 0855.26
2009/04/23 09:45:49.5      53    -83    131     99    164 147.0  59.2  34120  288.89 0855.26
2009/04/23 09:45:49.6     196     -9    145    197    244  92.8  40.1  34112  288.77 0855.26
2009/04/23 09:45:49.7     222     -8    198    223    298  92.1  46.2  34110  288.73 0855.26
2009/04/23 09:45:49.8     164     19    199    166    259  83.4  56.3  34112  288.77 0855.26
2009/04/23 09:45:49.9     267     -5    177    268    321  91.3  36.5  34112  288.75 0855.26
2009/04/23 09:45:50.0     332     83    293    343    451  75.9  44.8  34114  288.78 0855.26
2009/04/23 09:45:50.2     264    -82    151    277    315 107.3  31.0  34116  288.81 0855.26
2009/04/23 09:45:50.2     281   -166     74    327    336 120.7  12.9  34110  288.74 0855.26
2009/04/23 09:45:50.3     221   -182    108    287    306 129.5  21.5  34114  288.78 0855.26
2009/04/23 09:45:50.4     109   -171     84    203    219 147.5  23.6  34110  288.72 0855.26
2009/04/23 09:45:50.5      84   -242    115    257    281 160.8  25.7  34110  288.73 0855.26
2009/04/23 09:45:50.6     169   -155     60    230    238 132.7  14.7  34114  288.78 0855.26
2009/04/23 09:45:50.7      88   -121    105    150    183 144.0  38.4  34112  288.77 0855.26
2009/04/23 09:45:50.8      83    -19    157     86    179 102.8  68.9  34120  288.91 0855.26
2009/04/23 09:45:50.9      -1    -32    105     33    110 182.6  81.2  34132  289.09 0855.26
2009/04/23 09:45:51.0     -56    -94    135    110    174 210.7  56.6  34118  288.86 0855.26
2009/04/23 09:45:51.1      -8    -93    133     94    162 185.3  61.5  34116  288.82 0855.26
2009/04/23 09:45:51.2      -2    -64    113     65    130 181.8  67.2  34122  288.92 0855.26
2009/04/23 09:45:51.3      -5     -1     95      6     95 251.6  90.0  34130  289.06 0855.26
2009/04/23 09:45:51.4     -16    -12     85     21     87 232.2  85.9  34128  289.02 0855.26
2009/04/23 09:45:51.5      24     29     83     38     91  39.6  73.5  34126  288.99 0855.26
2009/04/23 09:45:51.6     -29   -134    147    138    201 192.5  52.1  34108  288.69 0855.26
2009/04/23 09:45:51.7     -50   -263    262    268    374 190.9  49.4  34112  288.77 0855.26
2009/04/23 09:45:51.8       4   -284    224    285    362 179.0  42.2  34116  288.82 0855.26
2009/04/23 09:45:51.9     -31   -210    214    213    301 188.5  50.1  34114  288.80 0855.26
2009/04/23 09:45:52.0      15   -266    118    267    291 176.6  25.2  34116  288.81 0855.26
2009/04/23 09:45:52.1     196   -227    198    301    360 139.2  36.4  34112  288.77 0855.26
2009/04/23 09:45:52.2      85   -234    125    250    279 159.9  28.5  34112  288.76 0855.26
2009/04/23 09:45:52.3       7   -196    111    197    226 177.8  31.9  34112  288.77 0855.26
2009/04/23 09:45:52.4     -19   -244    123    245    274 184.5  28.7  34114  288.80 0855.28
2009/04/23 09:45:52.5       4   -232    148    233    276 179.0  35.5  34116  288.83 0855.28
2009/04/23 09:45:52.6      39   -228     94    232    250 170.3  23.4  34114  288.80 0855.28
2009/04/23 09:45:52.7      69   -194    127    207    242 160.4  34.5  34114  288.79 0855.28
2009/04/23 09:45:52.8      93   -181    113    204    233 152.8  31.4  34114  288.79 0855.28
2009/04/23 09:45:53.0      86   -215    159    232    281 158.1  37.6  34114  288.80 0855.28
2009/04/23 09:45:53.0     102   -173    165    201    260 149.5  43.7  34118  288.87 0855.28
2009/04/23 09:45:53.1      20    -45     93     50    105 155.5  69.3  34124  288.96 0855.28
2009/04/23 09:45:53.2      79   -163     90    182    203 154.1  28.5  34112  288.75 0855.28
2009/04/23 09:45:53.3      66   -156     41    170    175 156.8  13.7  34114  288.79 0855.28
2009/04/23 09:45:53.4      86    -27     85     91    124 107.3  48.5  34118  288.87 0855.28
2009/04/23 09:45:53.5      25    -51     90     57    106 153.7  64.7  34128  289.04 0855.28
2009/04/23 09:45:53.6      16    -48     83     51     97 161.5  64.7  34120  288.91 0855.28
2009/04/23 09:45:53.7       6     -7     62     10     62 136.8  90.0  34128  289.02 0855.28
2009/04/23 09:45:53.8     -65    -78     97    102    140 219.6  48.0  34122  288.92 0855.28
2009/04/23 09:45:54.0     -31    -94     26     99    103 198.3  14.7  34114  288.79 0855.28
2009/04/23 09:45:54.1     -45   -159    159    166    229 195.8  48.7  34116  288.82 0855.28
2009/04/23 09:45:54.2    -112   -176    127    209    244 212.5  34.4  34118  288.87 0855.28
2009/04/23 09:45:54.3    -140   -157     82    211    226 221.9  22.5  34116  288.82 0855.28
2009/04/23 09:45:54.4     -89   -202    110    221    246 203.8  28.2  34116  288.83 0855.28
2009/04/23 09:45:54.5    -126   -148     61    195    205 220.5  17.4  34118  288.86 0855.29
2009/04/23 09:45:54.6    -104    -86    127    136    186 230.5  47.9  34120  288.89 0855.29
2009/04/23 09:45:54.7     -68   -134    124    151    195 207.1  43.7  34118  288.87 0855.29
2009/04/23 09:45:54.8    -208   -169    122    269    295 230.9  26.2  34120  288.88 0855.29
2009/04/23 09:45:54.9    -314   -182    113    364    382 239.9  17.3  34118  288.86 0855.29
2009/04/23 09:45:55.0    -305   -100     15    321    322 251.8   2.8  34128  289.02 0855.29
2009/04/23 09:45:55.1    -208   -141    191    252    316 235.9  40.9  34118  288.87 0855.29
2009/04/23 09:45:55.2    -180   -239    194    300    357 217.0  36.0  34120  288.89 0855.29
2009/04/23 09:45:55.3     -46   -152    205    159    259 196.9  58.4  34124  288.96 0855.29
2009/04/23 09:45:55.4     -83    -51     65     98    117 238.5  37.0  34126  289.01 0855.29
2009/04/23 09:45:55.5    -310    -44    -64    314    321 261.9 -11.6  34122  288.92 0855.29
2009/04/23 09:45:55.6    -296    -83     -5    308    309 254.3  -1.1  34122  288.93 0855.29
2009/04/23 09:45:55.7    -167   -138     84    217    232 230.5  22.3  34126  288.99 0855.29
2009/04/23 09:45:55.8     -92    -10     67     93    114 263.4  39.5  34120  288.89 0855.29
2009/04/23 09:45:55.9     -89   -168    148    191    241 207.9  41.7  34116  288.82 0855.29
2009/04/23 09:45:56.0    -148   -305    166    340    378 205.9  27.9  34120  288.88 0855.29
2009/04/23 09:45:56.1    -146   -308    107    342    359 205.4  17.4  34126  289.01 0855.29
2009/04/23 09:45:56.2    -159   -209     92    263    279 217.2  19.4  34126  288.98 0855.29
2009/04/23 09:45:56.3     -62   -179    126    190    227 199.2  36.5  34124  288.96 0855.29
2009/04/23 09:45:56.4    -158    -44     33    165    169 254.5  11.4  34130  289.08 0855.29
2009/04/23 09:45:56.5    -106    -57     33    121    126 241.6  15.2  34134  289.14 0855.29
2009/04/23 09:45:56.6     -36   -136     72    141    158 195.2  29.3  34128  289.02 0855.29
2009/04/23 09:45:56.7       1   -198     10    199    200 179.5   3.1  34128  289.02 0855.29
2009/04/23 09:45:56.8     -39   -124     20    131    133 197.4   8.9  34120  288.91 0855.29
2009/04/23 09:45:56.9     -92   -145     88    172    193 212.5  29.3  34122  288.92 0855.29
2009/04/23 09:45:57.0     -48    -77     42     91    100 212.1  26.6  34120  288.91 0855.29
2009/04/23 09:45:57.1      18    -40     81     44     92 155.5  69.3  34132  289.11 0855.29
2009/04/23 09:45:57.2      32    -76    101     83    130 157.3  56.4  34126  288.99 0855.29
2009/04/23 09:45:57.3      88    -52    112    103    152 120.7  52.2  34128  289.04 0855.29
2009/04/23 09:45:57.4     142    -42    108    149    184 106.4  39.5  34120  288.91 0855.29
2009/04/23 09:45:57.5     157    -12    124    158    200  94.4  42.2  34124  288.96 0855.29
2009/04/23 09:45:57.6      64    -40    133     76    153 122.5  67.7  34126  289.01 0855.29
2009/04/23 09:45:57.7      24     50    160     56    169  25.5  80.5  34118  288.87 0855.29
2009/04/23 09:45:57.8     158    -16    150    159    218  96.1  48.0  34118  288.86 0855.29
2009/04/23 09:45:57.9     114   -192    136    224    262 149.2  34.4  34120  288.88 0855.29
2009/04/23 09:45:58.0     232   -235    155    331    365 135.4  27.1  34116  288.82 0855.29
2009/04/23 09:45:58.1     283   -227    163    364    398 128.8  25.8  34114  288.79 0855.29
2009/04/23 09:45:58.2     235   -254    164    347    383 137.2  27.1  34118  288.86 0855.29
2009/04/23 09:45:58.3     241   -250    126    348    370 136.1  20.7  34116  288.82 0855.29
2009/04/23 09:45:58.4     284   -303    150    416    443 136.8  19.9  34118  288.87 0855.29
2009/04/23 09:45:58.5     260   -268    142    374    400 135.9  21.7  34116  288.82 0855.29
2009/04/23 09:45:58.6     245   -215     89    327    340 131.3  15.3  34120  288.89 0855.29
2009/04/23 09:45:58.7      72   -181    108    196    223 158.2  31.4  34120  288.89 0855.29
2009/04/23 09:45:58.8      14   -159    -12    160    161 174.7  -4.4  34116  288.82 0855.29
2009/04/23 09:45:58.9      27   -224    -74    226    237 172.9 -23.3  34122  288.92 0855.29
2009/04/23 09:45:59.0     -21   -177      9    179    180 186.9   2.9  34116  288.82 0855.29
2009/04/23 09:45:59.1     -21   -174    -16    176    177 186.9  -5.4  34118  288.86 0855.29
2009/04/23 09:45:59.2       1   -204    -35    205    209 179.5  -9.8  34118  288.87 0855.29
2009/04/23 09:45:59.3      47   -154    -44    162    169 163.1 -15.4  34120  288.91 0855.29
2009/04/23 09:45:59.4      80    -63    -93    103    138 128.2 -51.9  34122  288.92 0855.29
2009/04/23 09:45:59.5     143     85    -62    167    178  59.3 -25.7  34118  288.86 0855.30
2009/04/23 09:45:59.6     119     43    -68    127    144  70.1 -35.2  34120  288.91 0855.30
2009/04/23 09:45:59.7     136      1    -40    137    143  89.2 -16.6  34122  288.92 0855.30
2009/04/23 09:45:59.8      49    -19     27     53     59 111.7  29.3  34124  288.97 0855.30
2009/04/23 09:45:59.9      11     16      4     20     21  36.1  13.2  34122  288.94 0855.30
2009/04/23 09:46:00.0     -82    -12     -2     83     84 261.2  -1.8  34122  288.94 0855.30
2009/04/23 09:46:00.1    -115    -38     46    122    130 251.6  21.5  34122  288.92 0855.30
2009/04/23 09:46:00.2    -123    -33     57    128    140 254.9  25.2  34122  288.92 0855.30
2009/04/23 09:46:00.3    -118     16    -33    120    125 277.9 -15.4  34126  288.99 0855.30
2009/04/23 09:46:00.4     -67     27     14     73     75 291.8  11.0  34128  289.02 0855.30
2009/04/23 09:46:00.5      29     -2     16     30     34  94.3  29.3  34128  289.04 0855.30
2009/04/23 09:46:00.6      84     -5     48     85     97  93.9  32.4  34130  289.08 0855.30
2009/04/23 09:46:00.7     127     -5    111    128    169  92.5  45.4  34126  289.01 0855.30
2009/04/23 09:46:00.8     107    -50    118    119    167 115.2  50.0  34130  289.06 0855.30
2009/04/23 09:46:00.9      81    -47    113     94    146 120.2  56.3  34128  289.04 0855.30
2009/04/23 09:46:01.0     132    -47     97    141    171 109.5  37.8  34124  288.96 0855.30
2009/04/23 09:46:01.1      89    -56     82    106    134 122.0  41.7  34126  289.01 0855.30
2009/04/23 09:46:01.2      80    -66     89    104    136 129.5  44.8  34126  288.99 0855.30
2009/04/23 09:46:01.3      21    -65    100     69    121 161.5  62.6  34130  289.08 0855.30
2009/04/23 09:46:01.4      23    -86    109     90    141 164.9  56.4  34130  289.06 0855.30
2009/04/23 09:46:01.5      49    -78    136     93    164 147.5  62.6  34132  289.09 0855.29
2009/04/23 09:46:01.6      34    -72     70     80    106 154.7  46.4  34134  289.13 0855.29
2009/04/23 09:46:01.7     120    -57     36    133    138 115.4  15.3  34126  288.99 0855.29
2009/04/23 09:46:01.8     120    -90    111    150    186 126.9  40.1  34126  289.01 0855.29
2009/04/23 09:46:01.9     178   -208     31    274    276 139.5   6.5  34122  288.93 0855.29
2009/04/23 09:46:02.0      76   -239     63    251    259 162.2  14.2  34120  288.90 0855.29
2009/04/23 09:46:02.1     150   -230    219    275    351 146.8  42.6  34126  288.98 0855.29
2009/04/23 09:46:02.2     225   -235    293    326    438 136.3  46.6  34128  289.02 0855.29
2009/04/23 09:46:02.3     181   -137    173    228    286 127.1  40.9  34126  289.00 0855.29
2009/04/23 09:46:02.4     257    -69    172    267    317 105.1  35.9  34122  288.93 0855.29
2009/04/23 09:46:02.5     169    -90     14    192    193 118.0   4.2  34122  288.94 0855.29
2009/04/23 09:46:02.6     135   -145    -47    199    205 137.0 -13.4  34124  288.96 0855.29
2009/04/23 09:46:02.7     114   -166    -18    202    203 145.5  -5.2  34122  288.92 0855.29
2009/04/23 09:46:02.8      31   -157    -23    161    163 168.7  -8.2  34122  288.94 0855.29
2009/04/23 09:46:02.9      43   -127     31    135    139 161.3  13.2  34124  288.97 0855.29
2009/04/23 09:46:03.0      95   -183    -26    207    209 152.4  -7.3  34122  288.92 0855.29
2009/04/23 09:46:03.1      75   -166    -50    183    190 155.5 -15.5  34122  288.94 0855.29
2009/04/23 09:46:03.2     -25   -173    -22    175    177 188.5  -7.3  34122  288.92 0855.29
2009/04/23 09:46:03.3    -104   -177    -50    206    213 210.5 -13.7  34120  288.91 0855.29
2009/04/23 09:46:03.4    -108   -116    -93    159    184 222.8 -37.5  34126  289.01 0855.29
2009/04/23 09:46:03.5     -95   -138   -126    168    210 214.7 -45.3  34124  288.97 0855.28
2009/04/23 09:46:03.6     -40   -233   -100    237    257 189.8 -28.5  34124  288.97 0855.28
2009/04/23 09:46:03.7    -103   -174    -39    203    207 210.7 -10.9  34126  288.99 0855.28
2009/04/23 09:46:03.8    -132   -101     42    167    173 232.5  14.3  34128  289.04 0855.28
2009/04/23 09:46:03.9    -123    -53     67    135    150 246.5  27.8  34128  289.02 0855.28
2009/04/23 09:46:04.0     -24     24    114     34    118 314.9  82.8  34128  289.04 0855.28
2009/04/23 09:46:04.1     156   -113    113    193    223 125.9  33.4  34124  288.96 0855.28
2009/04/23 09:46:04.2     110   -146    128    183    223 143.0  38.4  34126  288.99 0855.28
2009/04/23 09:46:04.3       7   -161    140    162    214 177.5  45.4  34124  288.96 0855.28
2009/04/23 09:46:04.4       8   -187    112    188    218 177.3  33.5  34120  288.91 0855.28
2009/04/23 09:46:04.5      25   -161     30    164    167 171.1  10.6  34124  288.96 0855.28
2009/04/23 09:46:04.6     120   -160    -36    201    205 143.0 -10.3  34122  288.94 0855.28
2009/04/23 09:46:04.7      75   -187      1    202    203 158.1   0.5  34120  288.91 0855.28
2009/04/23 09:46:04.8      16   -183    107    184    212 174.9  33.1  34120  288.91 0855.28
2009/04/23 09:46:04.9      82   -234    127    249    279 160.6  29.2  34124  288.97 0855.28
2009/04/23 09:46:05.0      22   -187     40    189    194 173.3  12.0  34122  288.92 0855.28
2009/04/23 09:46:05.1     -15   -127     25    128    131 187.1  11.1  34120  288.91 0855.28
2009/04/23 09:46:05.2      -2   -119     42    120    128 181.4  19.2  34122  288.94 0855.28
2009/04/23 09:46:05.3      37   -152     67    157    170 166.2  24.6  34122  288.92 0855.28
2009/04/23 09:46:05.4      31   -134     50    138    146 166.7  20.4  34120  288.91 0855.28
2009/04/23 09:46:05.5      86    -86     89    122    151 135.0  39.7  34128  289.04 0855.27
2009/04/23 09:46:05.6     124    -93     74    156    172 126.9  27.2  34126  289.01 0855.27
2009/04/23 09:46:05.7      94    -68    115    117    164 126.0  50.0  34130  289.08 0855.27
2009/04/23 09:46:05.8      54   -116    107    129    167 155.1  44.1  34128  289.02 0855.27
2009/04/23 09:46:05.9      44   -145     72    152    168 163.0  27.2  34126  288.99 0855.27
2009/04/23 09:46:06.0      36   -152     10    157    158 166.6   3.8  34126  289.01 0855.27
2009/04/23 09:46:06.1     -35   -115    -34    121    126 196.9 -16.0  34124  288.97 0855.27
2009/04/23 09:46:06.2      16   -114    -28    116    120 172.0 -13.9  34126  288.99 0855.27
2009/04/23 09:46:06.3      -5   -131    -41    132    139 182.6 -17.6  34122  288.92 0855.27
2009/04/23 09:46:06.4     -55   -147    -54    158    166 200.5 -23.8  34122  288.92 0855.27
2009/04/23 09:46:06.5     -35   -117    -44    123    130 196.9 -24.4  34122  288.92 0855.27
2009/04/23 09:46:06.6      41   -122    -14    129    130 161.3  -6.2  34124  288.96 0855.27
2009/04/23 09:46:06.7      58   -123      4    137    138 154.7   1.8  34124  288.96 0855.27
2009/04/23 09:46:06.8      22   -128      6    130    131 170.2   2.9  34124  288.96 0855.27
2009/04/23 09:46:06.9      21    -63     13     67     69 161.3  11.0  34122  288.94 0855.27
2009/04/23 09:46:07.0      34    -74     19     82     85 155.5  13.2  34128  289.04 0855.27
2009/04/23 09:46:07.1      -1    -12     42     13     43 186.2  81.8  34130  289.06 0855.27
2009/04/23 09:46:07.2       0    -50     63     51     81 180.9  56.9  34140  289.24 0855.27
2009/04/23 09:46:07.3     -11    -36     61     38     71 198.3  64.7  34136  289.18 0855.27
2009/04/23 09:46:07.4       0    -67     95     68    116 180.0  61.1  34130  289.08 0855.27
2009/04/23 09:46:07.5      -3   -137    119    138    182 181.4  45.4  34130  289.06 0855.28
2009/04/23 09:46:07.6     -16   -149    123    150    193 186.2  43.7  34126  289.01 0855.28
2009/04/23 09:46:07.7      -7   -155     49    156    164 182.6  17.7  34126  288.99 0855.28
2009/04/23 09:46:07.8     -16   -148     40    149    155 186.2  15.2  34120  288.89 0855.28
2009/04/23 09:46:07.9      -5   -297     58    298    304 181.1  11.1  34122  288.92 0855.28
2009/04/23 09:46:08.0      11   -256    193    257    321 177.4  40.7  34124  288.97 0855.28
2009/04/23 09:46:08.1      80   -232    166    246    296 160.9  37.4  34128  289.03 0855.28
2009/04/23 09:46:08.2      89   -222    148    240    281 158.1  34.8  34128  289.02 0855.28
2009/04/23 09:46:08.3     148   -156    119    216    246 136.6  31.4  34122  288.92 0855.28
2009/04/23 09:46:08.4     209   -115    107    239    261 118.8  25.7  34124  288.95 0855.28
2009/04/23 09:46:08.5     154     -2     62    155    166  90.8  23.0  34128  289.02 0855.28
2009/04/23 09:46:08.6      54      0    132     55    143  89.2  77.0  34138  289.21 0855.28
2009/04/23 09:46:08.7     -15   -196    182    197    268 184.4  47.9  34128  289.02 0855.28
2009/04/23 09:46:08.8     -58   -193    104    202    227 196.9  29.3  34120  288.89 0855.28
2009/04/23 09:46:08.9     -60   -226    214    234    317 195.1  47.3  34122  288.92 0855.28
2009/04/23 09:46:09.0       0   -320    211    321    384 179.9  36.4  34124  288.96 0855.28
2009/04/23 09:46:09.1      -2   -276    189    277    335 180.5  37.7  34126  289.00 0855.28
2009/04/23 09:46:09.2      41   -295    223    298    372 172.0  40.6  34128  289.04 0855.28
2009/04/23 09:46:09.3     -24   -314    237    316    395 184.5  40.6  34122  288.94 0855.28
2009/04/23 09:46:09.4      63   -226    190    235    302 164.2  43.3  34128  289.02 0855.28
2009/04/23 09:46:09.5      19   -317    263    318    412 176.5  43.7  34126  288.98 0855.29
2009/04/23 09:46:09.6      73   -371    290    379    477 168.9  41.2  34132  289.09 0855.29
2009/04/23 09:46:09.7      -6   -272    285    273    394 181.4  51.3  34126  289.01 0855.29
2009/04/23 09:46:09.8     157   -267    183    310    359 149.5  33.4  34126  288.98 0855.29
2009/04/23 09:46:09.9     101   -372    138    386    409 164.7  20.4  34122  288.92 0855.29
2009/04/23 09:46:10.0      39   -347    169    350    388 173.5  27.3  34126  288.99 0855.29
2009/04/23 09:46:10.1      -4   -314    159    315    352 180.9  28.9  34124  288.96 0855.29
2009/04/23 09:46:10.2     -85   -349    135    360    384 193.8  21.5  34126  288.99 0855.29
2009/04/23 09:46:10.3    -112   -426    112    441    456 194.8  14.3  34128  289.02 0855.29
2009/04/23 09:46:10.4      44   -316    172    320    363 172.0  30.6  34122  288.93 0855.29
2009/04/23 09:46:10.5    -146   -273    198    310    367 208.1  35.6  34126  289.01 0855.29
2009/04/23 09:46:10.6     -98   -191     60    215    224 207.2  15.6  34120  288.89 0855.29
2009/04/23 09:46:10.7     -43   -143    124    150    194 196.9  43.8  34128  289.02 0855.29
2009/04/23 09:46:10.8     -93   -240    214    258    335 201.2  44.0  34130  289.05 0855.29
2009/04/23 09:46:10.9     -47   -186     87    192    210 194.3  26.2  34124  288.96 0855.29
2009/04/23 09:46:11.0     -40   -190    119    195    228 192.0  34.4  34128  289.02 0855.29
2009/04/23 09:46:11.1     -45   -159    152    166    225 195.8  47.5  34128  289.04 0855.29
2009/04/23 09:46:11.2     -82   -123     59    149    160 213.8  22.8  34128  289.02 0855.29
2009/04/23 09:46:11.3      76     11     47     77     90  81.2  35.0  34134  289.14 0855.29
2009/04/23 09:46:11.4      54    -98     75    113    135 151.0  36.5  34126  288.99 0855.29
2009/04/23 09:46:11.5      73   -209     39    222    226 160.6  10.1  34126  288.99 0855.29
2009/04/23 09:46:11.6      31   -176     15    179    180 170.0   4.9  34126  288.99 0855.29
2009/04/23 09:46:11.7     -19   -104     20    106    108 190.7  11.0  34126  288.99 0855.29
2009/04/23 09:46:11.8     -95    -62     -4    114    115 236.7  -2.2  34130  289.06 0855.29
2009/04/23 09:46:11.9     -39     25     69     47     83 303.3  62.6  34136  289.16 0855.29
2009/04/23 09:46:12.0     -55     -2     75     56     93 267.4  59.4  34138  289.19 0855.29
2009/04/23 09:46:12.1     -49     -3     33     50     59 266.5  36.5  34136  289.18 0855.29
2009/04/23 09:46:12.2     -37     40    -16     55     57 316.8 -21.7  34130  289.06 0855.29
2009/04/23 09:46:12.3     -77    -20    -20     80     83 255.4 -14.5  34128  289.04 0855.29
2009/04/23 09:46:12.4     -92    -43     -4    102    103 244.8  -2.6  34128  289.04 0855.29
2009/04/23 09:46:12.5    -126   -133     12    184    185 223.4   3.8  34124  288.96 0855.29
2009/04/23 09:46:12.6     -57   -174     22    184    186 198.3   6.9  34120  288.91 0855.29
2009/04/23 09:46:12.7     -42   -227     67    231    241 190.5  16.3  34118  288.85 0855.29
2009/04/23 09:46:12.8    -104   -228    109    251    273 204.5  25.1  34120  288.90 0855.29
2009/04/23 09:46:12.9    -144   -115    110    185    215 231.4  33.5  34124  288.96 0855.29
2009/04/23 09:46:13.0    -210     -2    110    211    237 269.2  29.8  34126  289.01 0855.29
2009/04/23 09:46:13.1    -146      2     51    147    156 270.8  19.4  34124  288.96 0855.29
2009/04/23 09:46:13.2    -136    -73    -23    155    157 241.6  -8.6  34122  288.94 0855.29
2009/04/23 09:46:13.3    -244   -165     57    295    301 235.9  11.0  34126  289.00 0855.29
2009/04/23 09:46:13.4    -241   -108     -1    265    266 245.8  -0.3  34122  288.93 0855.29
2009/04/23 09:46:13.5    -178   -135    101    224    245 232.9  26.2  34124  288.97 0855.28
2009/04/23 09:46:13.6     -83   -158    116    179    213 207.6  35.6  34122  288.92 0855.28
2009/04/23 09:46:13.7     -27   -174    158    177    237 188.9  46.4  34124  288.97 0855.28
2009/04/23 09:46:13.8     -35   -148    162    153    222 193.4  52.0  34124  288.97 0855.28
2009/04/23 09:46:13.9     -49   -155     50    163    171 197.8  17.1  34120  288.91 0855.28
2009/04/23 09:46:14.0    -201   -201     34    285    288 224.9   6.9  34122  288.92 0855.28
2009/04/23 09:46:14.1    -154   -203    -75    256    267 217.2 -16.4  34120  288.88 0855.28
2009/04/23 09:46:14.2     -26   -199   -111    201    229 187.6 -35.8  34124  288.96 0855.28
2009/04/23 09:46:14.3     131   -248    163    281    324 152.0  32.9  34116  288.83 0855.28
2009/04/23 09:46:14.4      16   -220    262    221    342 175.8  55.8  34122  288.92 0855.28
2009/04/23 09:46:14.5     -44   -316    181    320    367 188.0  32.0  34116  288.84 0855.28
2009/04/23 09:46:14.6     -72   -292     92    301    315 194.0  17.0  34116  288.83 0855.28
2009/04/23 09:46:14.7      93    -96    140    134    193 135.9  51.2  34114  288.80 0855.28
2009/04/23 09:46:14.8      87    -90    186    126    224 135.9  62.7  34128  289.04 0855.28
2009/04/23 09:46:14.9      27     58     71     65     96  25.4  52.2  34134  289.14 0855.28
2009/04/23 09:46:15.0     -24    -33     90     41     98 216.1  74.0  34130  289.06 0855.28
2009/04/23 09:46:15.1     -27    -86    101     91    135 197.8  53.3  34122  288.94 0855.28
2009/04/23 09:46:15.2      27    -33     95     43    104 140.4  74.0  34130  289.08 0855.28
2009/04/23 09:46:15.3      24   -193    201    195    280 172.9  50.7  34122  288.93 0855.28
2009/04/23 09:46:15.4     103   -274    239    293    378 159.3  43.6  34120  288.91 0855.28
2009/04/23 09:46:15.5      83   -401    270    410    490 168.2  36.5  34122  288.93 0855.28
2009/04/23 09:46:15.6     -23   -318    241    319    399 184.2  40.8  34122  288.93 0855.28
2009/04/23 09:46:15.7     -53   -265    267    271    380 191.5  49.9  34120  288.89 0855.28
2009/04/23 09:46:15.8      44   -168    260    174    312 165.3  63.2  34126  288.98 0855.28
2009/04/23 09:46:15.9     160   -200    283    257    382 141.3  53.2  34126  289.01 0855.28
2009/04/23 09:46:16.0      93   -231    212    250    327 158.1  44.5  34122  288.92 0855.28
2009/04/23 09:46:16.1      58   -176    226    186    292 161.7  56.4  34120  288.90 0855.28
2009/04/23 09:46:16.2     -58   -284    179    291    341 191.6  34.8  34122  288.92 0855.28
2009/04/23 09:46:16.3    -128   -223    154    258    300 209.9  33.5  34122  288.92 0855.28
2009/04/23 09:46:16.4    -134   -283     61    314    320 205.4  11.0  34124  288.95 0855.28
2009/04/23 09:46:16.5    -117   -269     52    294    299 203.6  10.1  34122  288.92 0855.27
2009/04/23 09:46:16.6    -178   -278     21    331    332 212.6   3.7  34122  288.93 0855.27
2009/04/23 09:46:16.7    -164   -376     48    411    414 203.5   6.7  34118  288.85 0855.27
2009/04/23 09:46:16.8    -158   -340    -39    376    379 204.9  -6.0  34120  288.88 0855.27
2009/04/23 09:46:16.9    -111   -243    -95    268    285 204.5 -19.7  34122  288.92 0855.27
2009/04/23 09:46:17.0     -53   -324    -93    329    341 189.3 -20.5  34120  288.89 0855.27
2009/04/23 09:46:17.1    -118   -287     49    311    315 202.3   9.0  34128  289.03 0855.27
2009/04/23 09:46:17.2      52   -265    -75    271    281 168.9 -20.2  34120  288.90 0855.27
2009/04/23 09:46:17.3      25   -254    -27    256    258 174.2  -6.2  34126  288.98 0855.27
2009/04/23 09:46:17.4      -4   -274    -42    275    279 180.9  -8.8  34120  288.90 0855.27
2009/04/23 09:46:17.5     -13   -266     51    267    272 182.9  11.0  34120  288.90 0855.27
2009/04/23 09:46:17.6      12   -236     78    237    250 177.1  18.4  34124  288.95 0855.27
2009/04/23 09:46:17.7      10   -364    -35    365    367 178.4  -5.6  34120  288.89 0855.27
2009/04/23 09:46:17.8     -59   -262   -125    269    296 192.7 -31.4  34118  288.87 0855.27
2009/04/23 09:46:17.9     -99   -236    -83    257    270 202.8 -23.3  34116  288.83 0855.27
2009/04/23 09:46:18.0    -112   -195   -137    225    263 209.9 -38.8  34120  288.88 0855.27
2009/04/23 09:46:18.1     -91   -169    -80    193    208 208.3 -28.0  34122  288.92 0855.27
2009/04/23 09:46:18.2    -127   -110    -81    169    187 229.1 -31.7  34124  288.97 0855.27
2009/04/23 09:46:18.3    -111   -146    -99    184    208 217.4 -35.0  34128  289.02 0855.27
2009/04/23 09:46:18.4      41   -105    -46    113    122 158.6 -27.4  34122  288.92 0855.27
2009/04/23 09:46:18.5     -37    -44    -84     58    102 219.6 -65.9  34126  288.99 0855.25
2009/04/23 09:46:18.6     -15   -173    -24    174    176 185.1  -8.0  34124  288.97 0855.25
2009/04/23 09:46:18.7       8   -106    -13    107    108 175.5  -7.2  34122  288.94 0855.25
2009/04/23 09:46:18.8    -174    -22     -6    176    177 262.8  -2.2  34124  288.97 0855.25
2009/04/23 09:46:18.9    -141   -106    -15    177    178 232.9  -4.9  34124  288.96 0855.25
2009/04/23 09:46:19.0      -3   -243     93    244    261 180.7  22.0  34124  288.97 0855.25
2009/04/23 09:46:19.1    -130   -234     63    268    276 209.0  13.2  34122  288.93 0855.25
2009/04/23 09:46:19.2    -134   -203     37    244    247 213.4   8.8  34122  288.93 0855.25
2009/04/23 09:46:19.3      21   -210    147    212    257 174.2  38.4  34120  288.90 0855.25
2009/04/23 09:46:19.4      80   -249    148    262    300 162.1  32.1  34122  288.93 0855.25
2009/04/23 09:46:19.5     118   -194    178    228    289 148.6  42.0  34122  288.92 0855.25
2009/04/23 09:46:19.6      16   -270    156    271    312 176.6  32.6  34120  288.90 0855.25
2009/04/23 09:46:19.7     -31   -151     92    155    180 191.6  33.5  34124  288.96 0855.25
2009/04/23 09:46:19.8      16    -38    127     42    133 156.4  80.7  34132  289.11 0855.25
2009/04/23 09:46:19.9     -43   -128    201    136    242 198.7  62.8  34130  289.06 0855.25
2009/04/23 09:46:20.0     -17    -54    149     57    159 197.8  78.4  34134  289.13 0855.25
2009/04/23 09:46:20.1    -105   -149    159    183    242 215.2  45.8  34128  289.02 0855.25
2009/04/23 09:46:20.3     -31   -100    173    105    202 197.4  66.0  34128  289.04 0855.25
2009/04/23 09:46:20.4      -6   -107    184    108    213 183.6  66.8  34136  289.18 0855.25
2009/04/23 09:46:20.5     -30   -135    170    139    219 192.5  56.4  34124  288.96 0855.25
2009/04/23 09:46:20.6     -19    -41    135     46    142 204.5  81.2  34134  289.14 0855.25
2009/04/23 09:46:20.7      41    -69    129     81    152 149.3  64.7  34128  289.02 0855.25
2009/04/23 09:46:20.8     -11   -158    231    159    280 184.0  62.6  34130  289.05 0855.25
2009/04/23 09:46:20.9      19   -170    200    172    263 173.5  55.3  34128  289.02 0855.25
2009/04/23 09:46:21.0    -104   -221    220    245    329 205.3  46.5  34126  288.98 0855.25
2009/04/23 09:46:21.1    -253   -160     97    300    316 237.6  18.0  34126  289.00 0855.25
2009/04/23 09:46:21.2    -187   -190    112    267    289 224.5  24.1  34122  288.92 0855.25
2009/04/23 09:46:21.3    -249   -230    101    340    355 227.3  16.6  34122  288.94 0855.25
2009/04/23 09:46:21.4    -172   -224    189    283    340 217.6  36.9  34124  288.97 0855.25
2009/04/23 09:46:21.5    -156   -223    173    273    323 215.0  35.5  34122  288.92 0855.25
2009/04/23 09:46:21.6    -142   -195    185    242    304 216.0  41.6  34122  288.92 0855.25
2009/04/23 09:46:21.7    -105   -190    167    218    274 209.0  41.6  34122  288.93 0855.25
2009/04/23 09:46:21.8     -56   -140    148    151    211 201.9  49.8  34124  288.97 0855.25
2009/04/23 09:46:21.9      13    -88    122     90    151 171.1  60.5  34128  289.04 0855.25
2009/04/23 09:46:22.0     -39   -147    111    153    189 195.1  39.7  34126  288.99 0855.25
2009/04/23 09:46:22.1    -126   -113     34    170    174 228.0  11.6  34124  288.96 0855.25
2009/04/23 09:46:22.2     -25   -114    117    117    165 192.5  50.1  34126  288.99 0855.25
2009/04/23 09:46:22.3    -104    -40    116    112    161 248.7  50.9  34120  288.91 0855.25
2009/04/23 09:46:22.4    -242     55     90    249    264 282.8  20.4  34124  288.97 0855.25
2009/04/23 09:46:22.5    -285     -4    101    286    304 269.1  19.6  34114  288.80 0855.25
2009/04/23 09:46:22.6    -374     -9     30    375    377 268.6   4.6  34116  288.81 0855.25
2009/04/23 09:46:22.7    -157   -119    119    198    231 232.9  33.7  34118  288.87 0855.25
2009/04/23 09:46:22.8    -132   -157    113    206    234 220.1  31.0  34118  288.86 0855.25
2009/04/23 09:46:22.9     -44   -170    209    176    273 194.5  56.1  34124  288.95 0855.25
2009/04/23 09:46:23.0    -106   -224    170    249    301 205.4  37.6  34116  288.81 0855.25
2009/04/23 09:46:23.1    -155   -252    164    296    338 211.6  31.4  34120  288.90 0855.25
2009/04/23 09:46:23.2    -188   -216    110    287    307 221.2  22.0  34122  288.93 0855.25
2009/04/23 09:46:23.3    -149   -206    146    255    293 215.8  32.4  34124  288.97 0855.25
2009/04/23 09:46:23.4    -120   -191    100    226    247 212.1  25.3  34122  288.92 0855.25
2009/04/23 09:46:23.5     -56    -20    -20     60     63 250.0 -23.6  34122  288.92 0855.25
2009/04/23 09:46:23.6     -90     99     -6    134    135 317.7  -2.6  34124  288.97 0855.25
2009/04/23 09:46:23.7    -162     18      8    164    165 276.6   2.9  34122  288.94 0855.25
2009/04/23 09:46:23.8    -225   -212    148    310    343 226.7  27.3  34116  288.82 0855.25
2009/04/23 09:46:23.9    -243   -201     78    316    326 230.5  13.9  34120  288.88 0855.25
2009/04/23 09:46:24.0    -308   -313      2    440    441 224.6   0.4  34108  288.70 0855.25
2009/04/23 09:46:24.1    -454   -118   -117    470    485 255.4 -14.1  34100  288.54 0855.25
2009/04/23 09:46:24.2    -411   -180   -129    449    468 246.3 -16.0  34106  288.65 0855.25
2009/04/23 09:46:24.3    -435   -107    -98    449    460 256.1 -12.4  34106  288.65 0855.25
2009/04/23 09:46:24.4    -336   -154    -20    370    371 245.4  -3.2  34110  288.71 0855.25
2009/04/23 09:46:24.5    -363    -98     54    377    381 254.8   8.2  34120  288.88 0855.25
2009/04/23 09:46:24.6    -375   -124     21    395    396 251.7   3.1  34122  288.93 0855.25
2009/04/23 09:46:24.7    -382   -154     58    412    417 248.0   8.0  34128  289.04 0855.25
2009/04/23 09:46:24.8    -323    -24     19    324    325 265.6   3.5  34130  289.07 0855.25
2009/04/23 09:46:24.9    -377     13      7    378    379 272.0   1.1  34134  289.13 0855.25
2009/04/23 09:46:25.0    -343    -46    109    347    364 262.3  17.5  34142  289.26 0855.25
2009/04/23 09:46:25.1    -405    -16     16    406    407 267.7   2.3  34148  289.36 0855.25
2009/04/23 09:46:25.2    -376     -3     19    377    378 269.5   3.0  34152  289.42 0855.25
2009/04/23 09:46:25.3    -235   -164    102    287    304 235.1  20.2  34136  289.17 0855.25
2009/04/23 09:46:25.4     -95   -190     73    213    226 206.5  18.9  34104  288.62 0855.25
2009/04/23 09:46:25.5    -130    -30    -22    134    136 256.7  -9.4  34122  288.94 0855.25
2009/04/23 09:46:25.6     -71      0     14     72     74 270.0  11.1  34128  289.04 0855.25
2009/04/23 09:46:25.7     -94   -113     12    148    149 219.6   4.9  34126  288.99 0855.25
2009/04/23 09:46:25.8    -103   -161      1    192    193 212.6   0.5  34118  288.86 0855.25
2009/04/23 09:46:25.9    -192   -234     47    303    307 219.4   8.9  34116  288.81 0855.25
2009/04/23 09:46:26.0    -213   -213     30    302    304 225.0   5.7  34118  288.85 0855.25
2009/04/23 09:46:26.1    -106   -197    -48    224    230 208.3 -12.2  34118  288.86 0855.25
2009/04/23 09:46:26.2    -181    -85    -95    201    222 244.7 -31.5  34114  288.79 0855.25
2009/04/23 09:46:26.3    -230    -67    -44    240    245 253.6 -10.5  34112  288.75 0855.25
2009/04/23 09:46:26.4    -340    -81    -97    350    363 256.6 -20.1  34110  288.74 0855.25
2009/04/23 09:46:26.5    -368     -3    -96    369    382 269.5 -14.6  34108  288.69 0855.25
2009/04/23 09:46:26.6    -366   -120    -99    386    399 251.8 -14.5  34118  288.86 0855.25
2009/04/23 09:46:26.7    -329   -176     89    374    385 241.8  13.5  34112  288.77 0855.25
2009/04/23 09:46:26.8    -360   -178     66    402    408 243.7   9.4  34116  288.83 0855.25
2009/04/23 09:46:26.9    -462   -181    -99    497    507 248.6 -11.3  34096  288.49 0855.25
2009/04/23 09:46:27.0    -449   -181    -87    485    493 248.0 -10.2  34100  288.56 0855.25
2009/04/23 09:46:27.1    -498    -59   -139    502    521 263.2 -15.5  34098  288.51 0855.25
2009/04/23 09:46:27.2    -456   -181    -53    491    494 248.3  -6.2  34104  288.62 0855.25
2009/04/23 09:46:27.3    -492    -99   -163    502    528 258.5 -18.0  34090  288.40 0855.25
2009/04/23 09:46:27.4    -508   -124   -170    524    552 256.2 -18.0  34088  288.36 0855.25
2009/04/23 09:46:27.5    -489   -107   -165    501    528 257.6 -18.3  34094  288.45 0855.25
2009/04/23 09:46:27.6    -481   -121   -136    496    515 255.8 -15.4  34096  288.49 0855.25
2009/04/23 09:46:27.7    -439   -108   -161    453    481 256.1 -19.6  34098  288.51 0855.25
2009/04/23 09:46:27.8    -480    -74   -151    486    508 261.2 -22.2  34104  288.61 0855.25
2009/04/23 09:46:27.9    -517   -238   -104    570    580 245.3 -10.4  34100  288.54 0855.25
2009/04/23 09:46:28.0    -443   -198   -150    486    509 245.9 -17.2  34108  288.69 0855.25
2009/04/23 09:46:28.1    -368   -128    -87    390    400 250.7 -12.7  34102  288.59 0855.25
2009/04/23 09:46:28.2    -355   -250    157    435    463 234.8  19.9  34118  288.85 0855.25
2009/04/23 09:46:28.3    -371   -239    120    442    459 237.1  15.2  34116  288.83 0855.25
2009/04/23 09:46:28.4    -315   -229    200    390    438 234.0  29.3  34118  288.85 0855.25
2009/04/23 09:46:28.5    -353   -231     20    423    424 236.8   2.8  34120  288.89 0855.25
2009/04/23 09:46:28.6    -278   -236     34    365    367 229.7   5.4  34116  288.82 0855.23
2009/04/23 09:46:28.7    -244   -203     46    318    322 230.2   8.2  34114  288.80 0855.23
2009/04/23 09:46:28.8    -168   -130   -103    213    236 232.2 -32.2  34098  288.52 0855.23
2009/04/23 09:46:28.9    -232   -104    -46    255    260 245.8 -10.4  34102  288.58 0855.23
2009/04/23 09:46:29.0    -214   -176    -45    278    282 230.5  -9.3  34104  288.63 0855.23
2009/04/23 09:46:29.1    -375   -203    -76    427    434 241.6 -10.1  34112  288.77 0855.23
2009/04/23 09:46:29.2    -375   -272   -103    464    476 234.0 -12.6  34112  288.76 0855.23
2009/04/23 09:46:29.3    -456   -236   -108    514    526 242.6 -11.9  34104  288.62 0855.23
2009/04/23 09:46:29.4    -451   -122   -160    468    495 254.8 -18.9  34100  288.57 0855.23
2009/04/23 09:46:29.5    -347   -152    -77    380    389 246.3 -11.6  34106  288.66 0855.23
2009/04/23 09:46:29.6    -367   -263    -57    452    456 234.4  -7.2  34120  288.90 0855.23
2009/04/23 09:46:29.7    -266   -253    -68    368    375 226.5 -10.5  34110  288.74 0855.23
2009/04/23 09:46:29.8    -173   -250    -97    305    320 214.7 -22.8  34104  288.61 0855.23
2009/04/23 09:46:29.9    -103   -224   -109    247    269 204.7 -29.7  34104  288.61 0855.23
2009/04/23 09:46:30.0      -4   -112    -73    113    134 182.2 -40.0  34112  288.75 0855.23
2009/04/23 09:46:30.1    -160    -72    -94    176    199 245.8 -35.0  34110  288.72 0855.23
2009/04/23 09:46:30.2    -169   -190    -66    255    264 221.7 -14.5  34112  288.75 0855.23
2009/04/23 09:46:30.3    -151   -236     44    281    285 212.7   9.0  34112  288.75 0855.23
2009/04/23 09:46:30.4    -165   -235      4    288    289 215.0   0.8  34108  288.68 0855.23
2009/04/23 09:46:30.5    -192   -235      4    304    305 219.2   0.8  34112  288.76 0855.23
2009/04/23 09:46:30.6    -251   -261     87    363    374 223.9  13.6  34110  288.74 0855.25
2009/04/23 09:46:30.7    -283   -221     -3    360    361 232.0  -0.6  34120  288.91 0855.25
2009/04/23 09:46:30.8    -199   -301   -106    362    377 213.5 -21.2  34112  288.76 0855.25
2009/04/23 09:46:30.9    -387   -253   -109    463    476 236.8 -13.3  34104  288.62 0855.25
2009/04/23 09:46:31.0    -310   -340    122    461    478 222.4  14.9  34114  288.79 0855.25
2009/04/23 09:46:31.1    -327   -237    140    405    429 234.0  19.2  34118  288.85 0855.25
2009/04/23 09:46:31.2    -324   -213     40    388    391 236.7   5.9  34124  288.96 0855.25
2009/04/23 09:46:31.3    -289   -193     81    348    358 236.3  13.2  34122  288.94 0855.25
2009/04/23 09:46:31.4    -233   -192     12    302    303 230.5   2.3  34130  289.07 0855.25
2009/04/23 09:46:31.5    -282   -280    -45    398    401 225.2  -6.5  34110  288.74 0855.25
2009/04/23 09:46:31.6    -291   -273     -8    400    401 226.9  -1.3  34114  288.79 0855.25
2009/04/23 09:46:31.7    -325   -243    -29    407    408 233.2  -4.1  34110  288.73 0855.25
2009/04/23 09:46:31.8    -329   -193    111    382    398 239.5  16.3  34104  288.62 0855.25
2009/04/23 09:46:31.9    -226   -220     88    316    329 225.7  15.7  34106  288.65 0855.25
2009/04/23 09:46:32.0    -220   -329    189    397    439 213.8  27.3  34108  288.68 0855.25
2009/04/23 09:46:32.1    -178   -340    175    384    421 207.7  26.3  34112  288.75 0855.25
2009/04/23 09:46:32.2    -231   -258     62    347    353 221.9  10.2  34124  288.96 0855.25
2009/04/23 09:46:32.3    -312   -349     -5    469    470 221.8  -0.7  34124  288.95 0855.25
2009/04/23 09:46:32.4    -320   -321      5    454    455 224.9   0.7  34126  288.99 0855.25
2009/04/23 09:46:32.5    -291   -274      4    400    401 226.7   0.7  34136  289.16 0855.25
2009/04/23 09:46:32.6    -278   -218    -78    354    363 231.9 -12.5  34130  289.08 0855.27
2009/04/23 09:46:32.7    -236   -164    -90    288    302 235.1 -17.5  34126  289.00 0855.27
2009/04/23 09:46:32.8    -206   -181    -82    275    286 228.7 -21.7  34130  289.07 0855.27
2009/04/23 09:46:32.9    -167   -177   -126    244    274 223.2 -33.7  34116  288.83 0855.27
2009/04/23 09:46:33.0    -434   -192     66    475    480 246.1   8.0  34130  289.06 0855.27
2009/04/23 09:46:33.1    -425    -88    -38    435    437 258.2  -5.1  34150  289.39 0855.27
2009/04/23 09:46:33.2    -389   -108   -160    404    434 254.4 -27.3  34118  288.85 0855.27
2009/04/23 09:46:33.3    -375   -154   -165    406    438 247.6 -27.6  34118  288.85 0855.27
2009/04/23 09:46:33.4    -390   -225   -130    451    469 240.0 -20.9  34136  289.17 0855.27
2009/04/23 09:46:33.5    -415   -134   -170    437    468 252.1 -26.7  34126  289.00 0855.27
2009/04/23 09:46:33.6    -485   -111   -137    498    517 257.1 -15.4  34142  289.27 0855.27
2009/04/23 09:46:33.7    -487    -93   -157    496    521 259.1 -17.6  34142  289.27 0855.27
2009/04/23 09:46:33.8    -483    -98   -170    494    523 258.4 -19.1  34116  288.84 0855.27
2009/04/23 09:46:33.9    -438    -41   -220    441    492 264.6 -32.9  34120  288.90 0855.27
2009/04/23 09:46:34.0    -477   -127   -182    494    526 255.1 -25.4  34116  288.83 0855.27
2009/04/23 09:46:34.1    -520    -31   -232    521    570 266.5 -30.0  34110  288.72 0855.27
2009/04/23 09:46:34.2    -440    -17   -289    441    527 267.7 -40.8  34114  288.79 0855.27
2009/04/23 09:46:34.3    -350    -11   -219    351    413 268.1 -39.4  34120  288.91 0855.27
2009/04/23 09:46:34.4    -157    238    -89    286    299 326.6 -22.3  34126  288.98 0855.27
2009/04/23 09:46:34.5    -208     16   -134    209    248 274.6 -40.0  34128  289.02 0855.27
2009/04/23 09:46:34.6    -180     97   -117    205    236 298.4 -36.8  34142  289.26 0855.28
2009/04/23 09:46:34.7    -307    -95    -94    322    336 252.8 -16.4  34128  289.04 0855.28
2009/04/23 09:46:34.8    -346   -106   -103    363    377 252.9 -20.5  34142  289.25 0855.28
2009/04/23 09:46:34.9    -215     -5      2    216    217 268.5   0.7  34136  289.18 0855.28
2009/04/23 09:46:35.0    -221    -70     78    232    245 252.3  18.6  34130  289.05 0855.28
2009/04/23 09:46:35.1    -252     11     -9    253    254 272.6  -2.2  34144  289.29 0855.28
2009/04/23 09:46:35.2    -184      4     -4    185    186 271.5  -1.3  34126  288.99 0855.28
2009/04/23 09:46:35.3    -146   -114     65    186    198 232.2  19.2  34136  289.18 0855.28
2009/04/23 09:46:35.4    -222    -65     45    232    237 253.6  11.1  34146  289.34 0855.28
2009/04/23 09:46:35.5    -170    -87    -34    192    196 242.9 -10.3  34126  289.01 0855.28
2009/04/23 09:46:35.6    -137    -10   -129    138    188 265.7 -52.4  34120  288.91 0855.28
2009/04/23 09:46:35.7     -94    -19    -84     96    127 258.6 -50.2  34122  288.92 0855.28
2009/04/23 09:46:35.8     -65    -14    -77     67    102 257.6 -58.7  34118  288.86 0855.28
2009/04/23 09:46:35.9     -13    -69    -25     71     76 190.7 -19.7  34126  288.99 0855.28
2009/04/23 09:46:36.0     -78   -125     50    148    157 212.1  18.6  34124  288.96 0855.28
2009/04/23 09:46:36.1     -45   -122     47    131    139 200.5  20.4  34118  288.87 0855.28
2009/04/23 09:46:36.2     -16    -99    105    101    145 189.3  51.2  34118  288.87 0855.28
2009/04/23 09:46:36.3    -149   -106     51    183    191 234.5  15.8  34140  289.23 0855.28
2009/04/23 09:46:36.4     -21    -46    127     51    136 205.5  77.1  34146  289.33 0855.28
2009/04/23 09:46:36.5     -34   -190    106    194    221 190.2  31.3  34120  288.91 0855.28
2009/04/23 09:46:36.6    -172   -236    100    293    310 216.1  18.9  34126  288.98 0855.29
2009/04/23 09:46:36.7    -215   -178    128    280    307 230.4  26.4  34130  289.05 0855.29
2009/04/23 09:46:36.8    -302   -235     86    383    393 232.2  12.8  34138  289.20 0855.29
2009/04/23 09:46:36.9    -118   -186     85    221    236 212.5  22.1  34130  289.06 0855.29
2009/04/23 09:46:37.0     -85   -249     53    264    270 198.9  11.4  34126  288.98 0855.29
2009/04/23 09:46:37.1    -114   -217     48    246    251 207.6  11.1  34130  289.07 0855.29
2009/04/23 09:46:37.2    -136   -246    185    282    337 209.0  36.4  34132  289.10 0855.29
2009/04/23 09:46:37.3     -81   -282    106    294    313 196.0  19.9  34122  288.92 0855.29
2009/04/23 09:46:37.4    -200   -286     19    350    351 215.0   3.2  34126  288.98 0855.29
2009/04/23 09:46:37.5    -132   -277   -114    307    327 205.5 -25.7  34132  289.10 0855.29
2009/04/23 09:46:37.6     -10   -346    145    347    376 181.8  23.9  34100  288.57 0855.30
2009/04/23 09:46:37.7      10   -140    198    141    243 175.5  61.3  34122  288.92 0855.30
2009/04/23 09:46:37.8      15   -196    249    197    317 175.6  57.8  34124  288.95 0855.30
2009/04/23 09:46:37.9    -113   -237    159    263    307 205.5  34.2  34140  289.22 0855.30
2009/04/23 09:46:38.0     -69   -224     89    235    251 197.2  21.7  34128  289.03 0855.30
2009/04/23 09:46:38.1     -82   -205     71    221    233 201.9  17.9  34136  289.18 0855.30
2009/04/23 09:46:38.2      49   -241     12    247    248 168.4   2.9  34130  289.07 0855.30
2009/04/23 09:46:38.3      25   -168    127    170    212 171.5  40.4  34122  288.92 0855.30
2009/04/23 09:46:38.4     158   -103    174    189    256 123.1  47.7  34124  288.95 0855.30
2009/04/23 09:46:38.5      18      0    138     19    139  90.0  90.0  34128  289.04 0855.30
2009/04/23 09:46:38.6      31   -114    169    119    206 164.9  61.5  34124  288.97 0855.30
2009/04/23 09:46:38.7      13    -54    145     56    155 165.7  78.6  34128  289.02 0855.30
2009/04/23 09:46:38.8     168   -166    210    237    316 134.7  46.2  34122  288.93 0855.30
2009/04/23 09:46:38.9      79   -109    147    135    199 143.9  52.7  34122  288.92 0855.30
2009/04/23 09:46:39.0     -81   -212    173    227    285 200.9  41.6  34134  289.12 0855.30
2009/04/23 09:46:39.1     -32   -176    197    179    266 190.5  53.2  34132  289.09 0855.30
2009/04/23 09:46:39.2    -141   -276    154    310    346 207.1  28.4  34142  289.25 0855.30
2009/04/23 09:46:39.3    -134   -303    215    332    395 203.8  36.0  34142  289.28 0855.30
2009/04/23 09:46:39.4    -103   -369    195    384    430 195.7  29.2  34134  289.14 0855.30
2009/04/23 09:46:39.5    -109   -335    255    353    435 198.0  39.5  34136  289.16 0855.30
2009/04/23 09:46:39.6     -65   -389    182    395    434 189.6  26.4  34140  289.24 0855.30
2009/04/23 09:46:39.7    -162   -479     89    506    514 198.7  10.0  34142  289.27 0855.30
2009/04/23 09:46:39.8     -83   -361    116    371    389 193.0  17.4  34130  289.06 0855.30
2009/04/23 09:46:39.9     -73   -375     76    383    391 191.1  11.3  34142  289.28 0855.30
2009/04/23 09:46:40.0    -127   -249     24    280    282 207.2   5.0  34166  289.66 0855.30
2009/04/23 09:46:40.1    -144   -254     57    293    299 209.6  11.1  34174  289.80 0855.30
2009/04/23 09:46:40.2    -167   -217     85    275    289 217.6  17.3  34180  289.90 0855.30
2009/04/23 09:46:40.3    -162   -190     91    250    266 220.5  20.7  34172  289.76 0855.30
2009/04/23 09:46:40.4    -123   -148     67    193    205 219.6  19.2  34166  289.67 0855.30
2009/04/23 09:46:40.5    -137    -55      7    148    149 247.8   2.8  34164  289.63 0855.30
2009/04/23 09:46:40.6     -78    -60     61     99    116 232.2  35.5  34174  289.80 0855.30
2009/04/23 09:46:40.7     -78      5    125     79    147 274.3  64.7  34162  289.62 0855.30
2009/04/23 09:46:40.8    -123    -40    133    130    185 251.8  50.7  34170  289.75 0855.30
2009/04/23 09:46:40.9    -129     27     86    132    157 281.9  36.3  34170  289.74 0855.30
2009/04/23 09:46:41.0    -158     79     -9    177    178 296.6  -3.1  34170  289.75 0855.30
2009/04/23 09:46:41.1     -83     30     -8     89     90 290.0  -5.6  34166  289.67 0855.30
2009/04/23 09:46:41.2     -28     16    113     33    117 300.7  82.8  34168  289.70 0855.30
2009/04/23 09:46:41.3     -61     96     70    115    134 327.5  35.0  34168  289.72 0855.30
2009/04/23 09:46:41.4     -18     75     70     78    104 346.6  46.9  34164  289.65 0855.30
2009/04/23 09:46:41.5     -58     -9     74     59     94 261.2  57.5  34164  289.65 0855.30
2009/04/23 09:46:41.6     -93     87     84    128    153 313.2  35.6  34160  289.57 0855.30
2009/04/23 09:46:41.7     -91     17    102     93    138 281.0  52.2  34162  289.62 0855.30
2009/04/23 09:46:41.8    -113     39     68    120    137 289.1  31.9  34162  289.62 0855.30
2009/04/23 09:46:41.9     -93     77     14    121    122 309.6   6.9  34156  289.50 0855.30
2009/04/23 09:46:42.0    -123    122     33    174    178 314.8  10.8  34156  289.50 0855.30
2009/04/23 09:46:42.1    -107    114     -4    157    158 316.8  -1.6  34166  289.67 0855.30
2009/04/23 09:46:42.2    -127     58     32    140    144 294.8  13.1  34172  289.79 0855.30
2009/04/23 09:46:42.3     -85     57     44    103    112 303.7  24.1  34160  289.58 0855.30
2009/04/23 09:46:42.4     -71     24      2     76     77 289.1   1.8  34172  289.79 0855.30
2009/04/23 09:46:42.5     -84    -34    -42     91    100 247.4 -31.0  34172  289.79 0855.30
2009/04/23 09:46:42.6     -85     -8     15     86     88 264.3  10.1  34174  289.82 0855.30
2009/04/23 09:46:42.7    -141   -107     45    178    184 232.9  14.3  34148  289.36 0855.30
2009/04/23 09:46:42.8    -133   -128      5    185    186 226.0   1.6  34142  289.26 0855.30
2009/04/23 09:46:42.9    -160   -146     22    217    219 227.6   5.9  34134  289.13 0855.30
2009/04/23 09:46:43.0    -139   -167    -14    218    219 219.6  -3.9  34134  289.13 0855.30
2009/04/23 09:46:43.1    -254   -136    -31    289    291 241.8  -6.2  34178  289.86 0855.30
2009/04/23 09:46:43.2    -201   -202    -43    286    290 224.9  -8.6  34150  289.39 0855.30
2009/04/23 09:46:43.3    -185   -122    -10    222    223 236.5  -2.6  34194  290.16 0855.30
2009/04/23 09:46:43.4     -87   -119     33    148    152 216.1  12.6  34172  289.77 0855.30
2009/04/23 09:46:43.5    -142    -10    -68    143    158 265.6 -31.4  34186  290.01 0855.30
2009/04/23 09:46:43.6    -123    -11    -11    124    125 264.8  -5.2  34218  290.55 0855.30
2009/04/23 09:46:43.7    -113    -42     13    121    122 249.2   6.5  34208  290.40 0855.30
2009/04/23 09:46:43.8    -115    -45      9    124    125 248.3   4.4  34204  290.31 0855.30
2009/04/23 09:46:43.9     -86    -27     42     91    100 252.3  26.6  34202  290.28 0855.30
2009/04/23 09:46:44.0    -111    -37     27    118    122 251.4  13.2  34206  290.35 0855.30
2009/04/23 09:46:44.1    -107    -30      5    112    113 254.1   2.9  34204  290.33 0855.30
2009/04/23 09:46:44.2    -118    -33     31    123    127 254.1  14.3  34192  290.13 0855.30
2009/04/23 09:46:44.3    -122    -67     27    140    143 241.1  11.0  34166  289.69 0855.30
2009/04/23 09:46:44.4     -81    -86     14    119    120 223.3   6.9  34164  289.65 0855.30
2009/04/23 09:46:44.5     -78    -64     30    102    107 230.5  16.8  34156  289.52 0855.30
2009/04/23 09:46:44.6     -67    -67     48     95    106 225.0  28.7  34160  289.58 0855.30
2009/04/23 09:46:44.7    -102    -65     43    122    130 237.5  19.4  34166  289.67 0855.30
2009/04/23 09:46:44.8    -118    -78     27    142    145 236.3  11.1  34172  289.79 0855.30
2009/04/23 09:46:44.9    -135    -67     21    151    153 243.4   8.0  34180  289.91 0855.30
2009/04/23 09:46:45.0    -180     19     62    182    193 276.1  18.9  34182  289.94 0855.30
2009/04/23 09:46:45.1    -175     19     39    177    182 276.4  12.4  34184  289.97 0855.30
2009/04/23 09:46:45.2    -155     21     62    157    168 278.0  22.5  34192  290.13 0855.30
2009/04/23 09:46:45.3    -145     -6     34    146    150 267.4  13.2  34180  289.92 0855.30
2009/04/23 09:46:45.4    -130     35     31    135    139 285.1  13.2  34178  289.89 0855.30
2009/04/23 09:46:45.5    -116     23     80    119    143 281.5  37.0  34168  289.72 0855.30
2009/04/23 09:46:45.6    -134     -6     82    135    157 267.4  34.2  34160  289.58 0855.29
2009/04/23 09:46:45.7    -136     14     48    137    146 276.1  19.4  34156  289.50 0855.29
2009/04/23 09:46:45.9    -134     29      7    138    139 282.4   2.9  34160  289.57 0855.29
2009/04/23 09:46:46.0    -136     77     35    157    161 299.8  12.6  34182  289.96 0855.29
2009/04/23 09:46:46.0     -99     87     59    132    144 311.3  25.7  34206  290.35 0855.29
2009/04/23 09:46:46.1    -103     91     55    138    148 311.3  23.0  34210  290.41 0855.29
2009/04/23 09:46:46.2    -114     75     35    137    142 303.3  14.3  34202  290.30 0855.29
2009/04/23 09:46:46.3    -114    108     59    158    168 313.6  21.3  34206  290.35 0855.29
2009/04/23 09:46:46.4    -109    137     86    176    195 321.5  28.0  34210  290.43 0855.29
2009/04/23 09:46:46.6    -120    121     72    171    185 315.1  23.8  34214  290.48 0855.29
2009/04/23 09:46:46.7    -125    133     63    183    194 316.8  19.2  34212  290.47 0855.29
2009/04/23 09:46:46.8    -117    183     73    218    231 327.5  18.6  34232  290.81 0855.29
2009/04/23 09:46:46.9    -150    125     38    196    200 309.8  11.1  34230  290.75 0855.29
2009/04/23 09:46:47.0    -138    113     38    179    184 309.5  12.0  34242  290.96 0855.29
2009/04/23 09:46:47.1    -261    144    -14    299    300 298.9  -2.8  34142  289.25 0855.29
2009/04/23 09:46:47.2    -196    144    -31    244    247 306.2  -7.3  34130  289.05 0855.29
2009/04/23 09:46:47.3    -137     81    -47    160    167 300.7 -16.6  34140  289.23 0855.29
2009/04/23 09:46:47.4     -62     75    -53     98    111 320.4 -35.2  34152  289.45 0855.29
2009/04/23 09:46:47.5      83    136    -45    160    166  31.6 -20.4  34162  289.60 0855.29
2009/04/23 09:46:47.6     153    110     34    189    193  54.3  10.3  34166  289.67 0855.29
2009/04/23 09:46:47.7     173    103    133    202    241  59.3  36.5  34188  290.06 0855.29
2009/04/23 09:46:47.8      36    238    158    241    288   8.7  36.3  34188  290.05 0855.29
2009/04/23 09:46:47.9     159    300    164    340    377  28.0  27.4  34194  290.16 0855.29
2009/04/23 09:46:48.0     123    292    185    318    367  22.9  32.9  34188  290.03 0855.29
2009/04/23 09:46:48.1     -85    178    156    198    252 334.5  42.4  34204  290.32 0855.29
2009/04/23 09:46:48.2    -122    132    142    180    229 317.2  42.4  34204  290.33 0855.29
2009/04/23 09:46:48.3    -110    166    132    200    239 326.4  36.5  34216  290.52 0855.29
2009/04/23 09:46:48.4     -20     90    109     93    143 347.1  54.8  34210  290.43 0855.29
2009/04/23 09:46:48.5     -62     78     76    100    125 321.3  41.2  34216  290.52 0855.29
2009/04/23 09:46:48.6    -156     21     -3    158    159 277.9  -1.1  34216  290.52 0855.29
2009/04/23 09:46:48.7    -174     82     61    193    203 295.2  17.7  34230  290.77 0855.29
2009/04/23 09:46:48.8    -106    120     86    161    182 318.5  30.6  34222  290.62 0855.29
2009/04/23 09:46:48.9    -225     75     95    238    256 288.6  23.0  34244  290.99 0855.29
2009/04/23 09:46:49.0    -290     42     69    294    302 278.4  13.2  34256  291.19 0855.29
2009/04/23 09:46:49.1    -251     96    108    269    289 291.1  23.0  34244  291.00 0855.29
2009/04/23 09:46:49.2    -187     67    111    199    227 290.0  31.4  34236  290.87 0855.29
2009/04/23 09:46:49.3    -153    106    126    187    225 304.6  37.3  34194  290.16 0855.29
2009/04/23 09:46:49.4    -170    134    142    217    259 308.2  36.3  34192  290.12 0855.29
2009/04/23 09:46:49.5    -144    -48    174    152    231 251.4  54.3  34212  290.47 0855.29
2009/04/23 09:46:49.6    -264    -77     98    276    294 253.6  19.6  34238  290.90 0855.29
2009/04/23 09:46:49.7    -123     82    145    148    207 303.7  49.8  34180  289.91 0855.29
2009/04/23 09:46:49.8    -115    101    115    154    192 311.3  40.4  34172  289.79 0855.29
2009/04/23 09:46:49.9    -206     11    141    207    250 273.3  37.4  34192  290.12 0855.29
2009/04/23 09:46:50.0    -253   -124     15    282    283 243.8   3.1  34152  289.42 0855.29
2009/04/23 09:46:50.1    -296   -214     76    366    374 234.1  11.8  34152  289.42 0855.29
2009/04/23 09:46:50.2    -323   -171    125    366    387 242.0  18.9  34158  289.55 0855.29
2009/04/23 09:46:50.3    -268   -147     13    306    307 241.1   2.5  34132  289.10 0855.29
2009/04/23 09:46:50.4    -229   -148    -86    273    287 237.1 -17.6  34116  288.81 0855.29
2009/04/23 09:46:50.5    -170   -161    -80    235    249 226.7 -18.9  34122  288.93 0855.29
2009/04/23 09:46:50.6    -147   -253    -23    293    294 210.1  -4.6  34156  289.49 0855.29
2009/04/23 09:46:50.7    -155   -213     97    264    281 216.0  20.9  34178  289.88 0855.29
2009/04/23 09:46:50.8    -130   -233    144    267    303 209.2  30.6  34190  290.09 0855.29
2009/04/23 09:46:50.9    -111   -234    145    260    297 205.5  31.4  34204  290.32 0855.29
2009/04/23 09:46:51.0    -136   -192    117    236    263 215.2  28.2  34184  289.98 0855.29
2009/04/23 09:46:51.1    -116   -142    184    184    260 219.2  50.1  34200  290.24 0855.29
2009/04/23 09:46:51.2     -43     -9    171     45    176 257.6  85.2  34178  289.87 0855.29
2009/04/23 09:46:51.3     -86    147     83    171    190 329.7  27.4  34182  289.96 0855.29
2009/04/23 09:46:51.4     -54    187    128    195    233 343.7  35.7  34188  290.04 0855.29
2009/04/23 09:46:51.5     -49    234    107    240    262 348.0  25.3  34190  290.07 0855.29
2009/04/23 09:46:51.6    -105    277     89    297    311 339.1  16.7  34188  290.05 0855.29
2009/04/23 09:46:51.7    -133    240     85    275    288 331.0  17.3  34182  289.95 0855.28
2009/04/23 09:46:51.8    -127    232     33    265    268 331.3   7.2  34180  289.90 0855.28
2009/04/23 09:46:51.9     -60    224     -6    233    234 344.9  -1.6  34200  290.24 0855.28
2009/04/23 09:46:52.0    -114    239    -67    265    274 334.5 -14.3  34198  290.22 0855.28
2009/04/23 09:46:52.1     -82    237    -28    251    253 340.8  -6.5  34198  290.20 0855.28
2009/04/23 09:46:52.2    -101    275    -39    294    297 339.7  -7.7  34194  290.15 0855.28
2009/04/23 09:46:52.3     -63    264    -14    272    273 346.4  -3.1  34170  289.75 0855.28
2009/04/23 09:46:52.4     -16    252     36    253    256 356.2   8.2  34144  289.29 0855.28
2009/04/23 09:46:52.5     -30    234     36    236    239 352.7   8.8  34142  289.25 0855.28
2009/04/23 09:46:52.6     -42    163     19    169    171 345.3   6.7  34142  289.26 0855.28
2009/04/23 09:46:52.7     -24    166     33    168    172 351.5  11.1  34128  289.04 0855.28
2009/04/23 09:46:52.8     -30    151     68    155    169 348.5  25.3  34126  289.01 0855.28
2009/04/23 09:46:52.9     -42    105     81    114    139 338.2  39.5  34140  289.24 0855.28
2009/04/23 09:46:53.0     -25     55     99     61    116 335.5  64.7  34160  289.58 0855.28
2009/04/23 09:46:53.1     -27     68     68     74    100 338.2  47.9  34158  289.55 0855.28
2009/04/23 09:46:53.2      24      0    106     25    108  90.8  87.5  34172  289.79 0855.28
2009/04/23 09:46:53.3       2     33     78     34     85   4.5  75.0  34182  289.94 0855.28
2009/04/23 09:46:53.4      97    -19    111     99    148 101.4  53.7  34166  289.69 0855.28
2009/04/23 09:46:53.5     136    -45     95    144    172 108.6  36.3  34164  289.63 0855.28
2009/04/23 09:46:53.6      77    -59     56     98    112 127.3  32.4  34164  289.65 0855.28
2009/04/23 09:46:53.7     140     -6     41    141    147  92.6  16.3  34166  289.69 0855.29
2009/04/23 09:46:53.8     171     34     45    175    181  78.6  14.5  34176  289.85 0855.29
2009/04/23 09:46:53.9     131     67     59    148    159  62.9  22.8  34182  289.94 0855.29
2009/04/23 09:46:54.0     119     32    103    124    161  74.9  44.1  34182  289.94 0855.29
2009/04/23 09:46:54.1      80     19    119     83    145  76.7  62.1  34186  290.02 0855.29
2009/04/23 09:46:54.2      47     57     82     75    111  39.7  52.7  34188  290.06 0855.29
2009/04/23 09:46:54.3      86    112     52    142    151  37.8  21.0  34180  289.92 0855.29
2009/04/23 09:46:54.4      79    168    -12    186    187  25.3  -3.7  34170  289.74 0855.29
2009/04/23 09:46:54.5      69    160     29    175    178  23.4   9.5  34172  289.77 0855.29
2009/04/23 09:46:54.6      74    145     72    164    179  27.2  25.3  34170  289.74 0855.29
2009/04/23 09:46:54.7     102     86     76    134    154  50.0  32.4  34180  289.92 0855.29
2009/04/23 09:46:54.8     133     88     61    160    171  56.3  21.7  34176  289.84 0855.29
2009/04/23 09:46:54.9     126     42     95    133    163  71.6  39.1  34172  289.79 0855.29
2009/04/23 09:46:55.0     113     45     93    122    153  68.3  41.2  34174  289.82 0855.29
2009/04/23 09:46:55.1      70     44    110     83    137  57.6  59.0  34178  289.89 0855.29
2009/04/23 09:46:55.2     117     85    113    145    183  54.0  42.0  34168  289.72 0855.29
2009/04/23 09:46:55.3     110     90     63    143    156  50.5  25.2  34162  289.60 0855.29
2009/04/23 09:46:55.4     104     75     69    129    146  54.1  30.8  34160  289.58 0855.29
2009/04/23 09:46:55.5     127     82     62    152    164  57.1  23.4  34174  289.82 0855.29
2009/04/23 09:46:55.6     157     97     69    185    197  58.2  21.3  34174  289.80 0855.29
2009/04/23 09:46:55.7     144     64    140    158    211  66.0  46.2  34188  290.06 0855.28
2009/04/23 09:46:55.8     102     20    162    105    193  78.5  64.6  34184  289.99 0855.28
2009/04/23 09:46:55.9      26     69     98     74    122  20.9  59.0  34180  289.92 0855.28
2009/04/23 09:46:56.0     144    145    137    205    246  44.9  36.7  34254  291.16 0855.28
2009/04/23 09:46:56.1     123    131    169    180    246  43.2  48.0  34260  291.26 0855.28
2009/04/23 09:46:56.2     160     47     40    167    172  73.4  13.5  34222  290.62 0855.28
2009/04/23 09:46:56.3     101     64     79    120    143  57.6  36.0  34204  290.31 0855.28
2009/04/23 09:46:56.4      42    118    103    126    162  20.0  43.5  34228  290.74 0855.28
2009/04/23 09:46:56.5      78    106    150    132    199  36.5  54.2  34212  290.45 0855.28
2009/04/23 09:46:56.6     -21    154    110    156    190 351.9  38.8  34204  290.33 0855.28
2009/04/23 09:46:56.7    -117    184    166    219    274 327.4  41.2  34222  290.63 0855.28
2009/04/23 09:46:56.8     -26     90    125     94    156 343.5  59.4  34180  289.92 0855.28
2009/04/23 09:46:56.9     212     16    206    213    296  85.7  49.0  34176  289.83 0855.28
2009/04/23 09:46:57.0     113     60    196    128    234  62.0  64.4  34172  289.79 0855.28
2009/04/23 09:46:57.1     -43      9    127     45    134 282.4  80.7  34170  289.75 0855.28
2009/04/23 09:46:57.2     -60    -29    210     67    220 243.8  81.6  34172  289.79 0855.28
2009/04/23 09:46:57.3     176     13    222    177    283  85.6  57.5  34174  289.81 0855.28
2009/04/23 09:46:57.4      66    100    228    120    257  33.4  69.9  34182  289.94 0855.28
2009/04/23 09:46:57.5     -61     59    157     85    178 314.0  69.1  34180  289.92 0855.28
2009/04/23 09:46:57.6     -46   -127    212    136    251 200.0  64.6  34174  289.82 0855.28
2009/04/23 09:46:57.7    -158   -157    119    223    252 225.2  30.3  34170  289.75 0855.28
2009/04/23 09:46:57.8    -155   -156     90    220    237 224.8  23.6  34162  289.61 0855.28
2009/04/23 09:46:57.9    -248   -147    103    289    306 239.3  20.2  34164  289.64 0855.28
2009/04/23 09:46:58.0      84   -164    122    185    221 152.8  36.3  34164  289.63 0855.28
2009/04/23 09:46:58.1      64   -336     82    343    353 169.2  13.5  34164  289.64 0855.28
2009/04/23 09:46:58.2      19   -344     95    345    358 176.8  15.4  34170  289.74 0855.28
2009/04/23 09:46:58.3     -25   -340    149    341    372 184.2  25.1  34182  289.96 0855.28
2009/04/23 09:46:58.4     -11   -397    166    398    431 181.6  24.1  34222  290.61 0855.28
2009/04/23 09:46:58.5     -63   -368    273    374    463 189.7  39.7  34220  290.60 0855.28
2009/04/23 09:46:58.6     -49   -358    215    362    421 187.9  33.5  34210  290.43 0855.28
2009/04/23 09:46:58.7     -64   -373    195    379    426 189.8  29.3  34176  289.85 0855.29
2009/04/23 09:46:58.8     -28   -242    251    244    350 186.7  50.8  34170  289.73 0855.29
2009/04/23 09:46:58.9     -46   -331    220    335    400 188.0  36.4  34182  289.93 0855.29
2009/04/23 09:46:59.0     -78   -236    255    249    356 198.5  50.7  34200  290.26 0855.29
2009/04/23 09:46:59.1     -10   -242    259    243    355 182.5  52.1  34170  289.75 0855.29
2009/04/23 09:46:59.2       4   -196    247    197    315 178.6  57.6  34162  289.59 0855.29
2009/04/23 09:46:59.3      13   -180    244    181    303 175.6  60.0  34160  289.58 0855.29
2009/04/23 09:46:59.4     -21   -198    229    200    304 186.2  54.3  34156  289.51 0855.29
2009/04/23 09:46:59.5      10   -136    228    137    265 175.6  66.2  34168  289.70 0855.29
2009/04/23 09:46:59.6     -24   -136    214    139    255 190.2  64.1  34166  289.69 0855.29
2009/04/23 09:46:59.7     -22   -175    232    177    291 187.3  59.0  34170  289.73 0855.29
2009/04/23 09:46:59.8      -9   -199    237    200    310 182.7  55.8  34162  289.61 0855.29
2009/04/23 09:46:59.9     -12   -208    267    209    339 183.4  58.0  34164  289.64 0855.29
2009/04/23 09:47:00.0     -22   -292    244    293    381 184.5  43.8  34158  289.54 0855.29
2009/04/23 09:47:00.1     -24   -291    271    293    399 184.9  47.7  34168  289.71 0855.29
2009/04/23 09:47:00.2     -31   -251    235    253    345 187.1  47.8  34174  289.80 0855.29
2009/04/23 09:47:00.3     -41   -330    295    333    444 187.2  46.1  34158  289.53 0855.29
2009/04/23 09:47:00.4     -67   -429    261    435    507 188.9  33.8  34188  290.05 0855.29
2009/04/23 09:47:00.5     -81   -469    298    477    562 189.8  35.0  34174  289.82 0855.29
2009/04/23 09:47:00.6     -85   -371    228    381    444 193.0  33.6  34172  289.77 0855.29
2009/04/23 09:47:00.7      12   -358    229    359    425 178.0  35.6  34158  289.55 0855.31
2009/04/23 09:47:00.8    -236   -441    107    501    513 208.2  12.1  34198  290.20 0855.31
2009/04/23 09:47:00.9    -111   -333    173    352    392 198.5  28.2  34162  289.59 0855.31
2009/04/23 09:47:01.0    -128   -377    181    399    438 198.8  26.2  34152  289.43 0855.31
2009/04/23 09:47:01.1    -105   -336    103    353    368 197.4  16.3  34164  289.64 0855.31
2009/04/23 09:47:01.2    -134   -284    124    315    338 205.3  22.7  34188  290.03 0855.31
2009/04/23 09:47:01.3    -240   -287    129    375    397 219.9  19.1  34182  289.94 0855.31
2009/04/23 09:47:01.4    -293   -291      0    414    415 225.2   0.1  34188  290.04 0855.31
2009/04/23 09:47:01.5    -299   -281    -16    411    412 226.8  -2.3  34186  290.00 0855.31
2009/04/23 09:47:01.6    -190   -345      4    394    395 208.9   0.7  34148  289.38 0855.31
2009/04/23 09:47:01.7    -126   -228     95    261    277 209.0  21.0  34146  289.32 0855.31
2009/04/23 09:47:01.8    -127   -231    130    264    294 208.9  28.2  34146  289.34 0855.31
2009/04/23 09:47:01.9    -120   -163    204    203    287 216.3  50.1  34152  289.42 0855.31
2009/04/23 09:47:02.0    -228   -150    138    274    306 236.7  28.7  34160  289.56 0855.31
2009/04/23 09:47:02.1    -229   -228    119    324    345 225.1  21.0  34160  289.57 0855.31
2009/04/23 09:47:02.2    -261   -113     61    285    292 246.5  12.1  34152  289.42 0855.31
2009/04/23 09:47:02.3    -215   -162     40    270    274 232.9   8.5  34150  289.39 0855.31
2009/04/23 09:47:02.4     -43   -311     46    315    319 188.0   8.3  34136  289.15 0855.31
2009/04/23 09:47:02.5     -69   -259    232    269    355 195.1  45.4  34140  289.23 0855.31
2009/04/23 09:47:02.6      26   -359    218    360    420 175.8  34.2  34142  289.26 0855.31
2009/04/23 09:47:02.7      90   -296    232    310    387 163.1  40.6  34142  289.25 0855.32
2009/04/23 09:47:02.8      41   -244    238    248    343 170.3  48.8  34142  289.27 0855.32
2009/04/23 09:47:02.9     110   -172    159    205    259 147.5  41.7  34142  289.25 0855.32
2009/04/23 09:47:03.0     139   -199    189    244    308 145.0  41.7  34140  289.24 0855.32
2009/04/23 09:47:03.1     214   -245    160    326    363 138.8  28.0  34126  289.01 0855.32
2009/04/23 09:47:03.2     127   -255     55    286    292 153.5  11.0  34134  289.14 0855.32
2009/04/23 09:47:03.3     230   -201    -19    306    307 131.1  -3.7  34138  289.20 0855.32
2009/04/23 09:47:03.4     171   -272    -12    322    323 147.9  -2.2  34142  289.25 0855.32
2009/04/23 09:47:03.5     121   -190    -67    226    236 147.5 -16.6  34142  289.25 0855.32
2009/04/23 09:47:03.6      76   -248    -79    260    271 162.8 -21.8  34136  289.15 0855.32
2009/04/23 09:47:03.7      91   -218    -65    237    246 157.3 -15.5  34140  289.22 0855.32
2009/04/23 09:47:03.8     228   -257     52    344    348 138.5   8.7  34146  289.33 0855.32
2009/04/23 09:47:03.9     261   -328      2    420    421 141.5   0.4  34132  289.09 0855.32
2009/04/23 09:47:04.0     230   -357     70    425    431 147.2   9.4  34126  288.99 0855.32
2009/04/23 09:47:04.1     173   -348    101    389    402 153.5  14.6  34130  289.06 0855.32
2009/04/23 09:47:04.2     220   -313    -21    383    384 144.9  -3.1  34130  289.06 0855.32
2009/04/23 09:47:04.3      90   -284     14    298    299 162.4   2.8  34134  289.12 0855.32
2009/04/23 09:47:04.4      22   -326     85    327    338 176.1  14.6  34146  289.32 0855.32
2009/04/23 09:47:04.5      43   -303     98    307    323 171.9  17.8  34136  289.15 0855.32
2009/04/23 09:47:04.6      39   -317     99    320    336 172.9  17.3  34138  289.20 0855.32
2009/04/23 09:47:04.7     -63   -384    127    390    411 189.3  18.1  34138  289.21 0855.29
2009/04/23 09:47:04.8    -101   -451    154    463    488 192.7  18.4  34126  288.98 0855.29
2009/04/23 09:47:04.9    -170   -535     55    562    565 197.7   5.7  34136  289.18 0855.29
2009/04/23 09:47:05.0     -43   -599     30    601    602 184.1   2.9  34138  289.19 0855.29
2009/04/23 09:47:05.1       0   -474    -49    475    478 180.0  -5.9  34130  289.06 0855.29
2009/04/23 09:47:05.2      14   -387     19    388    389 177.9   2.9  34134  289.13 0855.29
2009/04/23 09:47:05.3     -91   -413    -94    424    435 192.5 -12.6  34146  289.33 0855.29
2009/04/23 09:47:05.4     -39   -402    -96    404    416 185.6 -13.4  34144  289.29 0855.29
2009/04/23 09:47:05.5     121   -341     56    362    367 160.4   8.8  34138  289.20 0855.29
2009/04/23 09:47:05.6     192   -411     54    454    458 155.0   6.8  34134  289.12 0855.29
2009/04/23 09:47:05.7     139   -478     33    498    500 163.7   3.8  34128  289.03 0855.29
2009/04/23 09:47:05.8     111   -463     48    477    480 166.5   5.8  34126  289.01 0855.29
2009/04/23 09:47:05.9      52   -385    108    389    404 172.3  15.6  34128  289.03 0855.29
2009/04/23 09:47:06.0     -67   -214    144    225    267 197.4  35.6  34136  289.17 0855.29
2009/04/23 09:47:06.1    -232   -315    180    392    431 216.4  26.4  34142  289.27 0855.29
2009/04/23 09:47:06.2    -187   -137   -104    232    254 233.8 -30.3  34134  289.12 0855.29
2009/04/23 09:47:06.3    -221   -208    -55    304    309 226.8 -10.3  34136  289.15 0855.29
2009/04/23 09:47:06.4    -161   -484    106    511    523 198.5  11.8  34120  288.91 0855.29
2009/04/23 09:47:06.5    -160   -519    113    544    556 197.2  11.8  34120  288.91 0855.29
2009/04/23 09:47:06.6     -82   -401    118    410    427 191.7  16.1  34120  288.90 0855.29
2009/04/23 09:47:06.7    -116   -340    113    360    378 198.9  17.5  34120  288.89 0855.29
2009/04/23 09:47:06.8     -87   -364     88    375    386 193.5  13.2  34118  288.86 0855.29
2009/04/23 09:47:06.9      46   -323     77    327    336 171.9  13.3  34126  288.99 0855.29
2009/04/23 09:47:07.0      70   -336    121    344    365 168.1  19.5  34128  289.03 0855.29
2009/04/23 09:47:07.1     116   -260     -1    285    286 155.9  -0.3  34128  289.03 0855.29
2009/04/23 09:47:07.2      51   -353    -21    357    358 171.8  -3.5  34128  289.04 0855.29
2009/04/23 09:47:07.3      18   -323    -45    324    328 176.8  -7.9  34130  289.07 0855.29
2009/04/23 09:47:07.4      21   -336    -66    337    344 176.3 -11.1  34132  289.10 0855.29
2009/04/23 09:47:07.5       0   -372   -108    373    389 179.9 -16.2  34132  289.10 0855.29
2009/04/23 09:47:07.6      50   -323   -125    327    350 171.2 -26.2  34128  289.04 0855.29
2009/04/23 09:47:07.7     121   -321     34    344    346 159.3   5.8  34128  289.04 0855.29
2009/04/23 09:47:07.8     205   -381    -23    433    434 151.7  -3.1  34122  288.92 0855.29
2009/04/23 09:47:07.9     227   -375     28    439    440 148.8   3.7  34118  288.85 0855.29
2009/04/23 09:47:08.0     132   -428    -32    449    451 162.8  -4.1  34122  288.94 0855.29
2009/04/23 09:47:08.1      69   -398      0    405    406 170.1   0.0  34124  288.95 0855.29
2009/04/23 09:47:08.2     157   -355     44    389    392 156.1   6.6  34122  288.94 0855.29
2009/04/23 09:47:08.3      96   -354    129    367    389 164.7  20.1  34122  288.93 0855.29
2009/04/23 09:47:08.4     140   -376     82    402    411 159.5  11.6  34126  288.99 0855.29
2009/04/23 09:47:08.5      -7   -405     -6    406    407 181.0  -0.9  34124  288.97 0855.29
2009/04/23 09:47:08.6     -75   -367    -75    375    383 191.7 -11.3  34126  288.98 0855.29
2009/04/23 09:47:08.7     -50   -309     -3    314    315 189.3  -0.6  34126  289.00 0855.28
2009/04/23 09:47:08.8     -49   -287     46    292    296 189.8   9.0  34124  288.95 0855.28
2009/04/23 09:47:08.9     -18   -236     37    237    240 184.5   9.0  34126  288.98 0855.28
2009/04/23 09:47:09.0     -74   -235    -29    247    249 197.6  -6.7  34122  288.92 0855.28
2009/04/23 09:47:09.1    -158   -198    -81    254    266 218.7 -22.9  34128  289.03 0855.28
2009/04/23 09:47:09.2    -262   -109    -43    284    288 247.4  -8.6  34134  289.12 0855.28
2009/04/23 09:47:09.3    -212    -48     52    218    225 257.2  13.5  34130  289.06 0855.28
2009/04/23 09:47:09.4    -200     14     89    201    219 274.3  25.3  34128  289.04 0855.28
2009/04/23 09:47:09.5    -130    -83     65    155    168 237.5  24.1  34128  289.02 0855.28
2009/04/23 09:47:09.6    -205    -68     59    217    225 251.6  15.3  34128  289.02 0855.28
2009/04/23 09:47:09.7    -205     49     42    211    216 283.7  11.4  34136  289.16 0855.28
2009/04/23 09:47:09.8    -172     43     29    178    181 284.2   9.5  34138  289.21 0855.28
2009/04/23 09:47:09.9    -153    -21    -18    155    157 262.0  -6.7  34128  289.04 0855.28
2009/04/23 09:47:10.0    -174   -109    -70    206    217 237.8 -23.6  34128  289.04 0855.28
2009/04/23 09:47:10.1    -181   -201   -132    271    301 221.9 -31.8  34126  288.98 0855.28
2009/04/23 09:47:10.2    -135   -181   -103    226    248 216.7 -30.6  34122  288.93 0855.28
2009/04/23 09:47:10.3    -121    -94    -19    154    156 232.2  -7.3  34128  289.02 0855.28
2009/04/23 09:47:10.4    -135   -122    -73    183    197 228.0 -27.4  34124  288.96 0855.28
2009/04/23 09:47:10.5    -160   -179    -83    241    254 221.7 -24.3  34128  289.02 0855.28
2009/04/23 09:47:10.6    -218    -68    -41    229    233 252.7 -10.3  34126  288.99 0855.28
2009/04/23 09:47:10.7    -226   -109    -89    252    268 244.2 -19.6  34130  289.07 0855.27
2009/04/23 09:47:10.8    -243    -92    -14    260    261 249.2  -3.2  34130  289.05 0855.27
2009/04/23 09:47:10.9    -285    -73   -124    295    320 255.6 -28.5  34136  289.15 0855.27
2009/04/23 09:47:11.0    -286    -12   -144    287    321 267.5 -33.1  34132  289.10 0855.27
2009/04/23 09:47:11.1    -242    -61   -126    250    279 255.8 -33.5  34134  289.12 0855.27
2009/04/23 09:47:11.2    -305    -89   -199    318    375 253.6 -39.5  34126  288.98 0855.27
2009/04/23 09:47:11.3    -302    -23   -142    303    334 265.6 -31.4  34132  289.10 0855.27
2009/04/23 09:47:11.4    -302    -23   -171    303    347 265.6 -36.3  34134  289.13 0855.27
2009/04/23 09:47:11.5    -317     18   -170    318    360 273.4 -35.0  34142  289.28 0855.27
2009/04/23 09:47:11.6    -239     48   -166    244    295 281.5 -42.0  34140  289.22 0855.27
2009/04/23 09:47:11.7    -249    -19   -161    250    297 265.4 -40.0  34152  289.42 0855.27
2009/04/23 09:47:11.8    -221      3   -115    222    250 270.8 -33.7  34150  289.39 0855.27
2009/04/23 09:47:11.9    -170     19   -138    172    220 276.6 -47.7  34152  289.45 0855.27
2009/04/23 09:47:12.0    -205    -31   -149    208    255 261.2 -43.9  34140  289.24 0855.27
2009/04/23 09:47:12.1    -182    -40   -134    187    230 257.6 -43.9  34140  289.23 0855.27
2009/04/23 09:47:12.2    -286     -4   -122    287    311 269.2 -28.7  34150  289.41 0855.27
2009/04/23 09:47:12.3    -234    -60   -166    242    293 255.6 -42.2  34138  289.20 0855.27
2009/04/23 09:47:12.4    -270    -81   -166    282    327 253.2 -37.7  34136  289.15 0855.27
2009/04/23 09:47:12.5    -224    -57   -158    232    280 255.6 -42.0  34142  289.27 0855.27
2009/04/23 09:47:12.6    -234    -15   -173    235    291 266.3 -44.3  34144  289.31 0855.27
2009/04/23 09:47:12.7    -251    -82   -200    265    332 251.8 -45.1  34128  289.03 0855.26
2009/04/23 09:47:12.9    -180    -35   -192    184    265 259.0 -55.8  34128  289.03 0855.26
2009/04/23 09:47:13.0    -105     -8   -182    106    210 265.6 -71.4  34134  289.13 0855.26
2009/04/23 09:47:13.1    -135    -14   -182    136    227 263.9 -64.2  34136  289.18 0855.26
2009/04/23 09:47:13.2    -159     -2   -181    160    241 269.1 -58.4  34156  289.52 0855.26
2009/04/23 09:47:13.3    -136      3   -165    137    214 271.3 -60.7  34148  289.36 0855.26
2009/04/23 09:47:13.4    -219     43   -163    224    277 281.2 -44.1  34130  289.05 0855.26
2009/04/23 09:47:13.5    -130     39   -178    136    224 286.9 -63.1  34126  289.01 0855.26
2009/04/23 09:47:13.6    -135     41   -189    142    236 286.9 -63.8  34138  289.21 0855.26
2009/04/23 09:47:13.7    -137     56   -140    149    204 292.2 -52.6  34156  289.52 0855.26
2009/04/23 09:47:13.8     -12      9   -126     16    127 306.0 -90.0  34160  289.57 0855.26
2009/04/23 09:47:13.9      99    -49    -79    111    136 116.6 -43.5  34158  289.53 0855.26
2009/04/23 09:47:14.0      98    -76   -108    125    165 127.8 -49.8  34150  289.41 0855.26
2009/04/23 09:47:14.1     256    -49    -72    261    271 101.0 -15.5  34122  288.92 0855.26
2009/04/23 09:47:14.2     335      0      4    336    337  89.9   0.8  34122  288.94 0855.26
2009/04/23 09:47:14.3     347     19     48    348    352  86.8   7.9  34126  288.99 0855.26
2009/04/23 09:47:14.4     262     52     -5    268    269  78.8  -1.3  34126  289.00 0855.26
2009/04/23 09:47:14.5     218     40     77    222    236  79.4  19.2  34130  289.06 0855.26
2009/04/23 09:47:14.6     182      4     93    183    205  88.7  29.1  34130  289.06 0855.26
2009/04/23 09:47:14.7     145     11    103    146    178  85.7  38.8  34132  289.11 0855.26
2009/04/23 09:47:14.8      60     23     98     65    117  69.2  63.2  34134  289.13 0855.26
2009/04/23 09:47:14.9     -82     21     75     85    113 284.6  46.4  34142  289.28 0855.26
2009/04/23 09:47:15.0     -45      0     85     46     96 270.0  69.3  34140  289.24 0855.26
2009/04/23 09:47:15.1     -78    -60    166     99    193 232.2  66.2  34136  289.18 0855.26
2009/04/23 09:47:15.2    -152    -51    115    161    197 251.4  39.3  34126  289.01 0855.26
2009/04/23 09:47:15.3      -2   -148    131    149    198 181.0  45.9  34128  289.04 0855.26
2009/04/23 09:47:15.4       7   -132    108    133    171 176.9  43.5  34128  289.02 0855.26
2009/04/23 09:47:15.5      22   -243     67    245    255 174.7  15.3  34130  289.05 0855.26
2009/04/23 09:47:15.6     216   -229    189    316    368 136.7  33.6  34128  289.04 0855.26
2009/04/23 09:47:15.7     145   -267    179    304    352 151.5  33.1  34132  289.10 0855.26
2009/04/23 09:47:15.8      34   -203    179    206    272 170.3  45.6  34126  289.00 0855.26
2009/04/23 09:47:15.9       0   -255    137    256    290 180.2  30.3  34132  289.10 0855.26
2009/04/23 09:47:16.0      52   -306    196    311    367 170.3  35.3  34130  289.08 0855.26
2009/04/23 09:47:16.1      47   -309    196    313    369 171.3  35.3  34130  289.06 0855.26
2009/04/23 09:47:16.2      51   -346    241    350    424 171.5  37.8  34128  289.03 0855.26
2009/04/23 09:47:16.3      29   -459    241    460    519 176.4  29.8  34126  289.01 0855.26
2009/04/23 09:47:16.4     -22   -441    154    442    468 182.9  20.0  34126  289.00 0855.26
2009/04/23 09:47:16.5     -31   -404    194    406    449 184.4  27.3  34124  288.97 0855.26
2009/04/23 09:47:16.6     -79   -438    234    446    503 190.3  30.0  34130  289.05 0855.26
2009/04/23 09:47:16.7    -157   -462    198    489    527 198.8  23.1  34124  288.96 0855.26
2009/04/23 09:47:16.8    -181   -505     64    537    541 199.8   6.9  34120  288.91 0855.25
2009/04/23 09:47:16.9    -132   -519    104    536    547 194.3  11.0  34132  289.09 0855.25
2009/04/23 09:47:17.0    -132   -458     31    477    478 196.1   3.7  34130  289.05 0855.25
2009/04/23 09:47:17.1     -34   -389    123    391    411 185.1  17.5  34130  289.07 0855.25
2009/04/23 09:47:17.2     -50   -458    118    461    476 186.3  14.4  34126  289.01 0855.25
2009/04/23 09:47:17.3    -150   -523     37    545    547 196.0   3.9  34128  289.02 0855.25
2009/04/23 09:47:17.4     -78   -483    -14    490    491 189.2  -1.7  34130  289.06 0855.25
2009/04/23 09:47:17.5     -95   -480     50    490    493 191.2   5.9  34124  288.96 0855.25
2009/04/23 09:47:17.6     -55   -380    181    384    424 188.3  27.1  34124  288.97 0855.25
2009/04/23 09:47:17.7     -28   -375    241    376    446 184.3  35.6  34122  288.94 0855.25
2009/04/23 09:47:17.8    -140   -435    320    458    558 197.9  38.5  34130  289.06 0855.25
2009/04/23 09:47:17.9    -219   -369    266    430    505 210.7  34.9  34124  288.96 0855.25
2009/04/23 09:47:18.0    -153   -405    164    434    463 200.7  21.7  34120  288.89 0855.25
2009/04/23 09:47:18.1    -241   -409    213    475    520 210.5  25.8  34124  288.96 0855.25
2009/04/23 09:47:18.2    -264   -309    172    407    441 220.5  24.2  34122  288.94 0855.25
2009/04/23 09:47:18.3    -258   -187     72    319    328 234.1  12.8  34124  288.97 0855.25
2009/04/23 09:47:18.4    -315   -204    -13    376    377 237.0  -2.1  34126  288.98 0855.25
2009/04/23 09:47:18.5    -280   -251   -112    377    394 228.1 -16.6  34136  289.15 0855.25
2009/04/23 09:47:18.6    -235   -150    -40    280    283 237.4  -8.2  34122  288.93 0855.25
2009/04/23 09:47:18.7    -175   -192    -92    260    277 222.3 -19.6  34114  288.78 0855.25
2009/04/23 09:47:18.8    -179   -114    -69    213    225 237.6 -18.1  34122  288.94 0855.25
2009/04/23 09:47:18.9    -321   -216   -176    388    426 236.0 -30.6  34124  288.95 0855.25
2009/04/23 09:47:19.0    -139   -421   -220    444    495 198.3 -32.6  34116  288.84 0855.25
2009/04/23 09:47:19.1    -195   -116     26    227    229 239.3   6.7  34116  288.84 0855.25
2009/04/23 09:47:19.2    -309   -132     22    337    338 246.8   3.8  34126  289.01 0855.25
2009/04/23 09:47:19.3    -309      0    149    310    343 270.1  27.3  34128  289.03 0855.25
2009/04/23 09:47:19.4    -290    -65     70    298    307 257.2  13.2  34130  289.07 0855.25
2009/04/23 09:47:19.5    -269   -142     40    305    308 242.1   7.5  34128  289.02 0855.25
2009/04/23 09:47:19.6    -305   -122     43    329    332 248.2   7.5  34130  289.08 0855.25
2009/04/23 09:47:19.7    -242    -18    115    243    268 265.6  27.2  34130  289.07 0855.25
2009/04/23 09:47:19.8    -138     15     31    139    143 276.6  12.6  34136  289.16 0855.27
2009/04/23 09:47:19.9    -102    -36   -101    109    148 250.5 -52.3  34138  289.21 0855.27
2009/04/23 09:47:20.0    -160   -112   -113    196    226 235.1 -36.8  34128  289.02 0855.27
2009/04/23 09:47:20.1    -370   -121   -108    390    405 251.9 -15.5  34120  288.88 0855.27
2009/04/23 09:47:20.2    -247      3   -112    248    272 270.9 -30.6  34118  288.87 0855.27
2009/04/23 09:47:20.3    -273    -26   -211    275    346 264.5 -45.8  34112  288.75 0855.27
2009/04/23 09:47:20.4    -208   -104   -198    233    305 243.4 -48.9  34114  288.78 0855.27
2009/04/23 09:47:20.5    -391    -54   -259    395    472 262.1 -40.9  34112  288.75 0855.27
2009/04/23 09:47:20.6    -216   -111   -210    244    321 242.7 -49.6  34120  288.88 0855.27
2009/04/23 09:47:20.7    -191   -100   -197    216    292 242.2 -51.5  34124  288.97 0855.27
2009/04/23 09:47:20.8    -108    -85   -150    138    203 231.8 -56.6  34122  288.94 0855.27
2009/04/23 09:47:20.9    -288   -183    -48    342    346 237.6  -8.0  34124  288.96 0855.27
2009/04/23 09:47:21.0    -242   -138   -154    279    318 240.2 -35.8  34126  289.00 0855.27
2009/04/23 09:47:21.1    -355   -109   -111    372    388 252.9 -21.6  34122  288.93 0855.27
2009/04/23 09:47:21.2    -403    -46   -182    406    444 263.4 -30.2  34124  288.97 0855.27
2009/04/23 09:47:21.3    -310    -73   -131    319    344 256.7 -28.0  34126  289.01 0855.27
2009/04/23 09:47:21.4    -327    -95   -318    341    466 253.8 -52.3  34136  289.16 0855.27
2009/04/23 09:47:21.5    -270   -264   -144    378    404 225.6 -26.4  34140  289.23 0855.27
2009/04/23 09:47:21.6    -310   -147    -90    344    356 244.6 -14.8  34112  288.77 0855.27
2009/04/23 09:47:21.7    -302   -189   -122    357    377 237.9 -23.7  34140  289.23 0855.27
2009/04/23 09:47:21.8    -334   -211   -188    396    438 237.7 -31.6  34134  289.12 0855.28
2009/04/23 09:47:21.9    -378   -145   -206    405    454 249.0 -33.6  34128  289.02 0855.28
2009/04/23 09:47:22.0    -181   -369   -135    412    434 206.2 -18.2  34128  289.04 0855.28
2009/04/23 09:47:22.1    -225   -243    -12    332    333 222.8  -2.2  34126  288.98 0855.28
2009/04/23 09:47:22.2    -129   -271    -29    301    303 205.5  -5.6  34126  289.00 0855.28
2009/04/23 09:47:22.3     -98   -204    118    227    255 205.6  29.5  34124  288.97 0855.28
2009/04/23 09:47:22.4      -4   -232    133    233    268 181.1  32.3  34128  289.03 0855.28
2009/04/23 09:47:22.5     -72   -291    118    300    322 194.0  22.5  34128  289.03 0855.28
2009/04/23 09:47:22.6    -141   -296    114    329    349 205.5  19.1  34130  289.08 0855.28
2009/04/23 09:47:22.7     -83   -320    138    331    358 194.6  23.8  34136  289.15 0855.28
2009/04/23 09:47:22.8    -141   -353     55    381    386 201.8   8.2  34130  289.08 0855.28
2009/04/23 09:47:22.9    -133   -337     99    363    377 201.6  15.3  34126  289.01 0855.28
2009/04/23 09:47:23.0     -87   -339     96    351    364 194.5  15.3  34126  288.99 0855.28
2009/04/23 09:47:23.1     -27   -273    138    275    307 185.8  28.5  34126  288.98 0855.28
2009/04/23 09:47:23.2      -6   -141    186    142    234 182.7  58.7  34124  288.96 0855.28
2009/04/23 09:47:23.3     -84   -131    120    156    196 212.6  41.7  34126  288.99 0855.28
2009/04/23 09:47:23.4     -62   -131    156    146    213 205.5  52.0  34118  288.86 0855.28
2009/04/23 09:47:23.5      71   -214    241    226    330 161.5  52.1  34124  288.95 0855.28
2009/04/23 09:47:23.6      14   -243    178    244    302 176.5  39.7  34124  288.95 0855.28
2009/04/23 09:47:23.7    -237   -410    215    474    520 210.0  26.2  34120  288.88 0855.28
2009/04/23 09:47:23.8    -439   -347     88    560    568 231.7   9.0  34122  288.94 0855.28
2009/04/23 09:47:23.9    -620   -308    -46    693    695 243.6  -3.8  34112  288.75 0855.28
2009/04/23 09:47:24.0    -626   -351   -142    718    733 240.7 -11.2  34128  289.03 0855.28
2009/04/23 09:47:24.1    -556     98    199    565    600 280.0  19.4  34102  288.58 0855.28
2009/04/23 09:47:24.2    -413   -150    248    440    505 250.0  31.9  34142  289.27 0855.28
2009/04/23 09:47:24.3    -426   -137    149    448    473 252.1  18.4  34124  288.96 0855.28
2009/04/23 09:47:24.4    -459     60     96    463    474 277.5  11.8  34116  288.84 0855.28
2009/04/23 09:47:24.5    -281     75    -68    291    299 285.0 -13.3  34122  288.93 0855.28
2009/04/23 09:47:24.6    -290    152     39    328    331 297.7   6.9  34124  288.96 0855.28
2009/04/23 09:47:24.7    -238    137    126    275    302 300.0  26.2  34124  288.97 0855.28
2009/04/23 09:47:24.8    -227    150      3    273    274 303.5   0.7  34134  289.14 0855.28
2009/04/23 09:47:24.9    -256    -21    -71    257    267 265.2 -15.5  34134  289.12 0855.28
2009/04/23 09:47:25.0    -281    -21    -83    282    294 265.6 -16.4  34146  289.32 0855.28
2009/04/23 09:47:25.1    -318    -45    -88    322    335 261.9 -15.4  34138  289.21 0855.28
2009/04/23 09:47:25.2    -296     17    -66    297    305 273.3 -12.5  34134  289.12 0855.28
2009/04/23 09:47:25.3    -214     -3     -9    215    216 269.1  -2.6  34134  289.13 0855.28
2009/04/23 09:47:25.4     -72   -312     79    321    331 193.1  13.9  34138  289.19 0855.28
2009/04/23 09:47:25.5    -255   -185     45    316    320 234.1   8.1  34130  289.07 0855.28
2009/04/23 09:47:25.6     -85   -306     58    318    324 195.6  10.4  34134  289.12 0855.28
2009/04/23 09:47:25.7      51   -325     21    330    331 171.0   3.7  34122  288.94 0855.28
2009/04/23 09:47:25.8      48   -347     35    351    353 172.1   5.8  34122  288.93 0855.29
2009/04/23 09:47:25.9      -7   -466     49    467    470 180.9   6.1  34134  289.13 0855.29
2009/04/23 09:47:26.0       7   -505     28    506    507 179.1   3.2  34122  288.93 0855.29
2009/04/23 09:47:26.1     -50   -545    -11    548    549 185.3  -1.2  34112  288.75 0855.29
2009/04/23 09:47:26.2     125   -725    -42    736    738 170.2  -3.3  34114  288.80 0855.29
2009/04/23 09:47:26.3     211   -539     18    579    580 158.6   1.8  34094  288.46 0855.29
2009/04/23 09:47:26.4     167   -539    163    565    589 162.7  16.1  34118  288.85 0855.29
2009/04/23 09:47:26.5     222   -434    167    488    516 152.8  18.9  34118  288.86 0855.29
2009/04/23 09:47:26.6      40   -369    235    372    440 173.8  35.5  34122  288.92 0855.29
2009/04/23 09:47:26.7     231   -490    256    542    599 154.7  27.1  34118  288.85 0855.29
2009/04/23 09:47:26.8     340   -378    201    509    547 138.0  22.8  34118  288.85 0855.29
2009/04/23 09:47:26.9     259   -394    350    472    587 146.7  40.2  34122  288.94 0855.29
2009/04/23 09:47:27.0     195   -269    139    333    360 144.1  23.9  34118  288.86 0855.29
2009/04/23 09:47:27.1     175   -250    217    306    375 144.9  39.0  34120  288.89 0855.29
2009/04/23 09:47:27.2     111   -314     -6    334    335 160.5  -1.2  34122  288.94 0855.29
2009/04/23 09:47:27.3      91   -329     50    342    346 164.4   8.3  34116  288.84 0855.29
2009/04/23 09:47:27.4      80   -315    104    326    343 165.7  17.8  34120  288.89 0855.29
2009/04/23 09:47:27.5      57   -360    148    365    393 170.9  23.2  34120  288.91 0855.29
2009/04/23 09:47:27.6      24   -362    158    363    395 176.2  25.1  34122  288.93 0855.29
2009/04/23 09:47:27.7      17   -350    139    351    377 177.1  22.9  34122  288.94 0855.29
2009/04/23 09:47:27.8     -52   -371    189    375    419 188.1  28.7  34122  288.92 0855.31
2009/04/23 09:47:27.9     -21   -283    172    284    332 184.4  34.1  34116  288.83 0855.31
2009/04/23 09:47:28.0      18   -282    215    283    355 176.2  41.1  34122  288.93 0855.31
2009/04/23 09:47:28.1     -16   -257    137    258    292 183.6  30.3  34122  288.93 0855.31
2009/04/23 09:47:28.2      14   -191    134    192    234 175.8  38.5  34116  288.84 0855.31
2009/04/23 09:47:28.3     -81   -266    137    279    310 196.9  28.0  34120  288.88 0855.31
2009/04/23 09:47:28.4     -60   -171     98    182    206 199.6  30.8  34122  288.92 0855.31
2009/04/23 09:47:28.5      42   -128     90    135    162 161.7  37.0  34124  288.96 0855.31
2009/04/23 09:47:28.6     125   -277    153    305    341 155.7  28.6  34122  288.94 0855.31
2009/04/23 09:47:28.7     166   -221    117    277    300 143.1  24.2  34118  288.85 0855.31
2009/04/23 09:47:28.8     179   -218     55    283    289 140.6  11.1  34120  288.88 0855.31
2009/04/23 09:47:28.9      90   -190    -19    211    212 154.6  -5.2  34118  288.86 0855.31
2009/04/23 09:47:29.0     133   -182    -47    226    231 143.9 -11.9  34118  288.87 0855.31
2009/04/23 09:47:29.1     141   -108     48    178    185 127.5  15.3  34122  288.92 0855.31
2009/04/23 09:47:29.2     115    -33    -40    120    126 106.4 -23.6  34124  288.97 0855.31
2009/04/23 09:47:29.3     129    -60    -19    143    145 114.8  -7.7  34128  289.02 0855.31
2009/04/23 09:47:29.5      90    -69     -4    114    115 127.3  -2.2  34126  288.99 0855.31
2009/04/23 09:47:29.5      45    -48     25     66     70 136.8  22.0  34124  288.96 0855.31
2009/04/23 09:47:29.6      49   -171    122    178    215 164.0  37.8  34124  288.96 0855.31
2009/04/23 09:47:29.7      70   -177    160    191    249 158.2  44.1  34124  288.97 0855.31
2009/04/23 09:47:29.8      36    -31    123     48    132 131.3  78.2  34132  289.11 0855.32
2009/04/23 09:47:29.9     151   -100    164    182    244 123.7  46.9  34132  289.09 0855.32
2009/04/23 09:47:30.0      93    -66    184    115    216 125.5  64.9  34132  289.11 0855.32
2009/04/23 09:47:30.1      31   -132    202    136    243 166.6  62.8  34128  289.02 0855.32
2009/04/23 09:47:30.2     155   -134    222    206    302 130.9  52.2  34132  289.09 0855.32
2009/04/23 09:47:30.3     242   -296    295    383    483 140.7  41.5  34128  289.02 0855.32
2009/04/23 09:47:30.4     222   -434    174    488    518 152.9  20.4  34116  288.81 0855.32
2009/04/23 09:47:30.5     195   -569    250    602    651 161.1  23.8  34118  288.87 0855.32
2009/04/23 09:47:30.6      15   -448    140    449    471 178.0  17.3  34120  288.90 0855.32
2009/04/23 09:47:30.7     291   -343    179    451    485 139.7  22.9  34120  288.90 0855.32
2009/04/23 09:47:30.8     193   -248    111    315    335 142.1  19.5  34126  289.00 0855.32
2009/04/23 09:47:30.9      55   -268     69    274    283 168.2  14.3  34126  288.98 0855.32
2009/04/23 09:47:31.0      -7   -254     78    255    267 181.8  17.1  34124  288.97 0855.32
2009/04/23 09:47:31.1     -22   -155    115    157    194 188.1  39.7  34128  289.02 0855.32
2009/04/23 09:47:31.2     -38    -94     91    102    136 202.3  46.4  34130  289.08 0855.32
2009/04/23 09:47:31.3     144     29     63    147    159  78.5  24.6  34130  289.06 0855.32
2009/04/23 09:47:31.4     228     68     97    238    257  73.4  23.1  34128  289.02 0855.32
2009/04/23 09:47:31.5     502   -232    -66    554    558 114.8  -6.8  34124  288.97 0855.32
2009/04/23 09:47:31.6     281   -143    121    316    338 117.0  22.0  34118  288.86 0855.32
2009/04/23 09:47:31.7     -70   -275    247    284    376 194.3  45.6  34130  289.08 0855.32
2009/04/23 09:47:31.8      91   -110     83    143    165 140.4  32.9  34122  288.94 0855.31
2009/04/23 09:47:31.9      38    -27     42     47     63 126.0  47.9  34128  289.02 0855.31
2009/04/23 09:47:32.0     150    -22    -30    152    156  98.4 -11.3  34126  289.01 0855.31
2009/04/23 09:47:32.1     161    -12    -21    162    164  94.4  -7.5  34128  289.02 0855.31
2009/04/23 09:47:32.2     138    -33    -55    143    153 103.7 -26.4  34126  289.01 0855.31
2009/04/23 09:47:32.3     259    -29    -37    261    264  96.6  -8.2  34128  289.02 0855.31
2009/04/23 09:47:32.4     240    -45    -44    245    249 100.6 -10.3  34130  289.05 0855.31
2009/04/23 09:47:32.5     177    -49     57    184    193 105.7  17.4  34128  289.04 0855.31
2009/04/23 09:47:32.6      44   -134    101    142    174 161.5  38.8  34126  288.99 0855.31
2009/04/23 09:47:32.7     155   -144    155    212    262 132.9  39.7  34130  289.07 0855.31
2009/04/23 09:47:32.8     116   -226    -18    255    256 152.8  -4.1  34120  288.90 0855.31
2009/04/23 09:47:32.9     -38   -263    220    266    345 188.2  43.8  34128  289.02 0855.31
2009/04/23 09:47:33.0     -40   -351     30    354    356 186.6   5.0  34128  289.04 0855.31
2009/04/23 09:47:33.1     -44   -382    -49    385    389 186.6  -7.3  34130  289.06 0855.31
2009/04/23 09:47:33.2       9   -434    -23    435    436 178.8  -3.1  34126  288.99 0855.31
2009/04/23 09:47:33.3     -13   -449     70    450    456 181.7   8.9  34132  289.09 0855.31
2009/04/23 09:47:33.4    -117   -348     69    368    375 198.7  10.7  34128  289.03 0855.31
2009/04/23 09:47:33.5      60   -299     -6    306    307 168.5  -1.2  34134  289.12 0855.31
2009/04/23 09:47:33.6      26   -347    -84    348    359 175.7 -13.7  34130  289.06 0855.31
2009/04/23 09:47:33.7     -15   -414      5    415    416 182.1   0.7  34130  289.05 0855.31
2009/04/23 09:47:33.8      41   -378     49    381    385 173.7   7.4  34130  289.06 0855.31
2009/04/23 09:47:33.9    -101   -305    143    322    352 198.3  25.3  34136  289.16 0855.31
2009/04/23 09:47:34.0     -32   -242    111    245    268 187.6  26.2  34132  289.09 0855.31
2009/04/23 09:47:34.1      69   -200    156    212    263 160.8  39.7  34124  288.95 0855.31
2009/04/23 09:47:34.2     -29   -181     89    184    204 189.3  27.4  34130  289.08 0855.31
2009/04/23 09:47:34.3       3   -133    -38    134    140 178.6 -16.0  34130  289.08 0855.31
2009/04/23 09:47:34.4     -78    -77    -69    110    129 225.4 -39.9  34130  289.08 0855.31
2009/04/23 09:47:34.5      91     -6     18     92     94  94.3  11.6  34136  289.16 0855.31
2009/04/23 09:47:34.6      86    -55     -5    103    104 122.5  -3.1  34136  289.18 0855.31
2009/04/23 09:47:34.7      87    -36     69     95    117 112.6  39.7  34132  289.11 0855.31
2009/04/23 09:47:34.8     166    -37     72    171    185 102.8  23.8  34132  289.09 0855.31
2009/04/23 09:47:34.9     216    -44     55    221    228 101.5  14.2  34134  289.13 0855.31
2009/04/23 09:47:35.0     228    -82     57    243    250 110.0  13.2  34134  289.12 0855.31
2009/04/23 09:47:35.1     127    -55    166    139    216 113.6  56.1  34126  289.01 0855.31
2009/04/23 09:47:35.2     181   -302    256    353    436 149.1  39.5  34132  289.11 0855.31
2009/04/23 09:47:35.3     112   -213    230    241    333 152.1  48.5  34132  289.09 0855.31
2009/04/23 09:47:35.4      21   -193     -3    195    196 173.8  -1.2  34132  289.11 0855.31
2009/04/23 09:47:35.5     119   -116     66    167    179 134.4  22.8  34134  289.14 0855.31
2009/04/23 09:47:35.6      95   -193     82    216    231 153.7  21.7  34132  289.11 0855.31
2009/04/23 09:47:35.7     -11   -394    164    395    427 181.6  23.8  34132  289.09 0855.31
2009/04/23 09:47:35.8      45   -250    224    255    339 169.8  45.8  34128  289.02 0855.32
2009/04/23 09:47:35.9     -46   -180    180    186    258 194.5  49.0  34134  289.12 0855.32
2009/04/23 09:47:36.0    -332   -183     60    380    385 241.1   9.0  34126  289.01 0855.32
2009/04/23 09:47:36.1    -194   -181     41    266    270 227.1   8.8  34136  289.17 0855.32
2009/04/23 09:47:36.2     -67    -99    -34    120    125 214.3 -16.0  34136  289.16 0855.32
2009/04/23 09:47:36.3     157    -69     19    172    174 113.7   6.5  34134  289.14 0855.32
2009/04/23 09:47:36.4     252    -75    124    263    290 106.6  27.1  34130  289.07 0855.32
2009/04/23 09:47:36.5     205    -14    266    206    336  93.9  58.5  34134  289.14 0855.32
2009/04/23 09:47:36.6      44     33    206     55    213  53.1  84.9  34144  289.30 0855.32
2009/04/23 09:47:36.7      14    -26     79     30     84 151.0  79.2  34134  289.13 0855.32
2009/04/23 09:47:36.8    -122   -247    115    276    299 206.3  23.8  34132  289.09 0855.32
2009/04/23 09:47:36.9     -35   -235     46    238    243 188.5  11.1  34138  289.19 0855.32
2009/04/23 09:47:37.0     -40   -173     46    178    185 193.1  14.7  34138  289.19 0855.32
2009/04/23 09:47:37.1     -39   -238    -13    242    243 189.3  -3.1  34138  289.20 0855.32
2009/04/23 09:47:37.2     -99   -241   -108    261    282 202.5 -28.0  34132  289.09 0855.32
2009/04/23 09:47:37.3    -106   -369     54    384    388 196.0   8.0  34132  289.11 0855.32
2009/04/23 09:47:37.4      63   -312    -12    319    320 168.4  -2.2  34134  289.12 0855.32
2009/04/23 09:47:37.5     207   -289    -24    356    357 144.4  -4.0  34130  289.08 0855.32
2009/04/23 09:47:37.6     270   -234     43    358    361 131.0   6.9  34126  289.01 0855.32
2009/04/23 09:47:37.7     299   -195      9    358    359 123.1   1.5  34128  289.03 0855.32
2009/04/23 09:47:37.8     227   -292     19    371    372 142.2   3.0  34126  289.01 0855.31
2009/04/23 09:47:37.9     182   -249     43    309    313 143.7   8.0  34126  288.98 0855.31
2009/04/23 09:47:38.0      90   -178    121    200    233 153.0  34.2  34124  288.96 0855.31
2009/04/23 09:47:38.1      88   -287    145    301    334 163.0  27.4  34118  288.87 0855.31
2009/04/23 09:47:38.2    -145   -419    238    444    503 199.1  30.6  34132  289.10 0855.31
2009/04/23 09:47:38.3    -110   -431    296    445    534 194.4  36.9  34126  289.00 0855.31
2009/04/23 09:47:38.4     -95   -484    279    494    567 191.1  31.9  34124  288.97 0855.31
2009/04/23 09:47:38.5      -9   -386    268    387    470 181.4  38.1  34124  288.97 0855.31
2009/04/23 09:47:38.6      50   -278    218    283    357 169.8  41.5  34130  289.06 0855.31
2009/04/23 09:47:38.7     200   -110    211    229    311 118.8  47.9  34134  289.12 0855.31
2009/04/23 09:47:38.9     313   -282    187    422    461 132.1  25.3  34134  289.12 0855.31
2009/04/23 09:47:38.9     209   -212    212    298    365 135.5  39.0  34128  289.03 0855.31
2009/04/23 09:47:39.1     172   -252     43    306    310 145.7   8.0  34126  289.00 0855.31
2009/04/23 09:47:39.2      59   -283     30    290    292 168.2   6.1  34126  289.00 0855.31
2009/04/23 09:47:39.3       0   -180     16    181    182 179.8   5.2  34122  288.94 0855.31
2009/04/23 09:47:39.4      16   -162     65    163    175 174.2  23.0  34126  289.01 0855.31
2009/04/23 09:47:39.5      54   -346    200    351    403 171.0  32.3  34120  288.89 0855.31
2009/04/23 09:47:39.6     -56   -300    122    306    329 190.6  22.8  34114  288.78 0855.31
2009/04/23 09:47:39.7     -56   -422    -38    426    428 187.6  -5.2  34118  288.87 0855.31
2009/04/23 09:47:39.8     -89   -232     87    249    264 201.2  19.4  34126  289.00 0855.31
2009/04/23 09:47:39.9    -322   -186    -75    372    380 240.0 -11.5  34128  289.04 0855.30
2009/04/23 09:47:40.0    -519   -123     64    534    538 256.6   6.9  34124  288.96 0855.30
2009/04/23 09:47:40.1    -427   -244     34    493    495 240.2   4.0  34114  288.78 0855.30
2009/04/23 09:47:40.2    -279   -195     32    341    343 235.0   5.4  34116  288.81 0855.30
2009/04/23 09:47:40.3      40   -179    -85    184    202 167.3 -30.8  34118  288.87 0855.30
2009/04/23 09:47:40.4     155   -211   -146    262    299 143.7 -35.8  34118  288.87 0855.30
2009/04/23 09:47:40.5     188   -179    -88    260    275 133.6 -18.7  34110  288.71 0855.30
2009/04/23 09:47:40.6     124    -75     59    146    157 121.1  23.0  34120  288.89 0855.30
2009/04/23 09:47:40.7      35    -72     72     81    108 153.7  46.4  34116  288.82 0855.30
2009/04/23 09:47:40.8     154   -114    -53    192    200 126.6 -15.5  34120  288.89 0855.30
2009/04/23 09:47:40.9     197   -217    -95    294    310 137.7 -17.9  34120  288.88 0855.30
2009/04/23 09:47:41.0     210   -152     81    260    273 126.0  17.3  34124  288.95 0855.30
2009/04/23 09:47:41.1     229   -237     24    330    331 136.0   4.2  34120  288.88 0855.30
2009/04/23 09:47:41.2     340   -106    143    357    384 107.3  23.1  34114  288.79 0855.30
2009/04/23 09:47:41.3     266    -46    142    271    305  99.9  29.8  34118  288.87 0855.30
2009/04/23 09:47:41.4     203   -100    116    227    254 116.4  29.2  34122  288.92 0855.30
2009/04/23 09:47:41.5     201     -5    230    202    306  91.5  54.3  34122  288.93 0855.30
2009/04/23 09:47:41.6       4     60    126     61    139   4.4  72.8  34128  289.04 0855.30
2009/04/23 09:47:41.7     164     46    159    171    233  74.3  47.9  34122  288.94 0855.30
2009/04/23 09:47:41.8      76     40    202     87    219  62.0  75.3  34126  289.01 0855.30
2009/04/23 09:47:41.9      72      0    182     73    196  90.0  77.1  34132  289.11 0855.30
2009/04/23 09:47:42.0     230   -175    206    290    355 127.3  39.0  34126  288.98 0855.30
2009/04/23 09:47:42.1     362   -199     97    414    426 118.8  13.3  34126  289.00 0855.30
2009/04/23 09:47:42.2     346   -191     49    396    400 118.9   7.1  34122  288.93 0855.30
2009/04/23 09:47:42.3     281   -185    208    337    396 123.3  34.5  34126  289.01 0855.30
2009/04/23 09:47:42.4     282   -280    176    398    435 134.8  25.2  34122  288.94 0855.30
2009/04/23 09:47:42.5     229   -247    215    338    400 137.2  35.5  34122  288.94 0855.30
2009/04/23 09:47:42.6     204   -220    194    301    358 137.2  35.7  34122  288.94 0855.30
2009/04/23 09:47:42.7     291    -87    253    304    395 106.8  44.1  34122  288.93 0855.30
2009/04/23 09:47:42.8     225   -197    199    300    360 131.3  36.6  34126  289.01 0855.30
2009/04/23 09:47:42.9     315   -144    175    347    388 114.6  28.7  34120  288.91 0855.32
2009/04/23 09:47:43.0      85   -266    231    280    362 162.2  43.7  34122  288.94 0855.32
2009/04/23 09:47:43.1      91   -125    140    155    208 143.9  46.9  34128  289.02 0855.32
2009/04/23 09:47:43.2      81   -119     80    145    165 145.8  31.4  34126  289.01 0855.32
2009/04/23 09:47:43.3      36    -36     58     51     77 135.0  54.3  34132  289.11 0855.32
2009/04/23 09:47:43.4     117      6     75    118    139  87.0  35.5  34128  289.02 0855.32
2009/04/23 09:47:43.5     120    -43     74    128    147 109.9  32.9  34128  289.02 0855.32
2009/04/23 09:47:43.6     151     43     16    157    158  74.1   6.1  34124  288.96 0855.32
2009/04/23 09:47:43.7     187     44     14    193    194  76.7   4.2  34128  289.04 0855.32
2009/04/23 09:47:43.8      80     53      3     97     98  56.3   2.3  34126  288.99 0855.32
2009/04/23 09:47:43.9      77     -3     59     78     97  92.6  41.2  34128  289.04 0855.32
2009/04/23 09:47:44.0      48    -31     79     58     98 122.5  60.0  34134  289.14 0855.32
2009/04/23 09:47:44.1     -72      4     45     73     85 273.5  35.0  34140  289.24 0855.32
2009/04/23 09:47:44.2     -99     49     72    111    132 296.6  35.6  34130  289.06 0855.32
2009/04/23 09:47:44.3     -65     25     57     70     90 291.7  43.7  34132  289.11 0855.32
2009/04/23 09:47:44.4    -210    -22    -59    212    220 263.9 -20.0  34128  289.04 0855.32
2009/04/23 09:47:44.5     -85   -111    148    140    203 217.4  51.6  34126  289.01 0855.32
2009/04/23 09:47:44.6    -137    -23    116    139    181 260.3  44.1  34122  288.94 0855.32
2009/04/23 09:47:44.7    -181   -113    116    214    243 238.0  31.0  34126  289.00 0855.32
2009/04/23 09:47:44.8     -53   -379     69    383    390 188.0  10.3  34126  289.01 0855.32
2009/04/23 09:47:44.9    -251   -450    230    516    564 209.2  25.7  34136  289.18 0855.33
2009/04/23 09:47:45.0    -273   -401     58    486    490 214.3   6.9  34136  289.18 0855.33
2009/04/23 09:47:45.1    -273   -271    -89    385    396 225.2 -13.1  34132  289.11 0855.33
2009/04/23 09:47:45.2    -425   -363   -133    560    576 229.5 -13.4  34130  289.08 0855.33
2009/04/23 09:47:45.3    -388   -363   -148    532    552 226.9 -20.2  34130  289.07 0855.33
2009/04/23 09:47:45.4    -328   -286   -233    436    494 229.0 -34.9  34130  289.06 0855.33
2009/04/23 09:47:45.5    -283   -282   -134    400    421 225.1 -23.3  34136  289.16 0855.33
2009/04/23 09:47:45.6    -287   -265   -119    391    409 227.3 -17.0  34128  289.04 0855.33
2009/04/23 09:47:45.7    -398   -271    -42    482    484 235.7  -5.1  34144  289.30 0855.33
2009/04/23 09:47:45.8    -407   -219    -91    463    473 241.7 -11.2  34138  289.20 0855.33
2009/04/23 09:47:45.9    -350    -80   -124    360    381 257.1 -19.1  34144  289.30 0855.33
2009/04/23 09:47:46.0    -356   -184    -80    401    409 242.6 -11.3  34138  289.19 0855.33
2009/04/23 09:47:46.1    -538   -235    -36    588    590 246.4  -3.5  34140  289.24 0855.33
2009/04/23 09:47:46.2    -424   -144    -93    449    459 251.2 -11.8  34146  289.33 0855.33
2009/04/23 09:47:46.3    -577    -70   -174    582    607 263.0 -21.7  34134  289.12 0855.33
2009/04/23 09:47:46.4    -578   -240    -42    627    629 247.4  -3.9  34128  289.04 0855.33
2009/04/23 09:47:46.5    -279   -438    191    520    553 212.5  21.0  34126  288.99 0855.33
2009/04/23 09:47:46.6    -306   -436    130    533    549 215.1  13.8  34130  289.06 0855.33
2009/04/23 09:47:46.7    -259   -478    -64    544    548 208.5  -6.8  34132  289.11 0855.33
2009/04/23 09:47:46.8    -462   -346     93    578    586 233.2   9.2  34140  289.24 0855.33
2009/04/23 09:47:46.9    -387   -325    -33    506    508 230.0  -3.7  34142  289.28 0855.33
2009/04/23 09:47:47.0    -386   -230     69    450    456 239.3   8.8  34140  289.24 0855.33
2009/04/23 09:47:47.1    -394   -235    -66    459    464 239.2  -8.2  34144  289.31 0855.33
2009/04/23 09:47:47.2    -405   -191     36    448    450 244.7   4.7  34136  289.16 0855.33
2009/04/23 09:47:47.3    -255   -222     55    339    344 228.9   9.3  34132  289.11 0855.33
2009/04/23 09:47:47.4    -295   -195     83    354    364 236.5  13.2  34128  289.04 0855.33
2009/04/23 09:47:47.5    -194   -183    136    268    300 226.7  29.2  34126  288.98 0855.33
2009/04/23 09:47:47.6     -22   -178    228    180    290 187.3  57.7  34132  289.09 0855.33
2009/04/23 09:47:47.7    -136   -246    229    282    363 209.0  43.4  34126  288.99 0855.33
2009/04/23 09:47:47.8    -107   -178    312    208    374 211.0  63.3  34136  289.16 0855.33
2009/04/23 09:47:47.9    -133    -25    233    136    269 259.0  67.2  34132  289.09 0855.33
2009/04/23 09:47:48.0     -59    -38    280     71    288 237.6  85.9  34138  289.19 0855.33
2009/04/23 09:47:48.1     -49   -218    210    224    307 192.9  48.0  34132  289.10 0855.33
2009/04/23 09:47:48.2     -15   -200    123    201    235 184.5  34.4  34126  289.01 0855.33
2009/04/23 09:47:48.3     -24   -230     64    232    241 186.0  15.6  34126  289.00 0855.33
2009/04/23 09:47:48.4    -176   -226    106    287    305 217.9  21.0  34126  289.00 0855.33
2009/04/23 09:47:48.5    -201   -167     61    262    270 230.4  13.1  34132  289.10 0855.33
2009/04/23 09:47:48.6    -191   -179    137    262    295 226.9  29.5  34130  289.05 0855.33
2009/04/23 09:47:48.7     -85   -212    184    229    293 201.9  43.0  34134  289.14 0855.33
2009/04/23 09:47:48.8    -104   -166    125    196    232 212.1  35.5  34132  289.11 0855.33
2009/04/23 09:47:48.9    -223   -131    163    259    306 239.6  35.5  34146  289.32 0855.33
2009/04/23 09:47:49.0    -206    -23     -2    208    209 263.6  -0.7  34138  289.19 0855.33
2009/04/23 09:47:49.1    -265   -103     18    285    286 248.7   3.8  34142  289.25 0855.33
2009/04/23 09:47:49.2    -267   -210     71    340    348 231.8  11.8  34144  289.30 0855.33
2009/04/23 09:47:49.3    -256   -101    171    276    324 248.3  34.9  34148  289.36 0855.33
2009/04/23 09:47:49.4    -195   -124    140    232    270 237.6  34.4  34140  289.24 0855.33
2009/04/23 09:47:49.5    -129   -166     33    211    214 217.8   9.0  34128  289.04 0855.33
2009/04/23 09:47:49.6    -109   -204    130    232    265 208.1  31.6  34130  289.05 0855.33
2009/04/23 09:47:49.7     -24   -221    105    223    246 186.2  27.1  34136  289.15 0855.33
2009/04/23 09:47:49.8    -108   -169      2    201    202 212.7   0.7  34140  289.23 0855.33
2009/04/23 09:47:49.9    -201    -88   -112    220    246 246.3 -33.6  34134  289.12 0855.33
2009/04/23 09:47:50.0    -154   -177    123    235    265 221.0  29.8  34134  289.14 0855.33
2009/04/23 09:47:50.1    -246   -294   -131    384    407 220.0 -18.9  34142  289.26 0855.33
2009/04/23 09:47:50.2    -287   -107   -101    307    323 249.4 -23.6  34136  289.17 0855.33
2009/04/23 09:47:50.3    -312   -128    -94    338    350 247.7 -20.2  34140  289.23 0855.33
2009/04/23 09:47:50.4    -263   -124     19    291    292 244.7   3.8  34152  289.42 0855.33
2009/04/23 09:47:50.5    -204   -155    100    257    275 232.9  22.5  34146  289.34 0855.33
2009/04/23 09:47:50.6     -30   -193    107    196    223 188.9  31.3  34142  289.26 0855.33
2009/04/23 09:47:50.7     -92   -173     74    197    210 208.1  21.0  34144  289.30 0855.33
2009/04/23 09:47:50.8    -236   -120     72    265    275 243.0  15.2  34152  289.44 0855.33
2009/04/23 09:47:50.9    -274    -83    -44    287    291 253.1  -8.8  34146  289.34 0855.31
2009/04/23 09:47:51.0    -419     29   -141    421    445 274.0 -18.6  34112  288.77 0855.31
2009/04/23 09:47:51.1    -348      4    -96    349    363 270.8 -15.4  34112  288.77 0855.31
2009/04/23 09:47:51.2    -239    -26    -30    241    243 263.6  -7.3  34110  288.73 0855.31
2009/04/23 09:47:51.3    -241   -218    -96    326    340 227.9 -16.4  34108  288.69 0855.31
2009/04/23 09:47:51.4    -161    -77      5    179    180 244.5   1.6  34118  288.86 0855.31
2009/04/23 09:47:51.5    -367    -53     96    371    384 261.7  14.5  34130  289.06 0855.31
2009/04/23 09:47:51.6    -337    -89    -11    349    350 255.1  -1.9  34128  289.04 0855.31
2009/04/23 09:47:51.7    -279      3    -72    280    290 270.8 -14.5  34134  289.12 0855.31
2009/04/23 09:47:51.8    -227     -5    -53    228    235 268.7 -13.3  34146  289.35 0855.31
2009/04/23 09:47:51.9    -230   -142    -21    271    272 238.2  -4.6  34142  289.27 0855.31
2009/04/23 09:47:52.0    -124   -208     19    243    244 210.8   4.6  34142  289.25 0855.31
2009/04/23 09:47:52.1    -120    -85    -50    148    157 234.5 -18.7  34138  289.19 0855.31
2009/04/23 09:47:52.2     -13   -179    -50    180    187 184.2 -15.5  34144  289.31 0855.31
2009/04/23 09:47:52.3      99   -259    -10    278    279 159.1  -2.2  34144  289.31 0855.31
2009/04/23 09:47:52.4       9   -299    135    300    328 178.2  25.9  34124  288.95 0855.31
2009/04/23 09:47:52.5     -88   -345     39    357    360 194.4   6.4  34130  289.08 0855.31
2009/04/23 09:47:52.6    -147   -407    126    433    452 200.0  16.3  34126  289.00 0855.31
2009/04/23 09:47:52.7       9   -260    295    261    393 178.0  54.2  34126  288.98 0855.31
2009/04/23 09:47:52.8       6   -115    234    116    261 176.9  71.9  34126  288.99 0855.31
2009/04/23 09:47:52.9     -44     -7    192     45    197 260.3  87.0  34138  289.21 0855.28
2009/04/23 09:47:53.0      21     83    209     86    226  14.7  76.8  34130  289.08 0855.28
2009/04/23 09:47:53.1      65    -33    192     74    205 117.1  77.8  34122  288.92 0855.28
2009/04/23 09:47:53.2     273     17    245    274    367  86.3  46.4  34118  288.86 0855.28
2009/04/23 09:47:53.3     198    -27    284    200    347  97.9  61.4  34118  288.85 0855.28
2009/04/23 09:47:53.4     115     -8    271    116    294  94.3  75.5  34126  288.98 0855.28
2009/04/23 09:47:53.5     157     12    236    158    284  85.6  63.2  34132  289.10 0855.28
2009/04/23 09:47:53.6     179    106    240    209    318  59.3  54.7  34126  289.00 0855.28
2009/04/23 09:47:53.7     254    161    247    301    389  57.6  43.7  34120  288.89 0855.28
2009/04/23 09:47:53.8     175     76    293    191    349  66.5  64.1  34128  289.03 0855.28
2009/04/23 09:47:53.9     304     36    272    307    410  83.2  46.1  34128  289.03 0855.28
2009/04/23 09:47:54.0     185     91    239    207    316  63.8  54.7  34126  288.98 0855.28
2009/04/23 09:47:54.1     179     91    261    201    329  63.0  58.6  34122  288.92 0855.28
2009/04/23 09:47:54.2     158    148    254    217    334  46.9  55.4  34128  289.02 0855.28
2009/04/23 09:47:54.3      96    102    221    141    262  43.2  64.6  34130  289.06 0855.28
2009/04/23 09:47:54.4      88     97    182    132    224  42.3  60.5  34154  289.46 0855.28
2009/04/23 09:47:54.5      67    270    237    279    366  14.0  44.7  34202  290.30 0855.28
2009/04/23 09:47:54.6     201    347    197    402    447  30.1  28.0  34208  290.39 0855.28
2009/04/23 09:47:54.7     286    188    220    343    407  56.7  35.6  34156  289.50 0855.28
2009/04/23 09:47:54.8     407    285    294    497    577  55.0  33.4  34184  289.97 0855.28
2009/04/23 09:47:54.9     299    236    260    382    462  51.7  37.6  34174  289.80 0855.26
2009/04/23 09:47:55.0     234    316    267    394    475  36.6  37.4  34166  289.68 0855.26
2009/04/23 09:47:55.1     285    176    314    336    459  58.3  47.9  34184  289.99 0855.26
2009/04/23 09:47:55.2     312    445    285    544    614  35.0  29.9  34132  289.10 0855.26
2009/04/23 09:47:55.3     353    553    188    657    684  32.6  16.0  34136  289.17 0855.26
2009/04/23 09:47:55.4     675    412    179    792    813  58.6  12.8  34168  289.70 0855.26
2009/04/23 09:47:55.5     163    302    -96    344    357  28.4 -20.3  34126  288.99 0855.26
2009/04/23 09:47:55.6     123    312   -282    336    438  21.5 -48.7  34128  289.02 0855.26
2009/04/23 09:47:55.7      89    475   -272    484    555  10.7 -36.3  34114  288.79 0855.26
2009/04/23 09:47:55.8     275    343   -457    440    634  38.8 -55.7  34122  288.92 0855.26
2009/04/23 09:47:55.9     132    165   -307    212    373  38.5 -66.5  34130  289.08 0855.26
2009/04/23 09:47:56.0    -146    260   -215    299    368 330.6 -43.7  34126  288.98 0855.26
2009/04/23 09:47:56.1    -114      9   -181    115    214 274.8 -69.1  34146  289.35 0855.26
2009/04/23 09:47:56.2     170   -117     56    207    215 124.6  15.3  34146  289.33 0855.26
2009/04/23 09:47:56.3     194    -50    116    201    232 104.6  32.9  34148  289.38 0855.26
2009/04/23 09:47:56.4     409      9      2    410    411  88.6   0.4  34136  289.17 0855.26
2009/04/23 09:47:56.5     562    -87    -50    569    572  98.8  -5.1  34134  289.12 0855.26
2009/04/23 09:47:56.6     459    174   -148    492    513  69.2 -21.7  34108  288.68 0855.26
2009/04/23 09:47:56.7     524    249    -22    581    582  64.6  -2.2  34110  288.73 0855.26
2009/04/23 09:47:56.8     599    192     83    630    636  72.2   7.6  34106  288.67 0855.26
2009/04/23 09:47:56.9     612    165    138    635    650  74.9  12.3  34112  288.77 0855.26
2009/04/23 09:47:57.0     526    296     72    604    609  60.6   6.9  34112  288.76 0855.26
2009/04/23 09:47:57.1     502    335    121    604    617  56.3  11.3  34114  288.78 0855.26
2009/04/23 09:47:57.2     452    345     89    569    577  52.6   8.9  34116  288.81 0855.26
2009/04/23 09:47:57.3     367    257     75    449    456  55.0   9.5  34118  288.87 0855.26
2009/04/23 09:47:57.4     365    152     24    396    397  67.3   3.5  34130  289.08 0855.26
2009/04/23 09:47:57.5     432    127    147    451    475  73.6  18.0  34148  289.37 0855.26
2009/04/23 09:47:57.6     459    152    204    484    525  71.6  24.2  34166  289.69 0855.26
2009/04/23 09:47:57.7     534     90    232    542    589  80.4  24.6  34186  290.02 0855.26
2009/04/23 09:47:57.8     361    136    300    386    488  69.3  41.7  34216  290.51 0855.26
2009/04/23 09:47:57.9     477    294    213    561    600  58.4  21.8  34146  289.34 0855.26
2009/04/23 09:47:58.0     452    234    185    510    542  62.6  20.8  34174  289.80 0855.26
2009/04/23 09:47:58.1     620    190    261    649    699  73.0  23.1  34214  290.48 0855.26
2009/04/23 09:47:58.2     677    203    248    707    749  73.3  20.1  34202  290.28 0855.26
2009/04/23 09:47:58.3     587    297    118    659    670  63.1  10.2  34168  289.70 0855.26
2009/04/23 09:47:58.4     623    277    220    682    717  66.0  17.9  34156  289.50 0855.26
2009/04/23 09:47:58.5     541    225    -74    586    591  67.4  -7.2  34146  289.32 0855.26
2009/04/23 09:47:58.6     504     68    296    509    588  82.3  32.9  34192  290.11 0855.26
2009/04/23 09:47:58.7     624    273    114    682    692  66.4   9.5  34156  289.51 0855.26
2009/04/23 09:47:58.8     439     57    111    443    457  82.5  14.2  34178  289.87 0855.26
2009/04/23 09:47:58.9     509     61   -173    513    542  83.1 -18.7  34162  289.60 0855.28
2009/04/23 09:47:59.0     535     36     30    537    538  86.1   3.3  34182  289.96 0855.28
2009/04/23 09:47:59.1     513    142     13    533    534  74.5   1.5  34168  289.72 0855.28
2009/04/23 09:47:59.2     490    217     16    537    538  66.1   1.7  34186  290.02 0855.28
2009/04/23 09:47:59.3     409    127     83    429    438  72.7  11.0  34186  290.02 0855.28
2009/04/23 09:47:59.4     373    -46    230    376    440  97.1  34.4  34164  289.63 0855.28
2009/04/23 09:47:59.5     374    -33    206    376    428  95.1  31.3  34168  289.72 0855.28
2009/04/23 09:47:59.6     369    -22    276    370    461  93.5  40.6  34172  289.77 0855.28
2009/04/23 09:47:59.7     372     45    254    375    452  83.0  37.4  34214  290.48 0855.28
2009/04/23 09:47:59.8     379     16    331    380    503  87.5  45.5  34192  290.12 0855.28
2009/04/23 09:47:59.9     370   -155    125    402    421 112.7  17.3  34144  289.29 0855.28
2009/04/23 09:48:00.0     357   -110    266    374    458 107.2  39.0  34148  289.36 0855.28
2009/04/23 09:48:00.1     419    -77    254    427    496 100.5  33.6  34146  289.32 0855.28
2009/04/23 09:48:00.2     337    -92    143    350    378 105.4  23.2  34142  289.28 0855.28
2009/04/23 09:48:00.3     286     21    216    287    359  85.6  40.8  34164  289.64 0855.28
2009/04/23 09:48:00.4     328     40    101    331    347  82.9  17.0  34152  289.43 0855.28
2009/04/23 09:48:00.5     372     78    165    381    415  78.1  25.0  34154  289.48 0855.28
2009/04/23 09:48:00.6     328    100    283    344    445  73.0  43.7  34154  289.48 0855.28
2009/04/23 09:48:00.7     348     65    155    354    386  79.4  25.1  34148  289.38 0855.28
2009/04/23 09:48:00.8     308     67    220    316    385  77.6  38.3  34178  289.89 0855.28
2009/04/23 09:48:00.9     350     58    232    355    424  80.6  36.2  34152  289.44 0855.26
2009/04/23 09:48:01.0     330    101    218    346    408  73.0  35.5  34162  289.62 0855.26
2009/04/23 09:48:01.1     377     53    197    381    428  82.0  29.5  34160  289.58 0855.26
2009/04/23 09:48:01.2     342     26    203    343    398  85.6  33.5  34154  289.47 0855.26
2009/04/23 09:48:01.3     277     30    187    279    335  83.6  37.0  34152  289.44 0855.26
2009/04/23 09:48:01.4     271     95    161    288    329  70.7  31.7  34160  289.56 0855.26
2009/04/23 09:48:01.5     236     77    197    249    317  71.8  42.3  34164  289.64 0855.26
2009/04/23 09:48:01.7     317     72    226    326    396  77.2  38.3  34164  289.64 0855.26
2009/04/23 09:48:01.7     273     42    197    277    339  81.2  39.0  34146  289.34 0855.26
2009/04/23 09:48:01.8     301     13    114    302    322  87.5  21.7  34142  289.25 0855.26
2009/04/23 09:48:01.9     283     66    108    291    310  76.7  21.0  34132  289.10 0855.23
2009/04/23 09:48:02.0     299    154    104    337    353  62.7  17.2  34128  289.04 0855.23
2009/04/23 09:48:02.1     340    111    113    358    376  71.9  17.5  34138  289.20 0855.23
2009/04/23 09:48:02.2     267     65     75    275    286  76.3  15.3  34140  289.24 0855.23
2009/04/23 09:48:02.3     276     57     43    282    286  78.3   8.8  34158  289.53 0855.23
2009/04/23 09:48:02.4     262    114    110    286    306  66.5  22.1  34210  290.41 0855.23
2009/04/23 09:48:02.5     273    108    195    294    352  68.3  36.7  34200  290.25 0855.23
2009/04/23 09:48:02.6     230     63     61    239    247  74.5  14.5  34188  290.05 0855.23
2009/04/23 09:48:02.7      -8     59    153     60    164 352.0  77.8  34184  289.97 0855.23
2009/04/23 09:48:02.9     -13    219    105    220    243 356.4  27.3  34176  289.83 0855.23
2009/04/23 09:48:02.9     -59    206      7    215    216 344.0   2.1  34168  289.72 0855.23
2009/04/23 09:48:03.0      32    166   -181    170    248  11.1 -56.5  34174  289.82 0855.23
2009/04/23 09:48:03.1      70     34   -108     79    133  63.8 -64.9  34188  290.06 0855.23
2009/04/23 09:48:03.2     139     89    -27    166    169  57.5  -9.3  34200  290.26 0855.23
2009/04/23 09:48:03.3     238    108     90    262    278  65.6  18.9  34184  289.97 0855.23
2009/04/23 09:48:03.4     256    116     60    282    289  65.6  12.0  34194  290.15 0855.23
2009/04/23 09:48:03.5     163     45    121    170    208  74.3  39.1  34210  290.41 0855.23
2009/04/23 09:48:03.6     170    159    157    234    281  46.9  37.0  34214  290.48 0855.23
2009/04/23 09:48:03.7     187     82     58    205    214  66.4  15.8  34212  290.45 0855.23
2009/04/23 09:48:03.8     248     78    163    261    307  72.5  35.5  34192  290.10 0855.23
2009/04/23 09:48:04.0     188     49    209    195    285  75.2  52.2  34158  289.54 0855.23
2009/04/23 09:48:04.0     222     17    213    223    308  85.4  48.7  34170  289.73 0855.23
2009/04/23 09:48:04.1     256    -85    122    270    296 108.4  26.2  34158  289.54 0855.23
2009/04/23 09:48:04.2     192   -136    126    236    267 125.3  30.3  34164  289.64 0855.23
2009/04/23 09:48:04.3     232   -109     75    257    268 115.1  16.3  34162  289.59 0855.23
2009/04/23 09:48:04.4     207    -97    129    229    262 115.1  31.9  34164  289.63 0855.23
2009/04/23 09:48:04.5     208   -113    170    237    291 118.6  39.1  34162  289.61 0855.23
2009/04/23 09:48:04.6      55   -205    209    213    298 164.9  49.8  34156  289.49 0855.23
2009/04/23 09:48:04.7     103   -161    168    192    255 147.3  45.8  34164  289.64 0855.23
2009/04/23 09:48:04.8     180    -83    152    199    250 114.8  41.4  34160  289.56 0855.23
2009/04/23 09:48:04.9     220   -104    172    244    298 115.4  38.6  34156  289.51 0855.23
2009/04/23 09:48:05.0     161    -98    157    189    245 121.3  43.8  34156  289.52 0855.23
2009/04/23 09:48:05.2     132    -88    164    159    228 123.7  50.9  34158  289.53 0855.23
2009/04/23 09:48:05.2     132    -35    189    137    233 105.1  60.6  34160  289.57 0855.23
2009/04/23 09:48:05.3      51    -46    147     69    162 132.2  73.2  34160  289.58 0855.23
2009/04/23 09:48:05.4     -15   -126    176    127    217 187.1  60.6  34158  289.55 0855.23
2009/04/23 09:48:05.5      -1     -2    135      3    135 212.5  90.0  34164  289.63 0855.23
2009/04/23 09:48:05.6      18     49    122     53    133  20.9  75.0  34172  289.77 0855.23
2009/04/23 09:48:05.7      76    -36    128     85    153 115.4  64.1  34156  289.50 0855.23
2009/04/23 09:48:05.9     140    -71     50    158    166 117.0  17.7  34154  289.48 0855.23
2009/04/23 09:48:05.9      55     53     76     77    108  45.9  50.5  34154  289.48 0855.23
2009/04/23 09:48:06.0      19     26     87     33     93  36.1  78.6  34164  289.65 0855.23
2009/04/23 09:48:06.2      23     26     80     35     87  41.4  75.5  34162  289.62 0855.23
2009/04/23 09:48:06.3      63     40     76     75    106  57.6  49.7  34178  289.89 0855.23
2009/04/23 09:48:06.4      98     50     76    111    134  62.9  37.4  34180  289.92 0855.23
2009/04/23 09:48:06.5     102     19    115    104    155  79.0  53.3  34182  289.96 0855.23
2009/04/23 09:48:06.6      58      0     60     59     84  89.2  49.7  34186  290.02 0855.23
2009/04/23 09:48:06.7      98     26     88    102    134  74.9  45.4  34170  289.75 0855.23
2009/04/23 09:48:06.8     124      0     95    125    157  90.0  41.4  34170  289.75 0855.23
2009/04/23 09:48:06.9      56     32     70     65     95  60.2  52.2  34168  289.72 0855.23
2009/04/23 09:48:07.0      54     78     76     96    122  34.7  42.7  34162  289.60 0855.23
2009/04/23 09:48:07.1     -22     94     66     97    117 346.6  37.0  34160  289.57 0855.23
2009/04/23 09:48:07.2     -73     46     29     87     92 302.4  18.9  34164  289.65 0855.23
2009/04/23 09:48:07.3    -105     41     49    113    123 291.3  25.1  34156  289.52 0855.23
2009/04/23 09:48:07.4    -140     23      7    143    144 279.6   2.9  34156  289.50 0855.23
2009/04/23 09:48:07.5    -112     49      5    123    124 293.6   2.3  34158  289.53 0855.23
2009/04/23 09:48:07.6     -85     33     31     92     98 291.7  18.9  34160  289.57 0855.23
2009/04/23 09:48:07.7     -56     38     41     68     79 304.2  34.0  34160  289.57 0855.23
2009/04/23 09:48:07.8     -25    -72    120     77    142 199.2  64.6  34148  289.36 0855.23
2009/04/23 09:48:07.9     -44   -158    140    165    216 195.8  44.5  34136  289.18 0855.23
2009/04/23 09:48:08.0     -72    -55    209     91    227 232.7  75.0  34150  289.41 0855.26
2009/04/23 09:48:08.1    -129   -152     89    200    218 220.5  25.3  34150  289.40 0855.26
2009/04/23 09:48:08.2    -115   -115     46    163    170 225.1  15.8  34148  289.36 0855.26
2009/04/23 09:48:08.3     -74    -94     51    120    130 218.3  24.6  34146  289.33 0855.26
2009/04/23 09:48:08.4     -53    -31     13     62     64 239.3  12.2  34146  289.35 0855.26
2009/04/23 09:48:08.5       0     19    -15     20     25 359.1 -44.1  34152  289.43 0855.26
2009/04/23 09:48:08.6      26      0     19     27     33  90.0  39.7  34150  289.41 0855.26
2009/04/23 09:48:08.7       7    -91     63     92    111 175.5  37.6  34144  289.30 0855.26
2009/04/23 09:48:08.8      71   -112     52    133    142 147.5  22.5  34140  289.23 0855.26
2009/04/23 09:48:08.9      15    -83    149     85    171 169.3  67.7  34148  289.36 0855.26
2009/04/23 09:48:09.0     -30   -107    131    112    172 196.0  55.4  34152  289.43 0855.26
2009/04/23 09:48:09.1    -129   -166     75    211    225 217.9  19.6  34162  289.60 0855.26
2009/04/23 09:48:09.2    -108   -249    128    272    300 203.4  27.1  34144  289.29 0855.26
2009/04/23 09:48:09.3     -44   -228    126    233    264 191.1  30.6  34142  289.25 0855.26
2009/04/23 09:48:09.4     -10   -240     98    241    260 182.6  23.1  34140  289.24 0855.26
2009/04/23 09:48:09.5      42   -188    103    193    218 167.3  30.6  34144  289.31 0855.26
2009/04/23 09:48:09.6      38   -222     42    226    230 170.2  10.6  34146  289.33 0855.26
2009/04/23 09:48:09.7      -2   -225     19    226    227 180.7   4.9  34170  289.75 0855.26
2009/04/23 09:48:09.8      -3   -236     69    237    247 180.9  16.3  34152  289.42 0855.26
2009/04/23 09:48:09.9     -46   -191     24    197    199 193.6   7.2  34184  289.97 0855.26
2009/04/23 09:48:10.0     -88   -230     79    247    260 201.0  17.7  34184  289.97 0855.25
2009/04/23 09:48:10.1    -142   -328    129    358    381 203.4  19.9  34152  289.43 0855.25
2009/04/23 09:48:10.2     -17   -259     70    260    270 183.8  15.2  34144  289.29 0855.25
2009/04/23 09:48:10.3     -85   -283    130    296    323 196.7  25.3  34138  289.19 0855.25
2009/04/23 09:48:10.4     -54   -289    164    294    336 190.6  31.6  34146  289.34 0855.25
2009/04/23 09:48:10.5    -154   -186    146    242    282 219.6  34.0  34168  289.71 0855.25
2009/04/23 09:48:10.6     -31   -220    176    223    284 188.1  42.4  34138  289.20 0855.25
2009/04/23 09:48:10.7       0   -261    168    262    311 180.1  35.6  34140  289.24 0855.25
2009/04/23 09:48:10.8      35   -286    136    289    319 172.9  27.0  34144  289.31 0855.25
2009/04/23 09:48:10.9     -31   -288    173    290    337 186.2  33.6  34144  289.29 0855.25
2009/04/23 09:48:11.0       2   -288     92    289    304 179.5  17.7  34150  289.41 0855.25
2009/04/23 09:48:11.1     -74   -275    118    285    308 195.2  23.6  34150  289.41 0855.25
2009/04/23 09:48:11.2     -76   -247    145    259    296 197.2  31.4  34150  289.41 0855.25
2009/04/23 09:48:11.3     -85   -203    142    221    262 202.7  35.6  34140  289.22 0855.25
2009/04/23 09:48:11.4      -2   -147    137    148    201 180.9  47.9  34138  289.19 0855.25
2009/04/23 09:48:11.5      33   -132     87    137    162 165.7  35.5  34138  289.19 0855.25
2009/04/23 09:48:11.6      44   -208     77    213    226 168.0  20.9  34142  289.28 0855.25
2009/04/23 09:48:11.7      39   -174     61    179    190 167.3  18.9  34144  289.30 0855.25
2009/04/23 09:48:11.8     -51   -259     39    265    268 191.1   8.5  34140  289.24 0855.25
2009/04/23 09:48:11.9      17   -222     -4    223    224 175.5  -1.2  34140  289.24 0855.25
2009/04/23 09:48:12.0      71   -237     34    248    251 163.3   8.0  34138  289.20 0855.26
2009/04/23 09:48:12.1      91   -238     33    255    258 159.1   7.5  34142  289.27 0855.26
2009/04/23 09:48:12.2      49   -239     52    245    251 168.4  12.0  34138  289.19 0855.26
2009/04/23 09:48:12.3      77   -202    -12    217    218 159.1  -3.2  34140  289.23 0855.26
2009/04/23 09:48:12.4      92   -165     37    190    194 150.8  11.1  34140  289.24 0855.26
2009/04/23 09:48:12.5      79   -216    -17    231    232 160.0  -4.4  34144  289.30 0855.26
2009/04/23 09:48:12.6      71   -327    170    335    375 167.7  29.2  34136  289.15 0855.26
2009/04/23 09:48:12.7     -74   -326    152    335    367 192.9  26.2  34136  289.16 0855.26
2009/04/23 09:48:12.8     -49   -338    110    342    360 188.3  17.9  34136  289.16 0855.26
2009/04/23 09:48:12.9     -23   -355     93    356    368 183.8  14.7  34132  289.10 0855.26
2009/04/23 09:48:13.0     -78   -408    177    416    452 190.8  24.3  34130  289.05 0855.26
2009/04/23 09:48:13.1     -76   -367    127    375    397 191.8  18.8  34132  289.11 0855.26
2009/04/23 09:48:13.2     -33   -357     43    359    362 185.3   6.9  34136  289.16 0855.26
2009/04/23 09:48:13.3     -21   -346     10    347    348 183.5   1.8  34130  289.08 0855.26
2009/04/23 09:48:13.4     -23   -303    -31    305    307 184.5  -6.0  34132  289.10 0855.26
2009/04/23 09:48:13.5      35   -339    -13    341    342 174.0  -2.2  34132  289.10 0855.26
2009/04/23 09:48:13.6      49   -443     42    446    449 173.7   5.4  34136  289.17 0855.26
2009/04/23 09:48:13.7      87   -523     63    531    535 170.6   6.9  34132  289.09 0855.26
2009/04/23 09:48:13.8       0   -458    -17    459    460 179.9  -2.2  34128  289.04 0855.26
2009/04/23 09:48:13.9      84   -392     -1    402    403 167.9  -0.2  34130  289.08 0855.26
2009/04/23 09:48:14.0     112   -436      9    451    452 165.6   1.2  34132  289.11 0855.28
2009/04/23 09:48:14.1      97   -407     98    419    431 166.5  13.2  34132  289.11 0855.28
2009/04/23 09:48:14.2      63   -404     65    410    416 171.1   9.0  34134  289.12 0855.28
2009/04/23 09:48:14.3     122   -310     65    334    341 158.4  11.1  34132  289.11 0855.28
2009/04/23 09:48:14.4     164   -230    116    283    305 144.4  23.4  34136  289.15 0855.28
2009/04/23 09:48:14.5     154   -240     98    286    303 147.4  18.9  34134  289.14 0855.28
2009/04/23 09:48:14.6      75   -225     42    238    242 161.5  10.1  34136  289.15 0855.28
2009/04/23 09:48:14.7     178   -177     13    252    253 134.8   3.1  34134  289.12 0855.28
2009/04/23 09:48:14.8     205   -167    -20    265    266 129.1  -4.4  34138  289.19 0855.28
2009/04/23 09:48:14.9     184   -310   -117    361    380 149.3 -18.1  34136  289.15 0855.28
2009/04/23 09:48:15.0     172   -326   -107    369    384 152.1 -21.0  34136  289.16 0855.28
2009/04/23 09:48:15.1     158   -259    -58    304    310 148.6 -10.9  34130  289.05 0855.28
2009/04/23 09:48:15.2     231   -252    -13    342    343 137.5  -2.2  34140  289.23 0855.28
2009/04/23 09:48:15.3     243   -220    -77    329    339 132.2 -13.3  34138  289.21 0855.28
2009/04/23 09:48:15.4     253   -253    -65    359    365 135.0 -10.3  34136  289.18 0855.28
2009/04/23 09:48:15.5     274   -273    -94    388    400 134.9 -13.7  34136  289.18 0855.28
2009/04/23 09:48:15.6     241   -354   -119    429    445 145.8 -20.1  34138  289.19 0855.28
2009/04/23 09:48:15.7     303   -322     -1    443    444 136.7  -0.2  34122  288.94 0855.28
2009/04/23 09:48:15.8     356   -398    -92    535    544 138.2  -9.8  34124  288.97 0855.28
2009/04/23 09:48:15.9     425   -438    -81    611    617 135.9  -7.6  34118  288.87 0855.28
2009/04/23 09:48:16.0     401   -408   -136    573    590 135.5 -13.4  34126  288.98 0855.31
2009/04/23 09:48:16.1     410   -327   -156    525    548 128.6 -16.6  34110  288.72 0855.31
2009/04/23 09:48:16.2     457   -355   -218    579    618 127.9 -26.0  34128  289.03 0855.31
2009/04/23 09:48:16.3     404   -336   -294    526    602 129.8 -36.0  34126  288.98 0855.31
2009/04/23 09:48:16.4     372   -422   -194    563    595 138.6 -24.0  34122  288.92 0855.31
2009/04/23 09:48:16.5     261   -410   -201    487    526 147.5 -28.0  34124  288.96 0855.31
2009/04/23 09:48:16.6     244   -301   -112    388    403 141.0 -20.9  34126  289.01 0855.31
2009/04/23 09:48:16.7     257   -273    -96    376    389 136.7 -14.4  34130  289.06 0855.31
2009/04/23 09:48:16.8     285   -349    -24    451    452 140.8  -3.1  34120  288.89 0855.31
2009/04/23 09:48:16.9     193   -426    -98    468    479 155.6 -11.9  34118  288.86 0855.31
2009/04/23 09:48:17.0     239   -497   -112    552    564 154.3 -11.5  34114  288.80 0855.31
2009/04/23 09:48:17.1     179   -481      3    514    515 159.5   0.4  34116  288.81 0855.31
2009/04/23 09:48:17.2     159   -556      7    579    580 164.0   0.7  34120  288.90 0855.31
2009/04/23 09:48:17.3     100   -446   -136    458    478 167.3 -16.6  34110  288.71 0855.31
2009/04/23 09:48:17.4     187   -427   -133    467    485 156.3 -20.7  34116  288.84 0855.31
2009/04/23 09:48:17.5     247   -437   -108    503    515 150.5 -12.2  34104  288.64 0855.31
2009/04/23 09:48:17.6     134   -403    -61    425    430 161.5  -8.2  34116  288.83 0855.31
2009/04/23 09:48:17.7      83   -409    -85    418    427 168.4 -11.5  34118  288.85 0855.31
2009/04/23 09:48:17.8      81   -376   -131    385    406 167.7 -23.8  34120  288.89 0855.31
2009/04/23 09:48:17.9     125   -359   -135    381    404 160.7 -24.7  34122  288.94 0855.31
2009/04/23 09:48:18.0     213   -547    -52    588    591 158.7  -5.1  34094  288.46 0855.33
2009/04/23 09:48:18.1     199   -576   -137    610    626 160.9 -12.7  34096  288.50 0855.33
2009/04/23 09:48:18.2     171   -564    -94    590    598 163.1  -9.1  34108  288.68 0855.33
2009/04/23 09:48:18.3     172   -550    -94    577    585 162.6  -9.3  34102  288.58 0855.33
2009/04/23 09:48:18.4     150   -657     20    675    676 167.1   1.7  34112  288.75 0855.33
2009/04/23 09:48:18.5     114   -729    -36    739    740 171.1  -2.8  34128  289.04 0855.33
2009/04/23 09:48:18.6      46   -739    -32    741    742 176.4  -2.5  34128  289.02 0855.33
2009/04/23 09:48:18.7      -1   -765    -45    766    768 180.1  -3.4  34106  288.65 0855.33
2009/04/23 09:48:18.8     -39   -780    -30    782    783 182.9  -2.2  34104  288.64 0855.33
2009/04/23 09:48:18.9    -149   -729     -3    745    746 191.6  -0.3  34110  288.72 0855.33
2009/04/23 09:48:19.0     -87   -640    -86    646    652 187.8  -7.6  34120  288.91 0855.33
2009/04/23 09:48:19.1    -106   -536   -147    547    567 191.2 -15.1  34126  289.01 0855.33
2009/04/23 09:48:19.2     -31   -507    -99    508    518 183.5 -11.1  34126  289.00 0855.33
2009/04/23 09:48:19.3     -34   -511    -84    513    520 183.9  -9.4  34132  289.10 0855.33
2009/04/23 09:48:19.4      51   -541    -62    544    548 174.6  -6.6  34126  288.99 0855.33
2009/04/23 09:48:19.5      19   -554    -17    555    556 178.0  -1.8  34128  289.02 0855.33
2009/04/23 09:48:19.6      53   -530     -2    533    534 174.2  -0.2  34122  288.92 0855.33
2009/04/23 09:48:19.7      65   -528      6    533    534 172.9   0.7  34122  288.94 0855.33
2009/04/23 09:48:19.8       7   -496     15    497    498 179.2   1.8  34120  288.91 0855.33
2009/04/23 09:48:19.9      65   -516     -2    521    522 172.8  -0.3  34122  288.94 0855.33
2009/04/23 09:48:20.0     108   -562     63    573    577 169.1   6.4  34120  288.90 0855.32
2009/04/23 09:48:20.1      37   -506    -37    508    510 175.8  -4.2  34122  288.93 0855.32
2009/04/23 09:48:20.2      18   -456    -59    457    461 177.7  -7.4  34122  288.94 0855.32
2009/04/23 09:48:20.3      49   -488   -110    491    504 174.2 -12.7  34116  288.84 0855.32
2009/04/23 09:48:20.4      35   -454   -102    456    468 175.5 -12.6  34116  288.82 0855.32
2009/04/23 09:48:20.5      22   -470   -121    471    487 177.3 -14.4  34116  288.81 0855.32
2009/04/23 09:48:20.6      15   -528    -82    529    536 178.3  -8.8  34116  288.82 0855.32
2009/04/23 09:48:20.7      36   -475    -86    477    485 175.7 -10.3  34120  288.88 0855.32
2009/04/23 09:48:20.8      39   -463   -109    465    478 175.1 -13.3  34116  288.81 0855.32
2009/04/23 09:48:20.9      41   -395    -92    398    409 174.0 -13.1  34116  288.83 0855.32
2009/04/23 09:48:21.0      76   -395   -131    403    424 169.0 -18.0  34112  288.75 0855.32
2009/04/23 09:48:21.1     101   -397   -116    410    427 165.7 -15.8  34112  288.75 0855.32
2009/04/23 09:48:21.2     102   -371   -120    385    404 164.6 -17.3  34106  288.66 0855.32
2009/04/23 09:48:21.3     123   -369   -109    390    406 161.5 -15.7  34110  288.74 0855.32
2009/04/23 09:48:21.4      11   -385   -102    386    400 178.3 -14.8  34112  288.77 0855.32
2009/04/23 09:48:21.5     -18   -285   -148    286    322 183.8 -34.0  34108  288.68 0855.32
2009/04/23 09:48:21.6      58   -264    -64    271    279 167.5 -13.4  34114  288.80 0855.32
2009/04/23 09:48:21.7      84   -232    -83    248    262 160.0 -18.6  34112  288.76 0855.32
2009/04/23 09:48:21.8      55   -238    -50    245    251 166.9 -11.6  34108  288.70 0855.32
2009/04/23 09:48:21.9      32   -282    -81    284    295 173.5 -20.7  34108  288.70 0855.32
2009/04/23 09:48:22.0      -1   -368    -77    369    378 180.2 -11.9  34106  288.66 0855.32
2009/04/23 09:48:22.1     -88   -333    -70    345    353 194.8 -11.6  34102  288.60 0855.32
2009/04/23 09:48:22.2     -50   -247    -66    253    262 191.6 -14.7  34116  288.81 0855.32
2009/04/23 09:48:22.3    -102   -297    -84    315    327 199.1 -15.1  34118  288.85 0855.32
2009/04/23 09:48:22.4     -86   -285    -43    298    302 196.9  -8.2  34114  288.80 0855.32
2009/04/23 09:48:22.5     -91   -320   -116    333    353 195.9 -19.3  34116  288.81 0855.32
2009/04/23 09:48:22.6    -106   -339   -111    356    372 197.4 -22.2  34106  288.67 0855.32
2009/04/23 09:48:22.7    -142   -280   -109    315    333 207.0 -24.3  34110  288.73 0855.32
2009/04/23 09:48:22.8    -160   -269    -34    314    316 210.8  -6.3  34106  288.66 0855.32
2009/04/23 09:48:22.9    -140   -246   -116    284    306 209.6 -27.5  34114  288.78 0855.32
2009/04/23 09:48:23.0    -132   -339   -130    364    387 201.3 -19.7  34102  288.60 0855.34
2009/04/23 09:48:23.1     -59   -320   -135    326    352 190.6 -28.1  34106  288.66 0855.34
2009/04/23 09:48:23.2     -34   -325   -149    327    359 186.0 -30.6  34104  288.62 0855.34
2009/04/23 09:48:23.3     -33   -307    -91    309    323 186.3 -16.4  34104  288.61 0855.34
2009/04/23 09:48:23.4     -20   -318    -94    319    332 183.6 -21.2  34106  288.65 0855.34
2009/04/23 09:48:23.5       7   -297   -104    298    316 178.6 -19.4  34106  288.65 0855.34
2009/04/23 09:48:23.6     -11   -374    -60    375    380 181.7  -9.1  34106  288.66 0855.34
2009/04/23 09:48:23.7      -4   -289    -53    290    295 180.9 -10.5  34108  288.70 0855.34
2009/04/23 09:48:23.8      21   -221    -91    223    240 174.4 -27.8  34108  288.68 0855.34
2009/04/23 09:48:23.9      33   -215   -209    218    302 171.3 -53.4  34110  288.73 0855.34
2009/04/23 09:48:24.0    -214     13   -243    215    324 273.7 -58.6  34116  288.83 0855.34
2009/04/23 09:48:24.1    -271     33   -346    274    441 277.1 -62.1  34122  288.93 0855.34
2009/04/23 09:48:24.2    -332   -149   -324    364    487 245.8 -50.7  34108  288.70 0855.34
2009/04/23 09:48:24.3    -289   -174   -274    338    435 238.9 -47.5  34114  288.78 0855.34
2009/04/23 09:48:24.4    -290    -58   -305    296    425 258.5 -55.5  34116  288.82 0855.34
2009/04/23 09:48:24.5    -165   -103   -258    195    323 238.0 -63.6  34120  288.90 0855.34
2009/04/23 09:48:24.6    -106    -93   -243    142    281 228.7 -71.2  34116  288.83 0855.34
2009/04/23 09:48:24.7     -63   -234   -246    243    345 195.1 -54.6  34116  288.81 0855.34
2009/04/23 09:48:24.8     -16   -332   -240    333    410 182.9 -43.9  34118  288.86 0855.34
2009/04/23 09:48:24.9      -8   -461   -154    462    486 181.0 -23.6  34114  288.79 0855.34
2009/04/23 09:48:25.0       8   -563   -193    564    597 179.1 -19.0  34110  288.73 0855.33
2009/04/23 09:48:25.1      55   -483    -89    487    496 173.4 -10.4  34108  288.69 0855.33
2009/04/23 09:48:25.2     -17   -443     16    444    445 182.3   2.1  34106  288.67 0855.33
2009/04/23 09:48:25.3     -44   -516     12    519    520 184.9   1.4  34106  288.66 0855.33
2009/04/23 09:48:25.4      12   -491    -47    492    495 178.5  -5.5  34110  288.74 0855.33
2009/04/23 09:48:25.5     -20   -380    -17    381    382 183.0  -2.6  34110  288.71 0855.33
2009/04/23 09:48:25.6      16   -462     40    463    465 178.0   5.0  34110  288.73 0855.33
2009/04/23 09:48:25.7      86   -447     43    456    459 169.1   5.5  34110  288.72 0855.33
2009/04/23 09:48:25.8     200   -421    -18    467    468 154.5  -2.2  34112  288.76 0855.33
2009/04/23 09:48:25.9     271   -319    143    419    443 139.6  18.9  34104  288.61 0855.33
2009/04/23 09:48:26.0     259   -329    120    420    437 141.8  16.0  34108  288.68 0855.33
2009/04/23 09:48:26.1     177   -343    138    387    410 152.7  20.3  34104  288.61 0855.33
2009/04/23 09:48:26.2     138   -292    173    323    366 154.7  30.6  34104  288.64 0855.33
2009/04/23 09:48:26.3     159   -313    110    352    369 153.0  17.4  34110  288.74 0855.33
2009/04/23 09:48:26.4     169   -297     80    342    352 150.4  13.2  34102  288.59 0855.33
2009/04/23 09:48:26.5     142   -336    128    365    387 157.1  19.4  34106  288.66 0855.33
2009/04/23 09:48:26.6      94   -320    141    334    362 163.5  24.3  34108  288.69 0855.33
2009/04/23 09:48:26.7     109   -299    141    319    348 160.0  25.6  34126  288.98 0855.33
2009/04/23 09:48:26.8      22   -292    178    293    342 175.6  34.2  34110  288.73 0855.33
2009/04/23 09:48:26.9       8   -269    164    270    315 178.2  34.2  34114  288.78 0855.33
2009/04/23 09:48:27.0      52   -299    133    304    331 170.0  25.0  34114  288.80 0855.30
2009/04/23 09:48:27.1      28   -304    151    306    341 174.7  28.2  34110  288.74 0855.30
2009/04/23 09:48:27.2     -54   -280    149    286    322 190.9  29.6  34106  288.66 0855.30
2009/04/23 09:48:27.3     -58   -315    203    321    379 190.5  35.5  34116  288.81 0855.30
2009/04/23 09:48:27.4    -140   -203     99    247    266 214.7  23.0  34120  288.88 0855.30
2009/04/23 09:48:27.5     -77   -193     75    209    222 201.8  20.7  34118  288.86 0855.30
2009/04/23 09:48:27.6    -110   -210    116    238    264 207.6  27.8  34116  288.81 0855.30
2009/04/23 09:48:27.7    -117   -255    109    281    301 204.7  22.3  34114  288.80 0855.30
2009/04/23 09:48:27.8    -126   -271    117    299    321 204.9  22.5  34116  288.81 0855.30
2009/04/23 09:48:27.9    -153   -219    100    268    286 215.0  21.3  34116  288.83 0855.30
2009/04/23 09:48:28.0     -96   -273    148    290    325 199.4  29.2  34110  288.71 0855.30
2009/04/23 09:48:28.1     -24   -239     64    241    250 185.8  15.0  34114  288.80 0855.30
2009/04/23 09:48:28.2      22   -267     92    269    285 175.1  18.9  34110  288.73 0855.30
2009/04/23 09:48:28.3      70   -278     56    287    293 165.7  11.1  34112  288.76 0855.30
2009/04/23 09:48:28.4      52   -280     73    285    295 169.4  14.5  34114  288.80 0855.30
2009/04/23 09:48:28.5      44   -245     48    249    254 169.8  11.0  34106  288.66 0855.30
2009/04/23 09:48:28.6     134   -195     69    237    247 145.5  16.3  34114  288.80 0855.30
2009/04/23 09:48:28.7      21   -225    -76    227    239 174.7 -23.6  34108  288.70 0855.30
2009/04/23 09:48:28.8      70   -320     62    328    334 167.5  10.8  34112  288.77 0855.30
2009/04/23 09:48:28.9      49   -242    -28    248    250 168.4  -6.5  34114  288.78 0855.30
2009/04/23 09:48:29.0      78   -235    -29    248    250 161.5  -6.9  34112  288.76 0855.29
2009/04/23 09:48:29.1      54   -123    -45    135    143 156.4 -18.7  34112  288.77 0855.29
2009/04/23 09:48:29.2      32    -84     57     91    107 159.1  35.5  34114  288.80 0855.29
2009/04/23 09:48:29.3       8    -81    112     82    138 174.2  60.5  34118  288.87 0855.29
2009/04/23 09:48:29.4     -54   -106     68    120    137 207.2  31.9  34116  288.84 0855.29
2009/04/23 09:48:29.5    -134   -143     88    197    215 223.2  25.7  34116  288.82 0855.29
2009/04/23 09:48:29.6    -203   -116      7    235    236 240.2   1.8  34116  288.83 0855.29
2009/04/23 09:48:29.7    -228   -136    -26    266    268 239.3  -5.6  34114  288.78 0855.29
2009/04/23 09:48:29.8    -141   -109    -75    179    194 232.2 -28.2  34116  288.84 0855.29
2009/04/23 09:48:29.9     -45    -25    -92     52    105 240.2 -72.7  34118  288.86 0855.29
2009/04/23 09:48:30.0     -68   -102    -74    123    143 213.8 -38.4  34112  288.75 0855.29
2009/04/23 09:48:30.1    -132    -63    -70    147    162 244.6 -31.6  34116  288.84 0855.29
2009/04/23 09:48:30.2    -198     -5    -81    199    214 268.3 -27.5  34116  288.82 0855.29
2009/04/23 09:48:30.3    -211    -57    -73    219    230 254.9 -23.6  34116  288.84 0855.29
2009/04/23 09:48:30.4    -201    -95     -8    223    224 244.5  -2.2  34118  288.86 0855.29
2009/04/23 09:48:30.5     -23   -120     90    123    152 191.1  39.7  34116  288.82 0855.29
2009/04/23 09:48:30.6     -44   -134     12    142    143 198.3   5.0  34114  288.79 0855.29
2009/04/23 09:48:30.7    -114    -82     51    141    149 234.0  20.4  34114  288.80 0855.29
2009/04/23 09:48:30.8    -257      7     36    258    261 271.7   8.0  34138  289.19 0855.29
2009/04/23 09:48:30.9    -291    -20     57    292    298 265.9  11.1  34134  289.12 0855.29
2009/04/23 09:48:31.0    -260    -17     31    261    263 266.1   6.9  34136  289.15 0855.30
2009/04/23 09:48:31.1    -253    -19    -73    254    265 265.7 -16.0  34130  289.05 0855.30
2009/04/23 09:48:31.2    -215   -101    -89    238    254 244.7 -25.7  34128  289.02 0855.30
2009/04/23 09:48:31.3    -152    -12    -55    153    162 265.2 -24.8  34134  289.14 0855.30
2009/04/23 09:48:31.4    -144     28   -101    147    178 281.0 -42.4  34126  289.01 0855.30
2009/04/23 09:48:31.5    -163     76    -51    181    188 295.1 -20.4  34114  288.80 0855.30
2009/04/23 09:48:31.6    -253     50    -27    258    260 281.2  -6.1  34100  288.54 0855.30
2009/04/23 09:48:31.7    -292     30     29    294    296 275.9   5.7  34102  288.58 0855.30
2009/04/23 09:48:31.8    -213      9    -51    214    221 272.6 -13.4  34112  288.77 0855.30
2009/04/23 09:48:31.9    -128    -34    -82    133    156 254.9 -39.9  34118  288.87 0855.30
2009/04/23 09:48:32.0    -223    -22    -70    225    236 264.3 -17.3  34116  288.84 0855.30
2009/04/23 09:48:32.1    -212     11    -62    213    222 273.0 -16.4  34116  288.84 0855.30
2009/04/23 09:48:32.2    -176     90   -114    198    228 297.1 -37.1  34108  288.70 0855.30
2009/04/23 09:48:32.3    -232     16   -162    233    283 274.1 -42.4  34106  288.65 0855.30
2009/04/23 09:48:32.4    -214    -23   -124    216    249 263.6 -36.8  34108  288.70 0855.30
2009/04/23 09:48:32.5    -111    -83    -89    139    165 233.1 -40.0  34108  288.70 0855.30
2009/04/23 09:48:32.6      -7   -103    -97    104    142 184.4 -52.3  34116  288.82 0855.30
2009/04/23 09:48:32.7     -14    -82   -115     84    142 190.2 -64.9  34114  288.80 0855.30
2009/04/23 09:48:32.8       6    -32   -122     33    126 168.5 -89.3  34118  288.86 0855.30
2009/04/23 09:48:32.9      93    -30   -147     98    176 108.2 -67.8  34114  288.80 0855.30
2009/04/23 09:48:33.0      65     -9   -116     66    133  98.0 -71.6  34114  288.79 0855.29
2009/04/23 09:48:33.1      27    -37    -69     46     82 143.9 -67.6  34112  288.75 0855.29
2009/04/23 09:48:33.2     -71      0    -38     72     81 270.0 -34.7  34110  288.72 0855.29
2009/04/23 09:48:33.3     -56     22    -41     61     73 291.7 -40.9  34112  288.75 0855.29
2009/04/23 09:48:33.5     -54      6    -60     55     81 277.0 -57.1  34116  288.84 0855.29
2009/04/23 09:48:33.5     -48     15    -47     51     69 287.7 -52.3  34116  288.82 0855.29
2009/04/23 09:48:33.6     -54     13    -39     56     68 284.2 -43.0  34112  288.75 0855.29
2009/04/23 09:48:33.7     -48      7    -11     49     51 278.8 -13.4  34114  288.79 0855.29
2009/04/23 09:48:33.8     -48     48     -3     68     69 314.9  -3.2  34114  288.79 0855.29
2009/04/23 09:48:34.0     -66     42    -31     79     84 302.5 -26.4  34110  288.74 0855.29
2009/04/23 09:48:34.1     -22     47     17     53     56 334.6  18.4  34112  288.77 0855.29
2009/04/23 09:48:34.2      -7     44     26     45     51 350.2  32.4  34114  288.80 0855.29
2009/04/23 09:48:34.3      26      7     39     27     47  74.9  62.6  34128  289.02 0855.29
2009/04/23 09:48:34.4      55      4     34     56     65  85.7  35.5  34120  288.91 0855.29
2009/04/23 09:48:34.5      65      0     19     66     69  90.0  16.3  34116  288.84 0855.29
2009/04/23 09:48:34.6      72     40     21     83     86  61.1  14.3  34112  288.77 0855.29
2009/04/23 09:48:34.7      46     85      3     97     98  28.5   1.8  34112  288.77 0855.29
2009/04/23 09:48:34.8      23     70      3     74     75  18.5   2.9  34112  288.75 0855.29
2009/04/23 09:48:34.9      35     81    -24     89     93  23.6 -15.5  34112  288.77 0855.29
2009/04/23 09:48:35.0      19     61    -14     65     67  17.8 -12.4  34110  288.74 0855.29
2009/04/23 09:48:35.1      22    -22    -17     32     36 135.0 -33.7  34112  288.75 0855.30
2009/04/23 09:48:35.2      34    -76    -33     84     90 155.5 -26.4  34110  288.72 0855.30
2009/04/23 09:48:35.3       8    -60     -7     61     62 172.0  -7.2  34110  288.74 0855.30
2009/04/23 09:48:35.4       1    -56      6     57     58 178.2   6.9  34114  288.79 0855.30
2009/04/23 09:48:35.5     -14    -36     38     39     54 201.8  51.1  34122  288.92 0855.30
2009/04/23 09:48:35.6      20    -21     57     30     64 136.8  69.8  34134  289.13 0855.30
2009/04/23 09:48:35.7      76    -22     21     80     83 106.4  15.3  34120  288.89 0855.30
2009/04/23 09:48:35.8     119      5     47    120    128  87.4  22.5  34110  288.72 0855.30
2009/04/23 09:48:35.9     115    -20     61    117    131 100.1  29.3  34112  288.75 0855.30
2009/04/23 09:48:36.0      87    -35     41     94    102 112.2  24.6  34114  288.79 0855.30
2009/04/23 09:48:36.1      41    -31     26     52     58 127.8  28.2  34118  288.87 0855.30
2009/04/23 09:48:36.2     -16    -21      9     27     29 217.8  19.4  34124  288.97 0855.30
2009/04/23 09:48:36.3     -23    -41     -5     48     49 209.9  -6.2  34122  288.92 0855.30
2009/04/23 09:48:36.4     -12    -34     -2     37     38 200.0  -3.1  34120  288.89 0855.30
2009/04/23 09:48:36.5     -14    -33     -4     37     38 203.6  -7.2  34116  288.84 0855.30
2009/04/23 09:48:36.6      -2    -39      1     40     41 183.6   1.8  34114  288.80 0855.30
2009/04/23 09:48:36.7       7    -37      0     38     39 168.4  -1.3  34112  288.77 0855.30
2009/04/23 09:48:36.8      17    -42    -10     46     48 157.3 -12.4  34110  288.74 0855.30
2009/04/23 09:48:36.9      39     -4     -8     40     41  97.0 -12.4  34110  288.74 0855.30
2009/04/23 09:48:37.0      29     -9      0     31     32 108.2  -1.3  34114  288.79 0855.30
2009/04/23 09:48:37.1      47      0     16     48     51  90.0  18.4  34112  288.77 0855.25
2009/04/23 09:48:37.2      55     15     32     58     66  74.1  31.4  34112  288.77 0855.25
2009/04/23 09:48:37.3      43     18     42     47     63  66.5  47.9  34112  288.77 0855.25
2009/04/23 09:48:37.4      26     26     51     37     63  45.1  60.5  34122  288.94 0855.25
2009/04/23 09:48:37.5      50     10     59     52     78  78.5  53.7  34120  288.91 0855.25
2009/04/23 09:48:37.6      69    -10     70     70     98  98.8  50.1  34122  288.94 0855.25
2009/04/23 09:48:37.7      93    -17     76     95    121 100.6  42.7  34122  288.94 0855.25
2009/04/23 09:48:37.8      55    -50     78     75    108 132.2  51.2  34118  288.87 0855.25
2009/04/23 09:48:37.9      31    -31    112     44    120 135.0  77.1  34128  289.02 0855.25
2009/04/23 09:48:38.0      64    -29     60     71     92 114.4  44.3  34126  288.99 0855.25
2009/04/23 09:48:38.1       5    -96    130     97    162 176.9  59.4  34118  288.87 0855.25
2009/04/23 09:48:38.2     -72   -207    191    220    291 199.2  45.6  34112  288.75 0855.25
2009/04/23 09:48:38.3    -118   -221    151    251    292 208.3  33.7  34110  288.73 0855.25
2009/04/23 09:48:38.4    -131   -186    156    228    276 215.2  37.6  34110  288.73 0855.25
2009/04/23 09:48:38.5     -10   -177    189    178    259 183.4  52.1  34124  288.95 0855.25
2009/04/23 09:48:38.6      89   -270    189    285    341 161.7  36.6  34114  288.80 0855.25
2009/04/23 09:48:38.7       0   -239    139    240    277 180.0  32.7  34116  288.83 0855.25
2009/04/23 09:48:38.8      83   -142    151    165    223 149.5  47.9  34120  288.89 0855.25
2009/04/23 09:48:38.9      23   -115    126    118    172 168.5  52.0  34126  288.99 0855.25
2009/04/23 09:48:39.0      -8   -127    113    128    170 183.6  45.8  34120  288.91 0855.25
2009/04/23 09:48:39.1     -28   -224     83    226    240 187.3  20.9  34120  288.90 0855.26
2009/04/23 09:48:39.2      22   -133     36    135    140 170.2  15.3  34120  288.89 0855.26
2009/04/23 09:48:39.3     -60   -110    102    126    162 208.9  43.3  34118  288.87 0855.26
2009/04/23 09:48:39.4     -46   -146     76    154    171 197.4  28.0  34118  288.87 0855.26
2009/04/23 09:48:39.5     -17    -29     37     34     50 210.7  53.3  34126  288.99 0855.26
2009/04/23 09:48:39.6     -41    -15     49     44     65 250.0  52.2  34124  288.97 0855.26
2009/04/23 09:48:39.7      -5      5     48      8     48 315.0  90.0  34126  289.01 0855.26
2009/04/23 09:48:39.8     -40      1     55     41     68 272.6  58.5  34126  289.01 0855.26
2009/04/23 09:48:39.9    -110     26      5    114    115 283.3   2.8  34116  288.84 0855.26
2009/04/23 09:48:40.0    -110     43     37    119    125 291.3  17.4  34114  288.79 0855.26
2009/04/23 09:48:40.1     -96    120      7    154    155 321.3   2.9  34114  288.80 0855.26
2009/04/23 09:48:40.2     -58     70    -32     92     97 320.4 -23.3  34114  288.80 0855.26
2009/04/23 09:48:40.3     -53     89     54    104    117 329.3  29.3  34116  288.82 0855.26
2009/04/23 09:48:40.4     -35    -30    107     47    116 229.6  75.0  34128  289.04 0855.26
2009/04/23 09:48:40.5     -34    -48      3     59     60 215.2   3.8  34126  288.99 0855.26
2009/04/23 09:48:40.6     -91    -67     54    114    126 233.6  27.2  34124  288.96 0855.26
2009/04/23 09:48:40.7     -73    -50     54     89    104 235.4  34.4  34122  288.92 0855.26
2009/04/23 09:48:40.8    -111    -82     14    139    140 233.6   5.9  34118  288.87 0855.26
2009/04/23 09:48:40.9    -123    -78     45    146    153 237.6  17.3  34118  288.87 0855.26
2009/04/23 09:48:41.0     -60   -150     90    162    185 201.8  31.4  34120  288.91 0855.26
2009/04/23 09:48:41.1     -17   -219     12    220    221 184.5   3.1  34116  288.82 0855.27
2009/04/23 09:48:41.2    -135   -186     24    230    232 216.0   6.0  34116  288.84 0855.27
2009/04/23 09:48:41.3    -454   -201   -230    497    547 246.0 -30.9  34120  288.89 0855.27
2009/04/23 09:48:41.4    -647   -380    -29    751    752 239.6  -2.3  34116  288.84 0855.27
2009/04/23 09:48:41.5    -549   -314    -75    633    638 240.2  -6.8  34096  288.50 0855.27
2009/04/23 09:48:41.6    -578   -330   -183    666    691 240.3 -15.4  34098  288.51 0855.27
2009/04/23 09:48:41.7    -571   -314   -153    652    670 241.1 -13.3  34096  288.50 0855.27
2009/04/23 09:48:41.8    -570   -255   -213    625    661 245.9 -18.8  34100  288.54 0855.27
2009/04/23 09:48:41.9    -568   -237   -194    616    646 247.3 -17.5  34100  288.57 0855.27
2009/04/23 09:48:42.0    -605   -284    -85    669    675 244.8  -7.3  34104  288.61 0855.27
2009/04/23 09:48:42.1    -555   -258   -103    613    622 245.1  -9.6  34094  288.47 0855.27
2009/04/23 09:48:42.2    -585   -218   -109    625    635 249.5  -9.9  34092  288.43 0855.27
2009/04/23 09:48:42.3    -524   -191   -127    558    573 250.0 -12.9  34096  288.50 0855.27
2009/04/23 09:48:42.4    -585   -290    -83    653    659 243.6  -7.3  34102  288.60 0855.27
2009/04/23 09:48:42.5    -540   -368    -13    654    655 235.7  -1.2  34100  288.55 0855.27
2009/04/23 09:48:42.6    -520   -342     -2    623    624 236.7  -0.3  34100  288.55 0855.27
2009/04/23 09:48:42.7    -464    -64   -185    469    504 262.1 -27.1  34102  288.59 0855.27
2009/04/23 09:48:42.8    -481   -157   -140    507    525 251.9 -20.0  34098  288.52 0855.27
2009/04/23 09:48:42.9    -412    -54    -89    416    426 262.5 -12.2  34096  288.50 0855.27
2009/04/23 09:48:43.0    -516     38   -174    518    547 274.3 -18.6  34102  288.60 0855.27
2009/04/23 09:48:43.1    -548      0   -158    549    571 270.0 -20.8  34102  288.58 0855.29
2009/04/23 09:48:43.2    -532    -19   -190    533    565 267.9 -24.8  34100  288.55 0855.29
2009/04/23 09:48:43.3    -471    -46   -174    474    504 264.4 -25.4  34098  288.51 0855.29
2009/04/23 09:48:43.4    -421    -58   -145    425    449 262.1 -23.8  34102  288.58 0855.29
2009/04/23 09:48:43.5    -377    -63   -173    383    420 260.4 -30.6  34100  288.56 0855.29
2009/04/23 09:48:43.6    -328    -37   -184    331    378 263.4 -35.8  34096  288.49 0855.29
2009/04/23 09:48:43.7    -289    -40   -168    292    336 262.1 -37.0  34100  288.54 0855.29
2009/04/23 09:48:43.8    -274    -16   -169    275    322 266.5 -39.0  34100  288.56 0855.29
2009/04/23 09:48:43.9    -282     39   -146    285    320 278.0 -33.6  34100  288.54 0855.29
2009/04/23 09:48:44.0    -271     51   -157    276    317 280.8 -36.5  34098  288.53 0855.29
2009/04/23 09:48:44.1    -227     22    -91    229    246 275.7 -27.4  34100  288.54 0855.29
2009/04/23 09:48:44.2    -177     21   -143    179    229 276.8 -47.4  34100  288.55 0855.29
2009/04/23 09:48:44.3     -96     21   -124     99    158 282.8 -61.9  34100  288.55 0855.29
2009/04/23 09:48:44.4      59     23    -42     64     76  68.3 -40.0  34104  288.62 0855.29
2009/04/23 09:48:44.5     103    103     12    147    148  45.0   5.0  34106  288.65 0855.29
2009/04/23 09:48:44.6       1     80     49     81     94   0.9  35.0  34106  288.65 0855.29
2009/04/23 09:48:44.7      -2     -3    -56      4     56 212.5 -90.0  34104  288.62 0855.29
2009/04/23 09:48:44.8     -42    -34    -74     55     92 230.5 -63.8  34106  288.67 0855.29
2009/04/23 09:48:44.9     -61    -53    -67     82    105 229.1 -48.1  34104  288.64 0855.29
2009/04/23 09:48:45.0    -110    -85    -68    140    155 232.2 -31.7  34100  288.57 0855.29
2009/04/23 09:48:45.1    -145    -98    -91    176    198 236.0 -33.7  34100  288.55 0855.29
2009/04/23 09:48:45.2    -158    -86    -60    180    189 241.4 -23.6  34104  288.64 0855.29
2009/04/23 09:48:45.3    -166    -57    -25    176    178 250.9  -8.2  34102  288.58 0855.29
2009/04/23 09:48:45.4    -135    -55   -105    146    179 247.8 -43.9  34104  288.62 0855.29
2009/04/23 09:48:45.5    -120     79     22    144    146 303.3   9.0  34096  288.50 0855.29
2009/04/23 09:48:45.6    -253     95     28    271    273 290.6   5.9  34106  288.65 0855.29
2009/04/23 09:48:45.7    -299     27    -34    301    303 275.2  -6.5  34102  288.59 0855.29
2009/04/23 09:48:45.8    -224    -11    -79    225    239 267.0 -19.4  34102  288.59 0855.29
2009/04/23 09:48:45.9    -148    -30    -28    151    154 258.5 -10.5  34104  288.62 0855.29
2009/04/23 09:48:46.0    -137    -33    -78    142    162 256.3 -35.4  34100  288.55 0855.29
2009/04/23 09:48:46.1    -108    -16    -97    110    146 261.2 -50.3  34104  288.64 0855.30
2009/04/23 09:48:46.2    -113    -23    -69    116    134 258.5 -37.9  34104  288.64 0855.30
2009/04/23 09:48:46.3    -109     26    -44    113    121 283.7 -26.9  34102  288.60 0855.30
2009/04/23 09:48:46.4    -180     48    -73    187    200 285.0 -26.9  34104  288.62 0855.30
2009/04/23 09:48:46.5    -174     57    -60    184    194 288.2 -18.1  34104  288.64 0855.30
2009/04/23 09:48:46.6    -166     41    -72    172    186 283.9 -28.5  34104  288.62 0855.30
2009/04/23 09:48:46.7    -151     15    -67    152    166 275.7 -29.7  34110  288.72 0855.30
2009/04/23 09:48:46.8    -134     13    -47    135    142 275.7 -23.8  34112  288.77 0855.30
2009/04/23 09:48:46.9    -107      0    -26    108    112 270.0 -13.9  34112  288.75 0855.30
2009/04/23 09:48:47.0     -82     -7     -3     83     84 264.8  -2.2  34118  288.87 0855.30
2009/04/23 09:48:47.1     -53    -33      7     63     64 237.6   7.1  34122  288.94 0855.30
2009/04/23 09:48:47.2      -7    -42     -8     43     44 189.8 -11.3  34124  288.97 0855.30
2009/04/23 09:48:47.3      16    -53    -42     56     70 163.1 -45.1  34124  288.96 0855.30
2009/04/23 09:48:47.4       0    -58    -44     59     73 180.0 -45.1  34118  288.86 0855.30
2009/04/23 09:48:47.5      -6    -77     -3     78     79 184.5  -2.6  34116  288.84 0855.30
2009/04/23 09:48:47.6      -1    -78     11     79     80 180.9   8.5  34122  288.92 0855.30
2009/04/23 09:48:47.7      -8   -102     -5    103    104 184.9  -3.2  34122  288.94 0855.30
2009/04/23 09:48:47.8       0   -104    -28    105    109 179.5 -15.4  34124  288.96 0855.30
2009/04/23 09:48:47.9     -24    -86    -14     90     92 195.6  -8.8  34130  289.08 0855.30
2009/04/23 09:48:48.0     -63    -63     16     90     92 225.0  10.1  34134  289.13 0855.30
2009/04/23 09:48:48.1     -93    -68     21    116    118 234.0  10.6  34138  289.21 0855.30
2009/04/23 09:48:48.2      -6    -78     42     79     89 184.4  30.3  34134  289.13 0855.30
2009/04/23 09:48:48.3       8   -102     20    103    105 175.5  11.1  34134  289.14 0855.30
2009/04/23 09:48:48.4     -14   -134    -10    135    136 186.2  -4.6  34136  289.18 0855.30
2009/04/23 09:48:48.5     -13   -175    -48    176    182 184.5 -20.0  34118  288.87 0855.30
2009/04/23 09:48:48.6      11   -176    -23    177    179 176.4  -7.7  34122  288.94 0855.30
2009/04/23 09:48:48.7       2   -170    -42    171    177 179.1 -13.9  34112  288.75 0855.30
2009/04/23 09:48:48.8      25   -188    -70    190    202 172.2 -25.4  34110  288.72 0855.30
2009/04/23 09:48:48.9       2   -165   -102    166    194 179.1 -39.4  34112  288.75 0855.30
2009/04/23 09:48:49.0       2   -142    -94    143    171 179.1 -40.7  34112  288.75 0855.30
2009/04/23 09:48:49.1      23   -138    -94    141    169 170.2 -41.1  34108  288.70 0855.30
2009/04/23 09:48:49.2      24    -96    -78    100    126 165.7 -46.1  34112  288.75 0855.30
2009/04/23 09:48:49.3      58    -98    -52    115    126 149.3 -30.1  34112  288.77 0855.30
2009/04/23 09:48:49.4      83    -69    -23    109    112 129.6 -11.9  34112  288.75 0855.30
2009/04/23 09:48:49.5     102    -70    -12    125    126 124.6  -5.6  34114  288.79 0855.30
2009/04/23 09:48:49.6      76    -76     17    108    110 135.0   9.0  34110  288.74 0855.30
2009/04/23 09:48:49.7      22   -132     46    134    142 170.3  18.9  34104  288.64 0855.30
2009/04/23 09:48:49.8     -37   -155    116    160    197 193.4  39.7  34110  288.72 0855.30
2009/04/23 09:48:49.9      -8   -124     83    125    150 184.0  36.5  34110  288.74 0855.30
2009/04/23 09:48:50.0      -2   -113    105    114    154 181.4  47.9  34114  288.79 0855.30
2009/04/23 09:48:50.1      49    -83     86     97    129 149.3  45.8  34114  288.79 0855.32
2009/04/23 09:48:50.2      59   -100    108    117    159 149.3  47.7  34122  288.94 0855.32
2009/04/23 09:48:50.3     127    -45    125    135    183 109.5  47.9  34162  289.62 0855.32
2009/04/23 09:48:50.4     128    -86    104    155    186 124.1  36.7  34152  289.45 0855.32
2009/04/23 09:48:50.5      -7    -82    125     83    150 184.9  63.6  34148  289.38 0855.32
2009/04/23 09:48:50.6     -11    -57    114     59    128 191.5  71.0  34130  289.06 0855.32
2009/04/23 09:48:50.7      56     -4     98     57    113  94.3  66.8  34130  289.08 0855.32
2009/04/23 09:48:50.8     103   -160     82    191    207 147.0  24.9  34116  288.82 0855.32
2009/04/23 09:48:50.9      80   -239     80    253    266 161.5  17.7  34106  288.66 0855.32
2009/04/23 09:48:51.0      62   -205     80    215    229 163.0  21.0  34108  288.70 0855.32
2009/04/23 09:48:51.1      47   -230    107    235    258 168.4  26.2  34112  288.75 0855.32
2009/04/23 09:48:51.2      94   -161     76    187    201 149.7  23.1  34112  288.75 0855.32
2009/04/23 09:48:51.3     139   -133     78    193    208 133.6  23.0  34108  288.70 0855.32
2009/04/23 09:48:51.4     112   -147     36    186    190 142.6  11.1  34110  288.72 0855.32
2009/04/23 09:48:51.5      64   -182     73    194    207 160.6  21.5  34112  288.75 0855.32
2009/04/23 09:48:51.6     112   -129    102    171    199 139.0  33.5  34118  288.86 0855.32
2009/04/23 09:48:51.7      24   -101     65    104    122 166.2  35.0  34114  288.80 0855.32
2009/04/23 09:48:51.8     -16    -62     88     65    109 194.3  60.5  34114  288.79 0855.32
2009/04/23 09:48:51.9       0    -77    104     78    130 180.0  59.0  34116  288.84 0855.32
2009/04/23 09:48:52.0     -33    -97     82    103    131 198.7  43.3  34114  288.80 0855.32
2009/04/23 09:48:52.1    -125   -127     82    179    196 224.5  26.2  34122  288.92 0855.33
2009/04/23 09:48:52.2     -76   -160    172    178    247 205.3  49.0  34122  288.92 0855.33
2009/04/23 09:48:52.3     -29   -201    171    204    266 188.2  44.1  34124  288.97 0855.33
2009/04/23 09:48:52.4    -101   -208    130    232    265 205.9  31.6  34134  289.14 0855.33
2009/04/23 09:48:52.5     -67   -146    160    161    226 204.9  50.0  34118  288.87 0855.33
2009/04/23 09:48:52.6     -71   -129    145    148    207 209.0  49.8  34114  288.79 0855.33
2009/04/23 09:48:52.7     -46   -229    135    234    270 191.5  32.4  34112  288.75 0855.33
2009/04/23 09:48:52.8     -27   -195    137    197    239 188.0  38.4  34110  288.74 0855.33
2009/04/23 09:48:52.9     -49   -269    102    274    292 190.5  21.3  34106  288.66 0855.33
2009/04/23 09:48:53.0     -69   -305    130    313    338 192.9  23.7  34106  288.66 0855.33
2009/04/23 09:48:53.1     -17   -228    170    229    285 184.4  40.4  34108  288.70 0855.33
2009/04/23 09:48:53.2     -41   -301    145    304    336 187.8  27.3  34108  288.70 0855.33
2009/04/23 09:48:53.3    -129   -313    134    339    364 202.5  22.8  34104  288.62 0855.33
2009/04/23 09:48:53.4    -146   -308    156    341    374 205.4  26.3  34110  288.71 0855.33
2009/04/23 09:48:53.5    -276   -176     24    328    329 237.5   4.2  34112  288.77 0855.33
2009/04/23 09:48:53.6    -227   -148    -41    272    276 236.9  -8.6  34114  288.80 0855.33
2009/04/23 09:48:53.7    -285   -217    -82    359    369 232.7 -12.9  34110  288.74 0855.33
2009/04/23 09:48:53.8    -307   -183    -41    358    361 239.3  -6.6  34120  288.91 0855.33
2009/04/23 09:48:53.9    -352   -286     50    454    457 230.9   6.4  34112  288.75 0855.33
2009/04/23 09:48:54.0    -196   -296    178    356    398 213.5  28.6  34102  288.59 0855.33
2009/04/23 09:48:54.1    -186   -230    163    297    338 219.0  31.3  34100  288.54 0855.33
2009/04/23 09:48:54.2     -43   -211    130    216    252 191.5  34.2  34104  288.63 0855.33
2009/04/23 09:48:54.3      47   -276     71    281    290 170.2  14.3  34104  288.63 0855.33
2009/04/23 09:48:54.4     -72   -243     90    254    269 196.5  20.0  34106  288.65 0855.33
2009/04/23 09:48:54.5     -20   -183     68    185    197 186.5  21.0  34104  288.64 0855.33
2009/04/23 09:48:54.6     -17    -92    104     94    140 190.7  52.7  34110  288.72 0855.33
2009/04/23 09:48:54.7       0   -101    114    102    152 180.0  53.3  34112  288.77 0855.33
2009/04/23 09:48:54.8      -8    -81    100     82    129 185.8  56.4  34110  288.74 0855.33
2009/04/23 09:48:54.9     -25   -102     91    106    139 193.8  44.8  34106  288.65 0855.33
2009/04/23 09:48:55.0     -26    -78     73     83    110 198.3  45.8  34106  288.67 0855.33
2009/04/23 09:48:55.1      14    -54     61     56     82 164.9  52.2  34112  288.77 0855.33
2009/04/23 09:48:55.2      22    -69     69     73    100 161.7  48.0  34114  288.80 0855.33
2009/04/23 09:48:55.3      68   -149     23    164    166 155.5   8.2  34108  288.69 0855.33
2009/04/23 09:48:55.4      37   -214     35    218    221 170.0   9.3  34108  288.70 0855.33
2009/04/23 09:48:55.5     -24   -265     75    267    278 185.4  15.8  34110  288.71 0855.33
2009/04/23 09:48:55.6     -44   -262    106    266    286 189.7  23.0  34110  288.73 0855.33
2009/04/23 09:48:55.7     -56   -320    118    326    347 190.0  19.9  34116  288.81 0855.33
2009/04/23 09:48:55.8     -28   -283     77    285    296 185.8  15.2  34112  288.76 0855.33
2009/04/23 09:48:55.9     -86   -215     65    232    242 201.8  15.8  34114  288.78 0855.33
2009/04/23 09:48:56.0     -20   -110     49    112    122 190.7  25.1  34114  288.80 0855.33
2009/04/23 09:48:56.1      18   -100     52    102    114 169.3  29.3  34124  288.96 0855.31
2009/04/23 09:48:56.2      64    -46     33     79     85 125.9  24.1  34120  288.89 0855.31
2009/04/23 09:48:56.3      88      1      9     89     90  89.2   5.9  34118  288.86 0855.31
2009/04/23 09:48:56.4      86    -28     11     91     92 108.4   6.9  34116  288.82 0855.31
2009/04/23 09:48:56.5     112    -61      9    128    129 118.9   4.4  34114  288.80 0855.31
2009/04/23 09:48:56.6      98    -98      7    139    140 135.0   2.9  34114  288.80 0855.31
2009/04/23 09:48:56.7     102   -157     42    188    193 146.8  12.6  34112  288.77 0855.31
2009/04/23 09:48:56.8      90   -128    124    157    200 144.8  42.2  34116  288.84 0855.31
2009/04/23 09:48:56.9      42   -178     91    184    205 166.6  28.0  34114  288.79 0855.31
2009/04/23 09:48:57.0      82   -140    117    163    200 149.7  39.5  34114  288.79 0855.31
2009/04/23 09:48:57.1       3   -124    119    125    172 178.2  49.0  34120  288.89 0855.31
2009/04/23 09:48:57.2      -3   -186    152    187    240 181.1  43.3  34114  288.80 0855.31
2009/04/23 09:48:57.3     -59   -326    169    332    372 190.3  29.2  34110  288.72 0855.31
2009/04/23 09:48:57.4     -21   -270    113    271    293 184.5  24.1  34112  288.76 0855.31
2009/04/23 09:48:57.5     122   -206     96    240    258 149.2  23.0  34108  288.68 0855.31
2009/04/23 09:48:57.6     102   -235    190    257    319 156.6  40.1  34108  288.68 0855.31
2009/04/23 09:48:57.7     151   -240    184    284    338 147.7  36.0  34104  288.61 0855.31
2009/04/23 09:48:57.8      67   -287     76    295    305 166.7  14.5  34104  288.63 0855.31
2009/04/23 09:48:57.9      71   -297    174    306    352 166.4  32.1  34102  288.59 0855.31
2009/04/23 09:48:58.0      26   -260    177    262    316 174.2  37.3  34110  288.73 0855.31
2009/04/23 09:48:58.1     -76   -330    157    339    373 193.0  26.9  34102  288.60 0855.30
2009/04/23 09:48:58.2    -105   -308    109    326    344 198.8  18.6  34100  288.57 0855.30
2009/04/23 09:48:58.3     -88   -333    189    345    393 194.8  31.0  34104  288.64 0855.30
2009/04/23 09:48:58.4     -78   -244    183    257    315 197.8  39.0  34104  288.61 0855.30
2009/04/23 09:48:58.5    -138   -218    209    259    332 212.3  43.1  34108  288.68 0855.30
2009/04/23 09:48:58.6    -166   -211    102    269    287 218.3  21.7  34106  288.65 0855.30
2009/04/23 09:48:58.7    -156   -221    152    271    310 215.2  31.6  34100  288.56 0855.30
2009/04/23 09:48:58.8    -195   -194    156    276    317 225.1  32.0  34108  288.70 0855.30
2009/04/23 09:48:58.9    -268   -116    118    293    315 246.5  23.2  34098  288.53 0855.30
2009/04/23 09:48:59.0    -270   -171     86    320    332 237.6  15.2  34106  288.65 0855.30
2009/04/23 09:48:59.1    -218   -153     39    267    270 235.0   8.5  34100  288.56 0855.30
2009/04/23 09:48:59.2    -280    -86    -56    293    299 252.9 -10.9  34098  288.53 0855.30
2009/04/23 09:48:59.3    -209   -137     39    251    255 236.7   8.9  34106  288.66 0855.30
2009/04/23 09:48:59.4    -136    -60     83    149    170 246.0  31.6  34108  288.69 0855.30
2009/04/23 09:48:59.5    -219    -32     66    222    232 261.6  16.6  34106  288.67 0855.30
2009/04/23 09:48:59.6    -128   -110    115    169    204 229.3  37.6  34110  288.74 0855.30
2009/04/23 09:48:59.7    -172   -152     67    230    240 228.6  16.3  34114  288.78 0855.30
2009/04/23 09:48:59.8    -170    -56    -53    180    188 251.6 -16.4  34116  288.84 0855.30
2009/04/23 09:48:59.9    -292    -77    -38    302    305 255.2  -7.3  34114  288.78 0855.30
2009/04/23 09:49:00.0    -296    187     49    351    355 302.3   8.0  34106  288.66 0855.30
2009/04/23 09:49:00.1    -187    160     91    247    263 310.5  21.0  34110  288.71 0855.31
2009/04/23 09:49:00.2    -107    190     97    219    239 330.6  25.3  34108  288.70 0855.31
2009/04/23 09:49:00.3     -27    129    111    132    172 348.0  44.3  34112  288.77 0855.31
2009/04/23 09:49:00.4      75    122    112    144    182  31.6  41.7  34116  288.82 0855.31
2009/04/23 09:49:00.5     168    114    123    204    238  55.8  34.0  34108  288.70 0855.31
2009/04/23 09:49:00.6     274    140    192    308    362  62.9  35.1  34110  288.74 0855.31
2009/04/23 09:49:00.7     180     49     95    187    209  74.7  29.1  34116  288.82 0855.31
2009/04/23 09:49:00.8      95    -72    110    120    162 127.3  47.7  34118  288.86 0855.31
2009/04/23 09:49:00.9      85   -111     66    140    154 142.6  27.2  34112  288.75 0855.31
2009/04/23 09:49:01.0     143   -117     -5    186    187 129.3  -1.8  34110  288.72 0855.31
2009/04/23 09:49:01.1     165   -163    148    233    276 134.7  35.5  34110  288.73 0855.31
2009/04/23 09:49:01.2     109   -213    125    240    270 152.9  29.5  34106  288.66 0855.31
2009/04/23 09:49:01.3      88   -214    156    232    279 157.7  37.4  34110  288.73 0855.31
2009/04/23 09:49:01.4     124   -195     90    232    248 147.5  22.1  34108  288.68 0855.31
2009/04/23 09:49:01.5      62   -138     82    152    172 155.9  30.8  34106  288.67 0855.31
2009/04/23 09:49:01.6      14   -197     88    198    216 175.8  25.3  34106  288.67 0855.31
2009/04/23 09:49:01.8      79   -169     83    187    204 154.7  25.3  34106  288.67 0855.31
2009/04/23 09:49:01.9      28   -139     16    142    143 168.4   6.5  34102  288.60 0855.31
2009/04/23 09:49:02.0    -103   -126      3    163    164 219.2   1.2  34098  288.53 0855.31
2009/04/23 09:49:02.1    -101    -79    -43    129    135 232.2 -23.6  34106  288.67 0855.31
2009/04/23 09:49:02.2    -118     -7    -33    119    124 266.5 -15.5  34108  288.69 0855.31
2009/04/23 09:49:02.3    -104      7    -43    105    113 273.9 -27.5  34118  288.86 0855.31
2009/04/23 09:49:02.4     -70     30    -13     77     79 293.5  -9.8  34116  288.82 0855.31
2009/04/23 09:49:02.5     -57     72     34     92     98 321.7  21.5  34114  288.79 0855.31
2009/04/23 09:49:02.6      14     85     29     87     92   9.8  18.9  34110  288.72 0855.31
2009/04/23 09:49:02.7      90     54    129    106    166  58.9  56.4  34106  288.65 0855.31
2009/04/23 09:49:02.8      34     54    118     65    134  32.5  68.8  34116  288.82 0855.31
2009/04/23 09:49:02.9     -18     14     96     23     98 307.8  86.9  34124  288.97 0855.31
2009/04/23 09:49:03.0      32      8    114     34    118  74.9  82.8  34112  288.77 0855.31
2009/04/23 09:49:03.1      82      3    140     83    162  87.4  66.4  34110  288.74 0855.31
2009/04/23 09:49:03.2     158     56    129    168    211  70.3  41.6  34106  288.67 0855.31
2009/04/23 09:49:03.3     107      3    121    108    162  88.3  53.5  34110  288.74 0855.31
2009/04/23 09:49:03.4       7     40    104     41    111  10.7  77.6  34118  288.86 0855.31
2009/04/23 09:49:03.5     -42     16     82     46     94 291.7  67.7  34124  288.97 0855.31
2009/04/23 09:49:03.6     -20     51     74     56     92 338.2  58.5  34112  288.77 0855.31
2009/04/23 09:49:03.7      49    -12    100     51    112 104.2  71.4  34122  288.92 0855.31
2009/04/23 09:49:03.8     -16    -64    102     67    122 194.3  63.6  34110  288.74 0855.31
2009/04/23 09:49:03.9       3   -132    174    133    219 178.6  58.7  34108  288.70 0855.31
2009/04/23 09:49:04.0     -39   -170    166    175    241 193.1  48.5  34104  288.62 0855.31
2009/04/23 09:49:04.1     -43   -209    194    214    288 191.8  46.9  34104  288.63 0855.31
2009/04/23 09:49:04.2    -128   -155    141    202    246 219.6  38.4  34124  288.96 0855.31
2009/04/23 09:49:04.3     -46   -193     74    199    212 193.4  21.0  34110  288.74 0855.31
2009/04/23 09:49:04.4     -20   -297    119    298    320 184.0  22.9  34100  288.56 0855.31
2009/04/23 09:49:04.5       2   -297    182    298    349 179.5  34.6  34102  288.59 0855.31
2009/04/23 09:49:04.6     -49   -221    288    227    366 192.7  57.9  34104  288.63 0855.31
2009/04/23 09:49:04.7       5   -204    230    205    308 178.4  53.7  34102  288.58 0855.31
2009/04/23 09:49:04.8     -39   -179    196    184    268 192.3  52.1  34104  288.63 0855.31
2009/04/23 09:49:04.9      67   -264    177    273    325 165.7  36.0  34106  288.65 0855.31
2009/04/23 09:49:05.0      23   -302    176    303    350 175.5  32.9  34104  288.64 0855.31
2009/04/23 09:49:05.1       3   -281    168    282    328 179.3  33.7  34102  288.58 0855.31
2009/04/23 09:49:05.2     -18   -240    212    241    320 184.5  46.1  34102  288.58 0855.25
2009/04/23 09:49:05.3       7   -204    215    205    297 178.0  51.6  34102  288.59 0855.25
2009/04/23 09:49:05.4      68   -308    122    316    338 167.5  22.3  34100  288.55 0855.25
2009/04/23 09:49:05.5      47   -282    113    287    308 170.4  23.0  34102  288.58 0855.25
2009/04/23 09:49:05.6     -29   -288    103    290    307 185.8  20.2  34098  288.53 0855.25
2009/04/23 09:49:05.7     -83   -272     67    285    293 197.0  13.2  34100  288.56 0855.25
2009/04/23 09:49:05.8     -41   -263     83    267    280 188.9  17.3  34100  288.54 0855.25
2009/04/23 09:49:05.9     -24   -227     62    229    238 186.3  15.2  34102  288.59 0855.25
2009/04/23 09:49:06.0      16   -256     29    257    259 176.4   6.5  34106  288.65 0855.25
2009/04/23 09:49:06.1      -1   -178      5    179    180 180.5   1.6  34102  288.58 0855.25
2009/04/23 09:49:06.2      -3   -180    -35    181    185 181.0 -11.1  34106  288.67 0855.25
2009/04/23 09:49:06.3      11   -144    -15    145    146 175.6  -6.2  34104  288.64 0855.25
2009/04/23 09:49:06.4     -11   -151    -48    152    160 184.4 -17.6  34106  288.67 0855.25
2009/04/23 09:49:06.5      68    -68    -49     97    108 135.0 -33.1  34110  288.72 0855.25
2009/04/23 09:49:06.6      26   -161    100    164    192 170.7  34.8  34114  288.79 0855.25
2009/04/23 09:49:06.7      19   -174    109    176    207 173.5  35.0  34116  288.82 0855.25
2009/04/23 09:49:06.8      40   -150     62    156    167 164.9  22.8  34116  288.82 0855.25
2009/04/23 09:49:06.9      49   -154     96    162    188 162.2  33.7  34112  288.77 0855.25
2009/04/23 09:49:07.0      -7   -137     32    138    142 183.1  13.2  34116  288.82 0855.25
2009/04/23 09:49:07.1     -27   -137     55    140    150 191.5  23.0  34128  289.02 0855.25
2009/04/23 09:49:07.2     -49   -123     47    133    142 201.9  19.4  34126  289.01 0855.27
2009/04/23 09:49:07.3     -53   -133     41    144    150 201.8  16.0  34120  288.89 0855.27
2009/04/23 09:49:07.4     -38   -174     49    179    186 192.5  15.3  34104  288.64 0855.27
2009/04/23 09:49:07.5     -59   -175     27    185    188 198.7   8.5  34102  288.60 0855.27
2009/04/23 09:49:07.6     -50   -165     -6    173    174 196.9  -2.3  34102  288.60 0855.27
2009/04/23 09:49:07.7     -39   -144    -13    150    151 195.2  -5.2  34104  288.62 0855.27
2009/04/23 09:49:07.8     -15   -138     47    139    147 186.3  18.9  34102  288.58 0855.27
2009/04/23 09:49:07.9     -15   -131     65    132    147 186.7  27.3  34100  288.57 0855.27
2009/04/23 09:49:08.0     -42   -118     98    126    159 200.0  42.0  34104  288.62 0855.27
2009/04/23 09:49:08.1     -72   -141    138    159    210 207.1  45.6  34102  288.58 0855.27
2009/04/23 09:49:08.2    -103   -186    116    213    242 209.0  31.0  34100  288.56 0855.27
2009/04/23 09:49:08.3    -123   -189     85    226    241 213.0  21.5  34100  288.56 0855.27
2009/04/23 09:49:08.4    -139   -175    133    224    260 218.5  33.5  34104  288.61 0855.27
2009/04/23 09:49:08.5    -144   -156    112    213    240 222.8  30.1  34102  288.60 0855.27
2009/04/23 09:49:08.6    -129   -172    166    216    272 217.0  41.6  34112  288.75 0855.27
2009/04/23 09:49:08.7     -58   -155     99    166    193 200.7  34.0  34112  288.77 0855.27
2009/04/23 09:49:08.8    -126    -91     79    156    174 234.1  28.7  34122  288.94 0855.27
2009/04/23 09:49:08.9    -164   -192    102    253    272 220.5  23.0  34120  288.90 0855.27
2009/04/23 09:49:09.0    -190   -154     38    245    249 230.9   8.9  34122  288.92 0855.27
2009/04/23 09:49:09.1    -205   -151     21    255    256 233.6   4.9  34128  289.03 0855.27
2009/04/23 09:49:09.2    -110   -138    -32    177    180 218.5 -10.5  34126  288.99 0855.28
2009/04/23 09:49:09.3      -8   -171    -26    172    175 182.7  -8.8  34114  288.80 0855.28
2009/04/23 09:49:09.4     -75   -100      6    126    127 217.0   2.9  34118  288.87 0855.28
2009/04/23 09:49:09.5     -53   -115    -58    127    139 204.9 -31.0  34114  288.79 0855.28
2009/04/23 09:49:09.6     -66   -139    -11    155    156 205.5  -4.1  34116  288.82 0855.28
2009/04/23 09:49:09.7     -50   -150    -26    159    162 198.7  -9.3  34114  288.80 0855.28
2009/04/23 09:49:09.8     -32    -99     -4    105    106 198.3  -2.2  34112  288.75 0855.28
2009/04/23 09:49:09.9     -53   -113     51    125    135 205.3  23.1  34104  288.62 0855.28
2009/04/23 09:49:10.0     -54   -169    -37    178    182 197.8 -11.9  34102  288.58 0855.28
2009/04/23 09:49:10.1     -40   -179     22    184    186 192.7   7.1  34098  288.53 0855.28
2009/04/23 09:49:10.2    -161   -215    -21    269    270 216.9  -4.6  34104  288.63 0855.28
2009/04/23 09:49:10.3    -185   -183    -10    261    262 225.2  -2.2  34106  288.66 0855.28
2009/04/23 09:49:10.4    -128   -201     -6    239    240 212.5  -1.6  34114  288.80 0855.28
2009/04/23 09:49:10.5     -61   -262     44    270    274 193.1   9.3  34104  288.61 0855.28
2009/04/23 09:49:10.6     -65   -308     51    315    320 192.0   9.3  34104  288.63 0855.28
2009/04/23 09:49:10.7     -34   -267    -44    270    274 187.3  -9.4  34100  288.56 0855.28
2009/04/23 09:49:10.8    -111   -241    -34    266    269 204.7  -7.3  34090  288.39 0855.28
2009/04/23 09:49:10.9      -4   -296     93    297    312 180.9  17.5  34102  288.58 0855.28
2009/04/23 09:49:11.0    -118   -320    -11    342    343 200.2  -1.9  34100  288.55 0855.28
2009/04/23 09:49:11.1    -128   -341     -2    365    366 200.6  -0.4  34100  288.54 0855.28
2009/04/23 09:49:11.2    -143   -375     38    402    404 200.9   5.5  34100  288.56 0855.28
2009/04/23 09:49:11.3    -138   -471    147    491    513 196.4  16.7  34104  288.64 0855.28
2009/04/23 09:49:11.4     -64   -456    148    461    485 188.0  17.8  34100  288.56 0855.28
2009/04/23 09:49:11.5      91   -411    177    422    457 167.5  24.1  34100  288.56 0855.28
2009/04/23 09:49:11.6      69   -417    236    423    484 170.6  31.6  34102  288.59 0855.28
2009/04/23 09:49:11.7      40   -457    196    459    499 174.9  24.6  34104  288.61 0855.28
2009/04/23 09:49:11.8      -8   -465     22    466    467 181.0   2.8  34104  288.61 0855.28
2009/04/23 09:49:11.9       0   -401     92    402    413 179.9  12.9  34106  288.65 0855.28
2009/04/23 09:49:12.0     -10   -340     89    341    353 181.7  14.7  34104  288.62 0855.28
2009/04/23 09:49:12.1     -23   -305     82    307    318 184.5  15.0  34110  288.73 0855.28
2009/04/23 09:49:12.2     -10   -293    139    294    325 182.0  27.1  34110  288.73 0855.28
2009/04/23 09:49:12.3    -210   -211     79    298    309 224.9  14.9  34112  288.76 0855.28
2009/04/23 09:49:12.4    -169   -198     53    261    267 220.5  11.6  34110  288.73 0855.28
2009/04/23 09:49:12.5     -36   -168    101    172    199 192.3  33.1  34108  288.70 0855.28
2009/04/23 09:49:12.6     -52   -134    113    144    183 201.4  42.0  34108  288.69 0855.28
2009/04/23 09:49:12.7     -49   -188     74    195    208 194.7  21.5  34110  288.72 0855.28
2009/04/23 09:49:12.8     -47   -197     45    203    209 193.4  12.6  34108  288.70 0855.28
2009/04/23 09:49:12.9     -42   -301    -16    305    306 188.0  -3.2  34110  288.71 0855.28
2009/04/23 09:49:13.0     -42   -361     70    364    371 186.7  11.0  34106  288.67 0855.28
2009/04/23 09:49:13.1     -39   -333     39    336    339 186.7   6.7  34106  288.66 0855.28
2009/04/23 09:49:13.2     -24   -336     66    337    344 184.2  11.1  34108  288.69 0855.29
2009/04/23 09:49:13.3     -13   -371     46    372    375 182.0   7.1  34106  288.67 0855.29
2009/04/23 09:49:13.4    -132   -368     31    392    394 199.8   4.6  34102  288.60 0855.29
2009/04/23 09:49:13.5    -101   -270     56    289    295 200.5  11.0  34112  288.75 0855.29
2009/04/23 09:49:13.6    -161   -102    -60    191    201 237.6 -17.6  34112  288.75 0855.29
2009/04/23 09:49:13.7    -125   -146   -106    193    220 220.5 -35.7  34116  288.84 0855.29
2009/04/23 09:49:13.8    -213   -212    -73    301    310 225.2 -13.7  34120  288.88 0855.29
2009/04/23 09:49:13.9    -176   -231    -98    291    307 217.4 -23.3  34118  288.87 0855.29
2009/04/23 09:49:14.0    -153   -256     17    299    300 210.8   3.3  34114  288.80 0855.29
2009/04/23 09:49:14.1     -82   -122    -69    148    163 213.8 -30.8  34120  288.91 0855.29
2009/04/23 09:49:14.2       9   -118   -107    119    160 175.6 -51.0  34124  288.96 0855.29
2009/04/23 09:49:14.3      77   -192    -68    207    217 158.1 -23.6  34114  288.79 0855.29
2009/04/23 09:49:14.4     110   -215     20    242    243 152.9   4.9  34110  288.73 0855.29
2009/04/23 09:49:14.5      93   -212     -9    232    233 156.2  -2.2  34114  288.80 0855.29
2009/04/23 09:49:14.6     -56   -267     -6    274    275 192.0  -1.3  34126  288.98 0855.29
2009/04/23 09:49:14.7    -121   -194   -139    229    267 211.9 -38.8  34126  289.00 0855.29
2009/04/23 09:49:14.8     -84   -226    -20    242    243 200.5  -4.9  34122  288.93 0855.29
2009/04/23 09:49:14.9     -10   -130    -21    131    133 184.5  -9.3  34122  288.92 0855.29
2009/04/23 09:49:15.0     118    -75    107    141    177 122.5  41.2  34114  288.79 0855.29
2009/04/23 09:49:15.1     102    -84    149    133    199 129.5  53.7  34118  288.87 0855.29
2009/04/23 09:49:15.2     106    -82     95    135    165 127.8  38.6  34120  288.91 0855.28
2009/04/23 09:49:15.3     146   -190     69    240    250 142.4  16.0  34116  288.81 0855.28
2009/04/23 09:49:15.4     151   -166     49    225    231 137.7  12.4  34114  288.79 0855.28
2009/04/23 09:49:15.5     139   -312    109    342    359 155.9  17.7  34110  288.74 0855.28
2009/04/23 09:49:15.6     162   -302    112    343    362 151.7  18.2  34112  288.76 0855.28
2009/04/23 09:49:15.7     149   -235     87    279    293 147.5  17.3  34114  288.78 0855.28
2009/04/23 09:49:15.8     123   -219    100    252    271 150.6  23.0  34112  288.76 0855.28
2009/04/23 09:49:15.9     165   -225     97    280    297 143.7  19.2  34112  288.75 0855.28
2009/04/23 09:49:16.0     254   -167     65    305    313 123.3  12.1  34108  288.68 0855.28
2009/04/23 09:49:16.1     117   -147     88    189    208 141.5  27.1  34106  288.67 0855.28
2009/04/23 09:49:16.2      63    -87     57    108    122 144.0  29.8  34112  288.75 0855.28
2009/04/23 09:49:16.3      28    -75     17     81     83 159.1  12.2  34110  288.74 0855.28
2009/04/23 09:49:16.4     -16      1     64     17     66 274.3  84.9  34114  288.80 0855.28
2009/04/23 09:49:16.5      47    -56    139     74    157 140.3  70.0  34116  288.82 0855.28
2009/04/23 09:49:16.6     132     19    181    134    225  81.6  60.0  34116  288.84 0855.28
2009/04/23 09:49:16.7     107     40    101    115    153  69.6  45.9  34112  288.75 0855.28
2009/04/23 09:49:16.8      88     29    106     93    141  71.6  54.3  34116  288.84 0855.28
2009/04/23 09:49:16.9     -29     32    116     44    124 318.6  79.1  34130  289.06 0855.28
2009/04/23 09:49:17.0     -75     38    115     85    143 297.1  60.5  34134  289.14 0855.28
2009/04/23 09:49:17.1      45     31    191     55    198  54.9  83.5  34118  288.86 0855.28
2009/04/23 09:49:17.2       5      0    167      6    167  90.0  90.0  34126  289.01 0855.28
2009/04/23 09:49:17.3     -40    -39    168     57    177 225.9  81.0  34126  289.01 0855.28
2009/04/23 09:49:17.4     -70   -126    220    145    263 209.0  63.6  34118  288.86 0855.28
2009/04/23 09:49:17.5     -96   -202    159    224    274 205.4  39.1  34116  288.83 0855.28
2009/04/23 09:49:17.6     -68   -144    122    160    201 205.5  41.4  34118  288.86 0855.28
2009/04/23 09:49:17.7     -49   -136    138    145    200 200.0  48.7  34116  288.82 0855.28
2009/04/23 09:49:17.8    -119   -179    154    216    265 213.6  39.3  34116  288.83 0855.28
2009/04/23 09:49:17.9    -124    -28    104    128    164 257.2  43.3  34114  288.79 0855.28
2009/04/23 09:49:18.0    -275      6     86    276    290 271.3  17.4  34120  288.90 0855.28
2009/04/23 09:49:18.1    -174   -205     39    270    273 220.3   8.2  34116  288.81 0855.28
2009/04/23 09:49:18.2     -40    -75     49     86     98 208.1  31.9  34110  288.72 0855.28
2009/04/23 09:49:18.3     106     -7    134    107    171  94.3  57.1  34120  288.89 0855.28
2009/04/23 09:49:18.4      -4     31    178     32    180 352.0  90.0  34132  289.09 0855.28
2009/04/23 09:49:18.5     -18    -69     83     72    109 195.1  55.4  34126  288.99 0855.28
2009/04/23 09:49:18.6      -7   -150     53    151    161 182.7  19.6  34138  289.21 0855.28
2009/04/23 09:49:18.7     -82    -95     25    126    129 221.0  11.6  34138  289.19 0855.28
2009/04/23 09:49:18.8    -101    -83     -7    132    133 230.5  -3.1  34134  289.14 0855.28
2009/04/23 09:49:18.9    -154   -113     30    192    195 233.6   8.9  34136  289.16 0855.28
2009/04/23 09:49:19.0    -128   -168    -45    212    217 217.2 -12.2  34138  289.21 0855.28
2009/04/23 09:49:19.1    -232   -128     50    265    270 241.1  10.8  34136  289.15 0855.28
2009/04/23 09:49:19.2    -264   -174    115    317    338 236.7  19.9  34126  288.98 0855.29
2009/04/23 09:49:19.3    -268   -104     66    288    296 248.7  12.9  34118  288.87 0855.29
2009/04/23 09:49:19.4     -52    -69     71     87    112 217.4  43.7  34122  288.94 0855.29
2009/04/23 09:49:19.5    -103   -172    126    201    237 211.0  35.0  34126  289.01 0855.29
2009/04/23 09:49:19.6    -126   -163     64    207    217 217.8  17.3  34132  289.11 0855.29
2009/04/23 09:49:19.7    -155    -83     91    176    198 241.8  29.3  34118  288.86 0855.29
2009/04/23 09:49:19.8     -58     11     98     60    114 281.5  64.7  34140  289.23 0855.29
2009/04/23 09:49:19.9      50     64     96     82    126  38.3  54.8  34136  289.16 0855.29
2009/04/23 09:49:20.0      40     73    114     84    141  29.0  60.5  34134  289.14 0855.29
2009/04/23 09:49:20.1     -44     41    105     61    121 313.1  67.2  34134  289.14 0855.29
2009/04/23 09:49:20.2     -37     50    182     63    192 323.9  81.0  34126  289.01 0855.29
2009/04/23 09:49:20.3      29     -3     58     30     65  96.1  69.8  34122  288.92 0855.29
2009/04/23 09:49:20.4      53    -56     75     78    108 136.7  49.0  34124  288.97 0855.29
2009/04/23 09:49:20.5      -8    -99     81    100    128 184.9  43.7  34124  288.96 0855.29
2009/04/23 09:49:20.6     -36   -115     54    121    132 197.4  25.2  34124  288.97 0855.29
2009/04/23 09:49:20.7     -20   -175    -34    177    181 186.7 -11.1  34120  288.89 0855.29
2009/04/23 09:49:20.8     -41   -176   -106    181    209 193.4 -37.5  34118  288.86 0855.29
2009/04/23 09:49:20.9    -119   -202    -83    235    249 210.7 -24.4  34128  289.03 0855.29
2009/04/23 09:49:21.0    -117   -259     78    285    296 204.3  15.3  34126  288.98 0855.29
2009/04/23 09:49:21.1     -75   -367    119    375    394 191.7  17.7  34122  288.93 0855.29
2009/04/23 09:49:21.2     -91   -429    125    439    457 192.1  15.9  34126  288.99 0855.27
2009/04/23 09:49:21.3    -124   -382     83    402    411 198.1  11.8  34136  289.16 0855.27
2009/04/23 09:49:21.4    -189   -306    150    360    390 211.7  24.1  34144  289.30 0855.27
2009/04/23 09:49:21.5    -204   -217     69    299    307 223.2  13.1  34144  289.29 0855.27
2009/04/23 09:49:21.6    -111   -230    162    256    302 205.9  35.5  34120  288.90 0855.27
2009/04/23 09:49:21.7      38   -190     97    194    216 168.5  28.5  34120  288.89 0855.27
2009/04/23 09:49:21.8      74   -223    100    236    256 161.5  24.2  34116  288.81 0855.27
2009/04/23 09:49:21.9      26   -229    105    231    253 173.3  26.2  34116  288.83 0855.27
2009/04/23 09:49:22.0     138   -154     86    207    224 138.1  23.4  34112  288.75 0855.27
2009/04/23 09:49:22.1     125    -96     79    158    176 127.7  28.2  34122  288.94 0855.27
2009/04/23 09:49:22.2      49    -98      4    110    111 153.3   2.3  34118  288.87 0855.27
2009/04/23 09:49:22.3      40    -84     24     94     98 154.7  14.3  34122  288.92 0855.27
2009/04/23 09:49:22.4      -1   -101     35    102    108 180.9  18.9  34120  288.91 0855.27
2009/04/23 09:49:22.5      20   -140     40    142    148 171.9  15.8  34120  288.91 0855.27
2009/04/23 09:49:22.6     -19   -174     32    176    179 186.2  10.3  34120  288.89 0855.27
2009/04/23 09:49:22.7     -44   -148     49    155    163 196.5  17.7  34116  288.84 0855.27
2009/04/23 09:49:22.8     -47   -140     99    148    178 198.7  37.0  34116  288.82 0855.27
2009/04/23 09:49:22.9    -146   -139     10    202    203 226.4   2.9  34130  289.08 0855.27
2009/04/23 09:49:23.0    -148    -93    -19    175    177 237.8  -6.5  34132  289.11 0855.27
2009/04/23 09:49:23.1    -103    -47    -48    114    123 245.2 -28.5  34130  289.08 0855.27
2009/04/23 09:49:23.2    -108      0     45    109    117 270.0  23.6  34128  289.02 0855.28
2009/04/23 09:49:23.3     -48     58    -27     76     80 320.3 -24.4  34128  289.04 0855.28
2009/04/23 09:49:23.4     -22    -33     13     40     43 213.4  18.9  34128  289.04 0855.28
2009/04/23 09:49:23.5     -59    -16     27     62     67 255.0  24.1  34124  288.97 0855.28
2009/04/23 09:49:23.6     -87    -18     45     89     99 258.1  28.7  34128  289.02 0855.28
2009/04/23 09:49:23.7     -84    -51     45     99    108 238.9  26.6  34120  288.91 0855.28
2009/04/23 09:49:23.8    -122    -53     66    134    149 246.5  27.8  34116  288.84 0855.28
2009/04/23 09:49:23.9    -173    -58    -59    183    193 251.4 -17.9  34124  288.96 0855.28
2009/04/23 09:49:24.0    -119     -9    -47    120    128 265.6 -26.9  34122  288.92 0855.28
2009/04/23 09:49:24.1    -136    221     26    260    262 328.4   5.9  34128  289.02 0855.28
2009/04/23 09:49:24.2    -145    192      3    241    242 323.0   0.7  34128  289.03 0855.28
2009/04/23 09:49:24.3      11     58     59     60     84  11.5  50.5  34138  289.19 0855.28
2009/04/23 09:49:24.4     -32    -39     42     51     66 219.7  43.7  34136  289.18 0855.28
2009/04/23 09:49:24.5    -155     49    -23    163    165 287.7  -8.2  34124  288.97 0855.28
2009/04/23 09:49:24.6    -183     31    -93    186    207 279.9 -32.9  34118  288.87 0855.28
2009/04/23 09:49:24.7    -164     11   -119    165    203 273.9 -43.9  34122  288.92 0855.28
2009/04/23 09:49:24.8    -194     28    -80    197    212 278.4 -27.5  34132  289.11 0855.28
2009/04/23 09:49:24.9    -168     69    -47    182    189 292.4 -14.5  34128  289.04 0855.28
2009/04/23 09:49:25.0    -142     10    -34    143    147 274.3 -13.4  34130  289.06 0855.28
2009/04/23 09:49:25.1    -123      7    -21    124    126 273.5  -9.8  34126  289.01 0855.28
2009/04/23 09:49:25.2     -91      4     34     92     98 272.6  21.5  34130  289.08 0855.28
2009/04/23 09:49:25.3     -60    -87     63    107    124 214.7  33.5  34134  289.14 0855.28
2009/04/23 09:49:25.4      23   -138     86    141    165 170.2  34.4  34130  289.08 0855.28
2009/04/23 09:49:25.5      25   -270    -10    272    273 174.7  -2.2  34122  288.93 0855.28
2009/04/23 09:49:25.6      26   -269     27    271    273 174.4   5.7  34124  288.97 0855.28
2009/04/23 09:49:25.7      92   -237    111    255    278 158.8  25.1  34126  289.00 0855.28
2009/04/23 09:49:25.8      25   -228    104    230    252 173.5  26.2  34124  288.95 0855.28
2009/04/23 09:49:25.9     116   -195    117    227    255 149.3  29.3  34122  288.93 0855.28
2009/04/23 09:49:26.0     140   -218    159    260    304 147.3  34.4  34118  288.85 0855.28
2009/04/23 09:49:26.1      72   -302    137    311    339 166.6  25.3  34116  288.84 0855.28
2009/04/23 09:49:26.2      34   -237    170    240    294 171.8  39.1  34122  288.92 0855.29
2009/04/23 09:49:26.3     104    -92    107    140    176 131.4  41.4  34120  288.89 0855.29
2009/04/23 09:49:26.4     102   -200     97    225    245 152.9  25.1  34118  288.87 0855.29
2009/04/23 09:49:26.5       7   -217     60    218    227 178.0  15.6  34122  288.94 0855.29
2009/04/23 09:49:26.6     -59   -187     27    197    199 197.6   8.0  34122  288.94 0855.29
2009/04/23 09:49:26.7    -104   -251     43    272    276 202.5   9.0  34138  289.20 0855.29
2009/04/23 09:49:26.8     -93   -288     35    303    306 198.0   6.7  34152  289.44 0855.29
2009/04/23 09:49:26.9     -42   -299     72    303    312 188.0  13.5  34128  289.02 0855.29
2009/04/23 09:49:27.0     -88   -129    161    157    224 214.3  50.4  34112  288.77 0855.29
2009/04/23 09:49:27.1    -227   -213    225    312    384 226.9  39.5  34136  289.18 0855.29
2009/04/23 09:49:27.2    -251   -339    149    423    449 216.5  19.4  34120  288.90 0855.29
2009/04/23 09:49:27.3    -329   -330     44    467    470 224.9   5.4  34146  289.34 0855.29
2009/04/23 09:49:27.4    -299   -244     40    387    390 230.8   6.0  34146  289.32 0855.29
2009/04/23 09:49:27.5    -260   -232     89    349    361 228.2  14.4  34148  289.38 0855.29
2009/04/23 09:49:27.6    -283   -208     -2    352    353 233.7  -0.4  34112  288.76 0855.29
2009/04/23 09:49:27.7    -390   -256    -42    467    469 236.7  -5.2  34108  288.69 0855.29
2009/04/23 09:49:27.8    -284   -215     93    357    369 232.8  14.6  34122  288.94 0855.29
2009/04/23 09:49:27.9    -183   -242    110    304    324 217.2  19.9  34126  288.98 0855.29
2009/04/23 09:49:28.1    -123   -193     56    230    237 212.6  13.9  34120  288.90 0855.29
2009/04/23 09:49:28.2     -72   -323     40    332    335 192.7   6.9  34122  288.93 0855.29
2009/04/23 09:49:28.2    -100   -319     29    335    337 197.5   5.1  34120  288.89 0855.29
2009/04/23 09:49:28.4    -146   -347    274    377    466 202.8  39.7  34124  288.95 0855.29
2009/04/23 09:49:28.4    -179   -216    181    281    334 219.7  35.7  34126  289.00 0855.29
2009/04/23 09:49:28.6    -204   -244    143    319    349 219.9  25.9  34120  288.89 0855.29
2009/04/23 09:49:28.7    -184   -208    175    278    328 221.5  35.2  34120  288.88 0855.29
2009/04/23 09:49:28.8    -191   -204     75    280    290 223.2  15.0  34120  288.90 0855.29
2009/04/23 09:49:28.9    -296   -273    -29    404    405 227.3  -4.1  34126  289.00 0855.29
2009/04/23 09:49:29.0    -341   -281     45    442    445 230.5   5.9  34128  289.02 0855.29
2009/04/23 09:49:29.1    -324   -144    -76    355    364 246.0 -12.2  34112  288.76 0855.29
2009/04/23 09:49:29.2    -561    -92   -141    569    587 260.7 -13.9  34094  288.44 0855.29
2009/04/23 09:49:29.3    -289   -273     83    398    407 226.7  11.8  34110  288.72 0855.29
2009/04/23 09:49:29.4    -478    -59   -129    482    500 262.9 -15.1  34090  288.40 0855.29
2009/04/23 09:49:29.5    -362   -131   -215    386    441 250.1 -35.8  34096  288.50 0855.29
2009/04/23 09:49:29.6    -464   -143   -156    486    510 252.8 -22.8  34090  288.39 0855.29
2009/04/23 09:49:29.7    -353   -142    -81    381    390 248.1 -12.0  34112  288.76 0855.29
2009/04/23 09:49:29.8    -187   -175    -40    257    261 226.9  -9.0  34116  288.83 0855.29
2009/04/23 09:49:29.9    -104   -190    -51    217    224 208.9 -13.4  34120  288.89 0855.29
2009/04/23 09:49:30.0    -151   -230    -38    276    279 213.2  -8.0  34120  288.90 0855.29
2009/04/23 09:49:30.1    -129   -204   -102    242    262 212.5 -28.5  34118  288.87 0855.29
2009/04/23 09:49:30.2    -130   -155   -142    203    247 219.9 -42.9  34114  288.78 0855.29
2009/04/23 09:49:30.3    -249   -135   -123    284    309 241.6 -29.5  34126  288.98 0855.30
2009/04/23 09:49:30.4    -169   -151   -128    227    260 228.2 -36.0  34124  288.95 0855.30
2009/04/23 09:49:30.5     -27   -150    -74    153    169 190.2 -31.8  34120  288.89 0855.30
2009/04/23 09:49:30.6     -75   -180   -117    196    228 202.7 -37.9  34126  288.99 0855.30
2009/04/23 09:49:30.7     -66   -227   -131    237    270 196.3 -35.8  34126  288.98 0855.30
2009/04/23 09:49:30.8      52   -186   -113    194    224 164.4 -37.5  34124  288.97 0855.30
2009/04/23 09:49:30.9    -118     26   -160    122    201 282.8 -63.1  34124  288.96 0855.30
2009/04/23 09:49:31.0     -91     75   -179    119    214 309.5 -67.8  34120  288.91 0855.30
2009/04/23 09:49:31.1    -233     89   -161    250    297 290.9 -40.0  34124  288.95 0855.30
2009/04/23 09:49:31.2    -221     98   -112    242    266 294.0 -31.4  34118  288.87 0855.30
2009/04/23 09:49:31.3    -338    -54   -126    343    365 260.8 -25.4  34120  288.88 0855.30
2009/04/23 09:49:31.4    -475    -73   -209    481    524 261.2 -29.5  34096  288.49 0855.30
2009/04/23 09:49:31.5    -488      0   -219    489    535 270.0 -30.2  34098  288.53 0855.30
2009/04/23 09:49:31.6    -524    -88   -242    532    584 260.4 -30.6  34102  288.58 0855.30
2009/04/23 09:49:31.7    -450   -191   -307    490    578 247.0 -39.5  34122  288.94 0855.30
2009/04/23 09:49:31.8    -426   -280   -239    510    563 236.7 -31.4  34144  289.31 0855.30
2009/04/23 09:49:31.9    -376   -324    -94    497    506 229.2 -10.8  34106  288.66 0855.30
2009/04/23 09:49:32.0    -387   -327     24    507    508 229.8   2.8  34114  288.78 0855.30
2009/04/23 09:49:32.1    -343   -359     38    497    499 223.7   4.5  34108  288.69 0855.30
2009/04/23 09:49:32.2    -353   -395     30    530    531 221.8   3.3  34128  289.02 0855.30
2009/04/23 09:49:32.3    -282   -327     37    432    434 220.8   5.0  34116  288.83 0855.30
2009/04/23 09:49:32.4    -303   -168     94    347    360 240.9  15.2  34116  288.84 0855.30
2009/04/23 09:49:32.5    -101   -241    212    262    337 202.8  43.3  34104  288.61 0855.30
2009/04/23 09:49:32.6    -166   -164    220    234    321 225.3  48.2  34110  288.71 0855.30
2009/04/23 09:49:32.7    -208   -143    201    253    323 235.4  42.6  34108  288.70 0855.30
2009/04/23 09:49:32.8    -234   -106    137    258    292 245.6  30.3  34118  288.85 0855.30
2009/04/23 09:49:32.9     -52    -46    127     70    145 228.7  68.8  34122  288.92 0855.30
2009/04/23 09:49:33.0    -249    137    193    285    344 298.9  37.3  34114  288.78 0855.30
2009/04/23 09:49:33.1    -320     23     98    321    336 274.1  17.0  34110  288.71 0855.30
2009/04/23 09:49:33.2    -199     96     18    222    223 295.8   4.9  34108  288.69 0855.30
2009/04/23 09:49:33.3     -78    136    112    157    192 330.1  39.1  34110  288.74 0855.30
2009/04/23 09:49:33.4    -116    207    131    238    271 330.6  31.4  34098  288.53 0855.30
2009/04/23 09:49:33.5    -167    319    214    361    419 332.4  33.5  34110  288.72 0855.30
2009/04/23 09:49:33.6    -140    377    206    403    452 339.6  29.2  34108  288.68 0855.30
2009/04/23 09:49:33.7     -86    274    133    288    317 342.6  26.4  34106  288.66 0855.30
2009/04/23 09:49:33.8      -3    198    167    199    259 359.1  44.3  34114  288.78 0855.30
2009/04/23 09:49:33.9     -64    164    219    177    281 338.6  57.1  34120  288.88 0855.30
2009/04/23 09:49:34.0    -206     95    191    227    296 294.8  44.3  34108  288.70 0855.30
2009/04/23 09:49:34.1    -375    207    237    429    490 298.9  31.4  34104  288.64 0855.30
2009/04/23 09:49:34.2    -218    260    224    340    407 320.0  36.5  34098  288.52 0855.30
2009/04/23 09:49:34.3    -322    298    236    440    499 312.8  30.6  34108  288.68 0855.29
2009/04/23 09:49:34.4    -367    172    219    406    461 295.2  30.7  34108  288.68 0855.29
2009/04/23 09:49:34.5    -423    165    175    455    487 291.3  22.2  34116  288.84 0855.29
2009/04/23 09:49:34.6    -521      0    139    522    541 270.0  14.9  34100  288.57 0855.29
2009/04/23 09:49:34.7    -175     29    226    178    287 279.5  57.9  34110  288.73 0855.29
2009/04/23 09:49:34.8    -293    -24    159    295    335 265.2  30.8  34106  288.66 0855.29
2009/04/23 09:49:34.9    -111     32     80    116    140 286.4  38.0  34106  288.67 0855.29
2009/04/23 09:49:35.0    -104    -35     49    110    120 251.4  25.2  34108  288.69 0855.29
2009/04/23 09:49:35.1      35   -181    -32    185    188 168.9 -10.1  34102  288.60 0855.29
2009/04/23 09:49:35.2      39   -131     16    137    138 163.1   6.9  34100  288.55 0855.29
2009/04/23 09:49:35.3      64   -141     21    156    158 155.5   7.8  34098  288.52 0855.29
2009/04/23 09:49:35.4     116   -117    183    165    246 135.2  53.3  34102  288.60 0855.29
2009/04/23 09:49:35.5     -51   -118    216    129    251 203.6  66.4  34108  288.69 0855.29
2009/04/23 09:49:35.6     -32    -32    175     46    180 225.0  85.2  34112  288.77 0855.29
2009/04/23 09:49:35.7      38     21    147     44    153  60.2  82.8  34104  288.62 0855.29
2009/04/23 09:49:35.8    -121   -169    214    209    299 215.6  50.7  34106  288.66 0855.29
2009/04/23 09:49:35.9     -97   -209    144    231    272 204.9  35.5  34106  288.66 0855.29
2009/04/23 09:49:36.0    -248   -116     15    274    275 244.9   3.3  34102  288.58 0855.29
2009/04/23 09:49:36.1    -350   -138    -19    377    378 248.4  -3.0  34104  288.62 0855.29
2009/04/23 09:49:36.2    -423   -228     85    481    489 241.6  10.1  34098  288.52 0855.29
2009/04/23 09:49:36.3    -250   -265     60    365    371 223.3   9.4  34100  288.55 0855.29
2009/04/23 09:49:36.4    -210   -223     92    307    321 223.3  16.7  34102  288.59 0855.29
2009/04/23 09:49:36.5    -330   -254    174    417    451 232.4  23.9  34100  288.56 0855.29
2009/04/23 09:49:36.6    -163   -143    151    218    265 228.7  38.4  34108  288.70 0855.29
2009/04/23 09:49:36.7    -116     34     84    121    147 286.4  38.6  34112  288.77 0855.29
2009/04/23 09:49:36.8     -55     90     21    106    109 328.4  11.1  34102  288.60 0855.29
2009/04/23 09:49:36.9     -64   -154    115    167    202 202.7  37.6  34114  288.80 0855.29
2009/04/23 09:49:37.0    -136    -10     29    137    141 265.6  12.2  34132  289.09 0855.29
2009/04/23 09:49:37.1    -138     12     57    139    150 275.2  23.1  34126  288.99 0855.29
2009/04/23 09:49:37.2      -4    -68     43     69     81 183.6  35.0  34116  288.82 0855.29
2009/04/23 09:49:37.3     -51   -185    181    193    264 195.6  48.0  34116  288.81 0855.29
2009/04/23 09:49:37.4     -80     -1    107     81    134 269.1  59.0  34126  288.99 0855.29
2009/04/23 09:49:37.5    -148    106    -37    183    187 305.7 -11.5  34134  289.13 0855.29
2009/04/23 09:49:37.6    -269    108     57    291    297 292.0  11.1  34114  288.78 0855.29
2009/04/23 09:49:37.7    -284     86      9    297    298 286.9   1.8  34120  288.88 0855.29
2009/04/23 09:49:37.8    -233    264    158    353    386 318.6  25.7  34104  288.64 0855.29
2009/04/23 09:49:37.9    -406    306    -34    509    511 307.0  -3.9  34098  288.51 0855.29
2009/04/23 09:49:38.0    -488    341    -50    596    599 305.0  -4.8  34096  288.48 0855.29
2009/04/23 09:49:38.1    -576    464    -29    740    741 308.9  -2.3  34104  288.62 0855.29
2009/04/23 09:49:38.2    -383    594     78    707    712 327.2   6.4  34100  288.54 0855.29
2009/04/23 09:49:38.3    -429    511     80    668    673 320.0   6.9  34098  288.53 0855.32
2009/04/23 09:49:38.4    -259    577    111    633    643 335.8  10.0  34098  288.52 0855.32
2009/04/23 09:49:38.5    -240    585    -25    633    634 337.7  -2.3  34100  288.54 0855.32
2009/04/23 09:49:38.6     -94    603    -24    611    612 351.1  -2.3  34100  288.56 0855.32
2009/04/23 09:49:38.7     -62    386     77    392    400 350.9  11.1  34098  288.52 0855.32
2009/04/23 09:49:38.8     -89     91     76    128    148 315.9  33.5  34106  288.65 0855.32
2009/04/23 09:49:38.9     -64    -57    -10     86     87 228.2  -6.7  34100  288.57 0855.32
2009/04/23 09:49:39.0      30   -225    128    228    261 172.2  31.9  34106  288.65 0855.32
2009/04/23 09:49:39.1       6   -235    -66    236    246 178.4 -15.8  34104  288.61 0855.32
2009/04/23 09:49:39.2     111   -153   -110    190    219 143.9 -37.1  34104  288.64 0855.32
2009/04/23 09:49:39.3     268    -51    -75    273    284 100.8 -15.5  34108  288.68 0855.32
2009/04/23 09:49:39.4     283    -78    -68    294    302 105.5 -13.2  34112  288.76 0855.32
2009/04/23 09:49:39.5     203   -203     34    288    291 135.0   6.9  34110  288.73 0855.32
2009/04/23 09:49:39.6     269   -228    120    353    374 130.3  18.8  34102  288.60 0855.32
2009/04/23 09:49:39.7     327   -152    141    361    387 115.0  22.5  34102  288.60 0855.32
2009/04/23 09:49:39.8     329   -151    -22    363    364 114.7  -3.5  34104  288.64 0855.32
2009/04/23 09:49:39.9     231   -113    -89    258    273 116.2 -19.1  34106  288.65 0855.32
2009/04/23 09:49:40.0     188   -109    -95    218    237 120.0 -29.5  34106  288.67 0855.32
2009/04/23 09:49:40.1     343   -137   -210    370    425 111.9 -36.5  34116  288.82 0855.32
2009/04/23 09:49:40.2     360   -357   -140    508    528 134.8 -15.4  34102  288.58 0855.32
2009/04/23 09:49:40.3     453    -84      7    461    462 100.6   0.9  34112  288.75 0855.31
2009/04/23 09:49:40.4     520    -48     13    523    524  95.3   1.5  34098  288.52 0855.31
2009/04/23 09:49:40.5     499    -65     30    504    505  97.5   3.5  34090  288.40 0855.31
2009/04/23 09:49:40.6     614    -41    -33    616    617  93.9  -3.1  34104  288.64 0855.31
2009/04/23 09:49:40.7     405    -34     43    407    410  94.8   6.1  34106  288.65 0855.31
2009/04/23 09:49:40.8     623    -76    -34    628    630  97.0  -3.2  34100  288.57 0855.31
2009/04/23 09:49:40.9     690    139    151    704    721  78.6  12.2  34100  288.56 0855.31
2009/04/23 09:49:41.0     359    105     66    375    381  73.7  10.0  34096  288.50 0855.31
2009/04/23 09:49:41.1     401    -13    140    402    426  91.9  19.3  34100  288.56 0855.31
2009/04/23 09:49:41.2     372   -144    303    400    501 111.2  41.1  34110  288.74 0855.31
2009/04/23 09:49:41.3     250   -290    156    384    414 139.2  23.4  34092  288.41 0855.31
2009/04/23 09:49:41.4      87   -499    -59    507    511 170.1  -6.7  34104  288.62 0855.31
2009/04/23 09:49:41.5     157   -377    -89    409    419 157.3 -12.4  34106  288.67 0855.31
2009/04/23 09:49:41.6     140   -298   -100    330    346 154.8 -16.9  34110  288.74 0855.31
2009/04/23 09:49:41.7     170   -405   -118    440    456 157.2 -15.1  34108  288.70 0855.31
2009/04/23 09:49:41.8     157   -268    -98    311    327 149.6 -17.5  34108  288.68 0855.31
2009/04/23 09:49:41.9     199   -234   -110    308    328 139.7 -19.7  34108  288.70 0855.31
2009/04/23 09:49:42.0     230   -231    -27    327    329 135.1  -4.9  34108  288.68 0855.31
2009/04/23 09:49:42.1     164   -170     21    237    238 135.9   5.2  34106  288.66 0855.31
2009/04/23 09:49:42.2     116   -157     -1    196    197 143.5  -0.5  34112  288.75 0855.31
2009/04/23 09:49:42.3      83   -158    140    179    227 152.4  42.0  34116  288.84 0855.31
2009/04/23 09:49:42.4     -80   -195    245    211    323 202.3  55.0  34112  288.76 0855.31
2009/04/23 09:49:42.5     124   -349    271    371    459 160.4  39.7  34102  288.60 0855.31
2009/04/23 09:49:42.6     149   -318    159    352    386 154.8  26.0  34104  288.62 0855.31
2009/04/23 09:49:42.7     104   -261     84    282    295 158.2  16.6  34102  288.59 0855.31
2009/04/23 09:49:42.8     137   -340    109    367    384 158.1  16.6  34102  288.60 0855.31
2009/04/23 09:49:42.9      89   -290    125    304    328 163.0  23.6  34102  288.58 0855.31
2009/04/23 09:49:43.0     106   -257    122    279    304 157.5  25.2  34108  288.68 0855.31
2009/04/23 09:49:43.1      88   -331    101    343    358 165.1  16.5  34110  288.74 0855.31
2009/04/23 09:49:43.2     103   -174     30    203    206 149.5   8.5  34100  288.57 0855.31
2009/04/23 09:49:43.3      46   -179      8    185    186 165.5   2.5  34110  288.74 0855.31
2009/04/23 09:49:43.4     -81   -201    104    218    241 202.1  27.3  34116  288.83 0855.31
2009/04/23 09:49:43.5     -97   -267    165    285    329 200.1  32.9  34120  288.88 0855.31
2009/04/23 09:49:43.6    -102   -322     27    338    340 197.6   4.7  34112  288.77 0855.31
2009/04/23 09:49:43.7    -170   -187     -1    253    254 222.3  -0.3  34114  288.78 0855.31
2009/04/23 09:49:43.8    -116   -191     55    224    231 211.4  13.9  34112  288.75 0855.31
2009/04/23 09:49:43.9       0   -236    107    237    260 180.2  26.2  34112  288.76 0855.31
2009/04/23 09:49:44.0      51   -210     51    217    223 166.2  13.2  34108  288.70 0855.31
2009/04/23 09:49:44.1     -57   -186      9    195    196 197.2   2.8  34108  288.69 0855.31
2009/04/23 09:49:44.2    -114   -155     41    193    198 216.3  12.0  34104  288.62 0855.31
2009/04/23 09:49:44.3    -147   -125    -26    194    196 229.6  -7.7  34102  288.58 0855.30
2009/04/23 09:49:44.4     -75   -158     45    176    182 205.5  14.5  34106  288.67 0855.30
2009/04/23 09:49:44.5     -86    -70     63    111    127 230.9  31.9  34104  288.62 0855.30
2009/04/23 09:49:44.6    -304     97    -65    320    327 287.8 -11.6  34112  288.75 0855.30
2009/04/23 09:49:44.7    -392    -57    171    397    432 261.6  24.9  34134  289.12 0855.30
2009/04/23 09:49:44.8    -360   -280    103    457    469 232.2  12.8  34120  288.90 0855.30
2009/04/23 09:49:44.9    -208   -331    -80    391    400 212.1 -11.6  34122  288.94 0855.30
2009/04/23 09:49:45.0    -300   -141    -59    332    338 244.8 -10.1  34108  288.69 0855.30
2009/04/23 09:49:45.1    -235    -93    -70    253    263 248.3 -15.5  34110  288.73 0855.30
2009/04/23 09:49:45.2    -294    -22   -139    295    326 265.6 -31.5  34094  288.44 0855.30
2009/04/23 09:49:45.3    -218     -3    -86    219    235 269.2 -26.9  34100  288.55 0855.30
2009/04/23 09:49:45.4    -165    -52    -18    174    175 252.5  -6.0  34106  288.67 0855.30
2009/04/23 09:49:45.5    -199    -53    -53    206    213 255.0 -14.7  34104  288.62 0855.30
2009/04/23 09:49:45.6    -185    -28    -62    188    199 261.4 -18.3  34104  288.64 0855.30
2009/04/23 09:49:45.7    -177    -73    -18    192    193 247.4  -5.4  34120  288.91 0855.30
2009/04/23 09:49:45.8    -192    -72    -43    206    211 249.4 -11.9  34102  288.60 0855.30
2009/04/23 09:49:45.9    -192    -51    -71    199    212 254.9 -19.7  34106  288.67 0855.30
2009/04/23 09:49:46.0    -204    -33    -59    207    216 260.8 -16.0  34144  289.31 0855.30
2009/04/23 09:49:46.1    -194    -45    -49    200    207 257.0 -13.9  34164  289.65 0855.30
2009/04/23 09:49:46.2    -203    -24     60    205    214 263.2  16.3  34170  289.75 0855.30
2009/04/23 09:49:46.3    -205    -21     15    207    208 263.9   4.2  34182  289.96 0855.28
2009/04/23 09:49:46.4    -140      8     38    141    147 273.5  15.3  34180  289.91 0855.28
2009/04/23 09:49:46.5    -102     24     13    105    106 283.7   7.5  34176  289.85 0855.28
2009/04/23 09:49:46.6     -64     22    -55     68     87 289.1 -47.7  34168  289.70 0855.28
2009/04/23 09:49:46.7     -27     43    -30     51     59 327.5 -38.8  34168  289.72 0855.28
2009/04/23 09:49:46.8     -36     47    -28     60     66 323.0 -31.5  34168  289.70 0855.28
2009/04/23 09:49:46.9      -9     64    -18     65     68 352.0 -15.4  34162  289.62 0855.28
2009/04/23 09:49:47.0      -9     64     -4     65     66 352.0  -4.1  34144  289.31 0855.28
2009/04/23 09:49:47.1      -3     52    -37     53     64 356.4 -43.0  34142  289.26 0855.28
2009/04/23 09:49:47.2     -29     45    -65     54     84 327.5 -60.8  34122  288.94 0855.28
2009/04/23 09:49:47.3     -41     71    -66     83    106 329.7 -47.1  34130  289.08 0855.28
2009/04/23 09:49:47.4      -8    118    -19    119    121 356.0  -9.4  34130  289.08 0855.28
2009/04/23 09:49:47.5      23    114      5    117    118  11.5   2.8  34134  289.13 0855.28
2009/04/23 09:49:47.6      39     95    -44    103    112  22.3 -28.5  34138  289.19 0855.28
2009/04/23 09:49:47.7      71     43      3     84     85  58.5   2.3  34130  289.06 0855.28
2009/04/23 09:49:47.8      94     35      7    101    102  69.2   4.4  34128  289.04 0855.28
2009/04/23 09:49:47.9      65     63     93     91    130  46.0  50.1  34122  288.92 0855.28
2009/04/23 09:49:48.0     -29    -24    101     38    107 230.5  79.2  34154  289.48 0855.28
2009/04/23 09:49:48.1     -79     65    105    103    147 309.5  50.2  34142  289.28 0855.28
2009/04/23 09:49:48.2     -97     53     80    111    136 298.8  39.5  34134  289.13 0855.28
2009/04/23 09:49:48.3     -77     25     57     82     99 288.4  38.6  34134  289.13 0855.28
2009/04/23 09:49:48.4      28     12    116     31    120  66.5  84.9  34134  289.13 0855.28
2009/04/23 09:49:48.5     113    -68    160    132    207 121.1  56.3  34120  288.91 0855.28
2009/04/23 09:49:48.6      23   -243    166    245    295 174.6  37.4  34120  288.88 0855.28
2009/04/23 09:49:48.7      27   -317    113    319    338 175.1  20.3  34120  288.89 0855.28
2009/04/23 09:49:48.8      84   -256    104    270    289 161.7  22.0  34118  288.85 0855.28
2009/04/23 09:49:48.9      58   -233     80    241    255 166.0  18.5  34118  288.85 0855.28
2009/04/23 09:49:49.0       8   -264     58    265    272 178.2  12.4  34120  288.88 0855.28
2009/04/23 09:49:49.1     -16   -210     33    211    214 184.5   9.0  34120  288.89 0855.28
2009/04/23 09:49:49.2      -3   -161    -49    162    170 181.4 -17.0  34128  289.02 0855.28
2009/04/23 09:49:49.3     -89   -101     60    136    148 221.4  25.2  34118  288.87 0855.27
2009/04/23 09:49:49.4     -66    -71    -48     98    109 222.8 -32.2  34126  289.01 0855.27
2009/04/23 09:49:49.5    -212    -73    -45    225    230 250.9 -11.5  34118  288.87 0855.27
2009/04/23 09:49:49.6    -282   -271   -147    392    418 226.1 -25.9  34108  288.70 0855.27
2009/04/23 09:49:49.7    -226   -253    -79    340    350 221.7 -13.2  34110  288.71 0855.27
2009/04/23 09:49:49.8      99   -328     30    343    345 163.1   5.1  34116  288.82 0855.27
2009/04/23 09:49:49.9     132   -278     78    308    318 154.6  14.3  34112  288.75 0855.27
2009/04/23 09:49:50.0      67   -173     98    186    210 158.8  29.8  34116  288.84 0855.27
2009/04/23 09:49:50.1     -13     25    180     29    182 332.8  90.0  34138  289.19 0855.27
2009/04/23 09:49:50.2    -112    -88    138    143    198 231.8  49.2  34130  289.06 0855.27
2009/04/23 09:49:50.3    -155   -117     57    195    204 232.9  16.3  34124  288.97 0855.27
2009/04/23 09:49:50.4    -120    -67    -28    138    141 240.7 -11.5  34124  288.97 0855.27
2009/04/23 09:49:50.5     -51   -167     23    175    177 197.2   7.5  34132  289.11 0855.27
2009/04/23 09:49:50.6    -104   -164   -160    195    252 212.3 -48.1  34106  288.65 0855.27
2009/04/23 09:49:50.7    -280   -115    -54    303    308 247.6 -10.3  34108  288.68 0855.27
2009/04/23 09:49:50.8    -436   -159    -80    465    473 250.0  -9.8  34134  289.12 0855.27
2009/04/23 09:49:50.9    -377   -123    -79    397    405 251.8 -11.3  34130  289.07 0855.27
2009/04/23 09:49:51.0    -409    -86    -85    418    427 258.1 -11.5  34132  289.11 0855.27
2009/04/23 09:49:51.1    -407    -18   -127    408    428 267.4 -17.3  34140  289.22 0855.27
2009/04/23 09:49:51.2    -306    -96   -114    321    341 252.4 -19.7  34122  288.94 0855.27
2009/04/23 09:49:51.3    -354    -24    -41    355    358 266.0  -6.6  34112  288.77 0855.25
2009/04/23 09:49:51.4    -423    -80   -113    431    446 259.3 -14.8  34108  288.70 0855.25
2009/04/23 09:49:51.5    -375     17   -116    376    394 272.6 -17.2  34106  288.66 0855.25
2009/04/23 09:49:51.6    -278    -12    -54    279    285 267.4 -11.1  34116  288.81 0855.25
2009/04/23 09:49:51.7    -279     39    -81    282    293 278.1 -20.7  34126  289.00 0855.25
2009/04/23 09:49:51.8    -417    -87   -135    427    447 258.2 -22.8  34132  289.09 0855.25
2009/04/23 09:49:51.9    -383   -122   -189    402    444 252.3 -31.5  34120  288.89 0855.25
2009/04/23 09:49:52.0    -505   -215   -235    549    597 246.9 -29.2  34118  288.85 0855.25
2009/04/23 09:49:52.1    -466   -155   -198    492    530 251.5 -27.5  34116  288.81 0855.25
2009/04/23 09:49:52.2    -209   -400    -91    452    462 207.7 -11.5  34114  288.80 0855.25
2009/04/23 09:49:52.3    -285   -218    137    359    384 232.6  22.0  34116  288.82 0855.25
2009/04/23 09:49:52.4     -90   -123    144    153    210 216.1  48.2  34124  288.97 0855.25
2009/04/23 09:49:52.5    -104   -300     72    318    327 199.2  12.9  34122  288.92 0855.25
2009/04/23 09:49:52.6    -113   -219   -109    247    269 207.4 -29.7  34124  288.95 0855.25
2009/04/23 09:49:52.7    -328    -34     13    330    331 263.9   2.4  34128  289.04 0855.25
2009/04/23 09:49:52.8    -280    -16    -43    281    285 266.7  -8.8  34124  288.97 0855.25
2009/04/23 09:49:52.9    -193    -18     -9    194    195 264.5  -2.8  34120  288.89 0855.25
2009/04/23 09:49:53.0    -194     85      0    212    213 293.7   0.0  34114  288.79 0855.25
2009/04/23 09:49:53.1    -241    109     88    265    280 294.4  18.5  34120  288.88 0855.25
2009/04/23 09:49:53.2    -108    138    150    176    231 321.9  44.8  34118  288.87 0855.25
2009/04/23 09:49:53.3     -95    143    181    172    249 326.4  51.4  34122  288.94 0855.26
2009/04/23 09:49:53.4     -89     12    145     90    170 277.9  65.1  34116  288.82 0855.26
2009/04/23 09:49:53.5     -38   -216    160    220    272 190.0  39.7  34110  288.71 0855.26
2009/04/23 09:49:53.6    -124   -235     86    266    280 207.9  17.9  34114  288.80 0855.26
2009/04/23 09:49:53.7    -173   -153      2    232    233 228.6   0.5  34106  288.65 0855.26
2009/04/23 09:49:53.8     -82    -61     76    103    128 233.6  40.1  34104  288.62 0855.26
2009/04/23 09:49:53.9     -57    -55    112     80    137 226.0  60.6  34120  288.91 0855.26
2009/04/23 09:49:54.0     -22      0    138     23    139 270.0  90.0  34126  289.01 0855.26
2009/04/23 09:49:54.1     -87     -7    165     88    187 265.2  69.8  34128  289.02 0855.26
2009/04/23 09:49:54.2      -9     54    161     55    170 350.2  81.0  34110  288.72 0855.26
2009/04/23 09:49:54.3     -12    -44    164     46    170 196.0  84.1  34114  288.79 0855.26
2009/04/23 09:49:54.4      54   -203    208    211    296 165.1  49.9  34110  288.73 0855.26
2009/04/23 09:49:54.6     214    -92    214    234    317 113.3  47.3  34106  288.65 0855.26
2009/04/23 09:49:54.6     146    -63    257    160    302 113.5  64.9  34114  288.78 0855.26
2009/04/23 09:49:54.7     -50   -282    209    287    355 190.2  39.7  34104  288.62 0855.26
2009/04/23 09:49:54.9     -80   -395    299    404    502 191.6  40.1  34102  288.59 0855.26
2009/04/23 09:49:55.0     -89   -476    284    485    562 190.6  33.0  34102  288.60 0855.26
2009/04/23 09:49:55.1      16   -472     84    473    481 178.0  10.1  34100  288.54 0855.26
2009/04/23 09:49:55.2     -12   -442    164    443    472 181.6  21.4  34102  288.58 0855.26
2009/04/23 09:49:55.3      43   -399    316    402    511 173.8  42.2  34104  288.61 0855.26
2009/04/23 09:49:55.4     -10   -419    332    420    535 181.4  42.2  34104  288.64 0855.26
2009/04/23 09:49:55.5      40   -280    221    283    359 171.8  42.0  34100  288.57 0855.26
2009/04/23 09:49:55.6      44   -382    194    385    431 173.4  28.9  34102  288.58 0855.26
2009/04/23 09:49:55.7      43   -401    152    404    431 173.8  21.7  34104  288.61 0855.26
2009/04/23 09:49:55.8     151   -364     61    395    400 157.5   8.9  34100  288.55 0855.26
2009/04/23 09:49:55.9     281   -298     35    410    412 136.7   5.0  34106  288.65 0855.26
2009/04/23 09:49:56.0     264   -198    117    330    350 126.9  20.1  34106  288.66 0855.26
2009/04/23 09:49:56.1      38   -496    160    498    524 175.5  17.8  34094  288.47 0855.26
2009/04/23 09:49:56.2      22   -690    235    691    731 178.1  18.8  34110  288.74 0855.26
2009/04/23 09:49:56.3       5   -620    133    621    636 179.5  12.1  34104  288.64 0855.26
2009/04/23 09:49:56.4    -198   -335    190    390    433 210.7  27.9  34120  288.89 0855.26
2009/04/23 09:49:56.5     -20   -525    148    526    547 182.3  15.8  34108  288.69 0855.26
2009/04/23 09:49:56.6     -53   -462     65    466    471 186.6   8.0  34114  288.78 0855.26
2009/04/23 09:49:56.7    -279   -229    108    362    378 230.6  16.6  34112  288.77 0855.26
2009/04/23 09:49:56.8    -346   -198    -31    399    401 240.2  -4.6  34122  288.93 0855.26
2009/04/23 09:49:56.9    -272   -216    -49    348    352 231.5  -8.1  34120  288.89 0855.26
2009/04/23 09:49:57.0     -97   -175    -69    201    212 209.0 -23.6  34120  288.89 0855.26
2009/04/23 09:49:57.1    -114   -265      9    289    290 203.4   1.8  34116  288.81 0855.26
2009/04/23 09:49:57.2      88   -261    229    276    358 161.3  43.8  34110  288.71 0855.26
2009/04/23 09:49:57.3     -19   -417    234    418    479 182.7  31.7  34092  288.43 0855.26
2009/04/23 09:49:57.4      58   -290    235    296    377 168.7  42.4  34100  288.57 0855.27
2009/04/23 09:49:57.5       0   -270    189    271    330 180.0  38.3  34104  288.63 0855.27
2009/04/23 09:49:57.6      42   -160    142    166    218 165.1  44.8  34104  288.64 0855.27
2009/04/23 09:49:57.7      73   -101    145    125    191 144.0  55.0  34108  288.69 0855.27
2009/04/23 09:49:57.8      75     24    116     79    140  71.8  62.6  34118  288.86 0855.27
2009/04/23 09:49:57.9      32     96    146    102    178  18.3  61.5  34116  288.84 0855.27
2009/04/23 09:49:58.0     122     61    165    137    214  63.4  56.3  34118  288.87 0855.27
2009/04/23 09:49:58.1      63     20    110     67    128  71.8  65.7  34122  288.92 0855.27
2009/04/23 09:49:58.2      18    -61     32     64     71 163.1  27.3  34120  288.89 0855.27
2009/04/23 09:49:58.3     -50   -138    -48    147    154 200.0 -23.8  34112  288.75 0855.27
2009/04/23 09:49:58.4    -203   -143    -61    249    257 234.7 -13.9  34088  288.36 0855.27
2009/04/23 09:49:58.5    -195   -249     76    317    326 218.0  13.5  34094  288.46 0855.27
2009/04/23 09:49:58.6     -95   -236    214    255    332 202.1  44.2  34092  288.41 0855.27
2009/04/23 09:49:58.7      25   -224    306    226    380 173.5  60.3  34096  288.49 0855.27
2009/04/23 09:49:58.8     -23   -312    265    313    410 184.4  44.7  34090  288.38 0855.27
2009/04/23 09:49:58.9     -91   -241    -51    258    264 200.7 -11.3  34094  288.46 0855.27
2009/04/23 09:49:59.0     -15   -409    -64    410    416 182.2  -8.9  34084  288.29 0855.27
2009/04/23 09:49:59.1     -20   -339     22    340    341 183.5   3.7  34086  288.33 0855.27
2009/04/23 09:49:59.2     -90   -124    113    154    191 216.1  39.9  34092  288.43 0855.27
2009/04/23 09:49:59.3     -63    -25    191     68    202 248.2  79.9  34102  288.58 0855.27
2009/04/23 09:49:59.4    -124    -54     91    136    163 246.5  36.7  34100  288.57 0855.27
2009/04/23 09:49:59.5    -120   -120    -48    171    177 225.0 -20.2  34098  288.52 0855.27
2009/04/23 09:49:59.6    -173    -86    -30    194    197 243.6  -9.0  34100  288.57 0855.27
2009/04/23 09:49:59.7    -354   -106     52    370    374 253.2   8.1  34102  288.59 0855.27
2009/04/23 09:49:59.8    -269    -33     90    272    287 263.0  18.5  34108  288.68 0855.27
2009/04/23 09:49:59.9    -201     56     -8    209    210 285.7  -2.2  34106  288.67 0855.27
2009/04/23 09:50:00.0    -257    -26    -10    259    260 264.1  -2.2  34104  288.63 0855.27
2009/04/23 09:50:00.1    -216   -154      4    266    267 234.5   1.0  34104  288.63 0855.27
2009/04/23 09:50:00.2    -218    -87     64    235    244 248.2  15.3  34102  288.59 0855.27
2009/04/23 09:50:00.3    -159    -58     80    170    187 249.8  27.1  34098  288.53 0855.27
2009/04/23 09:50:00.4     -95     40    131    104    167 293.1  57.5  34106  288.67 0855.27
2009/04/23 09:50:00.5    -113      8    146    114    185 274.4  58.2  34110  288.72 0855.27
2009/04/23 09:50:00.6    -267    -19    117    268    292 265.9  25.1  34104  288.61 0855.27
2009/04/23 09:50:00.7    -347     95    106    360    376 285.4  16.5  34090  288.40 0855.27
2009/04/23 09:50:00.8    -240    -45     90    245    261 259.4  20.9  34088  288.36 0855.27
2009/04/23 09:50:00.9    -268    -20    147    269    306 265.6  31.3  34092  288.41 0855.27
2009/04/23 09:50:01.0    -145   -111    181    183    257 232.5  49.9  34098  288.51 0855.27
2009/04/23 09:50:01.1       0   -217     90    218    235 180.0  23.8  34094  288.47 0855.27
2009/04/23 09:50:01.2      42   -148     75    154    171 164.0  27.4  34092  288.42 0855.27
2009/04/23 09:50:01.3     -96   -152    186    180    258 212.3  51.2  34096  288.48 0855.27
2009/04/23 09:50:01.4    -121    -40    139    128    188 251.4  52.5  34098  288.52 0855.27
2009/04/23 09:50:01.5     -20   -101    108    104    149 191.6  50.7  34090  288.40 0855.27
2009/04/23 09:50:01.6     -94   -204    101    225    246 204.7  25.9  34090  288.37 0855.27
2009/04/23 09:50:01.7      29   -275    256    277    377 173.8  47.8  34090  288.37 0855.27
2009/04/23 09:50:01.8      15   -176    124    177    216 174.9  38.8  34090  288.38 0855.27
2009/04/23 09:50:01.9     103   -127    160    164    229 140.8  49.8  34094  288.47 0855.27
2009/04/23 09:50:02.0      10    -54    165     55    173 169.3  81.0  34098  288.52 0855.27
2009/04/23 09:50:02.1     -68   -228    213    239    320 196.7  46.4  34094  288.44 0855.27
2009/04/23 09:50:02.2     -70   -286    134    295    324 193.8  26.2  34094  288.44 0855.27
2009/04/23 09:50:02.3      54   -202    117    210    240 164.9  31.4  34090  288.40 0855.27
2009/04/23 09:50:02.4      67   -192    199    204    284 160.8  49.4  34090  288.37 0855.27
2009/04/23 09:50:02.5      99   -205    184    228    292 154.1  43.3  34092  288.43 0855.27
2009/04/23 09:50:02.6      69   -201    147    213    258 161.1  38.0  34102  288.58 0855.27
2009/04/23 09:50:02.7     -64   -172     37    184    188 200.5  11.6  34098  288.52 0855.27
2009/04/23 09:50:02.8     -97    -71     79    121    144 234.0  35.6  34104  288.64 0855.27
2009/04/23 09:50:02.9     -44    -61    147     76    165 216.1  70.6  34098  288.53 0855.27
2009/04/23 09:50:03.0     -95    -76    107    122    162 231.4  45.8  34098  288.53 0855.27
2009/04/23 09:50:03.1     -57   -104    183    119    218 208.9  64.1  34096  288.50 0855.27
2009/04/23 09:50:03.2     -25   -148    261    151    301 189.7  67.2  34092  288.43 0855.27
2009/04/23 09:50:03.3    -191   -197    274    275    388 224.1  50.0  34094  288.45 0855.27
2009/04/23 09:50:03.4    -343    -66    139    350    376 259.1  23.0  34100  288.54 0855.29
2009/04/23 09:50:03.5    -252    -28    165    254    302 263.6  35.7  34096  288.48 0855.29
2009/04/23 09:50:03.6    -300    -61    185    307    358 258.5  34.0  34086  288.33 0855.29
2009/04/23 09:50:03.7    -292    -27    172    294    340 264.5  33.1  34086  288.32 0855.29
2009/04/23 09:50:03.8    -351     20    184    352    397 273.3  29.8  34084  288.28 0855.29
2009/04/23 09:50:03.9    -387    -51    216    391    446 262.4  31.4  34094  288.45 0855.29
2009/04/23 09:50:04.0    -501    -27     71    502    508 266.9   8.1  34110  288.73 0855.29
2009/04/23 09:50:04.1    -411    -55    176    415    450 262.3  24.3  34102  288.58 0855.29
2009/04/23 09:50:04.2    -478    -58    112    482    495 263.0  13.1  34094  288.46 0855.29
2009/04/23 09:50:04.3    -493   -102    114    504    517 258.2  12.8  34090  288.37 0855.29
2009/04/23 09:50:04.4    -488   -168     61    517    521 250.9   6.8  34082  288.25 0855.29
2009/04/23 09:50:04.5    -472   -110     -7    485    486 256.8  -0.9  34074  288.10 0855.29
2009/04/23 09:50:04.6    -418    -12      6    419    420 268.3   0.9  34092  288.43 0855.29
2009/04/23 09:50:04.7    -188    -56    104    197    222 253.4  30.3  34088  288.35 0855.29
2009/04/23 09:50:04.8      77   -113    -48    137    146 145.7 -19.6  34104  288.64 0855.29
2009/04/23 09:50:04.9      16   -149    -78    150    169 173.7 -33.9  34100  288.57 0855.29
2009/04/23 09:50:05.0     -59   -188    -17    198    199 197.6  -5.1  34100  288.55 0855.29
2009/04/23 09:50:05.1     -85   -196    -59    214    223 203.6 -15.4  34096  288.48 0855.29
2009/04/23 09:50:05.2     -84   -250    103    264    283 198.7  22.3  34096  288.48 0855.29
2009/04/23 09:50:05.3     -93   -124     56    156    165 217.0  20.2  34096  288.50 0855.29
2009/04/23 09:50:05.4    -249   -180     82    308    319 234.0  14.9  34106  288.66 0855.31
2009/04/23 09:50:05.5      62   -271    152    279    317 167.1  30.9  34094  288.46 0855.31
2009/04/23 09:50:05.6     -78   -495     28    502    503 189.0   3.3  34088  288.35 0855.31
2009/04/23 09:50:05.7     -61   -333    113    339    358 190.5  18.4  34086  288.33 0855.31
2009/04/23 09:50:05.8     108   -356     18    373    374 163.1   2.8  34084  288.30 0855.31
2009/04/23 09:50:05.9     255   -397    171    472    502 147.3  20.7  34084  288.29 0855.31
2009/04/23 09:50:06.0     140   -376    -15    402    403 159.5  -2.2  34078  288.18 0855.31
2009/04/23 09:50:06.1      75   -481     44    487    490 171.1   5.2  34082  288.24 0855.31
2009/04/23 09:50:06.2      28   -437    152    438    464 176.3  19.2  34072  288.09 0855.31
2009/04/23 09:50:06.3     -43   -604    279    606    667 184.1  26.4  34078  288.18 0855.31
2009/04/23 09:50:06.4      72   -459    167    465    494 171.0  20.6  34082  288.24 0855.31
2009/04/23 09:50:06.5      23   -536    162    537    561 177.5  16.8  34088  288.35 0855.31
2009/04/23 09:50:06.6    -115   -458    104    473    485 194.2  12.5  34082  288.25 0855.31
2009/04/23 09:50:06.7    -135   -649    494    664    827 191.8  40.4  34088  288.36 0855.31
2009/04/23 09:50:06.8     -16   -444    363    445    574 182.1  43.4  34088  288.36 0855.31
2009/04/23 09:50:06.9      35   -465    196    467    506 175.6  24.1  34088  288.34 0855.31
2009/04/23 09:50:07.0    -132   -485    169    503    531 195.3  18.6  34084  288.30 0855.31
2009/04/23 09:50:07.1    -287   -314    150    426    452 222.4  19.4  34092  288.41 0855.31
2009/04/23 09:50:07.2    -474   -140   -244    495    551 253.5 -32.6  34098  288.52 0855.31
2009/04/23 09:50:07.3    -483   -149   -157    506    529 252.8 -22.2  34088  288.36 0855.31
2009/04/23 09:50:07.4    -427    140   -159    450    478 288.2 -19.5  34106  288.66 0855.32
2009/04/23 09:50:07.5    -460     20    -76    461    468 272.6  -9.4  34094  288.46 0855.32
2009/04/23 09:50:07.6    -383   -417    100    567    576 222.6  10.0  34088  288.34 0855.32
2009/04/23 09:50:07.7    -770   -362     89    851    856 244.8   6.0  34076  288.14 0855.32
2009/04/23 09:50:07.8    -893    -97   -139    899    910 263.8  -8.8  34098  288.51 0855.32
2009/04/23 09:50:07.9   -1097   -193   -223   1115   1138 260.0 -11.3  34092  288.41 0855.32
2009/04/23 09:50:08.0    -761   -394    230    858    889 242.6  15.0  34078  288.18 0855.32
2009/04/23 09:50:08.1    -951   -527    -33   1088   1089 241.0  -1.8  34088  288.35 0855.32
2009/04/23 09:50:08.2    -903   -323   -266    960    997 250.3 -15.5  34056  287.81 0855.32
2009/04/23 09:50:08.3    -862    -66   -243    865    898 265.6 -20.4  34072  288.08 0855.32
2009/04/23 09:50:08.4    -857      0   -269    858    899 270.0 -22.3  34096  288.49 0855.35
2009/04/23 09:50:08.5    -744   -233   -181    780    801 252.6 -13.1  34124  288.95 0855.35
2009/04/23 09:50:08.6    -907   -142   -280    919    960 261.1 -21.8  34102  288.59 0855.35
2009/04/23 09:50:08.7    -443   -391   -218    591    629 228.6 -25.7  34102  288.60 0855.35
2009/04/23 09:50:08.8    -298   -621   -261    689    736 205.7 -26.2  34094  288.47 0855.35
2009/04/23 09:50:08.9    -132   -597    -89    612    619 192.5  -8.3  34096  288.49 0855.35
2009/04/23 09:50:09.0     119   -519   -190    533    567 167.0 -19.7  34096  288.48 0855.35
2009/04/23 09:50:09.1     268   -516   -245    582    631 152.5 -28.6  34090  288.37 0855.35
2009/04/23 09:50:09.2     104   -421   -145    434    458 166.1 -18.6  34096  288.48 0855.35
2009/04/23 09:50:09.3     103   -414    -38    427    429 166.0  -5.1  34096  288.50 0855.35
2009/04/23 09:50:09.4      58   -526   -110    530    542 173.7 -11.8  34090  288.40 0855.35
2009/04/23 09:50:09.5      62   -309    -96    316    330 168.5 -22.1  34086  288.31 0855.35
2009/04/23 09:50:09.6     259   -261    -76    368    376 135.2 -11.8  34096  288.50 0855.35
2009/04/23 09:50:09.7     222   -317    -44    388    391 145.0  -6.5  34094  288.47 0855.35
2009/04/23 09:50:09.8     270   -290     90    397    408 137.0  12.8  34098  288.51 0855.35
2009/04/23 09:50:09.9     133   -337    118    363    382 158.4  18.1  34094  288.45 0855.35
2009/04/23 09:50:10.0     -32   -465     -4    467    468 184.0  -0.5  34094  288.46 0855.35
2009/04/23 09:50:10.1     -52   -277     98    282    299 190.7  19.2  34096  288.49 0855.35
2009/04/23 09:50:10.2      28   -381    183    382    423 175.8  27.3  34090  288.38 0855.35
2009/04/23 09:50:10.3     129   -605    192    619    649 167.9  17.3  34096  288.50 0855.35
2009/04/23 09:50:10.4     146   -775    131    789    800 169.3   9.4  34092  288.42 0855.34
2009/04/23 09:50:10.5     -23   -662    141    663    678 182.0  12.0  34088  288.36 0855.34
2009/04/23 09:50:10.6     155   -830    350    845    914 169.4  23.9  34090  288.37 0855.34
2009/04/23 09:50:10.7    -153   -662     87    680    686 193.0   7.3  34110  288.73 0855.34
2009/04/23 09:50:10.8    -127   -516     -8    532    533 193.9  -0.9  34116  288.82 0855.34
2009/04/23 09:50:10.9     -52   -381    210    385    438 187.9  31.3  34104  288.63 0855.34
2009/04/23 09:50:11.0      33   -532    496    534    728 176.4  47.7  34096  288.48 0855.34
2009/04/23 09:50:11.1     211   -531    404    572    700 158.3  38.7  34096  288.48 0855.34
2009/04/23 09:50:11.2     111   -536    350    548    650 168.2  35.6  34092  288.43 0855.34
2009/04/23 09:50:11.3      55   -445    406    449    605 172.9  46.9  34098  288.53 0855.34
2009/04/23 09:50:11.4      43   -490    296    493    575 174.9  34.0  34102  288.58 0855.34
2009/04/23 09:50:11.5    -128   -577    423    592    727 192.5  39.2  34082  288.24 0855.34
2009/04/23 09:50:11.6       4   -726    277    727    777 179.6  22.0  34080  288.21 0855.34
2009/04/23 09:50:11.7     199   -666    377    696    791 163.4  30.8  34086  288.31 0855.34
2009/04/23 09:50:11.8     106   -296    276    315    418 160.2  45.8  34080  288.23 0855.34
2009/04/23 09:50:11.9      67   -366    303    373    480 169.5  43.3  34092  288.43 0855.34
2009/04/23 09:50:12.0     196   -325     33    380    382 148.8   5.0  34096  288.49 0855.34
2009/04/23 09:50:12.1     237   -471     56    528    532 153.3   6.1  34094  288.45 0855.34
2009/04/23 09:50:12.3      33   -490    148    492    514 176.1  16.8  34092  288.42 0855.34
2009/04/23 09:50:12.3     115   -451    340    466    576 165.7  39.7  34096  288.50 0855.34
2009/04/23 09:50:12.4      89   -437    407    447    604 168.4  47.0  34088  288.36 0855.29
2009/04/23 09:50:12.5      96   -606    420    614    743 171.0  37.7  34084  288.29 0855.29
2009/04/23 09:50:12.6     315   -312    226    444    498 134.7  29.2  34090  288.39 0855.29
2009/04/23 09:50:12.7     286   -637    252    699    743 155.8  20.8  34090  288.37 0855.29
2009/04/23 09:50:12.8     282   -511    355    584    683 151.1  34.2  34084  288.30 0855.29
2009/04/23 09:50:12.9     329   -329    387    466    605 135.0  43.8  34078  288.19 0855.29
2009/04/23 09:50:13.0     352   -281    275    451    528 128.6  34.3  34094  288.46 0855.29
2009/04/23 09:50:13.1     224   -236    224    326    395 136.5  37.8  34090  288.38 0855.29
2009/04/23 09:50:13.2     104   -221    154    245    289 154.7  35.5  34084  288.29 0855.29
2009/04/23 09:50:13.4     256   -389    275    466    541 146.6  33.4  34086  288.32 0855.29
2009/04/23 09:50:13.5     265   -401    257    481    545 146.5  30.3  34086  288.33 0855.29
2009/04/23 09:50:13.5     191   -499    307    535    616 159.0  32.4  34086  288.31 0855.29
2009/04/23 09:50:13.6     137   -724    290    737    792 169.3  22.7  34082  288.25 0855.29
2009/04/23 09:50:13.7      54   -572    337    575    666 174.6  33.1  34084  288.30 0855.29
2009/04/23 09:50:13.8      17   -431    268    432    508 177.7  34.9  34088  288.35 0855.29
2009/04/23 09:50:13.9     185   -583    203    612    645 162.3  18.4  34078  288.18 0855.29
2009/04/23 09:50:14.0     242   -554    245    605    652 156.4  23.2  34078  288.20 0855.29
2009/04/23 09:50:14.1     389   -447    278    593    654 139.0  27.0  34068  288.03 0855.29
2009/04/23 09:50:14.2     214   -534    208    576    613 158.2  19.9  34084  288.27 0855.29
2009/04/23 09:50:14.3     173   -434    210    468    512 158.2  25.8  34090  288.37 0855.29
2009/04/23 09:50:14.4      34   -405    234    407    469 175.2  32.6  34084  288.29 0855.31
2009/04/23 09:50:14.5     156   -475    274    500    570 161.8  31.3  34080  288.21 0855.31
2009/04/23 09:50:14.6     122   -372    159    392    423 161.9  23.2  34082  288.26 0855.31
2009/04/23 09:50:14.7      37   -519    231    521    569 175.9  25.6  34078  288.18 0855.31
2009/04/23 09:50:14.8      -8   -494    358    495    610 181.0  39.5  34078  288.20 0855.31
2009/04/23 09:50:14.9     -62   -398    286    403    494 188.9  39.0  34068  288.00 0855.31
2009/04/23 09:50:15.0      84   -354    189    364    410 166.6  29.5  34084  288.30 0855.31
2009/04/23 09:50:15.1     126   -345    181    368    410 159.8  28.1  34084  288.30 0855.31
2009/04/23 09:50:15.2      66   -388    343    394    522 170.2  45.5  34082  288.25 0855.31
2009/04/23 09:50:15.3      98   -311    256    327    415 162.4  42.0  34086  288.33 0855.31
2009/04/23 09:50:15.4     150   -335    205    368    421 155.8  31.4  34084  288.29 0855.31
2009/04/23 09:50:15.5     -62   -479    168    484    513 187.5  19.2  34090  288.37 0855.31
2009/04/23 09:50:15.6      11   -329    134    330    356 178.0  23.4  34090  288.40 0855.31
2009/04/23 09:50:15.7      -9   -305    100    306    323 181.8  18.2  34092  288.41 0855.31
2009/04/23 09:50:15.8     -32   -296     49    298    303 186.2   9.3  34086  288.32 0855.31
2009/04/23 09:50:15.9      62   -274    141    282    315 167.1  28.5  34086  288.31 0855.31
2009/04/23 09:50:16.0     103   -201    173    227    285 152.8  41.6  34086  288.31 0855.31
2009/04/23 09:50:16.1     -18   -274    112    275    296 183.8  23.1  34090  288.37 0855.31
2009/04/23 09:50:16.2      14   -300    -16    301    302 177.3  -3.1  34084  288.27 0855.31
2009/04/23 09:50:16.3     -18   -212     57    213    221 184.9  15.2  34078  288.18 0855.31
2009/04/23 09:50:16.4      26    -14    176     30    178 118.9  90.0  34092  288.42 0855.33
2009/04/23 09:50:16.5      53   -149    250    159    296 160.4  64.7  34096  288.48 0855.33
2009/04/23 09:50:16.6    -108   -271    355    293    460 201.8  56.4  34090  288.38 0855.33
2009/04/23 09:50:16.7     -76    -98    207    125    241 217.9  66.0  34088  288.36 0855.33
2009/04/23 09:50:16.8     203    -39    199    207    287 101.0  49.0  34088  288.36 0855.33
2009/04/23 09:50:16.9      83    -78    249    114    273 133.2  74.0  34104  288.61 0855.33
2009/04/23 09:50:17.0     -49   -176    217    183    283 195.8  55.8  34082  288.26 0855.33
2009/04/23 09:50:17.1      13   -234    204    235    311 176.6  45.6  34092  288.41 0855.33
2009/04/23 09:50:17.2      50   -194    175    201    266 165.5  45.6  34078  288.19 0855.33
2009/04/23 09:50:17.3      43    -58    137     73    155 143.0  69.3  34098  288.52 0855.33
2009/04/23 09:50:17.4     321     40     97    324    339  82.9  16.8  34090  288.37 0855.33
2009/04/23 09:50:17.5     371      3    142    372    398  89.4  22.0  34094  288.45 0855.33
2009/04/23 09:50:17.6     383    -33    150    385    413  95.0  22.4  34092  288.41 0855.33
2009/04/23 09:50:17.7     235   -110    255    260    364 115.2  49.7  34094  288.44 0855.33
2009/04/23 09:50:17.8      47    -17    188     50    194 110.0  84.9  34108  288.70 0855.33
2009/04/23 09:50:17.9     261   -177    331    316    457 124.1  51.5  34094  288.46 0855.33
2009/04/23 09:50:18.0      92   -287    271    302    405 162.2  46.5  34096  288.49 0855.33
2009/04/23 09:50:18.1      21   -323    144    324    354 176.2  25.6  34094  288.47 0855.33
2009/04/23 09:50:18.2      45   -322     85    326    337 172.0  14.7  34094  288.47 0855.33
2009/04/23 09:50:18.3     -11   -254     50    255    260 182.5  11.1  34094  288.46 0855.33
2009/04/23 09:50:18.4    -119   -187     62    222    231 212.5  15.8  34094  288.47 0855.29
2009/04/23 09:50:18.5     -15   -131    132    132    186 186.7  50.1  34100  288.55 0855.29
2009/04/23 09:50:18.6     -70   -250    176    260    313 195.8  37.6  34100  288.54 0855.29
2009/04/23 09:50:18.7    -101   -515    316    525    612 191.1  33.8  34102  288.59 0855.29
2009/04/23 09:50:18.8    -218   -343    224    407    464 212.5  31.3  34106  288.67 0855.29
2009/04/23 09:50:18.9     -19   -255    164    256    304 184.4  35.6  34098  288.51 0855.29
2009/04/23 09:50:19.0     -53   -389    241    393    461 187.8  34.4  34092  288.41 0855.29
2009/04/23 09:50:19.1      46    -97    138    108    175 154.5  57.9  34104  288.62 0855.29
2009/04/23 09:50:19.2     -10    -56     95     58    111 190.7  65.1  34112  288.77 0855.29
2009/04/23 09:50:19.3     212    -29    173    215    275  98.0  43.0  34102  288.58 0855.29
2009/04/23 09:50:19.4     227      9    271    228    354  87.5  55.8  34106  288.65 0855.29
2009/04/23 09:50:19.5     257    -31    176    259    313  97.0  37.4  34102  288.58 0855.29
2009/04/23 09:50:19.6     195    -85    204    213    294 113.7  48.7  34104  288.61 0855.29
2009/04/23 09:50:19.7     221    -47    166    227    281 102.2  39.7  34100  288.56 0855.29
2009/04/23 09:50:19.8     301      8    183    302    353  88.3  34.0  34100  288.54 0855.29
2009/04/23 09:50:19.9     151   -297    191    334    384 153.0  32.3  34096  288.49 0855.29
2009/04/23 09:50:20.1     168   -354    172    392    428 154.6  25.2  34096  288.50 0855.29
2009/04/23 09:50:20.1      15   -393    289    394    488 177.8  39.9  34082  288.24 0855.29
2009/04/23 09:50:20.2     116   -453    312    468    562 165.6  36.9  34096  288.48 0855.29
2009/04/23 09:50:20.3     153   -561    334    582    671 164.7  32.4  34094  288.45 0855.29
2009/04/23 09:50:20.4    -286   -556    319    626    702 207.2  29.2  34094  288.44 0855.23
2009/04/23 09:50:20.5    -219   -622    521    660    840 199.4  42.2  34090  288.39 0855.23
2009/04/23 09:50:20.6     131   -575    126    590    604 167.1  12.1  34080  288.22 0855.23
2009/04/23 09:50:20.7     123   -426      5    444    445 163.9   0.7  34092  288.43 0855.23
2009/04/23 09:50:20.8     -58   -221   -173    229    287 194.7 -45.3  34104  288.61 0855.23
2009/04/23 09:50:20.9      98   -195    -49    219    225 153.3 -12.6  34092  288.43 0855.23
2009/04/23 09:50:21.1      89   -369    122    380    400 166.3  17.8  34104  288.62 0855.23
2009/04/23 09:50:21.2      45   -238      4    243    244 169.3   1.0  34094  288.46 0855.23
2009/04/23 09:50:21.3      45   -177     91    183    204 165.7  28.5  34098  288.52 0855.23
2009/04/23 09:50:21.4      84    -22    136     87    161 105.1  64.4  34104  288.64 0855.23
2009/04/23 09:50:21.5       6   -238    231    239    332 178.4  49.1  34092  288.41 0855.23
2009/04/23 09:50:21.6      28   -351    133    353    377 175.3  21.6  34090  288.40 0855.23
2009/04/23 09:50:21.7      -3   -421    253    422    492 180.5  33.8  34098  288.52 0855.23
2009/04/23 09:50:21.8     -91   -436    307    446    541 191.8  37.8  34084  288.27 0855.23
2009/04/23 09:50:21.9    -121   -422    303    440    534 196.1  37.9  34088  288.35 0855.23
2009/04/23 09:50:22.0      30   -212    383    215    439 171.9  68.3  34094  288.44 0855.23
2009/04/23 09:50:22.1     175   -310    279    357    453 150.5  42.0  34090  288.39 0855.23
2009/04/23 09:50:22.2     -10   -502     16    503    504 181.2   1.9  34084  288.29 0855.23
2009/04/23 09:50:22.3     -10   -735    129    736    748 180.8  10.0  34086  288.31 0855.23
2009/04/23 09:50:22.4      12   -574     69    575    580 178.7   6.9  34100  288.56 0855.23
2009/04/23 09:50:22.5     170   -334     39    375    378 153.0   6.0  34094  288.45 0855.24
2009/04/23 09:50:22.6     -59   -291    144    297    330 191.5  27.7  34096  288.48 0855.24
2009/04/23 09:50:22.7      75    -97    -43    123    131 142.2 -19.6  34098  288.52 0855.24
2009/04/23 09:50:22.8     195   -494    -96    532    541 158.4 -10.3  34086  288.33 0855.24
2009/04/23 09:50:22.9     185   -472   -109    508    520 158.6 -12.2  34080  288.22 0855.24
2009/04/23 09:50:23.0     139   -532   -120    550    564 165.3 -12.4  34094  288.47 0855.24
2009/04/23 09:50:23.1     116   -359   -124    378    398 162.1 -18.2  34090  288.38 0855.24
2009/04/23 09:50:23.2     153    -18    -51    155    163  97.0 -23.6  34088  288.36 0855.24
2009/04/23 09:50:23.3      -4     74     -9     75     76 356.4  -7.3  34092  288.42 0855.24
2009/04/23 09:50:23.4     -78    -46     79     91    120 239.3  45.8  34096  288.48 0855.24
2009/04/23 09:50:23.5    -127     65    -44    143    149 297.1 -22.3  34094  288.47 0855.24
2009/04/23 09:50:23.6     -83      9     18     84     87 276.6  12.6  34092  288.42 0855.24
2009/04/23 09:50:23.7    -239   -175     15    297    298 233.8   2.9  34092  288.41 0855.24
2009/04/23 09:50:23.8    -132   -419     69    440    446 197.6   9.0  34100  288.56 0855.24
2009/04/23 09:50:23.9    -147   -535     64    555    559 195.4   6.6  34114  288.79 0855.24
2009/04/23 09:50:24.0    -244   -667    161    711    730 200.1  12.8  34094  288.47 0855.24
2009/04/23 09:50:24.1    -361   -658     38    751    752 208.8   2.9  34094  288.46 0855.24
2009/04/23 09:50:24.2     -39   -360    289    363    463 186.2  42.7  34096  288.48 0855.24
2009/04/23 09:50:24.3       9   -209    280    210    350 177.5  59.7  34098  288.53 0855.24
2009/04/23 09:50:24.4     114   -382    186    399    440 163.3  27.0  34092  288.41 0855.24
2009/04/23 09:50:24.5     173   -430    376    464    597 158.1  43.3  34090  288.40 0855.26
2009/04/23 09:50:24.6      60   -362    177    367    407 170.6  27.7  34090  288.40 0855.26
2009/04/23 09:50:24.7     147   -335    188    367    412 156.3  29.2  34090  288.37 0855.26
2009/04/23 09:50:24.8      -9   -584    249    585    635 180.9  24.5  34086  288.33 0855.26
2009/04/23 09:50:24.9     146   -621    214    638    674 166.7  18.6  34092  288.41 0855.26
2009/04/23 09:50:25.0     239   -497    222    552    594 154.2  23.1  34090  288.37 0855.26
2009/04/23 09:50:25.1     169   -487    207    516    555 160.8  23.0  34092  288.41 0855.26
2009/04/23 09:50:25.2     -83   -465    163    473    501 190.1  19.1  34078  288.18 0855.26
2009/04/23 09:50:25.3     -18   -374    172    375    412 182.8  26.3  34092  288.42 0855.26
2009/04/23 09:50:25.4     -18   -295    270    296    400 183.6  47.0  34094  288.44 0855.26
2009/04/23 09:50:25.5    -335   -162     85    373    383 244.1  12.9  34096  288.49 0855.26
2009/04/23 09:50:25.6    -342   -108     42    359    362 252.5   6.7  34096  288.49 0855.26
2009/04/23 09:50:25.7    -138    -74     57    157    167 241.6  20.7  34094  288.45 0855.26
2009/04/23 09:50:25.8      24    -21    113     32    117 131.3  83.9  34110  288.72 0855.26
2009/04/23 09:50:25.9     -29   -233     48    235    240 187.1  11.6  34090  288.39 0855.26
2009/04/23 09:50:26.0     214   -307    132    375    397 145.2  20.0  34090  288.37 0855.26
2009/04/23 09:50:26.1     -17   -431     -8    432    433 182.3  -1.2  34088  288.34 0855.26
2009/04/23 09:50:26.2    -127   -466     -3    484    485 195.3  -0.4  34084  288.30 0855.26
2009/04/23 09:50:26.3     -52   -283     19    288    289 190.6   3.8  34090  288.37 0855.26
2009/04/23 09:50:26.4     -41   -417     96    420    431 185.7  12.9  34094  288.46 0855.26
2009/04/23 09:50:26.5    -155   -371     62    403    408 202.7   8.8  34094  288.45 0855.29
2009/04/23 09:50:26.6    -179   -425    -66    462    467 202.8  -8.2  34090  288.40 0855.29
2009/04/23 09:50:26.7    -226   -448    -59    502    506 206.8  -6.8  34084  288.27 0855.29
2009/04/23 09:50:26.8    -148   -584    161    603    625 194.3  15.0  34068  288.01 0855.29
2009/04/23 09:50:26.9    -172   -683    165    705    725 194.2  13.2  34084  288.30 0855.29
2009/04/23 09:50:27.0      93   -595    -71    603    608 171.1  -6.8  34082  288.26 0855.29
2009/04/23 09:50:27.1     118   -538    118    551    564 167.6  12.1  34086  288.31 0855.29
2009/04/23 09:50:27.2     -90   -445    306    454    547 191.5  37.3  34090  288.37 0855.29
2009/04/23 09:50:27.3      53   -426    255    430    499 172.8  33.4  34088  288.35 0855.29
2009/04/23 09:50:27.4      79   -597    112    603    614 172.4  10.6  34088  288.36 0855.29
2009/04/23 09:50:27.5     -89   -569     -4    577    578 188.9  -0.5  34088  288.34 0855.29
2009/04/23 09:50:27.6      34   -415     98    417    429 175.2  13.3  34090  288.38 0855.29
2009/04/23 09:50:27.7    -114   -485    208    499    540 193.3  23.9  34078  288.19 0855.29
2009/04/23 09:50:27.8     -71   -337    247    345    424 191.9  39.2  34080  288.22 0855.29
2009/04/23 09:50:27.9      42   -190    207    195    284 167.5  52.1  34088  288.36 0855.29
2009/04/23 09:50:28.0      47   -327    216    331    395 171.8  36.3  34084  288.30 0855.29
2009/04/23 09:50:28.1     109   -327    259    345    431 161.5  40.7  34088  288.36 0855.29
2009/04/23 09:50:28.2     138   -302    268    333    427 155.4  43.0  34078  288.20 0855.29
2009/04/23 09:50:28.3      58   -431    263    435    508 172.3  34.0  34078  288.17 0855.29
2009/04/23 09:50:28.4     230   -318    315    393    503 144.2  42.9  34084  288.27 0855.29
2009/04/23 09:50:28.5     458   -449    107    642    651 134.4   9.5  34074  288.11 0855.29
2009/04/23 09:50:28.6     487   -222    216    536    577 114.5  23.1  34076  288.16 0855.29
2009/04/23 09:50:28.7     161    -35    307    165    348 102.4  69.5  34088  288.36 0855.29
2009/04/23 09:50:28.8      66    -64    194     93    215 134.0  72.8  34084  288.28 0855.29
2009/04/23 09:50:28.9     138   -355    237    382    449 158.7  34.9  34084  288.29 0855.29
2009/04/23 09:50:29.0      -4   -315    311    316    443 180.9  49.8  34084  288.29 0855.29
2009/04/23 09:50:29.1       0   -310    333    311    455 180.1  52.2  34090  288.38 0855.29
2009/04/23 09:50:29.2     128   -341    217    365    424 159.3  33.5  34086  288.33 0855.29
2009/04/23 09:50:29.3     -28   -428    250    429    496 183.8  32.9  34084  288.30 0855.29
2009/04/23 09:50:29.4     -94   -376    241    388    456 194.1  34.9  34084  288.29 0855.29
2009/04/23 09:50:29.5     -19   -300    164    301    342 183.8  30.9  34086  288.32 0855.33
2009/04/23 09:50:29.6     -52   -189    127    197    234 195.6  36.0  34086  288.31 0855.33
2009/04/23 09:50:29.7     -62   -142     95    156    182 203.7  34.4  34086  288.33 0855.33
2009/04/23 09:50:29.8     -16   -105    159    107    191 188.9  63.4  34098  288.52 0855.33
2009/04/23 09:50:29.9      46   -103    315    113    334 155.9  79.6  34088  288.34 0855.33
2009/04/23 09:50:30.0     -74   -186    314    201    372 201.9  64.6  34080  288.21 0855.33
2009/04/23 09:50:30.1     123   -241    313    271    414 152.8  54.8  34084  288.27 0855.33
2009/04/23 09:50:30.2     -66   -379    384    385    543 190.0  50.0  34084  288.30 0855.33
2009/04/23 09:50:30.3    -124   -532    298    547    622 193.2  31.0  34084  288.29 0855.33
2009/04/23 09:50:30.4    -171   -473    233    504    555 200.0  26.5  34080  288.21 0855.33
2009/04/23 09:50:30.5     -42   -667    281    669    725 183.6  24.2  34086  288.32 0855.33
2009/04/23 09:50:30.6     -90   -564    200    572    607 189.1  19.3  34076  288.14 0855.33
2009/04/23 09:50:30.7     -90   -395    222    406    462 192.9  31.3  34080  288.21 0855.33
2009/04/23 09:50:30.8      67   -234    263    244    358 164.0  52.3  34082  288.24 0855.33
2009/04/23 09:50:30.9     -21   -381    308    382    490 183.2  43.1  34086  288.33 0855.33
2009/04/23 09:50:31.0      83   -575    269    582    641 171.8  26.6  34084  288.30 0855.33
2009/04/23 09:50:31.1      58   -466    110    470    483 172.9  13.2  34086  288.32 0855.33
2009/04/23 09:50:31.2     -98   -595    -23    604    605 189.4  -2.2  34094  288.46 0855.33
2009/04/23 09:50:31.3    -174   -441    -34    475    477 201.5  -4.1  34084  288.30 0855.33
2009/04/23 09:50:31.4    -198   -291    -11    353    354 214.3  -1.8  34086  288.33 0855.33
2009/04/23 09:50:31.5     -61   -261    -34    269    272 193.3  -7.3  34084  288.29 0855.32
2009/04/23 09:50:31.6     -65   -195     74    206    218 198.5  20.7  34088  288.35 0855.32
2009/04/23 09:50:31.7     -37   -176     85    180    199 192.0  27.1  34092  288.42 0855.32
2009/04/23 09:50:31.8     187   -208    181    280    333 138.1  35.9  34084  288.29 0855.32
2009/04/23 09:50:31.9     199   -118    192    232    301 120.7  43.8  34080  288.22 0855.32
2009/04/23 09:50:32.0     289   -168    236    335    409 120.2  38.6  34086  288.33 0855.32
2009/04/23 09:50:32.1     209   -223    186    306    358 136.8  34.1  34082  288.25 0855.32
2009/04/23 09:50:32.2      59   -360    108    365    381 170.7  16.5  34074  288.10 0855.32
2009/04/23 09:50:32.3     105   -282    -53    302    307 159.5 -10.1  34086  288.32 0855.32
2009/04/23 09:50:32.4     225   -321   -164    393    425 144.9 -28.5  34082  288.26 0855.32
2009/04/23 09:50:32.5     338   -303    -83    455    463 131.9 -10.4  34082  288.26 0855.32
2009/04/23 09:50:32.6     203    -15    -64    204    213  94.4 -22.8  34086  288.31 0855.32
2009/04/23 09:50:32.7     199     28      1    202    203  81.9   0.5  34088  288.36 0855.32
2009/04/23 09:50:32.8     184   -117     90    219    236 122.5  23.6  34084  288.28 0855.32
2009/04/23 09:50:32.9     145   -209     91    255    270 145.3  20.0  34086  288.32 0855.32
2009/04/23 09:50:33.0      63   -314    143    321    351 168.7  25.6  34080  288.23 0855.32
2009/04/23 09:50:33.1      25   -268     57    270    277 174.7  12.0  34088  288.34 0855.32
2009/04/23 09:50:33.2       9   -312     -6    313    314 178.2  -1.1  34078  288.17 0855.32
2009/04/23 09:50:33.3    -201   -202     21    286    287 224.9   4.4  34084  288.27 0855.32
2009/04/23 09:50:33.4    -263   -315     45    411    414 219.9   6.4  34092  288.43 0855.32
2009/04/23 09:50:33.5    -350   -195   -119    401    418 240.8 -21.5  34096  288.48 0855.27
2009/04/23 09:50:33.6    -318   -108    -38    337    340 251.2  -6.6  34100  288.54 0855.27
2009/04/23 09:50:33.7    -363   -230    -51    430    434 237.6  -6.9  34100  288.56 0855.27
2009/04/23 09:50:33.8    -311   -328   -100    453    465 223.4 -12.5  34104  288.63 0855.27
2009/04/23 09:50:33.9    -119   -391    -90    409    419 197.0 -12.5  34096  288.48 0855.27
2009/04/23 09:50:34.0    -290   -352    -25    457    458 219.5  -3.2  34094  288.46 0855.27
2009/04/23 09:50:34.1    -270   -210    -59    343    349 232.1  -9.8  34102  288.60 0855.27
2009/04/23 09:50:34.2    -312   -313    -40    443    445 224.9  -5.2  34108  288.68 0855.27
2009/04/23 09:50:34.3    -193   -370    -60    418    423 207.6  -8.3  34090  288.39 0855.27
2009/04/23 09:50:34.4    -319   -579   -196    662    691 208.9 -16.5  34086  288.31 0855.27
2009/04/23 09:50:34.5    -345   -542   -267    643    696 212.5 -28.3  34076  288.14 0855.27
2009/04/23 09:50:34.6    -522   -406   -261    662    711 232.2 -27.1  34080  288.22 0855.27
2009/04/23 09:50:34.7    -414   -376    -49    560    563 227.7  -5.1  34084  288.30 0855.27
2009/04/23 09:50:34.8    -257   -358   -146    442    466 215.7 -18.3  34096  288.50 0855.27
2009/04/23 09:50:34.9    -411   -354   -169    543    568 229.2 -22.3  34094  288.45 0855.27
2009/04/23 09:50:35.0    -467   -403   -221    618    657 229.2 -19.7  34086  288.32 0855.27
2009/04/23 09:50:35.1    -201   -459   -152    502    525 203.6 -16.9  34090  288.37 0855.27
2009/04/23 09:50:35.2    -234   -524    -73    574    579 204.1  -7.3  34096  288.48 0855.27
2009/04/23 09:50:35.3     -93   -539    -97    548    557 189.8 -10.1  34084  288.28 0855.27
2009/04/23 09:50:35.4     -84   -489     31    497    498 189.8   3.6  34084  288.29 0855.27
2009/04/23 09:50:35.5    -185   -486    -10    521    522 200.9  -1.2  34086  288.31 0855.23
2009/04/23 09:50:35.6      14   -529    -57    530    534 178.4  -6.2  34078  288.19 0855.23
2009/04/23 09:50:35.7      75   -454    -76    461    468 170.6  -9.4  34088  288.34 0855.23
2009/04/23 09:50:35.8     136   -551    -90    568    576 166.1  -9.0  34080  288.22 0855.23
2009/04/23 09:50:35.9     177   -534   -150    563    583 161.6 -15.0  34088  288.36 0855.23
2009/04/23 09:50:36.0     147   -437   -118    462    478 161.4 -14.4  34082  288.25 0855.23
2009/04/23 09:50:36.1      18   -297    105    298    317 176.5  19.5  34086  288.32 0855.23
2009/04/23 09:50:36.2     112   -231    -33    257    260 154.1  -7.3  34088  288.36 0855.23
2009/04/23 09:50:36.3      52   -190    -46    198    204 164.6 -13.2  34086  288.31 0855.23
2009/04/23 09:50:36.4      69   -139     82    156    176 153.7  30.1  34088  288.35 0855.23
2009/04/23 09:50:36.5      99    -99     98    141    171 135.0  38.0  34088  288.35 0855.23
2009/04/23 09:50:36.6      -5    -54    135     55    145 185.3  77.0  34092  288.43 0855.23
2009/04/23 09:50:36.7     -97     20     82    100    129 281.9  43.7  34104  288.62 0855.23
2009/04/23 09:50:36.8     137     59    147    150    210  66.5  49.9  34090  288.40 0855.23
2009/04/23 09:50:36.9     154    -50    110    163    196 108.2  37.6  34090  288.38 0855.23
2009/04/23 09:50:37.0      11   -161     57    162    173 175.8  19.6  34098  288.52 0855.23
2009/04/23 09:50:37.1      31   -159    -48    163    169 168.9 -21.5  34104  288.62 0855.23
2009/04/23 09:50:37.2     114   -191    -17    223    224 149.2  -4.4  34098  288.52 0855.23
2009/04/23 09:50:37.3     184   -183    -90    260    275 134.9 -24.4  34090  288.37 0855.23
2009/04/23 09:50:37.4     100   -276    -37    294    297 159.9  -7.3  34084  288.29 0855.23
2009/04/23 09:50:37.5     -64   -334     78    341    350 190.8  12.9  34086  288.33 0855.27
2009/04/23 09:50:37.6     -88   -417     24    427    428 192.0   3.2  34088  288.36 0855.27
2009/04/23 09:50:37.7    -106   -237    173    260    312 204.1  36.7  34088  288.36 0855.27
2009/04/23 09:50:37.8      55   -275    202    281    346 168.5  39.3  34084  288.29 0855.27
2009/04/23 09:50:37.9      27   -269    218    271    347 174.2  43.1  34090  288.39 0855.27
2009/04/23 09:50:38.0     144   -308    246    341    420 155.0  39.5  34094  288.45 0855.27
2009/04/23 09:50:38.1     107   -427    321    441    545 165.8  39.7  34096  288.49 0855.27
2009/04/23 09:50:38.2     114   -555    274    567    629 168.3  27.8  34092  288.41 0855.27
2009/04/23 09:50:38.3      28   -474    230    475    527 176.6  27.7  34094  288.44 0855.27
2009/04/23 09:50:38.4     -28   -464    197    465    505 183.5  24.3  34090  288.40 0855.27
2009/04/23 09:50:38.5     -26   -406    132    407    429 183.7  18.0  34092  288.43 0855.27
2009/04/23 09:50:38.6     -47   -386     94    389    401 187.0  13.7  34088  288.35 0855.27
2009/04/23 09:50:38.7     -49   -350    256    354    436 188.0  39.5  34092  288.43 0855.27
2009/04/23 09:50:38.8    -221   -140    -11    262    263 237.6  -2.6  34094  288.44 0855.27
2009/04/23 09:50:38.9    -146   -389    396    416    574 200.7  48.5  34086  288.31 0855.27
2009/04/23 09:50:39.0      61   -158    229    170    285 158.8  59.8  34098  288.51 0855.27
2009/04/23 09:50:39.1       3   -205    229    206    308 178.9  53.3  34096  288.49 0855.27
2009/04/23 09:50:39.2      58   -174    112    184    215 161.5  34.2  34092  288.43 0855.27
2009/04/23 09:50:39.3     -13   -199    189    200    275 183.8  48.2  34094  288.46 0855.27
2009/04/23 09:50:39.4    -108   -164    257    197    323 213.4  58.7  34106  288.66 0855.27
2009/04/23 09:50:39.5    -132    -16    197    133    237 263.0  62.7  34108  288.69 0855.28
2009/04/23 09:50:39.6       7    -22    150     24    151 161.7  90.0  34106  288.67 0855.28
2009/04/23 09:50:39.7     -67   -241    133    251    284 195.6  30.2  34094  288.44 0855.28
2009/04/23 09:50:39.8     104   -146     77    180    195 144.4  24.6  34094  288.47 0855.28
2009/04/23 09:50:39.9      17   -218    120    219    249 175.5  31.0  34092  288.41 0855.28
2009/04/23 09:50:40.0     -27    -25    163     38    167 226.9  87.5  34110  288.72 0855.28
2009/04/23 09:50:40.1    -110   -151    104    188    214 216.1  31.4  34110  288.72 0855.28
2009/04/23 09:50:40.2    -189   -128    -11    229    230 235.9  -2.8  34096  288.48 0855.28
2009/04/23 09:50:40.3     -46   -164    220    171    278 195.8  58.4  34096  288.49 0855.28
2009/04/23 09:50:40.4    -156   -113    101    193    217 234.0  29.8  34116  288.82 0855.28
2009/04/23 09:50:40.5    -227   -213    152    312    347 226.9  27.8  34112  288.76 0855.28
2009/04/23 09:50:40.6    -104   -228    203    251    322 204.5  43.3  34094  288.44 0855.28
2009/04/23 09:50:40.7    -129   -236    169    270    318 208.7  35.0  34100  288.56 0855.28
2009/04/23 09:50:40.8    -106   -106     65    150    163 225.0  24.6  34102  288.58 0855.28
2009/04/23 09:50:40.9    -287   -147     -4    323    324 242.9  -0.7  34124  288.97 0855.28
2009/04/23 09:50:41.0    -307   -149    -13    342    343 244.0  -2.2  34124  288.96 0855.28
2009/04/23 09:50:41.1    -354   -108    -52    371    375 252.9  -8.0  34120  288.91 0855.28
2009/04/23 09:50:41.2    -246    -85    -76    261    271 250.9 -21.0  34126  288.98 0855.28
2009/04/23 09:50:41.3    -153   -182     79    238    251 220.1  18.4  34116  288.83 0855.28
2009/04/23 09:50:41.4    -213   -135    123    253    281 237.5  27.8  34114  288.80 0855.28
2009/04/23 09:50:41.5    -130    -83    152    155    217 237.5  49.4  34106  288.65 0855.29
2009/04/23 09:50:41.6     -48    -18    147     52    155 249.2  81.2  34114  288.80 0855.29
2009/04/23 09:50:41.7      15    -31    137     35    141 152.8  85.4  34120  288.91 0855.29
2009/04/23 09:50:41.8    -110   -121    182    164    244 222.3  53.3  34110  288.72 0855.29
2009/04/23 09:50:41.9    -155   -127    141    201    245 230.7  38.6  34106  288.67 0855.29
2009/04/23 09:50:42.0     -27   -136    197    139    241 191.6  61.5  34100  288.57 0855.29
2009/04/23 09:50:42.1     -21    -64    190     68    201 198.7  79.5  34114  288.79 0855.29
2009/04/23 09:50:42.2      71    -90    173    115    207 141.7  63.4  34102  288.60 0855.29
2009/04/23 09:50:42.3     206   -270    199    340    393 142.6  33.0  34094  288.44 0855.29
2009/04/23 09:50:42.4     106   -230    183    254    313 155.3  39.2  34094  288.46 0855.29
2009/04/23 09:50:42.5      47   -197    178    203    269 166.6  45.8  34098  288.51 0855.29
2009/04/23 09:50:42.6     155   -127    132    201    240 129.3  36.5  34094  288.45 0855.29
2009/04/23 09:50:42.7     143   -214     83    258    272 146.2  17.9  34090  288.39 0855.29
2009/04/23 09:50:42.8      15   -207     40    208    212 175.8  11.0  34088  288.36 0855.29
2009/04/23 09:50:42.9      68   -200     27    212    214 161.1   7.5  34080  288.23 0855.29
2009/04/23 09:50:43.0     -11    -38      7     40     41 196.0  10.1  34088  288.36 0855.29
2009/04/23 09:50:43.1      39     31     13     51     53  51.4  14.3  34092  288.43 0855.29
2009/04/23 09:50:43.2      60     49     52     78     93  50.5  36.5  34094  288.45 0855.29
2009/04/23 09:50:43.3      -6     10    101     13    101 327.5  90.0  34108  288.69 0855.29
2009/04/23 09:50:43.4     -25     45     91     52    104 331.0  67.7  34096  288.50 0855.29
2009/04/23 09:50:43.5    -114      8     19    115    117 274.3   9.5  34092  288.42 0855.30
2009/04/23 09:50:43.6    -164      2     62    165    176 271.0  21.5  34098  288.52 0855.30
2009/04/23 09:50:43.7    -260    -99     65    279    287 249.2  13.1  34092  288.41 0855.30
2009/04/23 09:50:43.8    -257    -36    154    260    302 262.0  33.5  34088  288.36 0855.30
2009/04/23 09:50:43.9    -250    -35    119    253    279 262.0  27.1  34092  288.43 0855.30
2009/04/23 09:50:44.0    -222     24     28    224    226 276.2   7.2  34096  288.50 0855.30
2009/04/23 09:50:44.1    -232     13    150    233    277 273.3  35.6  34094  288.46 0855.30
2009/04/23 09:50:44.2    -236    166    210    289    357 305.1  39.7  34086  288.32 0855.30
2009/04/23 09:50:44.3    -222    118    203    252    323 298.0  43.1  34096  288.48 0855.30
2009/04/23 09:50:44.4    -253     49     32    258    261 281.0   7.2  34094  288.46 0855.30
2009/04/23 09:50:44.5    -209    141    -35    253    256 304.0  -8.0  34090  288.39 0855.30
2009/04/23 09:50:44.6    -162     89     22    186    188 298.9   6.9  34094  288.45 0855.30
2009/04/23 09:50:44.7    -289     44     92    293    308 278.8  17.4  34090  288.39 0855.30
2009/04/23 09:50:44.8    -252   -132      4    285    286 242.2   1.0  34094  288.44 0855.30
2009/04/23 09:50:44.9    -177   -312    158    360    393 209.6  25.2  34104  288.62 0855.30
2009/04/23 09:50:45.0    -144   -337    194    367    415 203.2  30.2  34098  288.52 0855.30
2009/04/23 09:50:45.1     -25   -320     90    322    335 184.6  15.7  34096  288.49 0855.30
2009/04/23 09:50:45.2     -50   -297     79    302    313 189.6  14.7  34096  288.49 0855.30
2009/04/23 09:50:45.3     -95   -258     18    276    277 200.3   3.8  34098  288.53 0855.30
2009/04/23 09:50:45.4     -62   -307     71    314    323 191.5  12.8  34092  288.41 0855.30
2009/04/23 09:50:45.5     -39   -271    105    274    293 188.2  22.0  34092  288.41 0855.26
2009/04/23 09:50:45.6     -87   -199    107    218    242 203.6  28.2  34090  288.39 0855.26
2009/04/23 09:50:45.7    -199   -180    117    269    293 227.8  25.1  34092  288.41 0855.26
2009/04/23 09:50:45.8    -285   -134    137    316    344 244.8  25.0  34100  288.57 0855.26
2009/04/23 09:50:45.9    -333   -166    129    373    395 243.5  19.1  34098  288.52 0855.26
2009/04/23 09:50:46.0    -182   -142    190    232    299 232.0  43.7  34090  288.37 0855.26
2009/04/23 09:50:46.1     -41   -325    288    328    436 187.2  45.8  34092  288.41 0855.26
2009/04/23 09:50:46.2    -263   -353    -34    441    443 216.6  -4.5  34076  288.16 0855.26
2009/04/23 09:50:46.3    -377   -312    -83    490    498 230.3  -9.7  34088  288.35 0855.26
2009/04/23 09:50:46.4    -276   -254     21    376    377 227.3   3.2  34096  288.49 0855.26
2009/04/23 09:50:46.5    -195   -352    -77    403    411 209.0 -10.8  34062  287.92 0855.26
2009/04/23 09:50:46.6    -241   -316    -43    398    401 217.3  -6.2  34088  288.35 0855.26
2009/04/23 09:50:46.7    -248   -204     29    322    324 230.5   5.2  34086  288.31 0855.26
2009/04/23 09:50:46.8    -214   -136    125    254    283 237.5  28.2  34094  288.46 0855.26
2009/04/23 09:50:46.9    -245   -156    155    291    329 237.5  30.3  34094  288.44 0855.26
2009/04/23 09:50:47.0    -123   -265     74    293    303 204.9  14.3  34098  288.51 0855.26
2009/04/23 09:50:47.1    -283   -302    118    414    431 223.1  15.9  34096  288.50 0855.26
2009/04/23 09:50:47.3    -346   -259     57    433    437 233.2   7.6  34098  288.53 0855.26
2009/04/23 09:50:47.4    -270   -212     74    344    352 231.8  12.2  34100  288.55 0855.26
2009/04/23 09:50:47.5    -146   -237    148    279    315 211.7  30.2  34100  288.56 0855.26
2009/04/23 09:50:47.6      37   -164    200    169    261 167.3  55.6  34094  288.46 0855.28
2009/04/23 09:50:47.7     -11   -300    213    301    368 182.2  38.7  34092  288.42 0855.28
2009/04/23 09:50:47.8     -26   -368    191    369    415 184.1  29.5  34094  288.44 0855.28
2009/04/23 09:50:47.9     -95   -386    140    398    421 193.9  20.1  34080  288.23 0855.28
2009/04/23 09:50:48.0    -153   -435    157    462    489 199.4  18.8  34098  288.51 0855.28
2009/04/23 09:50:48.1    -165   -400    176    433    467 202.4  23.1  34104  288.61 0855.28
2009/04/23 09:50:48.2     -51   -496    231    499    549 186.0  26.6  34094  288.45 0855.28
2009/04/23 09:50:48.3     -72   -539    185    544    575 187.7  18.8  34086  288.31 0855.28
2009/04/23 09:50:48.4      49   -419    130    422    442 173.2  17.2  34090  288.38 0855.28
2009/04/23 09:50:48.5     -42   -449    296    452    540 185.4  36.3  34090  288.40 0855.28
2009/04/23 09:50:48.6     -29   -387    237    389    455 184.4  34.3  34096  288.48 0855.28
2009/04/23 09:50:48.7    -104   -311    117    329    350 198.6  19.6  34090  288.37 0855.28
2009/04/23 09:50:48.8      19   -407    147    408    434 177.3  19.9  34090  288.38 0855.28
2009/04/23 09:50:48.9     -31   -362    105    364    379 185.0  16.1  34094  288.45 0855.28
2009/04/23 09:50:49.0      80   -455    -73    463    469 170.0  -9.0  34092  288.42 0855.28
2009/04/23 09:50:49.1     -22   -419     60    420    425 183.1   8.2  34090  288.39 0855.28
2009/04/23 09:50:49.2      25   -320     96    322    337 175.5  16.7  34090  288.40 0855.28
2009/04/23 09:50:49.3     129   -379    145    401    426 161.2  20.7  34088  288.34 0855.28
2009/04/23 09:50:49.4       0   -365    221    366    427 180.1  34.2  34092  288.43 0855.28
2009/04/23 09:50:49.5    -170   -296    101    342    357 209.9  16.5  34100  288.54 0855.28
2009/04/23 09:50:49.6      15   -224     35    225    228 176.0   8.9  34094  288.45 0855.20
2009/04/23 09:50:49.7     258   -163    102    306    323 122.2  18.5  34090  288.37 0855.20
2009/04/23 09:50:49.8     203   -135    127    245    275 123.7  29.5  34094  288.44 0855.20
2009/04/23 09:50:49.9     103    -52    111    116    160 117.1  48.7  34096  288.50 0855.20
2009/04/23 09:50:50.0     178      0     28    179    182  90.1   9.0  34092  288.43 0855.20
2009/04/23 09:50:50.1     178     30     56    181    190  80.3  17.3  34090  288.40 0855.20
2009/04/23 09:50:50.2     160    -12    -11    161    162  94.4  -4.1  34092  288.42 0855.20
2009/04/23 09:50:50.3      32    -95     -5    101    102 161.3  -3.2  34098  288.52 0855.20
2009/04/23 09:50:50.4      -2   -141    -44    142    148 181.0 -22.3  34096  288.50 0855.20
2009/04/23 09:50:50.5      80   -126     -4    150    151 147.5  -1.8  34096  288.50 0855.20
2009/04/23 09:50:50.6      14    -90      0     92     93 170.7  -0.3  34098  288.53 0855.18
2009/04/23 09:50:50.7       5    -35    -14     36     38 172.0 -23.3  34100  288.55 0855.18
2009/04/23 09:50:50.8       5      0    -27      6     27  90.0 -90.0  34104  288.64 0855.18
2009/04/23 09:50:50.9     -10     89     15     90     92 353.3   9.5  34100  288.55 0855.18
2009/04/23 09:50:51.0     -82    116    -23    143    145 324.8  -9.4  34098  288.52 0855.18
2009/04/23 09:50:51.1     -53    167    -48    176    182 342.2 -20.0  34096  288.48 0855.18
2009/04/23 09:50:51.2     -67    214    -37    225    229 342.4  -9.4  34094  288.47 0855.18
2009/04/23 09:50:51.3     -89     86     55    125    136 314.0  25.2  34096  288.48 0855.18
2009/04/23 09:50:51.4     -48     16     61     51     79 289.1  55.8  34096  288.50 0855.18
2009/04/23 09:50:51.5    -223    -41    132    227    262 259.4  32.9  34090  288.39 0855.18
2009/04/23 09:50:51.6    -310   -120     99    333    348 248.7  16.6  34104  288.64 0855.18
2009/04/23 09:50:51.7    -224   -168    122    280    305 233.1  25.1  34100  288.54 0855.18
2009/04/23 09:50:51.8    -178   -124    136    218    256 235.1  35.2  34098  288.53 0855.18
2009/04/23 09:50:51.9    -146     -2    118    147    188 269.2  43.3  34100  288.57 0855.18
2009/04/23 09:50:52.0    -360      5    185    361    405 270.9  29.3  34092  288.42 0855.18
2009/04/23 09:50:52.1    -354     35    104    356    371 275.8  16.3  34094  288.45 0855.18
2009/04/23 09:50:52.2     -42    294    184    298    350 351.9  35.0  34090  288.40 0855.18
2009/04/23 09:50:52.3     -35    226    147    229    272 351.1  35.6  34120  288.90 0855.18
2009/04/23 09:50:52.4     -36    209    185    213    282 350.2  45.8  34110  288.73 0855.18
2009/04/23 09:50:52.5      69     49    149     85    171  54.5  67.7  34108  288.70 0855.18
2009/04/23 09:50:52.6      32    -67    145     75    163 154.6  70.4  34114  288.79 0855.23
2009/04/23 09:50:52.7      -9   -108    158    109    191 184.9  62.4  34106  288.67 0855.23
2009/04/23 09:50:52.8    -219   -247    163    331    368 221.5  28.1  34102  288.59 0855.23
2009/04/23 09:50:52.9    -132   -255    173    288    335 207.4  33.8  34104  288.61 0855.23
2009/04/23 09:50:53.0    -230   -397     72    460    466 210.1   8.9  34102  288.58 0855.23
2009/04/23 09:50:53.1    -347   -460    -46    577    579 217.0  -4.6  34100  288.54 0855.23
2009/04/23 09:50:53.2    -415   -369      8    556    557 228.4   0.9  34098  288.53 0855.23
2009/04/23 09:50:53.3    -162   -418    265    449    521 201.2  33.4  34100  288.57 0855.23
2009/04/23 09:50:53.4     -71   -321    190    329    379 192.5  32.7  34102  288.60 0855.23
2009/04/23 09:50:53.5       9   -401    142    402    426 178.6  20.1  34100  288.56 0855.23
2009/04/23 09:50:53.6     -14   -309    121    310    332 182.7  22.5  34096  288.49 0855.23
2009/04/23 09:50:53.7     -85   -352    141    363    389 193.6  22.4  34088  288.35 0855.23
2009/04/23 09:50:53.8     -22   -362    256    363    444 183.6  38.6  34088  288.36 0855.23
2009/04/23 09:50:53.9     109   -329    120    347    368 161.5  19.2  34096  288.49 0855.23
2009/04/23 09:50:54.0     -32   -419    -30    421    423 184.5  -4.1  34096  288.50 0855.23
2009/04/23 09:50:54.1       4   -289    -27    290    292 179.1  -5.4  34098  288.51 0855.23
2009/04/23 09:50:54.2      -4   -233    -69    234    245 181.0 -16.5  34096  288.48 0855.23
2009/04/23 09:50:54.3     -76   -211      0    225    226 200.0   0.0  34090  288.40 0855.23
2009/04/23 09:50:54.4     -65   -115     98    133    165 209.4  39.9  34100  288.57 0855.23
2009/04/23 09:50:54.5     -65   -127    110    143    180 207.2  41.4  34100  288.55 0855.23
2009/04/23 09:50:54.6    -169   -164     95    236    254 225.8  23.0  34100  288.56 0855.27
2009/04/23 09:50:54.7    -252   -159    176    299    346 237.8  33.1  34102  288.60 0855.27
2009/04/23 09:50:54.8    -155   -112    123    192    228 234.3  35.6  34098  288.53 0855.27
2009/04/23 09:50:54.9    -212     25    133    214    251 276.8  35.2  34104  288.63 0855.27
2009/04/23 09:50:55.0    -230    -17     81    231    244 265.7  20.0  34102  288.58 0855.27
2009/04/23 09:50:55.1    -130     -5     98    131    163 267.4  40.4  34100  288.57 0855.27
2009/04/23 09:50:55.2    -159     32     31    163    166 281.5  10.8  34106  288.67 0855.27
2009/04/23 09:50:55.3     -84   -132     96    157    184 212.5  34.8  34100  288.55 0855.27
2009/04/23 09:50:55.4     -22   -194    207    196    285 186.5  52.0  34102  288.59 0855.27
2009/04/23 09:50:55.5      80   -123    124    147    192 147.0  44.3  34102  288.58 0855.27
2009/04/23 09:50:55.6     -16   -210    -26    211    213 184.4  -7.2  34096  288.50 0855.27
2009/04/23 09:50:55.7    -106   -151    -63    185    195 215.2 -23.6  34102  288.58 0855.27
2009/04/23 09:50:55.8    -136   -270    -84    303    315 206.7 -15.5  34096  288.49 0855.27
2009/04/23 09:50:55.9     -44   -173     35    179    183 194.3  11.1  34098  288.52 0855.27
2009/04/23 09:50:56.0    -205   -416    -48    465    468 206.3  -5.9  34098  288.51 0855.27
2009/04/23 09:50:56.1    -174   -500    -67    530    535 199.2  -7.2  34094  288.45 0855.27
2009/04/23 09:50:56.2    -246   -462    -51    524    527 208.0  -5.6  34088  288.35 0855.27
2009/04/23 09:50:56.3    -276   -389   -103    478    490 215.4 -12.2  34094  288.44 0855.27
2009/04/23 09:50:56.4    -217   -354    -52    416    420 211.5  -7.2  34094  288.46 0855.27
2009/04/23 09:50:56.5    -106   -356     -4    372    373 196.7  -0.7  34094  288.47 0855.28
2009/04/23 09:50:56.6    -145   -322     67    354    361 204.3  10.8  34092  288.42 0855.28
2009/04/23 09:50:56.7     -56   -135      8    147    148 202.7   3.3  34086  288.31 0855.28
2009/04/23 09:50:56.8     -40   -260    229    264    349 188.9  45.4  34094  288.46 0855.28
2009/04/23 09:50:56.9     167   -192    228    255    342 139.0  46.4  34088  288.34 0855.28
2009/04/23 09:50:57.0      62   -134    360    148    389 155.1  76.6  34084  288.28 0855.28
2009/04/23 09:50:57.1     329    -38    197    332    386  96.6  33.5  34090  288.37 0855.28
2009/04/23 09:50:57.2     259   -117    207    285    352 114.4  39.7  34100  288.55 0855.28
2009/04/23 09:50:57.3     261   -221    112    343    361 130.3  18.1  34090  288.40 0855.28
2009/04/23 09:50:57.4     198   -143     63    245    254 125.9  14.5  34094  288.46 0855.28
2009/04/23 09:50:57.5     198   -146     12    247    248 126.4   2.9  34092  288.43 0855.28
2009/04/23 09:50:57.6     230    -68    100    241    260 106.6  23.8  34094  288.46 0855.28
2009/04/23 09:50:57.7      49   -178    112    185    216 164.6  33.7  34090  288.40 0855.28
2009/04/23 09:50:57.8     -52   -139     95    149    176 200.5  35.6  34096  288.48 0855.28
2009/04/23 09:50:57.9     -88   -119    101    149    180 216.5  37.6  34094  288.47 0855.28
2009/04/23 09:50:58.0    -136    -66     79    152    171 244.2  29.5  34096  288.50 0855.28
2009/04/23 09:50:58.1     -75   -103    103    128    164 216.1  43.0  34094  288.47 0855.28
2009/04/23 09:50:58.2     -29    -87    181     92    203 198.5  71.0  34094  288.45 0855.28
2009/04/23 09:50:58.3    -168     71    183    183    258 293.1  50.1  34104  288.61 0855.28
2009/04/23 09:50:58.4    -122     72    117    142    183 300.7  43.7  34100  288.55 0855.28
2009/04/23 09:50:58.5    -323   -160     -5    361    362 243.6  -0.9  34090  288.38 0855.28
2009/04/23 09:50:58.6    -356   -161     85    391    401 245.7  12.3  34090  288.40 0855.27
2009/04/23 09:50:58.7    -430   -123     21    448    449 254.0   2.8  34094  288.45 0855.27
2009/04/23 09:50:58.8    -429    -99     41    441    444 257.0   5.3  34092  288.41 0855.27
2009/04/23 09:50:58.9    -412   -199    124    458    475 244.1  15.2  34090  288.39 0855.27
2009/04/23 09:50:59.0    -319   -178     15    366    367 240.8   2.4  34094  288.44 0855.27
2009/04/23 09:50:59.1    -170   -271    126    321    344 212.1  22.5  34096  288.50 0855.27
2009/04/23 09:50:59.2    -114   -204     66    234    244 209.2  15.8  34100  288.54 0855.27
2009/04/23 09:50:59.3    -293    -77    -34    304    306 255.2  -6.5  34096  288.49 0855.27
2009/04/23 09:50:59.4    -488   -168    -71    517    522 250.9  -7.9  34098  288.53 0855.27
2009/04/23 09:50:59.5    -598    -95   -170    606    630 260.9 -15.7  34098  288.52 0855.27
2009/04/23 09:50:59.6    -566    -87    -68    573    578 261.2  -6.8  34104  288.63 0855.27
2009/04/23 09:50:59.7    -367     24   -103    368    383 273.8 -15.7  34100  288.55 0855.27
2009/04/23 09:50:59.8    -101   -314     64    330    337 197.9  11.1  34110  288.72 0855.27
2009/04/23 09:50:59.9       5   -408   -122    409    427 179.3 -16.6  34098  288.53 0855.27
2009/04/23 09:51:00.0     -50   -590    -40    593    595 184.9  -3.9  34084  288.27 0855.27
2009/04/23 09:51:00.1      33   -526    -28    528    529 176.4  -3.1  34090  288.38 0855.27
2009/04/23 09:51:00.2     -72   -386    127    393    413 190.6  17.9  34088  288.34 0855.27
2009/04/23 09:51:00.3      43   -462    189    465    501 174.6  23.4  34086  288.32 0855.27
2009/04/23 09:51:00.4      37   -335    254    338    422 173.7  40.7  34086  288.32 0855.27
2009/04/23 09:51:00.5      17   -269    294    270    399 176.4  52.9  34094  288.47 0855.27
2009/04/23 09:51:00.6     139   -191    161    237    286 143.9  37.4  34092  288.43 0855.25
2009/04/23 09:51:00.7      73    -60    142     95    170 129.5  63.4  34094  288.45 0855.25
2009/04/23 09:51:00.8     -25   -122     19    125    127 191.6   9.0  34094  288.47 0855.25
2009/04/23 09:51:00.9      43   -155     60    161    171 164.4  21.3  34094  288.45 0855.25
2009/04/23 09:51:01.0     218    -97    112    239    263 114.2  27.1  34094  288.44 0855.25
2009/04/23 09:51:01.1     241    -18     51    242    248  94.3  12.0  34092  288.43 0855.25
2009/04/23 09:51:01.2     273     51     95    278    294  79.4  18.9  34096  288.48 0855.25
2009/04/23 09:51:01.3     186     95    165    209    266  62.9  42.7  34096  288.48 0855.25
2009/04/23 09:51:01.4      57     49     94     76    120  49.6  56.4  34096  288.48 0855.25
2009/04/23 09:51:01.5     -15     70    164     72    179 347.5  74.8  34098  288.52 0855.25
2009/04/23 09:51:01.6     -52    -46    110     70    130 228.7  64.7  34100  288.55 0855.25
2009/04/23 09:51:01.7     -26    -59     75     65     99 203.6  54.8  34096  288.48 0855.25
2009/04/23 09:51:01.8     -54    -25     85     60    104 244.8  61.5  34110  288.74 0855.25
2009/04/23 09:51:01.9     -22    -39     62     46     77 209.9  60.5  34096  288.50 0855.25
2009/04/23 09:51:02.0       1    -64     75     65     99 179.1  54.8  34098  288.53 0855.25
2009/04/23 09:51:02.1     -42     45     77     62     98 316.8  56.4  34108  288.70 0855.25
2009/04/23 09:51:02.2     -53     10     56     55     78 281.5  48.2  34108  288.70 0855.25
2009/04/23 09:51:02.3     -59      7     63     60     87 277.0  51.2  34104  288.62 0855.25
2009/04/23 09:51:02.4     -48    121    -67    131    147 338.1 -33.6  34094  288.47 0855.25
2009/04/23 09:51:02.5     -78     21    -56     81     98 285.5 -42.0  34096  288.48 0855.25
2009/04/23 09:51:02.6    -249     45    -87    254    269 280.4 -18.9  34110  288.73 0855.23
2009/04/23 09:51:02.7    -287     30    -83    289    300 276.1 -20.7  34110  288.71 0855.23
2009/04/23 09:51:02.8    -342    -71    -82    350    360 258.2 -13.3  34110  288.71 0855.23
2009/04/23 09:51:02.9    -380     40     90    383    394 276.1  13.3  34110  288.74 0855.23
2009/04/23 09:51:03.0    -361    143     59    389    394 291.7   8.7  34118  288.86 0855.23
2009/04/23 09:51:03.1    -353     42    -34    356    358 276.8  -5.5  34112  288.77 0855.23
2009/04/23 09:51:03.2    -348     74    -16    356    357 282.1  -2.6  34096  288.50 0855.23
2009/04/23 09:51:03.3    -290    -98     -6    307    308 251.2  -1.3  34100  288.56 0855.23
2009/04/23 09:51:03.4    -415   -115     92    431    441 254.5  12.2  34112  288.75 0855.23
2009/04/23 09:51:03.5    -594    -45    -53    596    599 265.7  -5.1  34092  288.41 0855.23
2009/04/23 09:51:03.6    -608   -209     96    644    652 251.0   8.5  34096  288.50 0855.23
2009/04/23 09:51:03.7    -380   -303    172    487    517 231.4  19.5  34098  288.52 0855.23
2009/04/23 09:51:03.8    -456   -203    141    500    520 246.0  15.8  34094  288.47 0855.23
2009/04/23 09:51:03.9    -223   -181     96    288    304 230.9  18.4  34100  288.56 0855.23
2009/04/23 09:51:04.0    -174   -252    198    307    365 214.7  35.7  34088  288.35 0855.23
2009/04/23 09:51:04.1    -175    -36    216    179    280 258.1  56.3  34094  288.44 0855.23
2009/04/23 09:51:04.2     -83   -251    233    265    352 198.5  45.8  34098  288.53 0855.23
2009/04/23 09:51:04.3    -180   -210    292    277    402 220.5  51.9  34106  288.67 0855.23
2009/04/23 09:51:04.4    -262   -169    233    312    389 237.1  40.2  34130  289.06 0855.23
2009/04/23 09:51:04.5    -477   -116     76    491    498 256.3   8.9  34108  288.68 0855.23
2009/04/23 09:51:04.6    -410    -89     -4    420    421 257.7  -0.6  34106  288.67 0855.16
2009/04/23 09:51:04.7    -299   -203    202    362    414 235.7  31.5  34110  288.72 0855.16
2009/04/23 09:51:04.8    -269   -369    199    458    499 216.1  25.1  34106  288.66 0855.16
2009/04/23 09:51:04.9    -356   -170      2    395    396 244.5   0.4  34094  288.45 0855.16
2009/04/23 09:51:05.0    -187    -59    222    197    296 252.5  54.0  34094  288.46 0855.16
2009/04/23 09:51:05.1    -273   -185    278    330    431 235.8  44.4  34104  288.64 0855.16
2009/04/23 09:51:05.2    -316   -167    305    358    470 242.1  44.8  34102  288.60 0855.16
2009/04/23 09:51:05.3      -9     91    266     92    281 353.8  80.5  34116  288.83 0855.16
2009/04/23 09:51:05.4     -51   -265    259    270    374 190.9  48.7  34130  289.06 0855.16
2009/04/23 09:51:05.5     160   -500    388    526    653 162.2  40.1  34136  289.15 0855.16
2009/04/23 09:51:05.6       5   -440    242    441    503 179.3  31.3  34116  288.81 0855.16
2009/04/23 09:51:05.7     130   -162    287    208    354 141.3  60.6  34110  288.73 0855.16
2009/04/23 09:51:05.8     117    -58    325    131    350 116.6  77.0  34112  288.75 0855.16
2009/04/23 09:51:05.9     132   -146    252    198    320 137.9  57.9  34106  288.66 0855.16
2009/04/23 09:51:06.0      -3   -223    190    224    293 180.9  44.8  34100  288.56 0855.16
2009/04/23 09:51:06.1    -120   -300    136    324    351 201.8  24.2  34104  288.64 0855.16
2009/04/23 09:51:06.2    -140   -268    150    303    338 207.6  28.2  34098  288.51 0855.16
2009/04/23 09:51:06.3    -217   -302    -79    373    382 215.7 -12.0  34090  288.38 0855.16
2009/04/23 09:51:06.4    -178   -123     13    217    218 235.4   3.6  34096  288.48 0855.16
2009/04/23 09:51:06.5    -135    -31    -38    139    145 256.7 -15.5  34094  288.47 0855.16
2009/04/23 09:51:06.6     -79    -63    -28    102    106 231.4 -15.5  34096  288.50 0855.18
2009/04/23 09:51:06.7     -63   -234    -78    243    255 195.1 -22.9  34102  288.59 0855.18
2009/04/23 09:51:06.8     -82   -401    -21    410    411 191.6  -3.0  34098  288.51 0855.18
2009/04/23 09:51:06.9     -83   -410   -121    419    437 191.6 -16.2  34084  288.28 0855.18
2009/04/23 09:51:07.0     -79   -338   -157    348    381 193.2 -30.3  34090  288.37 0855.18
2009/04/23 09:51:07.1      64   -219    -54    229    236 163.7 -13.4  34092  288.41 0855.18
2009/04/23 09:51:07.2      42    -64     55     77     94 146.6  39.1  34088  288.35 0855.18
2009/04/23 09:51:07.3      47    -82    125     95    157 149.7  58.7  34094  288.47 0855.18
2009/04/23 09:51:07.4      73    -84    229    112    254 139.0  72.1  34092  288.42 0855.18
2009/04/23 09:51:07.5     396   -377    207    547    584 133.6  21.7  34082  288.26 0855.18
2009/04/23 09:51:07.6     292    -97    355    308    469 108.4  54.8  34092  288.43 0855.18
2009/04/23 09:51:07.7     -16     49    207     52    213 341.5  85.9  34110  288.72 0855.18
2009/04/23 09:51:07.8      40    -77    199     88    217 152.4  74.9  34100  288.55 0855.18
2009/04/23 09:51:07.9       9    -72    156     73    172 172.9  73.2  34100  288.55 0855.18
2009/04/23 09:51:08.0     151   -372    108    402    417 157.8  15.1  34090  288.38 0855.18
2009/04/23 09:51:08.1      76   -414    167    422    453 169.5  22.9  34096  288.50 0855.18
2009/04/23 09:51:08.2      50   -486    153    489    513 174.1  17.4  34096  288.49 0855.18
2009/04/23 09:51:08.3      59   -424    155    429    456 172.0  20.8  34096  288.48 0855.18
2009/04/23 09:51:08.4     166   -293    294    337    447 150.5  45.6  34088  288.34 0855.18
2009/04/23 09:51:08.5     204   -231    312    309    439 138.5  50.2  34092  288.42 0855.18
2009/04/23 09:51:08.6     221   -298    303    372    479 143.5  43.3  34090  288.38 0855.15
2009/04/23 09:51:08.7     312   -226    104    386    400 126.0  15.1  34098  288.52 0855.15
2009/04/23 09:51:08.8     214   -402    131    456    475 151.9  16.0  34094  288.47 0855.15
2009/04/23 09:51:08.9     181   -524    179    555    584 160.9  17.9  34096  288.49 0855.15
2009/04/23 09:51:09.0     118   -471    185    486    520 165.9  21.8  34098  288.51 0855.15
2009/04/23 09:51:09.1     213   -462    180    509    541 155.2  19.5  34094  288.45 0855.15
2009/04/23 09:51:09.2     250   -531    233    587    631 154.8  22.9  34092  288.43 0855.15
2009/04/23 09:51:09.3     297   -451    101    541    551 146.6  10.6  34092  288.41 0855.15
2009/04/23 09:51:09.4     260   -448    210    519    559 149.9  23.4  34084  288.30 0855.15
2009/04/23 09:51:09.5     232   -345    174    417    451 146.1  23.9  34092  288.41 0855.15
2009/04/23 09:51:09.6     270   -346      0    440    441 142.0   0.0  34092  288.41 0855.15
2009/04/23 09:51:09.7      35   -509     86    511    519 176.0   9.6  34096  288.49 0855.15
2009/04/23 09:51:09.8     148   -594      5    613    614 166.0   0.5  34092  288.42 0855.15
2009/04/23 09:51:09.9     272   -552     86    616    623 153.7   8.0  34084  288.30 0855.15
2009/04/23 09:51:10.0     149   -399    181    427    463 159.5  24.5  34082  288.24 0855.15
2009/04/23 09:51:10.1     120   -300     94    324    338 158.2  16.3  34082  288.25 0855.15
2009/04/23 09:51:10.2      90   -353     76    365    373 165.6  11.8  34090  288.37 0855.15
2009/04/23 09:51:10.3      55   -325     96    330    344 170.4  16.3  34094  288.45 0855.15
2009/04/23 09:51:10.4      -7   -392     41    393    396 181.1   6.0  34094  288.47 0855.15
2009/04/23 09:51:10.5     147   -459    -76    483    490 162.2  -9.0  34094  288.44 0855.15
2009/04/23 09:51:10.6     117   -359   -149    378    406 161.9 -27.1  34094  288.44 0855.17
2009/04/23 09:51:10.7     -16   -256    -10    257    258 183.6  -2.2  34094  288.44 0855.17
2009/04/23 09:51:10.8     -36   -160    -51    165    173 192.9 -17.3  34096  288.50 0855.17
2009/04/23 09:51:10.9      94   -218    -16    238    239 156.6  -3.9  34098  288.51 0855.17
2009/04/23 09:51:11.0     140   -323     54    353    358 156.5   8.8  34096  288.50 0855.17
2009/04/23 09:51:11.1      45   -316     45    320    324 171.9   8.1  34096  288.48 0855.17
2009/04/23 09:51:11.2      69   -341   -119    349    370 168.4 -18.9  34094  288.45 0855.17
2009/04/23 09:51:11.3     152   -394    -54    423    427 158.8  -7.3  34096  288.48 0855.17
2009/04/23 09:51:11.4     145   -456    -35    479    481 162.3  -4.2  34094  288.46 0855.17
2009/04/23 09:51:11.5     236   -499     15    553    554 154.7   1.6  34090  288.40 0855.17
2009/04/23 09:51:11.6     298   -436      9    529    530 145.6   1.0  34086  288.31 0855.18
2009/04/23 09:51:11.7     313   -492    -49    584    587 147.5  -4.8  34090  288.39 0855.18
2009/04/23 09:51:11.8     302   -418    -80    516    523 144.2  -8.8  34082  288.26 0855.18
2009/04/23 09:51:11.9     328   -279    -62    432    437 130.4  -8.2  34088  288.36 0855.18
2009/04/23 09:51:12.0     283   -265     -3    389    390 133.1  -0.5  34088  288.35 0855.18
2009/04/23 09:51:12.1     205   -205    172    290    337 135.0  33.5  34092  288.43 0855.18
2009/04/23 09:51:12.2     110   -161    197    196    277 145.7  50.1  34094  288.44 0855.18
2009/04/23 09:51:12.3      81    -26    181     86    200 108.2  72.9  34102  288.58 0855.18
2009/04/23 09:51:12.4     190    -62     43    200    205 108.2  12.4  34090  288.40 0855.18
2009/04/23 09:51:12.5     211    -45    -78    216    229 102.2 -25.1  34094  288.47 0855.18
2009/04/23 09:51:12.6     214     27    -45    216    221  82.8 -11.9  34092  288.43 0855.18
2009/04/23 09:51:12.7     210     64    -78    220    234  73.1 -19.7  34094  288.47 0855.18
2009/04/23 09:51:12.8     178    -17    -15    179    180  95.5  -4.9  34096  288.48 0855.18
2009/04/23 09:51:12.9     223    -98      7    244    245 113.7   1.8  34092  288.43 0855.18
2009/04/23 09:51:13.0     294   -128     73    321    330 113.6  12.9  34094  288.46 0855.18
2009/04/23 09:51:13.1     302   -120     24    326    327 111.7   4.3  34094  288.44 0855.18
2009/04/23 09:51:13.2     414   -115    101    430    442 105.6  13.3  34098  288.51 0855.18
2009/04/23 09:51:13.3     375    -85     22    385    386 102.9   3.3  34098  288.52 0855.18
2009/04/23 09:51:13.4     339    -76     46    348    352 102.7   7.6  34096  288.50 0855.18
2009/04/23 09:51:13.5     213    -97    132    235    269 114.4  31.6  34096  288.48 0855.18
2009/04/23 09:51:13.6     288    -26    107    290    309  95.2  21.0  34096  288.49 0855.19
2009/04/23 09:51:13.7     237    -56     99    244    263 103.3  23.1  34100  288.56 0855.19
2009/04/23 09:51:13.8     202    -54    154    210    260 105.1  39.7  34100  288.54 0855.19
2009/04/23 09:51:14.0     103   -218    122    242    271 154.7  28.5  34098  288.53 0855.19
2009/04/23 09:51:14.1     193   -241     37    310    313 141.3   6.9  34094  288.46 0855.19
2009/04/23 09:51:14.2     227   -106    127    251    281 115.2  29.2  34090  288.37 0855.19
2009/04/23 09:51:14.3     193    -72    244    207    319 110.6  55.5  34100  288.54 0855.19
2009/04/23 09:51:14.4     141    -51    189    151    241 110.0  57.5  34098  288.53 0855.19
2009/04/23 09:51:14.5      66    -56    179     87    199 130.4  72.4  34104  288.64 0855.19
2009/04/23 09:51:14.6     -50     21    113     55    125 292.6  72.4  34110  288.72 0855.19
2009/04/23 09:51:14.7     -10    -67    135     68    151 188.9  71.9  34108  288.69 0855.19
2009/04/23 09:51:14.8     -44   -172    201    178    268 194.5  54.0  34100  288.56 0855.19
2009/04/23 09:51:14.9     -54   -135    193    146    242 201.8  59.4  34100  288.57 0855.19
2009/04/23 09:51:15.0    -210   -190    172    284    332 228.0  34.1  34108  288.68 0855.19
2009/04/23 09:51:15.1    -170   -220    142    279    313 217.8  29.1  34102  288.59 0855.19
2009/04/23 09:51:15.2     -64   -194    183    205    274 198.3  46.4  34102  288.59 0855.19
2009/04/23 09:51:15.3     -88   -129    148    157    215 214.3  48.0  34102  288.60 0855.19
2009/04/23 09:51:15.4     -13   -123    197    124    232 186.2  64.7  34100  288.57 0855.19
2009/04/23 09:51:15.5    -244    -79    209    257    331 252.1  43.4  34124  288.95 0855.19
2009/04/23 09:51:15.6    -120   -111    127    164    207 227.1  41.7  34106  288.65 0855.19
2009/04/23 09:51:15.7    -124   -124    110    176    207 225.0  35.5  34100  288.57 0855.19
2009/04/23 09:51:15.8     -42   -160    160    166    230 194.7  49.0  34100  288.55 0855.19
2009/04/23 09:51:15.9       8   -200    128    201    238 177.5  35.5  34100  288.55 0855.19
2009/04/23 09:51:16.0     -17   -195    131    196    235 185.1  37.3  34098  288.53 0855.19
2009/04/23 09:51:16.1     -32   -229    179    232    293 188.0  41.6  34102  288.58 0855.19
2009/04/23 09:51:16.2     -40   -285    228    288    367 188.0  42.4  34100  288.54 0855.19
2009/04/23 09:51:16.3     -62   -307    182    314    362 191.6  32.8  34100  288.55 0855.19
2009/04/23 09:51:16.4     -20   -191    226    193    297 186.2  55.3  34102  288.58 0855.19
2009/04/23 09:51:16.5       4   -196    243    197    312 178.6  56.9  34102  288.59 0855.19
2009/04/23 09:51:16.6      18   -286    224    287    364 176.2  42.0  34102  288.59 0855.19
2009/04/23 09:51:16.7     -17   -234    165    235    287 184.4  38.6  34094  288.44 0855.19
2009/04/23 09:51:16.8       3   -186    167    187    250 178.9  46.4  34100  288.57 0855.19
2009/04/23 09:51:16.9     129   -226    165    261    308 150.4  35.5  34102  288.58 0855.19
2009/04/23 09:51:17.0     200   -250    183    321    369 141.3  32.4  34100  288.57 0855.19
2009/04/23 09:51:17.1     107   -410    156    424    451 165.3  21.0  34100  288.55 0855.19
2009/04/23 09:51:17.2     142   -390    157    416    444 159.9  21.6  34100  288.56 0855.19
2009/04/23 09:51:17.3     214   -413     95    466    476 152.6  11.6  34094  288.44 0855.19
2009/04/23 09:51:17.4     185   -375    147    419    445 153.8  19.4  34096  288.50 0855.19
2009/04/23 09:51:17.5     198   -379    119    428    445 152.4  15.6  34096  288.48 0855.19
2009/04/23 09:51:17.6     176   -410     70    447    453 156.7   9.0  34098  288.51 0855.19
2009/04/23 09:51:17.7     153   -406    107    435    449 159.3  13.9  34096  288.48 0855.19
2009/04/23 09:51:17.8     157   -388     82    419    428 157.9  11.1  34100  288.56 0855.19
2009/04/23 09:51:17.9     174   -368     87    408    418 154.6  12.1  34098  288.53 0855.19
2009/04/23 09:51:18.0     163   -343    126    380    401 154.5  18.4  34096  288.49 0855.19
2009/04/23 09:51:18.1     109   -358    210    375    429 163.0  31.7  34096  288.50 0855.19
2009/04/23 09:51:18.2      16   -300    178    301    349 176.9  33.5  34096  288.49 0855.19
2009/04/23 09:51:18.3      -8   -227    224    228    319 182.2  49.8  34098  288.53 0855.19
2009/04/23 09:51:18.4      47   -179    205    186    276 165.1  53.3  34102  288.59 0855.19
2009/04/23 09:51:18.5     136   -287    226    318    390 154.5  38.8  34098  288.52 0855.19
2009/04/23 09:51:18.6    -204   -474      0    517    518 203.3   0.0  34100  288.54 0855.19
2009/04/23 09:51:18.7    -233   -329    120    404    422 215.3  16.6  34096  288.48 0855.19
2009/04/23 09:51:18.8     -86   -399    190    409    450 192.3  26.9  34102  288.58 0855.19
2009/04/23 09:51:18.9     -72   -524    262    529    590 187.9  28.2  34094  288.46 0855.19
2009/04/23 09:51:19.0     -87   -348    171    359    397 194.1  27.3  34100  288.57 0855.19
2009/04/23 09:51:19.1    -128   -261     98    291    308 206.1  18.6  34100  288.54 0855.19
2009/04/23 09:51:19.2     -27   -374    -34    375    377 184.2  -5.3  34102  288.59 0855.19
2009/04/23 09:51:19.3      39   -328     46    331    335 173.2   8.0  34102  288.59 0855.19
2009/04/23 09:51:19.4      83   -314    -58    325    331 165.1 -10.1  34106  288.66 0855.19
2009/04/23 09:51:19.5    -167   -325    -29    366    368 207.3  -4.6  34102  288.59 0855.19
2009/04/23 09:51:19.6     -76   -284    161    295    336 195.1  31.3  34108  288.68 0855.19
2009/04/23 09:51:19.7      -9   -254     66    255    264 182.2  14.5  34100  288.56 0855.23
2009/04/23 09:51:19.8     179   -284    -60    336    342 147.7 -10.2  34100  288.57 0855.23
2009/04/23 09:51:19.9     176   -259    -47    314    318 145.8  -8.6  34100  288.56 0855.23
2009/04/23 09:51:20.0     182   -211    -65    279    287 139.2 -13.3  34096  288.49 0855.23
2009/04/23 09:51:20.1     200   -174     -2    266    267 131.1  -0.5  34098  288.51 0855.23
2009/04/23 09:51:20.2     205   -226    -23    306    307 137.7  -4.4  34094  288.46 0855.23
2009/04/23 09:51:20.3       8   -219    171    220    278 177.8  41.7  34096  288.49 0855.23
2009/04/23 09:51:20.4     160   -233     69    283    292 145.5  13.7  34100  288.56 0855.23
2009/04/23 09:51:20.5     142   -326    115    356    375 156.5  17.9  34100  288.54 0855.23
2009/04/23 09:51:20.6     276   -276     76    391    399 135.1  11.0  34100  288.54 0855.23
2009/04/23 09:51:20.7     215   -311   -127    379    400 145.4 -18.6  34100  288.57 0855.23
2009/04/23 09:51:20.8     225   -330    -89    400    410 145.6 -12.6  34104  288.61 0855.23
2009/04/23 09:51:20.9     216   -476    -62    523    527 155.6  -6.8  34090  288.40 0855.23
2009/04/23 09:51:21.0     180   -503    -29    535    536 160.3  -3.2  34090  288.38 0855.23
2009/04/23 09:51:21.1     189   -467     98    505    515 157.9  11.0  34092  288.42 0855.23
2009/04/23 09:51:21.2     231   -465    -12    520    521 153.6  -1.4  34086  288.31 0855.23
2009/04/23 09:51:21.3     337   -448     -2    561    562 143.0  -0.3  34096  288.50 0855.23
2009/04/23 09:51:21.4     142   -390    -57    416    420 160.0  -7.9  34100  288.55 0855.23
2009/04/23 09:51:21.5     159   -554    -40    577    579 164.0  -4.0  34098  288.51 0855.23
2009/04/23 09:51:21.6      78   -469    -87    476    484 170.6 -10.4  34100  288.56 0855.23
2009/04/23 09:51:21.7     181   -394    -66    434    440 155.3  -8.7  34096  288.48 0855.26
2009/04/23 09:51:21.8     140   -327     22    356    357 156.8   3.6  34094  288.45 0855.26
2009/04/23 09:51:21.9     209   -326    121    388    407 147.3  17.3  34088  288.35 0855.26
2009/04/23 09:51:22.0     139   -474     58    495    499 163.6   6.7  34094  288.46 0855.26
2009/04/23 09:51:22.1      12   -444     74    445    452 178.4   9.4  34090  288.38 0855.26
2009/04/23 09:51:22.2     215   -419    101    471    482 152.8  12.2  34090  288.37 0855.26
2009/04/23 09:51:22.3      31   -461    116    463    478 176.1  14.2  34084  288.30 0855.26
2009/04/23 09:51:22.4      75   -485     95    491    501 171.2  11.0  34086  288.32 0855.26
2009/04/23 09:51:22.5      70   -494    179    500    531 171.9  20.6  34094  288.47 0855.26
2009/04/23 09:51:22.6     110   -492    168    505    533 167.4  18.4  34092  288.43 0855.26
2009/04/23 09:51:22.7      28   -458    137    459    480 176.5  16.6  34094  288.46 0855.26
2009/04/23 09:51:22.8      78   -453     25    460    461 170.2   3.1  34098  288.51 0855.26
2009/04/23 09:51:22.9     -15   -461    188    462    498 181.9  23.5  34098  288.51 0855.26
2009/04/23 09:51:23.0     -78   -383     29    392    394 191.6   4.3  34104  288.62 0855.26
2009/04/23 09:51:23.1    -164   -317    -80    358    367 207.4 -12.7  34100  288.54 0855.26
2009/04/23 09:51:23.2     -90   -308      9    321    322 196.3   1.6  34090  288.37 0855.26
2009/04/23 09:51:23.3     -10   -164    124    165    206 183.8  40.9  34102  288.58 0855.26
2009/04/23 09:51:23.4      18   -132   -100    134    167 172.0 -45.3  34102  288.58 0855.26
2009/04/23 09:51:23.5     -18    -60     63     63     89 196.9  50.1  34102  288.58 0855.26
2009/04/23 09:51:23.6     -23   -164    167    166    235 188.2  50.1  34104  288.62 0855.26
2009/04/23 09:51:23.7    -135   -269    148    302    336 206.7  28.1  34100  288.54 0855.28
2009/04/23 09:51:23.8    -187   -276    -54    334    339 214.2  -9.3  34094  288.45 0855.28
2009/04/23 09:51:23.9     -68   -319   -107    327    345 192.1 -18.2  34100  288.57 0855.28
2009/04/23 09:51:24.0    -185   -332    -14    381    382 209.2  -2.2  34094  288.45 0855.28
2009/04/23 09:51:24.1    -158   -340    -73    376    384 205.0 -11.0  34100  288.57 0855.28
2009/04/23 09:51:24.2     -29   -267    -28    269    271 186.2  -6.0  34096  288.49 0855.28
2009/04/23 09:51:24.3      17   -230     11    231    232 175.6   2.9  34098  288.52 0855.28
2009/04/23 09:51:24.4     152   -273     -8    313    314 150.8  -1.6  34100  288.56 0855.28
2009/04/23 09:51:24.5      18   -541    101    542    552 178.0  10.6  34096  288.48 0855.28
2009/04/23 09:51:24.6      32   -595     67    596    600 176.9   6.5  34094  288.46 0855.28
2009/04/23 09:51:24.7     -13   -676    111    677    687 181.1   9.3  34096  288.50 0855.28
2009/04/23 09:51:24.8      -5   -613    218    614    652 180.5  19.6  34098  288.52 0855.28
2009/04/23 09:51:24.9     172   -597    351    622    714 163.9  32.0  34092  288.43 0855.28
2009/04/23 09:51:25.0     267   -514    317    580    660 152.5  31.0  34094  288.45 0855.28
2009/04/23 09:51:25.1     187   -513    388    547    670 160.0  38.8  34086  288.33 0855.28
2009/04/23 09:51:25.2     159   -552    383    575    690 163.9  36.9  34084  288.28 0855.28
2009/04/23 09:51:25.3     185   -596    357    625    719 162.7  32.3  34086  288.33 0855.28
2009/04/23 09:51:25.4      84   -590    276    597    657 171.9  26.6  34092  288.43 0855.28
2009/04/23 09:51:25.5      86   -553    330    560    650 171.1  33.3  34084  288.30 0855.28
2009/04/23 09:51:25.6      94   -607    334    615    699 171.2  30.9  34086  288.33 0855.28
2009/04/23 09:51:25.7      69   -518    377    523    644 172.3  39.4  34098  288.53 0855.27
2009/04/23 09:51:25.8      98   -500    195    510    546 168.9  22.0  34092  288.43 0855.27
2009/04/23 09:51:25.9      70   -489    181    495    527 171.8  21.0  34098  288.51 0855.27
2009/04/23 09:51:26.0      25   -551    150    552    573 177.4  15.2  34094  288.45 0855.27
2009/04/23 09:51:26.1      53   -467    -14    471    472 173.4  -1.8  34094  288.44 0855.27
2009/04/23 09:51:26.2     133   -438     64    458    463 163.1   8.0  34092  288.41 0855.27
2009/04/23 09:51:26.3     121   -452     65    468    473 165.0   8.0  34090  288.39 0855.27
2009/04/23 09:51:26.4     125   -410     82    429    437 163.0  10.8  34092  288.41 0855.27
2009/04/23 09:51:26.5      63   -246    -27    255    257 165.5  -6.1  34094  288.46 0855.27
2009/04/23 09:51:26.6      42   -355    -23    358    359 173.2  -3.7  34100  288.54 0855.27
2009/04/23 09:51:26.7      60   -498    259    502    564 173.1  29.3  34090  288.40 0855.27
2009/04/23 09:51:26.8      95   -436    244    447    509 167.6  30.9  34092  288.42 0855.27
2009/04/23 09:51:26.9     119   -570    181    583    611 168.2  17.3  34090  288.37 0855.27
2009/04/23 09:51:27.0     172   -564    120    590    603 163.0  11.6  34098  288.53 0855.27
2009/04/23 09:51:27.1      96   -540    107    549    560 169.9  11.1  34096  288.50 0855.27
2009/04/23 09:51:27.2     113   -555    121    567    581 168.4  12.1  34102  288.58 0855.27
2009/04/23 09:51:27.3     111   -533    110    545    556 168.2  11.4  34094  288.45 0855.27
2009/04/23 09:51:27.4     113   -474     44    488    491 166.6   5.2  34096  288.49 0855.27
2009/04/23 09:51:27.5      49   -346    112    350    368 171.9  17.8  34096  288.50 0855.27
2009/04/23 09:51:27.6      66   -277    156    285    324 166.4  30.9  34096  288.49 0855.27
2009/04/23 09:51:27.7     195   -250    220    318    386 142.1  38.0  34094  288.45 0855.27
2009/04/23 09:51:27.8     143   -224    236    266    355 147.4  46.2  34096  288.50 0855.27
2009/04/23 09:51:27.9     186   -308    317    361    480 148.8  45.8  34090  288.39 0855.27
2009/04/23 09:51:28.0     165   -392    379    426    570 157.2  46.3  34090  288.38 0855.27
2009/04/23 09:51:28.1     250   -489    343    550    648 152.9  34.9  34090  288.40 0855.27
2009/04/23 09:51:28.2     286   -619    263    683    731 155.2  22.2  34090  288.39 0855.27
2009/04/23 09:51:28.3     312   -474    200    568    603 146.6  19.4  34088  288.36 0855.27
2009/04/23 09:51:28.4     322   -439    212    545    584 143.7  22.4  34090  288.37 0855.27
2009/04/23 09:51:28.5     266   -622    216    677    711 156.8  17.7  34088  288.34 0855.27
2009/04/23 09:51:28.6     276   -547    139    613    629 153.2  12.8  34074  288.10 0855.27
2009/04/23 09:51:28.7     232   -542    248    590    640 156.8  24.2  34092  288.42 0855.27
2009/04/23 09:51:28.8     123   -560    286    574    641 167.6  28.5  34090  288.38 0855.27
2009/04/23 09:51:28.9      87   -611    280    618    678 171.9  26.0  34092  288.43 0855.27
2009/04/23 09:51:29.0      56   -520    358    524    634 173.8  37.7  34096  288.48 0855.27
2009/04/23 09:51:29.1     -74   -598    255    603    654 187.1  24.3  34092  288.43 0855.27
2009/04/23 09:51:29.2     -62   -491    261    495    559 187.2  30.1  34092  288.41 0855.27
2009/04/23 09:51:29.3     -74   -456    261    463    531 189.2  31.9  34090  288.40 0855.27
2009/04/23 09:51:29.4      39   -321    201    324    381 173.0  35.0  34090  288.40 0855.27
2009/04/23 09:51:29.5     109   -194    224    223    316 150.6  50.0  34096  288.48 0855.27
2009/04/23 09:51:29.6     -92   -286    260    301    397 197.9  45.2  34100  288.55 0855.27
2009/04/23 09:51:29.7    -173   -315    135    360    384 208.8  21.5  34102  288.60 0855.29
2009/04/23 09:51:29.8     -49   -284    231    289    369 189.8  42.9  34094  288.44 0855.29
2009/04/23 09:51:29.9     -99   -365    170    379    415 195.2  25.8  34100  288.55 0855.29
2009/04/23 09:51:30.0     -23   -244    257    246    355 185.6  51.5  34096  288.48 0855.29
2009/04/23 09:51:30.1      20   -263    233    264    352 175.6  45.9  34102  288.58 0855.29
2009/04/23 09:51:30.2       8   -244    152    245    288 178.0  35.0  34096  288.48 0855.29
2009/04/23 09:51:30.3       0   -178    131    179    221 180.2  39.7  34098  288.53 0855.29
2009/04/23 09:51:30.4     -35   -198    148    202    250 190.2  39.9  34100  288.56 0855.29
2009/04/23 09:51:30.5      -4   -278    171    279    327 181.0  34.4  34100  288.56 0855.29
2009/04/23 09:51:30.6      43   -323    189    326    376 172.4  32.8  34094  288.47 0855.29
2009/04/23 09:51:30.7       5   -291    243    292    379 179.0  44.0  34096  288.50 0855.29
2009/04/23 09:51:30.8     -48   -255    232    260    348 190.7  46.4  34096  288.48 0855.29
2009/04/23 09:51:30.9      71   -128    173    147    227 151.0  55.6  34094  288.47 0855.29
2009/04/23 09:51:31.0     217    124    158    250    295  60.3  35.5  34102  288.59 0855.29
2009/04/23 09:51:31.1     163    -35    105    167    197 102.4  35.5  34098  288.52 0855.29
2009/04/23 09:51:31.2     127   -111     77    169    185 131.3  26.4  34100  288.57 0855.29
2009/04/23 09:51:31.3     222   -113    -52    250    256 117.0 -11.9  34104  288.61 0855.29
2009/04/23 09:51:31.4      80   -144    -29    166    169 150.8 -10.1  34100  288.57 0855.29
2009/04/23 09:51:31.5    -118   -270     89    295    309 203.6  16.8  34102  288.59 0855.29
2009/04/23 09:51:31.6      -6   -325     18    326    327 181.2   3.3  34104  288.61 0855.29
2009/04/23 09:51:31.7      48   -346    162    350    385 172.1  26.9  34100  288.55 0855.30
2009/04/23 09:51:31.8     -28   -257    206    259    330 186.2  42.7  34104  288.61 0855.30
2009/04/23 09:51:31.9      31   -153    235    157    282 168.4  63.2  34108  288.68 0855.30
2009/04/23 09:51:32.0      60   -199    204    209    292 163.1  49.8  34108  288.68 0855.30
2009/04/23 09:51:32.1     -22   -224    197    226    299 185.8  45.8  34102  288.59 0855.30
2009/04/23 09:51:32.2    -122   -314    145    337    366 201.3  24.9  34104  288.62 0855.30
2009/04/23 09:51:32.3    -204   -367     -1    421    422 209.1  -0.3  34106  288.65 0855.30
2009/04/23 09:51:32.4    -236   -435    -30    495    496 208.5  -3.5  34102  288.59 0855.30
2009/04/23 09:51:32.5    -192   -254    190    319    371 217.2  33.5  34096  288.49 0855.30
2009/04/23 09:51:32.6     -41   -335    217    338    401 187.1  35.6  34100  288.54 0855.30
2009/04/23 09:51:32.7     -84   -287    205    300    363 196.3  37.6  34104  288.64 0855.29
2009/04/23 09:51:32.8      31     14     78     35     85  64.7  74.5  34114  288.79 0855.29
2009/04/23 09:51:32.9      31    -10    -22     33     39 108.2 -40.9  34100  288.57 0855.29
2009/04/23 09:51:33.0      50    -82    -74     97    122 148.4 -46.0  34098  288.53 0855.29
2009/04/23 09:51:33.1      70    -44    -87     83    120 122.4 -56.0  34098  288.52 0855.29
2009/04/23 09:51:33.2     100    -39    -95    108    143 111.3 -50.3  34106  288.65 0855.29
2009/04/23 09:51:33.3      95   -114   -107    149    183 140.4 -43.7  34100  288.57 0855.29
2009/04/23 09:51:33.4     136   -214    -86    254    268 147.5 -23.3  34102  288.59 0855.29
2009/04/23 09:51:33.5      17    -54   -160     57    169 162.2 -84.6  34108  288.70 0855.29
2009/04/23 09:51:33.6      25   -122   -101    125    160 168.4 -47.7  34104  288.64 0855.29
2009/04/23 09:51:33.7     133   -160     -4    209    210 140.4  -1.2  34100  288.57 0855.29
2009/04/23 09:51:33.8      91   -181    -13    203    204 153.3  -3.9  34100  288.57 0855.29
2009/04/23 09:51:33.9      10   -140    -44    141    147 175.5 -22.3  34100  288.57 0855.29
2009/04/23 09:51:34.0      26   -187      2    189    190 172.0   0.8  34100  288.55 0855.29
2009/04/23 09:51:34.1     -26   -223      8    225    226 186.9   2.1  34102  288.58 0855.29
2009/04/23 09:51:34.2     -47   -197     56    203    211 193.6  15.6  34100  288.57 0855.29
2009/04/23 09:51:34.3     -62   -241    108    249    271 194.5  25.1  34104  288.61 0855.29
2009/04/23 09:51:34.4     -50   -245     92    251    267 191.6  21.0  34098  288.53 0855.29
2009/04/23 09:51:34.5     -36   -171    161    175    237 192.0  47.7  34102  288.58 0855.29
2009/04/23 09:51:34.6     -24   -232    254    234    345 186.0  52.6  34092  288.43 0855.29
2009/04/23 09:51:34.7     -67   -382     88    388    398 190.0  12.8  34096  288.50 0855.31
2009/04/23 09:51:34.8     -33   -370    137    372    396 185.2  21.0  34090  288.38 0855.31
2009/04/23 09:51:34.9    -225   -385     -2    447    448 210.3  -0.3  34100  288.56 0855.31
2009/04/23 09:51:35.0     -51   -333     -6    337    338 188.7  -1.2  34098  288.52 0855.31
2009/04/23 09:51:35.1      67   -274     18    283    284 166.2   3.8  34102  288.59 0855.31
2009/04/23 09:51:35.2      59   -216     65    225    235 164.6  16.3  34098  288.52 0855.31
2009/04/23 09:51:35.3     107   -211     96    237    255 153.0  23.1  34092  288.41 0855.31
2009/04/23 09:51:35.4     129      5    -91    130    158  87.5 -42.8  34096  288.50 0855.31
2009/04/23 09:51:35.5      17     22    -98     29    102  37.8 -87.7  34090  288.38 0855.31
2009/04/23 09:51:35.6      31      0    -22     32     38  90.0 -42.0  34098  288.53 0855.31
2009/04/23 09:51:35.7      48    -31     -6     58     59 122.4  -6.2  34098  288.53 0855.31
2009/04/23 09:51:35.8       7    -75     36     76     84 174.7  27.2  34096  288.50 0855.31
2009/04/23 09:51:35.9     -12    -82     37     84     91 188.9  25.1  34098  288.53 0855.31
2009/04/23 09:51:36.0      -9   -128     -5    129    130 184.4  -2.2  34100  288.55 0855.31
2009/04/23 09:51:36.1       2   -131     63    132    146 179.1  27.2  34098  288.53 0855.31
2009/04/23 09:51:36.2      84   -152     61    174    185 151.0  19.4  34098  288.53 0855.31
2009/04/23 09:51:36.3     149   -205     16    254    255 143.9   3.6  34098  288.51 0855.31
2009/04/23 09:51:36.4      65   -211     43    221    226 162.8  11.1  34098  288.52 0855.31
2009/04/23 09:51:36.5      68   -162     83    176    194 157.1  27.1  34096  288.48 0855.31
2009/04/23 09:51:36.6     139    -97     77    170    186 125.1  26.2  34094  288.47 0855.31
2009/04/23 09:51:36.7     217    -23     79    219    232  96.1  20.4  34096  288.50 0855.32
2009/04/23 09:51:36.8     128   -201    118    239    266 147.4  28.0  34096  288.49 0855.32
2009/04/23 09:51:36.9     151    -47     49    159    167 107.3  17.1  34096  288.50 0855.32
2009/04/23 09:51:37.0     150    -96    141    179    227 122.5  42.4  34096  288.48 0855.32
2009/04/23 09:51:37.1     292   -161    203    334    390 118.9  34.2  34100  288.55 0855.32
2009/04/23 09:51:37.2     186   -117    135    221    258 122.2  34.4  34102  288.58 0855.32
2009/04/23 09:51:37.3     348    117     96    368    381  71.4  14.6  34094  288.47 0855.32
2009/04/23 09:51:37.4     284    -86     -6    297    298 106.9  -1.3  34100  288.54 0855.32
2009/04/23 09:51:37.5     172    -46      3    179    180 105.1   1.2  34090  288.38 0855.32
2009/04/23 09:51:37.6      50   -137      0    146    147 160.0  -0.3  34100  288.57 0855.32
2009/04/23 09:51:37.7      41   -134     21    141    143 163.1   8.5  34098  288.53 0855.32
2009/04/23 09:51:37.8     -11   -131     30    132    136 184.9  13.1  34098  288.52 0855.32
2009/04/23 09:51:37.9     -81   -128    115    152    190 212.5  40.9  34100  288.55 0855.32
2009/04/23 09:51:38.0      41   -103     93    112    145 158.2  43.8  34102  288.60 0855.32
2009/04/23 09:51:38.1    -132    -42      0    139    140 252.3  -0.3  34098  288.53 0855.32
2009/04/23 09:51:38.2    -173     75    -36    189    193 293.5 -10.9  34098  288.53 0855.32
2009/04/23 09:51:38.3     -68     -7     73     69    100 263.9  52.1  34106  288.67 0855.32
2009/04/23 09:51:38.4     -38     34     78     52     93 312.2  63.6  34110  288.72 0855.32
2009/04/23 09:51:38.5    -169    -11     81    170    188 266.1  27.3  34106  288.65 0855.32
2009/04/23 09:51:38.6    -232    -47     -4    237    238 258.5  -1.2  34106  288.66 0855.32
2009/04/23 09:51:38.7      -8   -121    -22    122    124 184.0 -10.3  34102  288.60 0855.31
2009/04/23 09:51:38.8      79   -507   -104    514    525 171.1 -11.5  34102  288.58 0855.31
2009/04/23 09:51:38.9     125   -525   -152    540    560 166.6 -20.4  34100  288.57 0855.31
2009/04/23 09:51:39.0     106   -571     73    581    586 169.4   7.2  34096  288.49 0855.31
2009/04/23 09:51:39.1     107   -491    136    503    522 167.6  15.2  34100  288.57 0855.31
2009/04/23 09:51:39.2      86   -454     81    463    471 169.2  10.0  34100  288.54 0855.31
2009/04/23 09:51:39.3     -22   -436    168    437    468 183.0  22.1  34102  288.60 0855.31
2009/04/23 09:51:39.4    -130   -404    164    425    455 197.9  22.2  34106  288.67 0855.31
2009/04/23 09:51:39.5       0   -356     97    357    371 180.1  15.3  34104  288.64 0855.31
2009/04/23 09:51:39.6      87   -343      4    354    355 165.7   0.7  34100  288.57 0855.31
2009/04/23 09:51:39.7     130   -354     31    378    380 159.8   4.7  34098  288.52 0855.31
2009/04/23 09:51:39.8      88   -367     26    378    379 166.5   4.0  34100  288.57 0855.31
2009/04/23 09:51:39.9      25   -340    114    341    360 175.8  18.5  34100  288.57 0855.31
2009/04/23 09:51:40.0      88   -339     91    351    363 165.4  14.6  34100  288.55 0855.31
2009/04/23 09:51:40.1      17   -437    136    438    459 177.7  17.3  34104  288.61 0855.31
2009/04/23 09:51:40.2     -72   -300    120    309    331 193.6  22.4  34100  288.56 0855.31
2009/04/23 09:51:40.3    -163   -408    126    440    458 201.9  16.0  34100  288.56 0855.31
2009/04/23 09:51:40.4     -42   -318    218    321    388 187.6  37.4  34098  288.52 0855.31
2009/04/23 09:51:40.5     153   -300    116    337    357 152.9  19.1  34098  288.52 0855.31
2009/04/23 09:51:40.6       5   -358    206    359    413 179.1  32.4  34106  288.67 0855.31
2009/04/23 09:51:40.7    -226   -304    173    379    416 216.6  26.3  34110  288.73 0855.28
2009/04/23 09:51:40.8    -184   -218     83    286    298 220.3  16.3  34108  288.70 0855.28
2009/04/23 09:51:40.9     -28   -311    120    313    335 185.3  22.0  34104  288.63 0855.28
2009/04/23 09:51:41.0     -23   -456    160    457    484 182.9  20.0  34100  288.57 0855.28
2009/04/23 09:51:41.1    -176   -259     96    314    329 214.3  17.1  34094  288.46 0855.28
2009/04/23 09:51:41.2       6   -309    127    310    335 178.9  23.5  34100  288.56 0855.28
2009/04/23 09:51:41.3     198   -321    126    378    399 148.4  18.4  34098  288.52 0855.28
2009/04/23 09:51:41.4     230   -205    212    309    374 131.8  37.7  34102  288.59 0855.28
2009/04/23 09:51:41.5     125   -197    150    234    277 147.5  35.6  34104  288.61 0855.28
2009/04/23 09:51:41.6      48   -103    135    114    176 154.7  55.6  34102  288.60 0855.28
2009/04/23 09:51:41.8     -51   -116    107    127    166 203.7  44.3  34102  288.58 0855.28
2009/04/23 09:51:41.9     -70   -269    244    279    370 194.7  45.8  34100  288.57 0855.28
2009/04/23 09:51:42.0     -21   -461    322    462    563 182.7  38.4  34084  288.30 0855.28
2009/04/23 09:51:42.1    -304   -676    333    742    813 204.2  25.8  34088  288.34 0855.28
2009/04/23 09:51:42.2      66   -704    395    708    810 174.6  31.6  34088  288.36 0855.28
2009/04/23 09:51:42.3     113   -754     38    763    764 171.4   2.9  34088  288.35 0855.28
2009/04/23 09:51:42.4     107   -609    140    619    635 170.0  12.8  34088  288.35 0855.28
2009/04/23 09:51:42.5     -97   -295     69    311    319 198.3  12.5  34090  288.39 0855.28
2009/04/23 09:51:42.6      27   -418    257    419    491 176.3  34.4  34094  288.46 0855.28
2009/04/23 09:51:42.7      92   -324    253    337    421 164.1  40.7  34096  288.50 0855.28
2009/04/23 09:51:42.8     187   -265    280    325    428 144.8  45.1  34094  288.47 0855.28
2009/04/23 09:51:42.9      24      0    191     25    192  90.0  90.0  34102  288.58 0855.28
2009/04/23 09:51:43.0    -116   -342    216    362    421 198.7  33.6  34094  288.45 0855.28
2009/04/23 09:51:43.1     -92   -259    270    276    386 199.6  49.7  34100  288.57 0855.28
2009/04/23 09:51:43.2     116   -288    303    311    434 158.1  49.3  34096  288.50 0855.28
2009/04/23 09:51:43.3      90   -402    385    413    564 167.3  47.9  34090  288.40 0855.28
2009/04/23 09:51:43.4     201   -604    293    637    701 161.5  26.4  34090  288.39 0855.28
2009/04/23 09:51:43.5      25   -380    153    381    410 176.2  23.1  34096  288.49 0855.28
2009/04/23 09:51:43.6    -390   -599   -227    716    752 213.1 -17.6  34080  288.23 0855.28
2009/04/23 09:51:43.7    -175   -370    -44    410    413 205.3  -6.2  34084  288.28 0855.28
2009/04/23 09:51:43.8     114   -161    238    198    309 144.6  56.3  34098  288.51 0855.28
2009/04/23 09:51:43.9     277    -71    204    287    352 104.4  38.8  34092  288.42 0855.28
2009/04/23 09:51:44.0     408   -109     29    423    425 105.1   4.0  34098  288.53 0855.28
2009/04/23 09:51:44.1     312    -15    260    313    406  92.8  43.8  34080  288.23 0855.28
2009/04/23 09:51:44.2     108   -319    341    337    479 161.3  50.2  34084  288.28 0855.28
2009/04/23 09:51:44.3      31   -454    335    456    565 176.1  39.9  34078  288.18 0855.28
2009/04/23 09:51:44.4     -64   -538    340    542    639 186.9  35.1  34076  288.14 0855.28
2009/04/23 09:51:44.5      63   -323    146    330    360 168.9  25.3  34092  288.42 0855.28
2009/04/23 09:51:44.6     442   -330     87    552    559 126.8   9.0  34088  288.36 0855.28
2009/04/23 09:51:44.7       1   -332     31    333    335 179.8   5.4  34078  288.18 0855.28
2009/04/23 09:51:44.8     -70   -407    188    414    454 189.8  26.2  34086  288.31 0855.30
2009/04/23 09:51:44.9    -187    -19   -206    188    278 264.1 -57.1  34094  288.44 0855.30
2009/04/23 09:51:45.0     -40     99     53    108    120 337.7  27.8  34088  288.35 0855.30
2009/04/23 09:51:45.1       4    -53    237     54    243 175.6  87.5  34088  288.36 0855.30
2009/04/23 09:51:45.2      62     39    278     74    287  57.5  84.9  34100  288.54 0855.30
2009/04/23 09:51:45.3     121     57    191    134    233  64.6  61.8  34092  288.42 0855.30
2009/04/23 09:51:45.4     340      3    335    341    478  89.4  49.7  34080  288.21 0855.30
2009/04/23 09:51:45.5     -63   -350    375    356    517 190.2  51.8  34090  288.40 0855.30
2009/04/23 09:51:45.6     -33   -374    150    376    404 185.1  23.0  34084  288.28 0855.30
2009/04/23 09:51:45.7     -93   -226     87    245    261 202.5  19.6  34086  288.32 0855.30
2009/04/23 09:51:45.8    -194     33    138    197    240 279.7  38.5  34088  288.36 0855.30
2009/04/23 09:51:45.9     188   -134    148    232    275 125.5  35.6  34076  288.15 0855.30
2009/04/23 09:51:46.0      97   -291    379    307    487 161.5  56.9  34096  288.48 0855.30
2009/04/23 09:51:46.1     173   -651    496    674    836 165.1  40.0  34094  288.44 0855.30
2009/04/23 09:51:46.2     321   -553    443    640    778 149.9  38.0  34066  287.99 0855.30
2009/04/23 09:51:46.3     500   -412    425    648    774 129.5  36.4  34090  288.40 0855.30
2009/04/23 09:51:46.4     577   -347     42    674    676 121.0   3.6  34092  288.43 0855.30
2009/04/23 09:51:46.5     349   -237     99    423    435 124.2  13.2  34088  288.34 0855.30
2009/04/23 09:51:46.6     232   -257    197    347    399 138.0  32.3  34088  288.35 0855.30
2009/04/23 09:51:46.7     269   -409    196    490    527 146.7  23.0  34086  288.32 0855.30
2009/04/23 09:51:46.8     351   -470    239    587    633 143.3  23.5  34076  288.15 0855.29
2009/04/23 09:51:46.9     235   -383    239    450    509 148.5  30.2  34088  288.35 0855.29
2009/04/23 09:51:47.0     292   -363    209    466    510 141.2  25.7  34090  288.39 0855.29
2009/04/23 09:51:47.1     139   -380    338    405    527 159.8  44.0  34090  288.39 0855.29
2009/04/23 09:51:47.2     223    -43    327    228    398 101.0  62.0  34090  288.37 0855.29
2009/04/23 09:51:47.3       2   -185    197    186    270 179.1  52.1  34100  288.56 0855.29
2009/04/23 09:51:47.4     166   -243     38    295    298 145.7   7.5  34092  288.41 0855.29
2009/04/23 09:51:47.5    -148   -104    -54    181    188 234.9 -21.5  34088  288.36 0855.29
2009/04/23 09:51:47.6    -217    -36   -141    221    262 260.5 -40.0  34096  288.49 0855.29
2009/04/23 09:51:47.7    -131      8   -129    132    184 273.9 -54.2  34104  288.62 0855.29
2009/04/23 09:51:47.8     107   -102      7    148    149 133.6   2.9  34098  288.53 0855.29
2009/04/23 09:51:47.9     166    -31     65    169    181 100.8  22.3  34102  288.58 0855.29
2009/04/23 09:51:48.0     230    -40     98    234    253  99.9  23.8  34102  288.58 0855.29
2009/04/23 09:51:48.1     248   -145    122    288    312 120.4  24.3  34106  288.65 0855.29
2009/04/23 09:51:48.2     282   -180    204    335    392 122.6  34.2  34100  288.55 0855.29
2009/04/23 09:51:48.3     189   -130     80    230    244 124.6  19.2  34100  288.56 0855.29
2009/04/23 09:51:48.4     -56   -167     74    177    191 198.7  23.8  34100  288.55 0855.29
2009/04/23 09:51:48.5    -120   -317    101    340    355 200.8  16.6  34096  288.50 0855.29
2009/04/23 09:51:48.6      37   -343    159    346    380 173.8  26.5  34096  288.50 0855.29
2009/04/23 09:51:48.7     243   -450    238    512    564 151.6  26.9  34094  288.45 0855.29
2009/04/23 09:51:48.8     299   -502    226    585    627 149.3  22.3  34100  288.56 0855.29
2009/04/23 09:51:48.9     315   -465    300    562    637 145.9  30.3  34100  288.56 0855.29
2009/04/23 09:51:49.0     280   -448    211    529    569 148.0  23.0  34098  288.53 0855.29
2009/04/23 09:51:49.1     319   -525    174    615    640 148.7  15.8  34100  288.55 0855.29
2009/04/23 09:51:49.2     248   -410     97    480    490 148.9  11.4  34100  288.54 0855.29
2009/04/23 09:51:49.3     190   -304     77    359    368 148.0  12.2  34096  288.50 0855.29
2009/04/23 09:51:49.4     112   -235    114    261    284 154.5  25.1  34100  288.54 0855.29
2009/04/23 09:51:49.5       4   -283    -26    284    286 179.1  -5.4  34100  288.54 0855.29
2009/04/23 09:51:49.6     198   -404     -2    450    451 153.9  -0.3  34104  288.61 0855.29
2009/04/23 09:51:49.7     123   -314    203    338    394 158.5  33.7  34096  288.50 0855.29
2009/04/23 09:51:49.8     -43   -178    149    184    236 193.6  43.3  34100  288.57 0855.29
2009/04/23 09:51:49.9     -50   -216     77    222    236 193.3  19.2  34102  288.58 0855.29
2009/04/23 09:51:50.0    -101   -265    -73    284    294 200.9 -14.5  34100  288.54 0855.29
2009/04/23 09:51:50.1      78    -15    214     80    228 101.5  78.9  34102  288.60 0855.29
2009/04/23 09:51:50.2     100      0    214    101    236  90.0  73.1  34108  288.70 0855.29
2009/04/23 09:51:50.3      44    -28    191     53    198 122.4  84.4  34106  288.67 0855.29
2009/04/23 09:51:50.4      53   -107    140    120    184 153.7  55.0  34104  288.62 0855.29
2009/04/23 09:51:50.5      94   -119      7    152    153 141.7   2.9  34102  288.60 0855.29
2009/04/23 09:51:50.6     249    -55    148    256    295 102.6  32.7  34098  288.51 0855.29
2009/04/23 09:51:50.7     195   -146    107    244    266 126.9  25.2  34104  288.61 0855.29
2009/04/23 09:51:50.8      91   -133     74    162    178 145.7  26.2  34098  288.53 0855.30
2009/04/23 09:51:50.9      27   -164     15    167    168 170.7   5.2  34100  288.55 0855.30
2009/04/23 09:51:51.0     -16    -96    -35     98    105 189.8 -19.6  34104  288.62 0855.30
2009/04/23 09:51:51.1      -1   -101    -12    102    103 180.9  -7.2  34104  288.62 0855.30
2009/04/23 09:51:51.2       8   -103     56    104    118 175.1  30.8  34104  288.62 0855.30
2009/04/23 09:51:51.3      91    -97     80    134    156 136.8  34.0  34100  288.57 0855.30
2009/04/23 09:51:51.4     368   -242    100    441    453 123.4  12.8  34098  288.51 0855.30
2009/04/23 09:51:51.5     253   -347    170    430    462 143.9  23.0  34096  288.48 0855.30
2009/04/23 09:51:51.6     271   -399    151    483    507 145.7  17.4  34096  288.49 0855.30
2009/04/23 09:51:51.7     297   -437    166    529    555 145.7  17.4  34098  288.52 0855.30
2009/04/23 09:51:51.8     183   -389    173    430    463 154.8  23.1  34102  288.58 0855.30
2009/04/23 09:51:51.9      69   -458    159    464    491 171.4  18.9  34100  288.54 0855.30
2009/04/23 09:51:52.0      64   -413    193    419    461 171.1  26.6  34106  288.65 0855.30
2009/04/23 09:51:52.1      78   -421    257    429    500 169.5  33.7  34100  288.54 0855.30
2009/04/23 09:51:52.2    -143   -304    262    336    426 205.2  42.0  34104  288.64 0855.30
2009/04/23 09:51:52.3    -174   -365    273    405    488 205.5  37.2  34112  288.75 0855.30
2009/04/23 09:51:52.4    -105   -126    183    165    246 219.9  53.3  34102  288.60 0855.30
2009/04/23 09:51:52.5     -17   -351    328    352    481 182.9  47.8  34092  288.41 0855.30
2009/04/23 09:51:52.6      32   -416    270    418    497 175.5  35.9  34094  288.47 0855.30
2009/04/23 09:51:52.7     185   -239    255    303    396 142.2  44.5  34104  288.62 0855.30
2009/04/23 09:51:52.8     204   -153    118    255    280 126.9  26.4  34102  288.59 0855.29
2009/04/23 09:51:52.9      24   -245    129    247    278 174.2  29.8  34102  288.59 0855.29
2009/04/23 09:51:53.0     -25   -256    161    258    304 185.6  35.5  34100  288.54 0855.29
2009/04/23 09:51:53.1      20    -32    143     38    147 147.4  84.9  34108  288.69 0855.29
2009/04/23 09:51:53.2      27   -417    196    418    461 176.3  27.1  34098  288.53 0855.29
2009/04/23 09:51:53.3    -121   -196    333    231    405 211.6  62.0  34116  288.81 0855.29
2009/04/23 09:51:53.4    -291   -184    254    345    428 237.6  39.8  34108  288.68 0855.29
2009/04/23 09:51:53.5    -226   -133    152    263    303 239.4  32.4  34100  288.56 0855.29
2009/04/23 09:51:53.6    -197   -157    113    253    277 231.4  25.3  34108  288.68 0855.29
2009/04/23 09:51:53.7      50    -52    162     73    177 135.8  74.2  34112  288.77 0855.29
2009/04/23 09:51:53.8     305    -60    222    311    382 101.2  39.2  34108  288.69 0855.29
2009/04/23 09:51:53.9     191   -138    244    236    339 126.0  51.1  34108  288.68 0855.29
2009/04/23 09:51:54.0      66   -187    173    199    263 160.4  45.4  34102  288.59 0855.29
2009/04/23 09:51:54.1      39   -313    333    316    459 172.9  51.9  34110  288.72 0855.29
2009/04/23 09:51:54.2     126   -310    292    335    444 157.8  45.6  34118  288.87 0855.29
2009/04/23 09:51:54.3      -7   -218    324    219    391 182.0  62.7  34106  288.67 0855.29
2009/04/23 09:51:54.4      38    -99    265    107    285 159.1  77.0  34110  288.73 0855.29
2009/04/23 09:51:54.5     282     12    255    283    380  87.4  46.6  34106  288.66 0855.29
2009/04/23 09:51:54.6     196   -147    213    246    325 126.9  45.4  34108  288.70 0855.29
2009/04/23 09:51:54.7      18    -63    139     66    153 164.0  72.9  34120  288.89 0855.29
2009/04/23 09:51:54.8      -6    -83    162     84    182 184.5  70.4  34116  288.84 0855.29
2009/04/23 09:51:54.9      29   -312    366    314    482 174.7  55.3  34114  288.78 0855.29
2009/04/23 09:51:55.0       3   -341    311    342    462 179.4  47.0  34116  288.82 0855.29
2009/04/23 09:51:55.1       3   -202    288    203    352 179.1  61.4  34116  288.83 0855.29
2009/04/23 09:51:55.2      55   -153    298    163    339 160.0  69.1  34102  288.58 0855.29
2009/04/23 09:51:55.3     -18     15    250     24    251 311.3  90.0  34108  288.69 0855.29
2009/04/23 09:51:55.4      63      0    115     64    131  89.2  68.8  34118  288.86 0855.29
2009/04/23 09:51:55.5      23    -26    169     35    172 138.6  89.0  34112  288.75 0855.29
2009/04/23 09:51:55.6     182   -115    188    216    286 122.2  45.8  34114  288.78 0855.29
2009/04/23 09:51:55.7      21   -208    256    210    331 174.2  56.4  34118  288.85 0855.29
2009/04/23 09:51:55.8      34   -217    210    220    304 170.9  48.7  34114  288.80 0855.29
2009/04/23 09:51:55.9      40   -120    208    127    243 161.3  65.7  34114  288.80 0855.29
2009/04/23 09:51:56.0      82    -50    130     97    162 121.5  59.4  34118  288.87 0855.29
2009/04/23 09:51:56.1       6   -148    190    149    241 177.4  57.9  34114  288.79 0855.29
2009/04/23 09:51:56.2      33    -61    169     70    182 151.0  76.8  34110  288.74 0855.29
2009/04/23 09:51:56.3      28   -103    202    107    228 164.8  70.0  34116  288.84 0855.29
2009/04/23 09:51:56.4      55     35    144     66    158  57.6  74.0  34122  288.94 0855.29
2009/04/23 09:51:56.5       6    -68    128     69    145 174.7  68.9  34114  288.80 0855.29
2009/04/23 09:51:56.6      87   -185    155    205    257 154.7  40.7  34114  288.80 0855.29
2009/04/23 09:51:56.7      31   -125    169    129    212 165.7  58.7  34114  288.80 0855.29
2009/04/23 09:51:56.8      58    -20    140     62    153 109.1  74.9  34118  288.86 0855.29
2009/04/23 09:51:56.9     -10   -213    199    214    292 182.7  47.9  34110  288.73 0855.29
2009/04/23 09:51:57.0      48     48    232     68    241  45.0  83.3  34160  289.57 0855.29
2009/04/23 09:51:57.1     127     58    264    140    298  65.2  69.8  34234  290.82 0855.29
2009/04/23 09:51:57.2     334     68    181    342    386  78.4  30.2  34240  290.93 0855.29
2009/04/23 09:51:57.3     295    118    140    318    347  68.2  25.3  34212  290.47 0855.29
2009/04/23 09:51:57.4     304     41     80    307    318  82.3  14.6  34204  290.31 0855.29
2009/04/23 09:51:57.5     179     48     88    186    205  74.9  27.2  34212  290.47 0855.29
2009/04/23 09:51:57.6     145    -43    175    152    231 106.8  54.6  34214  290.48 0855.29
2009/04/23 09:51:57.7     181     13    133    182    225  85.7  39.7  34200  290.26 0855.29
2009/04/23 09:51:57.8     387    130     25    409    410  71.4   3.6  34200  290.24 0855.30
2009/04/23 09:51:57.9     594    213    118    632    643  70.2  10.6  34224  290.65 0855.30
2009/04/23 09:51:58.0     589     95    183    597    625  80.8  17.1  34182  289.94 0855.30
2009/04/23 09:51:58.1     450     22    409    451    608  87.1  46.9  34158  289.53 0855.30
2009/04/23 09:51:58.2     536   -139    314    554    636 104.6  32.1  34178  289.86 0855.30
2009/04/23 09:51:58.3     338   -131    171    363    401 111.2  27.1  34166  289.67 0855.30
2009/04/23 09:51:58.4     116   -267    -34    292    295 156.6  -6.7  34186  290.02 0855.30
2009/04/23 09:51:58.5      68   -195   -134    207    246 160.6 -40.1  34142  289.25 0855.30
2009/04/23 09:51:58.6    -216   -271     96    347    361 218.6  15.6  34172  289.79 0855.30
2009/04/23 09:51:58.7    -209   -316     34    379    381 213.5   5.2  34158  289.54 0855.30
2009/04/23 09:51:58.8     -34   -350     54    352    357 185.6   8.7  34158  289.55 0855.30
2009/04/23 09:51:58.9     -23   -186   -221    188    290 187.1 -59.8  34146  289.32 0855.30
2009/04/23 09:51:59.0      54   -231   -166    238    290 166.7 -42.4  34162  289.59 0855.30
2009/04/23 09:51:59.1    -166   -228     28    283    285 216.1   5.7  34144  289.29 0855.30
2009/04/23 09:51:59.2    -133   -207    106    247    268 212.7  24.6  34118  288.85 0855.30
2009/04/23 09:51:59.3    -102   -181    122    208    241 209.4  33.4  34118  288.86 0855.30
2009/04/23 09:51:59.4    -147   -114    -63    187    197 232.2 -23.6  34104  288.64 0855.30
2009/04/23 09:51:59.5    -168   -340    137    380    403 206.4  20.7  34116  288.81 0855.30
2009/04/23 09:51:59.6    -302   -473    -67    562    566 212.6  -6.8  34106  288.65 0855.30
2009/04/23 09:51:59.7    -159   -609    -72    630    635 194.7  -6.6  34116  288.82 0855.30
2009/04/23 09:51:59.8     -60   -548     36    552    554 186.3   3.8  34116  288.82 0855.30
2009/04/23 09:51:59.9     -30   -474     31    475    477 183.6   3.8  34116  288.84 0855.30
2009/04/23 09:52:00.0     -28   -324    101    326    342 185.0  17.2  34110  288.74 0855.30
2009/04/23 09:52:00.1     -53   -259    152    265    305 191.6  32.4  34122  288.92 0855.30
2009/04/23 09:52:00.2     -96   -263     43    281    285 200.1   8.8  34116  288.81 0855.30
2009/04/23 09:52:00.3     -53   -314     75    319    328 189.6  13.3  34112  288.76 0855.30
2009/04/23 09:52:00.4     157   -286    111    327    346 151.1  18.8  34094  288.47 0855.30
2009/04/23 09:52:00.5      63   -136    244    151    286 155.1  65.4  34108  288.70 0855.30
2009/04/23 09:52:00.6     -35   -160    255    164    303 192.5  64.6  34096  288.48 0855.30
2009/04/23 09:52:00.7    -112   -357    273    375    463 197.5  39.7  34096  288.48 0855.30
2009/04/23 09:52:00.8    -292   -320     52    434    438 222.4   6.9  34094  288.46 0855.30
2009/04/23 09:52:00.9    -188   -354    138    401    425 208.0  19.1  34108  288.68 0855.30
2009/04/23 09:52:01.0      82   -485    167    492    520 170.3  18.8  34102  288.59 0855.30
2009/04/23 09:52:01.1     137   -387    247    411    479 160.4  34.0  34116  288.82 0855.30
2009/04/23 09:52:01.2      98   -483    147    493    515 168.5  16.7  34112  288.76 0855.30
2009/04/23 09:52:01.3    -155   -417     91    445    455 200.4  11.6  34110  288.72 0855.30
2009/04/23 09:52:01.4     -94   -428    -61    439    444 192.5  -7.9  34106  288.67 0855.30
2009/04/23 09:52:01.5       0   -364    -33    365    367 180.1  -5.2  34110  288.71 0855.30
2009/04/23 09:52:01.6     -30   -395     29    397    399 184.5   4.2  34110  288.72 0855.30
2009/04/23 09:52:01.7     -24   -287     73    289    299 184.9  14.3  34112  288.75 0855.30
2009/04/23 09:52:01.8     -10   -404    113    405    421 181.5  15.7  34112  288.77 0855.29
2009/04/23 09:52:01.9      76   -413    190    420    460 169.5  26.2  34096  288.50 0855.29
2009/04/23 09:52:02.0      40   -425    155    428    456 174.6  19.9  34094  288.45 0855.29
2009/04/23 09:52:02.1      42   -446    275    449    526 174.6  34.4  34094  288.46 0855.29
2009/04/23 09:52:02.2     106   -435    221    448    499 166.2  28.2  34094  288.46 0855.29
2009/04/23 09:52:02.3     141   -437    175    460    492 162.1  22.0  34100  288.54 0855.29
2009/04/23 09:52:02.4      87   -456     86    465    473 169.1  10.6  34094  288.47 0855.29
2009/04/23 09:52:02.5      61   -410    177    415    451 171.5  24.6  34098  288.51 0855.29
2009/04/23 09:52:02.6     154   -444     73    471    477 160.8   8.8  34102  288.59 0855.29
2009/04/23 09:52:02.7     191   -437     43    478    480 156.4   5.2  34100  288.57 0855.29
2009/04/23 09:52:02.8     271   -374     75    463    470 144.0   9.2  34098  288.51 0855.29
2009/04/23 09:52:02.9     207   -321    117    383    401 147.2  17.1  34096  288.49 0855.29
2009/04/23 09:52:03.0     205   -366     31    420    422 150.7   4.2  34102  288.60 0855.29
2009/04/23 09:52:03.1     195   -519    -21    555    556 159.4  -2.2  34108  288.69 0855.29
2009/04/23 09:52:03.2      60   -452     47    456    459 172.4   5.9  34108  288.68 0855.29
2009/04/23 09:52:03.3      35   -454      6    456    457 175.5   0.8  34112  288.75 0855.29
2009/04/23 09:52:03.4     156   -489    -33    514    516 162.3  -3.7  34100  288.57 0855.29
2009/04/23 09:52:03.5     177   -441    -78    476    483 158.1  -9.4  34104  288.64 0855.29
2009/04/23 09:52:03.6     203   -355    -67    409    415 150.2  -9.3  34108  288.70 0855.29
2009/04/23 09:52:03.7     125   -151    -93    197    217 140.4 -31.6  34112  288.75 0855.29
2009/04/23 09:52:03.8      52   -143   -124    153    196 159.9 -47.9  34110  288.72 0855.29
2009/04/23 09:52:03.9     -13   -208    -23    209    211 183.8  -6.5  34110  288.74 0855.29
2009/04/23 09:52:04.0     -51   -229    -46    235    240 192.7 -11.1  34112  288.75 0855.29
2009/04/23 09:52:04.1      24   -254    -51    256    262 174.4 -11.3  34114  288.80 0855.29
2009/04/23 09:52:04.2      44   -218    -75    223    236 168.4 -18.7  34114  288.79 0855.29
2009/04/23 09:52:04.3      12   -259     87    260    275 177.3  18.5  34118  288.85 0855.29
2009/04/23 09:52:04.4      32   -228     93    231    249 171.9  23.0  34108  288.70 0855.29
2009/04/23 09:52:04.5      11   -264     85    265    279 177.5  17.9  34100  288.56 0855.29
2009/04/23 09:52:04.6     166   -220   -139    276    309 143.0 -33.1  34112  288.75 0855.29
2009/04/23 09:52:04.7     225   -158    -91    275    290 125.1 -18.3  34108  288.68 0855.29
2009/04/23 09:52:04.8     366   -239   -131    438    458 123.1 -16.6  34102  288.58 0855.29
2009/04/23 09:52:04.9     247   -173    -84    302    313 125.1 -20.2  34098  288.51 0855.29
2009/04/23 09:52:05.0     127   -350    -78    373    382 160.0 -11.9  34100  288.57 0855.29
2009/04/23 09:52:05.1      44   -473    111    476    489 174.7  13.1  34094  288.47 0855.29
2009/04/23 09:52:05.2      95   -525     79    534    540 169.7   8.5  34102  288.60 0855.29
2009/04/23 09:52:05.3      79   -436    -77    444    451 169.7  -9.9  34098  288.51 0855.29
2009/04/23 09:52:05.4      11   -373    -53    374    378 178.3  -8.1  34100  288.57 0855.29
2009/04/23 09:52:05.5      25   -282     97    284    301 174.9  18.9  34098  288.51 0855.29
2009/04/23 09:52:05.6     -34   -567    177    569    596 183.5  17.3  34096  288.49 0855.29
2009/04/23 09:52:05.7      -8   -614     13    615    616 180.8   1.2  34094  288.45 0855.29
2009/04/23 09:52:05.8    -122   -675    -25    686    687 190.3  -2.1  34086  288.31 0855.27
2009/04/23 09:52:05.9      50   -629    135    632    647 175.4  12.1  34098  288.52 0855.27
2009/04/23 09:52:06.0     -17   -506     96    507    517 182.0  10.7  34088  288.35 0855.27
2009/04/23 09:52:06.1     -31   -402    134    404    426 184.5  18.4  34094  288.46 0855.27
2009/04/23 09:52:06.2     -66   -359    158    366    398 190.5  24.9  34094  288.44 0855.27
2009/04/23 09:52:06.3     -72   -264    173    274    324 195.4  35.3  34098  288.51 0855.27
2009/04/23 09:52:06.4       7   -250    257    251    359 178.2  50.6  34096  288.48 0855.27
2009/04/23 09:52:06.5    -347   -483    271    595    653 215.7  26.3  34100  288.57 0855.27
2009/04/23 09:52:06.6       2   -406    243    407    474 179.7  33.6  34094  288.45 0855.27
2009/04/23 09:52:06.7      42   -386    100    389    402 173.7  14.5  34092  288.42 0855.27
2009/04/23 09:52:06.8     146   -489    110    511    523 163.3  12.2  34094  288.44 0855.27
2009/04/23 09:52:06.9     396   -556    116    683    693 144.5   9.7  34092  288.43 0855.27
2009/04/23 09:52:07.0     505   -482    291    699    757 133.7  24.1  34082  288.26 0855.27
2009/04/23 09:52:07.1     564   -440    113    716    725 128.0   9.0  34086  288.32 0855.27
2009/04/23 09:52:07.2     449   -401    129    603    617 131.8  12.2  34096  288.48 0855.27
2009/04/23 09:52:07.3     320   -311    177    447    480 134.1  22.9  34092  288.42 0855.27
2009/04/23 09:52:07.4     243   -371     47    444    447 146.8   6.1  34096  288.50 0855.27
2009/04/23 09:52:07.5     327   -409     55    524    528 141.4   6.1  34098  288.53 0855.27
2009/04/23 09:52:07.6     347   -505     41    614    616 145.5   3.9  34094  288.47 0855.27
2009/04/23 09:52:07.7     262   -317     52    412    416 140.4   7.2  34098  288.53 0855.27
2009/04/23 09:52:07.8     283   -324     26    431    432 138.8   3.5  34098  288.51 0855.27
2009/04/23 09:52:07.9     230   -513     15    563    564 155.8   1.6  34096  288.50 0855.27
2009/04/23 09:52:08.0     164   -450    157    480    506 159.9  18.1  34094  288.46 0855.27
2009/04/23 09:52:08.1      77   -455    227    462    514 170.3  28.2  34100  288.54 0855.27
2009/04/23 09:52:08.2    -136   -325    175    353    393 202.7  28.2  34096  288.49 0855.27
2009/04/23 09:52:08.3     -79    -93    -22    123    125 220.5 -10.3  34100  288.55 0855.27
2009/04/23 09:52:08.4      25   -232    127    234    266 173.8  31.0  34100  288.54 0855.27
2009/04/23 09:52:08.5    -178   -253    237    310    390 215.2  41.2  34094  288.45 0855.27
2009/04/23 09:52:08.6    -322   -192    137    375    399 239.2  21.0  34106  288.66 0855.27
2009/04/23 09:52:08.7    -115   -180    119    214    244 212.6  31.4  34110  288.73 0855.27
2009/04/23 09:52:08.8    -102    -84     45    133    141 230.5  18.9  34114  288.79 0855.27
2009/04/23 09:52:08.9     142    -86    129    167    211 121.1  41.7  34092  288.42 0855.27
2009/04/23 09:52:09.0      74   -203    272    217    347 160.0  57.5  34098  288.51 0855.27
2009/04/23 09:52:09.1    -143   -298    -36    331    334 205.6  -6.3  34104  288.62 0855.27
2009/04/23 09:52:09.2     -16   -207    154    208    258 184.5  40.1  34104  288.61 0855.27
2009/04/23 09:52:09.3    -148   -314    154    348    380 205.2  25.6  34100  288.55 0855.27
2009/04/23 09:52:09.4    -209   -207    -59    295    301 225.2 -11.3  34108  288.70 0855.27
2009/04/23 09:52:09.6    -161   -167    -97    233    252 223.9 -28.5  34104  288.63 0855.27
2009/04/23 09:52:09.7     -25   -184    -85    186    204 187.8 -30.6  34106  288.65 0855.27
2009/04/23 09:52:09.8    -123   -260   -103    288    306 205.4 -19.7  34102  288.58 0855.27
2009/04/23 09:52:09.9     -55   -243     49    250    255 192.9  11.1  34104  288.61 0855.27
2009/04/23 09:52:10.0     -11   -161     48    162    170 184.2  16.6  34106  288.67 0855.27
2009/04/23 09:52:10.1      49     10    156     51    164  77.6  81.2  34106  288.65 0855.27
2009/04/23 09:52:10.2      59     35    208     69    219  59.3  80.7  34104  288.64 0855.27
2009/04/23 09:52:10.3     162     12    207    163    263  85.7  57.7  34104  288.63 0855.27
2009/04/23 09:52:10.4     174   -203    159    268    311 139.5  33.5  34104  288.61 0855.27
2009/04/23 09:52:10.5     248   -192    136    314    342 127.7  25.0  34106  288.66 0855.27
2009/04/23 09:52:10.6     127   -204     96    241    259 148.1  23.0  34106  288.65 0855.27
2009/04/23 09:52:10.7     -61   -298     91    305    319 191.6  16.7  34094  288.46 0855.27
2009/04/23 09:52:10.8     113   -322    117    342    362 160.6  18.9  34100  288.54 0855.27
2009/04/23 09:52:10.9     174   -210    -76    273    283 140.4 -20.2  34098  288.53 0855.27
2009/04/23 09:52:11.0     315   -117     48    337    341 110.5   8.2  34098  288.52 0855.27
2009/04/23 09:52:11.1     317   -156     -7    354    355 116.3  -1.3  34102  288.59 0855.27
2009/04/23 09:52:11.2     338    -71    120    346    367 101.9  19.2  34100  288.54 0855.27
2009/04/23 09:52:11.3     296   -171    242    342    418 120.0  38.7  34102  288.60 0855.27
2009/04/23 09:52:11.4     209   -216    298    301    423 135.9  49.9  34104  288.62 0855.27
2009/04/23 09:52:11.5      50   -268    326    273    425 169.4  56.1  34106  288.66 0855.27
2009/04/23 09:52:11.6     134   -121    263    181    319 132.0  62.4  34102  288.58 0855.27
2009/04/23 09:52:11.7      81   -151    177    172    246 151.7  50.9  34102  288.58 0855.27
2009/04/23 09:52:11.8       0   -261    254    262    364 180.1  49.2  34102  288.60 0855.27
2009/04/23 09:52:11.9     134    -41    197    141    242 107.3  61.1  34110  288.74 0855.25
2009/04/23 09:52:12.0     154   -100    197    184    269 123.1  52.1  34104  288.63 0855.25
2009/04/23 09:52:12.1     140   -176    103    225    247 141.5  26.2  34098  288.53 0855.25
2009/04/23 09:52:12.2     -81   -244    189    258    319 198.5  39.9  34094  288.44 0855.25
2009/04/23 09:52:12.3    -485   -303     39    573    575 238.0   3.9  34108  288.70 0855.25
2009/04/23 09:52:12.4    -395   -169    148    430    455 246.8  19.1  34114  288.78 0855.25
2009/04/23 09:52:12.5    -325   -144      6    356    357 246.0   1.1  34116  288.81 0855.25
2009/04/23 09:52:12.6    -133   -115    145    177    228 229.1  43.7  34106  288.67 0855.25
2009/04/23 09:52:12.7    -117   -158    152    197    248 216.5  41.7  34106  288.66 0855.25
2009/04/23 09:52:12.8     -95   -152    107    180    209 211.9  33.5  34106  288.65 0855.25
2009/04/23 09:52:12.9    -191   -404    156    447    473 205.3  20.0  34108  288.68 0855.25
2009/04/23 09:52:13.0    -129   -419    215    439    488 197.2  28.0  34104  288.64 0855.25
2009/04/23 09:52:13.1     -20   -417    163    418    448 182.8  22.4  34100  288.56 0855.25
2009/04/23 09:52:13.2      26   -491    226    492    541 176.9  26.6  34096  288.50 0855.25
2009/04/23 09:52:13.3      48   -482    286    485    563 174.2  33.4  34106  288.65 0855.25
2009/04/23 09:52:13.4    -123   -501    262    516    578 193.8  29.1  34096  288.50 0855.25
2009/04/23 09:52:13.5     -62   -405    185    410    449 188.7  26.0  34104  288.61 0855.25
2009/04/23 09:52:13.6     -22   -298    148    299    333 184.4  28.2  34104  288.63 0855.25
2009/04/23 09:52:13.7     100   -309    197    325    380 162.0  34.2  34100  288.57 0855.25
2009/04/23 09:52:13.8     154   -266    181    308    357 149.9  33.1  34102  288.59 0855.25
2009/04/23 09:52:13.9     194   -190    230    272    356 134.4  44.7  34102  288.59 0855.26
2009/04/23 09:52:14.0     220   -165    214    276    349 126.9  41.9  34108  288.68 0855.26
2009/04/23 09:52:14.1     131   -130    180    185    258 134.9  49.2  34104  288.63 0855.26
2009/04/23 09:52:14.2     312   -143     74    344    352 114.7  12.2  34104  288.64 0855.26
2009/04/23 09:52:14.3     181   -172    146    250    289 133.6  33.1  34104  288.61 0855.26
2009/04/23 09:52:14.4     154   -234    166    281    326 146.6  33.3  34102  288.58 0855.26
2009/04/23 09:52:14.5      66   -255    131    264    294 165.5  28.2  34104  288.63 0855.26
2009/04/23 09:52:14.6     -10   -235    190    236    302 182.6  43.3  34106  288.65 0855.26
2009/04/23 09:52:14.7     -33   -270    183    273    328 187.1  37.0  34102  288.59 0855.26
2009/04/23 09:52:14.8       5   -124    148    125    193 177.3  56.1  34112  288.75 0855.26
2009/04/23 09:52:14.9     137   -287    249    319    404 154.5  42.0  34096  288.50 0855.26
2009/04/23 09:52:15.0      53   -222    286    229    366 166.6  57.3  34096  288.48 0855.26
2009/04/23 09:52:15.1     384   -100     49    397    401 104.7   7.1  34098  288.52 0855.26
2009/04/23 09:52:15.2      85   -215    172    232    288 158.4  40.4  34086  288.32 0855.26
2009/04/23 09:52:15.3      67   -186    151    198    249 160.2  41.2  34104  288.63 0855.26
2009/04/23 09:52:15.4      20   -393     77    394    402 177.0  11.1  34104  288.62 0855.26
2009/04/23 09:52:15.5      59   -291    107    297    316 168.5  19.9  34108  288.68 0855.26
2009/04/23 09:52:15.6      71   -397      0    404    405 169.8   0.1  34100  288.55 0855.26
2009/04/23 09:52:15.7     107   -269     25    290    292 158.2   5.0  34096  288.49 0855.26
2009/04/23 09:52:15.8     222   -161    158    275    317 126.0  32.6  34104  288.63 0855.26
2009/04/23 09:52:15.9     119    -95    146    153    211 128.6  48.7  34104  288.64 0855.26
2009/04/23 09:52:16.0     -85   -209    107    226    250 202.3  27.1  34108  288.68 0855.26
2009/04/23 09:52:16.1     -18   -146     60    148    159 187.1  23.4  34108  288.70 0855.26
2009/04/23 09:52:16.2     -45   -226     93    231    249 191.3  23.0  34108  288.68 0855.26
2009/04/23 09:52:16.3     -84   -254    -28    268    270 198.3  -6.0  34108  288.68 0855.26
2009/04/23 09:52:16.4      46   -350    -49    354    358 172.4  -8.0  34106  288.67 0855.26
2009/04/23 09:52:16.5      43   -371    100    374    388 173.3  15.0  34110  288.71 0855.26
2009/04/23 09:52:16.6      32   -230     99    233    253 172.0  24.2  34108  288.70 0855.26
2009/04/23 09:52:16.7     114   -163    149    200    249 145.0  40.6  34110  288.73 0855.26
2009/04/23 09:52:16.8     148    -94    103    176    203 122.6  33.4  34108  288.70 0855.26
2009/04/23 09:52:16.9      37    -86     57     94    109 156.8  34.4  34112  288.77 0855.23
2009/04/23 09:52:17.0      92    -75      1    119    120 129.1   0.8  34106  288.67 0855.23
2009/04/23 09:52:17.1      31   -119     58    123    135 165.3  27.1  34106  288.67 0855.23
2009/04/23 09:52:17.2      19   -133    102    135    169 171.5  40.9  34108  288.69 0855.23
2009/04/23 09:52:17.3     123   -119     82    172    190 134.2  27.3  34110  288.74 0855.23
2009/04/23 09:52:17.4     140   -117     10    183    184 129.8   3.3  34104  288.64 0855.23
2009/04/23 09:52:17.5     106   -193     82    221    235 151.3  21.0  34104  288.62 0855.23
2009/04/23 09:52:17.6     160   -325    102    363    378 153.7  15.7  34100  288.55 0855.23
2009/04/23 09:52:17.7      17   -288    190    289    345 176.5  36.3  34100  288.56 0855.23
2009/04/23 09:52:17.8     183   -303    153    354    385 148.9  25.0  34102  288.59 0855.23
2009/04/23 09:52:17.9      99   -331    192    346    395 163.4  31.5  34102  288.59 0855.23
2009/04/23 09:52:18.0     -18   -386    298    387    488 182.8  41.4  34100  288.55 0855.23
2009/04/23 09:52:18.1       8   -190    236    191    303 177.5  56.6  34102  288.59 0855.23
2009/04/23 09:52:18.2      29   -224    212    226    309 172.4  48.0  34108  288.70 0855.23
2009/04/23 09:52:18.3     191   -402    133    446    466 154.6  16.6  34116  288.82 0855.23
2009/04/23 09:52:18.4      83   -339    127    350    372 166.2  20.7  34110  288.71 0855.23
2009/04/23 09:52:18.5      29   -304    184    306    357 174.4  33.8  34102  288.59 0855.23
2009/04/23 09:52:18.6     -77   -286    171    297    342 195.1  32.6  34114  288.78 0855.23
2009/04/23 09:52:18.7     118   -261    105    287    305 155.7  21.0  34110  288.71 0855.23
2009/04/23 09:52:18.8     -23   -213     94    215    234 186.3  25.1  34104  288.64 0855.23
2009/04/23 09:52:18.9     -75    -76     47    107    116 224.7  25.1  34108  288.70 0855.23
2009/04/23 09:52:19.0    -156    -21    -48    158    165 262.1 -22.3  34104  288.64 0855.23
2009/04/23 09:52:19.1    -170     56    154    180    236 288.4  45.1  34112  288.77 0855.23
2009/04/23 09:52:19.2    -231     23     77    233    246 275.9  18.4  34102  288.58 0855.23
2009/04/23 09:52:19.3     -99     53     61    113    128 298.4  30.8  34108  288.70 0855.23
2009/04/23 09:52:19.4    -116     18    129    118    174 278.8  53.0  34118  288.87 0855.23
2009/04/23 09:52:19.5     -21    -84    176     87    196 194.3  71.9  34120  288.91 0855.23
2009/04/23 09:52:19.6     -83    -28    123     88    151 251.4  60.6  34114  288.80 0855.23
2009/04/23 09:52:19.7     -58    -91     85    109    138 212.6  41.7  34110  288.74 0855.23
2009/04/23 09:52:19.8      21    -21     83     30     88 135.0  80.2  34110  288.72 0855.23
2009/04/23 09:52:19.9       1    -73    126     74    146 179.0  66.8  34110  288.72 0855.23
2009/04/23 09:52:20.0       6   -131    147    132    197 177.3  53.5  34108  288.70 0855.23
2009/04/23 09:52:20.1     177    -86    126    197    233 116.0  35.6  34106  288.65 0855.23
2009/04/23 09:52:20.2      48   -137     68    146    161 160.4  26.6  34106  288.67 0855.23
2009/04/23 09:52:20.3     -13   -169      1    170    171 184.7   0.5  34108  288.69 0855.23
2009/04/23 09:52:20.4    -105   -275    -42    295    299 200.9  -8.3  34110  288.71 0855.23
2009/04/23 09:52:20.5      -8   -285      2    286    287 181.8   0.5  34108  288.70 0855.23
2009/04/23 09:52:20.6     -23   -266    -17    268    269 185.1  -3.7  34110  288.73 0855.23
2009/04/23 09:52:20.7      -3   -288     10    289    290 180.7   2.1  34108  288.70 0855.23
2009/04/23 09:52:20.8      22   -290    -86    291    304 175.6 -16.5  34110  288.71 0855.23
2009/04/23 09:52:20.9      68   -278    -22    287    288 166.2  -4.6  34106  288.65 0855.24
2009/04/23 09:52:21.0      58   -233     28    241    243 166.0   6.7  34104  288.63 0855.24
2009/04/23 09:52:21.1     177   -189     52    260    266 136.8  11.4  34104  288.61 0855.24
2009/04/23 09:52:21.2     267   -187     85    327    338 125.1  14.7  34100  288.55 0855.24
2009/04/23 09:52:21.3     240   -152    156    285    324 122.4  30.9  34102  288.59 0855.24
2009/04/23 09:52:21.4     146   -164     65    220    230 138.3  16.6  34100  288.57 0855.24
2009/04/23 09:52:21.5     106   -191    114    219    246 150.8  29.5  34100  288.56 0855.24
2009/04/23 09:52:21.6       4   -319     53    320    325 179.1   9.5  34100  288.56 0855.24
2009/04/23 09:52:21.7     -23   -306    120    307    329 184.4  22.3  34102  288.58 0855.24
2009/04/23 09:52:21.8     -25   -327     36    328    331 184.4   6.4  34098  288.52 0855.24
2009/04/23 09:52:21.9     -20   -280    -30    281    283 184.2  -6.2  34100  288.56 0855.24
2009/04/23 09:52:22.0       0   -265    -69    266    275 180.0 -14.7  34102  288.58 0855.24
2009/04/23 09:52:22.1    -265    -20   -104    266    285 265.7 -27.2  34100  288.56 0855.24
2009/04/23 09:52:22.2    -195    -59   -166    204    263 252.9 -47.9  34096  288.49 0855.24
2009/04/23 09:52:22.3      36   -222   -174    226    285 170.7 -46.1  34096  288.49 0855.24
2009/04/23 09:52:22.4     154   -180   -116    238    264 139.5 -32.2  34096  288.49 0855.24
2009/04/23 09:52:22.5     102   -186   -100    213    235 151.3 -31.4  34098  288.52 0855.24
2009/04/23 09:52:22.6      88   -106    -32    138    142 140.4 -13.4  34092  288.43 0855.24
2009/04/23 09:52:22.7     174   -122     78    213    226 125.1  21.0  34100  288.55 0855.24
2009/04/23 09:52:22.8      85   -187     97    206    227 155.5  27.1  34102  288.58 0855.24
2009/04/23 09:52:22.9      59   -318    128    324    348 169.4  22.8  34102  288.59 0855.21
2009/04/23 09:52:23.0     -26   -356     46    357    360 184.3   7.4  34106  288.66 0855.21
2009/04/23 09:52:23.1      40   -284    -98    287    304 171.9 -18.9  34104  288.61 0855.21
2009/04/23 09:52:23.2     -13   -288     11    289    290 182.7   2.3  34102  288.59 0855.21
2009/04/23 09:52:23.3     -11   -357     67    358    365 181.9  10.7  34104  288.62 0855.21
2009/04/23 09:52:23.4      40   -391    214    394    448 174.0  31.3  34098  288.51 0855.21
2009/04/23 09:52:23.5      44   -310    174    314    358 171.8  31.5  34108  288.69 0855.21
2009/04/23 09:52:23.6       7   -210    103    211    234 178.0  28.0  34108  288.69 0855.21
2009/04/23 09:52:23.7     -41   -240    109    244    267 189.8  25.7  34106  288.66 0855.21
2009/04/23 09:52:23.8     -45   -177      8    183    184 194.5   2.5  34094  288.47 0855.21
2009/04/23 09:52:23.9    -300   -159    -63    340    346 242.1 -10.5  34106  288.67 0855.21
2009/04/23 09:52:24.0    -246   -246    115    348    367 225.0  18.4  34104  288.64 0855.21
2009/04/23 09:52:24.1    -315   -199    136    373    397 237.7  20.9  34100  288.54 0855.21
2009/04/23 09:52:24.2    -332   -116    164    352    388 250.7  27.1  34104  288.62 0855.21
2009/04/23 09:52:24.3    -225   -116    201    254    323 242.7  42.4  34104  288.63 0855.21
2009/04/23 09:52:24.4    -240    -93    217    258    337 248.7  44.3  34104  288.63 0855.21
2009/04/23 09:52:24.5    -100   -129    136    164    213 217.6  43.8  34114  288.80 0855.21
2009/04/23 09:52:24.6      42   -110    198    118    230 159.1  66.7  34114  288.79 0855.21
2009/04/23 09:52:24.7      29    -59    172     66    184 153.7  78.2  34112  288.77 0855.21
2009/04/23 09:52:24.8      31   -152    178    156    236 168.4  54.3  34108  288.70 0855.21
2009/04/23 09:52:24.9      -4   -302    215    303    371 180.9  39.0  34104  288.64 0855.17
2009/04/23 09:52:25.0      16   -243    226    244    332 176.2  47.8  34106  288.65 0855.17
2009/04/23 09:52:25.1     107   -334    156    351    384 162.2  25.6  34102  288.60 0855.17
2009/04/23 09:52:25.2      75   -350     15    359    360 167.9   2.5  34102  288.60 0855.17
2009/04/23 09:52:25.3     113   -274    132    297    325 157.5  25.7  34104  288.63 0855.17
2009/04/23 09:52:25.4     105   -316    102    334    350 161.5  17.1  34104  288.64 0855.17
2009/04/23 09:52:25.5     154   -300    154    338    371 152.7  26.2  34104  288.64 0855.17
2009/04/23 09:52:25.6     120   -427    259    444    514 164.2  32.9  34100  288.54 0855.17
2009/04/23 09:52:25.8      85   -542    250    549    603 171.0  26.2  34106  288.66 0855.17
2009/04/23 09:52:25.9      28   -615    244    616    662 177.3  22.9  34104  288.62 0855.17
2009/04/23 09:52:25.9      79   -333     91    343    355 166.6  14.9  34106  288.66 0855.17
2009/04/23 09:52:26.0      67   -359    122    366    387 169.4  18.5  34104  288.62 0855.17
2009/04/23 09:52:26.1      81   -517     44    524    527 171.0   4.9  34108  288.70 0855.17
2009/04/23 09:52:26.2     149   -566     38    586    588 165.2   3.8  34102  288.59 0855.17
2009/04/23 09:52:26.3      88   -620    164    627    649 171.9  14.7  34096  288.50 0855.17
2009/04/23 09:52:26.4      -4   -547    282    548    616 180.5  29.3  34102  288.58 0855.17
2009/04/23 09:52:26.5    -182   -351    210    396    448 207.5  30.3  34102  288.58 0855.17
2009/04/23 09:52:26.6      -9   -579    218    580    619 180.9  21.6  34112  288.75 0855.17
2009/04/23 09:52:26.7     -94   -465    166    475    503 191.5  20.0  34104  288.64 0855.17
2009/04/23 09:52:26.8    -259   -661      4    710    711 201.4   0.4  34084  288.30 0855.17
2009/04/23 09:52:26.9    -398   -567     52    693    695 215.1   4.3  34102  288.58 0855.11
2009/04/23 09:52:27.0    -217   -441    -22    492    493 206.3  -2.6  34108  288.69 0855.11
2009/04/23 09:52:27.1    -244   -383     41    455    457 212.5   5.2  34106  288.67 0855.11
2009/04/23 09:52:27.2    -385   -242     86    455    464 237.9  10.7  34096  288.48 0855.11
2009/04/23 09:52:27.3    -280   -411    140    498    518 214.3  15.7  34110  288.71 0855.11
2009/04/23 09:52:27.4    -236   -437    230    497    547 208.4  26.5  34112  288.75 0855.11
2009/04/23 09:52:27.5     -96   -252    178    270    323 200.9  36.6  34100  288.56 0855.11
2009/04/23 09:52:27.6     -11   -456    291    457    541 181.5  35.6  34098  288.52 0855.11
2009/04/23 09:52:27.7      -8   -575    110    576    587 180.9  10.8  34108  288.70 0855.11
2009/04/23 09:52:27.8    -265   -527      3    590    591 206.7   0.3  34108  288.70 0855.11
2009/04/23 09:52:27.9    -218   -480     41    528    530 204.4   4.5  34108  288.69 0855.11
2009/04/23 09:52:28.0    -149   -468      1    492    493 197.7   0.2  34106  288.66 0855.11
2009/04/23 09:52:28.2     -23   -423    210    424    473 183.2  28.2  34106  288.67 0855.11
2009/04/23 09:52:28.3     -28   -461    233    462    517 183.5  28.7  34104  288.62 0855.11
2009/04/23 09:52:28.3     160   -421    120    451    467 159.1  14.9  34102  288.58 0855.11
2009/04/23 09:52:28.4     268   -534    162    598    620 153.3  15.2  34110  288.73 0855.11
2009/04/23 09:52:28.5     217   -482    329    529    622 155.7  34.9  34096  288.48 0855.11
2009/04/23 09:52:28.6     337   -357     57    492    496 136.7   6.7  34108  288.68 0855.11
2009/04/23 09:52:28.7     299   -261     20    398    399 131.1   2.9  34106  288.66 0855.11
2009/04/23 09:52:28.8     255   -229    181    343    387 131.9  30.1  34104  288.62 0855.11
2009/04/23 09:52:28.9     164   -295    236    338    412 150.8  38.5  34108  288.69 0855.14
2009/04/23 09:52:29.0     279   -196    164    341    378 125.1  27.3  34112  288.76 0855.14
2009/04/23 09:52:29.1     265   -221    149    346    376 129.9  24.8  34114  288.79 0855.14
2009/04/23 09:52:29.2     207   -321    246    383    455 147.2  35.6  34102  288.60 0855.14
2009/04/23 09:52:29.3     304   -302    180    429    465 134.8  24.1  34102  288.58 0855.14
2009/04/23 09:52:29.5     304   -455    311    548    630 146.2  32.1  34094  288.46 0855.14
2009/04/23 09:52:29.5     213   -431    278    481    555 153.7  32.7  34098  288.52 0855.14
2009/04/23 09:52:29.6     248   -498    120    557    570 153.5  12.2  34104  288.63 0855.14
2009/04/23 09:52:29.7     329   -405     35    523    525 140.9   3.9  34098  288.52 0855.14
2009/04/23 09:52:29.8     337   -350     29    487    488 136.1   3.5  34102  288.59 0855.14
2009/04/23 09:52:29.9     255   -401     -7    476    477 147.5  -0.9  34094  288.47 0855.14
2009/04/23 09:52:30.0     139   -403     60    427    432 160.9   8.1  34102  288.58 0855.14
2009/04/23 09:52:30.1     140   -458     25    480    481 163.0   3.0  34104  288.64 0855.14
2009/04/23 09:52:30.2     192   -449    -76    489    496 156.8  -8.9  34100  288.57 0855.14
2009/04/23 09:52:30.3     302   -476    -86    564    571 147.6  -8.7  34096  288.49 0855.14
2009/04/23 09:52:30.4     231   -382    -71    447    453 148.9  -9.1  34092  288.43 0855.14
2009/04/23 09:52:30.5     247   -301     10    390    391 140.6   1.6  34098  288.52 0855.14
2009/04/23 09:52:30.6     160   -159      3    226    227 134.8   1.0  34092  288.42 0855.14
2009/04/23 09:52:30.7       7    -92    -45     93    103 175.5 -31.7  34106  288.65 0855.14
2009/04/23 09:52:30.8       0    -88     17     89     91 180.5  11.1  34104  288.64 0855.14
2009/04/23 09:52:30.9      -6   -109    -14    110    111 183.6  -7.3  34104  288.64 0855.18
2009/04/23 09:52:31.0      52   -256    -20    262    263 168.4  -4.4  34102  288.59 0855.18
2009/04/23 09:52:31.1      20   -152    -54    154    164 172.4 -19.4  34096  288.50 0855.18
2009/04/23 09:52:31.2     -40   -192   -102    197    221 192.0 -33.7  34102  288.60 0855.18
2009/04/23 09:52:31.3      35   -170    -73    174    188 168.2 -28.2  34100  288.57 0855.18
2009/04/23 09:52:31.4    -117   -184   -154    219    267 212.5 -43.0  34102  288.59 0855.18
2009/04/23 09:52:31.5    -297    -76   -195    307    363 255.6 -39.9  34116  288.84 0855.18
2009/04/23 09:52:31.6    -140     -8   -213    141    255 266.5 -68.0  34092  288.43 0855.18
2009/04/23 09:52:31.7    -215      7   -134    216    254 272.1 -39.4  34110  288.71 0855.18
2009/04/23 09:52:31.8    -311     -6   -206    312    373 268.7 -41.0  34124  288.96 0855.18
2009/04/23 09:52:31.9    -394    -65    -28    400    401 260.5  -4.1  34110  288.74 0855.18
2009/04/23 09:52:32.0    -292    -97     34    308    310 251.6   6.5  34112  288.76 0855.18
2009/04/23 09:52:32.1    -219    -36   -106    223    246 260.5 -31.6  34122  288.92 0855.18
2009/04/23 09:52:32.2    -269   -120   -212    295    363 245.8 -43.7  34088  288.35 0855.18
2009/04/23 09:52:32.3    -195    166   -206    257    329 310.4 -47.3  34096  288.49 0855.18
2009/04/23 09:52:32.4    -280    143     39    315    318 297.1   7.2  34106  288.65 0855.18
2009/04/23 09:52:32.5    -140     95    -12    170    171 304.2  -4.1  34104  288.62 0855.18
2009/04/23 09:52:32.6    -148     48     54    156    166 288.2  19.2  34108  288.70 0855.18
2009/04/23 09:52:32.7    -124    146    105    192    218 319.7  31.3  34108  288.70 0855.18
2009/04/23 09:52:32.8     -95     60     89    113    143 302.4  42.2  34102  288.58 0855.18
2009/04/23 09:52:32.9    -156    -55     38    166    171 250.5  12.9  34098  288.53 0855.22
2009/04/23 09:52:33.0    -260   -109     39    283    286 247.2   8.0  34098  288.53 0855.22
2009/04/23 09:52:33.1    -260   -142    101    297    314 241.4  18.8  34102  288.58 0855.22
2009/04/23 09:52:33.2    -350     36    145    352    380 276.0  23.5  34096  288.49 0855.22
2009/04/23 09:52:33.3    -355     19     98    356    370 273.2  15.4  34090  288.38 0855.22
2009/04/23 09:52:33.4    -139    118     87    183    202 310.4  27.2  34092  288.42 0855.22
2009/04/23 09:52:33.5    -282    134    210    313    376 295.4  37.2  34094  288.47 0855.22
2009/04/23 09:52:33.6    -410    -76    170    418    451 259.4  23.2  34102  288.58 0855.22
2009/04/23 09:52:33.7    -262    172    317    314    446 303.3  50.2  34104  288.63 0855.22
2009/04/23 09:52:33.8    -464    -65    125    469    486 262.0  15.0  34106  288.66 0855.22
2009/04/23 09:52:33.9    -469    -45    -14    472    473 264.4  -1.8  34108  288.68 0855.22
2009/04/23 09:52:34.0    -496    -20     70    497    503 267.6   8.0  34106  288.66 0855.22
2009/04/23 09:52:34.1    -311    131    188    338    386 293.0  31.4  34102  288.59 0855.22
2009/04/23 09:52:34.2    -371    -84    150    381    409 257.2  22.5  34098  288.52 0855.22
2009/04/23 09:52:34.3    -256   -230    146    345    374 228.1  24.3  34100  288.57 0855.22
2009/04/23 09:52:34.4    -367   -110     78    384    393 253.2  11.6  34098  288.52 0855.22
2009/04/23 09:52:34.5    -354    -17    -65    355    362 267.2 -10.5  34104  288.64 0855.22
2009/04/23 09:52:34.6    -335    -35    -13    337    338 264.0  -2.2  34100  288.55 0855.22
2009/04/23 09:52:34.7    -302   -197   -100    361    375 236.8 -15.5  34098  288.52 0855.22
2009/04/23 09:52:34.8    -147    -33   -181    151    235 257.2 -60.2  34106  288.67 0855.22
2009/04/23 09:52:34.9    -210   -139   -149    253    293 236.5 -37.8  34110  288.73 0855.23
2009/04/23 09:52:35.0    -387   -106   -131    402    422 254.7 -23.3  34118  288.85 0855.23
2009/04/23 09:52:35.1    -297   -152   -109    334    352 242.9 -18.1  34110  288.74 0855.23
2009/04/23 09:52:35.2    -352    -40   -107    355    370 263.4 -21.7  34100  288.57 0855.23
2009/04/23 09:52:35.3    -238   -184   -119    301    323 232.3 -27.2  34098  288.53 0855.23
2009/04/23 09:52:35.4    -240   -281   -121    370    390 220.5 -18.1  34098  288.52 0855.23
2009/04/23 09:52:35.5    -178   -253    116    310    330 215.2  21.4  34104  288.63 0855.23
2009/04/23 09:52:35.6    -443   -375    225    581    623 229.7  22.3  34108  288.70 0855.23
2009/04/23 09:52:35.7    -339   -368     93    501    510 222.7  10.6  34124  288.96 0855.23
2009/04/23 09:52:35.8    -384   -311    120    495    510 231.0  13.7  34126  289.01 0855.23
2009/04/23 09:52:35.9    -485   -105    -13    497    498 257.7  -1.6  34114  288.78 0855.24
2009/04/23 09:52:36.0    -592   -120      3    604    605 258.5   0.3  34104  288.63 0855.24
2009/04/23 09:52:36.1    -409     25      0    410    411 273.5   0.1  34108  288.70 0855.24
2009/04/23 09:52:36.2    -337   -217    -13    402    403 237.2  -1.9  34102  288.59 0855.24
2009/04/23 09:52:36.3    -400   -263    178    479    511 236.7  21.4  34098  288.52 0855.24
2009/04/23 09:52:36.4    -295   -242    -11    382    383 230.7  -1.7  34100  288.57 0855.24
2009/04/23 09:52:36.6    -326   -115    106    346    362 250.5  17.1  34106  288.67 0855.24
2009/04/23 09:52:36.6    -241   -314     10    397    398 217.5   1.5  34106  288.67 0855.24
2009/04/23 09:52:36.7    -173   -271     44    322    326 212.6   7.9  34104  288.63 0855.24
2009/04/23 09:52:36.9     -39   -330    137    333    360 186.8  23.6  34094  288.44 0855.24
2009/04/23 09:52:36.9     -68   -369    138    376    400 190.5  21.0  34092  288.42 0855.24
2009/04/23 09:52:37.0     -87   -371     58    382    387 193.2   8.7  34094  288.44 0855.24
2009/04/23 09:52:37.2     -82   -223     -9    238    239 200.3  -2.2  34094  288.46 0855.24
2009/04/23 09:52:37.3     -44   -322    125    325    348 187.8  22.2  34094  288.44 0855.24
2009/04/23 09:52:37.4    -259   -310    -58    405    410 219.9  -8.2  34104  288.63 0855.24
2009/04/23 09:52:37.5    -530   -433   -100    685    693 230.8  -8.4  34100  288.55 0855.24
2009/04/23 09:52:37.6    -290   -267    180    395    434 227.4  26.2  34096  288.48 0855.24
2009/04/23 09:52:37.7    -211    -78    118    226    254 249.6  29.8  34096  288.49 0855.24
2009/04/23 09:52:37.8    -206   -217    137    300    329 223.4  26.3  34100  288.54 0855.24
2009/04/23 09:52:37.9    -171   -252    134    305    333 214.2  25.2  34094  288.46 0855.24
2009/04/23 09:52:38.0    -155   -269    108    311    330 209.9  19.2  34096  288.48 0855.26
2009/04/23 09:52:38.1    -160   -194     53    252    258 219.6  12.0  34096  288.49 0855.26
2009/04/23 09:52:38.2    -121   -201    120    235    263 211.2  29.1  34094  288.46 0855.26
2009/04/23 09:52:38.3    -200   -196    173    281    329 225.6  34.8  34096  288.49 0855.26
2009/04/23 09:52:38.4    -290   -184    180    344    388 237.6  29.8  34102  288.59 0855.26
2009/04/23 09:52:38.5    -333    -75     86    342    353 257.2  14.2  34106  288.67 0855.26
2009/04/23 09:52:38.6    -274   -257    157    376    407 226.8  24.1  34102  288.59 0855.26
2009/04/23 09:52:38.7    -334   -224     70    403    410 236.1   9.9  34104  288.61 0855.26
2009/04/23 09:52:38.8    -324   -193    -12    378    379 239.3  -1.9  34104  288.64 0855.26
2009/04/23 09:52:38.9    -313   -216     21    381    382 235.4   3.3  34104  288.62 0855.26
2009/04/23 09:52:39.0    -331   -150    -79    364    373 245.5 -12.3  34106  288.66 0855.26
2009/04/23 09:52:39.1    -110   -289    200    310    368 200.9  35.6  34100  288.55 0855.26
2009/04/23 09:52:39.2     -98   -337    170    352    390 196.3  27.8  34100  288.54 0855.26
2009/04/23 09:52:39.3     -31   -340    158    342    376 185.4  26.6  34096  288.49 0855.26
2009/04/23 09:52:39.4     -59   -290    129    297    323 191.6  25.1  34096  288.48 0855.26
2009/04/23 09:52:39.5     -40   -293    115    296    317 187.8  22.3  34104  288.63 0855.26
2009/04/23 09:52:39.6      24   -335    127    336    359 175.9  21.6  34106  288.67 0855.26
2009/04/23 09:52:39.7      44   -314    139    318    347 172.0  25.1  34100  288.57 0855.26
2009/04/23 09:52:39.8     -72   -229    101    241    261 197.4  24.1  34102  288.59 0855.26
2009/04/23 09:52:39.9      -4   -196     27    197    199 181.4   8.0  34106  288.67 0855.26
2009/04/23 09:52:40.0      18   -316    150    317    350 176.6  27.1  34102  288.60 0855.29
2009/04/23 09:52:40.1     -67   -282    142    290    322 193.4  28.0  34104  288.63 0855.29
2009/04/23 09:52:40.2     -62   -231     70    240    251 195.1  16.3  34106  288.65 0855.29
2009/04/23 09:52:40.3      25   -192     23    194    196 172.4   6.9  34100  288.57 0855.29
2009/04/23 09:52:40.4     133   -208     -4    248    249 147.4  -1.1  34100  288.56 0855.29
2009/04/23 09:52:40.5     -12   -192     47    193    199 183.6  13.9  34100  288.55 0855.29
2009/04/23 09:52:40.6       0   -262      9    263    264 180.0   2.1  34100  288.56 0855.29
2009/04/23 09:52:40.7     -75   -312     58    321    327 193.5  10.3  34110  288.71 0855.29
2009/04/23 09:52:40.8    -155   -283     70    323    331 208.8  12.3  34108  288.70 0855.29
2009/04/23 09:52:40.9     -38   -322     92    325    338 186.9  15.8  34104  288.64 0855.29
2009/04/23 09:52:41.0     -64   -269     40    277    280 193.4   8.2  34104  288.61 0855.29
2009/04/23 09:52:41.1    -131   -250     22    283    284 207.6   4.6  34102  288.59 0855.29
2009/04/23 09:52:41.2     -92   -228     62    247    255 202.1  14.3  34102  288.59 0855.29
2009/04/23 09:52:41.3     -67   -212     92    223    241 197.6  23.6  34104  288.61 0855.29
2009/04/23 09:52:41.4     -31   -252     87    254    269 187.1  18.9  34108  288.70 0855.29
2009/04/23 09:52:41.5     -57   -297    108    303    321 190.9  20.2  34110  288.71 0855.29
2009/04/23 09:52:41.6     -37   -307    200    310    368 186.9  35.6  34102  288.59 0855.29
2009/04/23 09:52:41.7     -12   -313    133    314    341 182.2  24.2  34100  288.57 0855.29
2009/04/23 09:52:41.8       8   -333    142    334    362 178.5  24.5  34102  288.59 0855.29
2009/04/23 09:52:41.9     -12   -281    185    282    337 182.6  36.4  34108  288.68 0855.29
2009/04/23 09:52:42.0     -29   -306     92    308    322 185.6  16.6  34110  288.71 0855.28
2009/04/23 09:52:42.1     -10   -221    169    222    279 182.7  41.2  34104  288.63 0855.28
2009/04/23 09:52:42.2     -14   -217    170    218    276 183.8  41.7  34094  288.44 0855.28
2009/04/23 09:52:42.3      54   -183    194    191    272 163.5  50.2  34104  288.61 0855.28
2009/04/23 09:52:42.4      61   -225    190    234    301 164.9  43.5  34104  288.63 0855.28
2009/04/23 09:52:42.5     122   -192    103    228    250 147.4  26.2  34102  288.58 0855.28
2009/04/23 09:52:42.6      30   -196    107    199    225 171.1  30.6  34100  288.57 0855.28
2009/04/23 09:52:42.7      78   -148    125    168    209 152.1  40.4  34104  288.62 0855.28
2009/04/23 09:52:42.8      94    -36     79    101    128 111.3  42.2  34108  288.69 0855.28
2009/04/23 09:52:42.9     132     52     29    143    147  68.3  11.6  34102  288.60 0855.28
2009/04/23 09:52:43.0      62     12     68     64     93  78.5  51.2  34104  288.64 0855.28
2009/04/23 09:52:43.1     -94    -88    -23    129    132 226.9 -10.3  34104  288.64 0855.28
2009/04/23 09:52:43.2    -147   -138     47    202    208 226.9  13.2  34104  288.64 0855.28
2009/04/23 09:52:43.3    -122   -142    -67    188    200 220.5 -19.6  34104  288.64 0855.28
2009/04/23 09:52:43.4    -109   -104     18    151    153 226.4   7.1  34110  288.72 0855.28
2009/04/23 09:52:43.5     -45    -58     85     74    112 217.8  54.8  34110  288.74 0855.28
2009/04/23 09:52:43.6     -55      2    109     56    122 272.6  70.8  34120  288.89 0855.28
2009/04/23 09:52:43.7     -36    -75    121     84    147 205.9  61.5  34116  288.82 0855.28
2009/04/23 09:52:43.8    -149   -148    110    211    237 225.1  29.8  34104  288.64 0855.28
2009/04/23 09:52:43.9     -37   -189    107    193    220 191.3  31.4  34104  288.64 0855.28
2009/04/23 09:52:44.0       5   -218    189    219    289 178.6  45.4  34106  288.66 0855.28
2009/04/23 09:52:44.1     -34   -244    175    247    302 188.1  38.8  34106  288.66 0855.28
2009/04/23 09:52:44.2    -104   -236    139    259    293 203.8  30.6  34108  288.68 0855.28
2009/04/23 09:52:44.3    -164   -195    146    255    293 220.1  32.4  34108  288.70 0855.28
2009/04/23 09:52:44.4    -211   -231    178    314    360 222.4  32.1  34110  288.71 0855.28
2009/04/23 09:52:44.5    -355   -138     74    381    389 248.7  11.0  34116  288.81 0855.28
2009/04/23 09:52:44.6    -245   -122     18    274    275 243.4   3.9  34116  288.81 0855.28
2009/04/23 09:52:44.7    -215   -248    141    329    357 221.0  24.6  34106  288.67 0855.28
2009/04/23 09:52:44.8    -231   -192    103    301    319 230.4  18.9  34110  288.73 0855.28
2009/04/23 09:52:44.9    -180    -10    146    181    232 266.7  43.3  34112  288.75 0855.28
2009/04/23 09:52:45.0    -189    -92    160    211    264 244.0  40.9  34112  288.75 0855.28
2009/04/23 09:52:45.1    -165   -121     18    205    206 233.6   5.2  34124  288.96 0855.28
2009/04/23 09:52:45.2    -271   -197    -22    336    337 234.0  -3.8  34124  288.96 0855.28
2009/04/23 09:52:45.3    -185   -206    -35    277    280 221.9  -7.3  34114  288.78 0855.28
2009/04/23 09:52:45.4    -180   -146    -60    232    240 230.9 -14.7  34126  288.98 0855.28
2009/04/23 09:52:45.5    -299    -13    -95    300    315 267.5 -17.7  34124  288.97 0855.28
2009/04/23 09:52:45.6     -89     88     93    126    156 314.8  40.4  34124  288.96 0855.28
2009/04/23 09:52:45.7     -36   -152    118    157    196 193.4  40.9  34134  289.14 0855.28
2009/04/23 09:52:45.8     -64   -268     54    276    282 193.4  11.1  34130  289.05 0855.28
2009/04/23 09:52:45.9    -170   -313     37    357    359 208.6   6.0  34132  289.10 0855.28
2009/04/23 09:52:46.0     -80   -244    -42    257    261 198.3  -9.4  34110  288.73 0855.26
2009/04/23 09:52:46.1    -138   -259     -1    294    295 208.1  -0.3  34122  288.93 0855.26
2009/04/23 09:52:46.2    -292    -41    121    295    318 262.0  23.6  34112  288.76 0855.26
2009/04/23 09:52:46.3    -219     42     -4    224    225 281.0  -1.2  34112  288.77 0855.26
2009/04/23 09:52:46.4      29    -20     -1     36     37 124.2  -2.2  34106  288.67 0855.26
2009/04/23 09:52:46.5    -120   -145     93    189    210 219.7  28.0  34112  288.75 0855.26
2009/04/23 09:52:46.6    -135    -86     -6    161    162 237.5  -2.2  34112  288.75 0855.26
2009/04/23 09:52:46.7    -121   -107    -48    162    168 228.6 -21.5  34114  288.79 0855.26
2009/04/23 09:52:46.8     -16   -106     29    108    112 188.9  15.2  34114  288.79 0855.26
2009/04/23 09:52:46.9     103   -237    139    259    293 156.4  30.6  34112  288.75 0855.26
2009/04/23 09:52:47.0     178   -307    136    355    380 149.9  21.8  34110  288.71 0855.26
2009/04/23 09:52:47.1     206   -285     68    352    359 144.2  11.0  34112  288.77 0855.26
2009/04/23 09:52:47.2     250   -256     46    358    361 135.7   7.4  34108  288.69 0855.26
2009/04/23 09:52:47.3     265   -253     37    367    369 133.7   5.8  34110  288.72 0855.26
2009/04/23 09:52:47.4     257   -294     52    391    395 138.8   7.6  34110  288.71 0855.26
2009/04/23 09:52:47.5     280   -293    133    406    428 136.3  18.2  34104  288.63 0855.26
2009/04/23 09:52:47.6     349   -262    137    437    459 126.9  17.4  34110  288.72 0855.26
2009/04/23 09:52:47.7     292   -216     74    364    372 126.5  11.6  34110  288.71 0855.26
2009/04/23 09:52:47.8     258   -198      6    326    327 127.5   1.1  34106  288.66 0855.26
2009/04/23 09:52:47.9     234   -268    -31    357    359 138.9  -5.1  34110  288.71 0855.26
2009/04/23 09:52:48.0     251   -369    -12    447    448 145.7  -1.6  34106  288.67 0855.26
2009/04/23 09:52:48.1     162   -296    -20    338    339 151.3  -3.5  34110  288.72 0855.26
2009/04/23 09:52:48.2      83   -191     79    209    223 156.4  21.5  34108  288.69 0855.26
2009/04/23 09:52:48.3     129   -283    191    312    365 155.5  34.4  34110  288.71 0855.26
2009/04/23 09:52:48.4     166   -362    147    399    425 155.4  21.0  34110  288.72 0855.26
2009/04/23 09:52:48.5     169   -320    108    363    379 152.1  16.7  34110  288.72 0855.26
2009/04/23 09:52:48.6     112   -272     96    295    311 157.5  18.1  34112  288.75 0855.26
2009/04/23 09:52:48.7      91   -263    141    279    312 160.9  28.9  34110  288.73 0855.26
2009/04/23 09:52:48.8      69   -338    116    346    366 168.4  18.6  34108  288.69 0855.26
2009/04/23 09:52:48.9      -3   -321    133    322    348 180.6  23.6  34108  288.69 0855.26
2009/04/23 09:52:49.0     104   -272    -14    292    293 159.1  -2.8  34106  288.66 0855.26
2009/04/23 09:52:49.1      89   -299    104    313    330 163.3  18.4  34108  288.68 0855.26
2009/04/23 09:52:49.2      75   -327     94    336    350 167.0  15.7  34110  288.71 0855.26
2009/04/23 09:52:49.3      92   -348    209    361    417 165.1  32.7  34110  288.74 0855.26
2009/04/23 09:52:49.4      15   -340    171    341    381 177.4  28.6  34106  288.67 0855.26
2009/04/23 09:52:49.5     -55   -320    171    325    367 189.8  30.0  34116  288.82 0855.26
2009/04/23 09:52:49.6     -47   -207     59    213    222 192.9  15.6  34112  288.75 0855.26
2009/04/23 09:52:49.7    -234   -209    -20    315    316 228.2  -3.7  34118  288.87 0855.26
2009/04/23 09:52:49.8    -145   -213     55    258    264 214.3  12.2  34118  288.87 0855.26
2009/04/23 09:52:49.9    -101   -280    103    298    316 200.0  19.2  34118  288.87 0855.26
2009/04/23 09:52:50.0     -40   -288    183    291    343 188.0  35.3  34116  288.81 0855.27
2009/04/23 09:52:50.1     -71   -349    199    357    408 191.6  31.7  34110  288.74 0855.27
2009/04/23 09:52:50.2     -24   -233    171    235    290 186.0  39.7  34108  288.70 0855.27
2009/04/23 09:52:50.3      88   -201    206    220    301 156.3  48.0  34112  288.76 0855.27
2009/04/23 09:52:50.4      43    -92    163    102    192 155.1  64.7  34120  288.89 0855.27
2009/04/23 09:52:50.5      40    -33     92     52    105 129.6  68.3  34120  288.91 0855.27
2009/04/23 09:52:50.6     121    -54     73    133    151 114.4  31.3  34114  288.80 0855.27
2009/04/23 09:52:50.7      38   -160    129    165    209 166.6  42.0  34112  288.75 0855.27
2009/04/23 09:52:50.8     -67   -216     39    227    231 197.2   9.9  34110  288.74 0855.27
2009/04/23 09:52:50.9     -93   -291     20    306    307 197.8   3.9  34112  288.75 0855.27
2009/04/23 09:52:51.0    -117   -227    -91    256    271 207.4 -24.4  34110  288.71 0855.27
2009/04/23 09:52:51.1     -68   -190    -17    202    203 199.8  -5.1  34104  288.64 0855.27
2009/04/23 09:52:51.2     -73   -293    106    302    320 194.0  20.1  34116  288.83 0855.27
2009/04/23 09:52:51.3    -112   -256    177    280    331 203.6  35.5  34110  288.73 0855.27
2009/04/23 09:52:51.4     -90   -235     97    252    270 201.0  22.0  34120  288.90 0855.27
2009/04/23 09:52:51.5    -139   -168     10    219    220 219.7   2.8  34116  288.84 0855.27
2009/04/23 09:52:51.6    -110   -110     58    156    166 224.9  21.5  34116  288.84 0855.27
2009/04/23 09:52:51.7     -59    -81     60    101    117 216.1  34.0  34120  288.89 0855.27
2009/04/23 09:52:51.8     -23    -82     72     86    112 196.0  43.8  34122  288.92 0855.27
2009/04/23 09:52:51.9      16    -47     29     50     57 161.3  33.5  34122  288.92 0855.27
2009/04/23 09:52:52.0     -30     -6      1     31     32 258.5   2.8  34122  288.92 0855.26
2009/04/23 09:52:52.1     -38     46     -2     61     62 320.3  -2.2  34116  288.82 0855.26
2009/04/23 09:52:52.2     -60     81     49    102    113 323.5  27.2  34116  288.84 0855.26
2009/04/23 09:52:52.3     -63     99     74    118    139 327.5  35.5  34114  288.80 0855.26
2009/04/23 09:52:52.4    -109    114    -24    158    160 316.3  -8.8  34112  288.77 0855.26
2009/04/23 09:52:52.5    -112    112    -18    159    161 314.9  -6.5  34114  288.79 0855.26
2009/04/23 09:52:52.6    -122     77     16    145    146 302.5   6.5  34114  288.79 0855.26
2009/04/23 09:52:52.7    -108     52    -33    120    125 295.8 -15.5  34118  288.87 0855.26
2009/04/23 09:52:52.8     -71     55    -14     90     92 307.8  -9.3  34116  288.82 0855.26
2009/04/23 09:52:52.9     -79     18     25     82     86 282.8  17.3  34118  288.86 0855.26
2009/04/23 09:52:53.0     -50     13     57     52     77 285.1  52.2  34120  288.89 0855.26
2009/04/23 09:52:53.1     -68      8     23     69     73 277.0  18.9  34120  288.89 0855.26
2009/04/23 09:52:53.2     -58     15     16     61     64 285.0  15.2  34120  288.91 0855.26
2009/04/23 09:52:53.3     -10     10      8     15     17 315.0  31.4  34124  288.97 0855.26
2009/04/23 09:52:53.4       0     -3     10      4     10 184.5  77.1  34126  288.99 0855.26
2009/04/23 09:52:53.5      17    -22      9     28     30 142.2  18.9  34126  288.99 0855.26
2009/04/23 09:52:53.6       9    -82     15     83     85 173.3  10.6  34124  288.96 0855.26
2009/04/23 09:52:53.7      -8   -114    -65    115    132 184.5 -36.3  34124  288.97 0855.26
2009/04/23 09:52:53.8      56   -148     33    159    163 159.1  12.0  34120  288.91 0855.26
2009/04/23 09:52:53.9      16   -126     44    128    136 172.4  18.9  34120  288.91 0855.26
2009/04/23 09:52:54.0     -27   -116     91    120    150 193.4  41.2  34118  288.87 0855.26
2009/04/23 09:52:54.1     -13   -119     74    120    140 186.7  35.0  34118  288.87 0855.26
2009/04/23 09:52:54.2     -20    -99     88    102    134 191.6  45.4  34126  288.99 0855.26
2009/04/23 09:52:54.3     -68   -130     86    147    170 207.6  33.1  34120  288.89 0855.26
2009/04/23 09:52:54.4       6   -177     66    178    189 178.0  21.0  34110  288.74 0855.26
2009/04/23 09:52:54.5      12   -156    118    157    196 175.5  40.9  34118  288.86 0855.26
2009/04/23 09:52:54.6      55    -80    160     98    187 145.3  65.4  34126  288.99 0855.26
2009/04/23 09:52:54.7      54      4    135     55    145  85.7  77.0  34128  289.04 0855.26
2009/04/23 09:52:54.8      65   -111    194    129    232 149.7  63.6  34116  288.84 0855.26
2009/04/23 09:52:54.9     -12    -62    154     64    166 191.6  76.1  34122  288.94 0855.26
2009/04/23 09:52:55.0     194    -73    230    208    310 110.8  53.3  34120  288.90 0855.26
2009/04/23 09:52:55.1     156   -121    216    198    293 128.0  52.5  34120  288.88 0855.26
2009/04/23 09:52:55.2     131   -117    155    176    234 131.8  45.8  34116  288.84 0855.26
2009/04/23 09:52:55.3      66   -145     38    160    165 155.5  13.5  34116  288.82 0855.26
2009/04/23 09:52:55.4     -36   -109     10    115    116 198.3   5.0  34112  288.75 0855.26
2009/04/23 09:52:55.5     -60    -96    -14    114    115 212.1  -7.2  34116  288.84 0855.26
2009/04/23 09:52:55.6     -34    -65     48     74     88 208.1  36.0  34112  288.77 0855.26
2009/04/23 09:52:55.7      27   -114     94    118    150 166.6  43.3  34120  288.89 0855.26
2009/04/23 09:52:55.8       2   -133    105    134    170 179.1  42.2  34116  288.84 0855.26
2009/04/23 09:52:55.9      37    -83    115     91    146 155.9  56.9  34118  288.86 0855.26
2009/04/23 09:52:56.0     135     41    120    142    185  73.2  44.3  34122  288.94 0855.25
2009/04/23 09:52:56.1      97    -17     94     99    136 100.1  49.0  34120  288.89 0855.25
2009/04/23 09:52:56.2      -6     -2    101      7    101 251.8  90.0  34130  289.06 0855.25
2009/04/23 09:52:56.3      83     78    151    115    189  46.9  59.0  34128  289.04 0855.25
2009/04/23 09:52:56.4      55     26    110     61    125  64.7  68.8  34122  288.94 0855.25
2009/04/23 09:52:56.5      15      9    103     18    104  57.5  90.0  34134  289.14 0855.25
2009/04/23 09:52:56.6     -52     17    106     55    119 288.6  70.8  34134  289.13 0855.25
2009/04/23 09:52:56.7     -50     10     81     52     96 281.5  64.6  34130  289.08 0855.25
2009/04/23 09:52:56.8     -62      0     89     63    109 270.8  61.1  34134  289.13 0855.25
2009/04/23 09:52:56.9    -144     11     29    145    149 274.4  11.6  34122  288.94 0855.25
2009/04/23 09:52:57.0    -177     13    100    178    204 274.3  31.9  34126  288.99 0855.24
2009/04/23 09:52:57.1    -196    -62     73    206    219 252.5  19.6  34126  288.99 0855.24
2009/04/23 09:52:57.2    -127    -57     16    140    142 245.6   6.9  34128  289.02 0855.24
2009/04/23 09:52:57.3     -53    -90     32    105    110 210.7  17.3  34124  288.96 0855.24
2009/04/23 09:52:57.4     -29    -88     62     93    111 198.3  36.5  34124  288.96 0855.24
2009/04/23 09:52:57.5       2    -31    133     32    136 175.5  86.9  34142  289.26 0855.24
2009/04/23 09:52:57.6      13    -28    151     32    154 154.5  89.0  34134  289.14 0855.24
2009/04/23 09:52:57.7      -1     15     99     16    100 355.5  90.0  34130  289.06 0855.24
2009/04/23 09:52:57.8      32   -156     98    160    187 168.4  34.8  34120  288.91 0855.24
2009/04/23 09:52:57.9      24   -168     65    170    182 171.8  22.0  34122  288.94 0855.24
2009/04/23 09:52:58.0      -3   -131     90    132    159 181.4  37.8  34126  289.01 0855.24
2009/04/23 09:52:58.1     -57   -106     57    121    133 208.1  27.2  34118  288.87 0855.24
2009/04/23 09:52:58.2     -52   -131     40    142    148 201.8  15.8  34126  288.99 0855.24
2009/04/23 09:52:58.3     -31    -95     76    101    126 198.3  40.7  34130  289.08 0855.24
2009/04/23 09:52:58.4     -19    -85     89     88    125 192.9  50.1  34130  289.06 0855.24
2009/04/23 09:52:58.5     -16   -110    149    112    186 188.5  59.2  34128  289.02 0855.24
2009/04/23 09:52:58.6     -73   -203    175    216    277 199.8  43.3  34122  288.92 0855.24
2009/04/23 09:52:58.7    -218   -152     26    266    268 235.1   5.7  34136  289.15 0855.24
2009/04/23 09:52:58.8    -235   -124     52    266    272 242.1  11.1  34142  289.27 0855.24
2009/04/23 09:52:58.9    -166   -155     27    228    230 226.9   6.9  34122  288.94 0855.24
2009/04/23 09:52:59.0    -245    -33     18    248    249 262.3   4.2  34138  289.20 0855.26
2009/04/23 09:52:59.1    -279    -92     23    294    295 251.6   4.6  34128  289.02 0855.26
2009/04/23 09:52:59.2    -320    -76      1    329    330 256.6   0.2  34122  288.93 0855.26
2009/04/23 09:52:59.3    -274    -38     28    277    279 262.1   5.9  34120  288.88 0855.26
2009/04/23 09:52:59.4    -279    -60     -6    286    287 257.8  -1.3  34118  288.87 0855.26
2009/04/23 09:52:59.5    -194    -27    -56    196    204 261.9 -16.0  34118  288.86 0855.26
2009/04/23 09:52:59.6    -144     47    -19    152    154 288.2  -7.3  34120  288.91 0855.26
2009/04/23 09:52:59.7    -143     61    -33    156    160 293.1 -12.2  34120  288.89 0855.26
2009/04/23 09:52:59.8     -99    113     28    151    154 319.0  10.8  34122  288.92 0855.26
2009/04/23 09:52:59.9    -108    137     50    175    183 321.7  16.0  34130  289.08 0855.26
2009/04/23 09:53:00.0    -225    168     39    282    285 306.8   8.0  34144  289.31 0855.26
2009/04/23 09:53:00.1    -252    118     41    279    283 295.2   8.5  34152  289.42 0855.26
2009/04/23 09:53:00.2    -240     91    -60    257    264 290.8 -13.2  34134  289.14 0855.26
2009/04/23 09:53:00.3    -199    140     83    244    258 305.1  18.9  34132  289.10 0855.26
2009/04/23 09:53:00.4    -263    160     38    308    311 301.3   7.1  34144  289.29 0855.26
2009/04/23 09:53:00.5    -234    165     34    287    290 305.3   6.9  34154  289.46 0855.26
2009/04/23 09:53:00.6    -185     49      6    192    193 285.1   1.8  34138  289.19 0855.26
2009/04/23 09:53:00.7    -141     66    -21    156    158 295.3  -8.0  34142  289.26 0855.26
2009/04/23 09:53:00.8    -171     81     12    190    191 295.3   3.8  34152  289.45 0855.26
2009/04/23 09:53:00.9    -144     63     12    158    159 293.5   4.6  34146  289.33 0855.26
2009/04/23 09:53:01.0    -130    114     92    173    195 311.3  30.1  34154  289.48 0855.27
2009/04/23 09:53:01.1    -122     46    153    131    201 290.8  54.8  34136  289.18 0855.27
2009/04/23 09:53:01.2    -169   -124    107    210    235 233.6  29.1  34138  289.21 0855.27
2009/04/23 09:53:01.3     -69     -5     95     70    118 265.7  60.0  34146  289.35 0855.27
2009/04/23 09:53:01.4     -55     82    122     99    157 326.2  56.9  34154  289.48 0855.27
2009/04/23 09:53:01.5     -80    112     86    138    162 324.4  35.2  34156  289.50 0855.27
2009/04/23 09:53:01.6    -186    174     36    255    258 313.1   8.2  34188  290.03 0855.27
2009/04/23 09:53:01.7    -158     93    -17    184    185 300.7  -5.4  34188  290.06 0855.27
2009/04/23 09:53:01.8    -176    105     -4    206    207 300.9  -1.3  34186  290.01 0855.27
2009/04/23 09:53:01.9    -147    106     39    182    187 306.0  12.2  34186  290.01 0855.27
2009/04/23 09:53:02.0    -125    142     41    190    195 318.6  12.2  34186  290.01 0855.27
2009/04/23 09:53:02.1    -157    186     -9    244    245 319.7  -2.2  34178  289.86 0855.27
2009/04/23 09:53:02.2    -222    135    -14    260    261 301.3  -3.1  34182  289.93 0855.27
2009/04/23 09:53:02.3    -127    136     21    187    189 317.0   6.5  34160  289.58 0855.27
2009/04/23 09:53:02.4    -226    115    -13    254    255 297.1  -3.1  34172  289.76 0855.27
2009/04/23 09:53:02.5    -171    108     29    203    206 302.2   8.2  34170  289.74 0855.27
2009/04/23 09:53:02.6    -177    155    -51    236    242 311.3 -12.4  34180  289.90 0855.27
2009/04/23 09:53:02.7    -211    212      4    300    301 315.1   0.8  34172  289.78 0855.27
2009/04/23 09:53:02.8    -173    205     -7    269    270 319.9  -1.6  34168  289.70 0855.27
2009/04/23 09:53:02.9    -213    245    -45    325    329 319.0  -7.9  34158  289.53 0855.27
2009/04/23 09:53:03.0    -116    235     61    263    271 333.7  13.1  34146  289.34 0855.30
2009/04/23 09:53:03.2     -84    207      1    224    225 337.9   0.5  34164  289.65 0855.30
2009/04/23 09:53:03.3    -118    173     52    210    217 325.7  13.9  34156  289.50 0855.30
2009/04/23 09:53:03.4    -142     72     35    160    164 296.9  12.6  34150  289.41 0855.30
2009/04/23 09:53:03.5    -127     53    -38    138    144 292.6 -15.4  34160  289.57 0855.30
2009/04/23 09:53:03.6    -101    -31     12    106    107 252.7   6.5  34176  289.84 0855.30
2009/04/23 09:53:03.7    -188     -2    -27    189    191 269.2  -8.2  34168  289.70 0855.30
2009/04/23 09:53:03.8    -198    -82    -79    215    229 247.6 -25.4  34152  289.43 0855.30
2009/04/23 09:53:03.9    -174     -9    -51    175    183 267.0 -16.4  34152  289.43 0855.30
2009/04/23 09:53:04.0    -176     68     12    189    190 291.3   3.8  34146  289.35 0855.30
2009/04/23 09:53:04.1    -158     -6     -3    159    160 267.5  -1.3  34150  289.41 0855.30
2009/04/23 09:53:04.2    -178    -42     41    183    188 256.7  12.6  34158  289.55 0855.30
2009/04/23 09:53:04.3    -162     11     10    163    164 273.9   3.6  34164  289.65 0855.30
2009/04/23 09:53:04.4     -77     37     25     86     90 296.2  16.3  34160  289.58 0855.30
2009/04/23 09:53:04.5     -81     48     61     95    112 300.7  35.6  34166  289.69 0855.30
2009/04/23 09:53:04.6    -168      4     58    169    179 271.5  19.2  34162  289.62 0855.30
2009/04/23 09:53:04.7    -178    -16     -8    179    180 264.8  -2.8  34160  289.58 0855.30
2009/04/23 09:53:04.8    -260    -70     32    270    272 254.9   6.9  34164  289.63 0855.30
2009/04/23 09:53:04.9    -275   -181     -7    330    331 236.7  -1.3  34144  289.30 0855.30
2009/04/23 09:53:05.0    -336   -163   -128    374    396 244.1 -18.9  34142  289.28 0855.30
2009/04/23 09:53:05.1    -240   -153    -89    285    298 237.5 -22.5  34142  289.25 0855.31
2009/04/23 09:53:05.2    -245   -135   -102    280    298 241.1 -25.4  34152  289.42 0855.31
2009/04/23 09:53:05.3    -283   -120   -122    308    331 246.9 -27.3  34146  289.32 0855.31
2009/04/23 09:53:05.4    -335    -24    -67    336    343 265.9 -11.3  34152  289.43 0855.31
2009/04/23 09:53:05.5    -319    -24    -69    320    328 265.7 -12.3  34164  289.63 0855.31
2009/04/23 09:53:05.6    -299     13    -62    300    307 272.6 -11.8  34166  289.68 0855.31
2009/04/23 09:53:05.7    -263     21    -31    264    266 274.6  -6.9  34146  289.34 0855.31
2009/04/23 09:53:05.8    -259    -52    -43    265    269 258.5  -9.4  34142  289.25 0855.31
2009/04/23 09:53:05.9    -234    -84    -69    249    259 250.1 -15.5  34140  289.24 0855.31
2009/04/23 09:53:06.0    -199   -110    -50    228    234 241.1 -12.4  34138  289.21 0855.31
2009/04/23 09:53:06.1    -163   -133    -71    211    223 230.9 -18.7  34140  289.23 0855.31
2009/04/23 09:53:06.2    -177   -176    -69    250    259 225.1 -20.0  34136  289.17 0855.31
2009/04/23 09:53:06.3    -129   -204    -66    242    252 212.5 -15.4  34140  289.24 0855.31
2009/04/23 09:53:06.4    -201   -161    -56    258    265 231.4 -12.4  34140  289.22 0855.31
2009/04/23 09:53:06.5    -186   -164    -32    249    252 228.6  -7.5  34134  289.14 0855.31
2009/04/23 09:53:06.6     -82   -246    -54    260    266 198.5 -11.9  34136  289.15 0855.31
2009/04/23 09:53:06.7    -116   -256    -36    282    285 204.5  -7.3  34126  289.00 0855.31
2009/04/23 09:53:06.8    -140   -210    -32    253    256 213.8  -7.2  34126  289.00 0855.31
2009/04/23 09:53:06.9    -182   -220    -96    286    302 219.6 -18.6  34124  288.97 0855.31
2009/04/23 09:53:07.0     -92   -246    -78    263    275 200.7 -16.5  34120  288.88 0855.31
2009/04/23 09:53:07.1     -97   -195    -14    218    219 206.5  -3.9  34120  288.89 0855.31
2009/04/23 09:53:07.2    -169   -195     16    259    260 221.0   3.6  34124  288.97 0855.31
2009/04/23 09:53:07.3    -160   -254    -85    301    313 212.1 -15.8  34126  288.98 0855.31
2009/04/23 09:53:07.4     -84   -244   -108    259    280 199.1 -28.5  34124  288.95 0855.31
2009/04/23 09:53:07.5     -56   -238    -53    245    251 193.4 -12.4  34132  289.09 0855.31
2009/04/23 09:53:07.6     -79   -238     26    251    253 198.5   5.9  34126  288.98 0855.31
2009/04/23 09:53:07.7     -46   -249    107    254    275 190.6  24.2  34138  289.20 0855.31
2009/04/23 09:53:07.8       1   -230     91    231    248 179.5  22.5  34130  289.05 0855.31
2009/04/23 09:53:07.9       8   -269     79    270    282 178.2  16.3  34122  288.93 0855.31
2009/04/23 09:53:08.0      17   -249    109    250    272 176.0  25.1  34130  289.05 0855.31
2009/04/23 09:53:08.1      21   -187    116    189    221 173.5  34.8  34130  289.06 0855.31
2009/04/23 09:53:08.2      44   -132    102    140    173 161.3  39.7  34134  289.13 0855.31
2009/04/23 09:53:08.3      41   -124    116    131    174 161.7  46.2  34130  289.06 0855.31
2009/04/23 09:53:08.4      65   -149    125    163    205 156.3  41.7  34126  289.01 0855.31
2009/04/23 09:53:08.5      71   -191     89    204    222 159.5  25.1  34126  288.99 0855.31
2009/04/23 09:53:08.6      22   -178     66    180    191 172.7  21.0  34120  288.91 0855.31
2009/04/23 09:53:08.7      27   -134     96    137    167 168.5  38.6  34126  289.01 0855.31
2009/04/23 09:53:08.8     -60   -152     73    164    179 201.8  25.7  34128  289.02 0855.31
2009/04/23 09:53:08.9     -55   -101     48    116    125 208.5  23.6  34124  288.96 0855.31
2009/04/23 09:53:09.0     113    -37     26    119    122 108.2  12.6  34124  288.97 0855.31
2009/04/23 09:53:09.1     153    -59     12    165    166 111.3   4.2  34128  289.02 0855.27
2009/04/23 09:53:09.2      92    -12     70     93    116  97.9  40.7  34128  289.02 0855.27
2009/04/23 09:53:09.3      62     29     64     69     94  64.7  48.5  34130  289.08 0855.27
2009/04/23 09:53:09.4      74     15     91     76    118  78.5  55.8  34132  289.11 0855.27
2009/04/23 09:53:09.5      65     41     66     77    101  57.6  44.8  34132  289.11 0855.27
2009/04/23 09:53:09.6      30     51     70     60     92  30.7  54.8  34138  289.21 0855.27
2009/04/23 09:53:09.7      64     91     74    112    134  35.2  36.0  34130  289.08 0855.27
2009/04/23 09:53:09.8     120     56    138    133    191  64.8  51.2  34132  289.11 0855.27
2009/04/23 09:53:09.9      86     36    125     94    156  67.4  59.4  34136  289.16 0855.27
2009/04/23 09:53:10.0     106     28     90    110    142  74.9  43.7  34130  289.08 0855.27
2009/04/23 09:53:10.1      82     23     80     86    117  74.1  47.9  34130  289.06 0855.27
2009/04/23 09:53:10.2      67     26     74     73    103  68.3  49.7  34134  289.13 0855.27
2009/04/23 09:53:10.3      50      3     66     51     83  85.7  58.5  34136  289.18 0855.27
2009/04/23 09:53:10.4      23    -15     77     28     81 122.5  79.7  34140  289.24 0855.27
2009/04/23 09:53:10.5       2      9     64     10     64  11.6  90.0  34142  289.28 0855.27
2009/04/23 09:53:10.6      16    -48     99     51    111 161.7  70.8  34136  289.16 0855.27
2009/04/23 09:53:10.7     -51   -133    121    143    187 200.9  44.5  34128  289.02 0855.27
2009/04/23 09:53:10.8     -25   -187    167    189    252 187.8  46.2  34126  288.98 0855.27
2009/04/23 09:53:10.9     -39   -192    126    196    233 191.5  35.6  34126  289.01 0855.27
2009/04/23 09:53:11.0      -3   -177    131    178    221 181.1  39.7  34130  289.08 0855.27
2009/04/23 09:53:11.1      -3   -235     83    236    251 180.9  19.4  34132  289.10 0855.28
2009/04/23 09:53:11.2     -55   -206     91    214    232 195.1  24.3  34132  289.09 0855.28
2009/04/23 09:53:11.3     -56   -184     69    193    204 196.9  20.2  34130  289.08 0855.28
2009/04/23 09:53:11.4     -28   -198     31    201    204 188.2   8.8  34132  289.11 0855.28
2009/04/23 09:53:11.5     -81   -170    112    189    219 205.5  33.5  34134  289.14 0855.28
2009/04/23 09:53:11.6       0   -174     89    175    196 180.2  29.2  34128  289.02 0855.28
2009/04/23 09:53:11.7      29   -168     89    171    192 170.2  29.8  34124  288.97 0855.28
2009/04/23 09:53:11.8      15   -127     50    128    137 172.9  23.0  34126  289.01 0855.28
2009/04/23 09:53:11.9     -38   -107      5    114    115 200.0   2.9  34134  289.13 0855.28
2009/04/23 09:53:12.0     -51    -72     33     89     94 215.2  20.4  34132  289.11 0855.28
2009/04/23 09:53:12.1     -42   -115     63    123    138 200.1  29.3  34130  289.06 0855.28
2009/04/23 09:53:12.2     -33   -204     64    207    217 189.3  17.4  34126  289.01 0855.28
2009/04/23 09:53:12.3      84   -194     52    212    219 156.6  13.9  34122  288.94 0855.28
2009/04/23 09:53:12.4      30   -201    -11    204    205 171.5  -3.1  34126  289.01 0855.28
2009/04/23 09:53:12.5      12   -195    -15    196    197 176.4  -4.6  34128  289.02 0855.28
2009/04/23 09:53:12.6      17   -159     37    160    165 173.8  13.2  34124  288.97 0855.28
2009/04/23 09:53:12.7      51   -227     30    233    235 167.3   7.5  34128  289.02 0855.28
2009/04/23 09:53:12.8     102   -257    113    277    299 158.2  23.1  34122  288.92 0855.28
2009/04/23 09:53:12.9      98   -293    140    310    340 161.5  26.0  34122  288.94 0855.28
2009/04/23 09:53:13.0     106   -300    102    319    336 160.4  17.8  34124  288.96 0855.28
2009/04/23 09:53:13.1     114   -340     88    359    370 161.4  13.8  34122  288.94 0855.26
2009/04/23 09:53:13.2     153   -318     50    353    357 154.3   8.1  34122  288.94 0855.26
2009/04/23 09:53:13.3     183   -329    140    377    402 150.9  21.4  34116  288.84 0855.26
2009/04/23 09:53:13.4     233   -169     44    289    293 126.0   8.8  34124  288.95 0855.26
2009/04/23 09:53:13.5     187   -178    -78    259    271 133.6 -16.8  34126  289.00 0855.26
2009/04/23 09:53:13.6     201   -156    -65    255    264 127.7 -14.3  34124  288.97 0855.26
2009/04/23 09:53:13.7     147   -188    -17    239    240 141.9  -4.1  34126  288.98 0855.26
2009/04/23 09:53:13.8     132   -163    -25    210    212 141.0  -6.9  34128  289.02 0855.26
2009/04/23 09:53:13.9      55   -197     63    205    215 164.2  17.1  34126  288.99 0855.26
2009/04/23 09:53:14.0     161   -245     86    294    307 146.6  16.3  34128  289.02 0855.26
2009/04/23 09:53:14.1     120   -224    131    255    286 151.9  29.3  34128  289.02 0855.26
2009/04/23 09:53:14.2     155   -197    151    251    292 141.7  33.7  34130  289.05 0855.26
2009/04/23 09:53:14.3      31   -199    171    202    264 171.1  44.3  34130  289.05 0855.26
2009/04/23 09:53:14.4     -22   -131    155    133    204 189.7  54.8  34132  289.11 0855.26
2009/04/23 09:53:14.5     -35    -71     81     80    113 206.3  49.7  34132  289.11 0855.26
2009/04/23 09:53:14.6     -23   -128     58    131    143 190.2  25.1  34132  289.11 0855.26
2009/04/23 09:53:14.7     -41   -135     96    142    171 197.0  37.3  34130  289.06 0855.26
2009/04/23 09:53:14.8     -25   -174     -1    176    177 188.2  -0.5  34130  289.08 0855.26
2009/04/23 09:53:14.9     -98   -150    -58    180    190 213.2 -18.1  34130  289.08 0855.26
2009/04/23 09:53:15.0     -75   -205     -8    219    220 200.3  -2.2  34134  289.14 0855.26
2009/04/23 09:53:15.1    -128   -178     11    220    221 215.6   2.9  34132  289.09 0855.21
2009/04/23 09:53:15.2    -120   -113     22    166    168 226.7   7.8  34136  289.16 0855.21
2009/04/23 09:53:15.3     -88   -100    -20    134    136 221.4  -8.8  34134  289.14 0855.21
2009/04/23 09:53:15.4     -69    -89     39    113    120 217.8  19.4  34134  289.14 0855.21
2009/04/23 09:53:15.5     -33   -160     69    164    177 191.8  23.8  34132  289.11 0855.21
2009/04/23 09:53:15.6     -36   -111     64    117    133 198.3  31.4  34132  289.11 0855.21
2009/04/23 09:53:15.7     -17    -77     -1     80     81 192.9  -1.3  34132  289.11 0855.21
2009/04/23 09:53:15.8     -25    -97    -32    101    106 194.7 -17.6  34130  289.06 0855.21
2009/04/23 09:53:15.9     -21    -75    -19     79     82 196.0 -13.9  34128  289.04 0855.21
2009/04/23 09:53:16.0      -7   -103    -56    104    118 184.4 -35.2  34130  289.08 0855.21
2009/04/23 09:53:16.1     -25   -122    -39    125    132 191.6 -17.6  34132  289.11 0855.21
2009/04/23 09:53:16.2       5    -66      3     67     68 175.6   2.9  34128  289.04 0855.21
2009/04/23 09:53:16.3     -17    -64     -2     67     68 195.2  -2.2  34132  289.09 0855.21
2009/04/23 09:53:16.4      -1    -78    -40     79     88 180.9 -32.6  34134  289.13 0855.21
2009/04/23 09:53:16.5       9    -58    -41     59     71 171.1 -43.0  34136  289.18 0855.21
2009/04/23 09:53:16.6       7    -42    -74     43     85 169.3 -71.6  34136  289.18 0855.21
2009/04/23 09:53:16.7      -9    -38    -76     40     85 193.4 -74.2  34140  289.23 0855.21
2009/04/23 09:53:16.8       3    -39    -90     40     98 175.5 -78.9  34138  289.19 0855.21
2009/04/23 09:53:16.9      11    -34    -83     36     90 161.3 -79.4  34138  289.21 0855.21
2009/04/23 09:53:17.0      17      0    -49     18     52  90.0 -84.6  34146  289.35 0855.21
2009/04/23 09:53:17.1      11      9    -21     15     25  50.5 -64.9  34142  289.28 0855.16
2009/04/23 09:53:17.2       9     17    -24     20     31  29.0 -60.7  34142  289.26 0855.16
2009/04/23 09:53:17.3       7      6    -17     10     19  46.9 -69.1  34136  289.18 0855.16
2009/04/23 09:53:17.4      -3      7    -38      8     38 334.6 -90.0  34142  289.26 0855.16
2009/04/23 09:53:17.5      22      1    -40     23     46  85.6 -71.2  34144  289.30 0855.16
2009/04/23 09:53:17.6      46    -16    -10     49     51 109.1 -12.4  34134  289.14 0855.16
2009/04/23 09:53:17.7      43    -29    -14     53     56 124.2 -15.5  34136  289.18 0855.16
2009/04/23 09:53:17.8      62    -39     -4     74     75 122.5  -3.2  34134  289.14 0855.16
2009/04/23 09:53:17.9      48    -19     13     52     54 111.7  14.3  34134  289.14 0855.16
2009/04/23 09:53:18.0      68      7     23     69     74  83.9  18.9  34138  289.21 0855.16
2009/04/23 09:53:18.1      66     31     81     74    109  64.8  52.2  34138  289.19 0855.19
2009/04/23 09:53:18.2      65     13    107     67    126  78.5  64.7  34140  289.24 0855.19
2009/04/23 09:53:18.3      91      0     95     92    132  89.6  50.7  34138  289.19 0855.19
2009/04/23 09:53:18.4      72     -5     70     73    101  94.3  48.5  34140  289.23 0855.19
2009/04/23 09:53:18.5      35    -42     53     55     76 140.4  50.0  34138  289.21 0855.19
2009/04/23 09:53:18.6       0    -99     74    100    124 180.4  40.1  34136  289.18 0855.19
2009/04/23 09:53:18.7      34   -125     67    130    146 164.4  29.3  34138  289.19 0855.19
2009/04/23 09:53:18.8      19   -174     70    176    189 173.8  23.0  34132  289.09 0855.19
2009/04/23 09:53:18.9     -15   -194     84    195    212 184.5  24.9  34132  289.11 0855.19
2009/04/23 09:53:19.0     -33   -163    133    167    213 191.6  42.7  34134  289.13 0855.19
2009/04/23 09:53:19.1     -17   -233    139    234    272 184.4  33.5  34134  289.14 0855.19
2009/04/23 09:53:19.2      31   -221    131    224    259 172.0  32.9  34136  289.17 0855.19
2009/04/23 09:53:19.3      26   -246     88    248    264 173.8  19.6  34132  289.09 0855.19
2009/04/23 09:53:19.4      10   -205    113    206    234 177.1  31.0  34130  289.08 0855.19
2009/04/23 09:53:19.5      -2   -171     71    172    186 180.9  23.6  34134  289.13 0855.19
2009/04/23 09:53:19.6     -31   -164     91    168    191 190.9  30.8  34132  289.09 0855.19
2009/04/23 09:53:19.7      -2   -161    105    162    193 180.9  35.6  34132  289.11 0855.19
2009/04/23 09:53:19.8     -25   -160    114    162    198 188.9  38.6  34134  289.13 0855.19
2009/04/23 09:53:19.9     -16   -131     85    133    157 187.1  35.7  34134  289.13 0855.19
2009/04/23 09:53:20.0      59   -113     98    128    161 152.4  41.4  34142  289.28 0855.19
2009/04/23 09:53:20.1       8    -90     78     91    119 174.7  45.4  34138  289.21 0855.19
2009/04/23 09:53:20.2      23    -59     98     64    117 158.2  64.6  34142  289.26 0855.19
2009/04/23 09:53:20.3      53     -8     66     54     85  98.8  56.4  34148  289.38 0855.19
2009/04/23 09:53:20.4      87    -66     81    110    136 127.3  39.7  34142  289.26 0855.19
2009/04/23 09:53:20.5      79    -79     77    112    135 134.9  37.6  34140  289.24 0855.19
2009/04/23 09:53:20.6      57    -79     59     98    114 144.4  34.4  34140  289.24 0855.19
2009/04/23 09:53:20.7      47    -97     50    108    119 154.1  27.1  34138  289.19 0855.19
2009/04/23 09:53:20.8      -1   -114     45    115    123 180.9  22.5  34136  289.16 0855.19
2009/04/23 09:53:20.9     -13   -127     47    128    136 186.3  20.9  34134  289.14 0855.19
2009/04/23 09:53:21.0     -39    -94     27    102    106 202.7  15.3  34136  289.18 0855.19
2009/04/23 09:53:21.1     -74    -59     29     95    100 231.4  17.3  34138  289.19 0855.19
2009/04/23 09:53:21.2     -67    -58     50     89    102 229.1  31.4  34138  289.21 0855.19
2009/04/23 09:53:21.3      -7    -34     67     35     75 191.6  69.8  34156  289.50 0855.19
2009/04/23 09:53:21.4     -59    -62     95     86    128 223.7  53.3  34144  289.31 0855.19
2009/04/23 09:53:21.5    -129    -79     80    152    171 238.5  29.8  34142  289.26 0855.19
2009/04/23 09:53:21.6    -151    -50     92    160    184 251.4  32.7  34148  289.38 0855.19
2009/04/23 09:53:21.7    -152    -11     94    153    179 265.7  34.4  34148  289.38 0855.19
2009/04/23 09:53:21.8    -141    -67     84    157    178 244.7  30.6  34138  289.19 0855.19
2009/04/23 09:53:21.9    -152      2    129    153    200 270.8  44.5  34144  289.30 0855.19
2009/04/23 09:53:22.0    -200     -6     92    201    221 268.1  26.4  34144  289.30 0855.19
2009/04/23 09:53:22.1    -197    -38     90    201    220 259.0  25.7  34150  289.40 0855.21
2009/04/23 09:53:22.2    -155   -112     69    192    204 234.3  20.4  34140  289.23 0855.21
2009/04/23 09:53:22.3    -153   -143     12    210    211 226.8   3.3  34140  289.24 0855.21
2009/04/23 09:53:22.4    -144   -160    -27    216    218 221.9  -7.2  34146  289.33 0855.21
2009/04/23 09:53:22.5    -103   -187    -19    214    215 209.0  -5.2  34152  289.43 0855.21
2009/04/23 09:53:22.6     -68   -253     12    263    264 195.2   2.8  34140  289.22 0855.21
2009/04/23 09:53:22.7     -97   -222    -67    243    253 203.6 -15.4  34138  289.20 0855.21
2009/04/23 09:53:22.8     -43   -225    -46    230    235 190.9 -11.5  34136  289.17 0855.21
2009/04/23 09:53:22.9     171   -104     74    201    214 121.3  20.9  34138  289.21 0855.21
2009/04/23 09:53:23.0     159    -52     59    168    178 108.2  20.0  34144  289.30 0855.21
2009/04/23 09:53:23.1     193     14     88    194    213  85.6  26.2  34136  289.16 0855.21
2009/04/23 09:53:23.2     155    -31    164    159    228 101.4  50.9  34134  289.13 0855.21
2009/04/23 09:53:23.3     134      0    116    135    177  90.0  45.1  34138  289.19 0855.21
2009/04/23 09:53:23.4      36    -74    100     83    129 153.7  56.3  34136  289.16 0855.21
2009/04/23 09:53:23.5      30   -129     92    133    161 166.6  38.0  34138  289.21 0855.21
2009/04/23 09:53:23.6     -47   -116     59    126    139 202.3  27.1  34134  289.14 0855.21
2009/04/23 09:53:23.7    -188    -75    -52    203    210 248.0 -14.5  34134  289.14 0855.21
2009/04/23 09:53:23.8    -345   -130   -116    369    387 249.3 -17.5  34126  289.01 0855.21
2009/04/23 09:53:23.9    -495   -127   -131    512    529 255.6 -14.4  34130  289.06 0855.21
2009/04/23 09:53:24.0    -490    -76   -168    497    525 261.1 -18.7  34128  289.03 0855.21
2009/04/23 09:53:24.1    -476   -216    -86    523    531 245.6  -9.3  34126  289.01 0855.22
2009/04/23 09:53:24.2    -456   -350   -131    576    591 232.5 -12.9  34128  289.03 0855.22
2009/04/23 09:53:24.3    -274   -310     21    414    415 221.5   2.9  34122  288.92 0855.22
2009/04/23 09:53:24.4    -127   -428    100    447    459 196.5  12.6  34136  289.16 0855.22
2009/04/23 09:53:24.5    -392   -309     14    500    501 231.7   1.7  34124  288.96 0855.22
2009/04/23 09:53:24.6    -404   -303    -83    505    512 233.1  -9.3  34136  289.15 0855.22
2009/04/23 09:53:24.7    -174   -262    -12    315    316 213.6  -2.2  34132  289.09 0855.22
2009/04/23 09:53:24.8    -121   -163     36    204    208 216.7  10.1  34126  289.01 0855.22
2009/04/23 09:53:24.9    -323   -257    128    413    433 231.5  17.3  34132  289.09 0855.22
2009/04/23 09:53:25.0    -177   -312    129    360    382 209.6  20.4  34126  289.01 0855.22
2009/04/23 09:53:25.1    -354   -172     79    394    402 244.0  11.4  34126  289.01 0855.22
2009/04/23 09:53:25.2    -359   -150     12    390    391 247.3   1.8  34136  289.16 0855.22
2009/04/23 09:53:25.3    -232   -227     63    325    332 225.6  11.0  34126  289.01 0855.22
2009/04/23 09:53:25.4    -310   -314    -50    442    445 224.6  -6.6  34130  289.07 0855.22
2009/04/23 09:53:25.5    -268   -475    117    546    559 209.4  12.1  34126  289.01 0855.22
2009/04/23 09:53:25.6    -193   -231    108    302    320 219.9  20.4  34134  289.14 0855.22
2009/04/23 09:53:25.7    -232   -181    -32    295    297 232.2  -6.2  34134  289.14 0855.22
2009/04/23 09:53:25.8    -317   -242   -102    400    413 232.6 -14.4  34126  289.00 0855.22
2009/04/23 09:53:25.9    -375   -258   -145    456    478 235.4 -22.8  34130  289.06 0855.22
2009/04/23 09:53:26.0    -551   -344   -187    650    676 238.0 -20.9  34140  289.24 0855.22
2009/04/23 09:53:26.1    -288   -288   -168    408    441 225.0 -28.1  34138  289.19 0855.21
2009/04/23 09:53:26.2    -330   -442   -115    552    564 216.7 -11.8  34120  288.91 0855.21
2009/04/23 09:53:26.3    -375   -281    -63    469    474 233.2  -7.7  34136  289.18 0855.21
2009/04/23 09:53:26.4    -222   -332      4    400    401 213.8   0.7  34126  288.99 0855.21
2009/04/23 09:53:26.5    -293   -367    -96    470    480 218.6 -11.6  34130  289.08 0855.21
2009/04/23 09:53:26.6    -280   -333    -33    436    438 220.0  -4.4  34134  289.12 0855.21
2009/04/23 09:53:26.7    -320   -320     59    453    457 225.0   7.4  34140  289.22 0855.21
2009/04/23 09:53:26.8    -202   -427    -77    473    480 205.3  -9.3  34136  289.15 0855.21
2009/04/23 09:53:26.9     -82   -434    -80    442    450 190.7 -10.3  34124  288.97 0855.21
2009/04/23 09:53:27.0     -80   -489   -104    496    507 189.3 -11.9  34134  289.12 0855.21
2009/04/23 09:53:27.1    -121   -386    -88    405    415 197.5 -12.4  34128  289.04 0855.21
2009/04/23 09:53:27.2    -121   -275    -70    301    310 203.7 -13.2  34128  289.03 0855.21
2009/04/23 09:53:27.3    -193   -565     -3    598    599 198.9  -0.4  34130  289.08 0855.21
2009/04/23 09:53:27.4    -439   -356   -184    566    596 231.0 -18.0  34126  288.98 0855.21
2009/04/23 09:53:27.5    -717   -230   -327    753    820 252.2 -29.5  34138  289.19 0855.21
2009/04/23 09:53:27.6    -482   -400   -311    627    699 230.3 -32.8  34124  288.95 0855.21
2009/04/23 09:53:27.7    -465   -412   -187    622    649 228.4 -21.6  34130  289.08 0855.21
2009/04/23 09:53:27.8    -517   -489   -196    712    739 226.6 -15.4  34128  289.03 0855.21
2009/04/23 09:53:27.9    -475   -243   -172    534    561 242.9 -22.9  34142  289.26 0855.21
2009/04/23 09:53:28.0    -483   -362     53    604    607 233.2   5.1  34134  289.12 0855.21
2009/04/23 09:53:28.1    -486   -273    -21    558    559 240.7  -2.2  34140  289.23 0855.19
2009/04/23 09:53:28.2    -643      0   -183    644    669 270.0 -20.5  34142  289.27 0855.19
2009/04/23 09:53:28.3    -488   -164   -103    515    526 251.4 -11.3  34136  289.18 0855.19
2009/04/23 09:53:28.4    -704     21   -199    705    733 271.8 -15.8  34128  289.03 0855.19
2009/04/23 09:53:28.5    -715    145   -242    730    769 281.5 -23.6  34132  289.09 0855.19
2009/04/23 09:53:28.6    -598    -66   -262    602    656 263.7 -29.5  34130  289.08 0855.19
2009/04/23 09:53:28.7    -603      9   -282    604    666 270.9 -31.3  34136  289.18 0855.19
2009/04/23 09:53:28.8    -589    -17   -225    590    631 268.3 -26.2  34120  288.91 0855.19
2009/04/23 09:53:29.0    -519     -8   -164    520    546 269.1 -17.5  34142  289.28 0855.19
2009/04/23 09:53:29.1    -445     13   -145    446    468 271.7 -23.2  34134  289.12 0855.19
2009/04/23 09:53:29.1    -339     18   -129    340    363 273.2 -26.1  34136  289.15 0855.19
2009/04/23 09:53:29.2    -398     -5   -155    399    428 269.2 -26.7  34136  289.17 0855.19
2009/04/23 09:53:29.3    -310      0   -120    311    333 270.0 -26.7  34136  289.17 0855.19
2009/04/23 09:53:29.5    -211      6   -137    212    252 271.9 -40.0  34138  289.20 0855.19
2009/04/23 09:53:29.6    -161     58   -168    172    240 290.0 -54.2  34138  289.21 0855.19
2009/04/23 09:53:29.7    -257      3   -164    258    305 270.8 -39.9  34134  289.12 0855.19
2009/04/23 09:53:29.8    -277      8   -163    278    322 271.7 -37.5  34134  289.14 0855.19
2009/04/23 09:53:29.9    -209     42   -197    214    290 281.5 -52.1  34136  289.17 0855.19
2009/04/23 09:53:30.0     -76    125   -145    147    206 328.8 -54.3  34138  289.19 0855.19
2009/04/23 09:53:30.1    -122     79   -203    146    250 302.9 -65.2  34132  289.09 0855.19
2009/04/23 09:53:30.2    -128     13   -154    129    200 276.1 -60.2  34128  289.04 0855.20
2009/04/23 09:53:30.3    -206    113   -295    236    377 298.8 -61.9  34148  289.38 0855.20
2009/04/23 09:53:30.4    -172    240   -348    296    456 324.4 -59.8  34146  289.34 0855.20
2009/04/23 09:53:30.5    -119    131   -344    178    387 317.7 -75.1  34136  289.18 0855.20
2009/04/23 09:53:30.6    -332     13   -310    333    454 272.3 -52.3  34142  289.26 0855.20
2009/04/23 09:53:30.7    -163     56   -235    173    291 289.1 -64.7  34124  288.95 0855.20
2009/04/23 09:53:30.8     -71    112   -163    133    210 327.5 -60.8  34138  289.21 0855.20
2009/04/23 09:53:30.9       8    105   -108    106    151   4.4 -54.5  34144  289.30 0855.20
2009/04/23 09:53:31.0     162     84     35    183    187  62.5  11.0  34140  289.23 0855.20
2009/04/23 09:53:31.1     122     13    -22    123    125  83.9 -10.3  34136  289.16 0855.20
2009/04/23 09:53:31.2       2   -116    -76    117    139 178.6 -40.0  34140  289.23 0855.20
2009/04/23 09:53:31.3      38    -59   -214     71    225 147.5 -85.1  34146  289.35 0855.20
2009/04/23 09:53:31.4     -39   -283   -130    286    314 188.0 -30.6  34138  289.19 0855.20
2009/04/23 09:53:31.5     214   -157   -195    266    329 126.2 -44.3  34136  289.17 0855.20
2009/04/23 09:53:31.6     249   -274   -105    371    385 137.8 -20.4  34140  289.23 0855.20
2009/04/23 09:53:31.7       0   -287   -214    288    358 179.9 -44.8  34152  289.42 0855.20
2009/04/23 09:53:31.8      22   -112   -261    115    285 168.5 -79.3  34144  289.29 0855.20
2009/04/23 09:53:31.9     116   -138   -189    181    261 139.9 -55.6  34156  289.51 0855.20
2009/04/23 09:53:32.0     222   -235   -137    324    351 136.6 -28.6  34146  289.35 0855.20
2009/04/23 09:53:32.1      54   -338   -220    343    407 170.8 -40.0  34146  289.35 0855.20
2009/04/23 09:53:32.2     127   -223   -205    257    328 150.4 -47.1  34152  289.42 0855.20
2009/04/23 09:53:32.3     114   -284   -234    307    386 158.1 -45.6  34152  289.45 0855.20
2009/04/23 09:53:32.4      75   -339   -238    348    421 167.5 -42.1  34152  289.43 0855.20
2009/04/23 09:53:32.5     171   -284   -156    332    366 148.8 -31.5  34154  289.47 0855.20
2009/04/23 09:53:32.6     180   -339   -120    385    403 152.0 -22.3  34146  289.33 0855.20
2009/04/23 09:53:32.7     160   -305   -167    345    383 152.3 -31.8  34146  289.33 0855.20
2009/04/23 09:53:32.8     235   -295   -112    378    395 141.5 -16.5  34142  289.25 0855.20
2009/04/23 09:53:32.9     250   -272   -176    370    409 137.4 -31.7  34136  289.16 0855.20
2009/04/23 09:53:33.0     189   -337   -119    387    404 150.7 -22.2  34138  289.20 0855.20
2009/04/23 09:53:33.1     382   -148   -246    410    478 111.2 -38.4  34152  289.43 0855.20
2009/04/23 09:53:33.2     431     12     48    432    435  88.3   6.4  34156  289.51 0855.20
2009/04/23 09:53:33.3     350    -60    227    356    422  99.8  35.6  34152  289.42 0855.20
2009/04/23 09:53:33.4     292      0    280    293    405  90.0  48.8  34152  289.45 0855.20
2009/04/23 09:53:33.5     403      8    102    404    417  88.7  14.2  34144  289.29 0855.20
2009/04/23 09:53:33.6     264      8    103    265    284  88.1  22.3  34154  289.46 0855.20
2009/04/23 09:53:33.7     169    109    144    202    248  57.1  39.1  34158  289.54 0855.20
2009/04/23 09:53:33.8     203    -94    211    224    307 114.8  48.0  34152  289.44 0855.20
2009/04/23 09:53:33.9     148   -157     42    216    221 136.7  11.0  34152  289.45 0855.20
2009/04/23 09:53:34.0     188   -176    135    258    291 133.2  29.8  34150  289.39 0855.20
2009/04/23 09:53:34.1     237   -145     56    279    285 121.5  11.4  34146  289.34 0855.20
2009/04/23 09:53:34.2     314   -222    120    385    404 125.2  17.3  34142  289.26 0855.17
2009/04/23 09:53:34.3     239   -239    154    339    372 135.0  26.2  34140  289.23 0855.17
2009/04/23 09:53:34.4     105   -314    131    332    356 161.5  22.8  34146  289.33 0855.17
2009/04/23 09:53:34.5     144   -322    134    353    377 155.9  21.7  34138  289.20 0855.17
2009/04/23 09:53:34.6     165   -250    141    300    331 146.6  27.0  34138  289.20 0855.17
2009/04/23 09:53:34.7     108   -345    117    362    381 162.5  17.9  34140  289.23 0855.17
2009/04/23 09:53:34.8      41   -375    124    378    398 173.7  18.2  34138  289.21 0855.17
2009/04/23 09:53:34.9      68   -332     66    340    347 168.4  11.0  34138  289.20 0855.17
2009/04/23 09:53:35.0     131   -250     44    283    287 152.4   9.0  34138  289.19 0855.17
2009/04/23 09:53:35.1      95   -192     18    215    216 153.5   4.9  34140  289.24 0855.17
2009/04/23 09:53:35.2     116   -236     93    264    280 153.7  19.4  34140  289.22 0855.17
2009/04/23 09:53:35.3      46   -236    101    241    261 168.9  24.1  34158  289.53 0855.17
2009/04/23 09:53:35.4     -61   -202     77    212    225 197.0  20.7  34152  289.43 0855.17
2009/04/23 09:53:35.5       6   -352    110    353    370 179.0  17.3  34148  289.38 0855.17
2009/04/23 09:53:35.6       9   -372     85    373    383 178.6  12.9  34156  289.50 0855.17
2009/04/23 09:53:35.7     -21   -397     27    398    399 183.1   4.0  34158  289.54 0855.17
2009/04/23 09:53:35.8       6   -365    205    366    419 179.0  31.7  34144  289.29 0855.17
2009/04/23 09:53:35.9       6   -443    153    444    470 179.1  19.1  34140  289.24 0855.17
2009/04/23 09:53:36.0      43   -506    162    508    534 175.1  17.7  34140  289.23 0855.17
2009/04/23 09:53:36.1      37   -478    132    480    498 175.5  15.4  34138  289.20 0855.17
2009/04/23 09:53:36.2      89   -439    163    448    476 168.5  20.8  34136  289.15 0855.17
2009/04/23 09:53:36.3      90   -379    233    390    454 166.6  33.5  34142  289.26 0855.17
2009/04/23 09:53:36.4     107   -456    226    469    520 166.7  27.4  34142  289.28 0855.17
2009/04/23 09:53:36.5      51   -462    245    465    525 173.7  30.0  34136  289.18 0855.17
2009/04/23 09:53:36.6     107   -395    181    410    448 164.8  25.2  34138  289.21 0855.17
2009/04/23 09:53:36.7     120   -417    159    435    463 163.9  21.0  34138  289.21 0855.17
2009/04/23 09:53:36.8      97   -401    181    413    450 166.3  25.2  34138  289.21 0855.17
2009/04/23 09:53:36.9      44   -365    163    368    402 173.1  25.6  34136  289.18 0855.17
2009/04/23 09:53:37.0     126   -437    186    455    491 163.9  23.5  34140  289.23 0855.17
2009/04/23 09:53:37.1      -3   -484     69    485    490 180.4   8.1  34146  289.32 0855.17
2009/04/23 09:53:37.2      69   -494    -48    499    502 172.0  -5.6  34140  289.23 0855.17
2009/04/23 09:53:37.3     161   -493   -127    519    535 161.8 -13.8  34140  289.23 0855.17
2009/04/23 09:53:37.4      59   -472     81    476    483 172.8   9.7  34128  289.03 0855.17
2009/04/23 09:53:37.5     -57   -426     93    430    441 187.7  12.3  34144  289.31 0855.17
2009/04/23 09:53:37.6     -19   -310    171    311    354 183.6  31.3  34148  289.38 0855.17
2009/04/23 09:53:37.7      34   -288    181    291    342 173.1  35.1  34144  289.31 0855.17
2009/04/23 09:53:37.8     -19   -308    135    309    337 183.6  25.1  34146  289.32 0855.17
2009/04/23 09:53:37.9     -97   -244     72    263    273 201.8  15.3  34146  289.34 0855.17
2009/04/23 09:53:38.0    -170   -288     92    335    348 210.6  15.4  34142  289.28 0855.17
2009/04/23 09:53:38.1     -36   -345    244    347    424 186.1  38.6  34132  289.11 0855.17
2009/04/23 09:53:38.2      51   -462    261    465    533 173.7  31.7  34146  289.32 0855.16
2009/04/23 09:53:38.3    -149   -326     59    359    364 204.6   9.3  34142  289.26 0855.16
2009/04/23 09:53:38.4    -210   -329     23    391    392 212.6   3.5  34138  289.20 0855.16
2009/04/23 09:53:38.5      21   -538     53    539    542 177.7   5.7  34140  289.23 0855.16
2009/04/23 09:53:38.6     -17   -526     49    527    530 181.9   5.3  34142  289.26 0855.16
2009/04/23 09:53:38.7     -91   -505      8    514    515 190.2   0.9  34146  289.32 0855.16
2009/04/23 09:53:38.8     -40   -478    -51    480    483 184.9  -6.1  34142  289.25 0855.16
2009/04/23 09:53:38.9      -4   -309      5    310    311 180.9   1.0  34134  289.14 0855.16
2009/04/23 09:53:39.0    -155   -351   -108    384    398 203.9 -20.5  34136  289.16 0855.16
2009/04/23 09:53:39.1    -145   -344    -73    374    382 202.9 -11.1  34138  289.21 0855.16
2009/04/23 09:53:39.2    -127   -431    -89    450    459 196.4 -11.2  34138  289.19 0855.18
2009/04/23 09:53:39.3    -188   -331     10    381    382 209.7   1.6  34138  289.21 0855.18
2009/04/23 09:53:39.4    -145   -253    -16    292    293 209.9  -3.2  34142  289.25 0855.18
2009/04/23 09:53:39.5      18   -256     96    257    274 175.8  21.0  34140  289.24 0855.18
2009/04/23 09:53:39.6     -58   -283     54    290    295 191.6  10.6  34148  289.36 0855.18
2009/04/23 09:53:39.7     -40   -318     81    321    332 187.3  14.3  34146  289.32 0855.18
2009/04/23 09:53:39.8     -57   -276     49    282    287 191.8  10.0  34144  289.29 0855.18
2009/04/23 09:53:39.9     -64   -259    122    267    293 194.0  26.2  34146  289.32 0855.18
2009/04/23 09:53:40.0    -123   -222     59    254    261 209.0  13.2  34144  289.31 0855.18
2009/04/23 09:53:40.1     -10   -326    112    327    346 181.9  18.9  34138  289.20 0855.18
2009/04/23 09:53:40.2    -127   -255    187    286    341 206.5  36.2  34144  289.29 0855.18
2009/04/23 09:53:40.3      67   -332    129    339    362 168.5  21.8  34134  289.13 0855.18
2009/04/23 09:53:40.4    -155   -434    -32    462    464 199.7  -4.0  34122  288.92 0855.18
2009/04/23 09:53:40.5      88   -506    181    514    545 170.1  19.4  34132  289.09 0855.18
2009/04/23 09:53:40.6    -157   -486    165    511    537 197.9  17.9  34136  289.18 0855.18
2009/04/23 09:53:40.7    -103   -464    229    476    528 192.6  27.3  34138  289.20 0855.18
2009/04/23 09:53:40.8      81   -398    245    407    475 168.4  34.0  34134  289.14 0855.18
2009/04/23 09:53:40.9     225   -240     86    330    341 136.8  14.6  34136  289.16 0855.18
2009/04/23 09:53:41.0      31   -396    140    398    423 175.5  19.4  34130  289.07 0855.18
2009/04/23 09:53:41.1      38   -389    187    391    433 174.4  27.3  34136  289.16 0855.18
2009/04/23 09:53:41.2      -2   -477    115    478    492 180.3  13.6  34136  289.15 0855.18
2009/04/23 09:53:41.3     -40   -486    123    488    504 184.8  14.2  34130  289.06 0855.18
2009/04/23 09:53:41.4     -26   -414    127    415    435 183.6  17.0  34132  289.09 0855.18
2009/04/23 09:53:41.5      99   -306    146    322    353 162.0  26.0  34136  289.18 0855.18
2009/04/23 09:53:41.6      97   -209     66    231    241 155.1  16.0  34140  289.24 0855.18
2009/04/23 09:53:41.7      15   -217    102    218    240 176.0  27.0  34130  289.07 0855.18
2009/04/23 09:53:41.8       7   -364    151    365    395 178.8  23.9  34136  289.15 0855.18
2009/04/23 09:53:41.9      58   -414    209    419    468 172.0  28.5  34132  289.09 0855.18
2009/04/23 09:53:42.0      -3   -401    303    402    503 180.5  40.7  34122  288.93 0855.18
2009/04/23 09:53:42.1     -73   -346    186    354    399 192.1  30.1  34116  288.81 0855.18
2009/04/23 09:53:42.2      78   -219    239    233    333 160.2  50.8  34136  289.17 0855.18
2009/04/23 09:53:42.3     -77   -379     97    387    400 191.5  14.2  34126  288.98 0855.18
2009/04/23 09:53:42.4      38   -272     71    275    285 172.0  14.5  34138  289.19 0855.18
2009/04/23 09:53:42.5      35   -146    -31    151    155 166.6 -11.6  34128  289.02 0855.18
2009/04/23 09:53:42.6       2    -52     47     53     70 177.3  46.9  34130  289.08 0855.18
2009/04/23 09:53:42.7       0   -149    107    150    184 180.0  39.1  34136  289.16 0855.18
2009/04/23 09:53:42.8       0   -238     90    239    255 180.0  21.7  34142  289.27 0855.18
2009/04/23 09:53:42.9     -32    -74     90     81    121 203.6  53.3  34146  289.33 0855.18
2009/04/23 09:53:43.0      64    -73    137     98    168 138.6  61.1  34146  289.35 0855.18
2009/04/23 09:53:43.1     -19   -260    168    261    310 184.4  35.6  34138  289.19 0855.18
2009/04/23 09:53:43.2     -93   -334    200    347    400 195.6  32.6  34132  289.10 0855.18
2009/04/23 09:53:43.3      85   -333    274    344    439 165.6  42.7  34144  289.29 0855.18
2009/04/23 09:53:43.4     145   -318    271    350    442 155.5  41.7  34136  289.17 0855.18
2009/04/23 09:53:43.5     219   -293    106    367    383 143.2  16.1  34134  289.13 0855.18
2009/04/23 09:53:43.6      95   -330    162    344    380 163.9  27.1  34132  289.10 0855.18
2009/04/23 09:53:43.7     128   -161    175    207    271 141.5  44.5  34132  289.10 0855.18
2009/04/23 09:53:43.8     132   -129    124    185    222 134.2  37.0  34134  289.13 0855.18
2009/04/23 09:53:43.9     -40   -180    110    185    215 192.7  33.5  34132  289.09 0855.18
2009/04/23 09:53:44.0    -189    -15      9    190    191 265.2   2.9  34130  289.08 0855.18
2009/04/23 09:53:44.1    -116   -327     60    348    354 199.6   9.9  34120  288.91 0855.18
2009/04/23 09:53:44.2     -80   -182     62    200    210 203.8  17.4  34132  289.11 0855.18
2009/04/23 09:53:44.3     -69   -151     78    167    184 204.5  27.0  34128  289.04 0855.18
2009/04/23 09:53:44.4    -109   -348    -30    365    367 197.5  -4.8  34126  288.99 0855.18
2009/04/23 09:53:44.5      31   -223    221    226    316 171.9  49.4  34142  289.25 0855.18
2009/04/23 09:53:44.6     157   -264    143    308    339 149.2  26.6  34128  289.03 0855.18
2009/04/23 09:53:44.7     100   -210    220    233    320 154.5  48.4  34132  289.10 0855.18
2009/04/23 09:53:44.8      92   -199    223    220    313 155.3  50.4  34130  289.07 0855.18
2009/04/23 09:53:44.9     158   -223    103    274    292 144.6  21.5  34126  288.98 0855.18
2009/04/23 09:53:45.0     187   -244     53    308    313 142.6   9.9  34126  289.00 0855.18
2009/04/23 09:53:45.1     174   -358    115    399    416 154.1  16.1  34126  288.99 0855.18
2009/04/23 09:53:45.2     332   -284    170    437    468 130.5  22.3  34122  288.94 0855.18
2009/04/23 09:53:45.3     215   -391    382    447    587 151.1  44.9  34126  288.99 0855.18
2009/04/23 09:53:45.4     252   -345    403    428    587 143.9  48.0  34122  288.94 0855.18
2009/04/23 09:53:45.5     225   -185    280    292    404 129.5  49.0  34122  288.93 0855.18
2009/04/23 09:53:45.6     299   -174    262    346    434 120.2  40.9  34124  288.97 0855.18
2009/04/23 09:53:45.7     108   -372    256    388    464 163.7  36.5  34124  288.95 0855.18
2009/04/23 09:53:45.8     148   -403    111    430    445 159.8  14.5  34126  289.00 0855.18
2009/04/23 09:53:45.9     197   -310     17    368    369 147.6   2.8  34126  289.01 0855.18
2009/04/23 09:53:46.0     284   -238      7    371    372 130.0   1.1  34126  288.98 0855.18
2009/04/23 09:53:46.1     288   -131     62    317    324 114.4  11.1  34126  289.00 0855.18
2009/04/23 09:53:46.2     316   -171    130    360    382 118.4  20.8  34122  288.94 0855.18
2009/04/23 09:53:46.3     156   -360    250    393    465 156.5  35.5  34116  288.82 0855.18
2009/04/23 09:53:46.4     196   -275    198    338    391 144.5  33.0  34120  288.91 0855.18
2009/04/23 09:53:46.5     161   -327    139    365    390 153.7  21.8  34120  288.91 0855.18
2009/04/23 09:53:46.6     330   -214     30    394    396 123.0   4.5  34122  288.94 0855.18
2009/04/23 09:53:46.7     408   -142    -24    433    434 109.2  -3.2  34120  288.89 0855.18
2009/04/23 09:53:46.8     359   -107    111    375    392 106.7  16.5  34116  288.84 0855.18
2009/04/23 09:53:46.9     207     51     31    214    217  76.1   8.2  34124  288.97 0855.18
2009/04/23 09:53:47.0     184     46    -52    190    198  75.8 -15.5  34126  288.99 0855.18
2009/04/23 09:53:47.1     157     51     42    166    172  71.8  14.3  34124  288.97 0855.18
2009/04/23 09:53:47.2     196    -77    124    211    244 111.5  33.4  34122  288.93 0855.19
2009/04/23 09:53:47.3     164    -51    103    172    200 107.3  33.5  34126  288.99 0855.19
2009/04/23 09:53:47.4     189    -26      7    191    192  97.9   2.3  34124  288.97 0855.19
2009/04/23 09:53:47.5     197      0    -38    198    202  90.0 -10.9  34124  288.96 0855.19
2009/04/23 09:53:47.6     195    -49    -66    202    213 104.2 -18.1  34124  288.97 0855.19
2009/04/23 09:53:47.7     195      8     46    196    202  87.4  13.2  34120  288.91 0855.19
2009/04/23 09:53:47.8     184     49     76    191    205  74.9  22.8  34124  288.96 0855.19
2009/04/23 09:53:47.9     121    -65    120    138    182 118.4  45.8  34128  289.04 0855.19
2009/04/23 09:53:48.0      23     19     78     30     83  50.5  78.6  34134  289.13 0855.19
2009/04/23 09:53:48.1      -5     -1     34      6     34 251.6  90.0  34138  289.21 0855.19
2009/04/23 09:53:48.2     -17      0    104     18    105 269.2  90.0  34148  289.36 0855.19
2009/04/23 09:53:48.3      -2    -90    112     91    144 181.8  56.4  34134  289.13 0855.19
2009/04/23 09:53:48.4       0   -161    189    162    248 179.8  55.4  34128  289.04 0855.19
2009/04/23 09:53:48.5       0   -240    131    241    274 180.1  31.0  34126  289.00 0855.19
2009/04/23 09:53:48.6      46   -227    118    232    260 168.4  29.2  34126  289.00 0855.19
2009/04/23 09:53:48.7       4   -336    189    337    386 179.3  31.6  34128  289.04 0855.19
2009/04/23 09:53:48.8     -95   -287     93    303    318 198.5  17.1  34128  289.02 0855.19
2009/04/23 09:53:48.9     -14   -182    121    183    219 184.5  36.7  34122  288.92 0855.19
2009/04/23 09:53:49.0     -45   -335    209    339    398 187.7  34.6  34126  289.01 0855.19
2009/04/23 09:53:49.1      16   -374    226    375    437 177.5  34.0  34130  289.05 0855.19
2009/04/23 09:53:49.2      10   -347    221    348    412 178.3  35.5  34126  289.01 0855.20
2009/04/23 09:53:49.3       8   -392    268    393    475 178.8  37.6  34124  288.97 0855.20
2009/04/23 09:53:49.4      12   -425    332    426    540 178.3  41.9  34126  288.98 0855.20
2009/04/23 09:53:49.5      86   -423    304    432    528 168.4  38.6  34124  288.96 0855.20
2009/04/23 09:53:49.6     111   -319    225    338    406 160.8  36.7  34124  288.96 0855.20
2009/04/23 09:53:49.7     173   -520    102    549    559 161.5  10.6  34128  289.02 0855.20
2009/04/23 09:53:49.8     265   -576     -2    635    636 155.3  -0.2  34126  289.01 0855.20
2009/04/23 09:53:49.9     121   -432    160    449    476 164.3  20.4  34114  288.79 0855.20
2009/04/23 09:53:50.0     305   -347    144    463    485 138.7  17.3  34126  289.01 0855.20
2009/04/23 09:53:50.1     189   -412    304    454    546 155.4  37.0  34120  288.88 0855.20
2009/04/23 09:53:50.2      37   -166    261    171    312 167.3  64.1  34120  288.88 0855.20
2009/04/23 09:53:50.3     -56   -602    339    605    693 185.4  31.7  34122  288.94 0855.20
2009/04/23 09:53:50.4    -362   -336    -35    495    497 227.1  -4.1  34130  289.05 0855.20
2009/04/23 09:53:50.5     -48   -312    297    316    433 188.9  48.0  34120  288.89 0855.20
2009/04/23 09:53:50.6     246   -348    142    427    450 144.7  18.4  34126  289.00 0855.20
2009/04/23 09:53:50.7      32   -483    248    485    544 176.2  29.2  34130  289.07 0855.20
2009/04/23 09:53:50.8     123   -503    155    518    541 166.2  16.7  34122  288.94 0855.20
2009/04/23 09:53:50.9     160   -394     32    426    428 157.8   4.4  34124  288.95 0855.20
2009/04/23 09:53:51.0     169   -252    107    304    323 146.2  19.4  34124  288.95 0855.20
2009/04/23 09:53:51.1     124   -260    119    289    312 154.5  23.7  34128  289.03 0855.20
2009/04/23 09:53:51.2     108   -194    112    223    249 151.0  28.5  34126  289.00 0855.20
2009/04/23 09:53:51.3     138   -126    140    188    234 132.4  40.6  34126  288.99 0855.20
2009/04/23 09:53:51.4     245   -120    107    274    294 116.2  22.5  34120  288.90 0855.20
2009/04/23 09:53:51.5     133    -80    123    156    198 121.1  42.2  34126  288.99 0855.20
2009/04/23 09:53:51.6     104     14    176    105    204  82.1  66.7  34124  288.96 0855.20
2009/04/23 09:53:51.7     110   -242    180    267    322 155.5  37.2  34126  288.98 0855.20
2009/04/23 09:53:51.8     175   -346     14    388    389 153.2   2.1  34124  288.96 0855.20
2009/04/23 09:53:51.9     394    -79    -98    402    414 101.4 -13.8  34126  288.99 0855.20
2009/04/23 09:53:52.0     314     34      2    316    317  83.8   0.5  34122  288.93 0855.20
2009/04/23 09:53:52.1     188   -132    -29    230    232 125.1  -7.3  34124  288.97 0855.20
2009/04/23 09:53:52.2     200    -56    155    208    259 105.9  40.4  34126  288.98 0855.20
2009/04/23 09:53:52.3     185    -30    212    188    283  99.5  54.2  34132  289.10 0855.20
2009/04/23 09:53:52.4      21     13    162     25    163  57.6  90.0  34130  289.06 0855.20
2009/04/23 09:53:52.5       3     44    161     45    167   4.5  84.1  34134  289.14 0855.20
2009/04/23 09:53:52.6     -76      0    149     77    167 270.0  70.6  34136  289.18 0855.20
2009/04/23 09:53:52.7      92     -7    111     93    144  94.4  56.3  34132  289.11 0855.20
2009/04/23 09:53:52.8      93     88    178    129    219  46.4  60.5  34126  289.01 0855.20
2009/04/23 09:53:52.9      40     48    101     63    119  39.7  64.7  34134  289.14 0855.20
2009/04/23 09:53:53.0     -11    131     90    132    159 355.1  37.8  34130  289.08 0855.20
2009/04/23 09:53:53.1     129     42    112    136    176  71.8  43.7  34124  288.97 0855.20
2009/04/23 09:53:53.2      73    -47    189     88    208 122.9  73.1  34128  289.02 0855.20
2009/04/23 09:53:53.3    -189   -296    273    352    445 212.6  41.7  34128  289.02 0855.20
2009/04/23 09:53:53.4    -173   -351    143    392    417 206.3  20.9  34128  289.04 0855.20
2009/04/23 09:53:53.5     124   -416    118    435    451 163.3  15.3  34130  289.05 0855.20
2009/04/23 09:53:53.6     111   -111    195    157    250 135.0  56.9  34126  289.01 0855.20
2009/04/23 09:53:53.7       5    -70     97     71    120 175.5  60.5  34130  289.06 0855.20
2009/04/23 09:53:53.8     -64   -126    162    142    215 207.2  54.3  34134  289.13 0855.20
2009/04/23 09:53:53.9     -12   -267    293    268    397 182.7  53.0  34132  289.11 0855.20
2009/04/23 09:53:54.0     -29   -267    219    269    346 186.2  43.5  34132  289.09 0855.20
2009/04/23 09:53:54.1      -3    -48    124     49    133 184.5  77.6  34136  289.18 0855.20
2009/04/23 09:53:54.2      65   -158    115    171    206 157.5  37.4  34136  289.16 0855.20
2009/04/23 09:53:54.3     -11    -72     46     73     86 188.9  35.5  34132  289.09 0855.20
2009/04/23 09:53:54.4     -79      7    -11     80     81 275.2  -8.2  34136  289.16 0855.20
2009/04/23 09:53:54.5    -403    134     56    425    429 288.5   7.6  34124  288.97 0855.20
2009/04/23 09:53:54.6    -363    -94     71    376    383 255.4  10.7  34132  289.10 0855.20
2009/04/23 09:53:54.7    -203   -211    138    294    324 223.9  27.1  34130  289.05 0855.20
2009/04/23 09:53:54.8     -59   -547    298    551    626 186.2  30.8  34122  288.93 0855.20
2009/04/23 09:53:54.9    -104   -637    308    646    715 189.3  27.3  34126  289.00 0855.20
2009/04/23 09:53:55.0      52   -441    329    445    553 173.2  40.1  34132  289.09 0855.20
2009/04/23 09:53:55.1     155   -598    416    618    744 165.4  37.3  34126  289.00 0855.20
2009/04/23 09:53:55.2      83   -596    400    603    723 172.0  36.6  34126  289.00 0855.22
2009/04/23 09:53:55.3      45   -502    358    505    619 174.8  38.8  34124  288.95 0855.22
2009/04/23 09:53:55.4     409   -312    441    515    678 127.3  45.0  34136  289.15 0855.22
2009/04/23 09:53:55.5     462   -491    371    675    770 136.8  31.3  34128  289.04 0855.22
2009/04/23 09:53:55.7     395   -751    266    849    890 152.3  17.4  34126  289.01 0855.22
2009/04/23 09:53:55.8     367   -785    187    867    888 155.0  12.2  34126  288.98 0855.22
2009/04/23 09:53:55.9     361   -600    228    701    738 149.0  18.0  34130  289.06 0855.22
2009/04/23 09:53:56.0     259   -599    323    653    728 156.6  28.2  34132  289.11 0855.22
2009/04/23 09:53:56.1     131   -619    399    633    748 168.0  35.3  34126  289.01 0855.22
2009/04/23 09:53:56.2      40   -514    295    516    594 175.5  32.3  34134  289.12 0855.22
2009/04/23 09:53:56.3      59   -448    163    452    480 172.4  20.7  34136  289.18 0855.22
2009/04/23 09:53:56.4      85   -572    124    579    593 171.5  12.2  34122  288.93 0855.22
2009/04/23 09:53:56.5      24   -498    303    499    583 177.2  34.1  34124  288.96 0855.22
2009/04/23 09:53:56.6     -62   -354    259    360    443 190.0  39.3  34136  289.17 0855.22
2009/04/23 09:53:56.7      31   -400    -30    402    404 175.5  -4.4  34128  289.04 0855.22
2009/04/23 09:53:56.8     103   -416    -16    429    430 166.1  -2.2  34134  289.12 0855.22
2009/04/23 09:53:56.9    -114   -392    237    409    472 196.3  32.8  34136  289.17 0855.22
2009/04/23 09:53:57.0    -191   -328    128    380    402 210.3  18.6  34138  289.20 0855.22
2009/04/23 09:53:57.1     -66   -282     58    290    296 193.3  11.4  34142  289.27 0855.22
2009/04/23 09:53:57.2     -86   -361    -26    372    373 193.5  -4.0  34136  289.18 0855.22
2009/04/23 09:53:57.3      -2   -178    -23    179    181 180.7  -7.5  34118  288.86 0855.22
2009/04/23 09:53:57.4     -78    -73     49    108    118 226.8  25.7  34142  289.28 0855.22
2009/04/23 09:53:57.5     -56      0     74     57     93 270.0  57.9  34144  289.30 0855.22
2009/04/23 09:53:57.6      37    -20     52     43     67 118.9  56.3  34148  289.36 0855.22
2009/04/23 09:53:57.7      24      0    123     25    125  90.0  89.0  34156  289.50 0855.22
2009/04/23 09:53:57.8     151   -161    107    222    246 136.8  27.3  34146  289.34 0855.22
2009/04/23 09:53:57.9     157   -171    136    233    269 137.5  32.9  34140  289.22 0855.22
2009/04/23 09:53:58.0       2   -249    165    250    299 179.5  36.5  34140  289.24 0855.22
2009/04/23 09:53:58.1      22   -207    183    209    277 173.7  45.8  34148  289.36 0855.22
2009/04/23 09:53:58.2      23   -210    180    212    278 173.5  44.8  34148  289.36 0855.22
2009/04/23 09:53:58.3      29   -271    104    273    292 173.8  21.7  34138  289.19 0855.22
2009/04/23 09:53:58.4      48   -254    116    259    283 169.1  25.9  34142  289.27 0855.22
2009/04/23 09:53:58.5      24   -229     27    231    233 174.0   6.7  34142  289.28 0855.22
2009/04/23 09:53:58.6     214    -71      3    226    227 108.6   1.0  34144  289.30 0855.22
2009/04/23 09:53:58.7     254   -115     46    280    284 114.4   9.3  34146  289.34 0855.22
2009/04/23 09:53:58.8     236   -145     96    278    295 121.6  19.2  34144  289.31 0855.22
2009/04/23 09:53:58.9     182   -163     81    245    259 131.8  18.4  34148  289.36 0855.22
2009/04/23 09:53:59.0     186   -201    112    275    296 137.2  23.1  34144  289.29 0855.22
2009/04/23 09:53:59.1     181   -321    152    369    399 150.6  23.6  34138  289.21 0855.22
2009/04/23 09:53:59.2     160   -295    129    336    359 151.4  21.8  34138  289.20 0855.22
2009/04/23 09:53:59.3     150   -313    197    348    399 154.4  32.1  34132  289.10 0855.23
2009/04/23 09:53:59.4     248   -381    250    456    520 146.9  31.3  34136  289.15 0855.23
2009/04/23 09:53:59.5     114   -551    201    563    597 168.2  20.4  34136  289.17 0855.23
2009/04/23 09:53:59.6     124   -565    129    579    594 167.6  12.6  34132  289.10 0855.23
2009/04/23 09:53:59.7     188   -295     48    351    355 147.5   7.9  34136  289.18 0855.23
2009/04/23 09:53:59.8     143   -494    100    515    525 163.9  11.0  34132  289.09 0855.23
2009/04/23 09:53:59.9     100   -459    119    470    486 167.6  14.3  34136  289.15 0855.23
2009/04/23 09:54:00.0     173   -578    189    604    634 163.3  17.4  34142  289.28 0855.23
2009/04/23 09:54:00.1     213   -505    199    549    583 157.1  20.9  34136  289.17 0855.23
2009/04/23 09:54:00.2     216   -482    185    529    561 155.8  19.3  34136  289.18 0855.23
2009/04/23 09:54:00.3     190   -454    158    493    518 157.3  17.8  34134  289.12 0855.24
2009/04/23 09:54:00.4     116   -398    113    415    431 163.7  15.3  34138  289.19 0855.24
2009/04/23 09:54:00.5     123   -362     12    383    384 161.2   1.9  34140  289.23 0855.24
2009/04/23 09:54:00.6     101   -319     25    335    336 162.4   4.3  34146  289.35 0855.24
2009/04/23 09:54:00.7      20   -363     78    364    373 176.8  12.1  34146  289.35 0855.24
2009/04/23 09:54:00.8     136   -489    201    508    546 164.4  22.8  34142  289.26 0855.24
2009/04/23 09:54:00.9       6   -433    173    434    467 179.1  23.0  34136  289.17 0855.24
2009/04/23 09:54:01.0     -82   -394    167    403    436 191.8  23.8  34142  289.26 0855.24
2009/04/23 09:54:01.1      54   -337    158    342    376 170.9  26.6  34138  289.21 0855.24
2009/04/23 09:54:01.2     241   -187    146    306    339 127.8  27.3  34146  289.32 0855.24
2009/04/23 09:54:01.3     301   -190     72    357    365 122.3  11.4  34146  289.32 0855.24
2009/04/23 09:54:01.4     271   -263    155    378    408 134.1  23.5  34144  289.30 0855.24
2009/04/23 09:54:01.5     172   -328    130    371    393 152.3  20.0  34142  289.28 0855.24
2009/04/23 09:54:01.6     227   -259    104    345    361 138.8  16.8  34142  289.28 0855.24
2009/04/23 09:54:01.7     224   -295    213    371    427 142.8  32.6  34142  289.27 0855.24
2009/04/23 09:54:01.8     294   -245    189    383    427 129.8  28.2  34138  289.19 0855.24
2009/04/23 09:54:01.9     190   -421    314    463    559 155.7  37.4  34134  289.14 0855.24
2009/04/23 09:54:02.0    -121   -324     62    347    353 200.6  10.2  34136  289.15 0855.24
2009/04/23 09:54:02.1    -342   -412    126    536    551 219.7  13.2  34140  289.23 0855.24
2009/04/23 09:54:02.2    -209   -390    194    443    483 208.3  25.2  34136  289.18 0855.24
2009/04/23 09:54:02.3    -182   -352    152    397    425 207.3  22.0  34136  289.16 0855.25
2009/04/23 09:54:02.4    -186   -274    123    332    354 214.3  21.3  34152  289.42 0855.25
2009/04/23 09:54:02.5     -41   -224     71    228    240 190.5  17.4  34146  289.32 0855.25
2009/04/23 09:54:02.6     118     -5     28    119    123  92.6  13.2  34140  289.23 0855.25
2009/04/23 09:54:02.7     325    -48     58    329    335  98.5  10.1  34146  289.32 0855.25
2009/04/23 09:54:02.8     217    -32    182    220    285  98.6  43.8  34144  289.31 0855.25
2009/04/23 09:54:02.9     179      0    210    180    276  90.0  55.0  34152  289.44 0855.25
2009/04/23 09:54:03.0     163    118    204    202    287  54.0  50.1  34148  289.36 0855.25
2009/04/23 09:54:03.1     120    -93    176    152    232 127.8  54.8  34148  289.38 0855.25
2009/04/23 09:54:03.2     136   -182    113    228    254 143.3  28.2  34140  289.22 0855.25
2009/04/23 09:54:03.3       0   -195     38    196    200 180.2  11.1  34144  289.30 0855.25
2009/04/23 09:54:03.4     -15   -195    -13    196    197 184.5  -3.9  34142  289.28 0855.25
2009/04/23 09:54:03.5     -20   -248     91    249    265 184.7  21.0  34144  289.31 0855.25
2009/04/23 09:54:03.6    -157   -190    134    247    281 219.7  31.0  34150  289.39 0855.25
2009/04/23 09:54:03.7    -196   -133    130    238    271 235.8  31.3  34150  289.41 0855.25
2009/04/23 09:54:03.8    -132    -34    176    137    223 255.4  58.5  34148  289.38 0855.25
2009/04/23 09:54:03.9     -22    -66    166     70    180 198.7  76.1  34152  289.45 0855.25
2009/04/23 09:54:04.0     -67   -234    151    244    286 196.0  34.8  34150  289.39 0855.25
2009/04/23 09:54:04.1    -127   -154    214    200    292 219.6  52.2  34154  289.47 0855.25
2009/04/23 09:54:04.2    -145   -191    115    240    266 217.2  27.3  34154  289.46 0855.25
2009/04/23 09:54:04.3    -166   -166     81    235    249 225.0  19.2  34148  289.36 0855.26
2009/04/23 09:54:04.4    -198   -150     98    249    267 232.9  22.8  34150  289.39 0855.26
2009/04/23 09:54:04.5     -77   -213    214    227    311 200.0  48.4  34144  289.31 0855.26
2009/04/23 09:54:04.6     -69   -228    295    239    379 196.9  56.8  34146  289.35 0855.26
2009/04/23 09:54:04.7     -84   -252    264    266    374 198.5  50.0  34148  289.37 0855.26
2009/04/23 09:54:04.8    -117   -209    179    240    299 209.2  40.4  34148  289.36 0855.26
2009/04/23 09:54:04.9      58    -79    163     99    190 143.5  65.7  34148  289.38 0855.26
2009/04/23 09:54:05.0      95     12    131     96    162  82.5  60.3  34152  289.43 0855.26
2009/04/23 09:54:05.1      59    -22     88     64    108 110.8  60.5  34154  289.48 0855.26
2009/04/23 09:54:05.2       5    -10     87     12     87 154.6  90.0  34154  289.48 0855.26
2009/04/23 09:54:05.3      13     21     13     26     29  32.5  27.2  34152  289.43 0855.26
2009/04/23 09:54:05.4     -95     95      6    135    136 315.0   2.9  34146  289.35 0855.26
2009/04/23 09:54:05.5    -120    193    141    228    268 328.1  34.8  34144  289.31 0855.26
2009/04/23 09:54:05.6     100    120    114    157    194  39.7  39.5  34152  289.43 0855.26
2009/04/23 09:54:05.7      33    172    159    176    237  10.9  46.9  34162  289.60 0855.26
2009/04/23 09:54:05.8      36    224    157    228    276   9.3  37.6  34174  289.81 0855.26
2009/04/23 09:54:05.9     -42    190     98    195    218 347.5  28.7  34170  289.75 0855.26
2009/04/23 09:54:06.0     -15    203    134    204    244 355.5  36.5  34178  289.89 0855.26
2009/04/23 09:54:06.1      39    153    131    158    205  14.3  43.8  34182  289.96 0855.26
2009/04/23 09:54:06.2       3     98    129     99    162   1.8  58.7  34172  289.77 0855.26
2009/04/23 09:54:06.3     -46      3     99     47    109 274.4  72.9  34166  289.69 0855.23
2009/04/23 09:54:06.4    -111     96    103    147    179 310.9  38.6  34160  289.58 0855.23
2009/04/23 09:54:06.5    -103     86     96    135    165 309.6  38.8  34176  289.84 0855.23
2009/04/23 09:54:06.6     -81    136     85    159    180 329.2  30.6  34200  290.26 0855.23
2009/04/23 09:54:06.7    -114     41    115    122    167 289.9  48.2  34198  290.23 0855.23
2009/04/23 09:54:06.8     -57      3     73     58     93 273.5  56.9  34202  290.30 0855.23
2009/04/23 09:54:06.9      45    -30     88     55    103 123.3  64.7  34170  289.75 0855.23
2009/04/23 09:54:07.0      93      7    123     94    154  85.6  58.5  34168  289.72 0855.23
2009/04/23 09:54:07.1      30    -23     92     38     99 127.8  77.0  34172  289.77 0855.23
2009/04/23 09:54:07.2     -25   -124    116    127    172 191.6  47.1  34166  289.69 0855.23
2009/04/23 09:54:07.3    -161   -240     18    290    291 213.8   3.6  34154  289.46 0855.23
2009/04/23 09:54:07.4    -134   -259    -58    292    298 207.4 -11.3  34146  289.32 0855.23
2009/04/23 09:54:07.5     -85   -297   -149    310    343 196.1 -31.7  34138  289.20 0855.23
2009/04/23 09:54:07.6    -154   -274     -8    315    316 209.4  -1.6  34138  289.19 0855.23
2009/04/23 09:54:07.7     -80   -393    -94    402    413 191.6 -13.3  34140  289.22 0855.23
2009/04/23 09:54:07.8    -137   -222    -97    262    279 211.7 -25.4  34124  288.95 0855.23
2009/04/23 09:54:07.9    -418     40     44    421    424 275.6   6.0  34122  288.94 0855.23
2009/04/23 09:54:08.0    -442    -33    136    444    465 265.6  17.0  34132  289.11 0855.23
2009/04/23 09:54:08.1    -505   -105   -142    516    535 258.2 -20.0  34126  288.99 0855.23
2009/04/23 09:54:08.2    -359   -239   -140    432    454 236.4 -23.2  34130  289.07 0855.23
2009/04/23 09:54:08.3    -331   -338   -127    474    491 224.4 -15.0  34130  289.05 0855.16
2009/04/23 09:54:08.4    -348   -478    -11    592    593 216.1  -1.1  34130  289.07 0855.16
2009/04/23 09:54:08.5    -495   -291    -72    575    580 239.6  -7.2  34138  289.19 0855.16
2009/04/23 09:54:08.6    -356   -242    132    431    451 235.8  17.0  34148  289.36 0855.16
2009/04/23 09:54:08.7    -382   -215      7    439    440 240.6   1.0  34146  289.34 0855.16
2009/04/23 09:54:08.8    -425   -293     36    517    519 235.4   4.0  34160  289.57 0855.16
2009/04/23 09:54:08.9    -463   -336    -77    573    579 234.0  -7.7  34114  288.80 0855.16
2009/04/23 09:54:09.0    -504   -313    -98    594    603 238.1  -9.4  34122  288.92 0855.16
2009/04/23 09:54:09.1    -549   -307    -91    630    637 240.8  -8.2  34120  288.91 0855.16
2009/04/23 09:54:09.2    -475   -344    -91    587    594 234.1  -8.8  34128  289.03 0855.16
2009/04/23 09:54:09.3    -474   -421   -165    635    657 228.4 -14.6  34124  288.96 0855.16
2009/04/23 09:54:09.4    -474   -444   -161    650    670 226.9 -13.9  34122  288.94 0855.16
2009/04/23 09:54:09.5    -518   -587      9    784    785 221.4   0.7  34130  289.08 0855.16
2009/04/23 09:54:09.6    -396   -566     12    692    693 215.0   1.0  34130  289.07 0855.16
2009/04/23 09:54:09.7    -389   -492   -106    628    637 218.3  -9.6  34120  288.89 0855.16
2009/04/23 09:54:09.8    -430   -479   -111    645    655 221.9  -9.8  34120  288.91 0855.16
2009/04/23 09:54:09.9    -447   -481   -133    657    671 222.9 -11.5  34124  288.97 0855.16
2009/04/23 09:54:10.0    -459   -532   -164    704    723 220.8 -13.1  34122  288.93 0855.16
2009/04/23 09:54:10.1    -361   -453   -129    580    595 218.6 -12.6  34124  288.95 0855.16
2009/04/23 09:54:10.2    -127   -323    -79    348    357 201.5 -12.9  34128  289.04 0855.16
2009/04/23 09:54:10.3     -87   -291    173    304    349 196.7  32.3  34142  289.25 0855.14
2009/04/23 09:54:10.4    -282   -441     26    524    525 212.6   2.9  34146  289.35 0855.14
2009/04/23 09:54:10.5    -295   -433    123    525    540 214.3  13.2  34130  289.07 0855.14
2009/04/23 09:54:10.6    -286   -520    -64    594    598 208.9  -6.2  34126  289.00 0855.14
2009/04/23 09:54:10.7    -343   -468   -105    581    591 216.2 -10.3  34126  288.98 0855.14
2009/04/23 09:54:10.8    -269   -564     13    625    626 205.5   1.2  34122  288.93 0855.14
2009/04/23 09:54:10.9    -175   -646      8    670    671 195.2   0.7  34130  289.07 0855.14
2009/04/23 09:54:11.0    -191   -533    116    567    579 199.8  11.6  34124  288.95 0855.14
2009/04/23 09:54:11.1    -171   -353      3    393    394 205.9   0.5  34122  288.94 0855.14
2009/04/23 09:54:11.2    -194   -172     23    260    262 228.4   5.2  34122  288.93 0855.14
2009/04/23 09:54:11.3      -8   -131     73    132    150 183.6  31.4  34130  289.08 0855.14
2009/04/23 09:54:11.4      58   -201   -108    210    236 164.0 -33.7  34126  288.99 0855.14
2009/04/23 09:54:11.5    -139    -60   -204    152    254 246.4 -64.0  34126  289.01 0855.14
2009/04/23 09:54:11.6    -278    -94    -32    294    296 251.2  -6.2  34126  289.00 0855.14
2009/04/23 09:54:11.7    -294   -128    -71    321    329 246.5 -12.6  34124  288.95 0855.14
2009/04/23 09:54:11.8    -208    -74     87    221    237 250.3  22.8  34126  289.00 0855.14
2009/04/23 09:54:11.9     -51   -397    139    401    425 187.4  19.2  34126  288.99 0855.14
2009/04/23 09:54:12.0    -201   -425    109    471    484 205.3  13.1  34128  289.03 0855.14
2009/04/23 09:54:12.1     -91   -410    114    421    437 192.6  15.2  34122  288.92 0855.14
2009/04/23 09:54:12.2     -76   -401    140    409    433 190.8  18.9  34128  289.02 0855.14
2009/04/23 09:54:12.3     -72   -358     48    366    370 191.4   7.5  34120  288.91 0855.15
2009/04/23 09:54:12.4    -122   -339    -10    361    362 199.8  -1.6  34128  289.03 0855.15
2009/04/23 09:54:12.5    -286   -407    -35    498    500 215.1  -4.0  34132  289.10 0855.15
2009/04/23 09:54:12.6    -225    -95    -13    245    246 247.2  -3.2  34130  289.07 0855.15
2009/04/23 09:54:12.7    -161   -123     39    203    207 232.7  11.1  34136  289.16 0855.15
2009/04/23 09:54:12.8     -65   -118    -48    136    145 209.0 -19.7  34132  289.09 0855.15
2009/04/23 09:54:12.9      58   -223    -64    231    240 165.3 -15.5  34132  289.09 0855.15
2009/04/23 09:54:13.0      34   -314   -103    316    332 173.8 -23.3  34134  289.12 0855.15
2009/04/23 09:54:13.1     104   -377    -21    392    393 164.5  -3.2  34126  288.99 0855.15
2009/04/23 09:54:13.2      75   -342    -80    351    361 167.5 -12.9  34128  289.03 0855.15
2009/04/23 09:54:13.3      30   -219     28    222    224 172.0   7.2  34130  289.06 0855.15
2009/04/23 09:54:13.4     -30   -206    108    209    235 188.5  29.3  34126  289.01 0855.15
2009/04/23 09:54:13.5     -95   -207    176    228    288 204.7  41.7  34126  288.98 0855.15
2009/04/23 09:54:13.6    -156   -148     98    216    237 226.4  26.2  34128  289.02 0855.15
2009/04/23 09:54:13.7    -110   -139    133    178    222 218.3  40.1  34130  289.06 0855.15
2009/04/23 09:54:13.8    -116   -136    146    179    230 220.5  43.7  34134  289.14 0855.15
2009/04/23 09:54:13.9     -87   -124     85    152    174 215.2  31.9  34134  289.13 0855.15
2009/04/23 09:54:14.0      32   -119     69    124    141 164.8  31.4  34138  289.21 0855.15
2009/04/23 09:54:14.1       0   -255     50    256    261 179.8  11.1  34134  289.12 0855.15
2009/04/23 09:54:14.2      78   -220      2    234    235 160.4   0.5  34132  289.09 0855.15
2009/04/23 09:54:14.3      93   -109    -51    144    154 139.5 -19.7  34142  289.26 0855.15
2009/04/23 09:54:14.4     -30   -219    104    222    245 187.8  27.1  34140  289.24 0855.15
2009/04/23 09:54:14.5     -32   -233    -65    236    245 188.0 -15.4  34134  289.12 0855.15
2009/04/23 09:54:14.6     -98   -101    -28    141    144 224.1 -11.3  34134  289.13 0855.15
2009/04/23 09:54:14.7     -77   -471    -57    478    482 189.4  -6.8  34130  289.08 0855.15
2009/04/23 09:54:14.8    -128   -397     -1    418    419 197.9  -0.3  34130  289.07 0855.15
2009/04/23 09:54:14.9    -125   -349    -77    371    380 199.8 -11.8  34134  289.13 0855.15
2009/04/23 09:54:15.0      43   -307     -4    311    312 172.0  -0.9  34132  289.10 0855.15
2009/04/23 09:54:15.1      87   -166    103    188    214 152.4  31.3  34136  289.16 0855.15
2009/04/23 09:54:15.2      87   -148     96    172    196 149.5  31.6  34134  289.13 0855.15
2009/04/23 09:54:15.3     156   -246     62    292    299 147.5  12.0  34132  289.09 0855.15
2009/04/23 09:54:15.4      93   -242    139    260    294 158.8  30.3  34134  289.14 0855.15
2009/04/23 09:54:15.5      85   -246    105    261    281 160.9  23.0  34134  289.12 0855.15
2009/04/23 09:54:15.6      61   -200      2    210    211 163.1   0.8  34134  289.14 0855.15
2009/04/23 09:54:15.7      93   -209     -7    230    231 155.9  -1.8  34134  289.14 0855.15
2009/04/23 09:54:15.8      32   -204     13    207    208 170.9   3.8  34134  289.13 0855.15
2009/04/23 09:54:15.9      41   -376    146    379    406 173.8  22.1  34136  289.18 0855.15
2009/04/23 09:54:16.0      34   -393     33    395    397 174.9   4.9  34132  289.10 0855.15
2009/04/23 09:54:16.1     -26   -373     75    374    382 184.0  11.3  34136  289.16 0855.15
2009/04/23 09:54:16.2       8   -474    -38    475    477 179.0  -4.6  34136  289.15 0855.15
2009/04/23 09:54:16.3      58   -501     12    505    506 173.3   1.4  34136  289.17 0855.16
2009/04/23 09:54:16.4     -20   -429     -1    430    431 182.7  -0.3  34138  289.21 0855.16
2009/04/23 09:54:16.5     -34   -473     72    475    481 184.1   8.7  34142  289.25 0855.16
2009/04/23 09:54:16.6     -64   -449     81    454    462 188.1  10.1  34142  289.26 0855.16
2009/04/23 09:54:16.7     -46   -421     58    424    428 186.3   7.8  34138  289.21 0855.16
2009/04/23 09:54:16.8     -75   -476    185    482    516 189.0  22.1  34142  289.25 0855.16
2009/04/23 09:54:16.9      72   -360     79    368    377 168.6  12.2  34136  289.16 0855.16
2009/04/23 09:54:17.0     128   -332     73    357    365 158.8  11.6  34132  289.10 0855.16
2009/04/23 09:54:17.1     125   -398      3    418    419 162.5   0.5  34138  289.19 0855.16
2009/04/23 09:54:17.2      90   -293    156    307    344 162.8  28.9  34138  289.21 0855.16
2009/04/23 09:54:17.3     153   -224    176    272    323 145.7  35.9  34138  289.19 0855.16
2009/04/23 09:54:17.4     111   -153    172    190    256 143.9  47.0  34140  289.24 0855.16
2009/04/23 09:54:17.5     124   -254    243    283    373 153.9  45.1  34130  289.08 0855.16
2009/04/23 09:54:17.6     123   -364    245    385    456 161.3  35.5  34138  289.19 0855.16
2009/04/23 09:54:17.7     111   -356    214    374    430 162.6  32.3  34140  289.22 0855.16
2009/04/23 09:54:17.8     138   -353    172    380    417 158.6  26.2  34134  289.14 0855.16
2009/04/23 09:54:17.9     128   -320    136    345    370 158.1  22.8  34136  289.15 0855.16
2009/04/23 09:54:18.0      64   -336    199    343    396 169.2  32.8  34134  289.13 0855.16
2009/04/23 09:54:18.1      86   -330    216    342    404 165.4  35.5  34138  289.21 0855.16
2009/04/23 09:54:18.2     -17   -328    185    329    377 183.0  31.7  34136  289.18 0855.16
2009/04/23 09:54:18.3     -32   -393    247    395    465 184.7  35.2  34136  289.17 0855.19
2009/04/23 09:54:18.4     -67   -331    226    338    406 191.6  36.9  34138  289.20 0855.19
2009/04/23 09:54:18.5     -19   -310    183    311    360 183.6  33.4  34142  289.25 0855.19
2009/04/23 09:54:18.6       8   -262    216    263    340 178.2  43.7  34144  289.29 0855.19
2009/04/23 09:54:18.7     -67   -363    131    370    393 190.5  19.6  34138  289.20 0855.19
2009/04/23 09:54:18.8    -101   -357     72    372    379 195.9  11.0  34138  289.21 0855.19
2009/04/23 09:54:18.9     -92   -353     56    365    370 194.7   8.8  34140  289.23 0855.19
2009/04/23 09:54:19.0     -67   -286     14    294    295 193.3   2.9  34138  289.19 0855.19
2009/04/23 09:54:19.1      24   -203     13    205    206 173.1   3.8  34138  289.21 0855.19
2009/04/23 09:54:19.2      74   -213    149    226    270 160.8  36.3  34138  289.20 0855.19
2009/04/23 09:54:19.3      33    -39    149     52    157 139.5  80.2  34148  289.36 0855.19
2009/04/23 09:54:19.4       4   -100    173    101    200 177.3  67.0  34148  289.36 0855.19
2009/04/23 09:54:19.5      52    -82    110     98    147 147.4  53.7  34148  289.38 0855.19
2009/04/23 09:54:19.6     129   -236    130    270    299 151.3  27.3  34140  289.24 0855.19
2009/04/23 09:54:19.7      77   -230    127    243    274 161.3  29.5  34140  289.24 0855.19
2009/04/23 09:54:19.8     119   -185    122    221    252 147.3  31.4  34140  289.22 0855.19
2009/04/23 09:54:19.9     119   -189     72    224    236 147.9  17.9  34142  289.28 0855.19
2009/04/23 09:54:20.0     150   -213    196    261    326 144.8  40.7  34140  289.24 0855.19
2009/04/23 09:54:20.1      94   -206     86    227    242 155.5  21.7  34144  289.29 0855.19
2009/04/23 09:54:20.2     141   -238    204    277    344 149.3  40.0  34140  289.22 0855.19
2009/04/23 09:54:20.3     144   -303    200    336    391 154.5  33.5  34142  289.28 0855.21
2009/04/23 09:54:20.4     150   -315    198    349    401 154.5  32.1  34144  289.30 0855.21
2009/04/23 09:54:20.5     141   -275    206    310    372 152.8  36.7  34142  289.26 0855.21
2009/04/23 09:54:20.6     151   -200    235    251    343 143.0  48.0  34144  289.31 0855.21
2009/04/23 09:54:20.7      38     46    157     61    168  39.7  77.8  34146  289.35 0855.21
2009/04/23 09:54:20.8     275   -128    281    304    413 115.1  47.7  34136  289.15 0855.21
2009/04/23 09:54:20.9     281   -198    142    344    372 125.2  23.7  34136  289.15 0855.21
2009/04/23 09:54:21.0      90   -228    124    246    275 158.4  29.1  34138  289.20 0855.21
2009/04/23 09:54:21.1      95   -228     21    248    249 157.3   5.0  34146  289.34 0855.21
2009/04/23 09:54:21.2      64   -213     94    223    242 163.3  24.1  34142  289.25 0855.21
2009/04/23 09:54:21.3      85   -337    123    348    370 165.7  19.6  34146  289.32 0855.21
2009/04/23 09:54:21.4      50   -279    143    284    317 169.8  28.7  34140  289.24 0855.21
2009/04/23 09:54:21.5     105   -473    156    485    510 167.4  17.9  34126  289.01 0855.21
2009/04/23 09:54:21.6     -58   -416    162    421    451 188.0  22.2  34128  289.02 0855.21
2009/04/23 09:54:21.7     -29   -404    135    406    428 184.2  18.4  34132  289.09 0855.21
2009/04/23 09:54:21.8     -14   -378    177    379    418 182.2  27.0  34130  289.07 0855.21
2009/04/23 09:54:22.0      87   -445    199    454    495 168.9  25.1  34126  289.01 0855.21
2009/04/23 09:54:22.1      39   -419    148    421    446 174.6  20.0  34132  289.11 0855.21
2009/04/23 09:54:22.1     -23   -378    168    379    414 183.6  25.3  34130  289.07 0855.21
2009/04/23 09:54:22.3     -60   -341    170    347    386 190.0  27.9  34130  289.06 0855.21
2009/04/23 09:54:22.4     -27   -321    110    323    342 184.9  18.9  34130  289.06 0855.21
2009/04/23 09:54:22.5      -9   -332    125    333    355 181.7  21.5  34126  289.01 0855.21
2009/04/23 09:54:22.6     -64   -314    155    321    356 191.6  27.8  34126  288.99 0855.21
2009/04/23 09:54:22.7      -8   -271    110    272    293 181.8  23.1  34126  288.98 0855.21
2009/04/23 09:54:22.8      67   -217    102    228    249 162.8  25.9  34130  289.05 0855.21
2009/04/23 09:54:22.9      48   -173    148    180    233 164.2  43.7  34132  289.09 0855.21
2009/04/23 09:54:23.0       2   -142    146    143    204 179.1  50.2  34140  289.23 0855.21
2009/04/23 09:54:23.1     -37   -142    155    147    213 194.7  51.4  34136  289.18 0855.21
2009/04/23 09:54:23.2      85     -7    139     86    163  95.2  65.1  34136  289.16 0855.21
2009/04/23 09:54:23.3     109     46     94    119    151  66.9  42.7  34138  289.19 0855.21
2009/04/23 09:54:23.4      51    108     98    120    154  25.5  43.7  34140  289.23 0855.21
2009/04/23 09:54:23.5    -134    -10    102    135    169 265.7  40.9  34144  289.31 0855.21
2009/04/23 09:54:23.6     -46    -19     71     50     86 247.4  61.5  34142  289.28 0855.21
2009/04/23 09:54:23.7       7     92    107     93    141   4.4  54.3  34136  289.16 0855.21
2009/04/23 09:54:23.8     -19    255    125    256    284 355.5  27.8  34146  289.32 0855.21
2009/04/23 09:54:23.9      42    201    164    206    263  12.0  42.7  34140  289.24 0855.21
2009/04/23 09:54:24.0      91    208    125    228    260  23.6  31.3  34140  289.22 0855.21
2009/04/23 09:54:24.1      44    139     90    146    171  17.8  34.8  34136  289.18 0855.21
2009/04/23 09:54:24.2      31    122     92    126    156  14.3  39.7  34136  289.16 0855.21
2009/04/23 09:54:24.3      24    111    119    114    164  12.5  50.9  34150  289.41 0855.21
2009/04/23 09:54:24.4      41     46     66     62     90  41.4  51.6  34150  289.40 0855.21
2009/04/23 09:54:24.5      -3    -45    112     46    121 184.4  76.6  34162  289.60 0855.21
2009/04/23 09:54:24.6     -23     49    133     55    143 334.6  77.0  34152  289.45 0855.21
2009/04/23 09:54:24.7    -147     20    140    149    204 278.0  48.2  34140  289.23 0855.21
2009/04/23 09:54:24.8     -51    119    222    130    257 336.8  67.0  34140  289.23 0855.21
2009/04/23 09:54:24.9     -81    134    185    157    242 328.8  55.4  34136  289.18 0855.21
2009/04/23 09:54:25.0     -51   -116    126    127    178 203.7  50.0  34132  289.09 0855.21
2009/04/23 09:54:25.1    -122   -258    292    286    408 205.3  50.6  34130  289.06 0855.21
2009/04/23 09:54:25.2     -60   -198    245    208    321 196.9  55.4  34132  289.10 0855.21
2009/04/23 09:54:25.3       8    -77    121     78    143 173.8  64.6  34136  289.16 0855.21
2009/04/23 09:54:25.4      56    -62    132     84    156 137.7  64.7  34140  289.23 0855.22
2009/04/23 09:54:25.5      -5   -106    144    107    179 182.7  60.0  34140  289.24 0855.22
2009/04/23 09:54:25.6      -2     56    130     57    141 357.3  75.0  34142  289.28 0855.22
2009/04/23 09:54:25.7       3    -22    105     23    107 172.0  88.5  34144  289.30 0855.22
2009/04/23 09:54:25.8    -102   -132    143    168    220 217.8  44.8  34136  289.16 0855.22
2009/04/23 09:54:25.9     -36   -188     67    192    204 191.1  19.2  34132  289.09 0855.22
2009/04/23 09:54:26.0     -90   -146     70    172    185 211.6  23.1  34132  289.11 0855.22
2009/04/23 09:54:26.1     -91   -149     48    175    182 211.4  15.3  34134  289.14 0855.22
2009/04/23 09:54:26.2     -40    -27     57     49     75 235.8  55.4  34136  289.18 0855.22
2009/04/23 09:54:26.3     -62    -39    224     74    235 237.6  81.0  34142  289.28 0855.22
2009/04/23 09:54:26.4    -133   -325    261    352    438 202.3  40.2  34138  289.21 0855.22
2009/04/23 09:54:26.5    -271   -350    323    443    548 217.7  39.7  34140  289.22 0855.22
2009/04/23 09:54:26.6    -225   -272    237    354    426 219.6  36.9  34132  289.11 0855.22
2009/04/23 09:54:26.7    -114   -267    359    291    462 203.2  56.8  34132  289.09 0855.22
2009/04/23 09:54:26.8     -84   -227    351    243    426 200.5  62.1  34130  289.08 0855.22
2009/04/23 09:54:26.9     -83   -226    328    242    407 200.3  60.0  34128  289.04 0855.22
2009/04/23 09:54:27.0    -174   -311    289    357    459 209.2  43.4  34126  289.00 0855.22
2009/04/23 09:54:27.1    -190   -218    171    290    336 221.2  33.1  34126  289.00 0855.22
2009/04/23 09:54:27.2      46   -292    178    296    345 170.9  34.0  34132  289.10 0855.22
2009/04/23 09:54:27.3      89   -292    284    306    417 163.1  47.9  34130  289.08 0855.22
2009/04/23 09:54:27.4      41   -139    230    145    271 163.5  64.7  34138  289.20 0855.20
2009/04/23 09:54:27.5     -37   -219    302    223    375 189.6  60.3  34136  289.16 0855.20
2009/04/23 09:54:27.6      -2   -159    156    160    223 180.9  49.8  34130  289.06 0855.20
2009/04/23 09:54:27.7      10    -86    101     87    133 173.3  54.3  34134  289.14 0855.20
2009/04/23 09:54:27.8       7   -237     98    238    257 178.2  23.6  34130  289.05 0855.20
2009/04/23 09:54:27.9     -49   -204     79    210    224 193.6  21.3  34132  289.11 0855.20
2009/04/23 09:54:28.0     -41   -265     82    269    282 188.9  17.1  34132  289.10 0855.20
2009/04/23 09:54:28.1      15   -205    -33    206    209 175.8  -9.3  34128  289.04 0855.20
2009/04/23 09:54:28.2    -140   -212    -73    255    266 213.4 -16.0  34130  289.07 0855.20
2009/04/23 09:54:28.3    -140   -148    202    204    287 223.4  50.0  34136  289.17 0855.20
2009/04/23 09:54:28.4     -84    -24     44     88     98 253.6  28.2  34134  289.14 0855.20
2009/04/23 09:54:28.5      31    -19     19     37     41 122.5  29.3  34140  289.23 0855.20
2009/04/23 09:54:28.6      87      7     77     88    116  85.2  45.8  34138  289.19 0855.20
2009/04/23 09:54:28.7     127    -25     40    130    137 101.4  17.3  34140  289.23 0855.20
2009/04/23 09:54:28.8     147    -58    136    159    209 111.7  44.8  34134  289.14 0855.20
2009/04/23 09:54:28.9     170     47     99    177    202  74.3  31.9  34136  289.16 0855.20
2009/04/23 09:54:29.0     269    107    -15    290    291  68.2  -3.1  34140  289.24 0855.20
2009/04/23 09:54:29.1      96   -150     65    179    190 147.5  20.4  34138  289.19 0855.20
2009/04/23 09:54:29.2      17   -311     79    312    322 176.9  14.3  34132  289.09 0855.20
2009/04/23 09:54:29.3     -74   -254     89    265    280 196.3  18.6  34132  289.09 0855.20
2009/04/23 09:54:29.4     -31   -292     41    294    297 186.2   8.0  34140  289.22 0855.18
2009/04/23 09:54:29.5     -17   -278     31    279    281 183.5   6.5  34138  289.20 0855.18
2009/04/23 09:54:29.6     -23   -113     -2    116    117 191.6  -1.3  34130  289.06 0855.18
2009/04/23 09:54:29.7      -7   -145   -197    146    245 183.1 -64.2  34128  289.04 0855.18
2009/04/23 09:54:29.8      44   -218   -216    223    310 168.5 -53.6  34120  288.90 0855.18
2009/04/23 09:54:29.9     132   -398      0    420    421 161.6   0.0  34130  289.05 0855.18
2009/04/23 09:54:30.0     -29   -181    186    184    261 189.1  50.1  34132  289.10 0855.18
2009/04/23 09:54:30.1       4   -297     27    298    300 179.1   5.2  34140  289.24 0855.18
2009/04/23 09:54:30.2     -16   -278     93    279    295 183.4  18.6  34136  289.15 0855.18
2009/04/23 09:54:30.3      32   -230    136    233    269 172.0  32.9  34132  289.10 0855.18
2009/04/23 09:54:30.4     147   -234    152    277    315 147.9  31.3  34142  289.27 0855.18
2009/04/23 09:54:30.5     206   -203    146    290    324 134.7  28.6  34144  289.29 0855.18
2009/04/23 09:54:30.6     223   -160    120    275    300 125.7  25.1  34138  289.19 0855.18
2009/04/23 09:54:30.7     294    -70    150    303    338 103.5  28.2  34140  289.24 0855.18
2009/04/23 09:54:30.8     199   -180     90    269    284 132.2  18.6  34132  289.09 0855.18
2009/04/23 09:54:30.9     139   -151     18    206    207 137.2   5.2  34128  289.04 0855.18
2009/04/23 09:54:31.0      88   -107     67    139    154 140.4  27.3  34130  289.08 0855.18
2009/04/23 09:54:31.1      36    -27    120     46    128 126.9  78.2  34132  289.09 0855.18
2009/04/23 09:54:31.2       8    -47     87     48     99 170.2  68.8  34144  289.31 0855.18
2009/04/23 09:54:31.3     -60    -96     99    114    150 212.1  45.4  34140  289.23 0855.18
2009/04/23 09:54:31.4     -23   -164     95    166    191 188.2  32.1  34136  289.18 0855.18
2009/04/23 09:54:31.5     -24   -314    144    316    347 184.5  26.4  34124  288.96 0855.18
2009/04/23 09:54:31.6      54   -292    173    297    343 169.5  32.8  34116  288.84 0855.18
2009/04/23 09:54:31.7    -226   -445    253    500    560 207.0  28.8  34122  288.92 0855.18
2009/04/23 09:54:31.8    -244   -323    135    406    429 217.1  18.5  34124  288.95 0855.18
2009/04/23 09:54:31.9      -7   -381    187    382    425 181.1  28.0  34122  288.94 0855.18
2009/04/23 09:54:32.0     100   -317    259    333    421 162.5  41.9  34128  289.04 0855.18
2009/04/23 09:54:32.1      69   -397    120    404    422 170.1  16.5  34124  288.97 0855.18
2009/04/23 09:54:32.2      95   -297    144    312    343 162.2  26.6  34124  288.96 0855.18
2009/04/23 09:54:32.3     125   -264    146    293    327 154.7  28.4  34128  289.03 0855.18
2009/04/23 09:54:32.4      90   -320    168    333    372 164.3  28.9  34126  288.98 0855.18
2009/04/23 09:54:32.5      82   -278    153    291    328 163.5  30.0  34128  289.03 0855.18
2009/04/23 09:54:32.6      19   -252    149    253    293 175.6  33.4  34124  288.97 0855.18
2009/04/23 09:54:32.7     -94   -185     85    208    224 207.1  23.1  34126  289.01 0855.18
2009/04/23 09:54:32.8    -133   -172     50    218    224 217.8  13.1  34124  288.96 0855.18
2009/04/23 09:54:32.9     -73   -142     65    160    172 207.2  23.0  34128  289.04 0855.18
2009/04/23 09:54:33.0      23   -115    139    118    182 168.4  55.4  34130  289.06 0855.18
2009/04/23 09:54:33.1      90   -228    182    246    306 158.4  39.9  34128  289.02 0855.18
2009/04/23 09:54:33.2      83   -197    158    214    266 157.1  39.9  34126  288.98 0855.18
2009/04/23 09:54:33.3     -44   -218    140    223    263 191.5  35.5  34128  289.03 0855.18
2009/04/23 09:54:33.4     -77    -53    185     94    207 235.4  71.1  34126  289.01 0855.16
2009/04/23 09:54:33.5      13    -43    152     45    158 163.1  83.3  34138  289.19 0855.16
2009/04/23 09:54:33.6     135    -36    111    140    178 105.1  42.4  34118  288.86 0855.16
2009/04/23 09:54:33.7     113    -37     99    119    154 108.2  43.8  34122  288.94 0855.16
2009/04/23 09:54:33.8       5     71     19     72     75   4.4  15.3  34126  289.01 0855.16
2009/04/23 09:54:33.9      38     85      8     94     95  24.1   5.4  34128  289.04 0855.16
2009/04/23 09:54:34.0     -64    163     10    176    177 338.6   3.3  34128  289.04 0855.16
2009/04/23 09:54:34.1     -87    176    -37    197    201 333.5 -10.9  34122  288.92 0855.16
2009/04/23 09:54:34.2     -17     83    -61     85    104 348.0 -43.9  34126  288.99 0855.16
2009/04/23 09:54:34.3      24     -8      4     26     27 108.2   9.0  34128  289.04 0855.16
2009/04/23 09:54:34.4      34    -29      5     45     46 130.4   6.9  34126  288.99 0855.16
2009/04/23 09:54:34.5     -61    -17     34     64     72 254.1  30.3  34134  289.13 0855.16
2009/04/23 09:54:34.6    -145    -84      2    168    169 239.8   0.8  34136  289.18 0855.16
2009/04/23 09:54:34.7     -91    -61      5    110    111 236.3   2.9  34136  289.16 0855.16
2009/04/23 09:54:34.8     -35    -71     52     80     95 206.3  35.6  34142  289.26 0855.16
2009/04/23 09:54:34.9      78     49    117     93    149  57.5  56.9  34142  289.26 0855.16
2009/04/23 09:54:35.0     135     45    104    143    176  71.6  39.7  34140  289.24 0855.16
2009/04/23 09:54:35.1     125     42     87    132    158  71.4  36.5  34150  289.41 0855.16
2009/04/23 09:54:35.2      -8    109     74    110    132 355.5  37.0  34172  289.79 0855.16
2009/04/23 09:54:35.3    -109    260    169    283    329 337.2  33.8  34208  290.37 0855.16
2009/04/23 09:54:35.4     -45     74    187     87    206 328.4  73.2  34184  289.99 0855.16
2009/04/23 09:54:35.5     -11    166    150    167    224 356.0  46.6  34284  291.69 0855.16
2009/04/23 09:54:35.6     -16    184    150    185    238 354.9  43.0  34290  291.77 0855.16
2009/04/23 09:54:35.7      29    213     26    215    217   7.8   7.1  34276  291.54 0855.16
2009/04/23 09:54:35.8      23    165    -15    167    168   8.0  -5.4  34270  291.43 0855.16
2009/04/23 09:54:35.9      52    136     17    146    148  20.9   6.9  34242  290.98 0855.16
2009/04/23 09:54:36.0      43     83     72     94    118  27.6  41.6  34194  290.14 0855.16
2009/04/23 09:54:36.1      73     88     45    115    123  39.7  22.5  34176  289.85 0855.16
2009/04/23 09:54:36.2      86     91    145    126    192  43.2  54.8  34210  290.41 0855.16
2009/04/23 09:54:36.3     166     67    189    180    261  68.0  51.6  34206  290.34 0855.16
2009/04/23 09:54:36.4     292     83    171    304    348  74.1  31.7  34274  291.52 0855.16
2009/04/23 09:54:36.5     320     94    138    334    361  73.5  23.8  34276  291.54 0855.16
2009/04/23 09:54:36.6     208    146     69    255    265  54.9  15.3  34274  291.50 0855.16
2009/04/23 09:54:36.7     149     81    111    170    203  61.4  36.0  34270  291.45 0855.16
2009/04/23 09:54:36.8     259     73    -19    270    271  74.1  -4.1  34238  290.90 0855.16
2009/04/23 09:54:36.9     271    127     29    300    302  64.8   5.7  34228  290.73 0855.16
2009/04/23 09:54:37.0     486    160     32    512    514  71.7   3.6  34238  290.88 0855.16
2009/04/23 09:54:37.1     434    102     -2    446    447  76.7  -0.3  34204  290.33 0855.16
2009/04/23 09:54:37.2     426    -42    156    429    456  95.7  20.9  34192  290.11 0855.16
2009/04/23 09:54:37.3     359    -27     19    360    361  94.4   3.1  34202  290.27 0855.16
2009/04/23 09:54:37.4     153    -27    218    156    268 100.1  60.8  34202  290.27 0855.16
2009/04/23 09:54:37.5     167     55    200    176    266  71.6  54.3  34212  290.46 0855.16
2009/04/23 09:54:37.6     354    168    180    392    431  64.6  26.4  34194  290.16 0855.16
2009/04/23 09:54:37.7     293    206    206    359    413  54.9  32.4  34234  290.84 0855.16
2009/04/23 09:54:37.8     368    247    193    444    484  56.1  25.1  34206  290.34 0855.16
2009/04/23 09:54:37.9     297    224    135    373    396  52.9  20.8  34220  290.60 0855.16
2009/04/23 09:54:38.0     350    207    136    407    430  59.4  18.5  34200  290.26 0855.16
2009/04/23 09:54:38.1     283    133    225    313    385  64.8  39.5  34164  289.64 0855.16
2009/04/23 09:54:38.2     361    155    225    394    453  66.7  32.3  34192  290.11 0855.16
2009/04/23 09:54:38.3     227     89    164    244    293  68.5  37.4  34186  290.00 0855.16
2009/04/23 09:54:38.4     280    119    193    305    360  66.9  35.5  34168  289.71 0855.16
2009/04/23 09:54:38.5     179    -40    166    184    247 102.8  46.9  34186  290.02 0855.16
2009/04/23 09:54:38.6      71     71    158    101    187  45.1  64.6  34174  289.82 0855.16
2009/04/23 09:54:38.7      51     60    107     79    133  40.5  60.5  34184  289.97 0855.16
2009/04/23 09:54:38.8     120     51     51    131    140  66.9  23.0  34182  289.96 0855.16
2009/04/23 09:54:38.9     130    -22     96    132    163  99.6  39.7  34184  289.97 0855.16
2009/04/23 09:54:39.0     141     10     81    142    163  85.6  32.4  34186  290.01 0855.16
2009/04/23 09:54:39.1     165     21     80    167    185  82.5  27.3  34186  290.01 0855.16
2009/04/23 09:54:39.2     210     71     58    222    230  71.2  14.7  34176  289.85 0855.16
2009/04/23 09:54:39.3     201     74     93    215    234  69.6  25.1  34178  289.87 0855.16
2009/04/23 09:54:39.4     149     -6    129    150    197  92.6  45.4  34184  289.97 0855.17
2009/04/23 09:54:39.5     103     27    100    107    146  74.9  48.0  34184  289.97 0855.17
2009/04/23 09:54:39.6     111     70     61    132    145  57.6  26.6  34180  289.91 0855.17
2009/04/23 09:54:39.7      46     80     85     93    125  29.9  47.9  34172  289.79 0855.17
2009/04/23 09:54:39.8     -38     94     81    102    130 337.7  42.7  34174  289.80 0855.17
2009/04/23 09:54:39.9     -51     73     40     90     98 325.3  25.7  34180  289.91 0855.17
2009/04/23 09:54:40.0     -61     62     29     88     93 315.3  18.4  34180  289.91 0855.17
2009/04/23 09:54:40.1     -82     96     40    127    134 319.5  17.4  34184  289.97 0855.17
2009/04/23 09:54:40.2       9    -25     19     27     33 160.0  39.7  34186  290.02 0855.17
2009/04/23 09:54:40.3      51   -151    123    160    201 161.3  41.6  34172  289.77 0855.17
2009/04/23 09:54:40.4      51    -42    151     67    165 129.5  74.8  34172  289.77 0855.17
2009/04/23 09:54:40.5     179     -8    155    180    237  92.8  45.4  34176  289.84 0855.17
2009/04/23 09:54:40.6     220   -101     93    243    260 114.6  22.0  34176  289.85 0855.17
2009/04/23 09:54:40.7     257    -91     15    273    274 109.7   3.3  34166  289.68 0855.17
2009/04/23 09:54:40.8     167     15   -172    168    240  84.8 -54.8  34176  289.85 0855.17
2009/04/23 09:54:40.9     377    132    -15    400    401  70.6  -2.2  34220  290.59 0855.17
2009/04/23 09:54:41.0     330    144   -128    361    384  66.4 -19.6  34210  290.42 0855.17
2009/04/23 09:54:41.1     219     27    132    221    257  82.8  33.5  34186  290.00 0855.17
2009/04/23 09:54:41.2     279    -65    166    287    331 103.2  32.8  34174  289.80 0855.17
2009/04/23 09:54:41.3     244      0    186    245    307  90.0  40.9  34168  289.71 0855.17
2009/04/23 09:54:41.4     231     22    203    233    309  84.5  45.8  34172  289.76 0855.17
2009/04/23 09:54:41.5     156    -98    128    185    224 122.0  37.8  34164  289.63 0855.17
2009/04/23 09:54:41.6     128    -31    172    132    216 103.7  58.7  34168  289.70 0855.17
2009/04/23 09:54:41.7     131    -57     80    143    163 113.5  31.9  34168  289.72 0855.17
2009/04/23 09:54:41.8      37   -118     60    124    137 162.6  27.3  34174  289.82 0855.17
2009/04/23 09:54:41.9      -7   -175     59    176    186 182.5  18.6  34176  289.85 0855.17
2009/04/23 09:54:42.0      38   -211     56    215    223 169.8  14.7  34162  289.62 0855.17
2009/04/23 09:54:42.1      94   -191     48    214    220 153.7  12.6  34156  289.52 0855.17
2009/04/23 09:54:42.2      96   -130     86    162    183 143.5  30.6  34152  289.45 0855.17
2009/04/23 09:54:42.3      53   -122     59    134    146 156.3  25.1  34162  289.62 0855.17
2009/04/23 09:54:42.4      23    -68     65     73     97 160.8  46.9  34176  289.85 0855.18
2009/04/23 09:54:42.5      21      0     69     22     72  90.0  80.7  34174  289.80 0855.18
2009/04/23 09:54:42.6       2      2     64      3     64  45.0  90.0  34184  289.97 0855.18
2009/04/23 09:54:42.7       6    -14     24     16     28 154.6  64.6  34176  289.84 0855.18
2009/04/23 09:54:42.8     -45     13     20     47     51 286.8  24.1  34170  289.75 0855.18
2009/04/23 09:54:42.9     -95     38     19    103    105 291.8  10.6  34174  289.82 0855.18
2009/04/23 09:54:43.0    -107      8      7    108    109 274.4   3.8  34176  289.85 0855.18
2009/04/23 09:54:43.1     -82     19      4     85     86 283.3   2.8  34188  290.06 0855.18
2009/04/23 09:54:43.2     -45     48     30     66     72 316.8  27.1  34186  290.02 0855.18
2009/04/23 09:54:43.3     -43    139     28    146    149 342.6  11.1  34182  289.94 0855.18
2009/04/23 09:54:43.4     -47    159     32    166    170 343.5  11.1  34184  289.97 0855.18
2009/04/23 09:54:43.5      57    111     55    125    136  27.2  25.2  34150  289.40 0855.18
2009/04/23 09:54:43.6     106     61     21    123    125  60.2  10.1  34148  289.38 0855.18
2009/04/23 09:54:43.7     123     89    -18    153    155  54.0  -6.7  34154  289.46 0855.18
2009/04/23 09:54:43.8     145    106     11    180    181  53.8   3.8  34154  289.48 0855.18
2009/04/23 09:54:43.9     193     67     63    205    215  70.7  17.3  34160  289.57 0855.18
2009/04/23 09:54:44.0     191    141     -4    238    239  53.6  -1.1  34156  289.51 0855.18
2009/04/23 09:54:44.1     144     97      9    174    175  56.0   3.1  34160  289.58 0855.18
2009/04/23 09:54:44.2     201     98     11    224    225  64.0   2.9  34156  289.52 0855.18
2009/04/23 09:54:44.3     190    190    -14    269    270  45.0  -3.2  34184  289.97 0855.18
2009/04/23 09:54:44.4     269    284   -133    392    413  43.4 -23.7  34210  290.41 0855.26
2009/04/23 09:54:44.5     217    238     94    323    337  42.3  16.3  34204  290.33 0855.26
2009/04/23 09:54:44.7      64    119      5    136    137  28.5   2.3  34210  290.43 0855.26
2009/04/23 09:54:44.7     133     88     78    160    178  56.3  28.0  34192  290.11 0855.26
2009/04/23 09:54:44.8     129     14    104    130    166  83.8  43.3  34158  289.53 0855.26
2009/04/23 09:54:44.9     179     88      0    200    201  63.6   0.2  34236  290.86 0855.26
2009/04/23 09:54:45.0     128    282     49    310    314  24.5   9.0  34266  291.36 0855.26
2009/04/23 09:54:45.1      63    270     59    278    285  13.1  12.0  34268  291.39 0855.26
2009/04/23 09:54:45.2      79    210     55    225    232  20.7  13.9  34248  291.08 0855.26
2009/04/23 09:54:45.3     311    223     59    383    388  54.3   8.8  34230  290.76 0855.26
2009/04/23 09:54:45.4     234    245    -35    340    342  43.7  -6.0  34224  290.67 0855.26
2009/04/23 09:54:45.5     130    296    -90    324    337  23.8 -15.5  34232  290.81 0855.26
2009/04/23 09:54:45.6      26    219   -174    221    281   6.9 -46.6  34212  290.44 0855.26
2009/04/23 09:54:45.7      40    178   -192    183    265  12.7 -55.8  34214  290.49 0855.26
2009/04/23 09:54:45.8    -179    161    -98    241    260 312.0 -27.5  34184  289.97 0855.26
2009/04/23 09:54:45.9    -490    178   -212    522    563 290.0 -27.8  34116  288.84 0855.26
2009/04/23 09:54:46.0    -539    380   -197    660    689 305.2 -16.6  34122  288.92 0855.26
2009/04/23 09:54:46.1    -617    259   -227    670    707 292.8 -23.8  34118  288.87 0855.26
2009/04/23 09:54:46.2    -569     74   -301    574    648 277.5 -34.4  34112  288.77 0855.26
2009/04/23 09:54:46.3    -500    145   -274    521    588 286.2 -34.4  34086  288.33 0855.26
2009/04/23 09:54:46.4    -467    103   -330    479    581 282.5 -42.3  34096  288.48 0855.30
2009/04/23 09:54:46.5    -498     40   -370    500    622 274.7 -44.5  34124  288.97 0855.30
2009/04/23 09:54:46.6    -407     88   -312    417    520 282.3 -45.0  34134  289.13 0855.30
2009/04/23 09:54:46.7    -345     58   -370    350    509 279.6 -56.3  34144  289.31 0855.30
2009/04/23 09:54:46.8    -333    207   -137    393    417 301.9 -19.3  34166  289.66 0855.30
2009/04/23 09:54:46.9    -605     -8   -225    606    646 269.2 -25.8  34132  289.09 0855.30
2009/04/23 09:54:47.0    -657    -26   -361    658    750 267.7 -35.7  34120  288.88 0855.30
2009/04/23 09:54:47.1    -612    -37   -308    614    686 266.5 -33.1  34120  288.88 0855.30
2009/04/23 09:54:47.2    -429    119   -343    446    562 285.6 -45.8  34122  288.92 0855.30
2009/04/23 09:54:47.3    -273    171   -321    323    455 302.0 -54.4  34118  288.87 0855.30
2009/04/23 09:54:47.4    -193     69   -223    206    303 289.7 -56.6  34118  288.85 0855.30
2009/04/23 09:54:47.5      -3   -362   -270    363    452 180.5 -44.8  34140  289.24 0855.30
2009/04/23 09:54:47.6      -3   -210   -313    211    377 180.9 -67.1  34142  289.28 0855.30
2009/04/23 09:54:47.7    -315   -121   -337    338    477 248.9 -54.5  34148  289.38 0855.30
2009/04/23 09:54:47.8    -286    -58   -325    292    436 258.5 -57.9  34146  289.33 0855.30
2009/04/23 09:54:47.9    -341    134   -416    367    554 291.5 -58.6  34148  289.37 0855.30
2009/04/23 09:54:48.0    -256     35   -315    259    407 277.9 -60.8  34162  289.60 0855.30
2009/04/23 09:54:48.1    -200     15   -345    201    399 274.4 -71.5  34154  289.48 0855.30
2009/04/23 09:54:48.2    -176     27   -187    179    258 278.8 -55.6  34158  289.54 0855.30
2009/04/23 09:54:48.3     148   -191    -90    242    258 142.1 -25.7  34158  289.53 0855.30
2009/04/23 09:54:48.4      24   -242    -69    244    253 174.2 -20.7  34154  289.47 0855.32
2009/04/23 09:54:48.5     -12   -162    -49    163    170 184.5 -22.1  34152  289.43 0855.32
2009/04/23 09:54:48.6     261    -84    -49    275    280 107.8 -10.3  34156  289.49 0855.32
2009/04/23 09:54:48.7     282    -12     21    283    284  92.6   4.4  34154  289.46 0855.32
2009/04/23 09:54:48.8     140    143    -55    201    209  44.3 -15.5  34146  289.33 0855.32
2009/04/23 09:54:48.9     101    348    -84    363    373  16.3 -13.2  34148  289.37 0855.32
2009/04/23 09:54:49.0     234    383     -1    449    450  31.4  -0.2  34144  289.29 0855.32
2009/04/23 09:54:49.1     354    242    -16    429    430  55.6  -2.2  34144  289.31 0855.32
2009/04/23 09:54:49.2     203    133    121    244    272  56.7  28.2  34144  289.31 0855.32
2009/04/23 09:54:49.3     223     60    225    232    323  74.9  49.1  34132  289.09 0855.32
2009/04/23 09:54:49.4     347   -140    487    375    614 112.0  58.5  34146  289.35 0855.32
2009/04/23 09:54:49.6     416   -296    306    511    595 125.5  33.7  34138  289.19 0855.32
2009/04/23 09:54:49.7     105   -302    262    320    413 160.8  43.7  34128  289.04 0855.32
2009/04/23 09:54:49.8      38    -48     52     62     80 142.2  44.8  34124  288.96 0855.32
2009/04/23 09:54:49.9      75   -224     69    237    247 161.3  16.3  34132  289.10 0855.32
2009/04/23 09:54:50.0      81   -185   -134    203    243 156.4 -40.9  34144  289.31 0855.32
2009/04/23 09:54:50.1      27    -85    -51     90    103 162.2 -35.8  34136  289.16 0855.32
2009/04/23 09:54:50.2     112     22    -60    115    129  78.5 -33.7  34154  289.46 0855.32
2009/04/23 09:54:50.3     161    -50    -55    169    178 107.3 -18.3  34146  289.35 0855.32
2009/04/23 09:54:50.4     198    134    106    240    262  55.8  25.2  34112  288.75 0855.32
2009/04/23 09:54:50.5     354     35    249    356    434  84.3  38.5  34138  289.21 0855.31
2009/04/23 09:54:50.6     296      0     76    297    307  90.0  14.5  34134  289.14 0855.31
2009/04/23 09:54:50.7     462    184    -54    498    502  68.3  -6.2  34130  289.05 0855.31
2009/04/23 09:54:50.8     477    184    196    512    548  68.8  22.1  34118  288.85 0855.31
2009/04/23 09:54:50.9     560    143    213    579    616  75.6  21.0  34094  288.46 0855.31
2009/04/23 09:54:51.0     521     89    156    529    552  80.3  16.5  34096  288.50 0855.31
2009/04/23 09:54:51.1     543    207     86    582    589  69.1   8.5  34102  288.58 0855.31
2009/04/23 09:54:51.2     537    307     41    619    621  60.3   3.8  34118  288.87 0855.31
2009/04/23 09:54:51.3     462    383     34    601    602  50.3   3.3  34122  288.93 0855.31
2009/04/23 09:54:51.4     483    375     -9    612    613  52.2  -0.9  34144  289.30 0855.31
2009/04/23 09:54:51.5     335    333     94    473    483  45.1  11.3  34122  288.93 0855.31
2009/04/23 09:54:51.6     557    332    218    649    685  59.2  18.6  34136  289.17 0855.31
2009/04/23 09:54:51.7     504    336    141    606    623  56.3  13.1  34116  288.84 0855.31
2009/04/23 09:54:51.8     406    323     97    519    528  51.5  10.6  34100  288.57 0855.31
2009/04/23 09:54:51.9     431    251    137    499    518  59.8  15.4  34116  288.83 0855.31
2009/04/23 09:54:52.0     483    238    157    539    562  63.8  16.3  34138  289.21 0855.31
2009/04/23 09:54:52.1     415    282    112    502    515  55.8  12.6  34124  288.95 0855.31
2009/04/23 09:54:52.2     307    304     79    433    441  45.3  10.4  34116  288.83 0855.31
2009/04/23 09:54:52.3     249    352    188    432    471  35.3  25.1  34238  290.89 0855.31
2009/04/23 09:54:52.4     329    416    163    531    556  38.4  17.1  34224  290.67 0855.31
2009/04/23 09:54:52.5     126    355    135    377    400  19.6  20.4  34254  291.17 0855.31
2009/04/23 09:54:52.6      33    410     88    412    422   4.7  12.1  34254  291.16 0855.31
2009/04/23 09:54:52.7     -31    386    -21    388    389 355.3  -3.2  34268  291.39 0855.31
2009/04/23 09:54:52.8     -29    270    -54    272    278 353.8 -11.3  34262  291.29 0855.31
2009/04/23 09:54:52.9      98    245   -102    265    283  21.9 -26.4  34256  291.21 0855.31
2009/04/23 09:54:53.0     113    239    -89    265    279  25.4 -23.3  34218  290.56 0855.31
2009/04/23 09:54:53.1     291    156    124    331    353  61.8  21.5  34232  290.79 0855.31
2009/04/23 09:54:53.2     243    130    285    276    396  61.8  51.2  34238  290.89 0855.31
2009/04/23 09:54:53.3     220    166    188    276    333  52.9  37.6  34236  290.85 0855.31
2009/04/23 09:54:53.4     148    183    164    236    287  39.0  38.0  34230  290.75 0855.31
2009/04/23 09:54:53.5      91    177    214    200    292  27.2  52.2  34214  290.49 0855.31
2009/04/23 09:54:53.6      58    113    215    128    250  27.1  66.7  34186  290.01 0855.31
2009/04/23 09:54:53.7      34    203    186    206    277   9.6  46.9  34180  289.92 0855.31
2009/04/23 09:54:53.8     179    269    136    324    351  33.6  24.2  34214  290.49 0855.31
2009/04/23 09:54:53.9     212    224    111    309    329  43.4  19.9  34230  290.75 0855.31
2009/04/23 09:54:54.0     218    147    250    264    363  56.0  48.4  34218  290.57 0855.31
2009/04/23 09:54:54.1     -24    221    128    223    257 353.8  32.4  34208  290.39 0855.31
2009/04/23 09:54:54.2      -9    122    155    123    197 355.6  57.7  34188  290.04 0855.31
2009/04/23 09:54:54.3     256     91    168    272    319  70.3  34.8  34196  290.17 0855.31
2009/04/23 09:54:54.4     250    119    247    278    371  64.5  46.2  34222  290.62 0855.31
2009/04/23 09:54:54.5     458    100    291    469    551  77.6  34.8  34240  290.94 0855.30
2009/04/23 09:54:54.6     496    162    334    522    619  71.9  35.6  34210  290.42 0855.30
2009/04/23 09:54:54.7     362    173    329    402    519  64.5  43.6  34182  289.93 0855.30
2009/04/23 09:54:54.8     315    104    229    332    403  71.6  37.8  34168  289.72 0855.30
2009/04/23 09:54:54.9     545     77    286    551    620  81.9  29.4  34142  289.27 0855.30
2009/04/23 09:54:55.0     721    312    351    786    860  66.6  25.7  34198  290.22 0855.30
2009/04/23 09:54:55.1     727    360    293    812    863  63.6  20.8  34182  289.95 0855.30
2009/04/23 09:54:55.2     670    379    370    770    854  60.5  27.4  34198  290.20 0855.30
2009/04/23 09:54:55.3     650    332    428    730    846  62.9  33.1  34152  289.45 0855.30
2009/04/23 09:54:55.4     519    258    437    580    726  63.5  40.7  34174  289.82 0855.30
2009/04/23 09:54:55.5     760    215    244    790    828  74.2  17.2  34112  288.77 0855.30
2009/04/23 09:54:55.6     730    292    303    787    843  68.2  22.2  34128  289.04 0855.30
2009/04/23 09:54:55.7     753    274    290    802    854  70.0  19.9  34120  288.89 0855.30
2009/04/23 09:54:55.8     803    338    345    872    937  67.2  22.8  34126  288.99 0855.30
2009/04/23 09:54:55.9     731    313    284    796    845  66.8  20.4  34116  288.81 0855.30
2009/04/23 09:54:56.0     782    285     99    833    839  70.0   6.8  34118  288.87 0855.30
2009/04/23 09:54:56.1     744    387    168    839    856  62.5  11.3  34130  289.07 0855.30
2009/04/23 09:54:56.2     805    268    177    849    868  71.6  11.8  34122  288.92 0855.30
2009/04/23 09:54:56.3     988    323    162   1040   1053  71.9   8.9  34126  289.00 0855.30
2009/04/23 09:54:56.4     914    389    189    994   1012  66.9  10.8  34104  288.61 0855.30
2009/04/23 09:54:56.5     888    278    204    931    954  72.6  12.4  34102  288.59 0855.25
2009/04/23 09:54:56.6     832    329    145    895    907  68.4   9.2  34102  288.58 0855.25
2009/04/23 09:54:56.7     792    134    182    804    825  80.4  12.8  34130  289.08 0855.25
2009/04/23 09:54:56.8     792    254    186    832    853  72.2  12.6  34114  288.80 0855.25
2009/04/23 09:54:56.9     742    442     94    864    870  59.2   6.2  34120  288.88 0855.25
2009/04/23 09:54:57.0     700    347    158    782    798  63.6  11.5  34104  288.61 0855.25
2009/04/23 09:54:57.1     819    311    175    877    895  69.2  11.3  34126  288.98 0855.25
2009/04/23 09:54:57.2     788    249    162    827    843  72.4  11.1  34132  289.10 0855.25
2009/04/23 09:54:57.3     353     32    124    355    376  84.8  20.0  34108  288.69 0855.25
2009/04/23 09:54:57.4     498    -47    407    501    645  95.5  43.3  34140  289.22 0855.25
2009/04/23 09:54:57.5     576    418    181    712    735  54.0  14.3  34156  289.49 0855.25
2009/04/23 09:54:57.6     592    175    -12    618    619  73.5  -1.2  34148  289.38 0855.25
2009/04/23 09:54:57.7     685    274    110    739    748  68.2   8.5  34172  289.79 0855.25
2009/04/23 09:54:57.8     846    279    139    891    903  71.7   8.9  34202  290.29 0855.25
2009/04/23 09:54:57.9     702    150    456    719    851  77.9  35.5  34230  290.76 0855.25
2009/04/23 09:54:58.0     705    244    337    747    819  70.9  25.9  34202  290.27 0855.25
2009/04/23 09:54:58.1     861    342    410    927   1013  68.3  25.5  34128  289.02 0855.25
2009/04/23 09:54:58.2     938    426    279   1031   1069  65.6  15.1  34132  289.09 0855.25
2009/04/23 09:54:58.3     855    388    219    940    966  65.6  13.1  34134  289.13 0855.25
2009/04/23 09:54:58.4     856    347    240    924    955  67.9  14.6  34122  288.93 0855.25
2009/04/23 09:54:58.5     725    369   -226    814    844  63.0 -20.2  34120  288.91 0855.26
2009/04/23 09:54:58.6     625    441   -100    766    773  54.8  -7.5  34132  289.10 0855.26
2009/04/23 09:54:58.7     659    505    346    831    900  52.5  24.1  34114  288.78 0855.26
2009/04/23 09:54:58.8     567    470    159    737    755  50.3  12.2  34138  289.19 0855.26
2009/04/23 09:54:58.9     436    662    141    793    806  33.4  10.1  34132  289.10 0855.26
2009/04/23 09:54:59.0     140    740   -214    754    784  10.7 -15.9  34114  288.78 0855.26
2009/04/23 09:54:59.1      14    735     22    736    737   1.2   1.8  34138  289.19 0855.26
2009/04/23 09:54:59.2     -87    729    173    735    756 353.2  13.3  34134  289.12 0855.26
2009/04/23 09:54:59.3    -138    574    172    591    616 346.5  16.3  34124  288.95 0855.26
2009/04/23 09:54:59.4    -348    487    -86    599    606 324.4  -8.2  34136  289.15 0855.26
2009/04/23 09:54:59.5    -354    312     -1    473    474 311.4  -0.2  34146  289.34 0855.26
2009/04/23 09:54:59.6    -289    335   -120    443    460 319.2 -15.2  34116  288.82 0855.26
2009/04/23 09:54:59.7    -381    357   -102    523    534 313.1 -11.1  34114  288.80 0855.26
2009/04/23 09:54:59.8    -360    386   -150    528    549 317.0 -15.9  34108  288.70 0855.26
2009/04/23 09:54:59.9    -297    395    -82    495    502 323.0  -9.5  34114  288.78 0855.26
2009/04/23 09:55:00.0    -343    296   -203    454    497 310.8 -30.1  34120  288.91 0855.26
2009/04/23 09:55:00.1    -243    254   -203    352    406 316.2 -37.0  34128  289.04 0855.26
2009/04/23 09:55:00.2    -295    213   -232    364    431 305.9 -40.0  34122  288.94 0855.26
2009/04/23 09:55:00.3    -257    126   -209    287    355 296.2 -44.1  34120  288.89 0855.26
2009/04/23 09:55:00.4    -330    202   -276    388    476 301.5 -43.4  34114  288.80 0855.26
2009/04/23 09:55:00.5    -332    158   -288    368    467 295.5 -46.4  34122  288.94 0855.28
2009/04/23 09:55:00.6    -169     31   -281    172    329 280.6 -70.0  34120  288.90 0855.28
2009/04/23 09:55:00.7    -238    -42   -279    242    369 259.9 -59.1  34126  288.98 0855.28
2009/04/23 09:55:00.8    -186     -7   -257    187    317 267.6 -64.8  34120  288.88 0855.28
2009/04/23 09:55:00.9    -153      6   -358    154    389 272.6 -79.8  34138  289.20 0855.28
2009/04/23 09:55:01.0      87   -140   -214    165    270 148.1 -62.9  34130  289.07 0855.28
2009/04/23 09:55:01.1     137     32   -215    141    257  76.8 -68.0  34142  289.26 0855.28
2009/04/23 09:55:01.2    -110   -331   -316    349    470 198.4 -51.3  34132  289.09 0855.28
2009/04/23 09:55:01.3     -31   -153   -275    157    316 191.5 -72.1  34154  289.47 0855.28
2009/04/23 09:55:01.4     213   -104   -222    238    325 116.0 -52.2  34150  289.39 0855.28
2009/04/23 09:55:01.5     148   -107   -125    183    221 126.0 -42.0  34154  289.48 0855.28
2009/04/23 09:55:01.6     201    110   -127    230    262  61.2 -35.8  34148  289.37 0855.28
2009/04/23 09:55:01.7     172    207   -102    270    288  39.6 -25.9  34144  289.31 0855.28
2009/04/23 09:55:01.8     220    207   -103    303    321  46.8 -18.8  34140  289.22 0855.28
2009/04/23 09:55:01.9     272     91    -43    288    292  71.4  -8.6  34146  289.32 0855.28
2009/04/23 09:55:02.0     333    -11   -113    334    352  91.9 -23.6  34140  289.23 0855.28
2009/04/23 09:55:02.1     355    -64    -27    361    362 100.3  -4.4  34136  289.16 0855.28
2009/04/23 09:55:02.2     411     -6    -18    412    413  90.9  -2.6  34128  289.04 0855.28
2009/04/23 09:55:02.3     258     93     64    275    283  70.1  13.2  34124  288.97 0855.28
2009/04/23 09:55:02.4     247     92    198    264    330  69.6  40.7  34132  289.10 0855.28
2009/04/23 09:55:02.5     268    112    197    291    351  67.3  37.4  34134  289.13 0855.28
2009/04/23 09:55:02.6     210     91    214    230    314  66.5  47.8  34142  289.25 0855.28
2009/04/23 09:55:02.7     146    146    215    207    298  45.0  51.2  34158  289.54 0855.28
2009/04/23 09:55:02.8     136    256    180    290    341  28.0  35.0  34160  289.56 0855.28
2009/04/23 09:55:02.9     188    153    160    243    290  50.9  36.3  34160  289.56 0855.28
2009/04/23 09:55:03.0     125    160    190    204    278  38.1  47.9  34148  289.37 0855.28
2009/04/23 09:55:03.1     282     85    160    295    335  73.1  30.9  34138  289.19 0855.28
2009/04/23 09:55:03.2     241     20    184    242    304  85.0  41.4  34142  289.25 0855.28
2009/04/23 09:55:03.3     355     49    214    359    417  82.0  33.6  34136  289.16 0855.28
2009/04/23 09:55:03.4     188     36    147    192    241  79.0  41.2  34144  289.30 0855.28
2009/04/23 09:55:03.5     151     21    161    153    222  82.1  51.6  34138  289.19 0855.26
2009/04/23 09:55:03.6     132      1    143    133    195  89.2  52.2  34140  289.23 0855.26
2009/04/23 09:55:03.7     173    103    182    202    271  59.1  46.9  34144  289.31 0855.26
2009/04/23 09:55:03.8     111     48    196    122    230  66.4  64.7  34144  289.30 0855.26
2009/04/23 09:55:03.9      11     42    151     44    157  15.1  83.5  34150  289.41 0855.26
2009/04/23 09:55:04.0      57     63     89     86    123  41.9  50.7  34142  289.28 0855.26
2009/04/23 09:55:04.1       0     98     80     99    127 359.6  43.3  34138  289.19 0855.26
2009/04/23 09:55:04.2      -8    228    112    229    254 358.0  28.0  34134  289.14 0855.26
2009/04/23 09:55:04.3     -89    169    150    192    243 332.1  42.0  34134  289.13 0855.26
2009/04/23 09:55:04.4    -164    129     73    209    222 308.2  19.4  34138  289.19 0855.26
2009/04/23 09:55:04.5    -267    116    -46    292    296 293.5  -9.0  34134  289.14 0855.26
2009/04/23 09:55:04.6    -254     86    124    269    296 288.8  26.4  34138  289.20 0855.26
2009/04/23 09:55:04.7    -264    228    -39    350    353 310.8  -6.5  34136  289.15 0855.26
2009/04/23 09:55:04.8    -285    294     98    410    422 315.9  13.5  34140  289.24 0855.26
2009/04/23 09:55:04.9    -263    289     87    392    402 317.7  12.6  34142  289.25 0855.26
2009/04/23 09:55:05.0    -327    208    118    388    406 302.5  17.0  34142  289.25 0855.26
2009/04/23 09:55:05.1    -408    -88     50    418    422 257.7   6.9  34146  289.33 0855.26
2009/04/23 09:55:05.2    -251   -220     25    334    335 228.7   4.3  34146  289.33 0855.26
2009/04/23 09:55:05.3    -253   -365    190    445    483 214.7  24.6  34176  289.83 0855.26
2009/04/23 09:55:05.4     -99   -369    133    383    406 195.1  19.2  34158  289.55 0855.26
2009/04/23 09:55:05.5     -77   -308    108    318    337 194.1  18.8  34138  289.20 0855.27
2009/04/23 09:55:05.6     -39   -424    142    427    450 185.4  18.4  34130  289.07 0855.27
2009/04/23 09:55:05.7      -3   -460     18    461    462 180.5   2.2  34136  289.17 0855.27
2009/04/23 09:55:05.8      54   -453     98    457    468 173.1  12.1  34138  289.19 0855.27
2009/04/23 09:55:05.9      85   -365     95    375    387 166.8  14.3  34138  289.20 0855.27
2009/04/23 09:55:06.0     -14   -385     66    386    392 182.1   9.7  34138  289.21 0855.27
2009/04/23 09:55:06.1     -30   -314     -6    316    317 185.6  -1.3  34138  289.20 0855.27
2009/04/23 09:55:06.2      24   -307     64    309    316 175.5  11.8  34142  289.25 0855.27
2009/04/23 09:55:06.3      84   -249     72    263    273 161.3  15.3  34140  289.24 0855.27
2009/04/23 09:55:06.4      -2   -203     64    204    214 180.7  17.4  34138  289.19 0855.27
2009/04/23 09:55:06.5     -53   -197    110    205    232 195.2  30.8  34140  289.24 0855.27
2009/04/23 09:55:06.6     -60   -240     95    248    265 194.0  22.0  34142  289.27 0855.27
2009/04/23 09:55:06.7     -37   -279    -12    282    283 187.6  -2.6  34140  289.24 0855.27
2009/04/23 09:55:06.8     -96   -329     16    343    344 196.4   2.8  34136  289.15 0855.27
2009/04/23 09:55:06.9    -111   -278     42    300    304 201.9   8.0  34134  289.12 0855.27
2009/04/23 09:55:07.0     -68   -263    -10    272    273 194.7  -2.2  34138  289.19 0855.27
2009/04/23 09:55:07.1    -150   -291    -60    328    334 207.4 -10.4  34138  289.20 0855.27
2009/04/23 09:55:07.2    -140   -316    -49    346    350 203.9  -8.1  34136  289.16 0855.27
2009/04/23 09:55:07.3    -223   -272     33    352    354 219.4   5.4  34132  289.11 0855.27
2009/04/23 09:55:07.4    -315   -101    -10    331    332 252.2  -1.8  34138  289.21 0855.27
2009/04/23 09:55:07.5    -297    -75    -28    307    309 255.8  -5.4  34124  288.97 0855.28
2009/04/23 09:55:07.6    -302     81     51    313    318 285.1   9.3  34134  289.12 0855.28
2009/04/23 09:55:07.7    -375    -22    123    376    396 266.5  18.2  34138  289.21 0855.28
2009/04/23 09:55:07.8    -278    -84    176    291    340 253.1  34.1  34142  289.27 0855.28
2009/04/23 09:55:07.9    -357    -55    101    362    376 261.1  15.7  34166  289.67 0855.28
2009/04/23 09:55:08.0    -430   -215     84    481    489 243.4  10.0  34152  289.42 0855.28
2009/04/23 09:55:08.1    -393   -108    -81    408    417 254.6 -11.3  34170  289.73 0855.28
2009/04/23 09:55:08.2    -398     81    -15    407    408 281.5  -2.2  34146  289.34 0855.28
2009/04/23 09:55:08.3    -410    -49    178    413    449 263.1  24.9  34152  289.43 0855.28
2009/04/23 09:55:08.4    -402   -232    314    465    561 240.0  37.3  34158  289.55 0855.28
2009/04/23 09:55:08.5    -170   -251    192    304    359 214.2  35.5  34138  289.21 0855.28
2009/04/23 09:55:08.6    -146   -150     94    210    230 224.1  25.9  34136  289.18 0855.28
2009/04/23 09:55:08.7       3   -227     76    228    241 179.0  18.4  34136  289.17 0855.28
2009/04/23 09:55:08.8      50   -323      9    328    329 171.1   1.7  34132  289.10 0855.28
2009/04/23 09:55:08.9      80   -298     36    309    312 164.9   6.7  34134  289.14 0855.28
2009/04/23 09:55:09.0      97   -225    -35    246    249 156.6  -8.2  34126  289.00 0855.28
2009/04/23 09:55:09.1     -23   -128    -50    131    140 190.2 -25.9  34132  289.11 0855.28
2009/04/23 09:55:09.2       2   -214     -8    215    216 179.3  -2.2  34134  289.14 0855.28
2009/04/23 09:55:09.3       6   -253     44    254    258 178.6  10.0  34134  289.12 0855.28
2009/04/23 09:55:09.4      69   -256     13    266    267 164.9   2.9  34130  289.07 0855.28
2009/04/23 09:55:09.5     110   -207     18    235    236 151.9   4.4  34136  289.15 0855.28
2009/04/23 09:55:09.6      97   -160     74    188    202 148.8  22.8  34132  289.09 0855.28
2009/04/23 09:55:09.7      79   -299    109    310    329 165.1  19.5  34130  289.05 0855.28
2009/04/23 09:55:09.8      90   -329     52    342    346 164.6   8.7  34128  289.04 0855.28
2009/04/23 09:55:09.9      47   -275    -46    280    284 170.2  -9.3  34130  289.05 0855.28
2009/04/23 09:55:10.0      29   -257      3    259    260 173.5   0.8  34132  289.10 0855.28
2009/04/23 09:55:10.1       0   -202    -37    203    207 180.2 -10.5  34130  289.06 0855.28
2009/04/23 09:55:10.2       0   -147      2    148    149 180.0   0.8  34130  289.06 0855.28
2009/04/23 09:55:10.3      61   -129     60    143    155 154.5  23.6  34132  289.09 0855.28
2009/04/23 09:55:10.4      49   -216    158    222    272 167.1  38.8  34124  288.95 0855.28
2009/04/23 09:55:10.5     110   -107    130    154    201 134.0  44.5  34128  289.04 0855.28
2009/04/23 09:55:10.6      14     39    130     42    136  20.0  80.7  34136  289.16 0855.28
2009/04/23 09:55:10.7      24     34     95     42    103  35.2  75.0  34142  289.28 0855.28
2009/04/23 09:55:10.8      54     39    127     67    143  54.0  69.8  34140  289.23 0855.28
2009/04/23 09:55:10.9     -24      8    134     26    136 288.4  89.1  34144  289.30 0855.28
2009/04/23 09:55:11.0     -21    -32    149     39    154 214.3  84.9  34142  289.28 0855.28
2009/04/23 09:55:11.1     -10     73    147     74    164 351.9  71.4  34144  289.30 0855.28
2009/04/23 09:55:11.2      83    -40    152     93    178 115.8  65.7  34140  289.24 0855.28
2009/04/23 09:55:11.3      69    -43    139     82    161 122.4  67.0  34134  289.14 0855.28
2009/04/23 09:55:11.4      45    -66    146     80    166 145.7  69.1  34134  289.13 0855.28
2009/04/23 09:55:11.5     120   -162    156    202    255 143.5  41.7  34124  288.97 0855.27
2009/04/23 09:55:11.6      34   -202    131    205    243 170.4  35.6  34124  288.97 0855.27
2009/04/23 09:55:11.7     -60   -250     42    258    262 193.6   9.3  34120  288.88 0855.27
2009/04/23 09:55:11.8    -156   -246     68    292    300 212.5  13.1  34122  288.92 0855.27
2009/04/23 09:55:11.9    -184   -202     91    274    289 222.3  18.4  34124  288.97 0855.27
2009/04/23 09:55:12.0    -169   -316    112    359    377 208.1  17.3  34120  288.89 0855.27
2009/04/23 09:55:12.1    -215   -303    175    372    411 215.3  27.1  34122  288.93 0855.27
2009/04/23 09:55:12.2    -196   -248    117    317    337 218.3  21.3  34122  288.93 0855.27
2009/04/23 09:55:12.3     -98   -177    147    203    250 209.0  39.7  34120  288.90 0855.27
2009/04/23 09:55:12.4    -135   -363     83    388    397 200.5  12.1  34118  288.86 0855.27
2009/04/23 09:55:12.5    -130   -335     51    360    364 201.3   8.1  34120  288.88 0855.27
2009/04/23 09:55:12.6    -265   -265     30    376    378 225.0   4.7  34116  288.84 0855.27
2009/04/23 09:55:12.7    -235   -259     84    350    360 222.2  13.5  34120  288.89 0855.27
2009/04/23 09:55:12.8    -165   -210    217    268    344 218.1  43.4  34128  289.02 0855.27
2009/04/23 09:55:12.9    -255   -110    143    278    312 246.7  29.4  34126  289.00 0855.27
2009/04/23 09:55:13.0    -214   -124     88    248    264 239.8  19.6  34132  289.10 0855.27
2009/04/23 09:55:13.1    -198   -116     96    230    249 239.6  24.1  34134  289.12 0855.27
2009/04/23 09:55:13.2    -259     15     98    260    277 273.4  21.7  34122  288.92 0855.27
2009/04/23 09:55:13.3    -320    -49    104    324    341 261.2  17.8  34120  288.91 0855.27
2009/04/23 09:55:13.4    -310    -58    103    316    333 259.4  18.1  34124  288.97 0855.27
2009/04/23 09:55:13.5    -290      8    120    291    314 271.7  23.7  34138  289.19 0855.26
2009/04/23 09:55:13.6    -305     25    156    307    344 274.8  28.9  34136  289.15 0855.26
2009/04/23 09:55:13.7    -325     51    186    330    378 278.9  31.9  34138  289.21 0855.26
2009/04/23 09:55:13.8    -359     50    151    363    393 278.0  23.9  34132  289.10 0855.26
2009/04/23 09:55:13.9    -397      6    -31    398    400 270.9  -4.5  34126  288.98 0855.26
2009/04/23 09:55:14.0    -334    -22     22    335    336 266.1   3.8  34132  289.11 0855.26
2009/04/23 09:55:14.1    -229    -25    -76    231    244 263.6 -18.3  34126  288.98 0855.26
2009/04/23 09:55:14.2    -343    -64      3    349    350 259.4   0.5  34130  289.08 0855.26
2009/04/23 09:55:14.3    -316    -72    -22    325    326 257.1  -3.9  34128  289.02 0855.26
2009/04/23 09:55:14.4    -153    -24     83    156    176 260.8  30.3  34126  289.01 0855.26
2009/04/23 09:55:14.5    -150     58    164    161    229 291.3  50.2  34134  289.14 0855.26
2009/04/23 09:55:14.6    -216    184     76    284    295 310.4  15.0  34124  288.97 0855.26
2009/04/23 09:55:14.7    -315    231    136    391    415 306.2  19.2  34128  289.04 0855.26
2009/04/23 09:55:14.8    -150    236    101    281    298 327.5  20.7  34126  289.00 0855.26
2009/04/23 09:55:14.9      -2    134    157    135    207 359.0  54.8  34134  289.13 0855.26
2009/04/23 09:55:15.0     120     87    182    149    235  54.1  56.4  34130  289.08 0855.26
2009/04/23 09:55:15.1     -48     -7    143     49    151 261.2  81.2  34140  289.24 0855.26
2009/04/23 09:55:15.2     100     23    199    103    224  76.7  70.6  34126  289.01 0855.26
2009/04/23 09:55:15.3     -61     96    164    115    200 327.4  61.5  34132  289.09 0855.26
2009/04/23 09:55:15.4      22    -17    138     29    141 127.8  89.0  34136  289.16 0855.26
2009/04/23 09:55:15.5      19    -70     -6     73     74 164.8  -5.2  34132  289.09 0855.26
2009/04/23 09:55:15.6    -324   -206    126    385    406 237.5  18.2  34120  288.91 0855.26
2009/04/23 09:55:15.7    -140   -273    163    308    348 207.2  30.2  34124  288.96 0855.26
2009/04/23 09:55:15.8     -84   -278    152    291    328 197.0  29.6  34126  288.98 0855.26
2009/04/23 09:55:15.9     -34   -315     57    317    323 186.2  10.2  34124  288.95 0855.26
2009/04/23 09:55:16.0     -59   -308     18    314    315 190.9   3.3  34128  289.03 0855.26
2009/04/23 09:55:16.1     154   -127    179    200    268 129.6  46.6  34132  289.09 0855.26
2009/04/23 09:55:16.2     155     11    169    156    229  85.7  52.2  34132  289.11 0855.26
2009/04/23 09:55:16.3     177     18    115    179    212  83.9  35.6  34128  289.02 0855.26
2009/04/23 09:55:16.4     136   -182     59    228    236 143.3  14.7  34124  288.95 0855.26
2009/04/23 09:55:16.5     413    -98    351    425    551 103.4  43.7  34120  288.91 0855.26
2009/04/23 09:55:16.6     679     72    255    683    729  83.9  21.5  34122  288.93 0855.26
2009/04/23 09:55:16.7     443    210    386    491    624  64.6  42.1  34138  289.19 0855.26
2009/04/23 09:55:16.8     248    186    358    311    474  53.1  54.8  34146  289.34 0855.26
2009/04/23 09:55:16.9     544    307    355    625    718  60.6  32.3  34124  288.97 0855.26
2009/04/23 09:55:17.0     403    205    161    453    480  63.0  20.4  34134  289.12 0855.26
2009/04/23 09:55:17.1     301    -42     13    305    306  98.0   2.5  34118  288.87 0855.26
2009/04/23 09:55:17.2     413   -215    -21    466    467 117.5  -2.7  34136  289.15 0855.26
2009/04/23 09:55:17.4     527   -265     -9    591    592 116.7  -0.9  34126  288.98 0855.26
2009/04/23 09:55:17.5     616   -152    268    635    689 103.9  24.3  34128  289.04 0855.26
2009/04/23 09:55:17.6     961    250     15    993    994  75.4   0.9  34110  288.73 0855.25
2009/04/23 09:55:17.7     940    417    169   1029   1043  66.1   9.3  34104  288.62 0855.25
2009/04/23 09:55:17.8    1097    331    262   1146   1176  73.2  12.9  34124  288.97 0855.25
2009/04/23 09:55:17.9     881     -4    347    882    947  90.3  22.5  34104  288.62 0855.25
2009/04/23 09:55:18.0     528   -250    113    585    596 115.4  11.0  34128  289.03 0855.25
2009/04/23 09:55:18.1     966     61   -161    968    982  86.4  -9.5  34106  288.65 0855.25
2009/04/23 09:55:18.2     678    282    119    735    745  67.4   9.2  34102  288.60 0855.25
2009/04/23 09:55:18.3     975    368     98   1043   1048  69.3   5.4  34118  288.87 0855.25
2009/04/23 09:55:18.4     832    421    127    933    942  63.2   7.8  34140  289.24 0855.25
2009/04/23 09:55:18.5     769    385    -80    860    865  63.4  -5.4  34128  289.04 0855.25
2009/04/23 09:55:18.6     852    356     46    924    926  67.3   2.9  34112  288.77 0855.25
2009/04/23 09:55:18.7     851    301    161    903    918  70.5  10.1  34132  289.11 0855.25
2009/04/23 09:55:18.8     864    348    278    932    973  68.0  16.6  34120  288.91 0855.25
2009/04/23 09:55:18.9     873    324     69    932    935  69.6   4.2  34120  288.90 0855.25
2009/04/23 09:55:19.0     671    300     51    735    737  65.9   4.0  34160  289.56 0855.25
2009/04/23 09:55:19.1     681    279    221    737    770  67.7  16.7  34158  289.55 0855.25
2009/04/23 09:55:19.2     725    139    173    739    760  79.1  13.2  34164  289.65 0855.25
2009/04/23 09:55:19.3     691     67    251    695    738  84.4  20.7  34176  289.83 0855.25
2009/04/23 09:55:19.4     553     47    177    556    584  85.1  17.7  34186  290.00 0855.25
2009/04/23 09:55:19.5     593    170    271    618    674  74.0  25.2  34156  289.50 0855.25
2009/04/23 09:55:19.6     608    101    330    617    699  80.5  30.5  34176  289.83 0855.25
2009/04/23 09:55:19.7     538    166    350    564    663  72.8  34.8  34164  289.64 0855.25
2009/04/23 09:55:19.8     615    166    318    638    712  74.9  28.5  34174  289.80 0855.25
2009/04/23 09:55:19.9     685    188    313    711    776  74.6  25.3  34156  289.51 0855.25
2009/04/23 09:55:20.0     625     96    291    633    696  81.2  26.5  34140  289.22 0855.25
2009/04/23 09:55:20.1     525    -66    388    530    656  97.2  39.8  34142  289.25 0855.25
2009/04/23 09:55:20.2     505     22    303    506    589  87.5  33.6  34128  289.04 0855.25
2009/04/23 09:55:20.3     421   -106    225    435    489 104.2  29.5  34126  288.98 0855.25
2009/04/23 09:55:20.4     475   -216    310    522    607 114.5  33.5  34116  288.81 0855.25
2009/04/23 09:55:20.5     264   -208    338    337    477 128.2  50.0  34124  288.97 0855.25
2009/04/23 09:55:20.6     318   -444    397    547    675 144.4  39.7  34126  289.01 0855.25
2009/04/23 09:55:20.7     346   -259    360    433    563 126.9  43.8  34134  289.13 0855.25
2009/04/23 09:55:20.8      99   -425    327    437    545 166.8  40.6  34132  289.10 0855.25
2009/04/23 09:55:20.9     366   -221    326    428    538 121.2  41.2  34126  289.01 0855.25
2009/04/23 09:55:21.0     265   -213    314    341    463 128.8  47.6  34132  289.09 0855.25
2009/04/23 09:55:21.1     133   -372    176    396    433 160.3  25.6  34126  289.00 0855.25
2009/04/23 09:55:21.2      31   -358     28    360    362 174.9   4.6  34128  289.03 0855.25
2009/04/23 09:55:21.3     184   -252   -221    313    383 143.9 -43.2  34130  289.08 0855.25
2009/04/23 09:55:21.4     182   -250    -71    310    319 144.0 -12.9  34108  288.68 0855.25
2009/04/23 09:55:21.5     -50   -355   -123    359    380 188.1 -19.0  34136  289.15 0855.25
2009/04/23 09:55:21.6     -94   -282    -49    298    303 198.5  -9.3  34134  289.14 0855.26
2009/04/23 09:55:21.7    -377   -595   -101    705    713 212.4  -8.2  34124  288.95 0855.26
2009/04/23 09:55:21.8    -364   -740   -119    825    834 206.2  -8.3  34134  289.14 0855.26
2009/04/23 09:55:21.9    -395   -477    -96    620    628 219.6  -8.8  34134  289.13 0855.26
2009/04/23 09:55:22.0    -172   -494   -148    524    545 199.2 -15.8  34132  289.09 0855.26
2009/04/23 09:55:22.1      13   -377    -48    378    382 178.0  -7.3  34136  289.16 0855.26
2009/04/23 09:55:22.2     221   -373    213    434    483 149.3  28.0  34124  288.95 0855.26
2009/04/23 09:55:22.3     -49   -423    312    426    528 186.7  39.8  34134  289.13 0855.26
2009/04/23 09:55:22.4     -41   -301    309    304    433 187.8  50.4  34128  289.04 0855.26
2009/04/23 09:55:22.5      53   -334    265    339    430 171.0  41.9  34120  288.88 0855.26
2009/04/23 09:55:22.6      14   -318    258    319    410 177.4  43.3  34120  288.91 0855.26
2009/04/23 09:55:22.7      17   -224    195    225    297 175.5  45.6  34120  288.88 0855.26
2009/04/23 09:55:22.8      52   -292     75    297    307 169.8  14.3  34118  288.85 0855.26
2009/04/23 09:55:22.9     -15   -401    102    402    415 182.2  14.3  34118  288.87 0855.26
2009/04/23 09:55:23.0     -90   -393     53    404    408 192.9   7.5  34120  288.90 0855.26
2009/04/23 09:55:23.1     -74   -393      6    400    401 190.7   0.9  34116  288.81 0855.26
2009/04/23 09:55:23.2     -96   -521    127    530    546 190.5  13.5  34118  288.87 0855.26
2009/04/23 09:55:23.3     -44   -442    107    445    458 185.8  13.6  34120  288.90 0855.26
2009/04/23 09:55:23.4      86   -369     66    379    385 166.9   9.9  34120  288.91 0855.26
2009/04/23 09:55:23.5     104   -466    130    478    496 167.3  15.3  34134  289.12 0855.26
2009/04/23 09:55:23.6     127   -599      5    613    614 168.0   0.5  34118  288.86 0855.27
2009/04/23 09:55:23.7     131   -557    -48    573    576 166.7  -4.8  34104  288.64 0855.27
2009/04/23 09:55:23.8      26   -426   -101    427    439 176.5 -13.4  34110  288.72 0855.27
2009/04/23 09:55:23.9     -85   -401    -85    411    420 192.1 -11.8  34116  288.82 0855.27
2009/04/23 09:55:24.0     -38   -552    -80    554    560 184.0  -8.3  34120  288.89 0855.27
2009/04/23 09:55:24.1    -122   -458     20    475    476 195.0   2.5  34120  288.90 0855.27
2009/04/23 09:55:24.2    -149   -557    231    577    621 195.1  23.0  34120  288.90 0855.27
2009/04/23 09:55:24.3    -119   -378    275    397    482 197.5  38.0  34118  288.87 0855.27
2009/04/23 09:55:24.4    -123   -460    284    477    555 195.0  33.5  34116  288.82 0855.27
2009/04/23 09:55:24.5    -144   -624    316    641    714 193.0  28.2  34114  288.78 0855.27
2009/04/23 09:55:24.6    -254   -739    285    782    832 199.0  21.0  34118  288.87 0855.31
2009/04/23 09:55:24.7    -174   -708    396    730    830 193.8  30.8  34114  288.80 0855.31
2009/04/23 09:55:24.8    -247   -637    347    684    766 201.2  29.1  34114  288.79 0855.31
2009/04/23 09:55:24.9     -78   -557    407    563    694 188.0  39.5  34112  288.76 0855.31
2009/04/23 09:55:25.0     120   -532    214    546    586 167.2  22.7  34124  288.95 0855.31
2009/04/23 09:55:25.1     199   -496    252    535    591 158.1  27.1  34110  288.71 0855.31
2009/04/23 09:55:25.2     371   -509    294    631    696 143.9  26.9  34110  288.72 0855.31
2009/04/23 09:55:25.3     408   -410    453    579    735 135.1  42.0  34112  288.77 0855.31
2009/04/23 09:55:25.4     477   -381    289    611    675 128.6  27.1  34118  288.86 0855.31
2009/04/23 09:55:25.5     303   -313    207    436    482 135.9  27.2  34124  288.95 0855.31
2009/04/23 09:55:25.6     274   -315    255    418    489 139.0  34.3  34120  288.90 0855.31
2009/04/23 09:55:25.7      83   -394    249    403    473 168.0  34.6  34114  288.80 0855.31
2009/04/23 09:55:25.8     145   -591    290    609    674 166.2  27.3  34116  288.81 0855.31
2009/04/23 09:55:25.9     149   -496    271    519    585 163.2  29.8  34118  288.85 0855.31
2009/04/23 09:55:26.0     205   -470    317    514    603 156.4  34.5  34118  288.86 0855.31
2009/04/23 09:55:26.1     159   -481    398    507    644 161.7  42.1  34104  288.64 0855.31
2009/04/23 09:55:26.2     213   -497    362    541    650 156.8  37.0  34112  288.76 0855.31
2009/04/23 09:55:26.3      79   -607    304    613    684 172.6  28.4  34108  288.68 0855.31
2009/04/23 09:55:26.4    -192   -541    -97    575    584 199.6  -9.6  34104  288.64 0855.31
2009/04/23 09:55:26.5    -170   -721   -219    741    773 193.3 -16.5  34106  288.67 0855.31
2009/04/23 09:55:26.6     -16   -668   -308    669    736 181.4 -30.9  34100  288.54 0855.32
2009/04/23 09:55:26.7     -33   -642    -75    643    648 183.0  -6.7  34100  288.55 0855.32
2009/04/23 09:55:26.8       2   -583   -157    584    605 179.8 -15.1  34096  288.49 0855.32
2009/04/23 09:55:26.9     189   -638   -259    666    714 163.5 -26.7  34112  288.76 0855.32
2009/04/23 09:55:27.0     140   -819   -190    831    853 170.3 -12.9  34102  288.58 0855.32
2009/04/23 09:55:27.1      98   -651   -205    659    691 171.4 -17.3  34106  288.66 0855.32
2009/04/23 09:55:27.2      71   -791   -169    795    813 174.8 -12.0  34110  288.74 0855.32
2009/04/23 09:55:27.3      23   -706   -207    707    736 178.1 -21.1  34104  288.61 0855.32
2009/04/23 09:55:27.4      93   -772   -140    778    791 173.1 -10.2  34110  288.73 0855.32
2009/04/23 09:55:27.5      59   -789   -224    792    824 175.7 -15.8  34102  288.59 0855.32
2009/04/23 09:55:27.6     -40   -574   -172    576    602 184.0 -16.7  34108  288.70 0855.32
2009/04/23 09:55:27.7     285   -708   -232    764    799 158.1 -16.9  34100  288.54 0855.32
2009/04/23 09:55:27.8     167   -678   -255    699    744 166.1 -25.4  34110  288.73 0855.32
2009/04/23 09:55:27.9      31   -757   -262    758    803 177.6 -19.1  34110  288.73 0855.32
2009/04/23 09:55:28.0     -69   -674    -98    678    686 185.9  -8.2  34098  288.51 0855.32
2009/04/23 09:55:28.1      40   -855    160    857    872 177.3  10.6  34108  288.70 0855.32
2009/04/23 09:55:28.2      43   -799     53    801    803 176.9   3.8  34116  288.81 0855.32
2009/04/23 09:55:28.3      18   -752     98    753    760 178.6   7.5  34110  288.74 0855.32
2009/04/23 09:55:28.4    -165   -688    -91    708    714 193.5  -7.4  34114  288.79 0855.32
2009/04/23 09:55:28.5     -26   -588    -92    589    597 182.6  -8.9  34108  288.70 0855.32
2009/04/23 09:55:28.6     -99   -649   -102    657    666 188.7  -8.9  34102  288.60 0855.32
2009/04/23 09:55:28.7    -289   -775    -61    828    831 200.5  -4.2  34092  288.42 0855.32
2009/04/23 09:55:28.8    -206   -730    -16    759    760 195.8  -1.3  34106  288.65 0855.32
2009/04/23 09:55:28.9    -129   -766   -163    777    795 189.6 -11.9  34108  288.68 0855.32
2009/04/23 09:55:29.0    -274   -258    -35    377    379 226.7  -5.3  34100  288.54 0855.32
2009/04/23 09:55:29.1    -110    -36    -90    116    146 251.8 -46.6  34116  288.84 0855.32
2009/04/23 09:55:29.2      61     12   -117     63    132  78.5 -73.3  34116  288.84 0855.32
2009/04/23 09:55:29.3      81      0   -182     82    199  89.6 -78.6  34124  288.96 0855.32
2009/04/23 09:55:29.4      91     27   -115     96    149  73.2 -60.7  34116  288.82 0855.32
2009/04/23 09:55:29.5     165   -101    -18    194    195 121.5  -5.6  34116  288.84 0855.32
2009/04/23 09:55:29.6     268   -218     17    346    347 129.1   2.9  34114  288.79 0855.32
2009/04/23 09:55:29.7     304   -283     57    416    420 132.9   7.8  34116  288.83 0855.32
2009/04/23 09:55:29.8     126   -503   -104    519    530 165.8 -11.3  34116  288.84 0855.32
2009/04/23 09:55:29.9     192   -502    -98    538    547 159.1 -10.4  34112  288.77 0855.32
2009/04/23 09:55:30.0     179   -598    -47    625    627 163.3  -4.4  34118  288.86 0855.32
2009/04/23 09:55:30.1     219   -585    -30    625    626 159.4  -2.8  34108  288.69 0855.32
2009/04/23 09:55:30.2     309   -728     44    792    794 157.0   3.2  34112  288.76 0855.32
2009/04/23 09:55:30.3     363   -756    182    839    859 154.3  12.3  34106  288.65 0855.32
2009/04/23 09:55:30.4     310   -639     15    711    712 154.1   1.2  34108  288.69 0855.32
2009/04/23 09:55:30.5     412   -523    174    667    690 141.8  14.6  34104  288.63 0855.32
2009/04/23 09:55:30.6     221   -505    -79    552    558 156.4  -8.2  34112  288.75 0855.27
2009/04/23 09:55:30.7     201   -491    -82    531    538 157.7  -8.8  34104  288.62 0855.27
2009/04/23 09:55:30.8      83   -447   -130    455    473 169.4 -20.7  34110  288.73 0855.27
2009/04/23 09:55:30.9     120   -333   -112    355    372 160.2 -22.6  34110  288.74 0855.27
2009/04/23 09:55:31.0     288   -315   -118    428    445 137.6 -15.4  34112  288.75 0855.27
2009/04/23 09:55:31.1     287   -231   -168    369    405 128.8 -30.6  34110  288.74 0855.27
2009/04/23 09:55:31.2     351   -239    -13    425    426 124.3  -1.8  34116  288.83 0855.27
2009/04/23 09:55:31.3     464   -488     -8    674    675 136.5  -0.7  34110  288.72 0855.27
2009/04/23 09:55:31.4     436   -450    159    627    648 135.9  14.3  34112  288.76 0855.27
2009/04/23 09:55:31.5     427   -426     30    604    605 134.9   2.9  34102  288.59 0855.27
2009/04/23 09:55:31.6     292   -370    329    472    575 141.7  38.3  34102  288.58 0855.27
2009/04/23 09:55:31.7     210   -209    172    297    343 134.9  32.7  34112  288.76 0855.27
2009/04/23 09:55:31.8     138   -209    216    251    331 146.6  45.1  34116  288.83 0855.27
2009/04/23 09:55:31.9     181   -327    132    374    396 151.0  20.2  34112  288.76 0855.27
2009/04/23 09:55:32.0      44   -399    123    402    421 173.7  17.0  34108  288.70 0855.27
2009/04/23 09:55:32.1     141   -256    -16    293    294 151.1  -3.2  34112  288.75 0855.27
2009/04/23 09:55:32.2     254    -61    120    262    288 103.7  26.4  34114  288.78 0855.27
2009/04/23 09:55:32.3     188     18     82    189    206  84.3  25.1  34118  288.86 0855.27
2009/04/23 09:55:32.4     206   -175    330    271    427 130.4  56.4  34102  288.60 0855.27
2009/04/23 09:55:32.5     395     11    183    396    436  88.4  26.5  34116  288.83 0855.27
2009/04/23 09:55:32.6       8   -248    234    249    341 178.0  48.0  34116  288.83 0855.23
2009/04/23 09:55:32.7    -190   -501     76    536    542 200.8   8.1  34114  288.80 0855.23
2009/04/23 09:55:32.8    -225   -500    112    549    561 204.2  11.6  34108  288.70 0855.23
2009/04/23 09:55:32.9    -247   -560   -123    613    626 203.8 -11.3  34098  288.52 0855.23
2009/04/23 09:55:33.0    -718   -396   -226    820    851 241.1 -15.4  34112  288.77 0855.23
2009/04/23 09:55:33.1    -630   -368    358    730    813 239.7  28.0  34104  288.61 0855.23
2009/04/23 09:55:33.2    -297   -446    329    537    629 213.7  34.4  34102  288.59 0855.23
2009/04/23 09:55:33.3    -240   -376    109    447    461 212.5  13.8  34106  288.67 0855.23
2009/04/23 09:55:33.4    -369   -201    399    421    580 241.4  48.4  34104  288.63 0855.23
2009/04/23 09:55:33.5    -319      4    261    320    412 270.9  43.5  34110  288.72 0855.23
2009/04/23 09:55:33.6    -590    -45    278    592    654 265.6  27.1  34120  288.89 0855.23
2009/04/23 09:55:33.7    -397    200    367    445    576 296.8  43.7  34108  288.70 0855.23
2009/04/23 09:55:33.8    -686   -276    276    740    789 248.0  21.5  34116  288.81 0855.23
2009/04/23 09:55:33.9    -557   -158     60    580    584 254.1   5.9  34114  288.78 0855.23
2009/04/23 09:55:34.0    -299    183    122    351    372 301.5  19.2  34116  288.81 0855.23
2009/04/23 09:55:34.1    -384    137    -22    408    409 289.7  -3.2  34118  288.87 0855.23
2009/04/23 09:55:34.2    -630    -27   -110    631    641 267.5  -9.9  34122  288.94 0855.23
2009/04/23 09:55:34.3    -314    400    -76    509    515 321.9  -8.6  34110  288.71 0855.23
2009/04/23 09:55:34.4    -390    -19    446    391    593 267.2  54.3  34116  288.84 0855.23
2009/04/23 09:55:34.5    -168     92    262    192    324 298.9  60.3  34130  289.05 0855.23
2009/04/23 09:55:34.6    -346     66     99    353    367 280.8  15.7  34132  289.10 0855.25
2009/04/23 09:55:34.7     -92      1     36     93     99 270.8  22.0  34124  288.96 0855.25
2009/04/23 09:55:34.8    -365    220    134    427    448 301.0  17.4  34128  289.02 0855.25
2009/04/23 09:55:34.9    -312    226     48    386    390 305.9   7.1  34126  289.01 0855.25
2009/04/23 09:55:35.0    -343    218    -66    407    413 302.4  -9.3  34128  289.04 0855.25
2009/04/23 09:55:35.1    -243    199    239    315    395 309.3  40.9  34132  289.10 0855.25
2009/04/23 09:55:35.2    -220    254    179    337    381 319.1  30.3  34134  289.13 0855.25
2009/04/23 09:55:35.3    -136    216     85    256    271 327.7  18.5  34150  289.39 0855.25
2009/04/23 09:55:35.4    -170    292    -19    338    339 329.8  -3.3  34186  290.01 0855.25
2009/04/23 09:55:35.5    -332      0      4    333    334 270.0   0.7  34146  289.33 0855.25
2009/04/23 09:55:35.6    -297    -18    112    298    318 266.5  21.6  34128  289.03 0855.25
2009/04/23 09:55:35.7    -272      4    191    273    333 270.9  38.6  34134  289.14 0855.25
2009/04/23 09:55:35.8    -258    -98    153    276    315 249.2  31.5  34140  289.24 0855.25
2009/04/23 09:55:35.9     -80   -264    138    277    309 196.9  28.2  34126  288.98 0855.25
2009/04/23 09:55:36.0    -130   -373    253    396    469 199.3  35.6  34128  289.04 0855.25
2009/04/23 09:55:36.1     -47   -472    286    475    554 185.8  34.0  34122  288.92 0855.25
2009/04/23 09:55:36.2      28   -360    203    362    415 175.5  31.6  34124  288.96 0855.25
2009/04/23 09:55:36.3     129   -492    301    509    591 165.3  33.4  34126  289.01 0855.25
2009/04/23 09:55:36.4     103   -498    289    509    585 168.2  32.3  34122  288.92 0855.25
2009/04/23 09:55:36.5     159   -418    189    448    486 159.1  24.2  34118  288.86 0855.25
2009/04/23 09:55:36.6     -39   -539    147    541    561 184.2  15.3  34116  288.84 0855.26
2009/04/23 09:55:36.7       8   -528     63    529    533 179.1   6.8  34120  288.89 0855.26
2009/04/23 09:55:36.8      48   -465     38    468    470 174.0   4.7  34114  288.78 0855.26
2009/04/23 09:55:36.9       7   -312     59    313    319 178.6  10.7  34118  288.87 0855.26
2009/04/23 09:55:37.0    -132   -276   -103    307    323 205.6 -23.5  34116  288.81 0855.26
2009/04/23 09:55:37.1    -113   -324   -171    344    384 199.3 -32.6  34112  288.77 0855.26
2009/04/23 09:55:37.2    -141   -346   -111    374    390 202.2 -21.5  34114  288.79 0855.26
2009/04/23 09:55:37.3    -139   -258   -142    294    326 208.3 -32.1  34116  288.83 0855.26
2009/04/23 09:55:37.4     -69   -362   -108    369    385 190.8 -16.4  34120  288.88 0855.26
2009/04/23 09:55:37.5     -14   -321    -75    322    331 182.5 -13.2  34120  288.88 0855.26
2009/04/23 09:55:37.6      27   -367   -121    368    388 175.7 -18.3  34120  288.91 0855.26
2009/04/23 09:55:37.7      42   -443    -17    446    447 174.6  -2.2  34114  288.80 0855.26
2009/04/23 09:55:37.8     137   -312     48    341    345 156.3   8.1  34114  288.79 0855.26
2009/04/23 09:55:37.9     113   -271    125    294    319 157.3  24.5  34122  288.93 0855.26
2009/04/23 09:55:38.0       2   -146    189    147    239 179.0  58.4  34128  289.02 0855.26
2009/04/23 09:55:38.1      23   -349    162    350    385 176.2  26.9  34118  288.86 0855.26
2009/04/23 09:55:38.2      16   -328    202    329    386 177.2  34.6  34120  288.88 0855.26
2009/04/23 09:55:38.3      51   -358    131    362    384 171.9  20.7  34116  288.82 0855.26
2009/04/23 09:55:38.4     127   -471    137    489    508 164.9  15.7  34120  288.88 0855.26
2009/04/23 09:55:38.5     178   -443    159    478    505 158.1  18.5  34114  288.79 0855.26
2009/04/23 09:55:38.6     177   -359     98    401    413 153.8  13.8  34116  288.82 0855.24
2009/04/23 09:55:38.7     210   -289     84    358    368 144.1  13.2  34116  288.82 0855.24
2009/04/23 09:55:38.8     137   -215     65    256    265 147.5  14.3  34118  288.87 0855.24
2009/04/23 09:55:38.9     136   -200     89    243    258 145.7  21.0  34120  288.88 0855.24
2009/04/23 09:55:39.0     145   -123    106    191    218 130.4  31.4  34112  288.77 0855.24
2009/04/23 09:55:39.1      29   -128    140    132    192 167.1  52.0  34128  289.04 0855.24
2009/04/23 09:55:39.2      18    -55    148     58    158 161.7  77.6  34126  289.01 0855.24
2009/04/23 09:55:39.3      20    -20     72     29     77 135.0  77.1  34128  289.02 0855.24
2009/04/23 09:55:39.4      32    -63    114     71    134 152.8  64.7  34124  288.97 0855.24
2009/04/23 09:55:39.5     -95   -247    214    265    340 201.2  43.1  34122  288.92 0855.24
2009/04/23 09:55:39.6    -190   -190    216    269    344 225.0  43.1  34122  288.93 0855.24
2009/04/23 09:55:39.7    -163   -140    200    216    294 229.3  47.9  34126  288.98 0855.24
2009/04/23 09:55:39.8    -238    -48     84    243    258 258.5  19.2  34118  288.87 0855.24
2009/04/23 09:55:39.9    -179    113     70    212    224 302.4  18.4  34116  288.82 0855.24
2009/04/23 09:55:40.0     -57     81    150    100    180 324.8  63.2  34134  289.14 0855.24
2009/04/23 09:55:40.1       0     47     83     48     95 359.1  67.2  34138  289.19 0855.24
2009/04/23 09:55:40.2    -108     72     50    130    139 303.7  22.0  34124  288.96 0855.24
2009/04/23 09:55:40.3    -158     58     -3    169    170 290.4  -1.3  34124  288.96 0855.24
2009/04/23 09:55:40.4     -90     24    -18     94     96 285.1 -11.3  34122  288.92 0855.24
2009/04/23 09:55:40.5     -12     38    -20     41     45 341.5 -32.6  34124  288.97 0855.24
2009/04/23 09:55:40.6      41      0     98     42    106  90.0  76.1  34124  288.96 0855.22
2009/04/23 09:55:40.7     -25     75    110     80    136 341.7  60.5  34132  289.11 0855.22
2009/04/23 09:55:40.8       0    146    107    147    181 359.6  39.7  34124  288.97 0855.22
2009/04/23 09:55:40.9      26    204    107    206    232   7.3  29.5  34124  288.97 0855.22
2009/04/23 09:55:41.0     100    135     98    169    195  36.5  32.9  34128  289.04 0855.22
2009/04/23 09:55:41.1      74     79     78    109    134  43.2  39.1  34132  289.09 0855.22
2009/04/23 09:55:41.2      50     47    109     69    129  46.9  64.7  34138  289.21 0855.22
2009/04/23 09:55:41.3     -64     41    148     77    166 302.5  70.8  34146  289.35 0855.22
2009/04/23 09:55:41.4     -38     -2    183     39    187 265.7  88.8  34142  289.26 0855.22
2009/04/23 09:55:41.5    -172     96    224    198    298 299.1  54.2  34142  289.25 0855.22
2009/04/23 09:55:41.6      85    -28    333     90    344 108.6  84.9  34112  288.75 0855.22
2009/04/23 09:55:41.7     -32     11    319     35    320 290.0  90.0  34128  289.03 0855.22
2009/04/23 09:55:41.8     296     -5    155    297    335  91.0  30.0  34118  288.85 0855.22
2009/04/23 09:55:41.9     192     79    172    208    269  67.4  43.8  34124  288.97 0855.22
2009/04/23 09:55:42.0     144    -99    213    175    275 124.6  56.4  34134  289.14 0855.22
2009/04/23 09:55:42.1      68    -57    219     90    236 130.0  76.6  34142  289.26 0855.22
2009/04/23 09:55:42.2     214    -81    274    229    357 110.8  56.1  34132  289.09 0855.22
2009/04/23 09:55:42.3     133   -115    221    176    282 130.9  57.5  34132  289.09 0855.22
2009/04/23 09:55:42.4     165   -266    296    314    431 148.1  48.0  34134  289.13 0855.22
2009/04/23 09:55:42.5      50   -528    329    531    624 174.6  34.8  34126  289.00 0855.22
2009/04/23 09:55:42.6     -42   -512    357    514    625 184.8  38.1  34126  289.00 0855.21
2009/04/23 09:55:42.7      -7   -433    246    434    498 181.0  32.0  34150  289.39 0855.21
2009/04/23 09:55:42.8    -181   -547    279    577    640 198.3  27.7  34140  289.23 0855.21
2009/04/23 09:55:42.9    -207   -458    244    503    559 204.4  27.8  34140  289.24 0855.21
2009/04/23 09:55:43.0      44   -563    201    565    600 175.5  19.6  34122  288.93 0855.21
2009/04/23 09:55:43.1     -11   -636    174    637    661 181.0  15.3  34132  289.09 0855.21
2009/04/23 09:55:43.2     -52   -464    126    467    484 186.5  15.1  34134  289.12 0855.21
2009/04/23 09:55:43.3     -16   -455    219    456    505 182.1  27.3  34134  289.12 0855.21
2009/04/23 09:55:43.4     110   -279    266    301    401 158.4  45.9  34120  288.91 0855.21
2009/04/23 09:55:43.5     166   -457    338    487    592 160.0  38.1  34126  289.01 0855.21
2009/04/23 09:55:43.6      72   -435    307    442    538 170.6  38.0  34122  288.93 0855.21
2009/04/23 09:55:43.7     101   -427    336    439    552 166.6  41.2  34128  289.03 0855.21
2009/04/23 09:55:43.8     -15   -357    453    358    577 182.5  57.7  34126  289.00 0855.21
2009/04/23 09:55:43.9      39   -193    261    198    327 168.4  59.1  34132  289.10 0855.21
2009/04/23 09:55:44.0     119   -307    191    330    381 158.8  32.8  34126  288.98 0855.21
2009/04/23 09:55:44.1      23   -221    127    223    256 174.0  32.3  34124  288.97 0855.21
2009/04/23 09:55:44.2      21   -151    114    153    190 172.0  40.4  34128  289.02 0855.21
2009/04/23 09:55:44.4      60   -104     95    121    153 150.1  42.2  34126  288.99 0855.21
2009/04/23 09:55:44.4       0     39     31     40     50   0.9  42.7  34130  289.06 0855.21
2009/04/23 09:55:44.5     138    -21    129    140    190  98.8  47.7  34118  288.87 0855.21
2009/04/23 09:55:44.6      35     26    154     44    160  53.1  83.5  34140  289.24 0855.19
2009/04/23 09:55:44.7     -84    -69    130    109    169 230.5  56.1  34134  289.13 0855.19
2009/04/23 09:55:44.8      54   -244    127    250    280 167.5  29.2  34122  288.93 0855.19
2009/04/23 09:55:44.9     -92   -394    256    405    479 193.2  35.5  34120  288.89 0855.19
2009/04/23 09:55:45.0    -204   -331    362    389    531 211.7  47.9  34122  288.93 0855.19
2009/04/23 09:55:45.2    -466    -80    271    474    546 260.2  32.4  34138  289.21 0855.19
2009/04/23 09:55:45.3    -513    266    -45    578    580 297.4  -4.5  34150  289.39 0855.19
2009/04/23 09:55:45.4    -391    114    -24    408    409 286.3  -3.5  34132  289.11 0855.19
2009/04/23 09:55:45.5    -182      1    256    183    314 270.4  61.0  34132  289.09 0855.19
2009/04/23 09:55:45.6    -216    102    109    240    263 295.4  26.2  34140  289.22 0855.19
2009/04/23 09:55:45.7     -96    -78    156    124    199 230.9  57.7  34134  289.14 0855.21
2009/04/23 09:55:45.8    -138    -60    177    151    232 246.5  55.4  34128  289.04 0855.21
2009/04/23 09:55:45.9      41      0    157     42    162  90.0  84.9  34140  289.23 0855.21
2009/04/23 09:55:46.0     134     88    205    161    260  56.7  57.9  34144  289.30 0855.21
2009/04/23 09:55:46.1     354    168    109    392    407  64.6  15.6  34144  289.31 0855.21
2009/04/23 09:55:46.2     243    182    270    304    406  53.1  46.3  34156  289.52 0855.21
2009/04/23 09:55:46.3       6     61    250     62    257   6.2  86.0  34172  289.77 0855.21
2009/04/23 09:55:46.4     134    277    254    308    399  25.9  43.7  34162  289.60 0855.21
2009/04/23 09:55:46.5     245    189    -26    310    312  52.3  -4.8  34142  289.27 0855.21
2009/04/23 09:55:46.6     138    159     -4    211    212  41.0  -1.3  34144  289.31 0855.21
2009/04/23 09:55:46.7     -25    165    -55    168    177 351.1 -18.3  34144  289.31 0855.21
2009/04/23 09:55:46.8    -193    175    -15    261    262 312.3  -3.3  34152  289.42 0855.21
2009/04/23 09:55:46.9    -211    172    -97    273    290 309.1 -19.7  34150  289.39 0855.21
2009/04/23 09:55:47.0       9    135     79    136    157   4.0  32.7  34146  289.35 0855.21
2009/04/23 09:55:47.1    -117    120    131    168    213 315.7  41.7  34144  289.30 0855.21
2009/04/23 09:55:47.2    -164    -33    164    168    234 258.3  49.8  34150  289.41 0855.21
2009/04/23 09:55:47.3    -103   -110    122    151    194 223.2  43.5  34136  289.18 0855.21
2009/04/23 09:55:47.4     -51    -93    140    107    176 209.0  58.7  34138  289.19 0855.21
2009/04/23 09:55:47.5    -278     16     49    279    284 273.4  10.1  34138  289.20 0855.21
2009/04/23 09:55:47.6    -159    -32    150    163    221 258.5  47.9  34130  289.08 0855.21
2009/04/23 09:55:47.7    -140     10    115    141    181 274.4  43.7  34138  289.19 0855.24
2009/04/23 09:55:47.8     -45     72    176     85    195 327.9  72.8  34142  289.26 0855.24
2009/04/23 09:55:47.9     -92      0    155     93    180 270.0  66.2  34144  289.30 0855.24
2009/04/23 09:55:48.0     -52    -82    160     98    187 212.5  65.4  34140  289.23 0855.24
2009/04/23 09:55:48.1      98     62    121    117    168  57.6  50.9  34136  289.18 0855.24
2009/04/23 09:55:48.2     -79    -18     69     82    107 256.7  44.3  34132  289.09 0855.24
2009/04/23 09:55:48.3    -357     63     17    363    364 280.0   2.8  34130  289.08 0855.24
2009/04/23 09:55:48.4    -367   -247    115    443    458 236.0  14.6  34126  289.00 0855.24
2009/04/23 09:55:48.5    -105   -186    246    214    326 209.6  54.7  34138  289.19 0855.24
2009/04/23 09:55:48.6    -221   -282    200    359    410 218.0  31.4  34132  289.10 0855.24
2009/04/23 09:55:48.7    -322   -214     93    387    399 236.4  13.5  34146  289.32 0855.24
2009/04/23 09:55:48.8    -399   -186     78    441    449 245.0  10.1  34156  289.51 0855.24
2009/04/23 09:55:48.9    -435   -260    148    507    529 239.1  16.3  34128  289.02 0855.24
2009/04/23 09:55:49.0    -430   -282    201    515    552 236.7  22.4  34124  288.97 0855.24
2009/04/23 09:55:49.1    -266   -141    201    302    362 242.1  36.7  34128  289.04 0855.24
2009/04/23 09:55:49.2    -300   -279    248    410    479 227.1  34.1  34140  289.22 0855.24
2009/04/23 09:55:49.3    -211   -343    258    403    478 211.6  35.6  34128  289.04 0855.24
2009/04/23 09:55:49.4    -270   -352    288    444    529 217.5  36.0  34134  289.13 0855.24
2009/04/23 09:55:49.5    -233   -406    265    469    538 209.9  31.9  34132  289.10 0855.24
2009/04/23 09:55:49.6    -150   -333    347    366    504 204.3  48.4  34130  289.05 0855.24
2009/04/23 09:55:49.7    -145   -354    397    383    551 202.3  51.2  34128  289.03 0855.24
2009/04/23 09:55:49.8    -253   -381    360    458    582 213.6  42.2  34130  289.06 0855.24
2009/04/23 09:55:49.9    -214   -446    179    495    527 205.7  19.9  34140  289.22 0855.24
2009/04/23 09:55:50.0    -364   -446    265    576    634 219.2  26.4  34138  289.21 0855.24
2009/04/23 09:55:50.1    -303   -396    206    499    539 217.4  23.7  34132  289.11 0855.24
2009/04/23 09:55:50.2    -273   -463    232    538    585 210.5  25.0  34128  289.03 0855.24
2009/04/23 09:55:50.3    -281   -392    366    483    606 215.6  41.1  34130  289.06 0855.24
2009/04/23 09:55:50.4    -399   -438     66    593    597 222.3   6.4  34136  289.17 0855.24
2009/04/23 09:55:50.5    -372   -458     61    591    595 219.1   6.0  34146  289.34 0855.24
2009/04/23 09:55:50.6    -381   -447    144    588    606 220.4  13.8  34130  289.07 0855.24
2009/04/23 09:55:50.7    -420   -390    108    574    585 227.1  10.7  34156  289.52 0855.24
2009/04/23 09:55:50.8    -407   -418     33    584    585 224.2   3.3  34130  289.08 0855.24
2009/04/23 09:55:50.9    -398   -406     27    569    570 224.4   2.8  34146  289.34 0855.24
2009/04/23 09:55:51.0    -240   -394    204    462    505 211.4  25.6  34136  289.17 0855.24
2009/04/23 09:55:51.1    -224   -448    267    501    567 206.6  30.3  34134  289.13 0855.24
2009/04/23 09:55:51.2    -227   -394    303    455    546 210.0  36.9  34134  289.13 0855.24
2009/04/23 09:55:51.3    -154   -404    275    433    512 201.0  35.5  34136  289.18 0855.24
2009/04/23 09:55:51.4     -72   -375    295    382    482 190.9  41.6  34136  289.17 0855.24
2009/04/23 09:55:51.5     -18   -423    267    424    501 182.5  35.3  34138  289.20 0855.24
2009/04/23 09:55:51.6     -18   -329    253    330    415 183.1  41.3  34134  289.13 0855.24
2009/04/23 09:55:51.7     -90   -334    295    347    455 195.2  44.8  34132  289.11 0855.25
2009/04/23 09:55:51.8    -215   -369    210    428    476 210.3  28.2  34142  289.27 0855.25
2009/04/23 09:55:51.9     -85   -385    129    395    416 192.5  18.1  34144  289.31 0855.25
2009/04/23 09:55:52.0    -388   -308     71    496    502 231.5   8.2  34142  289.27 0855.25
2009/04/23 09:55:52.1    -246   -133    143    280    314 241.6  29.2  34142  289.25 0855.25
2009/04/23 09:55:52.2       9   -238     42    239    243 177.8  10.1  34142  289.25 0855.25
2009/04/23 09:55:52.3      85   -255    -21    269    270 161.5  -4.6  34138  289.19 0855.25
2009/04/23 09:55:52.4     143   -262     36    299    302 151.3   6.9  34132  289.09 0855.25
2009/04/23 09:55:52.5     157   -273     84    315    327 150.1  15.0  34132  289.09 0855.25
2009/04/23 09:55:52.6      64   -179     61    191    201 160.2  17.9  34130  289.08 0855.25
2009/04/23 09:55:52.7      65   -171    123    184    221 159.1  36.7  34128  289.02 0855.25
2009/04/23 09:55:52.8     110   -144    139    182    229 142.8  41.4  34134  289.14 0855.25
2009/04/23 09:55:52.9      15    -92    142     94    170 170.2  63.6  34138  289.21 0855.25
2009/04/23 09:55:53.0      49    -72    166     88    187 145.7  69.8  34142  289.28 0855.25
2009/04/23 09:55:53.1      52    -50    112     73    133 134.1  64.6  34142  289.28 0855.25
2009/04/23 09:55:53.2      40     14    107     43    115  70.0  77.1  34144  289.30 0855.25
2009/04/23 09:55:53.3      45    -74     78     87    116 148.4  46.9  34134  289.14 0855.25
2009/04/23 09:55:53.4      82     -8    102     83    131  96.1  56.4  34140  289.24 0855.25
2009/04/23 09:55:53.5      63    -20     95     67    116 108.2  61.5  34142  289.28 0855.25
2009/04/23 09:55:53.6      13     38     77     41     87  20.0  69.8  34146  289.33 0855.25
2009/04/23 09:55:53.7      -7     22     72     24     75 341.3  81.0  34150  289.40 0855.28
2009/04/23 09:55:53.8     -41     14     87     44     97 289.1  71.9  34158  289.53 0855.28
2009/04/23 09:55:53.9     -24      0     99     25    102 270.0  85.4  34156  289.50 0855.28
2009/04/23 09:55:54.0     -42     51     74     67     99 320.4  52.7  34146  289.35 0855.28
2009/04/23 09:55:54.1     -74    -13     97     76    123 259.4  57.9  34140  289.23 0855.28
2009/04/23 09:55:54.2     -44     -5    120     45    128 263.0  79.1  34150  289.41 0855.28
2009/04/23 09:55:54.3     -54      0     65     55     85 269.2  55.4  34154  289.48 0855.28
2009/04/23 09:55:54.4     -83    -23     47     87     98 254.5  31.3  34158  289.53 0855.28
2009/04/23 09:55:54.5    -123    -66      0    140    141 241.6   0.2  34160  289.58 0855.28
2009/04/23 09:55:54.6     -85   -175     65    195    206 206.1  18.6  34144  289.31 0855.28
2009/04/23 09:55:54.7     -16   -155     98    156    184 186.2  35.5  34144  289.31 0855.28
2009/04/23 09:55:54.8     -14   -170    124    171    211 184.9  39.7  34138  289.21 0855.28
2009/04/23 09:55:54.9     -37   -139    120    144    187 195.1  43.8  34136  289.18 0855.28
2009/04/23 09:55:55.0     -58   -114     74    129    148 207.2  32.4  34142  289.26 0855.28
2009/04/23 09:55:55.1     -36   -103     90    110    142 199.2  43.7  34138  289.19 0855.28
2009/04/23 09:55:55.2     -91    -91     54    130    140 225.0  23.6  34140  289.24 0855.28
2009/04/23 09:55:55.3     -99   -106     50    146    155 223.2  19.2  34140  289.24 0855.28
2009/04/23 09:55:55.4    -112    -53     10    125    126 244.6   5.0  34152  289.45 0855.28
2009/04/23 09:55:55.5    -102   -102     20    145    147 224.9   8.0  34156  289.52 0855.28
2009/04/23 09:55:55.6    -121   -113     18    166    168 226.9   6.5  34144  289.30 0855.28
2009/04/23 09:55:55.7    -112   -131    -56    173    183 220.5 -18.1  34140  289.23 0855.30
2009/04/23 09:55:55.8     -34   -150     74    154    170 192.9  27.3  34136  289.18 0855.30
2009/04/23 09:55:55.9    -146   -177    -27    230    232 219.6  -6.9  34138  289.21 0855.30
2009/04/23 09:55:56.0    -136   -140    -50    196    203 224.1 -14.3  34140  289.24 0855.30
2009/04/23 09:55:56.1    -139   -154     -7    208    209 222.1  -2.1  34146  289.33 0855.30
2009/04/23 09:55:56.2     -76   -140      0    160    161 208.5   0.0  34146  289.35 0855.30
2009/04/23 09:55:56.3     -74   -144    105    162    193 207.2  35.6  34140  289.23 0855.30
2009/04/23 09:55:56.4    -183   -133     44    227    232 234.0  11.1  34152  289.45 0855.30
2009/04/23 09:55:56.5    -172   -172    -40    244    248 225.1  -9.3  34146  289.32 0855.30
2009/04/23 09:55:56.6    -135   -199      3    241    242 214.3   0.8  34142  289.27 0855.30
2009/04/23 09:55:56.7    -179    -84    -58    198    207 244.7 -16.4  34128  289.04 0855.30
2009/04/23 09:55:56.8    -160     -7   -117    161    199 267.4 -44.1  34128  289.02 0855.30
2009/04/23 09:55:56.9     -67      6    -18     68     71 275.2 -15.4  34134  289.13 0855.30
2009/04/23 09:55:57.0     -69     15     66     71     96 282.4  48.5  34142  289.26 0855.30
2009/04/23 09:55:57.1     -40     -8    112     41    119 258.5  79.2  34152  289.43 0855.30
2009/04/23 09:55:57.2     -73    -24     82     78    113 251.4  51.2  34150  289.41 0855.30
2009/04/23 09:55:57.3     -63      0     68     64     93 269.2  51.2  34150  289.41 0855.30
2009/04/23 09:55:57.4     -70    -39     61     81    101 241.1  40.7  34150  289.41 0855.30
2009/04/23 09:55:57.5     -24    -73     77     77    108 198.5  50.1  34142  289.26 0855.30
2009/04/23 09:55:57.6     -62    -59     54     86    101 226.4  35.5  34140  289.24 0855.30
2009/04/23 09:55:57.7    -101    -49     50    113    123 244.2  25.1  34140  289.23 0855.29
2009/04/23 09:55:57.8    -151     47     54    159    169 287.3  18.9  34140  289.23 0855.29
2009/04/23 09:55:57.9    -167      5     57    168    178 271.7  18.9  34140  289.23 0855.29
2009/04/23 09:55:58.0    -152     88     55    176    185 300.2  17.3  34168  289.72 0855.29
2009/04/23 09:55:58.1    -137    113     38    178    183 309.5  12.0  34152  289.43 0855.29
2009/04/23 09:55:58.2    -147    128     69    196    208 311.1  19.4  34144  289.31 0855.29
2009/04/23 09:55:58.3    -128    161     88    206    224 321.5  24.6  34152  289.43 0855.29
2009/04/23 09:55:58.4     -60    180     96    190    212 341.5  29.1  34140  289.24 0855.29
2009/04/23 09:55:58.5     -30    153    101    156    185 348.9  35.6  34142  289.26 0855.29
2009/04/23 09:55:58.6     -37    138    100    144    175 344.9  38.0  34148  289.38 0855.29
2009/04/23 09:55:58.7     -40    120     66    127    143 341.3  29.3  34154  289.46 0855.29
2009/04/23 09:55:58.8       6     77     34     78     85   4.5  25.1  34152  289.45 0855.29
2009/04/23 09:55:58.9       0    105     20    106    108 359.6  11.0  34156  289.50 0855.29
2009/04/23 09:55:59.0       8     92     23     93     97   5.3  14.3  34154  289.46 0855.29
2009/04/23 09:55:59.1     -17     53     32     56     64 341.7  32.4  34156  289.50 0855.29
2009/04/23 09:55:59.2     -59     38     -7     71     72 302.5  -6.2  34150  289.40 0855.29
2009/04/23 09:55:59.3     -65      0    -49     66     82 270.0 -45.1  34146  289.35 0855.29
2009/04/23 09:55:59.4       0    -65    -22     66     69 180.0 -23.6  34148  289.36 0855.29
2009/04/23 09:55:59.5      -2    -95    -30     96    100 181.8 -22.8  34146  289.33 0855.29
2009/04/23 09:55:59.6       8   -116    -32    117    122 175.6 -15.5  34142  289.26 0855.29
2009/04/23 09:55:59.7      48   -109     -5    120    121 156.4  -2.6  34142  289.28 0855.24
2009/04/23 09:55:59.8      43   -152     23    159    161 164.0   8.5  34140  289.23 0855.24
2009/04/23 09:55:59.9      50   -152     -8    161    162 161.7  -3.1  34140  289.23 0855.24
2009/04/23 09:56:00.0     -10   -138     45    139    147 184.4  17.9  34140  289.24 0855.24
2009/04/23 09:56:00.1     -43   -194     76    199    213 192.5  21.5  34138  289.19 0855.24
2009/04/23 09:56:00.2     -71   -247    148    258    297 196.1  32.4  34142  289.25 0855.24
2009/04/23 09:56:00.3     -56   -285    150    291    327 191.1  29.4  34142  289.25 0855.24
2009/04/23 09:56:00.4    -186   -285     67    341    348 213.2  11.1  34144  289.30 0855.24
2009/04/23 09:56:00.5     -65   -382     70    388    395 189.8  10.2  34132  289.11 0855.24
2009/04/23 09:56:00.6    -179   -157    -71    239    250 228.7 -16.5  34132  289.09 0855.24
2009/04/23 09:56:00.7       3   -219    204    220    300 179.1  47.9  34140  289.22 0855.24
2009/04/23 09:56:00.8     -64   -272    211    280    350 193.4  40.7  34138  289.20 0855.24
2009/04/23 09:56:00.9     -84   -278    176    291    340 197.0  34.1  34140  289.24 0855.24
2009/04/23 09:56:01.0    -158   -363    115    396    413 203.5  16.3  34140  289.24 0855.24
2009/04/23 09:56:01.1      -7   -409    215    410    462 181.1  29.8  34140  289.22 0855.24
2009/04/23 09:56:01.2     -95   -331    260    345    432 196.1  40.8  34138  289.21 0855.24
2009/04/23 09:56:01.3    -201   -407    196    454    494 206.3  24.9  34150  289.39 0855.24
2009/04/23 09:56:01.4    -155   -345    245    379    451 204.2  35.9  34148  289.36 0855.24
2009/04/23 09:56:01.5    -112   -370    239    387    454 196.9  34.6  34148  289.36 0855.24
2009/04/23 09:56:01.6    -138   -301     90    332    345 204.7  15.2  34142  289.25 0855.24
2009/04/23 09:56:01.7    -256   -403     49    478    481 212.5   5.9  34132  289.10 0855.22
2009/04/23 09:56:01.8    -307   -363    129    476    494 220.3  15.2  34136  289.17 0855.22
2009/04/23 09:56:01.9    -266   -282    112    388    404 223.3  16.1  34140  289.23 0855.22
2009/04/23 09:56:02.0    -347   -299     97    459    470 229.2  12.0  34136  289.18 0855.22
2009/04/23 09:56:02.1    -327   -271     20    425    426 230.3   2.8  34138  289.19 0855.22
2009/04/23 09:56:02.2    -274   -207    -52    344    348 232.9  -8.7  34152  289.43 0855.22
2009/04/23 09:56:02.3    -197   -342     42    395    398 210.0   6.1  34138  289.20 0855.22
2009/04/23 09:56:02.4    -268   -233     23    356    357 229.0   3.8  34148  289.37 0855.22
2009/04/23 09:56:02.5    -315   -207     -8    377    378 236.7  -1.3  34164  289.65 0855.22
2009/04/23 09:56:02.6    -305   -188   -106    359    374 238.3 -21.2  34146  289.32 0855.22
2009/04/23 09:56:02.7    -302   -191    -37    358    360 237.6  -6.0  34142  289.26 0855.22
2009/04/23 09:56:02.8     -78   -266    146    278    314 196.3  30.0  34134  289.14 0855.22
2009/04/23 09:56:02.9     -64   -341    237    348    421 190.7  37.4  34132  289.11 0855.22
2009/04/23 09:56:03.0     -39   -380    291    382    480 185.9  41.2  34138  289.19 0855.22
2009/04/23 09:56:03.1    -119   -484    219    499    544 193.8  25.2  34136  289.16 0855.22
2009/04/23 09:56:03.2       0   -324    260    325    416 179.9  42.7  34136  289.18 0855.22
2009/04/23 09:56:03.3     -46   -398    239    401    466 186.7  33.6  34142  289.26 0855.22
2009/04/23 09:56:03.4     -53   -262    156    268    310 191.6  33.1  34140  289.24 0855.22
2009/04/23 09:56:03.5      87   -319    129    331    355 164.7  22.5  34138  289.20 0855.22
2009/04/23 09:56:03.6      18   -393    179    394    432 177.3  26.2  34138  289.19 0855.22
2009/04/23 09:56:03.7     112   -278    220    300    372 158.1  39.8  34136  289.15 0855.23
2009/04/23 09:56:03.8      76   -368    251    376    452 168.2  36.9  34140  289.24 0855.23
2009/04/23 09:56:03.9      96   -470    170    480    510 168.4  19.5  34142  289.27 0855.23
2009/04/23 09:56:04.0      16   -360    165    361    396 177.4  26.2  34142  289.25 0855.23
2009/04/23 09:56:04.1     -33   -347     98    349    363 185.6  15.7  34146  289.32 0855.23
2009/04/23 09:56:04.2      31   -394    185    396    437 175.4  27.0  34146  289.34 0855.23
2009/04/23 09:56:04.3      45   -276    146    280    315 170.7  29.8  34142  289.27 0855.23
2009/04/23 09:56:04.4     257    -84     -5    271    272 108.2  -1.2  34136  289.15 0855.23
2009/04/23 09:56:04.5     112   -183     -4    215    216 148.6  -1.2  34140  289.23 0855.23
2009/04/23 09:56:04.6     -69   -240     97    250    268 196.0  22.3  34144  289.31 0855.23
2009/04/23 09:56:04.7      64   -103    128    122    176 148.4  51.6  34144  289.30 0855.23
2009/04/23 09:56:04.8     -59   -241    228    249    337 193.8  47.5  34134  289.12 0855.23
2009/04/23 09:56:04.9    -149   -285    230    322    395 207.6  39.1  34130  289.08 0855.23
2009/04/23 09:56:05.0    -278   -280    173    395    431 224.8  25.2  34140  289.24 0855.23
2009/04/23 09:56:05.1    -168   -242     15    295    296 214.7   2.9  34144  289.29 0855.23
2009/04/23 09:56:05.2    -152   -252    -83    295    306 211.0 -20.4  34140  289.24 0855.23
2009/04/23 09:56:05.3       0   -329   -115    330    349 180.0 -24.0  34148  289.38 0855.23
2009/04/23 09:56:05.4     -15   -238    -72    239    250 183.6 -17.0  34144  289.31 0855.23
2009/04/23 09:56:05.5      66   -239    -69    249    259 164.4 -15.5  34150  289.41 0855.23
2009/04/23 09:56:05.6     -25   -208      8    210    211 187.1   2.3  34150  289.40 0855.23
2009/04/23 09:56:05.7      42   -447     29    450    451 174.6   3.7  34138  289.21 0855.22
2009/04/23 09:56:05.8      25   -427     67    428    434 176.6   8.9  34136  289.17 0855.22
2009/04/23 09:56:05.9      77   -285    173    296    342 164.9  33.0  34134  289.14 0855.22
2009/04/23 09:56:06.0      87   -361    176    372    411 166.4  27.2  34136  289.16 0855.22
2009/04/23 09:56:06.1     162   -525    246    550    602 162.8  25.7  34118  288.85 0855.22
2009/04/23 09:56:06.2     128   -629    272    643    698 168.4  24.3  34114  288.80 0855.22
2009/04/23 09:56:06.3     213   -675    318    708    776 162.5  25.9  34114  288.80 0855.22
2009/04/23 09:56:06.4     177   -535    221    564    605 161.7  22.5  34118  288.85 0855.22
2009/04/23 09:56:06.5     206   -623    147    657    674 161.7  12.6  34120  288.88 0855.22
2009/04/23 09:56:06.6      -6   -484     45    485    488 180.8   5.3  34134  289.12 0855.22
2009/04/23 09:56:06.7      43   -484    -15    486    487 174.9  -1.8  34120  288.91 0855.24
2009/04/23 09:56:06.8     181   -527    142    558    576 161.0  14.3  34124  288.95 0855.24
2009/04/23 09:56:06.9     162   -506    -71    532    537 162.2  -7.7  34128  289.04 0855.24
2009/04/23 09:56:07.0     111   -445   -192    459    497 165.9 -28.3  34130  289.08 0855.24
2009/04/23 09:56:07.1      51   -320    -12    325    326 170.9  -2.2  34126  288.98 0855.24
2009/04/23 09:56:07.2      37   -240     11    243    244 171.1   2.8  34126  288.98 0855.24
2009/04/23 09:56:07.3       7   -390   -108    391    406 178.9 -15.5  34124  288.96 0855.24
2009/04/23 09:56:07.4     -94   -393    166    405    437 193.5  23.5  34134  289.12 0855.24
2009/04/23 09:56:07.5    -161   -432    234    462    517 200.5  29.1  34128  289.03 0855.24
2009/04/23 09:56:07.6    -121   -303    110    327    346 201.9  18.6  34126  289.01 0855.24
2009/04/23 09:56:07.7    -193   -348     79    399    407 209.0  11.3  34130  289.07 0855.24
2009/04/23 09:56:07.8    -183   -298     73    350    358 211.6  11.8  34132  289.10 0855.24
2009/04/23 09:56:07.9    -215   -294    133    365    388 216.1  20.9  34128  289.04 0855.24
2009/04/23 09:56:08.0    -263   -254    -10    366    367 226.0  -1.6  34130  289.06 0855.24
2009/04/23 09:56:08.1    -374   -245   -124    448    465 236.8 -15.5  34122  288.92 0855.24
2009/04/23 09:56:08.2    -343   -112     65    361    367 251.8  10.2  34124  288.96 0855.24
2009/04/23 09:56:08.3    -200   -489    191    529    563 202.3  19.9  34130  289.06 0855.24
2009/04/23 09:56:08.4    -512   -404    -82    653    659 231.7  -7.2  34128  289.03 0855.24
2009/04/23 09:56:08.5    -570   -578    102    812    819 224.6   7.2  34116  288.81 0855.24
2009/04/23 09:56:08.6    -167   -384     59    419    424 203.5   8.0  34126  289.00 0855.24
2009/04/23 09:56:08.7     -59   -371    183    376    418 189.1  27.9  34136  289.17 0855.15
2009/04/23 09:56:08.8    -307   -316    100    441    453 224.2  12.8  34132  289.09 0855.15
2009/04/23 09:56:08.9    -527   -382     29    652    653 234.0   2.6  34126  289.01 0855.15
2009/04/23 09:56:09.0    -492   -322   -235    589    634 236.8 -27.3  34142  289.26 0855.15
2009/04/23 09:56:09.1    -486   -304   -354    574    674 238.0 -39.0  34128  289.04 0855.15
2009/04/23 09:56:09.2    -557   -449    -34    716    717 231.1  -2.8  34132  289.10 0855.15
2009/04/23 09:56:09.3    -451   -308    -39    547    549 235.6  -4.1  34138  289.21 0855.15
2009/04/23 09:56:09.4    -587   -133   -185    602    629 257.2 -21.9  34142  289.25 0855.15
2009/04/23 09:56:09.5    -644   -144   -223    660    697 257.4 -18.7  34138  289.19 0855.15
2009/04/23 09:56:09.6    -449   -200    -22    492    493 245.9  -2.6  34136  289.18 0855.15
2009/04/23 09:56:09.7    -462      0    -33    463    465 270.0  -4.1  34142  289.27 0855.15
2009/04/23 09:56:09.8    -382   -340     10    512    513 228.3   1.2  34130  289.08 0855.15
2009/04/23 09:56:09.9    -157   -329    -27    365    366 205.5  -4.4  34128  289.03 0855.15
2009/04/23 09:56:10.0    -370   -181   -121    413    431 243.9 -16.4  34130  289.05 0855.15
2009/04/23 09:56:10.1    -352   -398   -188    532    565 221.5 -19.5  34130  289.07 0855.15
2009/04/23 09:56:10.2    -301   -245   -175    389    426 230.8 -30.6  34136  289.16 0855.15
2009/04/23 09:56:10.3    -145   -355   -107    384    398 202.2 -20.3  34132  289.11 0855.15
2009/04/23 09:56:10.4    -229   -351    -82    420    429 213.2 -11.1  34132  289.09 0855.15
2009/04/23 09:56:10.5    -217   -339    -15    403    404 212.6  -2.2  34132  289.11 0855.15
2009/04/23 09:56:10.6    -209   -400    -92    452    462 207.6 -11.6  34126  289.00 0855.15
2009/04/23 09:56:10.7    -123   -397    -99    416    428 197.3 -13.4  34126  289.00 0855.13
2009/04/23 09:56:10.8    -114   -370    -15    388    389 197.2  -2.2  34132  289.10 0855.13
2009/04/23 09:56:10.9     -84   -314    -18    326    327 195.1  -3.3  34130  289.07 0855.13
2009/04/23 09:56:11.0    -181   -325    -26    373    374 209.2  -4.1  34128  289.04 0855.13
2009/04/23 09:56:11.1    -135   -319    -24    347    348 202.9  -4.0  34128  289.03 0855.13
2009/04/23 09:56:11.3    -149   -271    -68    310    318 208.9 -12.4  34130  289.05 0855.13
2009/04/23 09:56:11.3    -199   -206    -60    287    294 223.9 -11.9  34140  289.24 0855.13
2009/04/23 09:56:11.4    -138   -230      1    269    270 211.0   0.2  34130  289.05 0855.13
2009/04/23 09:56:11.6     -73   -170    -65    186    197 203.2 -24.6  34130  289.08 0855.13
2009/04/23 09:56:11.7      57   -167    -76    177    192 161.1 -29.0  34132  289.11 0855.13
2009/04/23 09:56:11.7     207   -121     51    240    246 120.4  12.2  34130  289.05 0855.13
2009/04/23 09:56:11.9     304   -222    107    377    393 126.2  15.9  34126  289.01 0855.13
2009/04/23 09:56:12.0     270   -147     20    308    309 118.6   3.8  34130  289.07 0855.13
2009/04/23 09:56:12.1     154   -180     60    238    246 139.5  14.3  34136  289.15 0855.13
2009/04/23 09:56:12.2     245   -310     26    396    397 141.6   3.9  34132  289.11 0855.13
2009/04/23 09:56:12.3     131   -242     77    276    287 151.5  15.6  34134  289.12 0855.13
2009/04/23 09:56:12.4      32   -234     99    237    256 172.0  24.1  34134  289.12 0855.13
2009/04/23 09:56:12.5      11   -207    134    208    247 176.9  35.7  34136  289.15 0855.13
2009/04/23 09:56:12.6      13   -174    120    175    212 175.5  37.6  34136  289.16 0855.13
2009/04/23 09:56:12.7      65   -115    125    133    182 150.6  48.2  34138  289.19 0855.13
2009/04/23 09:56:12.8       0   -194    191    195    272 180.0  49.8  34134  289.14 0855.13
2009/04/23 09:56:12.9     -16   -247    194    248    314 183.8  42.1  34134  289.12 0855.13
2009/04/23 09:56:13.0     -14   -236    163    237    287 183.6  37.6  34130  289.07 0855.13
2009/04/23 09:56:13.1     -58   -247    174    254    307 193.4  37.6  34134  289.12 0855.13
2009/04/23 09:56:13.2     -24   -224    161    226    277 186.3  39.1  34132  289.09 0855.13
2009/04/23 09:56:13.3     -86   -237     91    253    268 200.0  20.4  34130  289.07 0855.13
2009/04/23 09:56:13.4    -119   -289    109    313    332 202.5  19.3  34134  289.12 0855.13
2009/04/23 09:56:13.5     -64   -272     99    280    296 193.4  20.0  34134  289.12 0855.13
2009/04/23 09:56:13.6     -49   -349    140    353    379 188.1  22.9  34132  289.11 0855.13
2009/04/23 09:56:13.7     -91   -417    110    427    442 192.4  14.5  34128  289.04 0855.13
2009/04/23 09:56:13.8     -81   -370    153    379    408 192.4  23.1  34126  289.01 0855.13
2009/04/23 09:56:13.9     -50   -432    205    435    480 186.7  27.1  34130  289.08 0855.13
2009/04/23 09:56:14.0     149   -313    235    347    419 154.5  37.4  34128  289.04 0855.13
2009/04/23 09:56:14.1      95   -369    214    382    437 165.5  31.7  34128  289.04 0855.13
2009/04/23 09:56:14.2     -16   -540     41    541    543 181.7   4.4  34122  288.94 0855.13
2009/04/23 09:56:14.3     -19   -369    157    370    401 183.0  24.3  34128  289.04 0855.13
2009/04/23 09:56:14.4     -86   -611    100    618    627 188.0   9.2  34132  289.09 0855.13
2009/04/23 09:56:14.5    -101   -508    -10    519    520 191.3  -1.1  34130  289.06 0855.13
2009/04/23 09:56:14.6     -90   -551     70    559    564 189.3   7.2  34120  288.91 0855.13
2009/04/23 09:56:14.7    -135   -585     29    601    602 193.0   2.8  34132  289.10 0855.13
2009/04/23 09:56:14.8    -132   -555     23    571    572 193.4   2.4  34130  289.07 0855.17
2009/04/23 09:56:14.9    -163   -508    -21    534    535 197.8  -2.3  34128  289.04 0855.17
2009/04/23 09:56:15.0    -113   -553     -5    565    566 191.6  -0.6  34122  288.92 0855.17
2009/04/23 09:56:15.1    -254   -504     51    565    568 206.7   5.2  34128  289.02 0855.17
2009/04/23 09:56:15.2     -84   -423    -30    432    434 191.3  -4.0  34126  289.00 0855.17
2009/04/23 09:56:15.3    -149   -385    -68    413    419 201.2  -9.4  34128  289.02 0855.17
2009/04/23 09:56:15.4    -140   -376    -85    402    412 200.5 -12.0  34128  289.04 0855.17
2009/04/23 09:56:15.5    -135   -359   -137    384    408 200.7 -19.7  34130  289.06 0855.17
2009/04/23 09:56:15.6    -192   -491   -150    528    550 201.4 -15.9  34128  289.02 0855.17
2009/04/23 09:56:15.7    -143   -425    -57    449    453 198.7  -7.3  34130  289.05 0855.17
2009/04/23 09:56:15.8    -136   -388   -130    412    433 199.3 -17.5  34132  289.11 0855.17
2009/04/23 09:56:15.9    -184   -366   -154    410    437 206.8 -25.9  34128  289.02 0855.17
2009/04/23 09:56:16.0    -189   -246    -99    311    326 217.6 -22.9  34130  289.07 0855.17
2009/04/23 09:56:16.1     -29   -372    -18    374    375 184.5  -2.8  34128  289.03 0855.17
2009/04/23 09:56:16.2     -58   -380    -15    385    386 188.8  -2.2  34132  289.10 0855.17
2009/04/23 09:56:16.3     -75   -435    -93    442    452 189.8 -11.9  34132  289.09 0855.17
2009/04/23 09:56:16.4     -29   -389    -86    391    401 184.4 -12.5  34130  289.06 0855.17
2009/04/23 09:56:16.5    -200   -198    -51    282    287 225.2 -10.3  34132  289.09 0855.17
2009/04/23 09:56:16.6    -343   -175    -55    386    391 242.9  -8.2  34136  289.18 0855.17
2009/04/23 09:56:16.7    -463   -146    -86    486    494 252.4 -10.1  34134  289.12 0855.17
2009/04/23 09:56:16.8    -403   -134    -38    425    427 251.6  -5.2  34136  289.16 0855.16
2009/04/23 09:56:16.9    -379   -120    -51    398    402 252.3  -7.3  34138  289.21 0855.16
2009/04/23 09:56:17.0    -300   -153    -11    338    339 242.9  -1.9  34142  289.26 0855.16
2009/04/23 09:56:17.1    -270   -289     77    396    404 223.1  11.1  34134  289.13 0855.16
2009/04/23 09:56:17.2    -387   -178   -132    427    448 245.3 -17.2  34140  289.24 0855.16
2009/04/23 09:56:17.3    -257   -281    -90    381    392 222.4 -13.3  34130  289.06 0855.16
2009/04/23 09:56:17.4    -234   -149      5    278    279 237.6   1.2  34148  289.37 0855.16
2009/04/23 09:56:17.5    -218    -99    -75    240    252 245.4 -17.5  34150  289.39 0855.16
2009/04/23 09:56:17.6    -241   -155    -67    287    295 237.1 -13.3  34152  289.44 0855.16
2009/04/23 09:56:17.7    -158   -158    -28    224    226 225.0  -7.3  34142  289.28 0855.16
2009/04/23 09:56:17.8    -216   -151     -1    264    265 235.0  -0.3  34146  289.32 0855.16
2009/04/23 09:56:17.9    -208   -176     43    273    277 229.8   9.0  34140  289.22 0855.16
2009/04/23 09:56:18.0    -390   -180     -8    430    431 245.2  -1.2  34160  289.56 0855.16
2009/04/23 09:56:18.1    -315   -149    -58    349    354 244.6  -9.5  34152  289.42 0855.16
2009/04/23 09:56:18.2    -283   -203   -115    349    367 234.4 -23.7  34142  289.28 0855.16
2009/04/23 09:56:18.3    -354   -222    -30    418    420 237.9  -4.1  34150  289.41 0855.16
2009/04/23 09:56:18.4    -237   -252   -172    347    387 223.2 -32.6  34138  289.21 0855.16
2009/04/23 09:56:18.5    -298   -261    -76    397    405 228.8 -10.9  34130  289.08 0855.16
2009/04/23 09:56:18.6    -370   -196    -38    419    421 242.0  -5.3  34140  289.22 0855.16
2009/04/23 09:56:18.7    -350   -272   -139    444    465 232.1 -22.4  34142  289.27 0855.16
2009/04/23 09:56:18.8    -364   -164   -178    400    437 245.7 -30.0  34142  289.26 0855.23
2009/04/23 09:56:18.9    -382   -211   -131    437    457 241.1 -16.7  34138  289.21 0855.23
2009/04/23 09:56:19.0    -323   -323   -143    458    479 225.0 -22.3  34146  289.34 0855.23
2009/04/23 09:56:19.1    -286   -352   -126    454    472 219.1 -15.5  34146  289.32 0855.23
2009/04/23 09:56:19.2    -241   -255    -78    352    361 223.4 -12.5  34142  289.28 0855.23
2009/04/23 09:56:19.3    -241   -187   -106    306    323 232.2 -24.3  34144  289.29 0855.23
2009/04/23 09:56:19.4    -329   -195   -111    383    398 239.3 -21.0  34156  289.52 0855.23
2009/04/23 09:56:19.5    -358   -110   -164    375    409 252.8 -29.5  34146  289.33 0855.23
2009/04/23 09:56:19.6    -268   -228   -101    353    367 229.6 -20.9  34148  289.38 0855.23
2009/04/23 09:56:19.7    -198   -234   -140    307    337 220.3 -30.7  34144  289.31 0855.23
2009/04/23 09:56:19.8    -159   -157   -161    224    275 225.3 -43.7  34136  289.15 0855.23
2009/04/23 09:56:19.9    -245   -126   -133    276    306 242.7 -31.7  34142  289.27 0855.23
2009/04/23 09:56:20.0    -264   -179   -154    320    355 235.8 -31.8  34138  289.20 0855.23
2009/04/23 09:56:20.1    -209   -196   -150    287    323 226.9 -34.0  34140  289.24 0855.23
2009/04/23 09:56:20.2    -279   -108   -112    300    320 248.7 -25.8  34140  289.22 0855.23
2009/04/23 09:56:20.3    -183   -178   -108    256    277 225.8 -28.6  34142  289.25 0855.23
2009/04/23 09:56:20.4    -134   -246    -96    281    296 208.5 -23.6  34142  289.25 0855.23
2009/04/23 09:56:20.5    -137   -238   -103    275    293 209.9 -25.9  34142  289.27 0855.23
2009/04/23 09:56:20.6    -128   -201    -72    239    249 212.5 -21.7  34146  289.32 0855.23
2009/04/23 09:56:20.7    -113   -114      8    161    162 224.9   2.9  34154  289.46 0855.23
2009/04/23 09:56:20.8      -8   -195    -63    196    206 182.5 -17.9  34142  289.26 0855.25
2009/04/23 09:56:20.9    -177   -121   -103    215    238 235.6 -31.8  34150  289.40 0855.25
2009/04/23 09:56:21.0     -68   -157   -111    172    204 203.6 -40.0  34152  289.45 0855.25
2009/04/23 09:56:21.1       5   -200    -68    201    212 178.4 -23.3  34152  289.43 0855.25
2009/04/23 09:56:21.2      90   -214     45    233    238 157.1  11.0  34148  289.37 0855.25
2009/04/23 09:56:21.3      61   -153      5    165    166 158.2   1.8  34160  289.58 0855.25
2009/04/23 09:56:21.4      73   -146     56    164    174 153.3  18.9  34158  289.53 0855.25
2009/04/23 09:56:21.5     -65   -101    134    121    180 212.6  53.3  34148  289.36 0855.25
2009/04/23 09:56:21.6     -23   -116      6    119    120 191.6   3.3  34154  289.46 0855.25
2009/04/23 09:56:21.7      28   -104      2    108    109 164.8   1.2  34156  289.50 0855.25
2009/04/23 09:56:21.8     150    -94     16    178    179 122.0   5.4  34154  289.48 0855.25
2009/04/23 09:56:21.9      44   -135     41    143    149 161.7  16.3  34146  289.33 0855.25
2009/04/23 09:56:22.0      76    -86     25    116    119 138.6  12.2  34152  289.45 0855.25
2009/04/23 09:56:22.1      51   -115     35    127    132 155.9  15.8  34152  289.43 0855.25
2009/04/23 09:56:22.2       4   -141     23    142    144 178.2   9.5  34162  289.60 0855.25
2009/04/23 09:56:22.3     110   -156     -7    192    193 144.8  -2.2  34160  289.57 0855.25
2009/04/23 09:56:22.4     141   -101    -40    174    179 125.5 -13.2  34158  289.53 0855.25
2009/04/23 09:56:22.5      60   -182    -53    192    200 161.5 -15.5  34160  289.57 0855.25
2009/04/23 09:56:22.6      46   -190   -112    196    225 166.4 -36.5  34156  289.52 0855.25
2009/04/23 09:56:22.7      68   -238    -76    248    259 164.0 -22.1  34156  289.51 0855.25
2009/04/23 09:56:22.8      47   -227    -64    232    241 168.2 -15.5  34156  289.49 0855.24
2009/04/23 09:56:22.9      71   -259    -14    269    270 164.6  -3.2  34152  289.44 0855.24
2009/04/23 09:56:23.0      49   -199     48    206    212 166.0  13.1  34154  289.46 0855.24
2009/04/23 09:56:23.1      79   -235     48    249    254 161.3  11.0  34146  289.32 0855.24
2009/04/23 09:56:23.2       3   -215     22    216    218 179.1   5.9  34152  289.43 0855.24
2009/04/23 09:56:23.3       3   -210    -24    211    213 179.0  -6.5  34154  289.48 0855.24
2009/04/23 09:56:23.4      34   -239     -9    242    243 171.9  -2.2  34152  289.44 0855.24
2009/04/23 09:56:23.5      16   -268      1    269    270 176.5   0.2  34150  289.39 0855.24
2009/04/23 09:56:23.6      43   -244     -1    248    249 170.0  -0.3  34148  289.36 0855.24
2009/04/23 09:56:23.7      71   -214    -12    226    227 161.5  -3.2  34142  289.28 0855.24
2009/04/23 09:56:23.8      72   -202     10    215    216 160.4   2.9  34146  289.35 0855.24
2009/04/23 09:56:23.9      86   -200    -27    218    220 156.6  -7.2  34144  289.31 0855.24
2009/04/23 09:56:24.0     178   -139    -32    227    230 128.0  -8.2  34146  289.33 0855.24
2009/04/23 09:56:24.1     145   -141    -36    203    207 134.0 -10.1  34144  289.31 0855.24
2009/04/23 09:56:24.2     147   -157    -46    216    222 137.0 -12.2  34142  289.28 0855.24
2009/04/23 09:56:24.3     136   -145    -18    200    201 136.8  -5.4  34142  289.28 0855.24
2009/04/23 09:56:24.4     115   -233     -7    260    261 153.7  -1.6  34134  289.14 0855.24
2009/04/23 09:56:24.5     124   -223     48    256    261 151.0  10.8  34138  289.19 0855.24
2009/04/23 09:56:24.6      57   -210     52    218    225 164.6  13.5  34138  289.21 0855.24
2009/04/23 09:56:24.7      23   -172    132    174    218 172.2  41.2  34140  289.24 0855.24
2009/04/23 09:56:24.8     -12   -155    147    156    214 184.5  48.5  34142  289.26 0855.24
2009/04/23 09:56:24.9     -33   -175    157    179    238 190.7  45.9  34140  289.24 0855.24
2009/04/23 09:56:25.0     -64   -173    114    185    217 200.5  34.8  34142  289.26 0855.24
2009/04/23 09:56:25.1     -75   -162     90    179    200 204.9  28.7  34140  289.24 0855.24
2009/04/23 09:56:25.2     -55   -161    101    171    198 198.9  33.5  34140  289.23 0855.24
2009/04/23 09:56:25.3     -21   -206    148    208    255 186.0  39.3  34138  289.20 0855.24
2009/04/23 09:56:25.4     -27   -198    204    200    285 188.0  50.2  34142  289.27 0855.24
2009/04/23 09:56:25.5       2   -293    254    294    388 179.5  45.2  34146  289.35 0855.24
2009/04/23 09:56:25.6     -31   -261    224    263    345 186.9  44.7  34140  289.24 0855.24
2009/04/23 09:56:25.7     -24   -234    241    236    337 186.0  50.7  34144  289.31 0855.24
2009/04/23 09:56:25.8     -24   -264    214    266    341 185.3  43.1  34146  289.34 0855.24
2009/04/23 09:56:25.9     -12   -236    181    237    298 182.9  41.4  34148  289.37 0855.24
2009/04/23 09:56:26.0     -15   -237    155    238    284 183.8  36.0  34154  289.47 0855.24
2009/04/23 09:56:26.1     -49   -150    165    159    229 198.3  50.9  34152  289.43 0855.24
2009/04/23 09:56:26.2     -45   -186    221    192    292 193.8  54.3  34152  289.44 0855.24
2009/04/23 09:56:26.3     -31   -142    203    146    250 192.5  60.8  34152  289.45 0855.24
2009/04/23 09:56:26.4     -53   -103    177    116    211 207.2  64.1  34156  289.52 0855.24
2009/04/23 09:56:26.5     -47    -47    158     67    171 225.0  75.9  34162  289.60 0855.24
2009/04/23 09:56:26.6     -53   -115    174    127    215 204.9  60.5  34154  289.48 0855.24
2009/04/23 09:56:26.7       1   -128    209    129    245 179.5  65.4  34154  289.48 0855.24
2009/04/23 09:56:26.8       6      2    171      7    171  71.8  90.0  34190  290.09 0855.26
2009/04/23 09:56:26.9     114     37    211    120    242  71.8  67.8  34232  290.79 0855.26
2009/04/23 09:56:27.0     179     56    280    188    337  72.5  63.1  34226  290.70 0855.26
2009/04/23 09:56:27.1     249     -3    194    250    316  90.8  41.7  34226  290.68 0855.26
2009/04/23 09:56:27.2     359     21    133    360    383  86.5  21.1  34184  289.99 0855.26
2009/04/23 09:56:27.3     439     19    252    440    507  87.4  32.4  34206  290.35 0855.26
2009/04/23 09:56:27.4     366    -88    194    377    423 103.6  29.3  34196  290.19 0855.26
2009/04/23 09:56:27.5     242    -37    175    245    301  98.8  39.3  34208  290.37 0855.26
2009/04/23 09:56:27.6     381     90    274    392    478  76.7  38.4  34204  290.31 0855.26
2009/04/23 09:56:27.7     378    271    167    466    495  54.4  20.4  34220  290.59 0855.26
2009/04/23 09:56:27.8     533    232    255    582    635  66.5  25.2  34218  290.57 0855.26
2009/04/23 09:56:27.9     308    270    275    410    493  48.7  37.0  34190  290.08 0855.26
2009/04/23 09:56:28.0     304    512     83    596    603  30.7   8.0  34180  289.90 0855.26
2009/04/23 09:56:28.1     415    439    142    605    622  43.4  13.2  34170  289.74 0855.26
2009/04/23 09:56:28.2     197    394    154    441    468  26.6  19.3  34174  289.82 0855.26
2009/04/23 09:56:28.3     192    381     95    427    438  26.8  12.6  34190  290.07 0855.26
2009/04/23 09:56:28.4     343    354     96    494    504  44.1  11.0  34202  290.27 0855.26
2009/04/23 09:56:28.5     521    330     92    617    624  57.6   8.5  34188  290.04 0855.26
2009/04/23 09:56:28.6     544    382    207    665    697  54.9  17.3  34172  289.78 0855.26
2009/04/23 09:56:28.7     424    421    116    598    610  45.2  11.0  34156  289.52 0855.26
2009/04/23 09:56:28.8     467    532    273    709    759  41.3  22.2  34142  289.26 0855.26
2009/04/23 09:56:28.9     330    377     -2    502    503  41.2  -0.3  34170  289.73 0855.26
2009/04/23 09:56:29.0     276    478    200    552    588  30.0  19.9  34164  289.64 0855.26
2009/04/23 09:56:29.1     257    504    110    566    577  27.1  11.0  34168  289.71 0855.26
2009/04/23 09:56:29.2     376    240    204    447    491  57.4  26.2  34184  289.98 0855.26
2009/04/23 09:56:29.3     337    210    185    398    438  58.1  26.6  34190  290.09 0855.26
2009/04/23 09:56:29.4     490     68    220    495    541  82.0  25.6  34172  289.77 0855.26
2009/04/23 09:56:29.5     313    130    270    340    434  67.4  42.6  34194  290.16 0855.26
2009/04/23 09:56:29.6     343    184    135    390    413  61.7  19.2  34182  289.94 0855.26
2009/04/23 09:56:29.7     410    128    272    430    508  72.6  35.5  34158  289.54 0855.26
2009/04/23 09:56:29.8     340    183    291    387    484  61.7  40.7  34158  289.55 0855.26
2009/04/23 09:56:29.9     417    147    194    443    483  70.5  25.2  34130  289.06 0855.26
2009/04/23 09:56:30.0     330    152    311    364    478  65.2  44.8  34136  289.17 0855.26
2009/04/23 09:56:30.1     281    157    199    323    379  60.8  34.8  34174  289.82 0855.26
2009/04/23 09:56:30.2      35    106    181    112    212  18.7  64.9  34194  290.16 0855.26
2009/04/23 09:56:30.3     -70     66    239     97    257 313.6  77.0  34180  289.92 0855.26
2009/04/23 09:56:30.4    -112   -121    267    165    313 222.8  65.4  34186  290.02 0855.26
2009/04/23 09:56:30.5       5   -287    182    288    340 179.0  35.5  34144  289.31 0855.26
2009/04/23 09:56:30.6    -140   -193    209    239    317 216.1  45.8  34194  290.14 0855.26
2009/04/23 09:56:30.7    -124   -269    239    297    381 204.7  43.1  34152  289.42 0855.26
2009/04/23 09:56:30.8      32   -294    241    296    381 173.8  43.5  34146  289.32 0855.26
2009/04/23 09:56:30.9      14   -263    236    264    354 176.9  46.4  34144  289.31 0855.26
2009/04/23 09:56:31.0     -75   -328    234    337    410 192.9  38.3  34128  289.03 0855.26
2009/04/23 09:56:31.1     154    -71    200    170    262 114.8  55.4  34150  289.39 0855.26
2009/04/23 09:56:31.2      51    -36    166     63    177 125.1  78.4  34142  289.28 0855.26
2009/04/23 09:56:31.3     129   -166    175    211    274 142.2  43.8  34148  289.36 0855.26
2009/04/23 09:56:31.4      71   -181    203    195    281 158.4  51.2  34142  289.27 0855.26
2009/04/23 09:56:31.5      -2   -173    249    174    303 180.7  61.7  34144  289.31 0855.26
2009/04/23 09:56:31.6      51   -194    193    201    278 165.1  49.0  34148  289.37 0855.26
2009/04/23 09:56:31.7     -20   -266    255    267    369 184.5  48.7  34146  289.35 0855.26
2009/04/23 09:56:31.8     -98   -248    175    267    319 201.6  36.3  34146  289.32 0855.23
2009/04/23 09:56:31.9    -123   -219    126    252    281 209.4  28.7  34148  289.36 0855.23
2009/04/23 09:56:32.0     -88   -170    162    192    251 207.4  44.5  34146  289.34 0855.23
2009/04/23 09:56:32.1     -72   -303    240    312    393 193.4  41.5  34144  289.30 0855.23
2009/04/23 09:56:32.2      28   -245    144    247    285 173.3  33.1  34148  289.36 0855.23
2009/04/23 09:56:32.3      78   -174    143    191    238 155.7  40.7  34148  289.38 0855.23
2009/04/23 09:56:32.4     -46   -140    154    148    213 198.3  50.9  34146  289.35 0855.23
2009/04/23 09:56:32.5      94    -35     66    101    120 110.4  36.0  34152  289.43 0855.23
2009/04/23 09:56:32.6      24   -140     37    143    148 170.2  14.7  34146  289.35 0855.23
2009/04/23 09:56:32.7      88    -99     -2    133    134 138.6  -1.3  34152  289.43 0855.23
2009/04/23 09:56:32.8     -79   -295    -50    306    311 195.1  -9.4  34144  289.31 0855.23
2009/04/23 09:56:32.9     -41   -170     38    176    181 193.8  12.2  34146  289.33 0855.23
2009/04/23 09:56:33.0     -81    -41    174     92    196 242.9  70.0  34162  289.62 0855.23
2009/04/23 09:56:33.1      36     36    110     51    121  45.0  73.5  34154  289.48 0855.23
2009/04/23 09:56:33.2     -21    -15     43     27     50 234.0  64.7  34164  289.63 0855.23
2009/04/23 09:56:33.3     -70    -86    -13    111    112 219.2  -6.7  34156  289.52 0855.23
2009/04/23 09:56:33.4    -139    -12     27    140    143 264.8  11.0  34146  289.35 0855.23
2009/04/23 09:56:33.5     -95   -106    166    143    219 221.9  55.0  34166  289.69 0855.23
2009/04/23 09:56:33.6    -105    -71    119    127    174 235.8  48.5  34162  289.62 0855.23
2009/04/23 09:56:33.7     -76    -69     64    103    121 227.8  35.0  34158  289.55 0855.23
2009/04/23 09:56:33.8       7   -155    117    156    195 177.3  40.4  34160  289.58 0855.24
2009/04/23 09:56:33.9     -36   -167     77    171    187 192.3  26.2  34160  289.57 0855.24
2009/04/23 09:56:34.0       4   -118     79    119    142 177.8  36.5  34158  289.55 0855.24
2009/04/23 09:56:34.1     -46    -34     24     58     62 234.0  23.1  34154  289.48 0855.24
2009/04/23 09:56:34.2     -12     57     75     59     95 347.5  57.5  34160  289.58 0855.24
2009/04/23 09:56:34.3      74     54     86     92    125  53.6  48.0  34164  289.63 0855.24
2009/04/23 09:56:34.4     137     27    140    140    197  78.6  50.1  34152  289.45 0855.24
2009/04/23 09:56:34.5       8    -73    129     74    148 173.8  67.7  34164  289.63 0855.24
2009/04/23 09:56:34.6      58    -36    136     69    152 122.4  71.4  34160  289.57 0855.24
2009/04/23 09:56:34.7      19    -86    128     89    155 167.1  62.6  34164  289.63 0855.24
2009/04/23 09:56:34.8      -8   -114    141    115    181 184.4  56.4  34152  289.43 0855.24
2009/04/23 09:56:34.9     -51   -154    130    163    208 198.5  42.7  34144  289.31 0855.24
2009/04/23 09:56:35.0     -79   -169    132    187    228 205.3  38.8  34144  289.30 0855.24
2009/04/23 09:56:35.1     -34   -211    149    214    260 189.3  38.4  34154  289.46 0855.24
2009/04/23 09:56:35.2    -133    -63     74    148    165 244.8  28.7  34154  289.48 0855.24
2009/04/23 09:56:35.3    -106     20     95    108    143 281.0  45.9  34162  289.60 0855.24
2009/04/23 09:56:35.4     -47     15     63     50     80 288.6  57.5  34162  289.62 0855.24
2009/04/23 09:56:35.5      55     50     78     75    108  47.8  51.2  34166  289.67 0855.24
2009/04/23 09:56:35.6      51     74     81     91    121  34.7  46.4  34182  289.94 0855.24
2009/04/23 09:56:35.7     166     55    164    175    239  71.6  48.0  34218  290.57 0855.24
2009/04/23 09:56:35.8     222     83    219    238    323  69.4  47.5  34224  290.66 0855.24
2009/04/23 09:56:35.9     177    107    211    207    295  58.9  50.4  34206  290.36 0855.24
2009/04/23 09:56:36.0     140    100    170    173    242  54.5  49.8  34194  290.16 0855.24
2009/04/23 09:56:36.1     127     44    164    135    212  70.9  56.4  34216  290.53 0855.24
2009/04/23 09:56:36.2     120     54    135    132    188  65.6  50.7  34220  290.60 0855.24
2009/04/23 09:56:36.3     148     61    134    161    209  67.4  43.8  34208  290.38 0855.24
2009/04/23 09:56:36.4     148     75    140    166    217  63.1  44.5  34192  290.11 0855.24
2009/04/23 09:56:36.5      44    -13    123     46    131 106.8  79.1  34200  290.25 0855.24
2009/04/23 09:56:36.6      17     26    109     32    113  32.6  83.3  34202  290.28 0855.24
2009/04/23 09:56:36.7      19    -24     52     31     60 142.2  66.8  34194  290.14 0855.24
2009/04/23 09:56:36.8     -58     15     21     61     65 285.0  19.4  34188  290.04 0855.24
2009/04/23 09:56:36.9    -100     -6     26    101    105 266.5  14.7  34156  289.50 0855.24
2009/04/23 09:56:37.0     -45    -54    117     71    136 219.7  65.7  34146  289.35 0855.24
2009/04/23 09:56:37.1    -110    -60     44    126    134 241.1  19.4  34140  289.23 0855.24
2009/04/23 09:56:37.2     -42    -76     60     88    106 209.0  37.6  34112  288.77 0855.24
2009/04/23 09:56:37.3      89    -95    126    131    181 136.8  49.0  34130  289.08 0855.24
2009/04/23 09:56:37.5       7   -124    185    125    223 176.4  62.8  34134  289.14 0855.24
2009/04/23 09:56:37.5     -20   -150    217    152    264 187.6  61.5  34124  288.97 0855.24
2009/04/23 09:56:37.6     -30   -179    141    182    230 189.6  41.7  34118  288.87 0855.24
2009/04/23 09:56:37.7     -21   -142     49    144    153 188.5  18.9  34110  288.72 0855.24
2009/04/23 09:56:37.9    -156    -47    -57    163    173 253.2 -19.4  34118  288.86 0855.27
2009/04/23 09:56:38.0    -134   -110     37    174    179 230.5  12.2  34132  289.09 0855.27
2009/04/23 09:56:38.1     -84     61     66    104    123 306.0  35.5  34126  288.99 0855.27
2009/04/23 09:56:38.2    -211    100    -19    234    235 295.5  -4.9  34122  288.93 0855.27
2009/04/23 09:56:38.3    -148    133    -13    200    201 312.0  -3.9  34124  288.96 0855.27
2009/04/23 09:56:38.4    -129     87     27    156    159 304.2   9.9  34122  288.94 0855.27
2009/04/23 09:56:38.5    -141    124     -8    188    189 311.3  -2.6  34120  288.89 0855.27
2009/04/23 09:56:38.6     -98     98     40    140    146 315.0  16.3  34130  289.06 0855.27
2009/04/23 09:56:38.7     -74     64     77     98    124 310.9  41.7  34138  289.21 0855.27
2009/04/23 09:56:38.8     -89     83     62    122    136 313.1  29.2  34138  289.21 0855.27
2009/04/23 09:56:38.9    -181     92     -2    204    205 297.1  -0.7  34140  289.24 0855.27
2009/04/23 09:56:39.0    -188     82    -15    206    207 293.5  -4.4  34138  289.19 0855.27
2009/04/23 09:56:39.1    -157    -99     54    186    194 237.6  16.3  34120  288.91 0855.27
2009/04/23 09:56:39.2    -131    -39     76    137    156 253.1  31.6  34118  288.86 0855.27
2009/04/23 09:56:39.3    -172     -3     86    173    193 268.7  28.2  34122  288.92 0855.27
2009/04/23 09:56:39.4    -176     36     89    180    200 281.7  28.2  34120  288.91 0855.27
2009/04/23 09:56:39.5    -159     34     98    163    190 282.2  34.0  34126  288.99 0855.27
2009/04/23 09:56:39.6    -145     72     72    162    177 296.4  25.7  34126  289.01 0855.27
2009/04/23 09:56:39.7    -135     61     47    149    157 294.4  17.7  34128  289.02 0855.27
2009/04/23 09:56:39.8    -184     43     63    190    201 283.3  18.4  34128  289.02 0855.27
2009/04/23 09:56:39.9    -159     55     19    169    171 289.1   6.7  34128  289.02 0855.27
2009/04/23 09:56:40.0    -170     29     16    173    174 279.9   5.4  34134  289.14 0855.27
2009/04/23 09:56:40.1    -109     40     -4    117    118 290.4  -2.2  34124  288.97 0855.27
2009/04/23 09:56:40.2    -100     77     -9    127    128 307.8  -4.1  34128  289.02 0855.27
2009/04/23 09:56:40.3    -120    120    -47    170    177 314.9 -15.5  34126  289.01 0855.27
2009/04/23 09:56:40.4    -113    105    -48    155    163 313.1 -17.3  34126  289.01 0855.27
2009/04/23 09:56:40.5    -127     86    -25    154    157 304.2  -9.3  34126  288.99 0855.27
2009/04/23 09:56:40.6    -148     39    -27    154    157 285.0 -10.3  34126  288.99 0855.27
2009/04/23 09:56:40.7    -113     74    -49    136    144 303.3 -24.4  34126  289.01 0855.27
2009/04/23 09:56:40.8     -70     86      5    112    113 320.8   2.8  34126  289.01 0855.27
2009/04/23 09:56:40.9     -76     75      8    108    109 314.6   4.4  34134  289.13 0855.27
2009/04/23 09:56:41.0     -51     80     92     95    132 327.4  49.4  34136  289.16 0855.27
2009/04/23 09:56:41.1     -47    -11    100     49    111 256.7  72.8  34146  289.35 0855.27
2009/04/23 09:56:41.2     -38     56     92     68    114 325.7  60.5  34150  289.40 0855.27
2009/04/23 09:56:41.3     -79     55     59     97    113 304.6  35.5  34146  289.35 0855.27
2009/04/23 09:56:41.4     -97     20     55    100    114 281.9  31.4  34142  289.28 0855.27
2009/04/23 09:56:41.5    -138     30     41    142    148 282.4  16.3  34140  289.24 0855.27
2009/04/23 09:56:41.6    -137     27     43    140    147 281.5  17.3  34150  289.40 0855.27
2009/04/23 09:56:41.7    -129     22     35    131    136 279.7  15.2  34148  289.36 0855.27
2009/04/23 09:56:41.8    -166      9      8    167    168 273.3   2.9  34154  289.46 0855.27
2009/04/23 09:56:41.9    -117     23     -3    120    121 281.4  -1.8  34158  289.53 0855.27
2009/04/23 09:56:42.0    -114     63     43    131    139 298.9  18.4  34166  289.67 0855.27
2009/04/23 09:56:42.1    -109     36     44    115    123 288.4  21.5  34162  289.62 0855.27
2009/04/23 09:56:42.2     -94     30     13     99    100 288.2   7.5  34156  289.52 0855.27
2009/04/23 09:56:42.3    -118     35     -2    124    125 286.4  -1.3  34156  289.50 0855.27
2009/04/23 09:56:42.4     -78     40      6     88     89 297.1   4.4  34174  289.82 0855.27
2009/04/23 09:56:42.5     -62     54     59     83    101 311.3  39.5  34184  289.97 0855.27
2009/04/23 09:56:42.6     -52      9     85     53    100 280.6  64.7  34184  289.97 0855.27
2009/04/23 09:56:42.7     -99      5    109    100    147 273.0  52.2  34172  289.77 0855.27
2009/04/23 09:56:42.8    -177     12     62    178    189 273.9  19.2  34178  289.89 0855.27
2009/04/23 09:56:42.9    -121    -36     61    127    140 253.2  27.3  34182  289.94 0855.27
2009/04/23 09:56:43.0     -91    -91      1    129    130 225.1   0.8  34170  289.74 0855.27
2009/04/23 09:56:43.1     -97    -91     -8    134    135 226.8  -3.7  34190  290.08 0855.27
2009/04/23 09:56:43.2     -87    -84    -15    122    123 226.0  -7.3  34178  289.87 0855.27
2009/04/23 09:56:43.3    -129   -132     73    185    198 224.3  22.8  34192  290.11 0855.27
2009/04/23 09:56:43.4    -114    -95     69    149    164 230.4  26.6  34188  290.04 0855.27
2009/04/23 09:56:43.5    -114   -158     30    195    198 215.8   9.0  34182  289.96 0855.27
2009/04/23 09:56:43.6      -2   -199     67    200    212 180.7  18.6  34180  289.92 0855.27
2009/04/23 09:56:43.7       0   -209     97    210    231 180.2  27.0  34172  289.79 0855.27
2009/04/23 09:56:43.8      18   -227    127    228    260 175.3  31.4  34178  289.86 0855.27
2009/04/23 09:56:43.9      43   -254    146    258    296 170.4  31.9  34152  289.44 0855.25
2009/04/23 09:56:44.0      -4   -259    160    260    305 180.9  34.8  34154  289.47 0855.25
2009/04/23 09:56:44.1     -49   -259    129    264    293 190.9  27.8  34180  289.90 0855.25
2009/04/23 09:56:44.2     -42   -161    149    167    223 194.9  46.4  34168  289.72 0855.25
2009/04/23 09:56:44.3     -33   -101    149    107    183 198.3  60.8  34156  289.50 0855.25
2009/04/23 09:56:44.4      57    -65    148     87    171 139.0  67.0  34138  289.21 0855.25
2009/04/23 09:56:44.5      75    -36    142     84    164 115.4  66.4  34136  289.16 0855.25
2009/04/23 09:56:44.6      50    -42    142     66    156 129.6  73.5  34140  289.24 0855.25
2009/04/23 09:56:44.7      12     -8    143     15    143 122.4  90.0  34140  289.23 0855.25
2009/04/23 09:56:44.8     -68     13     87     70    111 281.4  56.4  34150  289.40 0855.25
2009/04/23 09:56:44.9      46    -46     57     66     87 135.0  45.8  34140  289.24 0855.25
2009/04/23 09:56:45.0    -235     66    107    245    267 285.7  25.1  34132  289.09 0855.25
2009/04/23 09:56:45.1    -303    -96     75    318    327 252.3  13.3  34142  289.25 0855.25
2009/04/23 09:56:45.2    -133    199    117    240    267 326.2  27.4  34126  289.00 0855.25
2009/04/23 09:56:45.3    -229    155    135    277    308 304.2  27.8  34124  288.95 0855.25
2009/04/23 09:56:45.4    -234    -61     76    242    254 255.4  17.4  34132  289.10 0855.25
2009/04/23 09:56:45.5    -301     46    111    305    324 278.8  20.8  34130  289.05 0855.25
2009/04/23 09:56:45.6    -143     83    141    166    217 300.0  44.8  34132  289.11 0855.25
2009/04/23 09:56:45.7      15     43     15     46     49  20.0  18.9  34136  289.16 0855.25
2009/04/23 09:56:45.8      63     67     53     93    107  43.2  32.4  34134  289.13 0855.25
2009/04/23 09:56:45.9     142    -41    154    148    213 106.4  50.9  34132  289.09 0855.26
2009/04/23 09:56:46.0     101     45    166    111    199  66.0  63.2  34134  289.14 0855.26
2009/04/23 09:56:46.1      47      0    115     48    124  90.0  77.0  34130  289.08 0855.26
2009/04/23 09:56:46.2     132     74    160    152    220  60.7  52.0  34128  289.02 0855.26
2009/04/23 09:56:46.3       2    250     30    251    253   0.5   6.9  34128  289.03 0855.26
2009/04/23 09:56:46.4     -21    170    -24    172    174 352.7  -8.2  34146  289.33 0855.26
2009/04/23 09:56:46.5      41    155    -72    161    176  15.1 -30.1  34156  289.50 0855.26
2009/04/23 09:56:46.6      10    223    -44    224    229   2.7 -11.3  34148  289.38 0855.26
2009/04/23 09:56:46.7     246    196    -52    315    320  51.4  -9.5  34164  289.64 0855.26
2009/04/23 09:56:46.8     309    176   -112    356    374  60.3 -17.5  34178  289.87 0855.26
2009/04/23 09:56:46.9     332    218    -15    398    399  56.6  -2.2  34170  289.74 0855.26
2009/04/23 09:56:47.0     189    179    123    261    288  46.4  27.1  34148  289.36 0855.26
2009/04/23 09:56:47.1     232    164    159    285    326  54.7  31.7  34190  290.09 0855.26
2009/04/23 09:56:47.2     234     55     92    241    257  76.7  22.0  34204  290.32 0855.26
2009/04/23 09:56:47.3     137     49    140    146    202  70.1  49.0  34172  289.79 0855.26
2009/04/23 09:56:47.4      21      7    143     23    144  71.8  90.0  34164  289.65 0855.26
2009/04/23 09:56:47.5      19     54    150     58    160  19.2  77.8  34204  290.33 0855.26
2009/04/23 09:56:47.6     188    153    160    243    290  50.9  36.3  34214  290.48 0855.26
2009/04/23 09:56:47.7     174    153    107    232    255  48.7  26.4  34220  290.58 0855.26
2009/04/23 09:56:47.8     117    197    126    230    262  30.8  31.3  34210  290.42 0855.26
2009/04/23 09:56:47.9      78    231     81    244    258  18.7  18.4  34218  290.54 0855.27
2009/04/23 09:56:48.0      51    216     40    223    227  13.4  10.3  34224  290.65 0855.27
2009/04/23 09:56:48.1     124    192    105    229    251  33.0  26.2  34232  290.80 0855.27
2009/04/23 09:56:48.2     104    220    107    244    266  25.4  25.2  34236  290.87 0855.27
2009/04/23 09:56:48.3     125    197    131    234    268  32.3  31.4  34230  290.76 0855.27
2009/04/23 09:56:48.4      99    273    123    291    315  20.1  24.3  34232  290.78 0855.27
2009/04/23 09:56:48.5      99    307     44    323    327  18.0   7.9  34230  290.75 0855.27
2009/04/23 09:56:48.6      73    324     28    333    335  12.8   4.9  34194  290.16 0855.27
2009/04/23 09:56:48.7      35    374    -59    376    381   5.4  -9.0  34180  289.91 0855.27
2009/04/23 09:56:48.8     115    216    -26    245    247  28.0  -6.1  34176  289.85 0855.27
2009/04/23 09:56:48.9     108    199    -58    227    235  28.5 -14.4  34172  289.77 0855.28
2009/04/23 09:56:49.0     185    290     17    345    346  32.6   2.9  34182  289.93 0855.28
2009/04/23 09:56:49.1     218    232     47    319    323  43.3   8.5  34186  290.02 0855.28
2009/04/23 09:56:49.2     174    174    166    247    297  45.0  37.3  34180  289.92 0855.28
2009/04/23 09:56:49.3      -2     88    165     89    187 358.6  69.3  34184  289.97 0855.28
2009/04/23 09:56:49.4     119     32    177    124    216  74.9  61.3  34178  289.87 0855.28
2009/04/23 09:56:49.5     -42     22    160     48    167 298.0  82.8  34182  289.94 0855.28
2009/04/23 09:56:49.6    -236   -148    156    279    319 237.8  31.6  34186  290.02 0855.28
2009/04/23 09:56:49.7    -202   -161    182    259    316 231.4  38.6  34174  289.80 0855.28
2009/04/23 09:56:49.8     -41    -15    116     44    124 250.0  79.1  34168  289.70 0855.28
2009/04/23 09:56:49.9    -212    325    157    389    419 326.8  23.1  34180  289.90 0855.28
2009/04/23 09:56:50.0     -97    239    138    258    292 337.9  30.6  34176  289.83 0855.28
2009/04/23 09:56:50.1     -39    186     94    191    212 348.2  28.0  34172  289.79 0855.28
2009/04/23 09:56:50.2    -218    214    136    306    334 314.4  25.7  34180  289.92 0855.28
2009/04/23 09:56:50.3    -193    188    109    270    291 314.2  23.1  34180  289.92 0855.28
2009/04/23 09:56:50.4    -242    133    179    277    329 298.9  35.7  34172  289.78 0855.28
2009/04/23 09:56:50.5    -303     22    180    304    353 274.3  33.4  34172  289.76 0855.28
2009/04/23 09:56:50.6    -381    -29    102    383    397 265.5  15.0  34168  289.72 0855.28
2009/04/23 09:56:50.7    -275     25     36    277    280 275.2   7.5  34170  289.73 0855.28
2009/04/23 09:56:50.8    -287     59     52    294    299 281.7  10.1  34168  289.71 0855.28
2009/04/23 09:56:50.9    -251     31    146    253    292 277.1  32.7  34168  289.71 0855.26
2009/04/23 09:56:51.0    -262     32    173    264    315 277.0  36.4  34166  289.68 0855.26
2009/04/23 09:56:51.1    -201     67    180    213    278 288.6  44.5  34158  289.53 0855.26
2009/04/23 09:56:51.2     -64     74    128     99    161 319.0  58.5  34166  289.67 0855.26
2009/04/23 09:56:51.3      17     22     95     28     99  37.8  83.3  34172  289.77 0855.26
2009/04/23 09:56:51.4      -4     42    134     43    140 353.8  81.2  34170  289.75 0855.26
2009/04/23 09:56:51.5     266     51    255    271    372  79.0  48.0  34162  289.60 0855.26
2009/04/23 09:56:51.6     210     61    263    219    342  73.6  56.3  34166  289.66 0855.26
2009/04/23 09:56:51.7     259    133    241    292    378  62.7  43.7  34160  289.57 0855.26
2009/04/23 09:56:51.8     304    222    267    377    461  53.8  38.8  34156  289.51 0855.26
2009/04/23 09:56:51.9     273    201    275    340    437  53.6  43.1  34162  289.61 0855.26
2009/04/23 09:56:52.0     236    177    221    296    369  53.1  40.6  34168  289.72 0855.26
2009/04/23 09:56:52.1     232    168    237    287    372  54.0  43.7  34174  289.82 0855.26
2009/04/23 09:56:52.2     294    228    186    373    416  52.2  28.4  34172  289.77 0855.26
2009/04/23 09:56:52.3     274    304    192    410    452  42.1  27.1  34186  290.00 0855.26
2009/04/23 09:56:52.4     124    355    218    377    435  19.3  32.7  34206  290.36 0855.26
2009/04/23 09:56:52.5      94    308    152    323    356  16.9  27.1  34212  290.47 0855.26
2009/04/23 09:56:52.6      96    253    189    271    330  21.0  38.3  34210  290.41 0855.26
2009/04/23 09:56:52.7     263    150    133    303    330  60.2  25.1  34186  290.00 0855.26
2009/04/23 09:56:52.8     153    132    151    203    253  49.1  40.4  34180  289.90 0855.26
2009/04/23 09:56:52.9     275    151    227    314    387  61.2  39.5  34184  289.99 0855.26
2009/04/23 09:56:53.0     268    132    186    299    352  63.8  34.9  34202  290.30 0855.26
2009/04/23 09:56:53.1      51     73    123     90    152  34.7  60.5  34216  290.52 0855.26
2009/04/23 09:56:53.2      84    242    226    257    342  19.2  45.8  34252  291.12 0855.26
2009/04/23 09:56:53.3     135    175    243    222    329  37.8  52.9  34294  291.85 0855.26
2009/04/23 09:56:53.4      74    162    173    179    248  24.5  49.2  34294  291.86 0855.26
2009/04/23 09:56:53.5      15    178    179    179    253   5.1  50.1  34248  291.08 0855.26
2009/04/23 09:56:53.6       7    219    133    220    257   2.0  34.0  34238  290.90 0855.26
2009/04/23 09:56:53.7     108    247    143    270    305  23.6  30.1  34240  290.92 0855.26
2009/04/23 09:56:53.8     125    166     98    208    229  37.0  27.1  34230  290.75 0855.26
2009/04/23 09:56:53.9     123     92    139    154    207  53.1  46.6  34236  290.87 0855.26
2009/04/23 09:56:54.0     228    155    104    276    294  55.8  21.7  34244  291.00 0855.26
2009/04/23 09:56:54.1     228    101    201    250    320  66.0  43.0  34246  291.02 0855.26
2009/04/23 09:56:54.2     289    115    140    312    341  68.3  25.9  34240  290.94 0855.26
2009/04/23 09:56:54.3     304    148    184    339    385  64.0  30.9  34216  290.52 0855.26
2009/04/23 09:56:54.4     251    163    106    300    318  56.9  20.3  34196  290.19 0855.26
2009/04/23 09:56:54.5     358    251    158    438    466  55.0  19.9  34232  290.80 0855.26
2009/04/23 09:56:54.6     281    245    160    374    406  48.9  24.6  34232  290.79 0855.26
2009/04/23 09:56:54.7     421    349    172    548    575  50.3  17.4  34200  290.24 0855.26
2009/04/23 09:56:54.8     320    290    130    433    453  47.8  16.8  34204  290.33 0855.26
2009/04/23 09:56:55.0     514    208    150    555    576  67.9  15.1  34230  290.75 0855.26
2009/04/23 09:56:55.0     408    241     98    475    486  59.4  11.7  34212  290.45 0855.26
2009/04/23 09:56:55.1     430    145    155    455    481  71.3  18.8  34238  290.91 0855.26
2009/04/23 09:56:55.2     433    219    175    486    517  63.2  19.9  34202  290.30 0855.26
2009/04/23 09:56:55.3     488    217    121    535    549  66.0  12.8  34180  289.92 0855.26
2009/04/23 09:56:55.4     480    236    216    535    576  63.8  23.1  34178  289.87 0855.26
2009/04/23 09:56:55.5     515    175    142    545    564  71.2  14.7  34184  289.97 0855.26
2009/04/23 09:56:55.6     447    288    167    533    559  57.2  17.4  34210  290.41 0855.26
2009/04/23 09:56:55.7     503    183    146    536    556  70.0  15.3  34218  290.57 0855.26
2009/04/23 09:56:55.8     425    155    128    453    471  70.0  15.8  34208  290.40 0855.26
2009/04/23 09:56:55.9     449    155    148    476    499  70.9  17.3  34198  290.23 0855.26
2009/04/23 09:56:56.1     520    197    150    557    578  69.2  15.1  34188  290.03 0855.26
2009/04/23 09:56:56.1     484    178    172    516    545  69.8  18.5  34184  289.97 0855.26
2009/04/23 09:56:56.2     377    183    152    420    446  64.1  20.8  34186  290.00 0855.26
2009/04/23 09:56:56.3     356    236     99    428    440  56.4  13.1  34184  289.99 0855.26
2009/04/23 09:56:56.4     310    243     88    395    405  51.9  12.6  34188  290.06 0855.26
2009/04/23 09:56:56.5     348     83    173    358    397  76.5  27.8  34234  290.84 0855.26
2009/04/23 09:56:56.6     402    126    189    422    462  72.6  25.9  34226  290.68 0855.26
2009/04/23 09:56:56.7     382    179    133    422    443  64.9  17.5  34202  290.29 0855.26
2009/04/23 09:56:56.8     450    165    157    480    506  69.8  18.1  34186  290.00 0855.26
2009/04/23 09:56:56.9     325     97     55    340    345  73.4   9.3  34182  289.93 0855.25
2009/04/23 09:56:57.0     196     30    214    199    292  81.2  52.2  34212  290.46 0855.25
2009/04/23 09:56:57.1     315     88    211    328    390  74.3  35.6  34206  290.35 0855.25
2009/04/23 09:56:57.3      97    -20    173    100    199 101.9  67.5  34204  290.33 0855.25
2009/04/23 09:56:57.3     204    -29    173    207    269  98.1  43.8  34204  290.31 0855.25
2009/04/23 09:56:57.4     158     41    212    164    268  75.2  58.5  34196  290.17 0855.25
2009/04/23 09:56:57.5     404    162    196    436    478  68.2  25.9  34186  290.01 0855.25
2009/04/23 09:56:57.6     519    175    187    548    580  71.3  18.9  34168  289.71 0855.25
2009/04/23 09:56:57.7     514    189     97    548    557  69.8  10.1  34166  289.68 0855.25
2009/04/23 09:56:57.8     377     22    216    378    435  86.6  32.4  34204  290.33 0855.25
2009/04/23 09:56:57.9     411     56    189    415    456  82.2  26.2  34202  290.29 0855.25
2009/04/23 09:56:58.0     344     69    378    351    515  78.6  52.3  34186  290.01 0855.25
2009/04/23 09:56:58.1     103   -124    294    162    335 140.3  68.8  34184  289.98 0855.25
2009/04/23 09:56:58.2     208   -232    284    312    421 138.1  47.0  34154  289.48 0855.25
2009/04/23 09:56:58.3     174   -385    274    423    503 155.6  35.9  34144  289.30 0855.25
2009/04/23 09:56:58.4     237   -349    274    422    503 145.8  36.0  34140  289.23 0855.25
2009/04/23 09:56:58.5     337   -315    260    462    530 133.1  31.9  34146  289.34 0855.25
2009/04/23 09:56:58.6     363   -290    274    465    539 128.6  33.3  34142  289.25 0855.25
2009/04/23 09:56:58.7     405   -289    235    498    550 125.5  27.1  34158  289.55 0855.25
2009/04/23 09:56:58.8     262   -331    247    423    489 141.6  32.9  34160  289.57 0855.25
2009/04/23 09:56:58.9     400   -217    237    456    513 118.5  29.6  34146  289.35 0855.23
2009/04/23 09:56:59.0     344   -154    210    378    432 114.2  31.4  34164  289.65 0855.23
2009/04/23 09:56:59.1     421   -140    260    444    514 108.5  33.0  34154  289.47 0855.23
2009/04/23 09:56:59.2     313    -65    195    320    374 101.9  34.2  34158  289.55 0855.23
2009/04/23 09:56:59.3     234   -102     91    256    272 113.5  19.6  34186  290.02 0855.23
2009/04/23 09:56:59.4     248    -98     83    267    280 111.7  17.3  34190  290.07 0855.23
2009/04/23 09:56:59.5     275    -61     74    282    292 102.6  14.7  34178  289.86 0855.23
2009/04/23 09:56:59.6     317   -106    209    335    394 108.6  35.0  34178  289.89 0855.23
2009/04/23 09:56:59.7     190    -62    180    201    269 108.2  46.6  34190  290.07 0855.23
2009/04/23 09:56:59.8     177     33    141    181    229  79.4  42.0  34178  289.87 0855.23
2009/04/23 09:56:59.9      13    -50    111     52    122 164.9  73.5  34188  290.04 0855.23
2009/04/23 09:57:00.0      41    -74    139     85    162 150.6  65.4  34172  289.79 0855.23
2009/04/23 09:57:00.1      23    -50    153     56    162 154.7  79.5  34176  289.84 0855.23
2009/04/23 09:57:00.2      11    -50     80     52     95 167.5  64.6  34168  289.70 0855.23
2009/04/23 09:57:00.3     111     -8    163    112    197  94.3  62.6  34166  289.69 0855.23
2009/04/23 09:57:00.4     -95    -79     86    124    150 230.4  38.0  34158  289.53 0855.23
2009/04/23 09:57:00.5     -62   -151    177    164    241 202.3  52.2  34154  289.46 0855.23
2009/04/23 09:57:00.6      20   -147    173    149    228 172.0  55.0  34164  289.63 0855.23
2009/04/23 09:57:00.7      50   -194    130    201    239 165.3  36.0  34154  289.46 0855.23
2009/04/23 09:57:00.8      93   -164    172    189    255 150.4  47.0  34164  289.63 0855.23
2009/04/23 09:57:00.9     109   -181    192    212    286 149.0  46.9  34150  289.41 0855.21
2009/04/23 09:57:01.0      78   -169    173    187    254 155.3  47.9  34144  289.31 0855.21
2009/04/23 09:57:01.1      24     33     91     41     99  36.1  74.0  34152  289.45 0855.21
2009/04/23 09:57:01.2       1     71     87     72    112   1.0  56.3  34156  289.52 0855.21
2009/04/23 09:57:01.3       8    -24     77     26     81 161.7  81.0  34154  289.48 0855.21
2009/04/23 09:57:01.4      32     21    106     39    112  55.8  79.7  34154  289.46 0855.21
2009/04/23 09:57:01.5     114     38    104    121    159  71.6  45.1  34142  289.26 0855.21
2009/04/23 09:57:01.6     117     63    123    133    181  61.6  47.9  34142  289.26 0855.21
2009/04/23 09:57:01.7     107     62     85    124    150  59.8  37.6  34146  289.33 0855.21
2009/04/23 09:57:01.9      90     54     62    106    122  58.9  33.5  34150  289.40 0855.21
2009/04/23 09:57:02.0      98     36     58    105    119  69.6  31.4  34158  289.55 0855.21
2009/04/23 09:57:02.0      92      6     34     93     99  86.1  20.4  34178  289.87 0855.21
2009/04/23 09:57:02.1      80     11     34     81     87  81.6  23.6  34182  289.94 0855.21
2009/04/23 09:57:02.2     165    -52    -45    174    180 107.5 -14.7  34166  289.67 0855.21
2009/04/23 09:57:02.3     182    -21    -89    184    204  96.6 -31.8  34156  289.50 0855.21
2009/04/23 09:57:02.4     313     17    -97    314    329  86.7 -17.3  34170  289.75 0855.21
2009/04/23 09:57:02.5     378     53    -84    382    392  81.9 -12.5  34188  290.06 0855.21
2009/04/23 09:57:02.6     242    -17    199    243    314  94.1  43.5  34170  289.73 0855.21
2009/04/23 09:57:02.7     331    109    206    349    405  71.7  33.4  34176  289.84 0855.21
2009/04/23 09:57:02.8     122    127    191    177    260  43.9  52.2  34174  289.81 0855.21
2009/04/23 09:57:02.9     172     85    274    192    334  63.6  61.5  34182  289.93 0855.21
2009/04/23 09:57:03.0     291    160    190    333    383  61.2  32.1  34168  289.71 0855.21
2009/04/23 09:57:03.1     415    137     85    438    447  71.7  11.0  34190  290.07 0855.21
2009/04/23 09:57:03.2     185    152    199    240    311  50.5  43.8  34186  290.00 0855.21
2009/04/23 09:57:03.3      -3     49    176     50    182 355.5  83.9  34186  290.02 0855.21
2009/04/23 09:57:03.4     102    102    169    145    222  45.2  54.8  34182  289.96 0855.21
2009/04/23 09:57:03.5     131     72    244    150    286  61.1  65.6  34200  290.26 0855.21
2009/04/23 09:57:03.6     135     85    227    160    277  57.6  61.5  34196  290.19 0855.21
2009/04/23 09:57:03.7     166      3    165    167    234  88.7  49.9  34184  289.97 0855.21
2009/04/23 09:57:03.8     158    -23     74    160    176  98.4  26.6  34172  289.79 0855.21
2009/04/23 09:57:03.9     100    -42     93    109    143 113.1  45.4  34174  289.82 0855.21
2009/04/23 09:57:04.0     104     30     65    109    126  73.6  33.5  34182  289.96 0855.21
2009/04/23 09:57:04.2     245    131     13    279    280  61.8   2.8  34154  289.47 0855.21
2009/04/23 09:57:04.3     294     78     74    305    314  75.0  13.7  34148  289.37 0855.21
2009/04/23 09:57:04.4     225     75     98    238    257  71.6  23.6  34140  289.24 0855.21
2009/04/23 09:57:04.5     241    122     78    271    283  63.1  16.0  34144  289.31 0855.21
2009/04/23 09:57:04.6     191     76     72    206    218  68.3  20.0  34146  289.33 0855.21
2009/04/23 09:57:04.7      94    133     82    163    182  35.2  28.5  34156  289.50 0855.21
2009/04/23 09:57:04.8     158    158     58    224    232  45.1  14.7  34144  289.31 0855.21
2009/04/23 09:57:04.9     139    147      2    203    204  43.4   0.8  34148  289.38 0855.21
2009/04/23 09:57:05.0     181    115     56    215    223  57.6  14.7  34154  289.48 0855.22
2009/04/23 09:57:05.1     195    168    126    258    287  49.3  28.0  34172  289.76 0855.22
2009/04/23 09:57:05.2      48    213    145    219    262  12.9  36.5  34184  289.97 0855.22
2009/04/23 09:57:05.3       0    195     43    196    201   0.0  12.4  34172  289.79 0855.22
2009/04/23 09:57:05.4     211    161     46    266    271  52.7   9.9  34208  290.39 0855.22
2009/04/23 09:57:05.5     279    170     51    327    332  58.6   9.0  34212  290.47 0855.22
2009/04/23 09:57:05.6     313    169    -42    356    359  61.6  -6.9  34174  289.82 0855.22
2009/04/23 09:57:05.7     240    215    -59    323    329  48.1 -10.5  34146  289.32 0855.22
2009/04/23 09:57:05.8     377    216    157    435    463  60.2  19.9  34182  289.95 0855.22
2009/04/23 09:57:05.9     277    199    336    342    479  54.3  49.5  34190  290.09 0855.22
2009/04/23 09:57:06.0     324    245    136    407    430  52.9  18.6  34194  290.16 0855.22
2009/04/23 09:57:06.1     170    425    190    458    495  21.9  23.8  34180  289.91 0855.22
2009/04/23 09:57:06.2     166    267    178    315    361  31.9  32.0  34162  289.62 0855.22
2009/04/23 09:57:06.3     206     97    173    228    286  64.8  40.9  34154  289.47 0855.22
2009/04/23 09:57:06.4     154     -3    -60    155    166  91.3 -26.4  34152  289.43 0855.22
2009/04/23 09:57:06.5      23     67    -84     71    109  19.2 -60.7  34154  289.48 0855.22
2009/04/23 09:57:06.6     -49    147   -201    156    254 341.3 -62.8  34144  289.31 0855.22
2009/04/23 09:57:06.7     -19    275   -163    276    320 356.0 -37.9  34152  289.44 0855.22
2009/04/23 09:57:06.8      21    123    -61    125    139   9.8 -32.2  34154  289.46 0855.22
2009/04/23 09:57:06.9     179    337   -126    382    402  28.0 -23.7  34162  289.60 0855.22
2009/04/23 09:57:07.0     160    369     34    403    405  23.4   4.9  34150  289.41 0855.24
2009/04/23 09:57:07.1     178    148     78    232    245  50.2  18.6  34154  289.46 0855.24
2009/04/23 09:57:07.2      56     44    127     72    145  51.4  68.3  34162  289.62 0855.24
2009/04/23 09:57:07.3     181    -11    177    182    253  93.5  49.2  34150  289.41 0855.24
2009/04/23 09:57:07.4     240     29    207    242    318  83.0  45.0  34144  289.29 0855.24
2009/04/23 09:57:07.5     -25     37    121     45    129 325.7  79.2  34164  289.65 0855.24
2009/04/23 09:57:07.6     -34     27    157     44    163 308.6  84.1  34172  289.77 0855.24
2009/04/23 09:57:07.7      -2      7     89      8     89 341.3  90.0  34170  289.74 0855.24
2009/04/23 09:57:07.8    -150     56    134    161    209 290.4  43.8  34154  289.48 0855.24
2009/04/23 09:57:07.9    -262   -124     75    290    300 244.6  14.5  34128  289.03 0855.24
2009/04/23 09:57:08.0    -167   -124     87    209    226 233.4  23.8  34122  288.94 0855.24
2009/04/23 09:57:08.1    -117    -90    193    148    243 232.3  58.7  34126  289.01 0855.24
2009/04/23 09:57:08.2       7     22    161     24    162  18.3  90.0  34166  289.69 0855.24
2009/04/23 09:57:08.3       3    -48    210     49    215 175.5  87.3  34150  289.40 0855.24
2009/04/23 09:57:08.4     312    143    331    344    477  65.3  49.0  34156  289.49 0855.24
2009/04/23 09:57:08.5     301    394     25    497    498  37.4   2.9  34156  289.49 0855.24
2009/04/23 09:57:08.6     593    309    -64    669    673  62.5  -5.5  34184  289.97 0855.24
2009/04/23 09:57:08.7     409    275      2    493    494  56.1   0.3  34192  290.10 0855.24
2009/04/23 09:57:08.8     341    252    168    425    457  53.5  22.9  34198  290.22 0855.24
2009/04/23 09:57:08.9      79    159     73    178    192  26.5  23.4  34204  290.31 0855.24
2009/04/23 09:57:09.0     -86    198   -101    217    239 336.4 -31.0  34204  290.31 0855.25
2009/04/23 09:57:09.1       0    194    -81    195    211   0.0 -28.2  34172  289.79 0855.25
2009/04/23 09:57:09.2     -86     95   -163    129    207 318.1 -62.1  34152  289.45 0855.25
2009/04/23 09:57:09.3     -81    240   -130    254    285 341.3 -33.6  34146  289.34 0855.25
2009/04/23 09:57:09.4    -221     24   -140    223    263 276.4 -39.9  34156  289.51 0855.25
2009/04/23 09:57:09.5    -259    -85    -93    273    288 251.8 -23.6  34158  289.53 0855.25
2009/04/23 09:57:09.6    -145    -42   -161    152    221 253.6 -56.5  34152  289.45 0855.25
2009/04/23 09:57:09.7       4    -27    -12     28     30 170.2 -29.5  34144  289.31 0855.25
2009/04/23 09:57:09.8     107    181    -89    211    229  30.5 -28.7  34154  289.48 0855.25
2009/04/23 09:57:09.9     -48    101    -34    112    118 334.5 -17.0  34152  289.43 0855.25
2009/04/23 09:57:10.0     101    155     66    186    197  33.0  20.4  34152  289.45 0855.25
2009/04/23 09:57:10.1       4    107    135    108    172   2.2  57.1  34164  289.65 0855.25
2009/04/23 09:57:10.2     -15     81     -3     83     84 349.3  -2.2  34154  289.46 0855.25
2009/04/23 09:57:10.3     -13     39     94     42    102 340.8  74.5  34160  289.57 0855.25
2009/04/23 09:57:10.4      72      2    145     73    162  88.3  71.4  34158  289.53 0855.25
2009/04/23 09:57:10.5      -5     25    148     26    150 348.4  90.0  34162  289.60 0855.25
2009/04/23 09:57:10.6     -21    -32     87     39     95 212.6  74.0  34162  289.62 0855.25
2009/04/23 09:57:10.7     112      5    125    113    168  87.4  53.3  34158  289.55 0855.25
2009/04/23 09:57:10.8      70     40    212     81    226  59.8  78.2  34168  289.70 0855.25
2009/04/23 09:57:10.9      88    -63    210    109    236 125.5  70.8  34166  289.69 0855.25
2009/04/23 09:57:11.0     -99    -72    128    123    177 233.6  51.4  34166  289.67 0855.25
2009/04/23 09:57:11.1    -109    -56    165    123    205 242.5  59.4  34164  289.65 0855.25
2009/04/23 09:57:11.2     -30    -14    162     34    165 244.8  88.5  34180  289.91 0855.25
2009/04/23 09:57:11.3       0     -2    196      3    196 198.5  90.0  34178  289.89 0855.25
2009/04/23 09:57:11.4     -32     15    150     36    154 295.4  86.9  34176  289.85 0855.25
2009/04/23 09:57:11.5     -68     52    171     86    191 307.8  71.7  34178  289.87 0855.25
2009/04/23 09:57:11.6     200     58    109    209    235  73.8  29.5  34176  289.84 0855.25
2009/04/23 09:57:11.7     244     25     42    246    250  84.1   9.9  34174  289.81 0855.25
2009/04/23 09:57:11.8     232    147    -70    275    284  57.6 -14.4  34230  290.75 0855.25
2009/04/23 09:57:11.9     258    169     15    309    310  56.7   2.9  34236  290.85 0855.25
2009/04/23 09:57:12.0     333    241     11    412    413  54.0   1.6  34224  290.67 0855.28
2009/04/23 09:57:12.1     350    164    -49    387    391  64.9  -7.3  34186  290.01 0855.28
2009/04/23 09:57:12.2     188     63    -55    199    207  71.4 -15.5  34212  290.45 0855.28
2009/04/23 09:57:12.3      53     68     58     87    104  37.8  36.5  34202  290.30 0855.28
2009/04/23 09:57:12.4     -45     91   -109    102    149 333.7 -56.5  34200  290.26 0855.28
2009/04/23 09:57:12.5     252    240   -118    349    369  46.4 -18.7  34194  290.16 0855.28
2009/04/23 09:57:12.6     145    102   -115    178    211  54.7 -40.0  34162  289.60 0855.28
2009/04/23 09:57:12.7     -81     26   -121     86    148 287.7 -65.5  34152  289.43 0855.28
2009/04/23 09:57:12.8      67    157     46    171    178  23.2  15.0  34156  289.50 0855.28
2009/04/23 09:57:12.9      79    156      1    176    177  27.0   0.5  34176  289.85 0855.28
2009/04/23 09:57:13.0      88     96    138    131    190  42.3  51.6  34162  289.60 0855.28
2009/04/23 09:57:13.1     181     61    222    192    293  71.4  54.8  34164  289.63 0855.28
2009/04/23 09:57:13.2    -142     64    129    157    203 294.4  43.7  34166  289.69 0855.28
2009/04/23 09:57:13.3      37    110    144    117    185  18.7  56.6  34184  289.97 0855.28
2009/04/23 09:57:13.4     -64    -65     70     92    115 224.7  41.2  34186  290.02 0855.28
2009/04/23 09:57:13.5     -96   -192    139    215    256 206.7  35.7  34170  289.73 0855.28
2009/04/23 09:57:13.6     -85   -196    132    214    251 203.6  35.0  34164  289.64 0855.28
2009/04/23 09:57:13.7     -96   -184    101    208    231 207.6  27.3  34152  289.43 0855.28
2009/04/23 09:57:13.8     -78    -79    154    112    190 224.7  60.5  34158  289.53 0855.28
2009/04/23 09:57:13.9     -53     -4    101     54    114 265.6  69.3  34160  289.58 0855.28
2009/04/23 09:57:14.0    -143    128     75    193    207 311.8  22.5  34174  289.82 0855.31
2009/04/23 09:57:14.1    -203     13    -18    204    205 273.7  -5.2  34192  290.11 0855.31
2009/04/23 09:57:14.2    -244    -14    -63    245    254 266.7 -14.5  34190  290.07 0855.31
2009/04/23 09:57:14.3    -286      8    -36    287    290 271.7  -7.3  34184  289.98 0855.31
2009/04/23 09:57:14.4    -216    170    144    276    311 308.2  29.8  34190  290.07 0855.31
2009/04/23 09:57:14.5     -98    207     80    230    244 334.7  19.2  34188  290.05 0855.31
2009/04/23 09:57:14.6     -65    216   -111    226    251 343.1 -32.4  34174  289.81 0855.31
2009/04/23 09:57:14.7     -59     86    -50    105    116 325.3 -31.6  34176  289.84 0855.31
2009/04/23 09:57:14.8    -107   -107   -104    152    184 225.1 -42.0  34178  289.89 0855.31
2009/04/23 09:57:14.9     -41    -93     60    102    118 204.1  33.5  34160  289.58 0855.31
2009/04/23 09:57:15.0    -267    222     95    348    361 309.6  15.3  34162  289.59 0855.31
2009/04/23 09:57:15.1    -290    171     89    337    349 300.5  14.9  34162  289.60 0855.31
2009/04/23 09:57:15.2    -424    -32    -48    426    429 265.7  -6.5  34160  289.56 0855.31
2009/04/23 09:57:15.3    -384   -156   -140    415    439 247.8 -18.7  34114  288.78 0855.31
2009/04/23 09:57:15.4    -556     26   -197    557    590 272.7 -24.8  34154  289.47 0855.31
2009/04/23 09:57:15.5    -385    105   -202    400    448 285.3 -33.5  34146  289.33 0855.31
2009/04/23 09:57:15.6    -298    123   -101    323    338 292.4 -22.4  34152  289.45 0855.31
2009/04/23 09:57:15.7    -246     70    -70    256    266 286.0 -15.4  34150  289.41 0855.31
2009/04/23 09:57:15.8    -284    -38   -117    287    309 262.3 -27.5  34142  289.27 0855.31
2009/04/23 09:57:15.9    -429    -10   -164    430    460 268.6 -26.4  34126  289.00 0855.31
2009/04/23 09:57:16.0    -350    172   -172    391    427 296.2 -29.6  34134  289.12 0855.33
2009/04/23 09:57:16.1    -403    134    -93    425    436 288.4 -12.4  34142  289.27 0855.33
2009/04/23 09:57:16.2    -350    -33    -45    352    355 264.6  -7.3  34150  289.40 0855.33
2009/04/23 09:57:16.3    -206      0    -65    207    216 270.0 -22.3  34148  289.38 0855.33
2009/04/23 09:57:16.4    -234     15    -56    235    242 273.7 -13.4  34156  289.51 0855.33
2009/04/23 09:57:16.5    -377     20   -203    378    429 273.2 -35.0  34128  289.02 0855.33
2009/04/23 09:57:16.6    -440    -51   -155    444    470 263.3 -24.4  34136  289.16 0855.33
2009/04/23 09:57:16.7    -355    -52    -41    359    362 261.5  -6.6  34142  289.28 0855.33
2009/04/23 09:57:16.8    -297   -181   -102    348    362 238.6 -21.2  34132  289.11 0855.33
2009/04/23 09:57:16.9    -305    -82   -102    317    334 254.9 -17.9  34134  289.14 0855.33
2009/04/23 09:57:17.0    -465   -115   -191    479    515 256.1 -27.4  34132  289.10 0855.33
2009/04/23 09:57:17.1    -390     -5    -93    391    402 269.2 -13.4  34144  289.30 0855.33
2009/04/23 09:57:17.2    -416   -204   -120    464    480 243.8 -14.5  34146  289.35 0855.33
2009/04/23 09:57:17.3    -464    -93   -230    474    526 258.6 -32.2  34130  289.05 0855.33
2009/04/23 09:57:17.4    -520   -158   -252    544    599 253.1 -31.1  34130  289.07 0855.33
2009/04/23 09:57:17.5    -490   -182   -155    523    545 249.6 -21.4  34136  289.18 0855.33
2009/04/23 09:57:17.6    -532   -168   -250    558    611 252.5 -30.2  34138  289.19 0855.33
2009/04/23 09:57:17.7    -325   -266   -117    421    436 230.7 -20.2  34128  289.04 0855.33
2009/04/23 09:57:17.8    -577   -189   -240    608    653 251.9 -27.1  34136  289.15 0855.33
2009/04/23 09:57:17.9    -439   -226   -208    494    536 242.7 -28.6  34140  289.23 0855.33
2009/04/23 09:57:18.0    -545   -238   -212    596    632 246.4 -24.7  34138  289.21 0855.34
2009/04/23 09:57:18.1    -262   -351   -139    439    461 216.7 -17.6  34150  289.39 0855.34
2009/04/23 09:57:18.2    -377   -312   -330    490    590 230.3 -41.7  34138  289.19 0855.34
2009/04/23 09:57:18.3    -255   -360   -158    442    469 215.3 -24.8  34154  289.46 0855.34
2009/04/23 09:57:18.4    -426   -356   -195    556    590 230.1 -19.4  34154  289.46 0855.34
2009/04/23 09:57:18.5    -708   -235   -208    747    775 251.6 -20.2  34140  289.24 0855.34
2009/04/23 09:57:18.6    -647   -260   -258    698    744 248.1 -25.7  34150  289.39 0855.34
2009/04/23 09:57:18.7    -500   -275   -204    571    606 241.1 -24.8  34148  289.37 0855.34
2009/04/23 09:57:18.8    -498   -347    -87    607    614 235.1  -8.2  34162  289.61 0855.34
2009/04/23 09:57:18.9    -457   -287     88    540    548 237.9   9.3  34156  289.51 0855.34
2009/04/23 09:57:19.0    -383   -214    -36    439    441 240.8  -4.8  34134  289.14 0855.34
2009/04/23 09:57:19.1    -288    -38    139    291    322 262.3  27.3  34152  289.42 0855.34
2009/04/23 09:57:19.2     -12   -280     14    281    282 182.5   2.9  34150  289.41 0855.34
2009/04/23 09:57:19.3      -6   -578     28    579    580 180.6   2.8  34142  289.27 0855.34
2009/04/23 09:57:19.4      59   -587     24    591    592 174.2   2.4  34146  289.32 0855.34
2009/04/23 09:57:19.5      51   -580     40    583    585 174.9   4.0  34140  289.24 0855.34
2009/04/23 09:57:19.6      17   -724     61    725    728 178.6   4.9  34140  289.22 0855.34
2009/04/23 09:57:19.7      30   -692    -22    693    694 177.5  -1.9  34138  289.21 0855.34
2009/04/23 09:57:19.8      -4   -640     54    641    644 180.4   4.9  34134  289.13 0855.34
2009/04/23 09:57:19.9      41   -587    -11    589    590 176.0  -1.1  34138  289.20 0855.34
2009/04/23 09:57:20.0     126   -617     49    631    634 168.4   4.5  34138  289.21 0855.34
2009/04/23 09:57:20.1      34   -651     49    652    654 177.0   4.3  34140  289.23 0855.34
2009/04/23 09:57:20.2      -2   -583     49    584    587 180.2   4.9  34144  289.29 0855.34
2009/04/23 09:57:20.3    -141   -556    -51    574    577 194.3  -5.1  34130  289.08 0855.34
2009/04/23 09:57:20.4      -5   -553    112    554    566 180.6  11.5  34124  288.97 0855.34
2009/04/23 09:57:20.5     -79   -420     36    428    430 190.7   4.9  34134  289.14 0855.34
2009/04/23 09:57:20.6      83   -441   -104    449    462 169.3 -13.1  34140  289.22 0855.34
2009/04/23 09:57:20.7     134   -380    -43    404    407 160.5  -6.1  34132  289.09 0855.34
2009/04/23 09:57:20.8     145   -498   -188    519    552 163.7 -25.2  34134  289.14 0855.34
2009/04/23 09:57:20.9     -96   -402     17    414    415 193.5   2.4  34140  289.22 0855.34
2009/04/23 09:57:21.0     213   -432      8    482    483 153.7   1.0  34126  289.00 0855.34
2009/04/23 09:57:21.1     232   -389    158    453    481 149.2  19.3  34130  289.06 0855.34
2009/04/23 09:57:21.2     282   -329    154    434    460 139.4  20.3  34128  289.02 0855.34
2009/04/23 09:57:21.3     218   -342    112    406    422 147.5  15.4  34128  289.04 0855.34
2009/04/23 09:57:21.4     -17   -290    109    291    310 183.4  21.3  34130  289.07 0855.34
2009/04/23 09:57:21.5      95   -469    127    479    496 168.4  14.9  34126  289.00 0855.34
2009/04/23 09:57:21.6     220   -351     86    415    424 148.0  11.8  34132  289.09 0855.34
2009/04/23 09:57:21.7     213   -374    106    431    444 150.4  13.9  34130  289.05 0855.34
2009/04/23 09:57:21.8     188   -428     87    468    477 156.3  10.6  34136  289.15 0855.34
2009/04/23 09:57:21.9     149   -402    174    430    463 159.6  23.1  34118  288.87 0855.34
2009/04/23 09:57:22.0     222   -404    143    462    484 151.2  17.3  34130  289.05 0855.34
2009/04/23 09:57:22.1     211   -391    215    445    494 151.6  27.8  34124  288.96 0855.34
2009/04/23 09:57:22.2     191   -440    238    480    535 156.5  28.4  34126  289.01 0855.34
2009/04/23 09:57:22.3     203   -490    110    531    543 157.5  11.8  34124  288.96 0855.34
2009/04/23 09:57:22.4     172   -513    153    542    564 161.4  15.8  34124  288.97 0855.34
2009/04/23 09:57:22.5     -28   -605    224    606    646 182.7  21.3  34120  288.91 0855.34
2009/04/23 09:57:22.6      70   -679    275    683    736 174.1  23.1  34120  288.88 0855.34
2009/04/23 09:57:22.7    -197   -661     44    690    692 196.6   3.7  34116  288.82 0855.34
2009/04/23 09:57:22.8    -365   -596    115    700    710 211.5   9.3  34124  288.95 0855.34
2009/04/23 09:57:22.9    -405   -604    -47    728    730 213.8  -3.7  34116  288.84 0855.34
2009/04/23 09:57:23.0    -397   -534   -199    666    696 216.6 -16.6  34118  288.87 0855.34
2009/04/23 09:57:23.1    -319   -613     20    691    692 207.5   1.7  34108  288.68 0855.34
2009/04/23 09:57:23.2     -88   -510     99    518    528 189.8  10.8  34116  288.84 0855.34
2009/04/23 09:57:23.3    -165   -466    -13    495    496 199.5  -1.6  34118  288.86 0855.34
2009/04/23 09:57:23.4    -235   -537    -59    587    591 203.6  -5.8  34116  288.83 0855.34
2009/04/23 09:57:23.5    -208   -457      7    503    504 204.5   0.9  34120  288.90 0855.34
2009/04/23 09:57:23.6    -297   -538    -80    615    621 208.9  -7.5  34116  288.82 0855.34
2009/04/23 09:57:23.7    -116   -644     71    655    659 190.3   6.2  34112  288.75 0855.34
2009/04/23 09:57:23.8    -208   -602    123    638    650 199.1  11.0  34108  288.69 0855.34
2009/04/23 09:57:23.9    -325   -667     42    743    745 206.0   3.3  34108  288.70 0855.34
2009/04/23 09:57:24.0    -457   -699     -7    836    837 213.2  -0.5  34120  288.89 0855.34
2009/04/23 09:57:24.1    -397   -554   -105    682    691 215.6  -8.8  34110  288.73 0855.34
2009/04/23 09:57:24.2    -142   -514     63    534    538 195.5   6.8  34120  288.91 0855.34
2009/04/23 09:57:24.3    -261   -488     27    554    555 208.2   2.8  34122  288.92 0855.34
2009/04/23 09:57:24.4    -277   -311   -137    417    438 221.7 -23.6  34116  288.83 0855.34
2009/04/23 09:57:24.5    -205   -392   -132    443    463 207.7 -16.6  34120  288.89 0855.34
2009/04/23 09:57:24.6     -94   -521   -126    530    545 190.3 -13.4  34118  288.87 0855.34
2009/04/23 09:57:24.7    -186   -540   -158    572    594 199.1 -15.5  34122  288.92 0855.34
2009/04/23 09:57:24.8    -249   -593   -126    644    657 202.8 -11.1  34110  288.72 0855.34
2009/04/23 09:57:24.9    -202   -531     32    569    570 200.8   3.3  34118  288.86 0855.34
2009/04/23 09:57:25.0    -145   -571    142    590    607 194.3  13.6  34116  288.81 0855.34
2009/04/23 09:57:25.1    -131   -414    134    435    456 197.6  17.2  34116  288.82 0855.34
2009/04/23 09:57:25.2    -246   -347    -20    426    427 215.3  -2.7  34118  288.87 0855.34
2009/04/23 09:57:25.3    -226   -424   -159    481    507 208.1 -18.3  34110  288.71 0855.34
2009/04/23 09:57:25.4    -149   -404   -150    431    456 200.3 -24.3  34110  288.73 0855.34
2009/04/23 09:57:25.5    -105   -477   -296    489    571 192.5 -38.4  34108  288.69 0855.34
2009/04/23 09:57:25.6     -48   -555   -338    558    652 185.0 -38.5  34102  288.60 0855.34
2009/04/23 09:57:25.7     -78   -586   -252    592    643 187.6 -28.9  34110  288.71 0855.34
2009/04/23 09:57:25.8    -151   -593   -193    612    642 194.3 -17.5  34112  288.76 0855.34
2009/04/23 09:57:25.9     -77   -526   -147    532    553 188.4 -15.5  34114  288.79 0855.34
2009/04/23 09:57:26.0     -69   -494   -152    499    521 188.0 -21.8  34114  288.78 0855.34
2009/04/23 09:57:26.1     -57   -422   -218    426    478 187.8 -33.6  34108  288.68 0855.34
2009/04/23 09:57:26.2     -53   -425   -160    429    457 187.1 -25.8  34106  288.65 0855.34
2009/04/23 09:57:26.3     -14   -411    -96    412    424 182.0 -13.2  34112  288.77 0855.34
2009/04/23 09:57:26.4     -52   -386    -71    390    397 187.7 -10.4  34112  288.76 0855.34
2009/04/23 09:57:26.5     -53   -416    -85    420    429 187.4 -11.5  34120  288.89 0855.34
2009/04/23 09:57:26.6     -81   -401    -82    410    419 191.5 -11.3  34116  288.82 0855.34
2009/04/23 09:57:26.7     -59   -358   -108    363    379 189.4 -16.7  34116  288.84 0855.34
2009/04/23 09:57:26.8       0   -313    -69    314    322 179.9 -12.5  34116  288.81 0855.34
2009/04/23 09:57:26.9     -30   -339   -108    341    358 185.1 -17.7  34124  288.96 0855.34
2009/04/23 09:57:27.0     -28   -394   -120    395    414 184.1 -16.9  34118  288.87 0855.34
2009/04/23 09:57:27.1      48   -441    -17    444    445 173.8  -2.2  34112  288.75 0855.34
2009/04/23 09:57:27.2      33   -414   -117    416    433 175.4 -15.8  34114  288.78 0855.34
2009/04/23 09:57:27.3     -37   -398    -89    400    410 185.3 -12.6  34114  288.80 0855.34
2009/04/23 09:57:27.4     -59   -386   -119    391    408 188.8 -21.9  34112  288.77 0855.34
2009/04/23 09:57:27.5     -50   -390   -141    394    419 187.3 -19.7  34116  288.83 0855.34
2009/04/23 09:57:27.6    -131   -362   -113    386    402 200.0 -21.0  34116  288.81 0855.34
2009/04/23 09:57:27.7    -171   -417   -129    451    469 202.3 -20.7  34116  288.83 0855.34
2009/04/23 09:57:27.8     -96   -449   -152    460    485 192.1 -18.3  34116  288.81 0855.34
2009/04/23 09:57:27.9     -76   -425   -136    432    453 190.2 -17.5  34112  288.77 0855.34
2009/04/23 09:57:28.0     -91   -401   -121    412    430 192.9 -16.4  34112  288.75 0855.31
2009/04/23 09:57:28.1    -135   -443   -129    464    481 197.0 -20.2  34114  288.79 0855.31
2009/04/23 09:57:28.2     -92   -475   -197    484    522 191.0 -27.8  34114  288.79 0855.31
2009/04/23 09:57:28.3    -101   -441   -232    453    508 193.0 -33.7  34116  288.84 0855.31
2009/04/23 09:57:28.4    -128   -384   -190    405    447 198.5 -31.5  34114  288.78 0855.31
2009/04/23 09:57:28.5    -101   -361   -133    375    397 195.7 -24.7  34112  288.77 0855.31
2009/04/23 09:57:28.6     -89   -385   -137    396    419 193.0 -24.0  34110  288.72 0855.31
2009/04/23 09:57:28.7     -89   -389   -168    400    433 192.9 -28.6  34108  288.70 0855.31
2009/04/23 09:57:28.8     -48   -362   -196    366    415 187.7 -35.0  34110  288.74 0855.31
2009/04/23 09:57:28.9     -61   -346   -233    352    422 190.0 -40.9  34116  288.81 0855.31
2009/04/23 09:57:29.0     -67   -322   -244    329    409 191.8 -44.5  34112  288.77 0855.31
2009/04/23 09:57:29.1     -22   -325   -196    326    380 183.9 -38.4  34116  288.82 0855.31
2009/04/23 09:57:29.2      51   -273   -144    278    313 169.3 -33.9  34114  288.78 0855.31
2009/04/23 09:57:29.3      -1    -94   -127     95    158 180.9 -63.8  34120  288.89 0855.31
2009/04/23 09:57:29.4      63   -133    -66    148    162 154.6 -30.1  34116  288.84 0855.31
2009/04/23 09:57:29.5     117    -69     88    136    161 120.7  35.7  34110  288.74 0855.31
2009/04/23 09:57:29.6      64   -101    145    120    188 147.4  56.3  34120  288.89 0855.31
2009/04/23 09:57:29.7      32   -134    170    138    218 166.6  56.6  34126  288.99 0855.31
2009/04/23 09:57:29.8     -10   -187    226    188    293 183.1  56.3  34118  288.87 0855.31
2009/04/23 09:57:29.9     -60   -231    240    239    338 194.7  50.0  34116  288.83 0855.31
2009/04/23 09:57:30.0    -247   -257    195    357    406 223.8  31.0  34122  288.93 0855.31
2009/04/23 09:57:30.1    -113   -101     61    152    163 228.2  22.8  34124  288.97 0855.31
2009/04/23 09:57:30.2       1     66    121     67    138   1.0  68.8  34126  289.01 0855.31
2009/04/23 09:57:30.4      11     -7     95     14     96 122.4  90.0  34136  289.16 0855.31
2009/04/23 09:57:30.4     -63     53    107     83    135 310.4  58.4  34140  289.23 0855.31
2009/04/23 09:57:30.6    -114     54     76    127    148 295.2  33.5  34124  288.97 0855.31
2009/04/23 09:57:30.7    -131      3     34    132    137 271.7  14.7  34124  288.96 0855.31
2009/04/23 09:57:30.8    -211     42     59    216    224 281.4  15.3  34126  288.99 0855.31
2009/04/23 09:57:30.9    -279     11     96    280    297 272.4  18.9  34124  288.95 0855.31
2009/04/23 09:57:31.0    -309    -32     61    311    317 263.9  11.1  34122  288.92 0855.31
2009/04/23 09:57:31.1    -317     95    165    332    370 286.8  28.4  34116  288.81 0855.29
2009/04/23 09:57:31.2    -199    234    123    308    331 319.7  23.0  34122  288.92 0855.29
2009/04/23 09:57:31.3    -244    154    188    289    344 302.2  36.0  34124  288.95 0855.29
2009/04/23 09:57:31.4    -247    108    115    270    293 293.7  24.3  34126  288.98 0855.29
2009/04/23 09:57:31.5    -368     -3    174    369    407 269.4  27.1  34126  288.99 0855.29
2009/04/23 09:57:31.6    -403    -12     94    404    415 268.2  13.1  34124  288.95 0855.29
2009/04/23 09:57:31.7    -345    -75    129    354    376 257.7  20.9  34116  288.84 0855.29
2009/04/23 09:57:31.8    -395   -230    -17    458    459 239.8  -2.2  34128  289.04 0855.29
2009/04/23 09:57:31.9    -495   -272   -118    566    579 241.2 -11.8  34126  289.00 0855.29
2009/04/23 09:57:32.0    -470   -154    -52    495    498 251.8  -6.1  34120  288.90 0855.29
2009/04/23 09:57:32.1    -479   -159    -63    505    510 251.6  -7.2  34126  289.00 0855.29
2009/04/23 09:57:32.2    -481   -250    -11    543    544 242.5  -1.3  34136  289.16 0855.29
2009/04/23 09:57:32.3    -659     42    111    661    671 273.7   9.6  34146  289.34 0855.29
2009/04/23 09:57:32.4    -599    133    -23    614    615 282.6  -2.2  34148  289.37 0855.29
2009/04/23 09:57:32.5    -437    -57    -72    441    447 262.5  -9.3  34146  289.33 0855.29
2009/04/23 09:57:32.6    -353    -39    -15    356    357 263.6  -2.5  34148  289.38 0855.29
2009/04/23 09:57:32.7    -412     72    -68    419    425 280.0  -9.3  34136  289.16 0855.29
2009/04/23 09:57:32.8    -463     30   -146    464    487 273.7 -17.5  34140  289.23 0855.29
2009/04/23 09:57:32.9    -421     -5    -82    422    430 269.3 -11.0  34142  289.27 0855.29
2009/04/23 09:57:33.0    -305    -13   -152    306    341 267.5 -32.8  34148  289.37 0855.29
2009/04/23 09:57:33.1    -277      2   -168    278    324 270.6 -38.5  34136  289.17 0855.27
2009/04/23 09:57:33.2    -139     59   -170    152    228 293.1 -57.9  34134  289.14 0855.27
2009/04/23 09:57:33.3    -173     86    -70    194    206 296.6 -25.3  34138  289.19 0855.27
2009/04/23 09:57:33.4    -409     17   -143    410    435 272.5 -19.3  34140  289.24 0855.27
2009/04/23 09:57:33.5    -566     71   -259    571    626 277.2 -30.4  34124  288.95 0855.27
2009/04/23 09:57:33.6    -501    161   -187    527    560 287.8 -19.6  34128  289.02 0855.27
2009/04/23 09:57:33.7    -450    -15    -61    451    456 268.0  -7.7  34134  289.14 0855.27
2009/04/23 09:57:33.8    -380   -114     -7    397    398 253.2  -1.1  34140  289.23 0855.27
2009/04/23 09:57:33.9    -472   -353    -32    590    591 233.2  -3.2  34150  289.41 0855.27
2009/04/23 09:57:34.0    -479   -325    -69    579    584 235.8  -6.8  34144  289.29 0855.27
2009/04/23 09:57:34.1    -446   -269    -75    521    527 238.9  -8.2  34120  288.89 0855.27
2009/04/23 09:57:34.2    -519   -254   -176    578    605 243.9 -17.0  34136  289.17 0855.27
2009/04/23 09:57:34.3    -490   -330   -194    591    622 236.0 -18.2  34140  289.22 0855.27
2009/04/23 09:57:34.4    -424   -354   -164    553    577 230.1 -16.5  34140  289.22 0855.27
2009/04/23 09:57:34.5    -389   -351   -206    525    563 227.9 -26.9  34138  289.19 0855.27
2009/04/23 09:57:34.6    -307   -239   -130    390    411 232.1 -23.6  34132  289.09 0855.27
2009/04/23 09:57:34.7      35   -431    -57    433    437 175.3  -7.6  34130  289.05 0855.27
2009/04/23 09:57:34.8    -114   -291    159    313    351 201.4  29.2  34138  289.21 0855.27
2009/04/23 09:57:34.9     160   -297     34    338    340 151.7   5.8  34138  289.21 0855.27
2009/04/23 09:57:35.0      74   -326     97    335    349 167.2  16.3  34132  289.10 0855.27
2009/04/23 09:57:35.1     206   -257    105    330    347 141.2  17.7  34124  288.96 0855.27
2009/04/23 09:57:35.2     136   -207    165    249    298 146.6  36.5  34130  289.07 0855.27
2009/04/23 09:57:35.3      12   -190    168    191    254 176.4  45.8  34136  289.15 0855.27
2009/04/23 09:57:35.4     -26   -244     63    246    255 186.2  14.5  34130  289.05 0855.27
2009/04/23 09:57:35.5    -108   -300     53    320    325 199.9   9.5  34136  289.15 0855.27
2009/04/23 09:57:35.6    -422   -381   -147    569    588 227.9 -14.5  34136  289.17 0855.27
2009/04/23 09:57:35.7    -328   -283   -128    434    452 229.2 -21.2  34142  289.27 0855.27
2009/04/23 09:57:35.8    -332   -486     47    589    591 214.4   4.6  34144  289.30 0855.27
2009/04/23 09:57:35.9    -193   -371    167    419    451 207.5  23.0  34142  289.27 0855.27
2009/04/23 09:57:36.0    -183   -302    124    354    375 211.2  20.1  34144  289.30 0855.27
2009/04/23 09:57:36.1     -63   -354    123    360    381 190.1  18.9  34128  289.03 0855.27
2009/04/23 09:57:36.2     -43   -372    145    375    402 186.7  22.3  34130  289.08 0855.27
2009/04/23 09:57:36.3       1   -417     13    418    419 179.8   1.8  34124  288.95 0855.27
2009/04/23 09:57:36.4     132   -399    -19    421    422 161.6  -2.6  34130  289.07 0855.27
2009/04/23 09:57:36.5     235   -320     68    398    404 143.7   9.7  34132  289.10 0855.27
2009/04/23 09:57:36.6     160   -251    152    298    334 147.5  29.2  34130  289.05 0855.27
2009/04/23 09:57:36.7     145   -267    232    304    382 151.5  41.3  34136  289.16 0855.27
2009/04/23 09:57:36.8      85   -301    139    313    342 164.2  25.8  34132  289.10 0855.27
2009/04/23 09:57:36.9      52   -278    136    283    313 169.4  27.4  34134  289.14 0855.27
2009/04/23 09:57:37.0     -40   -244    137    248    283 189.3  31.4  34134  289.12 0855.27
2009/04/23 09:57:37.1     -25   -338    142    339    367 184.3  24.1  34132  289.11 0855.28
2009/04/23 09:57:37.2     -31   -321    174    323    366 185.6  30.7  34132  289.11 0855.28
2009/04/23 09:57:37.3     -38   -322     31    325    327 186.9   5.5  34148  289.36 0855.28
2009/04/23 09:57:37.4    -124   -285     21    312    313 203.6   4.0  34142  289.27 0855.28
2009/04/23 09:57:37.5      43   -346    229    349    417 172.9  36.4  34136  289.15 0855.28
2009/04/23 09:57:37.6     -31   -286    228    288    367 186.2  42.4  34138  289.20 0855.28
2009/04/23 09:57:37.7     -36   -295    158    298    337 187.1  30.3  34134  289.14 0855.28
2009/04/23 09:57:37.8     -59   -340    143    346    374 189.9  23.7  34132  289.11 0855.28
2009/04/23 09:57:37.9     -75   -339    212    348    407 192.6  34.4  34132  289.10 0855.28
2009/04/23 09:57:38.0     -35   -309    243    311    394 186.5  41.9  34136  289.15 0855.28
2009/04/23 09:57:38.1     -53   -325    183    330    377 189.4  31.4  34134  289.13 0855.28
2009/04/23 09:57:38.2     -20   -268    175    269    320 184.4  36.2  34136  289.15 0855.28
2009/04/23 09:57:38.3     -62   -272    170    280    327 192.9  34.2  34134  289.14 0855.28
2009/04/23 09:57:38.4    -111   -225    162    251    298 206.3  35.6  34138  289.19 0855.28
2009/04/23 09:57:38.5    -108   -179    107    210    235 211.0  29.1  34138  289.19 0855.28
2009/04/23 09:57:38.6     -54   -166      3    175    176 198.0   1.0  34132  289.11 0855.28
2009/04/23 09:57:38.7     225    -84    145    241    281 110.6  34.0  34136  289.15 0855.28
2009/04/23 09:57:38.8     104      0    175    105    204  89.6  66.2  34142  289.26 0855.28
2009/04/23 09:57:38.9      51   -104     95    116    149 153.7  43.7  34136  289.16 0855.28
2009/04/23 09:57:39.0      26   -106    106    110    152 166.2  49.4  34136  289.16 0855.28
2009/04/23 09:57:39.1     -17   -139     58    141    152 187.1  23.1  34140  289.23 0855.28
2009/04/23 09:57:39.2      47   -183    113    190    221 165.5  33.5  34132  289.11 0855.28
2009/04/23 09:57:39.3     -34   -202    123    206    239 189.8  33.5  34146  289.33 0855.28
2009/04/23 09:57:39.4    -126   -157     71    202    215 218.7  19.4  34152  289.43 0855.28
2009/04/23 09:57:39.5    -150   -146     78    210    224 225.8  21.0  34144  289.31 0855.28
2009/04/23 09:57:39.6    -171   -204     78    267    279 220.1  16.3  34138  289.19 0855.28
2009/04/23 09:57:39.7    -117   -176     25    212    214 213.8   6.9  34132  289.09 0855.28
2009/04/23 09:57:39.8    -238    -37      4    241    242 261.0   1.0  34142  289.27 0855.28
2009/04/23 09:57:39.9    -255    -11     74    256    267 267.4  16.3  34134  289.14 0855.28
2009/04/23 09:57:40.0    -183   -165     23    247    249 227.8   5.4  34134  289.12 0855.28
2009/04/23 09:57:40.1     -75   -118    115    140    181 212.5  43.7  34140  289.23 0855.28
2009/04/23 09:57:40.2     -40   -184    120    189    223 192.3  35.5  34130  289.08 0855.28
2009/04/23 09:57:40.3     -70   -260    187    270    328 195.2  38.0  34126  289.00 0855.28
2009/04/23 09:57:40.4    -174   -366    272    406    488 205.5  37.0  34128  289.04 0855.28
2009/04/23 09:57:40.5    -146   -364    -50    393    397 201.9  -7.4  34132  289.10 0855.28
2009/04/23 09:57:40.6    -101   -239    -47    260    265 202.9 -10.3  34132  289.09 0855.28
2009/04/23 09:57:40.7    -179   -280    131    333    357 212.7  22.7  34128  289.04 0855.28
2009/04/23 09:57:40.8    -232   -364    211    432    480 212.5  27.9  34136  289.18 0855.28
2009/04/23 09:57:40.9    -398   -219    168    455    485 241.1  21.1  34152  289.42 0855.28
2009/04/23 09:57:41.0    -350   -230     27    420    421 236.7   3.7  34138  289.19 0855.28
2009/04/23 09:57:41.1    -104   -280    202    299    360 200.5  37.3  34136  289.15 0855.27
2009/04/23 09:57:41.2    -100   -335    189    350    397 196.7  30.7  34136  289.18 0855.27
2009/04/23 09:57:41.3    -113   -422    155    437    464 195.1  19.6  34140  289.24 0855.27
2009/04/23 09:57:41.4    -204   -319     10    379    380 212.6   1.6  34154  289.48 0855.27
2009/04/23 09:57:41.5     -45   -439    182    442    478 185.9  23.7  34138  289.20 0855.27
2009/04/23 09:57:41.6    -131   -345    142    370    396 200.8  22.1  34146  289.32 0855.27
2009/04/23 09:57:41.7    -154   -226    148    274    311 214.2  31.0  34152  289.44 0855.27
2009/04/23 09:57:41.8    -193   -154    -73    247    257 231.4 -21.2  34154  289.47 0855.27
2009/04/23 09:57:41.9      20   -363     84    364    374 176.8  13.1  34156  289.50 0855.27
2009/04/23 09:57:42.0     -83   -406    160    415    444 191.7  22.1  34146  289.34 0855.27
2009/04/23 09:57:42.1     -77   -366    121    375    395 191.9  17.9  34148  289.38 0855.27
2009/04/23 09:57:42.2    -198   -248    102    318    335 218.5  17.8  34162  289.60 0855.27
2009/04/23 09:57:42.3      32   -330    171    332    373 174.3  29.3  34136  289.15 0855.27
2009/04/23 09:57:42.4      55   -352    227    357    423 171.1  35.5  34134  289.14 0855.27
2009/04/23 09:57:42.5      33   -354    143    356    383 174.6  23.0  34130  289.06 0855.27
2009/04/23 09:57:42.6      -7   -327    216    328    392 181.4  36.5  34130  289.06 0855.27
2009/04/23 09:57:42.7      70   -365    242    372    443 169.0  36.2  34132  289.11 0855.27
2009/04/23 09:57:42.8      75   -357    196    365    414 168.1  30.6  34132  289.11 0855.27
2009/04/23 09:57:42.9     160   -364    115    398    415 156.3  16.1  34130  289.07 0855.27
2009/04/23 09:57:43.0      86   -432    143    441    464 168.7  18.0  34132  289.09 0855.27
2009/04/23 09:57:43.1      36   -412    213    414    465 174.9  29.3  34128  289.04 0855.27
2009/04/23 09:57:43.2      27   -298    189    300    354 174.7  35.2  34134  289.13 0855.27
2009/04/23 09:57:43.3      43   -216    229    221    318 168.7  51.1  34142  289.27 0855.27
2009/04/23 09:57:43.4     128   -313    230    339    409 157.8  37.4  34136  289.15 0855.27
2009/04/23 09:57:43.5     139   -315    208    345    402 156.1  33.8  34132  289.11 0855.27
2009/04/23 09:57:43.6     100   -317    232    333    405 162.5  38.4  34138  289.20 0855.27
2009/04/23 09:57:43.7     128   -307    198    333    387 157.3  33.5  34138  289.20 0855.27
2009/04/23 09:57:43.8     111   -343    177    361    402 162.1  28.1  34136  289.18 0855.27
2009/04/23 09:57:43.9     141   -286    103    319    336 153.7  18.0  34136  289.15 0855.27
2009/04/23 09:57:44.0     148   -294     93    330    344 153.3  15.8  34130  289.08 0855.27
2009/04/23 09:57:44.1      88   -245     95    261    277 160.2  21.0  34134  289.12 0855.27
2009/04/23 09:57:44.2      71   -196    131    209    246 159.9  35.5  34136  289.15 0855.27
2009/04/23 09:57:44.3      59   -174    127    184    223 161.1  37.8  34134  289.14 0855.27
2009/04/23 09:57:44.4      22   -214    138    216    256 174.0  35.6  34136  289.17 0855.27
2009/04/23 09:57:44.5       4   -157    162    158    226 178.2  50.7  34134  289.14 0855.27
2009/04/23 09:57:44.6      10    -91    151     92    176 173.3  66.0  34136  289.18 0855.27
2009/04/23 09:57:44.7      -2     25    116     26    118 353.8  87.5  34150  289.40 0855.27
2009/04/23 09:57:44.8      97    -51    110    110    155 118.0  50.1  34142  289.26 0855.27
2009/04/23 09:57:44.9      42   -127    106    134    170 161.7  42.7  34136  289.16 0855.27
2009/04/23 09:57:45.0     -37    -99     85    106    135 200.9  43.3  34134  289.14 0855.27
2009/04/23 09:57:45.1     -57    -22     33     62     70 248.3  30.3  34140  289.24 0855.29
2009/04/23 09:57:45.2     -32     47     49     58     75 325.7  43.8  34150  289.40 0855.29
2009/04/23 09:57:45.3     -12     44     49     46     67 344.0  52.1  34140  289.24 0855.29
2009/04/23 09:57:45.4      -5     16      6     17     19 341.5  19.4  34136  289.16 0855.29
2009/04/23 09:57:45.5     -33    -26     15     43     46 232.2  19.4  34138  289.21 0855.29
2009/04/23 09:57:45.6    -125    -68     57    143    153 241.2  23.0  34154  289.46 0855.29
2009/04/23 09:57:45.7    -118   -118    106    168    198 225.0  35.5  34142  289.28 0855.29
2009/04/23 09:57:45.8    -160    -49     10    168    169 252.7   3.6  34160  289.58 0855.29
2009/04/23 09:57:45.9     -11    -18     22     22     31 210.7  50.1  34148  289.38 0855.29
2009/04/23 09:57:46.0      29    -92    143     97    172 162.6  62.8  34140  289.23 0855.29
2009/04/23 09:57:46.1       6   -136    253    137    287 177.3  69.3  34146  289.32 0855.29
2009/04/23 09:57:46.2     -57   -302     44    308    312 190.7   8.2  34154  289.47 0855.29
2009/04/23 09:57:46.3    -184   -254    -48    315    319 216.0  -8.8  34146  289.32 0855.29
2009/04/23 09:57:46.4    -166   -157    -56    229    236 226.7 -13.9  34138  289.20 0855.29
2009/04/23 09:57:46.5    -192   -162    -33    252    255 229.8  -7.5  34142  289.25 0855.29
2009/04/23 09:57:46.6    -255   -147    -16    295    296 240.0  -3.1  34138  289.20 0855.29
2009/04/23 09:57:46.7    -194   -175     29    262    264 227.8   6.5  34148  289.37 0855.29
2009/04/23 09:57:46.8    -179   -177    123    252    280 225.3  28.0  34152  289.44 0855.29
2009/04/23 09:57:46.9    -182   -223     24    289    291 219.2   4.9  34140  289.24 0855.29
2009/04/23 09:57:47.0      -4   -195    -82    196    212 181.4 -28.5  34132  289.11 0855.29
2009/04/23 09:57:47.1     -57   -192     -2    201    202 196.7  -0.7  34126  288.99 0855.30
2009/04/23 09:57:47.2     -97    -19    -29     99    104 258.5 -16.6  34140  289.23 0855.30
2009/04/23 09:57:47.3    -166    -40    -24    171    173 256.3  -8.0  34134  289.14 0855.30
2009/04/23 09:57:47.4    -146   -125     55    193    201 229.3  16.0  34144  289.31 0855.30
2009/04/23 09:57:47.5    -170   -202    -25    265    267 220.1  -5.6  34142  289.25 0855.30
2009/04/23 09:57:47.6    -167   -163    -67    234    243 225.8 -20.8  34146  289.32 0855.30
2009/04/23 09:57:47.7     -97   -157    -59    185    194 211.9 -23.3  34142  289.28 0855.30
2009/04/23 09:57:47.8    -107    -73    -40    130    136 235.8 -22.3  34142  289.28 0855.30
2009/04/23 09:57:47.9    -167      4    -21    168    170 271.5  -7.3  34148  289.36 0855.30
2009/04/23 09:57:48.0    -184     52    -47    192    198 285.9 -13.9  34152  289.43 0855.30
2009/04/23 09:57:48.1    -170     66    -36    183    187 291.3 -11.3  34160  289.57 0855.30
2009/04/23 09:57:48.2    -241     33    -84    244    258 277.9 -24.0  34152  289.44 0855.30
2009/04/23 09:57:48.3    -206     53   -137    213    253 284.6 -40.0  34154  289.46 0855.30
2009/04/23 09:57:48.4    -208    -59   -166    217    273 254.1 -45.6  34154  289.46 0855.30
2009/04/23 09:57:48.5    -189   -108   -151    218    265 240.2 -42.8  34150  289.39 0855.30
2009/04/23 09:57:48.6    -357    -52   -209    361    417 261.7 -37.1  34150  289.40 0855.30
2009/04/23 09:57:48.7    -255   -116   -122    281    306 245.6 -29.5  34158  289.53 0855.30
2009/04/23 09:57:48.8    -331   -112    -45    350    353 251.3  -7.4  34154  289.47 0855.30
2009/04/23 09:57:48.9    -391   -159    -37    423    425 247.9  -5.1  34144  289.31 0855.30
2009/04/23 09:57:49.0    -409   -175     42    446    449 246.8   5.5  34144  289.29 0855.30
2009/04/23 09:57:49.1    -413   -267    -11    492    493 237.1  -1.4  34140  289.23 0855.32
2009/04/23 09:57:49.2    -553   -206     39    591    593 249.6   3.8  34148  289.36 0855.32
2009/04/23 09:57:49.3    -538   -312    -47    622    624 239.9  -4.4  34142  289.26 0855.32
2009/04/23 09:57:49.4    -618   -243    -61    665    669 248.5  -5.3  34134  289.14 0855.32
2009/04/23 09:57:49.5    -495   -283   -141    571    589 240.3 -13.9  34126  289.00 0855.32
2009/04/23 09:57:49.6    -401   -174    -88    438    447 246.6 -11.5  34132  289.09 0855.32
2009/04/23 09:57:49.7    -435   -130     30    455    457 253.3   3.8  34144  289.31 0855.32
2009/04/23 09:57:49.8    -371   -105   -124    386    406 254.2 -17.9  34130  289.06 0855.32
2009/04/23 09:57:49.9    -381     -2   -118    382    399 269.7 -22.3  34130  289.06 0855.32
2009/04/23 09:57:50.0    -277     12     24    278    280 272.5   5.0  34150  289.41 0855.32
2009/04/23 09:57:50.1    -188     -2     21    189    191 269.1   6.5  34154  289.48 0855.32
2009/04/23 09:57:50.2    -186   -124    -45    224    229 236.3 -11.5  34146  289.35 0855.32
2009/04/23 09:57:50.3    -239   -104   -117    261    286 246.4 -30.3  34156  289.51 0855.32
2009/04/23 09:57:50.4    -169   -135    -79    217    230 231.4 -25.1  34166  289.67 0855.32
2009/04/23 09:57:50.5    -129   -210     80    247    260 211.7  18.1  34152  289.42 0855.32
2009/04/23 09:57:50.6    -311   -151     45    346    349 244.1   7.4  34154  289.47 0855.32
2009/04/23 09:57:50.7    -180   -116     53    215    222 237.1  13.9  34164  289.63 0855.32
2009/04/23 09:57:50.8    -154   -151    147    216    261 225.6  37.4  34158  289.53 0855.32
2009/04/23 09:57:50.9    -196    -89    -45    216    221 245.6 -11.9  34160  289.57 0855.32
2009/04/23 09:57:51.0    -140   -151    -67    207    217 222.8 -23.3  34156  289.50 0855.32
2009/04/23 09:57:51.1    -263   -137     25    297    299 242.5   4.9  34164  289.64 0855.33
2009/04/23 09:57:51.2    -267   -121    -95    294    310 245.6 -17.9  34166  289.68 0855.33
2009/04/23 09:57:51.3    -257   -169   -100    308    324 236.7 -18.0  34168  289.71 0855.33
2009/04/23 09:57:51.4    -232   -165    -80    285    297 234.5 -15.8  34160  289.56 0855.33
2009/04/23 09:57:51.5    -131   -209     -6    247    248 212.1  -1.6  34154  289.46 0855.33
2009/04/23 09:57:51.6     -98   -330   -118    345    365 196.6 -19.0  34152  289.45 0855.33
2009/04/23 09:57:51.7    -121   -283   -123    308    331 203.2 -27.4  34146  289.32 0855.33
2009/04/23 09:57:51.8     -17   -374    -24    375    376 182.6  -3.8  34136  289.15 0855.33
2009/04/23 09:57:51.9      14   -406     15    407    408 178.0   2.2  34140  289.24 0855.33
2009/04/23 09:57:52.0     -33   -324    -13    326    327 186.0  -2.3  34136  289.15 0855.33
2009/04/23 09:57:52.1      -1   -295    -72    296    305 180.2 -13.7  34140  289.24 0855.34
2009/04/23 09:57:52.2     106   -354     74    370    378 163.2  11.3  34132  289.11 0855.34
2009/04/23 09:57:52.3      34   -378     97    380    393 174.8  14.3  34136  289.18 0855.34
2009/04/23 09:57:52.4       7   -364    135    365    389 178.8  21.1  34136  289.16 0855.34
2009/04/23 09:57:52.5       4   -341    -12    342    343 179.2  -2.1  34138  289.21 0855.34
2009/04/23 09:57:52.6     -14   -305     95    306    321 182.7  17.3  34138  289.20 0855.34
2009/04/23 09:57:52.7     -59   -289    141    296    327 191.6  27.3  34140  289.22 0855.34
2009/04/23 09:57:52.8     -64   -253    162    262    308 194.3  35.0  34142  289.25 0855.34
2009/04/23 09:57:52.9    -116   -196    144    228    269 210.7  35.5  34138  289.19 0855.34
2009/04/23 09:57:53.0       6   -205    106    206    231 178.2  29.3  34140  289.23 0855.34
2009/04/23 09:57:53.1     -42   -266    116    270    293 189.1  25.1  34138  289.19 0855.34
2009/04/23 09:57:53.2     -27   -251     78    253    265 186.3  17.3  34140  289.22 0855.34
2009/04/23 09:57:53.3     -59   -292     54    299    304 191.6  10.3  34138  289.19 0855.34
2009/04/23 09:57:53.4       0   -241     62    242    250 180.0  14.5  34138  289.19 0855.34
2009/04/23 09:57:53.5     -33   -253     57    256    263 187.6  12.6  34138  289.20 0855.34
2009/04/23 09:57:53.6     -70   -199    108    211    237 199.4  29.3  34136  289.18 0855.34
2009/04/23 09:57:53.7    -139   -180    104    228    250 217.8  26.2  34138  289.20 0855.34
2009/04/23 09:57:53.8    -209      0     96    210    230 270.0  26.6  34146  289.33 0855.34
2009/04/23 09:57:53.9    -156      4    -56    157    167 271.7 -19.7  34142  289.26 0855.34
2009/04/23 09:57:54.0    -174     13    -62    175    185 274.4 -24.0  34138  289.19 0855.34
2009/04/23 09:57:54.1    -240    -60    -87    248    262 255.8 -24.4  34138  289.19 0855.36
2009/04/23 09:57:54.2    -365      0   -146    366    394 269.9 -27.4  34120  288.89 0855.36
2009/04/23 09:57:54.3    -212    -72   -107    225    249 251.2 -31.7  34128  289.03 0855.36
2009/04/23 09:57:54.4    -190   -245   -178    311    358 217.8 -36.8  34144  289.30 0855.36
2009/04/23 09:57:54.5    -131   -205   -237    244    340 212.5 -53.6  34134  289.14 0855.36
2009/04/23 09:57:54.6    -105   -356   -209    372    426 196.4 -36.1  34150  289.39 0855.36
2009/04/23 09:57:54.7       0   -435   -211    436    484 179.9 -32.1  34148  289.37 0855.36
2009/04/23 09:57:54.8      28   -432   -231    433    490 176.2 -34.7  34142  289.28 0855.36
2009/04/23 09:57:54.9      99   -399   -153    412    439 166.0 -25.5  34126  289.00 0855.36
2009/04/23 09:57:55.0     102   -303   -107    320    337 161.3 -23.6  34136  289.15 0855.36
2009/04/23 09:57:55.1     171   -390   -139    427    449 156.3 -23.3  34130  289.07 0855.36
2009/04/23 09:57:55.2     261   -432   -145    505    525 148.8 -20.9  34132  289.09 0855.36
2009/04/23 09:57:55.3     204   -367   -146    421    445 150.9 -24.3  34128  289.02 0855.36
2009/04/23 09:57:55.4     363   -299   -152    471    496 129.5 -17.9  34128  289.03 0855.36
2009/04/23 09:57:55.5     144   -224    -92    267    283 147.3 -19.1  34122  288.92 0855.36
2009/04/23 09:57:55.6    -121   -348   -121    369    388 199.3 -23.7  34132  289.10 0855.36
2009/04/23 09:57:55.7     -31   -252    -12    255    256 187.2  -2.8  34134  289.12 0855.36
2009/04/23 09:57:55.8      83   -317    -72    328    336 165.2 -12.4  34136  289.15 0855.36
2009/04/23 09:57:55.9     214    -65    237    224    326 106.9  51.9  34122  288.93 0855.36
2009/04/23 09:57:56.0     116   -296    289    318    429 158.6  47.0  34130  289.08 0855.36
2009/04/23 09:57:56.1     181   -366    238    409    473 153.6  32.9  34124  288.95 0855.38
2009/04/23 09:57:56.2      32   -288    229    290    369 173.5  42.3  34128  289.04 0855.38
2009/04/23 09:57:56.3     170    -67    191    184    265 111.7  51.2  34132  289.09 0855.38
2009/04/23 09:57:56.4      72   -158    134    174    219 155.5  41.6  34134  289.14 0855.38
2009/04/23 09:57:56.5       6   -152    146    153    211 177.4  48.7  34136  289.18 0855.38
2009/04/23 09:57:56.6      66   -152    143    166    219 156.4  45.1  34132  289.09 0855.38
2009/04/23 09:57:56.7     127   -111    176    169    244 131.3  51.2  34136  289.18 0855.38
2009/04/23 09:57:56.8     -22   -308    175    309    355 184.2  32.1  34128  289.03 0855.38
2009/04/23 09:57:56.9     -27   -248    135    250    284 186.3  30.6  34128  289.03 0855.38
2009/04/23 09:57:57.0     -77   -331    111    340    358 193.2  18.1  34140  289.23 0855.38
2009/04/23 09:57:57.1    -102   -284    190    302    356 199.8  35.2  34132  289.10 0855.38
2009/04/23 09:57:57.3    -127   -333    127    357    378 201.0  20.4  34136  289.18 0855.38
2009/04/23 09:57:57.4    -139   -303    111    334    352 204.6  18.4  34136  289.15 0855.38
2009/04/23 09:57:57.5    -126   -245     94    276    292 207.2  18.9  34136  289.15 0855.38
2009/04/23 09:57:57.6    -152   -239    107    284    303 212.6  21.5  34140  289.22 0855.38
2009/04/23 09:57:57.7    -146   -230     99    273    290 212.5  20.9  34136  289.15 0855.38
2009/04/23 09:57:57.8    -131   -206     58    245    252 212.5  13.5  34136  289.15 0855.38
2009/04/23 09:57:57.9    -131   -268     46    299    303 206.1   8.9  34134  289.12 0855.38
2009/04/23 09:57:58.0    -134   -285     13    315    316 205.2   2.5  34136  289.17 0855.38
2009/04/23 09:57:58.1    -107   -228     76    253    265 205.2  16.8  34126  289.00 0855.38
2009/04/23 09:57:58.2     -92   -234    118    252    278 201.6  27.1  34134  289.12 0855.34
2009/04/23 09:57:58.3    -167   -229     44    284    288 216.1   8.9  34134  289.12 0855.34
2009/04/23 09:57:58.4    -124   -251     44    280    284 206.3   9.0  34132  289.09 0855.34
2009/04/23 09:57:58.5    -118   -272    -65    297    305 203.6 -12.4  34132  289.09 0855.34
2009/04/23 09:57:58.6     -16   -368      5    369    370 182.5   0.9  34126  288.99 0855.34
2009/04/23 09:57:58.7     -39   -357     26    360    361 186.3   4.2  34126  288.99 0855.34
2009/04/23 09:57:58.8     -66   -299     83    307    319 192.5  15.1  34132  289.09 0855.34
2009/04/23 09:57:58.9     -81   -268     54    281    287 196.9  11.0  34136  289.17 0855.34
2009/04/23 09:57:59.0     -99   -253     53    272    278 201.4  11.0  34138  289.20 0855.34
2009/04/23 09:57:59.1     -87   -285    -21    299    300 196.9  -4.1  34134  289.12 0855.34
2009/04/23 09:57:59.2     -38   -285   -131    288    316 187.6 -30.4  34134  289.12 0855.34
2009/04/23 09:57:59.3      66   -275    -99    283    301 166.4 -19.4  34128  289.03 0855.34
2009/04/23 09:57:59.4      87   -288     -6    302    303 163.1  -1.2  34126  289.00 0855.34
2009/04/23 09:57:59.5     -23   -298     14    299    300 184.5   2.8  34128  289.02 0855.34
2009/04/23 09:57:59.6     -31   -292     -1    294    295 186.2  -0.3  34120  288.90 0855.34
2009/04/23 09:57:59.7      -7   -242    126    243    273 181.8  29.5  34124  288.95 0855.34
2009/04/23 09:57:59.8      24   -388     99    389    402 176.4  14.3  34126  288.99 0855.34
2009/04/23 09:57:59.9      92   -395     62    406    411 166.9   8.8  34126  288.99 0855.34
2009/04/23 09:58:00.0      15   -388      5    389    390 177.8   0.8  34126  289.01 0855.34
2009/04/23 09:58:00.1     -25   -465     94    466    476 183.2  11.4  34114  288.79 0855.34
2009/04/23 09:58:00.2      39   -469     61    471    475 175.1   7.4  34116  288.83 0855.31
2009/04/23 09:58:00.3     156   -415     -2    444    445 159.4  -0.3  34124  288.95 0855.31
2009/04/23 09:58:00.4     161   -474   -101    501    512 161.2 -11.5  34118  288.86 0855.31
2009/04/23 09:58:00.5      99   -417   -103    429    442 166.6 -13.6  34108  288.70 0855.31
2009/04/23 09:58:00.6      29   -348   -133    350    374 175.1 -26.2  34112  288.76 0855.31
2009/04/23 09:58:00.7     -21   -450   -128    451    469 182.7 -15.9  34118  288.87 0855.31
2009/04/23 09:58:00.8      15   -487    -53    488    491 178.2  -6.3  34120  288.88 0855.31
2009/04/23 09:58:00.9     -92   -496     89    505    513 190.6  10.0  34126  288.98 0855.31
2009/04/23 09:58:01.0     -60   -482     57    486    490 187.2   6.7  34116  288.84 0855.31
2009/04/23 09:58:01.1    -102   -470    -62    482    486 192.3  -7.4  34120  288.90 0855.31
2009/04/23 09:58:01.2     -40   -516    -74    518    524 184.5  -8.2  34120  288.89 0855.31
2009/04/23 09:58:01.3     -29   -486    -19    487    488 183.5  -2.3  34124  288.95 0855.31
2009/04/23 09:58:01.4      35   -348    -49    350    354 174.2  -8.0  34120  288.88 0855.31
2009/04/23 09:58:01.5      56   -398     12    403    404 172.0   1.8  34114  288.80 0855.31
2009/04/23 09:58:01.6      64   -346      4    352    353 169.5   0.7  34108  288.69 0855.31
2009/04/23 09:58:01.7     -47   -253     59    258    265 190.7  12.9  34118  288.87 0855.31
2009/04/23 09:58:01.8      -6   -220    -34    221    224 181.8  -8.8  34130  289.06 0855.31
2009/04/23 09:58:01.9       8   -261     31    262    264 178.2   6.9  34118  288.85 0855.31
2009/04/23 09:58:02.0     -81   -304    -26    315    317 195.1  -4.8  34126  289.00 0855.31
2009/04/23 09:58:02.1     -36   -241    -77    244    256 188.7 -17.6  34122  288.93 0855.31
2009/04/23 09:58:02.2     -15   -207    -82    208    223 184.4 -27.2  34124  288.97 0855.29
2009/04/23 09:58:02.3     -82   -262    -60    275    282 197.4 -12.4  34126  289.00 0855.29
2009/04/23 09:58:02.4    -148   -237    -87    280    293 211.9 -22.1  34124  288.97 0855.29
2009/04/23 09:58:02.5     -77   -253   -119    265    290 197.0 -30.3  34124  288.97 0855.29
2009/04/23 09:58:02.6     -36   -181   -127    185    224 191.5 -42.0  34126  289.01 0855.29
2009/04/23 09:58:02.7       0   -218   -115    219    247 180.2 -34.5  34128  289.02 0855.29
2009/04/23 09:58:02.8    -161   -207   -121    263    289 217.9 -31.0  34126  288.98 0855.29
2009/04/23 09:58:02.9    -149   -239    -33    282    284 211.9  -6.7  34124  288.97 0855.29
2009/04/23 09:58:03.0    -105   -248    -69    270    279 202.9 -14.4  34124  288.95 0855.29
2009/04/23 09:58:03.1      38   -374    -47    376    379 174.1  -7.2  34126  288.99 0855.29
2009/04/23 09:58:03.2     -70   -253    -79    263    274 195.6 -21.7  34120  288.88 0855.29
2009/04/23 09:58:03.3    -183   -259    -69    318    326 215.2 -12.4  34120  288.88 0855.29
2009/04/23 09:58:03.4     -45   -242    -23    247    249 190.6  -5.4  34118  288.85 0855.29
2009/04/23 09:58:03.5     -52   -260     39    266    269 191.5   8.5  34120  288.90 0855.29
2009/04/23 09:58:03.6       0   -286     55    287    293 179.9  11.0  34122  288.92 0855.29
2009/04/23 09:58:03.7     -55   -364     66    369    375 188.6  10.2  34122  288.94 0855.29
2009/04/23 09:58:03.8    -183   -357     45    402    405 207.2   6.5  34130  289.05 0855.29
2009/04/23 09:58:03.9    -121   -327   -110    349    367 200.3 -17.6  34122  288.94 0855.29
2009/04/23 09:58:04.0    -112   -311    -50    331    335 200.0  -8.6  34128  289.03 0855.29
2009/04/23 09:58:04.1     -66   -303    -63    311    318 192.3 -11.5  34126  289.00 0855.29
2009/04/23 09:58:04.2      -1   -342    -13    343    344 180.2  -2.2  34130  289.08 0855.29
2009/04/23 09:58:04.3     -16   -332     43    333    336 182.9   7.5  34132  289.10 0855.29
2009/04/23 09:58:04.4     -75   -373    -14    381    382 191.5  -2.1  34132  289.11 0855.29
2009/04/23 09:58:04.5    -110   -397      1    413    414 195.6   0.2  34126  289.00 0855.29
2009/04/23 09:58:04.6     -83   -347     55    357    362 193.6   8.9  34130  289.06 0855.29
2009/04/23 09:58:04.7     -79   -312     53    322    327 194.3   9.5  34132  289.09 0855.29
2009/04/23 09:58:04.8     -67   -282    148    290    325 193.4  29.2  34130  289.07 0855.29
2009/04/23 09:58:04.9     -87   -303    192    316    369 196.0  34.3  34120  288.89 0855.29
2009/04/23 09:58:05.0     -46   -324    206    328    387 188.2  35.5  34128  289.04 0855.29
2009/04/23 09:58:05.1     -38   -380    127    382    403 185.8  18.4  34128  289.03 0855.29
2009/04/23 09:58:05.2     -97   -390     38    403    405 194.1   5.4  34124  288.97 0855.29
2009/04/23 09:58:05.3     -80   -383     55    392    396 191.9   8.0  34128  289.03 0855.29
2009/04/23 09:58:05.4     -72   -343     48    351    355 191.9   7.8  34126  288.99 0855.29
2009/04/23 09:58:05.5     -84   -309     -2    321    322 195.2  -0.5  34128  289.03 0855.29
2009/04/23 09:58:05.6     -55   -271    -15    277    278 191.6  -3.2  34128  289.02 0855.29
2009/04/23 09:58:05.7    -199   -264    -77    331    340 217.0 -13.2  34124  288.96 0855.29
2009/04/23 09:58:05.8    -191   -191   -129    271    300 225.0 -31.7  34128  289.02 0855.29
2009/04/23 09:58:05.9    -221   -252   -207    336    394 221.3 -38.9  34126  289.01 0855.29
2009/04/23 09:58:06.0    -345   -238   -219    420    473 235.4 -34.2  34132  289.11 0855.29
2009/04/23 09:58:06.1    -279   -203   -178    346    389 233.9 -33.7  34130  289.08 0855.29
2009/04/23 09:58:06.2    -199   -184   -168    272    319 227.3 -39.2  34130  289.05 0855.27
2009/04/23 09:58:06.3     -86   -190   -137    209    249 204.3 -40.9  34130  289.07 0855.27
2009/04/23 09:58:06.4       0   -283   -109    284    304 180.0 -26.4  34130  289.05 0855.27
2009/04/23 09:58:06.5      13   -301   -115    302    323 177.5 -26.2  34130  289.07 0855.27
2009/04/23 09:58:06.6       0   -241    -72    242    252 179.8 -21.7  34128  289.02 0855.27
2009/04/23 09:58:06.7     -45   -192    -59    198    207 193.4 -16.6  34130  289.08 0855.27
2009/04/23 09:58:06.8     -86   -215    -12    232    233 201.9  -3.1  34130  289.08 0855.27
2009/04/23 09:58:06.9     -49   -232    -17    238    239 192.0  -4.1  34132  289.09 0855.27
2009/04/23 09:58:07.0     -97   -207    -20    229    230 205.2  -5.1  34130  289.06 0855.27
2009/04/23 09:58:07.1    -110   -195    -54    225    232 209.4 -13.7  34130  289.08 0855.27
2009/04/23 09:58:07.2    -128   -146    -57    195    203 221.2 -21.5  34132  289.09 0855.27
2009/04/23 09:58:07.3    -147   -126    -30    194    197 229.3  -8.8  34134  289.13 0855.27
2009/04/23 09:58:07.4     -87   -200    -58    219    227 203.6 -15.0  34132  289.11 0855.27
2009/04/23 09:58:07.5     -23   -268    -12    270    271 185.1  -2.6  34132  289.10 0855.27
2009/04/23 09:58:07.6     -45   -199     63    205    215 192.9  17.3  34132  289.09 0855.27
2009/04/23 09:58:07.7     -72   -105     66    128    144 214.3  29.3  34134  289.14 0855.27
2009/04/23 09:58:07.8     -42   -119     74    127    146 199.6  33.4  34134  289.14 0855.27
2009/04/23 09:58:07.9     -23    -88     78     92    120 195.1  44.8  34136  289.16 0855.27
2009/04/23 09:58:08.0     -30    -91     76     96    122 198.3  42.7  34136  289.16 0855.27
2009/04/23 09:58:08.1     -72   -106     92    129    158 214.2  39.1  34138  289.21 0855.27
2009/04/23 09:58:08.2     -90    -75     84    118    144 230.0  39.5  34146  289.33 0855.26
2009/04/23 09:58:08.3     -64      4     80     65    103 274.3  56.4  34150  289.41 0855.26
2009/04/23 09:58:08.4     -60    122     29    137    141 333.7  12.2  34154  289.46 0855.26
2009/04/23 09:58:08.5     -22    100     38    103    109 347.5  20.4  34154  289.46 0855.26
2009/04/23 09:58:08.6       0     94     74     95    120 359.6  41.7  34154  289.48 0855.26
2009/04/23 09:58:08.7      17     36     95     40    103  25.4  76.6  34150  289.41 0855.26
2009/04/23 09:58:08.8     -38      2     85     39     93 274.3  73.5  34158  289.55 0855.26
2009/04/23 09:58:08.9     -46     56     50     73     88 320.4  37.6  34150  289.40 0855.26
2009/04/23 09:58:09.0     -38    110     91    117    148 340.8  41.7  34144  289.31 0855.26
2009/04/23 09:58:09.1    -178     59     48    188    195 288.4  14.5  34162  289.62 0855.26
2009/04/23 09:58:09.2    -199     34      7    203    204 279.9   2.1  34166  289.69 0855.26
2009/04/23 09:58:09.3    -172     -3    -79    173    190 268.7 -31.0  34160  289.58 0855.26
2009/04/23 09:58:09.4    -118    -62   -170    134    216 242.0 -62.1  34144  289.30 0855.26
2009/04/23 09:58:09.5     -95    -69   -136    118    180 234.0 -59.0  34154  289.48 0855.26
2009/04/23 09:58:09.6       0   -152    -85    153    175 180.4 -36.0  34156  289.52 0855.26
2009/04/23 09:58:09.7      34   -268    -88    271    284 172.7 -23.0  34156  289.51 0855.26
2009/04/23 09:58:09.8     113   -352    -66    370    377 162.1 -10.2  34152  289.43 0855.26
2009/04/23 09:58:09.9     -95   -279   -105    295    314 198.9 -19.7  34138  289.20 0855.26
2009/04/23 09:58:10.0     -95   -165   -122    191    226 210.1 -40.0  34150  289.41 0855.26
2009/04/23 09:58:10.1     -67   -163   -145    177    228 202.5 -48.1  34150  289.40 0855.26
2009/04/23 09:58:10.2     -25   -175    -88    177    197 188.2 -32.6  34146  289.33 0855.27
2009/04/23 09:58:10.3     -18   -187    -74    188    202 185.6 -27.2  34146  289.35 0855.27
2009/04/23 09:58:10.4      16   -330   -105    331    347 177.2 -22.9  34136  289.18 0855.27
2009/04/23 09:58:10.5      94   -410     10    421    422 167.0   1.5  34136  289.17 0855.27
2009/04/23 09:58:10.6     111   -413    -39    428    431 164.9  -5.3  34136  289.17 0855.27
2009/04/23 09:58:10.7       6   -392     -9    393    394 179.0  -1.4  34138  289.20 0855.27
2009/04/23 09:58:10.8      -9   -370    -72    371    378 181.5 -11.0  34136  289.15 0855.27
2009/04/23 09:58:10.9     -68   -399      6    406    407 189.8   0.9  34144  289.29 0855.27
2009/04/23 09:58:11.0      51   -456    -10    459    460 173.5  -1.3  34132  289.11 0855.27
2009/04/23 09:58:11.1     180   -417    -92    455    465 156.6 -11.5  34136  289.17 0855.27
2009/04/23 09:58:11.2     151   -416    -59    443    447 160.0  -7.6  34138  289.21 0855.27
2009/04/23 09:58:11.3     106   -409     40    423    425 165.4   5.5  34134  289.12 0855.27
2009/04/23 09:58:11.4     222   -417    -22    473    474 152.0  -2.7  34134  289.13 0855.27
2009/04/23 09:58:11.5     217   -368     17    428    429 149.5   2.4  34132  289.09 0855.27
2009/04/23 09:58:11.6     211   -290    -14    359    360 143.9  -2.2  34132  289.10 0855.27
2009/04/23 09:58:11.7     201   -287     44    351    354 145.0   7.2  34132  289.10 0855.27
2009/04/23 09:58:11.8     186   -247     85    310    322 143.0  15.4  34132  289.10 0855.27
2009/04/23 09:58:11.9     202   -203    117    287    309 135.2  23.1  34122  288.92 0855.27
2009/04/23 09:58:12.0     232   -232    107    329    347 135.0  18.0  34128  289.04 0855.27
2009/04/23 09:58:12.1     173   -232    109    290    309 143.3  21.3  34124  288.95 0855.27
2009/04/23 09:58:12.2      84   -254    151    268    307 161.7  31.6  34122  288.93 0855.26
2009/04/23 09:58:12.3      95   -186    111    209    236 152.9  30.3  34124  288.96 0855.26
2009/04/23 09:58:12.4     161   -187     98    247    265 139.2  23.0  34128  289.03 0855.26
2009/04/23 09:58:12.5     140   -140     54    199    207 135.1  15.2  34134  289.13 0855.26
2009/04/23 09:58:12.6     132   -149     43    200    205 138.6  12.4  34138  289.21 0855.26
2009/04/23 09:58:12.7     112   -208     -4    237    238 151.7  -1.2  34136  289.15 0855.26
2009/04/23 09:58:12.8     127   -209     -9    245    246 148.6  -2.2  34136  289.17 0855.26
2009/04/23 09:58:12.9     134   -203    -26    244    246 146.6  -6.2  34134  289.14 0855.26
2009/04/23 09:58:13.0      82   -214     26    230    232 159.1   6.5  34132  289.11 0855.26
2009/04/23 09:58:13.1     113   -233     78    260    272 154.1  16.8  34136  289.15 0855.26
2009/04/23 09:58:13.2     131   -205     89    244    259 147.5  20.9  34138  289.20 0855.27
2009/04/23 09:58:13.3      66   -267    133    276    306 166.0  27.3  34142  289.25 0855.27
2009/04/23 09:58:13.4       0   -288     92    289    304 180.0  17.7  34134  289.14 0855.27
2009/04/23 09:58:13.5       0   -291     57    292    298 180.0  11.1  34136  289.17 0855.27
2009/04/23 09:58:13.6       8   -235     73    236    248 178.0  17.3  34136  289.17 0855.27
2009/04/23 09:58:13.7     102   -262    241    282    370 158.6  45.0  34136  289.16 0855.27
2009/04/23 09:58:13.8      52   -183    188    191    268 164.0  49.8  34138  289.19 0855.27
2009/04/23 09:58:13.9      85   -134    136    160    209 147.5  44.5  34138  289.21 0855.27
2009/04/23 09:58:14.0     107   -247    -92    270    285 156.6 -23.8  34134  289.12 0855.27
2009/04/23 09:58:14.1     103   -236     -8    258    259 156.4  -1.8  34112  288.76 0855.27
2009/04/23 09:58:14.2      35   -350     17    352    353 174.2   2.9  34110  288.74 0855.27
2009/04/23 09:58:14.3     -46   -261     31    266    268 190.0   6.7  34118  288.87 0855.27
2009/04/23 09:58:14.4     -54   -204     24    212    214 194.9   6.5  34122  288.94 0855.27
2009/04/23 09:58:14.5     -45   -187     34    193    197 193.6  10.1  34126  288.99 0855.27
2009/04/23 09:58:14.6      -5   -215     67    216    227 181.4  17.4  34124  288.97 0855.27
2009/04/23 09:58:14.7     -38   -184     48    188    195 191.8  14.5  34124  288.97 0855.27
2009/04/23 09:58:14.8     -93   -199     27    220    222 205.2   7.1  34126  289.01 0855.27
2009/04/23 09:58:14.9    -350    -45   -124    353    374 262.5 -24.6  34110  288.71 0855.27
2009/04/23 09:58:15.0    -366     29    -80    368    377 274.6 -12.3  34126  288.99 0855.27
2009/04/23 09:58:15.1    -270   -110    109    292    311 247.8  21.0  34132  289.10 0855.27
2009/04/23 09:58:15.2    -362    -49     -8    366    367 262.2  -1.4  34132  289.10 0855.24
2009/04/23 09:58:15.3    -280     34    -84    283    296 277.0 -16.6  34126  288.98 0855.24
2009/04/23 09:58:15.4    -254     54     -5    260    261 282.2  -1.3  34126  288.98 0855.24
2009/04/23 09:58:15.5    -299     79     71    310    319 284.8  12.9  34130  289.05 0855.24
2009/04/23 09:58:15.6    -240     69    120    250    277 286.2  27.4  34126  289.00 0855.24
2009/04/23 09:58:15.7    -117      2    155    118    194 271.3  59.0  34134  289.13 0855.24
2009/04/23 09:58:15.8     -14    -31    196     35    199 205.3  90.0  34146  289.33 0855.24
2009/04/23 09:58:15.9     -86   -210    206    227    306 202.3  47.0  34128  289.03 0855.24
2009/04/23 09:58:16.0     -50   -230    164    236    287 192.3  38.0  34126  288.98 0855.24
2009/04/23 09:58:16.1     -76   -225    176    238    296 198.7  39.9  34126  288.98 0855.24
2009/04/23 09:58:16.2     -77   -122    139    145    200 212.5  49.0  34132  289.09 0855.24
2009/04/23 09:58:16.3      -9     31     65     33     72 343.1  71.9  34132  289.09 0855.24
2009/04/23 09:58:16.4      79   -160    161    179    240 153.7  46.9  34132  289.09 0855.24
2009/04/23 09:58:16.5      63   -226    163    235    285 164.2  38.0  34128  289.02 0855.24
2009/04/23 09:58:16.6      -9   -202    132    203    242 182.6  36.0  34126  289.01 0855.24
2009/04/23 09:58:16.7     -57   -176     87    186    205 198.0  27.1  34126  289.01 0855.24
2009/04/23 09:58:16.8     -55   -138     76    149    167 201.8  28.7  34130  289.08 0855.24
2009/04/23 09:58:16.9     -31    -35     78     47     91 221.4  66.2  34138  289.19 0855.24
2009/04/23 09:58:17.0     -23     15     66     28     71 302.4  76.1  34144  289.31 0855.24
2009/04/23 09:58:17.1     -83      0     66     84    106 270.0  42.7  34136  289.18 0855.24
2009/04/23 09:58:17.2     -57     -4     45     58     73 265.6  42.7  34136  289.18 0855.26
2009/04/23 09:58:17.3     -40    -60      8     73     74 213.4   6.9  34134  289.13 0855.26
2009/04/23 09:58:17.4     -97    -92    -77    134    154 226.4 -37.3  34130  289.08 0855.26
2009/04/23 09:58:17.5     -45     15     16     48     51 288.6  18.4  34130  289.08 0855.26
2009/04/23 09:58:17.6     -85   -118    121    146    189 215.6  43.8  34132  289.09 0855.26
2009/04/23 09:58:17.7    -137    -52    113    147    185 249.2  41.7  34134  289.13 0855.26
2009/04/23 09:58:17.8    -216   -127     44    251    255 239.4  10.1  34130  289.07 0855.26
2009/04/23 09:58:17.9    -219   -143     45    262    266 236.9   9.9  34130  289.07 0855.26
2009/04/23 09:58:18.0    -237    -88     84    253    267 249.6  18.4  34136  289.15 0855.26
2009/04/23 09:58:18.1    -284    -48    -26    289    291 260.4  -5.2  34140  289.24 0855.26
2009/04/23 09:58:18.2    -295    -74    -39    305    308 255.8  -7.3  34152  289.42 0855.26
2009/04/23 09:58:18.3    -282    -89    -96    296    312 252.5 -18.1  34134  289.12 0855.26
2009/04/23 09:58:18.4    -276   -176   -120    328    349 237.5 -25.2  34126  288.98 0855.26
2009/04/23 09:58:18.5    -263   -190    -87    325    337 234.1 -15.1  34128  289.03 0855.26
2009/04/23 09:58:18.6    -103   -285      1    304    305 200.0   0.2  34132  289.09 0855.26
2009/04/23 09:58:18.7    -206   -299    -31    364    366 214.6  -4.9  34134  289.13 0855.26
2009/04/23 09:58:18.8    -149   -278    169    316    358 208.3  30.5  34130  289.08 0855.26
2009/04/23 09:58:18.9    -134   -211    137    251    285 212.5  31.3  34142  289.25 0855.26
2009/04/23 09:58:19.0     -74   -218     77    231    244 198.7  18.6  34130  289.07 0855.26
2009/04/23 09:58:19.1    -106    -34     25    112    115 252.3  12.6  34140  289.23 0855.26
2009/04/23 09:58:19.2     -42   -139    -47    146    154 197.0 -18.1  34136  289.16 0855.27
2009/04/23 09:58:19.3      64   -162      8    175    176 158.4   2.9  34124  288.97 0855.27
2009/04/23 09:58:19.4      42   -223     58    227    235 169.3  14.5  34122  288.93 0855.27
2009/04/23 09:58:19.5      22   -234     41    236    240 174.4  10.0  34118  288.87 0855.27
2009/04/23 09:58:19.6      72   -235     67    247    257 162.8  15.3  34120  288.90 0855.27
2009/04/23 09:58:19.7      41   -240     18    244    245 170.3   4.4  34122  288.93 0855.27
2009/04/23 09:58:19.8     107   -295      3    315    316 160.0   0.7  34118  288.87 0855.27
2009/04/23 09:58:19.9     147   -254     -5    294    295 149.9  -1.2  34120  288.90 0855.27
2009/04/23 09:58:20.0     131   -209     16    247    248 147.9   3.8  34120  288.88 0855.27
2009/04/23 09:58:20.1     158   -191     30    249    251 140.4   6.9  34120  288.88 0855.27
2009/04/23 09:58:20.2     140   -169     59    220    229 140.4  15.2  34118  288.86 0855.27
2009/04/23 09:58:20.3     139   -194     95    239    257 144.4  23.0  34116  288.83 0855.27
2009/04/23 09:58:20.4     141   -256    110    293    312 151.1  21.5  34120  288.88 0855.27
2009/04/23 09:58:20.5     134   -217    164    256    304 148.4  35.6  34118  288.85 0855.27
2009/04/23 09:58:20.6     110   -223    145    249    288 153.7  33.1  34114  288.80 0855.27
2009/04/23 09:58:20.7      41   -186    101    191    216 167.3  30.1  34120  288.89 0855.27
2009/04/23 09:58:20.8      71   -129     99    148    178 151.0  37.0  34120  288.91 0855.27
2009/04/23 09:58:20.9      83    -86    102    120    157 135.8  45.1  34120  288.91 0855.27
2009/04/23 09:58:21.0     103   -129    131    166    211 141.3  42.4  34122  288.94 0855.27
2009/04/23 09:58:21.1      64   -149    147    163    219 156.8  46.9  34126  288.99 0855.27
2009/04/23 09:58:21.2      86   -182    164    202    260 154.7  43.5  34130  289.07 0855.27
2009/04/23 09:58:21.3      40    -59    124     72    143 145.7  66.8  34130  289.08 0855.27
2009/04/23 09:58:21.4      -7   -116    163    117    200 183.6  60.6  34130  289.08 0855.27
2009/04/23 09:58:21.5     -13   -177    159    178    238 184.5  46.6  34126  289.01 0855.27
2009/04/23 09:58:21.6     -16   -183    178    184    256 185.1  49.0  34126  289.00 0855.27
2009/04/23 09:58:21.7     -42   -147    158    153    219 196.0  50.9  34130  289.08 0855.27
2009/04/23 09:58:21.8    -133   -161    106    210    235 219.6  28.7  34140  289.24 0855.27
2009/04/23 09:58:21.9     -88   -231     82    248    262 201.0  18.4  34130  289.07 0855.27
2009/04/23 09:58:22.0     -44   -227     81    232    246 191.1  19.4  34128  289.03 0855.27
2009/04/23 09:58:22.1     -25   -220    157    222    271 186.5  38.6  34128  289.03 0855.27
2009/04/23 09:58:22.2     -46   -167    139    174    222 195.4  42.7  34124  288.97 0855.27
2009/04/23 09:58:22.3      20   -171    136    173    220 173.3  42.2  34126  289.01 0855.27
2009/04/23 09:58:22.4     -60   -188    163    198    256 197.8  43.7  34128  289.02 0855.27
2009/04/23 09:58:22.5    -100   -206     98    230    250 205.9  24.6  34132  289.09 0855.27
2009/04/23 09:58:22.6     -60   -262     98    269    286 192.9  20.9  34136  289.15 0855.27
2009/04/23 09:58:22.7    -126   -266     15    295    296 205.4   2.9  34142  289.25 0855.27
2009/04/23 09:58:22.8     -43   -265     88    269    284 189.3  18.1  34140  289.24 0855.27
2009/04/23 09:58:22.9       0   -151    121    152    194 180.0  42.7  34136  289.16 0855.27
2009/04/23 09:58:23.0     -37   -105    153    112    189 199.6  60.5  34132  289.11 0855.27
2009/04/23 09:58:23.1     -92    -88    104    128    164 226.0  43.3  34144  289.30 0855.27
2009/04/23 09:58:23.2       3    -30    101     31    105 173.8  82.3  34140  289.24 0855.26
2009/04/23 09:58:23.3      44    -10     71     46     84 103.3  64.6  34140  289.24 0855.26
2009/04/23 09:58:23.4      26    -28     88     39     96 136.8  74.5  34134  289.14 0855.26
2009/04/23 09:58:23.5       0    -62     80     63    101 180.0  57.5  34140  289.24 0855.26
2009/04/23 09:58:23.6      -6    -76     86     77    115 184.5  53.3  34132  289.09 0855.26
2009/04/23 09:58:23.7     -37    -63     79     74    108 210.7  52.1  34132  289.11 0855.26
2009/04/23 09:58:23.8     -61    -24     49     66     82 248.3  40.7  34136  289.18 0855.26
2009/04/23 09:58:23.9     -50    -50     53     72     89 225.0  40.1  34132  289.11 0855.26
2009/04/23 09:58:24.0     -34    -21     40     41     57 237.6  51.1  34138  289.19 0855.26
2009/04/23 09:58:24.1      22      8     54     24     59  70.0  75.0  34142  289.28 0855.26
2009/04/23 09:58:24.2      91     95     84    132    156  43.7  35.5  34130  289.08 0855.26
2009/04/23 09:58:24.3     117    128     60    174    185  42.5  19.2  34156  289.50 0855.26
2009/04/23 09:58:24.4      77    130    -22    152    154  30.8  -8.2  34148  289.36 0855.26
2009/04/23 09:58:24.5     135    106     48    172    179  51.8  15.6  34158  289.53 0855.26
2009/04/23 09:58:24.6     155     54     90    165    187  70.7  31.0  34180  289.92 0855.26
2009/04/23 09:58:24.7     128     46     65    137    151  70.0  27.2  34180  289.91 0855.26
2009/04/23 09:58:24.8     136     17    151    138    204  82.5  52.5  34190  290.08 0855.26
2009/04/23 09:58:24.9     171     13    212    172    272  85.6  56.9  34200  290.26 0855.26
2009/04/23 09:58:25.0     207    -32    173    210    272  98.8  43.7  34150  289.41 0855.26
2009/04/23 09:58:25.2     161    -32    167    165    234 101.5  50.2  34160  289.58 0855.26
2009/04/23 09:58:25.3     101     68    136    122    182  55.9  53.3  34156  289.50 0855.26
2009/04/23 09:58:25.4      90     77     60    119    133  49.6  28.2  34148  289.38 0855.26
2009/04/23 09:58:25.5     136     91     77    164    181  56.0  27.0  34146  289.33 0855.26
2009/04/23 09:58:25.6     192     86     25    211    213  65.8   6.9  34134  289.13 0855.26
2009/04/23 09:58:25.7     252    120    178    280    331  64.6  35.5  34210  290.42 0855.26
2009/04/23 09:58:25.8     269    150    189    309    362  60.9  34.4  34190  290.08 0855.26
2009/04/23 09:58:25.9     518    147    242    539    590  74.1  25.8  34230  290.75 0855.26
2009/04/23 09:58:26.0     424     71    341    431    549  80.4  42.3  34242  290.96 0855.26
2009/04/23 09:58:26.1     414    125    155    433    459  73.2  20.6  34140  289.22 0855.26
2009/04/23 09:58:26.2     412     49    142    415    439  83.1  18.9  34140  289.24 0855.26
2009/04/23 09:58:26.3     363     53    -30    367    369  81.7  -4.8  34130  289.06 0855.26
2009/04/23 09:58:26.4     489     92    -35    498    500  79.3  -4.1  34130  289.06 0855.26
2009/04/23 09:58:26.5     455    -62    -83    460    468  97.8 -10.3  34126  289.00 0855.26
2009/04/23 09:58:26.6     525      3     30    526    527  89.6   3.3  34134  289.14 0855.26
2009/04/23 09:58:26.7     382   -182    -48    424    427 115.5  -6.6  34158  289.53 0855.26
2009/04/23 09:58:26.8     410    -40   -102    413    426  95.6 -13.9  34192  290.11 0855.26
2009/04/23 09:58:26.9     376    112     71    393    400  73.4  10.2  34178  289.86 0855.26
2009/04/23 09:58:27.0     494     19     -3    495    496  87.8  -0.4  34152  289.42 0855.26
2009/04/23 09:58:27.1     463     21    159    464    491  87.4  18.9  34142  289.28 0855.26
2009/04/23 09:58:27.2     517    140      6    536    537  74.9   0.7  34128  289.04 0855.26
2009/04/23 09:58:27.3     516     41     72    518    524  85.4   8.0  34136  289.18 0855.27
2009/04/23 09:58:27.4     483     88     36    491    493  79.6   4.2  34130  289.06 0855.27
2009/04/23 09:58:27.5     458    234     43    515    518  62.9   4.9  34150  289.39 0855.27
2009/04/23 09:58:27.6     458    158     82    485    492  70.9   9.6  34134  289.12 0855.27
2009/04/23 09:58:27.7     413    256     -2    486    487  58.2  -0.3  34146  289.34 0855.27
2009/04/23 09:58:27.8     404    222     13    462    463  61.2   1.7  34132  289.11 0855.27
2009/04/23 09:58:27.9     401    212     28    454    455  62.1   3.6  34134  289.14 0855.27
2009/04/23 09:58:28.0     368    181     23    411    412  63.8   3.2  34140  289.24 0855.27
2009/04/23 09:58:28.1     306    191     40    361    364  58.0   6.4  34162  289.60 0855.27
2009/04/23 09:58:28.2     278    161     24    322    323  59.9   4.3  34182  289.95 0855.27
2009/04/23 09:58:28.3     241    240     14    341    342  45.1   2.4  34208  290.38 0855.27
2009/04/23 09:58:28.4     234    188     54    301    306  51.3  10.3  34198  290.22 0855.27
2009/04/23 09:58:28.5     354    150    -18    385    386  67.0  -2.7  34150  289.40 0855.27
2009/04/23 09:58:28.6     354    110    -46    371    374  72.7  -7.2  34138  289.21 0855.27
2009/04/23 09:58:28.7     362    196     39    412    414  61.5   5.4  34240  290.92 0855.27
2009/04/23 09:58:28.8     319    184    125    369    390  60.0  18.8  34260  291.28 0855.27
2009/04/23 09:58:28.9     327    216    138    393    416  56.5  20.0  34212  290.46 0855.27
2009/04/23 09:58:29.0     399    181     22    439    440  65.6   2.9  34200  290.24 0855.27
2009/04/23 09:58:29.1     538    274     94    604    612  63.0   8.9  34230  290.75 0855.27
2009/04/23 09:58:29.2     586    245    280    636    694  67.3  25.3  34228  290.72 0855.27
2009/04/23 09:58:29.3     493    253    258    555    612  62.8  26.7  34206  290.34 0855.27
2009/04/23 09:58:29.4     411    339    233    533    581  50.5  25.2  34170  289.75 0855.27
2009/04/23 09:58:29.5     429    187    203    469    511  66.4  25.0  34184  289.98 0855.27
2009/04/23 09:58:29.6     401    330    198    520    556  50.5  22.0  34178  289.87 0855.27
2009/04/23 09:58:29.7     483    317     43    579    581  56.7   4.3  34172  289.78 0855.27
2009/04/23 09:58:29.8     326    301     72    444    450  47.3   9.2  34162  289.61 0855.27
2009/04/23 09:58:29.9     412    277    117    497    511  56.1  13.3  34170  289.73 0855.27
2009/04/23 09:58:30.0     451    183    127    487    504  67.9  14.7  34166  289.66 0855.27
2009/04/23 09:58:30.1     337    289     25    445    446  49.4   3.2  34172  289.77 0855.27
2009/04/23 09:58:30.2     312    204     -7    373    374  56.8  -1.1  34172  289.77 0855.27
2009/04/23 09:58:30.3     340    224    -28    408    409  56.7  -4.0  34168  289.70 0855.27
2009/04/23 09:58:30.4     437    162    -76    467    474  69.7  -9.3  34162  289.61 0855.27
2009/04/23 09:58:30.5     499    170    -67    528    533  71.2  -7.3  34170  289.75 0855.27
2009/04/23 09:58:30.6     461     16    -18    462    463  88.0  -2.2  34164  289.63 0855.27
2009/04/23 09:58:30.7     398     69     -3    405    406  80.1  -0.5  34166  289.66 0855.27
2009/04/23 09:58:30.8     319     77    -12    329    330  76.3  -2.1  34166  289.69 0855.27
2009/04/23 09:58:30.9     303     93    -50    317    321  72.9  -9.0  34168  289.70 0855.27
2009/04/23 09:58:31.0     248     33      4    251    252  82.3   1.0  34162  289.61 0855.27
2009/04/23 09:58:31.1     172      5    -74    173    188  88.3 -28.7  34160  289.57 0855.27
2009/04/23 09:58:31.2     130   -135    -59    188    198 135.9 -17.6  34162  289.62 0855.27
2009/04/23 09:58:31.3     118    -35   -102    124    160 106.4 -48.1  34166  289.69 0855.26
2009/04/23 09:58:31.4      98    -97   -101    139    171 134.8 -44.3  34174  289.82 0855.26
2009/04/23 09:58:31.5     108    -89    -59    141    152 129.5 -28.0  34182  289.96 0855.26
2009/04/23 09:58:31.6     103    -41    -80    111    136 111.7 -43.9  34170  289.74 0855.26
2009/04/23 09:58:31.7     211    -19    -34    212    215  95.2  -9.3  34168  289.72 0855.26
2009/04/23 09:58:31.8     343     58    -52    348    352  80.4  -8.6  34168  289.72 0855.26
2009/04/23 09:58:31.9     454     56     23    458    459  82.9   2.9  34178  289.88 0855.26
2009/04/23 09:58:32.0     463     26     87    464    473  86.8  10.7  34176  289.83 0855.26
2009/04/23 09:58:32.1     334      7    118    335    355  88.7  20.2  34188  290.06 0855.26
2009/04/23 09:58:32.2     317     68    168    325    365  77.8  29.4  34160  289.57 0855.26
2009/04/23 09:58:32.3     360     78    207    369    423  77.7  31.7  34156  289.51 0855.26
2009/04/23 09:58:32.4     267     54    273    273    386  78.5  50.1  34154  289.47 0855.26
2009/04/23 09:58:32.5     180     71    296    194    353  68.5  63.7  34162  289.59 0855.26
2009/04/23 09:58:32.6     -49     57    224     76    236 319.5  80.7  34168  289.72 0855.26
2009/04/23 09:58:32.7     -96     -5    186     97    209 267.0  70.6  34178  289.87 0855.26
2009/04/23 09:58:32.8    -111    -37    148    118    189 251.6  57.1  34170  289.75 0855.26
2009/04/23 09:58:32.9     -73    -10     90     74    116 262.1  56.4  34166  289.67 0855.26
2009/04/23 09:58:33.0    -240    -10     22    241    243 267.5   5.4  34174  289.80 0855.26
2009/04/23 09:58:33.1    -180   -194    125    265    293 222.8  27.1  34156  289.51 0855.26
2009/04/23 09:58:33.2    -129   -177     96    220    240 216.1  25.1  34158  289.54 0855.26
2009/04/23 09:58:33.3    -169   -139     -4    220    221 230.5  -1.3  34158  289.53 0855.25
2009/04/23 09:58:33.4    -189   -113    -89    221    238 239.3 -27.4  34174  289.80 0855.25
2009/04/23 09:58:33.5    -180    -40   -128    185    224 257.4 -42.2  34172  289.77 0855.25
2009/04/23 09:58:33.6     -55    -71    -67     90    112 217.8 -44.5  34162  289.60 0855.25
2009/04/23 09:58:33.7    -121    -35    -40    127    134 253.6 -17.5  34158  289.55 0855.25
2009/04/23 09:58:33.8    -229     -5    -52    230    236 268.5 -12.9  34164  289.63 0855.25
2009/04/23 09:58:33.9    -147   -217     39    263    266 214.1   8.5  34168  289.71 0855.25
2009/04/23 09:58:34.0    -243   -272    100    366    380 221.8  15.4  34164  289.64 0855.25
2009/04/23 09:58:34.1    -246   -318    -59    403    408 217.7  -8.4  34170  289.75 0855.25
2009/04/23 09:58:34.2    -172   -322   -108    366    381 208.1 -21.2  34164  289.64 0855.25
2009/04/23 09:58:34.3    -334   -176    -79    378    387 242.1 -11.8  34166  289.67 0855.24
2009/04/23 09:58:34.4    -238   -210     44    318    321 228.6   7.9  34170  289.75 0855.24
2009/04/23 09:58:34.5    -170   -162     16    236    237 226.4   3.9  34166  289.66 0855.24
2009/04/23 09:58:34.6    -226    -40   -118    230    258 259.9 -33.7  34166  289.68 0855.24
2009/04/23 09:58:34.7    -218    -59    -66    226    235 254.9 -21.2  34172  289.78 0855.24
2009/04/23 09:58:34.8    -233   -137    -93    271    287 239.6 -19.1  34174  289.81 0855.24
2009/04/23 09:58:34.9    -266   -140    -91    301    315 242.2 -16.8  34178  289.86 0855.24
2009/04/23 09:58:35.0    -277    -45    -97    281    297 260.8 -24.0  34170  289.73 0855.24
2009/04/23 09:58:35.1    -309     39   -121    312    334 277.2 -26.7  34160  289.58 0855.24
2009/04/23 09:58:35.2    -244    -14   -107    245    267 266.6 -29.5  34152  289.44 0855.24
2009/04/23 09:58:35.3    -295     54    -98    300    315 280.5 -23.2  34144  289.31 0855.24
2009/04/23 09:58:35.4    -243    -91    -64    260    268 249.4 -13.9  34182  289.93 0855.24
2009/04/23 09:58:35.5    -237    -71    -54    248    254 253.2 -12.4  34172  289.76 0855.24
2009/04/23 09:58:35.6    -245    -17   -136    246    281 265.9 -35.8  34160  289.56 0855.24
2009/04/23 09:58:35.7    -397      5   -160    398    428 270.8 -27.4  34154  289.48 0855.24
2009/04/23 09:58:35.8    -341    -78   -134    350    374 257.1 -26.4  34172  289.79 0855.24
2009/04/23 09:58:35.9    -238     40    -31    242    244 279.7  -7.3  34166  289.66 0855.24
2009/04/23 09:58:36.0    -163     58    -45    174    180 289.7 -14.5  34160  289.57 0855.24
2009/04/23 09:58:36.1    -127     70    -29    146    149 298.8 -11.5  34160  289.58 0855.24
2009/04/23 09:58:36.2    -240     48     13    245    246 281.4   3.1  34156  289.51 0855.24
2009/04/23 09:58:36.3    -214     15     34    215    218 274.1   9.0  34162  289.62 0855.25
2009/04/23 09:58:36.4     -72    -49     30     88     94 235.4  18.9  34176  289.85 0855.25
2009/04/23 09:58:36.5      25    -26    -21     37     42 136.6 -36.8  34184  289.97 0855.25
2009/04/23 09:58:36.6      80    -18     44     83     93 102.8  30.3  34184  289.99 0855.25
2009/04/23 09:58:36.7      22    -17     24     28     36 127.8  45.8  34186  290.01 0855.25
2009/04/23 09:58:36.8     -67    -82    -13    107    108 219.2  -7.3  34188  290.06 0855.25
2009/04/23 09:58:36.9      -8   -164    -22    165    167 182.9  -7.7  34186  290.02 0855.25
2009/04/23 09:58:37.0       7   -216    -44    217    222 178.0 -11.5  34170  289.74 0855.25
2009/04/23 09:58:37.1    -108   -297    -29    317    319 200.0  -5.4  34172  289.78 0855.25
2009/04/23 09:58:37.2       3   -368   -101    369    383 179.5 -15.4  34168  289.72 0855.25
2009/04/23 09:58:37.3      67   -392    -81    398    407 170.2 -11.5  34168  289.70 0855.25
2009/04/23 09:58:37.4     164   -431    114    462    476 159.1  13.9  34172  289.78 0855.25
2009/04/23 09:58:37.5       0   -310    103    311    328 179.9  18.4  34170  289.73 0855.25
2009/04/23 09:58:37.6      28   -298     14    300    301 174.6   2.8  34168  289.70 0855.25
2009/04/23 09:58:37.7     -81   -301      2    312    313 195.1   0.5  34158  289.53 0855.25
2009/04/23 09:58:37.8     -34   -317      6    319    320 186.2   1.1  34156  289.51 0855.25
2009/04/23 09:58:37.9    -117   -266    -34    291    293 203.8  -6.7  34150  289.39 0855.25
2009/04/23 09:58:38.0    -119   -250     -6    277    278 205.5  -1.3  34144  289.31 0855.25
2009/04/23 09:58:38.1     -17   -243     24    244    246 184.0   5.7  34150  289.39 0855.25
2009/04/23 09:58:38.2     -62   -168     60    180    190 200.5  18.6  34146  289.35 0855.25
2009/04/23 09:58:38.3    -102   -191     41    217    221 208.3  10.8  34144  289.31 0855.25
2009/04/23 09:58:38.4     -85   -309     70    321    329 195.4  12.4  34148  289.37 0855.25
2009/04/23 09:58:38.5     -97   -321    100    336    351 196.9  16.7  34156  289.50 0855.25
2009/04/23 09:58:38.6    -178   -327     16    373    374 208.5   2.5  34154  289.48 0855.25
2009/04/23 09:58:38.7    -163   -304    -33    346    348 208.3  -5.6  34152  289.42 0855.25
2009/04/23 09:58:38.8    -161   -321    -77    360    369 206.6 -12.2  34152  289.43 0855.25
2009/04/23 09:58:38.9    -109   -315   -108    334    352 199.2 -18.0  34148  289.37 0855.25
2009/04/23 09:58:39.0    -122   -239    -58    269    276 207.2 -12.2  34138  289.20 0855.25
2009/04/23 09:58:39.1    -143   -264    -47    301    305 208.5  -9.0  34134  289.12 0855.25
2009/04/23 09:58:39.2     -80   -365    -63    374    380 192.5  -9.6  34138  289.21 0855.25
2009/04/23 09:58:39.3     -90   -375    -46    386    389 193.5  -6.9  34136  289.15 0855.25
2009/04/23 09:58:39.4    -131   -352     -8    376    377 200.4  -1.3  34142  289.25 0855.25
2009/04/23 09:58:39.5    -252   -308    -34    399    401 219.3  -4.9  34136  289.16 0855.25
2009/04/23 09:58:39.6    -175   -229    -16    289    290 217.4  -3.2  34140  289.22 0855.25
2009/04/23 09:58:39.7    -104   -247    -59    269    276 202.9 -12.4  34136  289.17 0855.25
2009/04/23 09:58:39.8     -66   -219    -73    230    241 196.9 -22.8  34132  289.09 0855.25
2009/04/23 09:58:39.9    -127   -202     20    239    240 212.3   4.9  34140  289.24 0855.25
2009/04/23 09:58:40.0     -77   -209     26    223    225 200.3   6.9  34136  289.18 0855.25
2009/04/23 09:58:40.1     -87   -199     75    218    231 203.6  19.2  34136  289.18 0855.25
2009/04/23 09:58:40.2      -3   -228    111    229    254 181.0  27.8  34144  289.31 0855.25
2009/04/23 09:58:40.3     -48   -256    171    261    312 190.7  36.0  34140  289.24 0855.27
2009/04/23 09:58:40.4     -11   -152    107    153    186 184.4  38.6  34140  289.23 0855.27
2009/04/23 09:58:40.5       9   -108    122    109    163 175.1  53.5  34140  289.24 0855.27
2009/04/23 09:58:40.6      32   -203     93    206    226 170.9  26.2  34134  289.13 0855.27
2009/04/23 09:58:40.7      38   -245     83    249    263 171.1  18.4  34146  289.34 0855.27
2009/04/23 09:58:40.8      38   -296     82    299    311 172.7  15.3  34150  289.39 0855.27
2009/04/23 09:58:40.9      45   -292     80    296    307 171.1  15.3  34146  289.34 0855.27
2009/04/23 09:58:41.0      26   -275     67    277    286 174.4  13.7  34142  289.27 0855.27
2009/04/23 09:58:41.1      90   -271     14    286    287 161.5   2.9  34136  289.17 0855.27
2009/04/23 09:58:41.2     -19   -300     14    301    302 183.6   2.8  34150  289.41 0855.27
2009/04/23 09:58:41.3     -13   -286     16    287    288 182.7   3.3  34146  289.34 0855.27
2009/04/23 09:58:41.4      17   -311    111    312    332 176.9  19.6  34128  289.02 0855.27
2009/04/23 09:58:41.5      68   -322    127    330    353 168.0  22.2  34130  289.08 0855.27
2009/04/23 09:58:41.6      24   -389     25    390    391 176.4   3.8  34134  289.13 0855.27
2009/04/23 09:58:41.7     -16   -474     56    475    479 182.0   6.8  34126  289.00 0855.27
2009/04/23 09:58:41.8      48   -443    200    446    488 173.8  25.8  34116  288.84 0855.27
2009/04/23 09:58:41.9     204   -460    148    504    526 156.1  16.4  34124  288.95 0855.27
2009/04/23 09:58:42.0     218   -341    110    406    421 147.4  15.2  34120  288.90 0855.27
2009/04/23 09:58:42.1     221   -474    100    524    534 155.0  10.8  34124  288.96 0855.27
2009/04/23 09:58:42.2     265   -502     32    568    569 152.1   3.3  34118  288.86 0855.27
2009/04/23 09:58:42.3     238   -485     87    541    549 153.9   9.2  34104  288.63 0855.29
2009/04/23 09:58:42.4     256   -459    146    526    547 150.8  15.6  34108  288.69 0855.29
2009/04/23 09:58:42.5     264   -427     72    503    509 148.3   8.2  34130  289.05 0855.29
2009/04/23 09:58:42.6     243   -335    164    415    446 144.0  22.8  34116  288.83 0855.29
2009/04/23 09:58:42.7     215   -297    170    367    404 144.0  26.6  34126  289.01 0855.29
2009/04/23 09:58:42.8     172   -321    248    365    441 151.9  37.6  34132  289.09 0855.29
2009/04/23 09:58:42.9      84   -360    291    370    470 166.7  42.2  34126  288.99 0855.29
2009/04/23 09:58:43.0      37   -372    239    374    443 174.3  35.6  34126  289.00 0855.29
2009/04/23 09:58:43.1       0   -403    202    404    451 180.0  28.6  34128  289.04 0855.29
2009/04/23 09:58:43.2     -54   -382     66    386    392 188.1   9.7  34126  289.01 0855.29
2009/04/23 09:58:43.3      35   -235     89    238    254 171.5  21.3  34124  288.95 0855.29
2009/04/23 09:58:43.4      23   -302    146    304    337 175.5  27.4  34132  289.09 0855.29
2009/04/23 09:58:43.5     -22   -310    171    311    354 184.2  31.3  34128  289.04 0855.29
2009/04/23 09:58:43.6      -4   -273    152    274    313 180.9  31.5  34130  289.05 0855.29
2009/04/23 09:58:43.7    -129   -345      4    369    370 200.5   0.7  34126  288.99 0855.29
2009/04/23 09:58:43.8     -10   -417    -83    418    427 181.4 -11.3  34130  289.07 0855.29
2009/04/23 09:58:43.9      18   -399   -176    400    437 177.4 -29.6  34124  288.97 0855.29
2009/04/23 09:58:44.0     -45   -341   -142    345    373 187.6 -27.9  34128  289.03 0855.29
2009/04/23 09:58:44.1     -37   -365   -288    367    466 185.9 -46.5  34124  288.95 0855.29
2009/04/23 09:58:44.2    -104   -399   -235    413    475 194.6 -36.7  34126  288.99 0855.29
2009/04/23 09:58:44.3     -84   -510   -157    517    540 189.4 -21.8  34130  289.06 0855.30
2009/04/23 09:58:44.4    -147   -450   -166    474    502 198.1 -24.4  34120  288.90 0855.30
2009/04/23 09:58:44.5      17   -490    -93    491    500 178.0 -10.8  34120  288.90 0855.30
2009/04/23 09:58:44.6    -110   -411   -136    426    447 195.1 -22.9  34126  289.00 0855.30
2009/04/23 09:58:44.7     -13   -435   -146    436    459 181.8 -23.3  34124  288.95 0855.30
2009/04/23 09:58:44.8      41   -395   -139    398    421 174.0 -24.3  34122  288.92 0855.30
2009/04/23 09:58:44.9    -175   -414   -116    450    465 202.9 -14.5  34126  289.00 0855.30
2009/04/23 09:58:45.0     -74   -482   -117    488    502 188.8 -13.6  34124  288.96 0855.30
2009/04/23 09:58:45.1      25   -421   -117    422    438 176.5 -15.5  34112  288.75 0855.30
2009/04/23 09:58:45.2     -86   -371   -141    381    406 193.1 -25.5  34116  288.84 0855.30
2009/04/23 09:58:45.3    -174   -473   -160    505    530 200.2 -17.6  34130  289.06 0855.30
2009/04/23 09:58:45.4    -159   -332   -129    369    390 205.6 -24.4  34128  289.04 0855.30
2009/04/23 09:58:45.5    -213   -287    -46    358    361 216.6  -7.5  34136  289.16 0855.30
2009/04/23 09:58:45.6    -197   -333   -162    388    420 210.7 -28.5  34118  288.85 0855.30
2009/04/23 09:58:45.7    -165   -316   -117    357    375 207.7 -23.5  34132  289.10 0855.30
2009/04/23 09:58:45.8    -139   -293   -100    325    340 205.5 -22.2  34126  288.99 0855.30
2009/04/23 09:58:45.9    -136   -378   -123    402    420 199.8 -22.1  34120  288.89 0855.30
2009/04/23 09:58:46.0     -67   -331   -106    338    354 191.6 -22.4  34120  288.89 0855.30
2009/04/23 09:58:46.1     -32   -292   -140    294    325 186.3 -31.7  34116  288.83 0855.30
2009/04/23 09:58:46.2     -50   -464   -111    467    481 186.3 -13.4  34116  288.83 0855.30
2009/04/23 09:58:46.3     -38   -492   -150    494    517 184.5 -17.0  34116  288.81 0855.29
2009/04/23 09:58:46.4    -134   -335    -95    361    374 201.8 -14.8  34116  288.82 0855.29
2009/04/23 09:58:46.5    -101   -290   -111    308    327 199.2 -25.0  34124  288.97 0855.29
2009/04/23 09:58:46.6    -150   -283    -94    321    335 207.9 -16.4  34130  289.06 0855.29
2009/04/23 09:58:46.7      13   -199    -22    200    202 176.2  -6.5  34116  288.82 0855.29
2009/04/23 09:58:46.8     -19   -138    -70    140    156 188.0 -32.9  34122  288.94 0855.29
2009/04/23 09:58:46.9      32   -235    -98    238    257 172.2 -28.0  34124  288.97 0855.29
2009/04/23 09:58:47.0      82   -286    -82    298    309 164.0 -20.0  34120  288.90 0855.29
2009/04/23 09:58:47.1     148   -288   -100    324    339 152.8 -22.3  34120  288.88 0855.29
2009/04/23 09:58:47.2     129   -176   -181    219    284 143.9 -48.2  34122  288.93 0855.29
2009/04/23 09:58:47.3     103   -282   -122    301    324 160.0 -27.8  34118  288.87 0855.29
2009/04/23 09:58:47.4      63   -416    -93    421    432 171.3 -12.5  34116  288.82 0855.29
2009/04/23 09:58:47.5     116   -300    -80    322    332 158.7 -14.1  34118  288.86 0855.29
2009/04/23 09:58:47.6      41   -350   -100    353    366 173.2 -20.4  34116  288.84 0855.29
2009/04/23 09:58:47.7       1   -333   -106    334    351 179.8 -17.7  34104  288.64 0855.29
2009/04/23 09:58:47.8     193   -315     -7    370    371 148.5  -1.1  34108  288.69 0855.29
2009/04/23 09:58:47.9     149   -212   -150    260    300 144.8 -37.1  34110  288.71 0855.29
2009/04/23 09:58:48.0     144   -295   -207    329    388 153.9 -39.9  34106  288.67 0855.29
2009/04/23 09:58:48.1      84   -295   -110    307    326 164.0 -24.8  34112  288.76 0855.29
2009/04/23 09:58:48.2      60   -182   -119    192    225 161.5 -39.6  34112  288.77 0855.29
2009/04/23 09:58:48.3     108   -316   -183    335    381 161.1 -35.7  34116  288.84 0855.29
2009/04/23 09:58:48.4      -4   -286   -138    287    318 181.0 -32.1  34120  288.88 0855.29
2009/04/23 09:58:48.5    -125   -133   -174    183    252 223.2 -53.1  34114  288.80 0855.29
2009/04/23 09:58:48.6    -235   -123   -196    266    330 242.2 -44.4  34130  289.07 0855.29
2009/04/23 09:58:48.7    -175   -175   -115    248    273 225.0 -31.0  34124  288.95 0855.29
2009/04/23 09:58:48.8     157   -373   -119    405    423 157.2 -16.4  34118  288.87 0855.29
2009/04/23 09:58:48.9     170   -391   -147    427    451 156.5 -24.3  34116  288.83 0855.29
2009/04/23 09:58:49.0      17   -245   -168    246    297 176.0 -42.0  34120  288.90 0855.29
2009/04/23 09:58:49.1    -208   -190   -197    282    343 227.6 -42.9  34132  289.09 0855.29
2009/04/23 09:58:49.2    -110   -200   -183    229    293 208.7 -47.2  34130  289.05 0855.29
2009/04/23 09:58:49.3     -17   -397   -159    398    428 182.5 -27.4  34118  288.87 0855.29
2009/04/23 09:58:49.4    -115   -245   -140    271    305 205.2 -33.7  34114  288.78 0855.29
2009/04/23 09:58:49.5    -241   -186    -80    305    316 232.3 -14.8  34128  289.02 0855.29
2009/04/23 09:58:49.6    -206    -87    -62    224    232 246.9 -20.0  34126  288.99 0855.29
2009/04/23 09:58:49.7    -159   -226   -116    277    300 215.2 -28.5  34124  288.97 0855.29
2009/04/23 09:58:49.8    -166   -199    -90    260    275 219.9 -24.4  34130  289.05 0855.29
2009/04/23 09:58:49.9    -215   -261    -95    339    352 219.5 -20.3  34126  288.99 0855.29
2009/04/23 09:58:50.0    -223   -221     30    315    317 225.3   5.5  34128  289.02 0855.29
2009/04/23 09:58:50.1    -285   -157   -140    326    354 241.1 -29.3  34126  288.98 0855.29
2009/04/23 09:58:50.2    -127   -115   -135    172    218 227.8 -46.4  34124  288.97 0855.29
2009/04/23 09:58:50.3      13   -186      8    187    188 175.8   2.5  34124  288.97 0855.28
2009/04/23 09:58:50.4     114   -179     -8    213    214 147.4  -2.3  34122  288.94 0855.28
2009/04/23 09:58:50.5      58   -117     19    131    133 153.7   8.5  34124  288.97 0855.28
2009/04/23 09:58:50.6     165   -119    132    204    242 126.0  35.7  34134  289.14 0855.28
2009/04/23 09:58:50.7      44   -236    -62    241    249 169.4 -14.5  34124  288.97 0855.28
2009/04/23 09:58:50.8      91   -284   -123    299    323 162.2 -28.1  34126  288.98 0855.28
2009/04/23 09:58:50.9      32   -232     56    235    242 172.0  13.5  34114  288.80 0855.28
2009/04/23 09:58:51.0      -4   -233     99    234    254 181.0  24.1  34122  288.92 0855.28
2009/04/23 09:58:51.1     148   -167     81    224    238 138.6  20.7  34120  288.90 0855.28
2009/04/23 09:58:51.2     309   -249     -8    398    399 128.9  -1.3  34114  288.79 0855.28
2009/04/23 09:58:51.3     379   -204      7    431    432 118.4   1.0  34118  288.85 0855.28
2009/04/23 09:58:51.4     324   -101     52    340    345 107.3   8.8  34120  288.89 0855.28
2009/04/23 09:58:51.5     261   -158     74    306    315 121.1  13.7  34120  288.90 0855.28
2009/04/23 09:58:51.6     302   -218    120    373    392 125.9  17.9  34116  288.82 0855.28
2009/04/23 09:58:51.7     318   -129    157    344    378 112.1  26.3  34122  288.93 0855.28
2009/04/23 09:58:51.8     174    -44     86    180    199 104.4  27.3  34116  288.82 0855.28
2009/04/23 09:58:51.9     103    -80     63    131    145 127.8  27.3  34120  288.89 0855.28
2009/04/23 09:58:52.0     182    -72     37    196    200 111.7  10.8  34120  288.89 0855.28
2009/04/23 09:58:52.1     125   -123     35    176    180 134.4  11.4  34118  288.87 0855.28
2009/04/23 09:58:52.2     137   -150      2    204    205 137.7   0.8  34118  288.87 0855.28
2009/04/23 09:58:52.4     277   -227      5    359    360 129.3   0.8  34120  288.89 0855.27
2009/04/23 09:58:52.4     266   -249    112    365    382 133.1  17.1  34118  288.86 0855.27
2009/04/23 09:58:52.5     287   -237    120    373    392 129.5  17.9  34116  288.84 0855.27
2009/04/23 09:58:52.7     297   -195    124    356    378 123.3  19.3  34118  288.86 0855.27
2009/04/23 09:58:52.7     233   -186    206    299    363 128.6  37.9  34122  288.93 0855.27
2009/04/23 09:58:52.8     192   -274    204    335    392 145.0  34.2  34120  288.88 0855.27
2009/04/23 09:58:53.0     111   -233     41    259    263 154.5   9.0  34116  288.83 0855.27
2009/04/23 09:58:53.1      87   -180     69    201    213 154.1  19.2  34118  288.86 0855.27
2009/04/23 09:58:53.2      35    -97    -20    104    106 160.0 -10.9  34124  288.96 0855.27
2009/04/23 09:58:53.3     112   -162   -136    198    240 145.3 -42.2  34120  288.89 0855.27
2009/04/23 09:58:53.4     138   -251    -98    287    303 151.1 -23.3  34118  288.87 0855.27
2009/04/23 09:58:53.5     153   -194   -119    248    275 141.7 -31.7  34126  289.00 0855.27
2009/04/23 09:58:53.6     204   -169   -108    265    286 129.6 -27.8  34118  288.87 0855.27
2009/04/23 09:58:53.7     171   -108   -135    203    243 122.2 -40.9  34122  288.94 0855.27
2009/04/23 09:58:53.8     142   -130    -98    193    216 132.4 -33.5  34122  288.94 0855.27
2009/04/23 09:58:53.9      84    -79    -74    116    137 133.1 -40.0  34126  288.99 0855.27
2009/04/23 09:58:54.0      93   -181    -16    204    205 152.8  -4.6  34122  288.94 0855.27
2009/04/23 09:58:54.1     106   -136     34    173    177 142.2  11.1  34120  288.89 0855.27
2009/04/23 09:58:54.2     146   -219     62    264    272 146.4  13.2  34122  288.92 0855.27
2009/04/23 09:58:54.3     213   -206     55    297    303 134.0  10.6  34124  288.95 0855.27
2009/04/23 09:58:54.4     241   -165     52    293    298 124.4  10.1  34122  288.93 0855.28
2009/04/23 09:58:54.5     213   -115     75    243    255 118.4  17.3  34126  289.00 0855.28
2009/04/23 09:58:54.6     205    -75      3    219    220 110.2   0.8  34122  288.94 0855.28
2009/04/23 09:58:54.7     174    -27     -2    177    178  99.0  -0.7  34122  288.92 0855.28
2009/04/23 09:58:54.8     227    -93      7    246    247 112.4   1.8  34124  288.97 0855.28
2009/04/23 09:58:54.9     252    -63    -18    260    261 104.2  -4.1  34126  289.00 0855.28
2009/04/23 09:58:55.0     101    -64    -20    120    122 122.4  -9.8  34124  288.97 0855.28
2009/04/23 09:58:55.1     122   -108    -16    164    165 131.6  -5.6  34124  288.97 0855.28
2009/04/23 09:58:55.2     188   -155    -88    244    259 129.5 -25.1  34126  288.98 0855.28
2009/04/23 09:58:55.3     224   -111    -89    251    266 116.4 -24.4  34126  289.00 0855.28
2009/04/23 09:58:55.4      31    -42   -139     53    148 143.9 -82.6  34130  289.08 0855.28
2009/04/23 09:58:55.5     -81     59   -181    101    207 306.0 -72.9  34126  289.01 0855.28
2009/04/23 09:58:55.6     -99     36   -151    106    184 290.4 -65.9  34128  289.02 0855.28
2009/04/23 09:58:55.7    -116     23    -91    119    149 281.4 -46.0  34122  288.94 0855.28
2009/04/23 09:58:55.8     -72     29    -78     78    110 292.6 -54.5  34128  289.04 0855.28
2009/04/23 09:58:55.9     -73     14    -83     75    111 281.5 -57.1  34126  288.99 0855.28
2009/04/23 09:58:56.0    -138     -6    -39    139    144 267.4 -20.7  34124  288.97 0855.28
2009/04/23 09:58:56.1    -235    -10    -26    236    238 267.4  -6.5  34126  289.00 0855.28
2009/04/23 09:58:56.2    -252    -30     -5    254    255 263.2  -1.2  34126  288.98 0855.28
2009/04/23 09:58:56.3    -257    -25    -16    259    260 264.3  -3.7  34126  289.00 0855.28
2009/04/23 09:58:56.4    -270    -20    -39    271    274 265.6  -8.2  34126  288.98 0855.28
2009/04/23 09:58:56.5    -241     28      8    243    244 276.8   2.1  34128  289.02 0855.28
2009/04/23 09:58:56.6    -180      8     13    181    182 272.8   4.4  34126  288.99 0855.28
2009/04/23 09:58:56.7    -192     50     48    199    205 284.6  13.7  34126  289.01 0855.28
2009/04/23 09:58:56.8    -172     46     91    179    200 285.1  29.2  34128  289.02 0855.28
2009/04/23 09:58:56.9    -210    -84    130    227    261 248.2  32.4  34140  289.22 0855.28
2009/04/23 09:58:57.0    -241   -140    123    279    304 239.8  25.2  34154  289.46 0855.28
2009/04/23 09:58:57.1    -258    -55     64    264    272 257.8  13.7  34162  289.59 0855.28
2009/04/23 09:58:57.2    -267   -156    108    310    329 239.8  19.3  34154  289.46 0855.28
2009/04/23 09:58:57.3     -52   -140    116    150    189 200.5  42.0  34130  289.06 0855.28
2009/04/23 09:58:57.4     183    -81    247    201    318 114.0  56.8  34132  289.09 0855.27
2009/04/23 09:58:57.5      15    -32    162     36    165 154.6  87.7  34132  289.11 0855.27
2009/04/23 09:58:57.6      43      1    137     44    143  87.4  81.2  34138  289.21 0855.27
2009/04/23 09:58:57.7       4    -57    155     58    165 175.5  79.2  34142  289.28 0855.27
2009/04/23 09:58:57.8     -25    -35    148     44    154 216.1  82.7  34148  289.36 0855.27
2009/04/23 09:58:57.9     -25     11    138     28    140 293.5  89.0  34150  289.41 0855.27
2009/04/23 09:58:58.0     -16     26    143     31    146 327.5  89.0  34150  289.40 0855.27
2009/04/23 09:58:58.1     -24    -98    201    101    224 193.8  71.7  34136  289.18 0855.27
2009/04/23 09:58:58.2     -16   -150    243    151    286 186.3  65.1  34134  289.14 0855.27
2009/04/23 09:58:58.3     -39   -216    267    220    345 190.2  56.4  34128  289.03 0855.27
2009/04/23 09:58:58.4     -32   -197    243    200    314 189.3  56.5  34126  289.00 0855.27
2009/04/23 09:58:58.5     -40   -121    225    128    258 198.3  68.1  34134  289.13 0855.27
2009/04/23 09:58:58.6     -82    -66    173    106    202 231.4  65.7  34154  289.48 0855.27
2009/04/23 09:58:58.7      11    -26    128     29    131 156.4  88.0  34154  289.46 0855.27
2009/04/23 09:58:58.8     -39   -188    215    193    288 191.8  53.5  34128  289.02 0855.27
2009/04/23 09:58:58.9     -73   -143    204    161    259 207.1  57.7  34128  289.04 0855.27
2009/04/23 09:58:59.0     -34   -179    189    183    263 190.7  50.9  34128  289.03 0855.27
2009/04/23 09:58:59.1     -61   -175    199    186    272 199.2  52.1  34134  289.12 0855.27
2009/04/23 09:58:59.2     -25   -163    148    166    222 188.9  46.6  34126  288.99 0855.27
2009/04/23 09:58:59.3     -15   -176    174    177    248 184.9  49.8  34132  289.09 0855.27
2009/04/23 09:58:59.4     -50   -169    115    177    211 196.5  35.7  34132  289.11 0855.27
2009/04/23 09:58:59.5     -69   -224     90    235    251 197.2  22.0  34130  289.05 0855.27
2009/04/23 09:58:59.6    -134   -244     69    279    288 208.9  13.9  34126  289.00 0855.27
2009/04/23 09:58:59.7    -111   -177    152    209    258 212.1  39.7  34128  289.02 0855.27
2009/04/23 09:58:59.8     -87   -116     91    146    172 217.0  35.0  34126  289.01 0855.27
2009/04/23 09:58:59.9     -72   -128    168    148    223 209.4  54.2  34136  289.18 0855.27
2009/04/23 09:59:00.0      14   -219    136    220    258 176.2  34.8  34130  289.07 0855.27
2009/04/23 09:59:00.1     -45   -270    174    274    324 189.6  35.5  34132  289.09 0855.27
2009/04/23 09:59:00.2     -47   -302    151    306    341 188.9  28.2  34130  289.08 0855.27
2009/04/23 09:59:00.3     -88   -333     75    345    354 194.8  12.3  34130  289.08 0855.27
2009/04/23 09:59:00.4     -69   -318    184    326    374 192.4  31.9  34132  289.10 0855.27
2009/04/23 09:59:00.5    -155   -251     92    296    310 211.7  17.3  34130  289.07 0855.27
2009/04/23 09:59:00.6    -153   -241     36    286    289 212.5   7.2  34132  289.10 0855.27
2009/04/23 09:59:00.7    -117   -184     43    219    224 212.6  11.1  34132  289.11 0855.27
2009/04/23 09:59:00.8     -53   -124     88    136    161 203.2  35.7  34134  289.13 0855.27
2009/04/23 09:59:00.9      73    -87    119    114    164 139.9  50.9  34138  289.21 0855.27
2009/04/23 09:59:01.0     123   -102    139    160    211 129.6  45.6  34138  289.19 0855.27
2009/04/23 09:59:01.1      93    -31    110     99    147 108.6  53.3  34134  289.14 0855.27
2009/04/23 09:59:01.2     117    -32    107    122    162 105.5  45.8  34136  289.16 0855.27
2009/04/23 09:59:01.3     143     52     66    153    166  70.0  24.9  34136  289.16 0855.27
2009/04/23 09:59:01.4      96     96     75    136    155  45.0  31.4  34136  289.18 0855.26
2009/04/23 09:59:01.5     112    121    114    165    200  42.8  37.8  34134  289.13 0855.26
2009/04/23 09:59:01.6       0    183     85    184    202   0.0  26.4  34142  289.28 0855.26
2009/04/23 09:59:01.7    -140     92     80    168    186 303.3  27.2  34146  289.33 0855.26
2009/04/23 09:59:01.8    -105    115     60    156    167 317.7  22.0  34142  289.28 0855.26
2009/04/23 09:59:01.9      12    160     48    161    169   4.5  16.6  34126  289.01 0855.26
2009/04/23 09:59:02.0     -24    176     43    178    184 352.0  13.5  34138  289.21 0855.26
2009/04/23 09:59:02.1     -38    198      4    202    203 349.1   1.2  34136  289.16 0855.26
2009/04/23 09:59:02.2      37    170     52    175    183  12.3  16.8  34128  289.02 0855.26
2009/04/23 09:59:02.3      -6    215     70    216    228 358.4  18.1  34134  289.13 0855.26
2009/04/23 09:59:02.4    -136    101     72    170    184 306.6  24.3  34138  289.21 0855.26
2009/04/23 09:59:02.5      22    110     71    113    133  11.5  35.5  34136  289.18 0855.26
2009/04/23 09:59:02.6       9    131     26    132    135   4.0  11.1  34136  289.16 0855.26
2009/04/23 09:59:02.7     -35    113     34    119    124 342.6  16.3  34134  289.14 0855.26
2009/04/23 09:59:02.8      -3    127     47    128    136 358.6  20.9  34140  289.23 0855.26
2009/04/23 09:59:02.9     -58     58     17     83     85 314.9  12.2  34140  289.23 0855.26
2009/04/23 09:59:03.0      -1     33     20     34     39 357.3  33.5  34140  289.24 0855.26
2009/04/23 09:59:03.1      40     49     25     64     68  39.6  21.0  34134  289.13 0855.26
2009/04/23 09:59:03.2      52    112     40    124    131  24.9  17.9  34132  289.11 0855.26
2009/04/23 09:59:03.3      52    111    103    123    160  25.4  44.3  34138  289.21 0855.26
2009/04/23 09:59:03.4       2     95    153     96    180   1.8  64.9  34142  289.28 0855.26
2009/04/23 09:59:03.5      89     51    114    103    153  59.8  52.7  34138  289.21 0855.26
2009/04/23 09:59:03.6     -38     84     18     93     95 335.5  11.0  34136  289.18 0855.26
2009/04/23 09:59:03.7     -69     83    -49    109    119 320.4 -30.1  34132  289.11 0855.26
2009/04/23 09:59:03.8     -83      5    -39     84     92 273.9 -31.0  34136  289.18 0855.26
2009/04/23 09:59:03.9     -35    -22    -33     42     53 237.6 -48.1  34138  289.21 0855.26
2009/04/23 09:59:04.0     -26    -31    -26     41     48 220.5 -39.9  34140  289.23 0855.26
2009/04/23 09:59:04.1     -12     -4     -2     13     14 251.4 -11.3  34140  289.24 0855.26
2009/04/23 09:59:04.2     -54     29     17     62     65 298.9  15.2  34136  289.18 0855.26
2009/04/23 09:59:04.3     -94    120     58    153    163 321.7  21.5  34138  289.19 0855.26
2009/04/23 09:59:04.4    -149     20     14    151    152 277.9   5.4  34136  289.18 0855.26
2009/04/23 09:59:04.5    -127    -77     57    149    159 238.5  21.7  34136  289.18 0855.26
2009/04/23 09:59:04.6    -178   -128     25    220    222 234.3   6.5  34132  289.11 0855.26
2009/04/23 09:59:04.7    -220    -87     -9    237    238 248.3  -2.2  34136  289.17 0855.26
2009/04/23 09:59:04.8    -234    -41    -56    238    245 259.9 -13.4  34136  289.17 0855.26
2009/04/23 09:59:04.9    -187    -26      0    189    190 261.9  -0.3  34140  289.23 0855.26
2009/04/23 09:59:05.0    -174   -143    -13    226    227 230.7  -3.3  34128  289.02 0855.26
2009/04/23 09:59:05.1    -128    -24    -41    131    137 259.4 -22.3  34124  288.97 0855.26
2009/04/23 09:59:05.2    -256     19    102    257    276 274.4  23.0  34132  289.10 0855.26
2009/04/23 09:59:05.3    -388     36    -21    390    391 275.4  -3.1  34140  289.23 0855.26
2009/04/23 09:59:05.4    -391     63    -35    397    399 279.2  -5.1  34128  289.04 0855.28
2009/04/23 09:59:05.5    -273     46    -75    277    288 279.6 -15.2  34126  289.00 0855.28
2009/04/23 09:59:05.6    -327    -14    -42    328    331 267.5  -7.4  34122  288.94 0855.28
2009/04/23 09:59:05.7    -302    -76    -16    312    313 255.8  -3.0  34130  289.07 0855.28
2009/04/23 09:59:05.8    -374     44     11    377    378 276.8   1.8  34132  289.11 0855.28
2009/04/23 09:59:05.9    -376    112     21    393    394 286.7   3.1  34136  289.15 0855.28
2009/04/23 09:59:06.0    -293   -159     57    334    339 241.4   9.7  34136  289.15 0855.28
2009/04/23 09:59:06.1    -185   -245    156    308    345 217.0  28.9  34128  289.03 0855.28
2009/04/23 09:59:06.2    -228   -213    126    313    337 226.9  23.0  34128  289.04 0855.28
2009/04/23 09:59:06.3    -303   -295    148    424    449 225.8  20.0  34156  289.49 0855.28
2009/04/23 09:59:06.4    -373   -134     -6    397    398 250.2  -0.9  34132  289.11 0855.28
2009/04/23 09:59:06.5    -368   -254   -100    448    460 235.4 -12.6  34124  288.97 0855.28
2009/04/23 09:59:06.6    -246   -128     54    278    284 242.5  11.1  34120  288.88 0855.28
2009/04/23 09:59:06.7    -245    -60    105    253    273 256.1  23.8  34136  289.15 0855.28
2009/04/23 09:59:06.8    -230   -190     92    299    313 230.4  17.2  34146  289.34 0855.28
2009/04/23 09:59:06.9    -268   -159     13    312    313 239.3   2.5  34138  289.20 0855.28
2009/04/23 09:59:07.0    -446   -243    -97    508    518 241.4 -10.9  34120  288.90 0855.28
2009/04/23 09:59:07.1    -396   -271    -97    480    490 235.6 -11.5  34130  289.08 0855.28
2009/04/23 09:59:07.2    -471   -221    -81    521    528 244.9  -8.9  34126  289.01 0855.28
2009/04/23 09:59:07.3    -397   -115    -98    414    426 253.9 -13.4  34132  289.09 0855.28
2009/04/23 09:59:07.5    -370   -183   -123    413    432 243.6 -16.6  34130  289.05 0855.27
2009/04/23 09:59:07.5    -395   -221   -138    453    474 240.7 -17.0  34136  289.17 0855.27
2009/04/23 09:59:07.6    -364   -138   -210    390    442 249.2 -35.1  34124  288.97 0855.27
2009/04/23 09:59:07.7    -278    -47    -95    283    299 260.3 -18.6  34134  289.14 0855.27
2009/04/23 09:59:07.8    -332    -99     68    347    354 253.3  11.1  34138  289.20 0855.27
2009/04/23 09:59:07.9    -292    -93      2    307    308 252.3   0.5  34154  289.47 0855.27
2009/04/23 09:59:08.0    -312   -120     65    335    342 248.9  11.1  34156  289.52 0855.27
2009/04/23 09:59:08.1    -201   -176     88    268    283 228.7  18.1  34140  289.24 0855.27
2009/04/23 09:59:08.2    -185   -285     95    340    354 213.0  15.6  34130  289.06 0855.27
2009/04/23 09:59:08.3    -109   -197     82    226    240 208.9  20.7  34132  289.09 0855.27
2009/04/23 09:59:08.4     -44   -131     22    139    141 198.7   9.0  34132  289.09 0855.27
2009/04/23 09:59:08.5       0    -87     14     88     90 180.5   9.0  34134  289.13 0855.27
2009/04/23 09:59:08.7       9    -67     85     68    108 171.9  56.4  34140  289.24 0855.27
2009/04/23 09:59:08.7     -42    -55     43     70     82 217.0  34.4  34136  289.16 0855.27
2009/04/23 09:59:08.8       0     48     61     49     78 359.1  56.4  34152  289.43 0855.27
2009/04/23 09:59:08.9     -13     24     78     28     82 331.0  79.7  34150  289.40 0855.27
2009/04/23 09:59:09.0     -81   -151    160    172    234 208.3  47.9  34132  289.11 0855.27
2009/04/23 09:59:09.1     -55   -171    111    180    211 197.8  35.0  34132  289.09 0855.27
2009/04/23 09:59:09.2     -82    -99     15    129    130 219.6   6.9  34128  289.02 0855.27
2009/04/23 09:59:09.3     -87    -66     54    110    122 232.7  27.8  34132  289.11 0855.27
2009/04/23 09:59:09.4     -18     -9      7     21     23 242.9  18.9  34130  289.06 0855.26
2009/04/23 09:59:09.5      48    115     38    125    131  22.7  17.3  34132  289.11 0855.26
2009/04/23 09:59:09.6      66    159     98    173    198  22.7  31.9  34134  289.14 0855.26
2009/04/23 09:59:09.7       1     83    118     84    144   1.0  60.6  34144  289.30 0855.26
2009/04/23 09:59:09.9     -18     11    127     22    128 302.4  90.0  34148  289.36 0855.26
2009/04/23 09:59:09.9     -68     68    126     97    159 315.0  58.7  34138  289.19 0855.26
2009/04/23 09:59:10.0    -101     58     73    117    137 299.8  35.5  34134  289.14 0855.26
2009/04/23 09:59:10.1    -129    111     46    171    178 310.9  15.3  34134  289.14 0855.26
2009/04/23 09:59:10.2    -128    163     56    208    216 321.9  15.2  34132  289.11 0855.26
2009/04/23 09:59:10.3    -198    207     83    287    299 316.3  16.3  34138  289.19 0855.26
2009/04/23 09:59:10.4    -227     54    129    234    267 283.5  31.4  34134  289.14 0855.26
2009/04/23 09:59:10.5    -429   -227     94    486    496 242.1  11.0  34130  289.08 0855.26
2009/04/23 09:59:10.6    -455    -63    -41    460    462 262.1  -5.2  34122  288.94 0855.26
2009/04/23 09:59:10.7    -496      0   -111    497    510 270.0 -12.6  34114  288.79 0855.26
2009/04/23 09:59:10.8    -555     79   -154    561    582 278.1 -15.4  34118  288.86 0855.26
2009/04/23 09:59:10.9    -521     20    -90    522    530 272.2  -9.8  34124  288.97 0855.26
2009/04/23 09:59:11.0    -343   -321    -55    471    475 226.9  -6.7  34130  289.06 0855.26
2009/04/23 09:59:11.2    -198   -210     94    289    304 223.3  18.0  34128  289.03 0855.26
2009/04/23 09:59:11.2    -253   -149     57    294    300 239.4  11.1  34140  289.22 0855.26
2009/04/23 09:59:11.3    -176   -153    -37    234    237 229.1  -9.0  34136  289.15 0855.26
2009/04/23 09:59:11.4     -75   -237     80    249    262 197.6  17.9  34134  289.12 0855.25
2009/04/23 09:59:11.5    -307   -154    120    344    365 243.4  19.3  34134  289.13 0855.25
2009/04/23 09:59:11.6    -215   -251    -54    331    336 220.6  -9.3  34142  289.26 0855.25
2009/04/23 09:59:11.7     -10   -359    -24    360    361 181.6  -3.9  34132  289.11 0855.25
2009/04/23 09:59:11.8    -104   -410    -23    424    425 194.3  -3.2  34128  289.02 0855.25
2009/04/23 09:59:11.9    -190   -363      0    410    411 207.7   0.0  34128  289.04 0855.25
2009/04/23 09:59:12.0    -130   -375   -106    398    412 199.2 -15.0  34128  289.02 0855.25
2009/04/23 09:59:12.1     -87   -287    -60    301    307 196.9 -11.3  34126  288.98 0855.25
2009/04/23 09:59:12.2     -59   -381    -81    386    395 188.8 -11.9  34130  289.06 0855.25
2009/04/23 09:59:12.3    -181   -292   -177    344    386 211.9 -33.7  34120  288.91 0855.25
2009/04/23 09:59:12.4    -286   -204   -189    352    399 234.4 -35.0  34126  288.99 0855.25
2009/04/23 09:59:12.5    -140   -119   -222    184    288 229.6 -60.7  34126  288.98 0855.25
2009/04/23 09:59:12.6    -204   -327   -204    386    436 212.0 -34.6  34126  288.99 0855.25
2009/04/23 09:59:12.7    -351   -140   -208    379    432 248.2 -35.7  34124  288.95 0855.25
2009/04/23 09:59:12.8    -363    -45   -385    366    531 262.9 -56.3  34132  289.10 0855.25
2009/04/23 09:59:12.9    -127    -92   -271    157    313 234.1 -71.9  34120  288.90 0855.25
2009/04/23 09:59:13.0    -277   -194   -184    339    385 235.0 -35.3  34116  288.84 0855.25
2009/04/23 09:59:13.1    -192   -110   -190    222    292 240.2 -49.3  34128  289.02 0855.25
2009/04/23 09:59:13.2    -260      0   -249    261    360 270.0 -53.0  34124  288.96 0855.25
2009/04/23 09:59:13.3    -336     22   -299    337    450 273.9 -50.6  34122  288.92 0855.25
2009/04/23 09:59:13.4    -242    -77   -173    254    307 252.3 -42.0  34128  289.02 0855.25
2009/04/23 09:59:13.5    -136     -3   -119    137    181 268.7 -50.0  34124  288.96 0855.25
2009/04/23 09:59:13.6    -115    -13   -121    116    167 263.4 -55.6  34126  289.01 0855.25
2009/04/23 09:59:13.7    -138    -11   -118    139    182 265.2 -49.2  34128  289.02 0855.25
2009/04/23 09:59:13.8    -205     55   -205    213    295 285.0 -53.4  34124  288.95 0855.25
2009/04/23 09:59:13.9    -114     84   -234    142    273 306.4 -70.4  34122  288.93 0855.25
2009/04/23 09:59:14.0     -99     21   -246    102    266 281.9 -80.7  34134  289.14 0855.25
2009/04/23 09:59:14.1      33   -206   -124    209    243 170.7 -37.9  34134  289.14 0855.25
2009/04/23 09:59:14.2    -122   -133    -16    181    182 222.5  -5.4  34128  289.04 0855.25
2009/04/23 09:59:14.3    -156    -18   -191    158    247 263.4 -60.8  34128  289.04 0855.25
2009/04/23 09:59:14.4    -152    -11   -214    153    263 265.6 -65.5  34132  289.09 0855.25
2009/04/23 09:59:14.5    -214    -36   -222    218    311 260.4 -54.6  34130  289.05 0855.25
2009/04/23 09:59:14.6    -135     54   -203    146    250 291.8 -65.2  34130  289.06 0855.25
2009/04/23 09:59:14.7    -116     50   -168    127    210 293.5 -63.4  34128  289.02 0855.25
2009/04/23 09:59:14.8    -112     23   -193    115    224 281.9 -70.8  34132  289.09 0855.25
2009/04/23 09:59:14.9     -90     30   -185     95    207 288.6 -75.2  34130  289.08 0855.25
2009/04/23 09:59:15.0     -60     60   -147     85    169 314.9 -71.6  34142  289.26 0855.25
2009/04/23 09:59:15.1     -24     29   -157     38    161 320.3 -90.0  34140  289.24 0855.25
2009/04/23 09:59:15.2     -77     10   -170     78    187 278.0 -77.9  34136  289.18 0855.25
2009/04/23 09:59:15.3    -123     17   -159    125    202 277.9 -62.6  34130  289.06 0855.25
2009/04/23 09:59:15.4    -106      1   -146    107    181 270.9 -64.9  34130  289.08 0855.26
2009/04/23 09:59:15.5     -19     12    -95     23     97 302.4 -90.0  34138  289.19 0855.26
2009/04/23 09:59:15.6    -115     75   -218    138    258 303.3 -69.1  34136  289.18 0855.26
2009/04/23 09:59:15.7    -108     92   -149    142    205 310.4 -56.0  34138  289.19 0855.26
2009/04/23 09:59:15.8     -90    133   -167    161    231 325.8 -55.3  34138  289.19 0855.26
2009/04/23 09:59:15.9    -140     48   -159    149    217 289.1 -56.5  34140  289.23 0855.26
2009/04/23 09:59:16.0    -125     17   -142    127    190 277.9 -58.1  34142  289.26 0855.26
2009/04/23 09:59:16.1    -128     39   -152    134    202 286.9 -58.4  34138  289.21 0855.26
2009/04/23 09:59:16.2      -7     95   -115     96    149 355.5 -60.7  34140  289.23 0855.26
2009/04/23 09:59:16.3     -22    108   -133    111    173 348.5 -60.5  34138  289.19 0855.26
2009/04/23 09:59:16.4      -6     97   -128     98    161 356.4 -63.1  34138  289.19 0855.23
2009/04/23 09:59:16.5      15     73   -148     75    165  11.6 -75.5  34140  289.23 0855.23
2009/04/23 09:59:16.6      69    129   -163    147    219  28.1 -57.7  34134  289.14 0855.23
2009/04/23 09:59:16.7      16    161   -216    162    270   5.8 -63.8  34144  289.31 0855.23
2009/04/23 09:59:16.8      58    102   -139    118    182  29.9 -59.8  34144  289.30 0855.23
2009/04/23 09:59:16.9      54    125   -116    137    179  23.6 -48.9  34136  289.18 0855.23
2009/04/23 09:59:17.0       7     56   -111     57    124   8.0 -75.2  34144  289.30 0855.23
2009/04/23 09:59:17.1     -26     42   -110     50    120 328.4 -78.4  34142  289.28 0855.23
2009/04/23 09:59:17.2     -79     60   -153    100    182 307.3 -68.5  34142  289.28 0855.23
2009/04/23 09:59:17.3     -37     50    -60     63     87 323.0 -53.4  34132  289.11 0855.23
2009/04/23 09:59:17.4      41    137     49    144    153  16.9  18.9  34132  289.11 0855.23
2009/04/23 09:59:17.5     143    -89   -188    169    252 122.0 -57.7  34138  289.19 0855.23
2009/04/23 09:59:17.6      -6     78   -152     79    171 355.6 -75.0  34138  289.19 0855.23
2009/04/23 09:59:17.7       3    206   -149    207    255   0.9 -43.9  34132  289.09 0855.23
2009/04/23 09:59:17.8     130    138   -140    190    236  43.2 -44.8  34136  289.16 0855.23
2009/04/23 09:59:17.9      17     64   -142     67    157  15.1 -77.6  34128  289.04 0855.23
2009/04/23 09:59:18.0     -15    208    -76    209    222 355.8 -25.3  34122  288.94 0855.23
2009/04/23 09:59:18.1      19    137   -157    139    209   8.0 -58.6  34132  289.09 0855.23
2009/04/23 09:59:18.2     -38    205   -104    209    233 349.5 -32.6  34130  289.06 0855.23
2009/04/23 09:59:18.3     -66    140   -105    156    188 334.6 -41.4  34130  289.06 0855.23
2009/04/23 09:59:18.4     -89     60    -13    108    109 304.2  -7.2  34134  289.14 0855.23
2009/04/23 09:59:18.5     -54      0    100     55    114 270.0  68.8  34148  289.36 0855.23
2009/04/23 09:59:18.6     -35      0    104     36    110 270.0  81.2  34156  289.52 0855.23
2009/04/23 09:59:18.7     -69    -38     94     79    122 241.1  55.8  34150  289.40 0855.23
2009/04/23 09:59:18.8     -81     26     77     86    115 288.2  46.9  34154  289.48 0855.23
2009/04/23 09:59:18.9     -15      4     58     16     60 285.1  84.9  34160  289.57 0855.23
2009/04/23 09:59:19.0      70    -68     62     98    115 134.0  35.5  34156  289.50 0855.23
2009/04/23 09:59:19.1      26   -111     47    115    124 166.6  23.0  34154  289.46 0855.23
2009/04/23 09:59:19.2      90   -142     -4    169    170 147.5  -1.6  34154  289.48 0855.23
2009/04/23 09:59:19.4     107    -38    103    114    153 109.5  47.5  34182  289.94 0855.23
2009/04/23 09:59:19.4     122    -55     99    134    166 114.4  40.4  34168  289.70 0855.23
2009/04/23 09:59:19.5      38    -42    107     57    121 137.7  69.8  34176  289.84 0855.23
2009/04/23 09:59:19.6      60    -34     85     70    110 119.8  56.4  34180  289.92 0855.23
2009/04/23 09:59:19.7      75   -127    120    148    190 149.3  43.7  34156  289.52 0855.23
2009/04/23 09:59:19.8      82   -127    129    152    199 147.0  44.5  34164  289.65 0855.23
2009/04/23 09:59:20.0      38    -48     85     62    105 141.3  60.5  34170  289.75 0855.23
2009/04/23 09:59:20.1      23    -18     67     30     73 127.8  74.0  34170  289.75 0855.23
2009/04/23 09:59:20.2      37    -14     49     40     63 111.7  56.4  34176  289.84 0855.23
2009/04/23 09:59:20.2      68    -31     50     75     90 114.4  36.5  34166  289.69 0855.23
2009/04/23 09:59:20.4      67    -55     22     87     90 129.5  14.7  34160  289.58 0855.23
2009/04/23 09:59:20.5      55    -90     20    106    108 148.4  11.0  34156  289.50 0855.23
2009/04/23 09:59:20.6      73    -99     25    124    127 143.5  11.6  34140  289.23 0855.23
2009/04/23 09:59:20.7      64   -101     11    120    121 147.4   5.4  34138  289.19 0855.23
2009/04/23 09:59:20.8      42    -91      5    101    102 155.1   2.9  34136  289.16 0855.23
2009/04/23 09:59:20.9      39    -99    -13    107    108 158.2  -7.2  34138  289.19 0855.23
2009/04/23 09:59:21.0      35    -74     21     83     86 154.6  14.7  34136  289.18 0855.23
2009/04/23 09:59:21.1      32    -63     32     71     77 152.8  26.2  34136  289.16 0855.23
2009/04/23 09:59:21.2      18    -85     17     87     89 168.0  11.1  34142  289.28 0855.23
2009/04/23 09:59:21.3      15    -80     28     82     87 169.3  19.4  34142  289.28 0855.23
2009/04/23 09:59:21.4      66    -91      5    113    114 143.9   2.9  34142  289.26 0855.23
2009/04/23 09:59:21.5      62    -75      2     98     99 140.3   1.2  34140  289.23 0855.23
2009/04/23 09:59:21.6      55    -73     28     92     97 142.6  16.8  34140  289.23 0855.23
2009/04/23 09:59:21.7      33    -92     39     99    106 160.0  22.5  34146  289.33 0855.23
2009/04/23 09:59:21.8       6   -104     74    105    128 176.4  38.6  34150  289.40 0855.23
2009/04/23 09:59:21.9       4    -87     79     88    118 177.3  46.9  34150  289.41 0855.23
2009/04/23 09:59:22.0     -10   -113     83    114    141 185.3  39.7  34142  289.26 0855.23
2009/04/23 09:59:22.1     -49   -121     71    131    149 202.3  31.3  34140  289.23 0855.23
2009/04/23 09:59:22.2     -71   -179    127    193    231 201.9  36.0  34136  289.18 0855.23
2009/04/23 09:59:22.3     -70   -178    107    192    219 201.6  31.4  34140  289.24 0855.23
2009/04/23 09:59:22.4     -54   -191     81    199    214 195.8  23.1  34140  289.23 0855.23
2009/04/23 09:59:22.5     -10   -108     97    109    145 185.3  46.4  34144  289.31 0855.20
2009/04/23 09:59:22.6     -88   -119     52    149    159 216.5  19.4  34146  289.33 0855.20
2009/04/23 09:59:22.7     -68    -85     44    110    118 218.7  23.0  34140  289.24 0855.20
2009/04/23 09:59:22.8     -62    -62     73     89    115 225.0  43.7  34146  289.35 0855.20
2009/04/23 09:59:22.9     -48    -75     93     90    129 212.5  50.7  34144  289.31 0855.20
2009/04/23 09:59:23.0     -87    -66     41    110    117 232.7  21.0  34146  289.33 0855.20
2009/04/23 09:59:23.1    -105   -106     54    150    159 224.5  20.4  34144  289.30 0855.20
2009/04/23 09:59:23.2    -123    -44     49    131    139 250.0  21.0  34150  289.41 0855.20
2009/04/23 09:59:23.3    -137    -56     46    149    157 247.8  17.3  34152  289.43 0855.20
2009/04/23 09:59:23.4    -171    -56     42    181    186 251.8  13.2  34156  289.50 0855.20
2009/04/23 09:59:23.5    -201      3     86    202    219 270.9  24.6  34160  289.57 0855.20
2009/04/23 09:59:23.6    -172     76    148    189    240 294.0  42.0  34164  289.63 0855.20
2009/04/23 09:59:23.7    -210     42    105    215    239 281.5  28.2  34160  289.57 0855.20
2009/04/23 09:59:23.8    -264      7     84    265    279 271.7  17.7  34164  289.63 0855.20
2009/04/23 09:59:23.9    -187    112     64    219    229 300.9  16.3  34174  289.82 0855.20
2009/04/23 09:59:24.0    -178     94     39    202    206 298.0  11.0  34184  289.99 0855.20
2009/04/23 09:59:24.1     -84    148     60    171    182 330.4  19.4  34166  289.67 0855.20
2009/04/23 09:59:24.2     -42    144     61    151    162 343.5  23.0  34164  289.63 0855.20
2009/04/23 09:59:24.3     -15    113     72    114    134 352.4  35.5  34150  289.41 0855.20
2009/04/23 09:59:24.4       0    107     76    108    132   0.5  38.6  34166  289.67 0855.20
2009/04/23 09:59:24.5     -38     83     64     92    112 335.5  38.6  34184  289.99 0855.23
2009/04/23 09:59:24.6     -12     -3     81     13     82 254.9  90.0  34188  290.06 0855.23
2009/04/23 09:59:24.7      50     41     98     66    118  50.5  62.7  34172  289.79 0855.23
2009/04/23 09:59:24.8     -27      2     95     28     99 276.1  83.3  34180  289.92 0855.23
2009/04/23 09:59:24.9     -44     -3     72     45     84 265.6  64.7  34182  289.94 0855.23
2009/04/23 09:59:25.0     -62   -121    104    137    172 207.1  41.2  34194  290.16 0855.23
2009/04/23 09:59:25.1     -23   -153    110    155    190 188.9  39.1  34186  290.02 0855.23
2009/04/23 09:59:25.2     -46   -106    138    116    180 203.6  55.8  34168  289.70 0855.23
2009/04/23 09:59:25.3      13    -79    119     81    143 170.2  62.6  34164  289.63 0855.23
2009/04/23 09:59:25.4      29    -52     98     60    114 150.1  64.7  34152  289.45 0855.23
2009/04/23 09:59:25.5      40   -120    107    127    166 161.3  44.3  34142  289.26 0855.23
2009/04/23 09:59:25.6      27    -87    107     92    141 162.6  54.8  34142  289.28 0855.23
2009/04/23 09:59:25.7      47   -186    139    192    237 165.7  39.5  34134  289.13 0855.23
2009/04/23 09:59:25.8       0    -88    163     89    185 180.4  69.1  34150  289.41 0855.23
2009/04/23 09:59:25.9      -9    -38    106     40    113 193.4  78.6  34156  289.50 0855.23
2009/04/23 09:59:26.0       0   -102    115    103    154 180.4  53.7  34146  289.35 0855.23
2009/04/23 09:59:26.1       0   -126    129    127    181 180.0  50.4  34142  289.26 0855.23
2009/04/23 09:59:26.2       2   -134    173    135    219 179.1  58.2  34138  289.21 0855.23
2009/04/23 09:59:26.3      37     17    129     42    135  64.7  80.7  34150  289.41 0855.23
2009/04/23 09:59:26.4     169    -54    115    178    211 107.9  35.6  34142  289.28 0855.23
2009/04/23 09:59:26.5     193    -91    140    214    255 115.3  36.5  34142  289.25 0855.24
2009/04/23 09:59:26.6      69   -110    140    130    191 147.9  52.2  34148  289.38 0855.24
2009/04/23 09:59:26.7      17   -127    122    129    177 172.0  48.2  34140  289.23 0855.24
2009/04/23 09:59:26.8      30   -161    139    164    214 169.1  44.5  34134  289.14 0855.24
2009/04/23 09:59:26.9      40   -191    183    196    268 168.0  47.9  34134  289.12 0855.24
2009/04/23 09:59:27.0       3   -212    174    213    275 179.1  43.7  34128  289.03 0855.24
2009/04/23 09:59:27.1      41   -193    180    198    267 168.0  47.1  34134  289.12 0855.24
2009/04/23 09:59:27.2     -21   -188    182    190    263 186.5  49.0  34126  288.98 0855.24
2009/04/23 09:59:27.3       0   -197    194    198    277 180.0  49.8  34130  289.05 0855.24
2009/04/23 09:59:27.4     -30   -288    154    290    328 186.0  30.2  34130  289.05 0855.24
2009/04/23 09:59:27.5    -112   -298     86    319    331 200.7  15.2  34168  289.71 0855.24
2009/04/23 09:59:27.6     -94   -271    103    287    304 199.2  20.7  34148  289.36 0855.24
2009/04/23 09:59:27.7     -62   -239    110    248    271 194.7  25.7  34130  289.05 0855.24
2009/04/23 09:59:27.8     -38   -245     90    249    264 188.9  20.4  34126  288.98 0855.24
2009/04/23 09:59:27.9     -14   -217     88    218    235 183.8  23.4  34124  288.96 0855.24
2009/04/23 09:59:28.0       0   -229    184    230    294 179.8  42.8  34128  289.03 0855.24
2009/04/23 09:59:28.1      21   -170    156    172    232 172.9  47.1  34130  289.06 0855.24
2009/04/23 09:59:28.2     -47   -197    185    203    274 193.6  47.0  34148  289.37 0855.24
2009/04/23 09:59:28.3      -2   -134    170    135    217 180.9  57.5  34132  289.09 0855.24
2009/04/23 09:59:28.4      25   -182    140    184    231 172.0  41.4  34128  289.04 0855.24
2009/04/23 09:59:28.5       3   -123    154    124    197 178.6  57.1  34136  289.16 0855.23
2009/04/23 09:59:28.6       7    -91    154     92    179 175.5  66.4  34136  289.16 0855.23
2009/04/23 09:59:28.7       1    -44    111     45    119 178.2  77.0  34138  289.21 0855.23
2009/04/23 09:59:28.8       1   -101     78    102    128 179.0  41.6  34136  289.16 0855.23
2009/04/23 09:59:28.9      14   -155     56    156    165 174.7  20.2  34130  289.08 0855.23
2009/04/23 09:59:29.0      30   -149     55    153    162 168.5  20.4  34132  289.09 0855.23
2009/04/23 09:59:29.1       0    -63    127     64    142 180.9  71.4  34140  289.23 0855.23
2009/04/23 09:59:29.2      11      0     80     12     80  90.0  90.0  34156  289.50 0855.23
2009/04/23 09:59:29.3      -7    -36     74     37     82 191.5  71.9  34152  289.45 0855.23
2009/04/23 09:59:29.4      -5     17     82     18     83 341.5  87.5  34156  289.52 0855.23
2009/04/23 09:59:29.5       0    -21     76     22     79 179.1  83.3  34154  289.46 0855.23
2009/04/23 09:59:29.6     -26    -16     98     31    102 237.6  81.8  34162  289.60 0855.23
2009/04/23 09:59:29.7     -14     43     70     46     83 341.5  64.1  34154  289.48 0855.23
2009/04/23 09:59:29.8       4    -14     87     15     88 161.5  90.0  34154  289.48 0855.23
2009/04/23 09:59:29.9     -53    -97    124    111    166 208.9  53.7  34146  289.33 0855.23
2009/04/23 09:59:30.0     -72   -125    141    145    202 209.9  49.4  34140  289.23 0855.23
2009/04/23 09:59:30.1     -63   -136    171    151    228 204.9  54.2  34136  289.16 0855.23
2009/04/23 09:59:30.2    -100   -113    134    152    202 221.5  46.2  34158  289.53 0855.23
2009/04/23 09:59:30.3     -71    -75    180    104    207 223.2  67.2  34142  289.26 0855.23
2009/04/23 09:59:30.4     -78    -94    123    123    173 219.6  50.1  34142  289.26 0855.23
2009/04/23 09:59:30.5      12    -82    126     84    151 171.1  63.2  34142  289.28 0855.24
2009/04/23 09:59:30.6      -2   -178    123    179    217 180.7  37.8  34138  289.19 0855.24
2009/04/23 09:59:30.7       7   -104    159    105    190 176.0  63.6  34144  289.31 0855.24
2009/04/23 09:59:30.8      -1   -133    128    134    185 180.5  48.7  34138  289.19 0855.24
2009/04/23 09:59:30.9       0   -114    140    115    181 180.5  56.4  34134  289.13 0855.24
2009/04/23 09:59:31.0     -11   -148    165    149    222 184.4  53.0  34130  289.08 0855.24
2009/04/23 09:59:31.1    -131   -257    118    289    312 207.1  23.4  34146  289.32 0855.24
2009/04/23 09:59:31.2    -103   -283    165    302    344 200.1  31.0  34134  289.13 0855.24
2009/04/23 09:59:31.3     -33   -265     98    268    285 187.1  21.0  34128  289.03 0855.24
2009/04/23 09:59:31.4     -35   -224    111    227    252 189.1  28.0  34130  289.07 0855.24
2009/04/23 09:59:31.5     -15   -171    106    172    202 185.1  35.0  34132  289.09 0855.24
2009/04/23 09:59:31.6      -3   -204    130    205    242 181.1  35.5  34132  289.11 0855.24
2009/04/23 09:59:31.7      39   -252     79    256    269 171.1  17.3  34130  289.07 0855.24
2009/04/23 09:59:31.8      40   -237     70    241    252 170.3  16.3  34130  289.07 0855.24
2009/04/23 09:59:31.9      82   -136     65    159    171 148.8  23.6  34128  289.02 0855.24
2009/04/23 09:59:32.0      52   -196     25    203    205 165.1   7.1  34126  289.01 0855.24
2009/04/23 09:59:32.1     125   -249     14    279    280 153.3   2.9  34130  289.05 0855.24
2009/04/23 09:59:32.2     187   -273     16    332    333 145.6   2.9  34132  289.11 0855.24
2009/04/23 09:59:32.3     161   -373     16    407    408 156.7   2.3  34130  289.07 0855.24
2009/04/23 09:59:32.4     223   -309     40    382    385 144.2   6.0  34134  289.13 0855.24
2009/04/23 09:59:32.5     176   -272     86    325    337 147.0  14.9  34132  289.10 0855.20
2009/04/23 09:59:32.6      61   -277    118    284    307 167.5  23.8  34132  289.09 0855.20
2009/04/23 09:59:32.7     -56   -270    106    276    295 191.8  22.3  34140  289.22 0855.20
2009/04/23 09:59:32.8     -75   -227     67    240    250 198.3  15.6  34140  289.24 0855.20
2009/04/23 09:59:32.9     -20   -235     87    236    251 184.9  21.0  34142  289.25 0855.20
2009/04/23 09:59:33.0       8   -267    107    268    288 178.2  23.0  34144  289.31 0855.20
2009/04/23 09:59:33.1      93   -264     54    280    286 160.6  11.0  34136  289.17 0855.20
2009/04/23 09:59:33.2     124   -276    193    303    359 155.7  35.6  34144  289.30 0855.20
2009/04/23 09:59:33.3     171   -286     87    334    346 149.2  14.6  34142  289.25 0855.20
2009/04/23 09:59:33.4     271   -398     56    482    486 145.7   6.7  34124  288.96 0855.20
2009/04/23 09:59:33.5     163   -454     95    483    493 160.2  11.1  34126  289.01 0855.20
2009/04/23 09:59:33.6     107   -424     22    438    439 165.8   2.9  34132  289.11 0855.20
2009/04/23 09:59:33.7      63   -422     38    427    429 171.5   5.2  34130  289.05 0855.20
2009/04/23 09:59:33.8       9   -402     48    403    406 178.6   6.9  34136  289.17 0855.20
2009/04/23 09:59:33.9      41   -363    -17    366    367 173.5  -2.8  34134  289.13 0855.20
2009/04/23 09:59:34.0       9   -324    -23    325    326 178.4  -4.1  34136  289.15 0855.20
2009/04/23 09:59:34.1      21   -347     -9    348    349 176.4  -1.6  34144  289.30 0855.20
2009/04/23 09:59:34.2     -38   -322    -10    325    326 186.9  -1.9  34144  289.29 0855.20
2009/04/23 09:59:34.3     -63   -300    -27    307    309 192.0  -5.1  34138  289.19 0855.20
2009/04/23 09:59:34.4     -22   -309    -35    310    313 184.2  -6.6  34142  289.27 0855.20
2009/04/23 09:59:34.5     -26   -327    -29    329    331 184.7  -5.2  34146  289.33 0855.21
2009/04/23 09:59:34.6      56   -322    -12    328    329 170.0  -2.2  34140  289.22 0855.21
2009/04/23 09:59:34.7      12   -325     47    326    330 177.8   8.2  34140  289.24 0855.21
2009/04/23 09:59:34.8       0   -320     35    321    324 179.9   6.4  34140  289.24 0855.21
2009/04/23 09:59:34.9     -43   -366     41    369    372 186.8   6.5  34142  289.25 0855.21
2009/04/23 09:59:35.0    -162   -349     39    385    388 204.9   5.9  34142  289.25 0855.21
2009/04/23 09:59:35.1    -100   -451    126    463    481 192.5  15.3  34140  289.22 0855.21
2009/04/23 09:59:35.2    -181   -557    130    586    601 198.0  12.5  34142  289.27 0855.21
2009/04/23 09:59:35.3    -127   -481    153    498    522 194.8  17.1  34140  289.22 0855.21
2009/04/23 09:59:35.4    -107   -422    121    436    453 194.3  15.6  34134  289.14 0855.21
2009/04/23 09:59:35.5    -138   -399    123    423    441 199.2  16.3  34138  289.19 0855.21
2009/04/23 09:59:35.6     -77   -355    177    364    404 192.3  27.8  34140  289.23 0855.21
2009/04/23 09:59:35.7    -132   -327      9    353    354 202.1   1.6  34136  289.18 0855.21
2009/04/23 09:59:35.8    -127   -321    -46    346    350 201.6  -7.6  34136  289.18 0855.21
2009/04/23 09:59:35.9    -116   -380    -27    398    399 197.0  -4.0  34126  288.99 0855.21
2009/04/23 09:59:36.0    -103   -539    132    549    565 190.9  13.6  34132  289.09 0855.21
2009/04/23 09:59:36.1     -38   -529    253    531    588 184.1  27.3  34124  288.95 0855.21
2009/04/23 09:59:36.2    -182   -633    160    659    679 196.1  13.7  34120  288.88 0855.21
2009/04/23 09:59:36.3     -33   -498    222    500    547 183.8  25.6  34118  288.87 0855.21
2009/04/23 09:59:36.4      -7   -429    151    430    456 181.0  19.4  34124  288.97 0855.21
2009/04/23 09:59:36.5     -10   -575    244    576    625 181.0  24.4  34122  288.92 0855.21
2009/04/23 09:59:36.6    -105   -556    242    566    615 190.7  24.6  34124  288.95 0855.21
2009/04/23 09:59:36.7     -15   -633    287    634    695 181.4  26.0  34118  288.85 0855.21
2009/04/23 09:59:36.8    -119   -641    243    652    695 190.6  21.4  34124  288.95 0855.21
2009/04/23 09:59:36.9    -279   -648    110    706    715 203.3   8.9  34120  288.91 0855.21
2009/04/23 09:59:37.0    -446   -647      0    787    788 214.6   0.0  34124  288.95 0855.21
2009/04/23 09:59:37.1    -401   -479     -9    625    626 219.9  -0.9  34116  288.84 0855.21
2009/04/23 09:59:37.2    -314   -397     -5    507    508 218.3  -0.6  34120  288.91 0855.21
2009/04/23 09:59:37.3    -285   -429     21    516    517 213.6   2.4  34124  288.96 0855.21
2009/04/23 09:59:37.4    -350   -388     28    523    524 222.1   3.1  34128  289.04 0855.21
2009/04/23 09:59:37.5     -93   -461    157    471    497 191.5  18.4  34122  288.93 0855.20
2009/04/23 09:59:37.6      35   -312    114    315    334 173.5  20.7  34126  289.00 0855.20
2009/04/23 09:59:37.7       3   -235    197    236    307 179.1  43.8  34126  289.00 0855.20
2009/04/23 09:59:37.8     -29   -184    156    187    243 189.1  44.1  34126  288.99 0855.20
2009/04/23 09:59:37.9    -230    -97     53    250    256 247.2  12.0  34134  289.12 0855.20
2009/04/23 09:59:38.0    -311   -115   -114    332    352 249.7 -19.0  34114  288.79 0855.20
2009/04/23 09:59:38.1    -295    -79    -58    306    312 255.0 -10.8  34112  288.76 0855.20
2009/04/23 09:59:38.2    -200   -200    -20    283    284 225.0  -4.1  34116  288.83 0855.20
2009/04/23 09:59:38.3    -223   -164    -11    278    279 233.6  -2.3  34120  288.88 0855.20
2009/04/23 09:59:38.4    -427   -160    -91    457    467 249.4 -11.3  34126  289.00 0855.20
2009/04/23 09:59:38.5    -424   -159     18    453    454 249.4   2.3  34144  289.29 0855.20
2009/04/23 09:59:38.6    -368   -203     59    421    426 241.1   8.0  34144  289.29 0855.20
2009/04/23 09:59:38.7    -520   -282   -120    592    604 241.5 -11.5  34138  289.19 0855.20
2009/04/23 09:59:38.8    -522   -398   -113    657    667 232.7  -9.8  34130  289.07 0855.20
2009/04/23 09:59:38.9    -530   -363   -208    643    676 235.6 -17.9  34136  289.16 0855.20
2009/04/23 09:59:39.0    -479   -458   -103    663    672 226.3  -8.9  34138  289.21 0855.20
2009/04/23 09:59:39.1    -580   -302   -200    654    683 242.5 -21.9  34132  289.09 0855.20
2009/04/23 09:59:39.2    -337   -406   -184    528    559 219.7 -24.4  34132  289.09 0855.20
2009/04/23 09:59:39.3    -325   -511   -110    606    616 212.5 -10.4  34128  289.02 0855.20
2009/04/23 09:59:39.4    -321   -342   -171    470    500 223.2 -25.3  34136  289.17 0855.20
2009/04/23 09:59:39.5    -427   -239   -188    490    524 240.7 -26.4  34124  288.95 0855.20
2009/04/23 09:59:39.6    -301   -117    -96    324    339 248.7 -16.5  34146  289.35 0855.20
2009/04/23 09:59:39.7    -317   -208    -67    380    387 236.7 -10.1  34146  289.32 0855.20
2009/04/23 09:59:39.8    -341   -224    -57    409    414 236.7  -8.0  34146  289.33 0855.20
2009/04/23 09:59:39.9    -169   -129    -89    213    230 232.7 -28.2  34146  289.35 0855.20
2009/04/23 09:59:40.0     -16   -215    -52    216    223 184.4 -13.7  34146  289.33 0855.20
2009/04/23 09:59:40.1    -116   -169     57    206    214 214.5  15.6  34152  289.43 0855.20
2009/04/23 09:59:40.2    -274    -94     19    290    291 251.0   3.8  34150  289.39 0855.20
2009/04/23 09:59:40.3    -211    -82     19    227    228 248.7   4.9  34142  289.28 0855.20
2009/04/23 09:59:40.4    -148   -138    143    203    248 226.9  38.6  34156  289.49 0855.20
2009/04/23 09:59:40.5    -299    -13    -17    300    301 267.4  -3.3  34136  289.15 0855.20
2009/04/23 09:59:40.6     -85   -160    116    182    215 208.1  35.6  34138  289.21 0855.20
2009/04/23 09:59:40.7      25    -98     51    102    114 165.3  28.2  34152  289.43 0855.20
2009/04/23 09:59:40.8      81   -128     49    152    160 147.5  17.9  34146  289.33 0855.20
2009/04/23 09:59:40.9     136   -364     61    389    394 159.4   9.0  34136  289.15 0855.20
2009/04/23 09:59:41.0     207   -455     20    501    502 155.5   2.3  34134  289.12 0855.20
2009/04/23 09:59:41.1     260   -343    -38    431    433 142.8  -5.1  34132  289.09 0855.20
2009/04/23 09:59:41.2     163   -243   -134    293    322 146.2 -30.7  34134  289.12 0855.20
2009/04/23 09:59:41.3    -112   -138   -309    178    356 219.0 -72.0  34128  289.02 0855.20
2009/04/23 09:59:41.4     -55   -212   -131    220    256 194.7 -37.9  34138  289.20 0855.20
2009/04/23 09:59:41.5    -154   -245     26    290    292 212.3   5.2  34120  288.90 0855.21
2009/04/23 09:59:41.6     -21   -141    169    143    221 188.5  55.6  34142  289.26 0855.21
2009/04/23 09:59:41.7      87   -351    121    362    382 166.0  18.6  34130  289.08 0855.21
2009/04/23 09:59:41.8    -137   -359    -69    385    392 200.9 -10.2  34130  289.06 0855.21
2009/04/23 09:59:41.9    -288   -270   -180    395    434 226.9 -30.6  34138  289.21 0855.21
2009/04/23 09:59:42.0    -291   -178   -115    342    360 238.5 -23.5  34146  289.32 0855.21
2009/04/23 09:59:42.1    -263   -222   -104    345    360 229.9 -21.7  34148  289.38 0855.21
2009/04/23 09:59:42.2     -51   -303      0    308    309 189.7   0.0  34138  289.20 0855.21
2009/04/23 09:59:42.3    -119   -394    -16    412    413 196.9  -2.2  34138  289.19 0855.21
2009/04/23 09:59:42.4      35   -459     12    461    462 175.6   1.6  34136  289.16 0855.21
2009/04/23 09:59:42.5    -105   -451     18    464    465 193.2   2.3  34134  289.12 0855.21
2009/04/23 09:59:42.6     -65   -400    -73    406    413 189.2 -10.3  34138  289.21 0855.21
2009/04/23 09:59:42.7    -143   -257    -80    295    306 209.0 -15.2  34138  289.20 0855.21
2009/04/23 09:59:42.8    -149   -278    -60    316    322 208.3 -10.8  34134  289.14 0855.21
2009/04/23 09:59:42.9    -121   -336    -88    358    369 199.8 -13.8  34130  289.06 0855.21
2009/04/23 09:59:43.0    -110   -250    -86    274    288 203.8 -17.5  34134  289.12 0855.21
2009/04/23 09:59:43.1      19   -379     94    380    392 177.0  13.9  34128  289.04 0855.21
2009/04/23 09:59:43.2    -112   -399     89    415    425 195.7  12.1  34132  289.11 0855.21
2009/04/23 09:59:43.3    -127   -178    -88    219    236 215.6 -27.4  34128  289.02 0855.21
2009/04/23 09:59:43.4    -138   -200   -100    244    263 214.7 -27.8  34126  289.00 0855.21
2009/04/23 09:59:43.5      24   -207     55    209    217 173.3  14.7  34128  289.04 0855.23
2009/04/23 09:59:43.6      14   -314      5    315    316 177.4   1.0  34130  289.07 0855.23
2009/04/23 09:59:43.7      -8   -287    -67    288    296 181.8 -13.3  34130  289.07 0855.23
2009/04/23 09:59:43.8     -71   -212    -77    224    236 198.7 -24.0  34128  289.03 0855.23
2009/04/23 09:59:43.9    -123   -170   -129    211    247 216.0 -38.8  34130  289.07 0855.23
2009/04/23 09:59:44.0     -95   -147     29    176    179 213.0   9.3  34128  289.04 0855.23
2009/04/23 09:59:44.1    -128   -229      0    263    264 209.2   0.0  34124  288.95 0855.23
2009/04/23 09:59:44.2    -157   -270    109    313    332 210.2  19.3  34132  289.10 0855.23
2009/04/23 09:59:44.3    -248    -92     95    265    282 249.6  19.9  34138  289.19 0855.23
2009/04/23 09:59:44.4    -127    -92     18    158    160 234.1   6.5  34134  289.13 0855.23
2009/04/23 09:59:44.5    -274    -59     65    281    289 257.8  13.1  34134  289.14 0855.23
2009/04/23 09:59:44.6    -118   -146     59    188    198 219.0  17.4  34134  289.14 0855.23
2009/04/23 09:59:44.7     -46   -296   -101    300    317 188.9 -18.7  34140  289.24 0855.23
2009/04/23 09:59:44.8      18   -334   -123    335    356 176.8 -25.4  34130  289.08 0855.23
2009/04/23 09:59:44.9     -44   -309    -41    313    316 188.1  -7.5  34140  289.24 0855.23
2009/04/23 09:59:45.0     -69   -273    -25    282    284 194.3  -5.1  34126  288.98 0855.23
2009/04/23 09:59:45.1     -67   -370    -75    377    385 190.3 -11.3  34136  289.18 0855.23
2009/04/23 09:59:45.2      79   -387     11    396    397 168.4   1.7  34128  289.04 0855.23
2009/04/23 09:59:45.3     203   -319    167    379    414 147.5  25.2  34130  289.07 0855.23
2009/04/23 09:59:45.4     132   -363    131    387    409 160.0  18.8  34132  289.11 0855.23
2009/04/23 09:59:45.5     187   -430     22    469    470 156.5   2.8  34126  289.01 0855.23
2009/04/23 09:59:45.7     166   -345     60    383    388 154.3   9.0  34132  289.10 0855.25
2009/04/23 09:59:45.8     329   -320      8    459    460 134.2   1.1  34124  288.97 0855.25
2009/04/23 09:59:45.8     377   -387   -104    541    551 135.8 -10.9  34126  288.99 0855.25
2009/04/23 09:59:46.0     270   -438    -75    515    521 148.3  -8.4  34130  289.06 0855.25
2009/04/23 09:59:46.1     262   -388    144    469    491 145.9  17.1  34126  289.00 0855.25
2009/04/23 09:59:46.2     173   -381    115    419    435 155.5  15.4  34126  289.00 0855.25
2009/04/23 09:59:46.3     147   -288    156    324    359 153.0  27.4  34124  288.96 0855.25
2009/04/23 09:59:46.4     118   -214    140    245    282 151.0  32.4  34132  289.10 0855.25
2009/04/23 09:59:46.5      36   -285    181    288    340 172.7  35.3  34118  288.85 0855.25
2009/04/23 09:59:46.6      73   -242    125    254    283 163.1  28.2  34130  289.05 0855.25
2009/04/23 09:59:46.7      14    -91     82     93    123 171.1  45.9  34132  289.11 0855.25
2009/04/23 09:59:46.8     -30   -311    182    313    362 185.6  32.8  34132  289.11 0855.25
2009/04/23 09:59:46.9    -132   -405     76    427    434 198.1  10.1  34140  289.22 0855.25
2009/04/23 09:59:47.0    -104   -437    -90    450    459 193.4 -11.3  34132  289.09 0855.25
2009/04/23 09:59:47.1    -109   -314    -23    333    334 199.2  -4.0  34130  289.06 0855.25
2009/04/23 09:59:47.2    -273   -443    -28    521    522 211.6  -3.2  34118  288.87 0855.25
2009/04/23 09:59:47.3    -375   -204   -135    428    449 241.4 -17.6  34120  288.89 0855.25
2009/04/23 09:59:47.4    -371   -117     11    390    391 252.4   1.7  34140  289.23 0855.25
2009/04/23 09:59:47.5    -487   -200   -145    527    547 247.7 -15.4  34108  288.70 0855.25
2009/04/23 09:59:47.6    -391   -249   -120    464    480 237.5 -14.5  34114  288.79 0855.26
2009/04/23 09:59:47.7    -312   -290   -121    426    443 227.1 -15.9  34110  288.73 0855.26
2009/04/23 09:59:47.8    -182   -356    -69    400    407 207.1  -9.8  34110  288.73 0855.26
2009/04/23 09:59:47.9    -231   -248    -26    340    342 223.0  -4.5  34122  288.93 0855.26
2009/04/23 09:59:48.0    -185   -312   -105    363    378 210.7 -16.2  34118  288.86 0855.26
2009/04/23 09:59:48.1    -108   -210    -91    237    253 207.2 -26.4  34128  289.02 0855.26
2009/04/23 09:59:48.2    -135   -104    -73    171    185 232.2 -29.0  34134  289.14 0855.26
2009/04/23 09:59:48.3    -136   -266   -117    299    321 207.1 -26.9  34128  289.02 0855.26
2009/04/23 09:59:48.4    -323   -171   -108    366    381 242.0 -21.2  34122  288.93 0855.26
2009/04/23 09:59:48.5    -299    -13   -129    300    326 267.5 -29.2  34124  288.97 0855.26
2009/04/23 09:59:48.6    -262    -48   -139    267    301 259.6 -34.2  34126  288.98 0855.26
2009/04/23 09:59:48.7    -371    -46    -95    374    386 262.9 -14.3  34126  288.99 0855.26
2009/04/23 09:59:48.8    -450   -143   -161    473    500 252.3 -18.8  34116  288.84 0855.26
2009/04/23 09:59:48.9    -298   -204   -172    362    400 235.6 -31.7  34120  288.89 0855.26
2009/04/23 09:59:49.0    -312    -92   -281    326    430 253.6 -49.6  34110  288.71 0855.26
2009/04/23 09:59:49.1    -275   -214   -166    349    386 232.2 -31.7  34112  288.77 0855.26
2009/04/23 09:59:49.2    -114   -320    -37    340    343 199.7  -6.3  34110  288.72 0855.26
2009/04/23 09:59:49.3     -50   -319    -98    324    339 189.0 -16.9  34114  288.79 0855.26
2009/04/23 09:59:49.4     -17   -383     60    384    389 182.6   8.9  34108  288.69 0855.26
2009/04/23 09:59:49.5     -88   -164     99    187    211 208.3  30.1  34114  288.79 0855.26
2009/04/23 09:59:49.6     -65   -214    207    224    305 197.0  47.9  34118  288.85 0855.26
2009/04/23 09:59:49.7    -104    -79    134    131    187 232.7  50.7  34114  288.80 0855.26
2009/04/23 09:59:49.8    -127      5     74    128    147 272.6  32.9  34122  288.92 0855.26
2009/04/23 09:59:49.9    -203     79     31    218    221 291.3   8.2  34118  288.86 0855.26
2009/04/23 09:59:50.0    -268      6    -34    269    272 271.5  -7.2  34108  288.68 0855.26
2009/04/23 09:59:50.1    -338     97    -21    352    353 286.1  -3.5  34116  288.81 0855.26
2009/04/23 09:59:50.2    -206   -106    -77    232    244 242.7 -23.8  34116  288.81 0855.26
2009/04/23 09:59:50.3     -70   -205     18    217    218 198.9   4.9  34116  288.82 0855.26
2009/04/23 09:59:50.4    -103   -171      4    200    201 211.0   1.2  34120  288.91 0855.26
2009/04/23 09:59:50.5     -41   -135     59    142    153 197.0  23.1  34120  288.91 0855.26
2009/04/23 09:59:50.6      97   -263     38    281    284 159.7   7.8  34116  288.83 0855.26
2009/04/23 09:59:50.7     215   -332    118    396    414 147.0  16.6  34120  288.90 0855.26
2009/04/23 09:59:50.8     335   -302    160    452    479 132.0  20.3  34116  288.84 0855.26
2009/04/23 09:59:50.9     274   -236     47    362    366 130.8   7.4  34104  288.64 0855.26
2009/04/23 09:59:51.0     450   -219   -141    501    520 116.0 -20.4  34100  288.56 0855.26
2009/04/23 09:59:51.1     685   -264     91    735    741 111.1   7.1  34110  288.74 0855.26
2009/04/23 09:59:51.2     618   -163    558    640    849 104.8  45.5  34110  288.71 0855.26
2009/04/23 09:59:51.3     418   -104    382    431    575 104.1  46.1  34112  288.75 0855.26
2009/04/23 09:59:51.4     311      0    380    312    491  90.0  56.4  34110  288.73 0855.26
2009/04/23 09:59:51.5     630   -128     19    643    644 101.5   1.7  34112  288.76 0855.26
2009/04/23 09:59:51.6     479   -100    259    490    554 101.9  30.2  34104  288.63 0855.24
2009/04/23 09:59:51.7     309   -201     88    369    380 123.1  13.5  34110  288.72 0855.24
2009/04/23 09:59:51.8     251   -181   -169    310    353 125.9 -35.3  34114  288.79 0855.24
2009/04/23 09:59:51.9     149    -10   -110    150    186  93.9 -44.3  34108  288.69 0855.24
2009/04/23 09:59:52.0     162    -59    105    173    202 110.2  34.2  34116  288.82 0855.24
2009/04/23 09:59:52.1     183   -100    139    209    251 118.6  36.5  34118  288.85 0855.24
2009/04/23 09:59:52.2      69   -243    185    253    313 164.0  39.9  34114  288.80 0855.24
2009/04/23 09:59:52.3     216   -398    232    453    508 151.5  29.3  34100  288.54 0855.24
2009/04/23 09:59:52.4     187   -428    279    468    544 156.4  33.5  34102  288.58 0855.24
2009/04/23 09:59:52.5     136   -333    288    360    461 157.8  42.8  34108  288.68 0855.24
2009/04/23 09:59:52.6      77   -338    254    347    430 167.1  39.7  34106  288.65 0855.24
2009/04/23 09:59:52.7     161   -189    241    249    346 139.5  49.1  34106  288.66 0855.24
2009/04/23 09:59:52.8     -11   -154    244    155    289 184.4  64.7  34110  288.71 0855.24
2009/04/23 09:59:52.9     -54   -249    268    255    369 192.3  51.5  34100  288.54 0855.24
2009/04/23 09:59:53.0       3   -236    316    237    395 179.1  59.6  34108  288.69 0855.24
2009/04/23 09:59:53.1    -204   -260    205    331    389 218.2  35.1  34120  288.89 0855.24
2009/04/23 09:59:53.2    -185   -281     94    337    350 213.3  15.6  34126  289.01 0855.24
2009/04/23 09:59:53.3     -83   -195     73    213    226 203.2  18.9  34118  288.87 0855.24
2009/04/23 09:59:53.4     -60   -251    191    259    321 193.6  40.0  34120  288.90 0855.24
2009/04/23 09:59:53.5    -200   -240    112    313    332 219.9  20.3  34116  288.81 0855.24
2009/04/23 09:59:53.6    -394     42    -72    397    404 276.1 -10.3  34152  289.45 0855.23
2009/04/23 09:59:53.7    -397    -25    -37    398    400 266.4  -5.4  34136  289.18 0855.23
2009/04/23 09:59:53.8    -694     78   -171    699    720 276.5 -13.8  34130  289.06 0855.23
2009/04/23 09:59:53.9    -873    191   -244    894    927 282.4 -15.3  34120  288.90 0855.23
2009/04/23 09:59:54.0    -694    252   -250    739    781 290.0 -18.7  34130  289.06 0855.23
2009/04/23 09:59:54.1    -369    112    -54    386    390 287.0  -8.0  34126  288.99 0855.23
2009/04/23 09:59:54.2    -414    -25   -281    415    501 266.5 -41.8  34126  289.00 0855.23
2009/04/23 09:59:54.3    -345     -8    -62    346    352 268.5 -10.2  34122  288.94 0855.23
2009/04/23 09:59:54.4    -201     51     39    208    212 284.4  10.8  34134  289.13 0855.23
2009/04/23 09:59:54.5     -53    132    126    143    190 338.1  45.8  34138  289.19 0855.23
2009/04/23 09:59:54.6    -118     65     95    135    165 298.9  38.6  34146  289.33 0855.23
2009/04/23 09:59:54.7    -130     84     18    155    157 302.9   6.9  34134  289.13 0855.23
2009/04/23 09:59:54.8     -19    439     78    440    447 357.4  10.1  34136  289.16 0855.23
2009/04/23 09:59:54.9    -141    140    -60    199    207 314.8 -21.7  34126  289.01 0855.23
2009/04/23 09:59:55.0    -136     36     27    141    144 285.1  11.1  34138  289.19 0855.23
2009/04/23 09:59:55.1    -232    113    143    259    295 296.0  31.4  34144  289.29 0855.23
2009/04/23 09:59:55.2    -218    127    163    253    300 300.2  35.6  34140  289.22 0855.23
2009/04/23 09:59:55.3      33    202    167    205    264   9.3  43.7  34144  289.31 0855.23
2009/04/23 09:59:55.4      37    263    125    266    293   8.0  27.1  34158  289.54 0855.23
2009/04/23 09:59:55.5      12    212     66    213    224   3.4  17.3  34164  289.65 0855.23
2009/04/23 09:59:55.6     -20    180     33    182    186 353.5  10.3  34148  289.36 0855.20
2009/04/23 09:59:55.7     -20    142    -12    144    145 351.9  -5.1  34158  289.53 0855.20
2009/04/23 09:59:55.8     -94    110     22    145    147 319.5   9.0  34154  289.46 0855.20
2009/04/23 09:59:55.9    -199    179     -5    268    269 312.0  -1.3  34154  289.46 0855.20
2009/04/23 09:59:56.0    -337    159     22    373    374 295.4   3.5  34156  289.52 0855.20
2009/04/23 09:59:56.1    -271     64      3    279    280 283.3   0.8  34166  289.66 0855.20
2009/04/23 09:59:56.2    -313     18    -87    314    325 273.4 -20.1  34154  289.46 0855.20
2009/04/23 09:59:56.3    -266   -108   -186    288    342 247.8 -40.1  34134  289.14 0855.20
2009/04/23 09:59:56.4    -425    -36   -328    427    538 265.0 -45.8  34136  289.15 0855.20
2009/04/23 09:59:56.5    -331      4   -101    332    347 270.7 -22.1  34142  289.28 0855.20
2009/04/23 09:59:56.6    -403     52      5    407    408 277.5   0.7  34162  289.60 0855.20
2009/04/23 09:59:56.7    -510   -119    -67    524    529 256.8  -7.3  34166  289.67 0855.20
2009/04/23 09:59:56.8    -381   -238    -77    450    457 238.0  -9.8  34166  289.68 0855.20
2009/04/23 09:59:56.9    -399   -209    -30    451    452 242.3  -3.9  34164  289.63 0855.20
2009/04/23 09:59:57.0    -349   -206   -125    406    426 239.5 -17.2  34174  289.80 0855.20
2009/04/23 09:59:57.1    -351   -344    -78    492    499 225.6  -9.0  34150  289.39 0855.20
2009/04/23 09:59:57.2    -206   -386     48    438    441 208.1   6.4  34136  289.16 0855.20
2009/04/23 09:59:57.3    -208   -420     61    469    473 206.4   7.4  34144  289.30 0855.20
2009/04/23 09:59:57.4     -99   -370    -18    384    385 195.1  -2.7  34140  289.23 0855.20
2009/04/23 09:59:57.5    -122   -454    -72    471    477 195.1  -8.7  34134  289.12 0855.20
2009/04/23 09:59:57.6    -278   -339   -194    439    479 219.4 -30.0  34142  289.25 0855.19
2009/04/23 09:59:57.7    -161   -440    -26    469    470 200.1  -3.2  34136  289.15 0855.19
2009/04/23 09:59:57.8    -356   -429   -147    558    578 219.7 -14.8  34148  289.37 0855.19
2009/04/23 09:59:57.9    -212   -340     23    401    402 212.0   3.3  34142  289.26 0855.19
2009/04/23 09:59:58.0    -191   -539    224    573    615 199.6  22.5  34144  289.29 0855.19
2009/04/23 09:59:58.1    -236   -431     70    492    498 208.7   8.1  34150  289.39 0855.19
2009/04/23 09:59:58.2     -75   -419     75    426    433 190.2  10.1  34142  289.26 0855.19
2009/04/23 09:59:58.3    -276   -334    219    434    486 219.6  28.7  34142  289.27 0855.19
2009/04/23 09:59:58.4    -157   -305    152    344    376 207.3  25.2  34148  289.38 0855.19
2009/04/23 09:59:58.5    -335   -192     60    387    392 240.1   8.9  34136  289.18 0855.19
2009/04/23 09:59:58.6    -291   -459   -183    544    575 212.4 -18.6  34140  289.24 0855.18
2009/04/23 09:59:58.7    -172   -374   -114    412    428 204.7 -15.5  34124  288.97 0855.18
2009/04/23 09:59:58.8    -258   -307     22    402    403 220.1   3.2  34142  289.25 0855.18
2009/04/23 09:59:58.9    -311   -458     61    554    558 214.2   6.4  34150  289.41 0855.18
2009/04/23 09:59:59.0    -317   -474     36    571    573 213.8   3.6  34138  289.19 0855.18
2009/04/23 09:59:59.1    -341   -324      9    471    472 226.5   1.1  34138  289.20 0855.18
2009/04/23 09:59:59.2    -307   -203    186    369    413 236.5  28.7  34136  289.15 0855.18
2009/04/23 09:59:59.3    -248    -68    141    258    294 254.5  31.3  34140  289.24 0855.18
2009/04/23 09:59:59.4    -260    118    103    286    305 294.4  19.9  34146  289.32 0855.18
2009/04/23 09:59:59.5    -137     75    130    157    203 298.9  43.7  34154  289.48 0855.18
2009/04/23 09:59:59.6    -148   -141    184    205    275 226.4  46.6  34152  289.44 0855.18
2009/04/23 09:59:59.7     -91    125   -119    155    195 323.9 -46.0  34162  289.62 0855.18
2009/04/23 09:59:59.8    -169   -107   -129    201    238 237.6 -40.1  34158  289.53 0855.18
